<?xml version='1.0' encoding='UTF-8'?><gpx version="1.1" creator="JPX - https://github.com/jenetics/jpx" xmlns="http://www.topografix.com/GPX/1/1"><trk><trkseg><trkpt lat="45.80653744295188" lon="9.823483626378962"><ele>693.0</ele><time>2026-04-03T13:20:35.998Z</time></trkpt><trkpt lat="45.80660195426696" lon="9.823511778768959"><ele>693.0</ele><time>2026-04-03T13:21:27.995Z</time></trkpt><trkpt lat="45.806550788230716" lon="9.823451293308032"><ele>693.0</ele><time>2026-04-03T13:21:43.994Z</time></trkpt><trkpt lat="45.806519253420845" lon="9.823357877300774"><ele>693.0</ele><time>2026-04-03T13:21:44.994Z</time></trkpt><trkpt lat="45.80644163626646" lon="9.82337881657752"><ele>693.0</ele><time>2026-04-03T13:21:45.994Z</time></trkpt><trkpt lat="45.80633098844713" lon="9.823414333399265"><ele>693.0</ele><time>2026-04-03T13:21:46.994Z</time></trkpt><trkpt lat="45.80623626730574" lon="9.823416046194982"><ele>693.0</ele><time>2026-04-03T13:21:47.994Z</time></trkpt><trkpt lat="45.806153260541514" lon="9.823408403949324"><ele>693.0</ele><time>2026-04-03T13:21:48.994Z</time></trkpt><trkpt lat="45.80617639127654" lon="9.823299937992129"><ele>693.0</ele><time>2026-04-03T13:21:51.994Z</time></trkpt><trkpt lat="45.80624416343033" lon="9.82338365016103"><ele>693.0</ele><time>2026-04-03T13:21:54.993Z</time></trkpt><trkpt lat="45.80631116450377" lon="9.82337653760141"><ele>693.0</ele><time>2026-04-03T13:21:55.993Z</time></trkpt><trkpt lat="45.80640821432268" lon="9.823363078527372"><ele>693.0</ele><time>2026-04-03T13:21:57.993Z</time></trkpt><trkpt lat="45.8062364812474" lon="9.82349732635642"><ele>693.0</ele><time>2026-04-03T13:21:58.993Z</time></trkpt><trkpt lat="45.806111045055815" lon="9.823573596810041"><ele>693.0</ele><time>2026-04-03T13:22:00.993Z</time></trkpt><trkpt lat="45.80598602806956" lon="9.82369182590796"><ele>693.0</ele><time>2026-04-03T13:22:03.993Z</time></trkpt><trkpt lat="45.80590456946172" lon="9.823755037336982"><ele>693.0</ele><time>2026-04-03T13:22:04.993Z</time></trkpt><trkpt lat="45.80577565833365" lon="9.823849453452954"><ele>686.0</ele><time>2026-04-03T13:22:05.993Z</time></trkpt><trkpt lat="45.805643425702364" lon="9.82391424581642"><ele>679.0</ele><time>2026-04-03T13:22:06.993Z</time></trkpt><trkpt lat="45.80555280339804" lon="9.823971272019298"><ele>672.0</ele><time>2026-04-03T13:22:07.993Z</time></trkpt><trkpt lat="45.805871169736115" lon="9.824102852584321"><ele>672.0</ele><time>2026-04-03T13:22:08.993Z</time></trkpt><trkpt lat="45.80593673102004" lon="9.824237448993879"><ele>672.0</ele><time>2026-04-03T13:22:10.992Z</time></trkpt><trkpt lat="45.805942766016756" lon="9.824355080382297"><ele>672.0</ele><time>2026-04-03T13:22:11.992Z</time></trkpt><trkpt lat="45.80592655476267" lon="9.824488033965677"><ele>672.0</ele><time>2026-04-03T13:22:12.992Z</time></trkpt><trkpt lat="45.80592506676705" lon="9.82462886222964"><ele>672.0</ele><time>2026-04-03T13:22:13.992Z</time></trkpt><trkpt lat="45.80593814095081" lon="9.824762179585905"><ele>673.0</ele><time>2026-04-03T13:22:14.992Z</time></trkpt><trkpt lat="45.805951461984364" lon="9.824871831158235"><ele>674.0</ele><time>2026-04-03T13:22:15.992Z</time></trkpt><trkpt lat="45.805992557985206" lon="9.82497461523751"><ele>675.0</ele><time>2026-04-03T13:22:16.992Z</time></trkpt><trkpt lat="45.806044392480665" lon="9.825050401190234"><ele>676.0</ele><time>2026-04-03T13:22:17.992Z</time></trkpt><trkpt lat="45.80608515870495" lon="9.825130488251338"><ele>677.0</ele><time>2026-04-03T13:22:18.992Z</time></trkpt><trkpt lat="45.80609815660469" lon="9.825296787024008"><ele>678.0</ele><time>2026-04-03T13:22:20.992Z</time></trkpt><trkpt lat="45.80601766542972" lon="9.825425919996182"><ele>674.4</ele><time>2026-04-03T13:22:22.992Z</time></trkpt><trkpt lat="45.80598745591516" lon="9.825616854080526"><ele>670.8</ele><time>2026-04-03T13:22:24.992Z</time></trkpt><trkpt lat="45.80596442282815" lon="9.825701542737503"><ele>667.2</ele><time>2026-04-03T13:22:25.992Z</time></trkpt><trkpt lat="45.805944878724716" lon="9.825862634924885"><ele>663.6</ele><time>2026-04-03T13:22:27.992Z</time></trkpt><trkpt lat="45.8059665099918" lon="9.825972560146003"><ele>660.0</ele><time>2026-04-03T13:22:28.992Z</time></trkpt><trkpt lat="45.806011156482754" lon="9.826104562360014"><ele>660.0</ele><time>2026-04-03T13:22:29.991Z</time></trkpt><trkpt lat="45.80606839644611" lon="9.826215020333633"><ele>660.0</ele><time>2026-04-03T13:22:30.991Z</time></trkpt><trkpt lat="45.80613056190859" lon="9.826351594935627"><ele>660.0</ele><time>2026-04-03T13:22:31.991Z</time></trkpt><trkpt lat="45.80617720803601" lon="9.82651286594113"><ele>660.0</ele><time>2026-04-03T13:22:32.991Z</time></trkpt><trkpt lat="45.80624186382718" lon="9.826685865458677"><ele>655.75</ele><time>2026-04-03T13:22:33.991Z</time></trkpt><trkpt lat="45.806316502663975" lon="9.826861476171347"><ele>651.5</ele><time>2026-04-03T13:22:34.991Z</time></trkpt><trkpt lat="45.806383583178125" lon="9.826995320534463"><ele>647.25</ele><time>2026-04-03T13:22:35.991Z</time></trkpt><trkpt lat="45.806462361110945" lon="9.827109028589861"><ele>643.0</ele><time>2026-04-03T13:22:36.991Z</time></trkpt><trkpt lat="45.80653053536145" lon="9.827193207050776"><ele>643.0</ele><time>2026-04-03T13:22:37.991Z</time></trkpt><trkpt lat="45.8065835120162" lon="9.827245369105805"><ele>643.0</ele><time>2026-04-03T13:22:38.991Z</time></trkpt><trkpt lat="45.80661674764762" lon="9.827405669872865"><ele>643.0</ele><time>2026-04-03T13:22:40.991Z</time></trkpt><trkpt lat="45.80664383290288" lon="9.827532069252257"><ele>643.0</ele><time>2026-04-03T13:22:41.991Z</time></trkpt><trkpt lat="45.806671013564106" lon="9.827651483752247"><ele>643.0</ele><time>2026-04-03T13:22:42.991Z</time></trkpt><trkpt lat="45.80667039467869" lon="9.827801244242545"><ele>646.0</ele><time>2026-04-03T13:22:44.991Z</time></trkpt><trkpt lat="45.80669406322431" lon="9.827885660247185"><ele>649.0</ele><time>2026-04-03T13:22:45.991Z</time></trkpt><trkpt lat="45.80675538478636" lon="9.82803317242348"><ele>652.0</ele><time>2026-04-03T13:22:47.99Z</time></trkpt><trkpt lat="45.8067882656507" lon="9.828121840925071"><ele>655.0</ele><time>2026-04-03T13:22:48.99Z</time></trkpt><trkpt lat="45.806860307692276" lon="9.82827326119203"><ele>658.0</ele><time>2026-04-03T13:22:50.99Z</time></trkpt><trkpt lat="45.8068969919936" lon="9.828429082485624"><ele>650.75</ele><time>2026-04-03T13:22:52.99Z</time></trkpt><trkpt lat="45.80695860220362" lon="9.828539879866335"><ele>643.5</ele><time>2026-04-03T13:22:54.99Z</time></trkpt><trkpt lat="45.8070466054305" lon="9.82862789427394"><ele>636.25</ele><time>2026-04-03T13:22:56.99Z</time></trkpt><trkpt lat="45.80713413353104" lon="9.828718509305622"><ele>629.0</ele><time>2026-04-03T13:22:58.99Z</time></trkpt><trkpt lat="45.807215684399246" lon="9.828941595489944"><ele>629.0</ele><time>2026-04-03T13:23:00.99Z</time></trkpt><trkpt lat="45.807270785207436" lon="9.829078196082188"><ele>629.0</ele><time>2026-04-03T13:23:01.99Z</time></trkpt><trkpt lat="45.80733949509978" lon="9.829213863634399"><ele>629.0</ele><time>2026-04-03T13:23:02.99Z</time></trkpt><trkpt lat="45.80740950530716" lon="9.82931657376746"><ele>629.0</ele><time>2026-04-03T13:23:03.99Z</time></trkpt><trkpt lat="45.80747330943908" lon="9.829428077045968"><ele>629.0</ele><time>2026-04-03T13:23:04.99Z</time></trkpt><trkpt lat="45.80754093010311" lon="9.82951780703669"><ele>628.8333333333333</ele><time>2026-04-03T13:23:05.99Z</time></trkpt><trkpt lat="45.80761579827666" lon="9.829612564651873"><ele>628.6666666666666</ele><time>2026-04-03T13:23:06.989Z</time></trkpt><trkpt lat="45.807681953247" lon="9.829693833580762"><ele>628.5</ele><time>2026-04-03T13:23:07.989Z</time></trkpt><trkpt lat="45.80773061018549" lon="9.829770934991242"><ele>628.3333333333334</ele><time>2026-04-03T13:23:08.989Z</time></trkpt><trkpt lat="45.8077629073981" lon="9.829870752899843"><ele>628.1666666666667</ele><time>2026-04-03T13:23:09.989Z</time></trkpt><trkpt lat="45.80779634675317" lon="9.82996649601247"><ele>628.0</ele><time>2026-04-03T13:23:10.989Z</time></trkpt><trkpt lat="45.80786436056302" lon="9.83007190513378"><ele>622.1999999999999</ele><time>2026-04-03T13:23:11.989Z</time></trkpt><trkpt lat="45.80793246885241" lon="9.83017391619567"><ele>616.4</ele><time>2026-04-03T13:23:12.989Z</time></trkpt><trkpt lat="45.80798768583867" lon="9.830283058912084"><ele>610.5999999999999</ele><time>2026-04-03T13:23:13.989Z</time></trkpt><trkpt lat="45.808042284976636" lon="9.830383216131194"><ele>604.8</ele><time>2026-04-03T13:23:14.989Z</time></trkpt><trkpt lat="45.808085577853916" lon="9.830454257606755"><ele>599.0</ele><time>2026-04-03T13:23:15.989Z</time></trkpt><trkpt lat="45.80816059392901" lon="9.830570687587942"><ele>599.0</ele><time>2026-04-03T13:23:17.989Z</time></trkpt><trkpt lat="45.808206436054014" lon="9.830679164342625"><ele>599.0</ele><time>2026-04-03T13:23:19.989Z</time></trkpt><trkpt lat="45.80819885537585" lon="9.83077282299647"><ele>599.0</ele><time>2026-04-03T13:23:21.989Z</time></trkpt><trkpt lat="45.80817066461892" lon="9.83091223419744"><ele>599.0</ele><time>2026-04-03T13:23:23.989Z</time></trkpt><trkpt lat="45.80816723397948" lon="9.83107471234038"><ele>599.0</ele><time>2026-04-03T13:23:25.988Z</time></trkpt><trkpt lat="45.808185404696545" lon="9.83117523397686"><ele>599.0</ele><time>2026-04-03T13:23:26.988Z</time></trkpt><trkpt lat="45.808210086859695" lon="9.831265670367817"><ele>594.6</ele><time>2026-04-03T13:23:27.988Z</time></trkpt><trkpt lat="45.80823693330272" lon="9.83143732838265"><ele>590.2</ele><time>2026-04-03T13:23:29.988Z</time></trkpt><trkpt lat="45.808257189078184" lon="9.83154823912437"><ele>585.8000000000001</ele><time>2026-04-03T13:23:30.988Z</time></trkpt><trkpt lat="45.80828221287371" lon="9.831692954834285"><ele>581.4</ele><time>2026-04-03T13:23:32.988Z</time></trkpt><trkpt lat="45.80827908684561" lon="9.831847719341448"><ele>577.0</ele><time>2026-04-03T13:23:34.988Z</time></trkpt><trkpt lat="45.808271680440214" lon="9.832010900776712"><ele>575.5</ele><time>2026-04-03T13:23:36.988Z</time></trkpt><trkpt lat="45.80827968828344" lon="9.832102987574618"><ele>574.0</ele><time>2026-04-03T13:23:38.988Z</time></trkpt><trkpt lat="45.808323399248124" lon="9.832180739263311"><ele>572.5</ele><time>2026-04-03T13:23:40.988Z</time></trkpt><trkpt lat="45.8084171919974" lon="9.832180285210637"><ele>571.0</ele><time>2026-04-03T13:23:42.988Z</time></trkpt><trkpt lat="45.80851901132798" lon="9.832198528414049"><ele>569.5</ele><time>2026-04-03T13:23:44.987Z</time></trkpt><trkpt lat="45.80855178013377" lon="9.832278376482304"><ele>568.0</ele><time>2026-04-03T13:23:46.987Z</time></trkpt><trkpt lat="45.80853120139007" lon="9.83245023398871"><ele>565.6</ele><time>2026-04-03T13:23:48.987Z</time></trkpt><trkpt lat="45.808501097313" lon="9.832536675725951"><ele>563.1999999999999</ele><time>2026-04-03T13:23:49.987Z</time></trkpt><trkpt lat="45.8084413313221" lon="9.832672793307303"><ele>560.8</ele><time>2026-04-03T13:23:51.987Z</time></trkpt><trkpt lat="45.808398752566944" lon="9.832813895955711"><ele>558.4</ele><time>2026-04-03T13:23:53.987Z</time></trkpt><trkpt lat="45.808387645038906" lon="9.83299861119672"><ele>556.0</ele><time>2026-04-03T13:23:55.987Z</time></trkpt><trkpt lat="45.808408271999724" lon="9.833147949247161"><ele>556.0</ele><time>2026-04-03T13:23:57.987Z</time></trkpt><trkpt lat="45.808417432448124" lon="9.833261159017527"><ele>556.0</ele><time>2026-04-03T13:23:58.987Z</time></trkpt><trkpt lat="45.80840942003897" lon="9.833388725284575"><ele>556.0</ele><time>2026-04-03T13:23:59.987Z</time></trkpt><trkpt lat="45.808408867694375" lon="9.833488337877112"><ele>556.0</ele><time>2026-04-03T13:24:00.987Z</time></trkpt><trkpt lat="45.80846096762084" lon="9.833561041927561"><ele>556.0</ele><time>2026-04-03T13:24:02.986Z</time></trkpt><trkpt lat="45.808514477782396" lon="9.833671472642246"><ele>556.0</ele><time>2026-04-03T13:24:04.986Z</time></trkpt><trkpt lat="45.808542571555506" lon="9.833857904939398"><ele>552.8333333333334</ele><time>2026-04-03T13:24:06.986Z</time></trkpt><trkpt lat="45.8085903205046" lon="9.83400420700053"><ele>549.6666666666667</ele><time>2026-04-03T13:24:08.986Z</time></trkpt><trkpt lat="45.808601664804556" lon="9.834111386991934"><ele>546.5</ele><time>2026-04-03T13:24:09.986Z</time></trkpt><trkpt lat="45.80860535968797" lon="9.834217438994928"><ele>543.3333333333334</ele><time>2026-04-03T13:24:10.986Z</time></trkpt><trkpt lat="45.80859706059238" lon="9.834321856679136"><ele>540.1666666666666</ele><time>2026-04-03T13:24:12.986Z</time></trkpt><trkpt lat="45.80858842709216" lon="9.83445396096555"><ele>537.0</ele><time>2026-04-03T13:24:14.986Z</time></trkpt><trkpt lat="45.80861290596169" lon="9.834604876780963"><ele>535.6</ele><time>2026-04-03T13:24:16.986Z</time></trkpt><trkpt lat="45.80866787727672" lon="9.83471173393504"><ele>534.2</ele><time>2026-04-03T13:24:18.986Z</time></trkpt><trkpt lat="45.80873306181509" lon="9.834890234630311"><ele>532.8</ele><time>2026-04-03T13:24:20.985Z</time></trkpt><trkpt lat="45.80879919417135" lon="9.835019832273428"><ele>531.4</ele><time>2026-04-03T13:24:22.985Z</time></trkpt><trkpt lat="45.80882983804172" lon="9.835113729599005"><ele>530.0</ele><time>2026-04-03T13:24:23.985Z</time></trkpt><trkpt lat="45.80887970652104" lon="9.835226581194295"><ele>529.8333333333333</ele><time>2026-04-03T13:24:25.985Z</time></trkpt><trkpt lat="45.8089209077037" lon="9.835304966938203"><ele>529.6666666666666</ele><time>2026-04-03T13:24:26.985Z</time></trkpt><trkpt lat="45.80898250348781" lon="9.83538447425594"><ele>529.5</ele><time>2026-04-03T13:24:28.985Z</time></trkpt><trkpt lat="45.80900755078692" lon="9.835468754470295"><ele>529.3333333333334</ele><time>2026-04-03T13:24:29.985Z</time></trkpt><trkpt lat="45.80901415676937" lon="9.835620212643567"><ele>529.1666666666667</ele><time>2026-04-03T13:24:31.985Z</time></trkpt><trkpt lat="45.809016141142806" lon="9.835757618196531"><ele>529.0</ele><time>2026-04-03T13:24:33.985Z</time></trkpt><trkpt lat="45.80903253754705" lon="9.835878008557142"><ele>527.8333333333334</ele><time>2026-04-03T13:24:36.985Z</time></trkpt><trkpt lat="45.80901160636551" lon="9.83598100176869"><ele>526.6666666666667</ele><time>2026-04-03T13:24:39.984Z</time></trkpt><trkpt lat="45.8089542513211" lon="9.836033120032756"><ele>525.5</ele><time>2026-04-03T13:24:42.984Z</time></trkpt><trkpt lat="45.808833858184954" lon="9.83610037731644"><ele>524.3333333333334</ele><time>2026-04-03T13:24:44.984Z</time></trkpt><trkpt lat="45.80877269464688" lon="9.836177642891013"><ele>523.1666666666666</ele><time>2026-04-03T13:24:45.984Z</time></trkpt><trkpt lat="45.80870180826459" lon="9.836267109238044"><ele>522.0</ele><time>2026-04-03T13:24:46.984Z</time></trkpt><trkpt lat="45.808645483884305" lon="9.836374134559048"><ele>522.0</ele><time>2026-04-03T13:24:47.984Z</time></trkpt><trkpt lat="45.80859876664403" lon="9.836509941531842"><ele>522.0</ele><time>2026-04-03T13:24:48.984Z</time></trkpt><trkpt lat="45.80853151080361" lon="9.836651169721138"><ele>522.0</ele><time>2026-04-03T13:24:49.984Z</time></trkpt><trkpt lat="45.80845574201299" lon="9.836783970421317"><ele>522.0</ele><time>2026-04-03T13:24:50.984Z</time></trkpt><trkpt lat="45.808382199089955" lon="9.836894251409504"><ele>521.0</ele><time>2026-04-03T13:24:51.984Z</time></trkpt><trkpt lat="45.8083034672281" lon="9.836994951911217"><ele>520.0</ele><time>2026-04-03T13:24:52.984Z</time></trkpt><trkpt lat="45.80822229152546" lon="9.837100498003748"><ele>519.0</ele><time>2026-04-03T13:24:53.984Z</time></trkpt><trkpt lat="45.8081346871297" lon="9.83721047922972"><ele>518.0</ele><time>2026-04-03T13:24:54.984Z</time></trkpt><trkpt lat="45.808048604015" lon="9.837298011582117"><ele>517.0</ele><time>2026-04-03T13:24:55.984Z</time></trkpt><trkpt lat="45.807959209000295" lon="9.837388959376586"><ele>517.0</ele><time>2026-04-03T13:24:56.984Z</time></trkpt><trkpt lat="45.807865259110535" lon="9.8374721018504"><ele>517.0</ele><time>2026-04-03T13:24:57.983Z</time></trkpt><trkpt lat="45.80777070068791" lon="9.837552737394942"><ele>517.0</ele><time>2026-04-03T13:24:58.983Z</time></trkpt><trkpt lat="45.80765043847853" lon="9.837595315291926"><ele>517.0</ele><time>2026-04-03T13:24:59.983Z</time></trkpt><trkpt lat="45.80752864407966" lon="9.83763459812496"><ele>514.6</ele><time>2026-04-03T13:25:00.983Z</time></trkpt><trkpt lat="45.80741818536242" lon="9.837670027510717"><ele>512.2</ele><time>2026-04-03T13:25:01.983Z</time></trkpt><trkpt lat="45.80731542632606" lon="9.837695210092038"><ele>509.8</ele><time>2026-04-03T13:25:02.983Z</time></trkpt><trkpt lat="45.80721881213732" lon="9.837716054332164"><ele>507.4</ele><time>2026-04-03T13:25:03.983Z</time></trkpt><trkpt lat="45.80713926503977" lon="9.837805009087901"><ele>505.0</ele><time>2026-04-03T13:25:04.983Z</time></trkpt><trkpt lat="45.80704444613235" lon="9.837818626526257"><ele>505.0</ele><time>2026-04-03T13:25:05.983Z</time></trkpt><trkpt lat="45.8069359664001" lon="9.83783001913595"><ele>505.0</ele><time>2026-04-03T13:25:06.983Z</time></trkpt><trkpt lat="45.806836901265164" lon="9.837803790956261"><ele>505.0</ele><time>2026-04-03T13:25:07.983Z</time></trkpt><trkpt lat="45.806758606382004" lon="9.83775512815502"><ele>505.0</ele><time>2026-04-03T13:25:08.983Z</time></trkpt><trkpt lat="45.80669302548818" lon="9.83769623710036"><ele>505.0</ele><time>2026-04-03T13:25:09.983Z</time></trkpt><trkpt lat="45.80663162614019" lon="9.837622488943929"><ele>504.6</ele><time>2026-04-03T13:25:10.983Z</time></trkpt><trkpt lat="45.80661035672197" lon="9.837533344410568"><ele>504.2</ele><time>2026-04-03T13:25:11.983Z</time></trkpt><trkpt lat="45.80655716772394" lon="9.837386340343985"><ele>503.79999999999995</ele><time>2026-04-03T13:25:13.983Z</time></trkpt><trkpt lat="45.80651999138247" lon="9.837312252973911"><ele>503.4</ele><time>2026-04-03T13:25:14.983Z</time></trkpt><trkpt lat="45.80637089595136" lon="9.83733008684414"><ele>503.0</ele><time>2026-04-03T13:25:16.982Z</time></trkpt><trkpt lat="45.80632736864095" lon="9.83742317212599"><ele>503.0</ele><time>2026-04-03T13:25:17.982Z</time></trkpt><trkpt lat="45.80626782606522" lon="9.837522369813485"><ele>502.99999999999994</ele><time>2026-04-03T13:25:18.982Z</time></trkpt><trkpt lat="45.80621176276522" lon="9.837602162606396"><ele>502.99999999999994</ele><time>2026-04-03T13:25:19.982Z</time></trkpt><trkpt lat="45.806145039256606" lon="9.83767453667114"><ele>503.0</ele><time>2026-04-03T13:25:20.982Z</time></trkpt><trkpt lat="45.8060466328392" lon="9.83776641680556"><ele>503.0</ele><time>2026-04-03T13:25:21.982Z</time></trkpt><trkpt lat="45.805966508421974" lon="9.837919584145645"><ele>500.75</ele><time>2026-04-03T13:25:22.982Z</time></trkpt><trkpt lat="45.80588237450326" lon="9.838081540467952"><ele>498.5</ele><time>2026-04-03T13:25:23.982Z</time></trkpt><trkpt lat="45.80583214356029" lon="9.838257640561674"><ele>496.25</ele><time>2026-04-03T13:25:24.982Z</time></trkpt><trkpt lat="45.80580950315778" lon="9.83840462758615"><ele>494.0</ele><time>2026-04-03T13:25:25.982Z</time></trkpt><trkpt lat="45.80577956267043" lon="9.83854459723135"><ele>494.0</ele><time>2026-04-03T13:25:26.982Z</time></trkpt><trkpt lat="45.80573647471335" lon="9.838673831695406"><ele>494.0</ele><time>2026-04-03T13:25:27.982Z</time></trkpt><trkpt lat="45.80567820988772" lon="9.83882340395435"><ele>494.0</ele><time>2026-04-03T13:25:28.982Z</time></trkpt><trkpt lat="45.80561560367339" lon="9.838977434726374"><ele>494.0</ele><time>2026-04-03T13:25:29.982Z</time></trkpt><trkpt lat="45.80555158290729" lon="9.839139265954119"><ele>494.5</ele><time>2026-04-03T13:25:30.982Z</time></trkpt><trkpt lat="45.80548913256587" lon="9.839313678386565"><ele>495.0</ele><time>2026-04-03T13:25:31.982Z</time></trkpt><trkpt lat="45.80542835156328" lon="9.839493128640228"><ele>495.5</ele><time>2026-04-03T13:25:32.982Z</time></trkpt><trkpt lat="45.80537380290917" lon="9.839655101041231"><ele>496.0</ele><time>2026-04-03T13:25:33.982Z</time></trkpt><trkpt lat="45.80532124867482" lon="9.839809970870672"><ele>496.0</ele><time>2026-04-03T13:25:34.981Z</time></trkpt><trkpt lat="45.80526068940995" lon="9.839953971770742"><ele>496.0</ele><time>2026-04-03T13:25:35.981Z</time></trkpt><trkpt lat="45.80518216014965" lon="9.840097913706126"><ele>496.0</ele><time>2026-04-03T13:25:36.981Z</time></trkpt><trkpt lat="45.80510099493275" lon="9.840235719077373"><ele>496.0</ele><time>2026-04-03T13:25:37.981Z</time></trkpt><trkpt lat="45.80502243619372" lon="9.840375622019886"><ele>493.25</ele><time>2026-04-03T13:25:38.981Z</time></trkpt><trkpt lat="45.804930673173466" lon="9.840506984766856"><ele>490.5</ele><time>2026-04-03T13:25:39.981Z</time></trkpt><trkpt lat="45.804853804299135" lon="9.840642147436638"><ele>487.75</ele><time>2026-04-03T13:25:40.981Z</time></trkpt><trkpt lat="45.80478271592934" lon="9.840770828951594"><ele>485.0</ele><time>2026-04-03T13:25:41.981Z</time></trkpt><trkpt lat="45.80471790209736" lon="9.840876450607416"><ele>483.2</ele><time>2026-04-03T13:25:42.981Z</time></trkpt><trkpt lat="45.804681968156856" lon="9.840992979211403"><ele>481.4</ele><time>2026-04-03T13:25:43.981Z</time></trkpt><trkpt lat="45.8046560212384" lon="9.841113055803193"><ele>479.6</ele><time>2026-04-03T13:25:44.981Z</time></trkpt><trkpt lat="45.804646593187236" lon="9.841256835510807"><ele>477.8</ele><time>2026-04-03T13:25:45.981Z</time></trkpt><trkpt lat="45.804649486298764" lon="9.841403689169137"><ele>476.0</ele><time>2026-04-03T13:25:46.981Z</time></trkpt><trkpt lat="45.80464259924378" lon="9.84154535728022"><ele>476.0</ele><time>2026-04-03T13:25:47.981Z</time></trkpt><trkpt lat="45.80459175813039" lon="9.841692942568114"><ele>476.0</ele><time>2026-04-03T13:25:48.981Z</time></trkpt><trkpt lat="45.80453396075184" lon="9.841809148442554"><ele>476.0</ele><time>2026-04-03T13:25:49.981Z</time></trkpt><trkpt lat="45.80448895160511" lon="9.84190226034126"><ele>476.0</ele><time>2026-04-03T13:25:50.981Z</time></trkpt><trkpt lat="45.80442917745091" lon="9.842065613706401"><ele>476.0</ele><time>2026-04-03T13:25:52.981Z</time></trkpt><trkpt lat="45.804382576540725" lon="9.842225795765405"><ele>474.0</ele><time>2026-04-03T13:25:54.98Z</time></trkpt><trkpt lat="45.80433485001981" lon="9.842381094927747"><ele>472.0</ele><time>2026-04-03T13:25:56.98Z</time></trkpt><trkpt lat="45.804241938563074" lon="9.842530336076765"><ele>470.0</ele><time>2026-04-03T13:25:58.98Z</time></trkpt><trkpt lat="45.804186785211265" lon="9.842592339680857"><ele>468.0</ele><time>2026-04-03T13:25:59.98Z</time></trkpt><trkpt lat="45.804114043351994" lon="9.842697740202349"><ele>466.0</ele><time>2026-04-03T13:26:01.98Z</time></trkpt><trkpt lat="45.80407573632923" lon="9.842775809784483"><ele>458.6</ele><time>2026-04-03T13:26:02.98Z</time></trkpt><trkpt lat="45.80406500199367" lon="9.842955753897119"><ele>451.20000000000005</ele><time>2026-04-03T13:26:04.98Z</time></trkpt><trkpt lat="45.80409177858139" lon="9.843058796642042"><ele>443.79999999999995</ele><time>2026-04-03T13:26:05.98Z</time></trkpt><trkpt lat="45.804143545021574" lon="9.843169332073748"><ele>436.4</ele><time>2026-04-03T13:26:06.98Z</time></trkpt><trkpt lat="45.80420428239417" lon="9.843307432948988"><ele>429.0</ele><time>2026-04-03T13:26:07.98Z</time></trkpt><trkpt lat="45.80422990453313" lon="9.843412967540303"><ele>427.0</ele><time>2026-04-03T13:26:08.98Z</time></trkpt><trkpt lat="45.80425394383692" lon="9.843522520092241"><ele>425.0</ele><time>2026-04-03T13:26:09.98Z</time></trkpt><trkpt lat="45.80427925752856" lon="9.843662362757824"><ele>423.0</ele><time>2026-04-03T13:26:10.98Z</time></trkpt><trkpt lat="45.80429888945005" lon="9.843777532870156"><ele>421.0</ele><time>2026-04-03T13:26:11.979Z</time></trkpt><trkpt lat="45.80431493236126" lon="9.843874064072285"><ele>419.0</ele><time>2026-04-03T13:26:12.979Z</time></trkpt><trkpt lat="45.80431072535319" lon="9.84402509025347"><ele>417.0</ele><time>2026-04-03T13:26:14.979Z</time></trkpt><trkpt lat="45.80424468971628" lon="9.844129894116023"><ele>417.0</ele><time>2026-04-03T13:26:16.979Z</time></trkpt><trkpt lat="45.804184140729745" lon="9.844215849478436"><ele>417.0</ele><time>2026-04-03T13:26:18.979Z</time></trkpt><trkpt lat="45.80412887734079" lon="9.844263420811927"><ele>417.0</ele><time>2026-04-03T13:26:19.979Z</time></trkpt><trkpt lat="45.80407666319256" lon="9.844342645039616"><ele>417.0</ele><time>2026-04-03T13:26:20.979Z</time></trkpt><trkpt lat="45.80400479947793" lon="9.84442788948535"><ele>417.0</ele><time>2026-04-03T13:26:21.979Z</time></trkpt><trkpt lat="45.803923959471" lon="9.844534164100939"><ele>417.0</ele><time>2026-04-03T13:26:22.979Z</time></trkpt><trkpt lat="45.80384344348594" lon="9.844650449870278"><ele>415.40000000000003</ele><time>2026-04-03T13:26:23.979Z</time></trkpt><trkpt lat="45.803761653953934" lon="9.844762723233965"><ele>413.8</ele><time>2026-04-03T13:26:24.979Z</time></trkpt><trkpt lat="45.80368165637619" lon="9.844841358096243"><ele>412.2</ele><time>2026-04-03T13:26:25.979Z</time></trkpt><trkpt lat="45.8036206010934" lon="9.844913888516214"><ele>410.6</ele><time>2026-04-03T13:26:26.979Z</time></trkpt><trkpt lat="45.8035601235113" lon="9.844982758419098"><ele>409.0</ele><time>2026-04-03T13:26:27.979Z</time></trkpt><trkpt lat="45.803492554403576" lon="9.84507084898919"><ele>408.25</ele><time>2026-04-03T13:26:29.979Z</time></trkpt><trkpt lat="45.80351872142054" lon="9.845227943614852"><ele>407.5</ele><time>2026-04-03T13:26:33.978Z</time></trkpt><trkpt lat="45.80360310727501" lon="9.845341825663098"><ele>406.75</ele><time>2026-04-03T13:26:34.978Z</time></trkpt><trkpt lat="45.80371317587324" lon="9.845480952290055"><ele>406.0</ele><time>2026-04-03T13:26:35.978Z</time></trkpt><trkpt lat="45.80383610625337" lon="9.845668363908098"><ele>406.0</ele><time>2026-04-03T13:26:36.978Z</time></trkpt><trkpt lat="45.80396877273014" lon="9.84586240153751"><ele>406.0</ele><time>2026-04-03T13:26:37.978Z</time></trkpt><trkpt lat="45.804094725333265" lon="9.846034073323805"><ele>406.0</ele><time>2026-04-03T13:26:38.978Z</time></trkpt><trkpt lat="45.804203513841635" lon="9.846214917257882"><ele>406.0</ele><time>2026-04-03T13:26:39.978Z</time></trkpt><trkpt lat="45.80434013656029" lon="9.84638329951895"><ele>406.0</ele><time>2026-04-03T13:26:40.978Z</time></trkpt><trkpt lat="45.80446861660752" lon="9.846512827488425"><ele>406.0</ele><time>2026-04-03T13:26:41.978Z</time></trkpt><trkpt lat="45.8045678326815" lon="9.846680834262022"><ele>406.0</ele><time>2026-04-03T13:26:42.978Z</time></trkpt><trkpt lat="45.80467827754716" lon="9.846817913441232"><ele>406.0</ele><time>2026-04-03T13:26:43.978Z</time></trkpt><trkpt lat="45.804783643747136" lon="9.846942052255969"><ele>406.0</ele><time>2026-04-03T13:26:44.978Z</time></trkpt><trkpt lat="45.804888852396736" lon="9.847086567313154"><ele>406.0</ele><time>2026-04-03T13:26:45.978Z</time></trkpt><trkpt lat="45.80499077864308" lon="9.847240261446089"><ele>406.0</ele><time>2026-04-03T13:26:46.978Z</time></trkpt><trkpt lat="45.80509680093753" lon="9.847384759263784"><ele>406.0</ele><time>2026-04-03T13:26:47.978Z</time></trkpt><trkpt lat="45.80519859681197" lon="9.847525848486482"><ele>406.0</ele><time>2026-04-03T13:26:48.977Z</time></trkpt><trkpt lat="45.805308187074566" lon="9.847659776941684"><ele>406.0</ele><time>2026-04-03T13:26:49.977Z</time></trkpt><trkpt lat="45.805411758275994" lon="9.84778561810923"><ele>406.25</ele><time>2026-04-03T13:26:50.977Z</time></trkpt><trkpt lat="45.80551584436169" lon="9.847910867475557"><ele>406.5</ele><time>2026-04-03T13:26:51.977Z</time></trkpt><trkpt lat="45.805606831693744" lon="9.848033891104544"><ele>406.75</ele><time>2026-04-03T13:26:52.977Z</time></trkpt><trkpt lat="45.805694176264126" lon="9.848140469750577"><ele>407.0</ele><time>2026-04-03T13:26:53.977Z</time></trkpt><trkpt lat="45.80576897182312" lon="9.848229795608368"><ele>406.99999999999994</ele><time>2026-04-03T13:26:54.977Z</time></trkpt><trkpt lat="45.805823896521666" lon="9.848303767082434"><ele>407.0</ele><time>2026-04-03T13:26:55.977Z</time></trkpt><trkpt lat="45.80586672177906" lon="9.848374894208238"><ele>407.0</ele><time>2026-04-03T13:26:56.977Z</time></trkpt><trkpt lat="45.80593762963963" lon="9.84848878977174"><ele>407.0</ele><time>2026-04-03T13:26:58.977Z</time></trkpt><trkpt lat="45.805983864644304" lon="9.848553858021946"><ele>406.99999999999994</ele><time>2026-04-03T13:27:02.977Z</time></trkpt><trkpt lat="45.806019589281085" lon="9.848637708266741"><ele>407.0</ele><time>2026-04-03T13:27:05.977Z</time></trkpt><trkpt lat="45.80606907550126" lon="9.848720358531324"><ele>407.20000000000005</ele><time>2026-04-03T13:27:07.976Z</time></trkpt><trkpt lat="45.80610737140084" lon="9.848794443967687"><ele>407.4</ele><time>2026-04-03T13:27:08.976Z</time></trkpt><trkpt lat="45.80616959194347" lon="9.848924180289243"><ele>407.6</ele><time>2026-04-03T13:27:10.976Z</time></trkpt><trkpt lat="45.80623188488447" lon="9.849056581479568"><ele>407.79999999999995</ele><time>2026-04-03T13:27:12.976Z</time></trkpt><trkpt lat="45.80626902829687" lon="9.849139132734923"><ele>408.0</ele><time>2026-04-03T13:27:13.976Z</time></trkpt><trkpt lat="45.80633747940686" lon="9.849268029654326"><ele>407.0</ele><time>2026-04-03T13:27:15.976Z</time></trkpt><trkpt lat="45.806399226830194" lon="9.849415640370124"><ele>406.0</ele><time>2026-04-03T13:27:17.976Z</time></trkpt><trkpt lat="45.80643849096403" lon="9.84949448449383"><ele>405.0</ele><time>2026-04-03T13:27:18.976Z</time></trkpt><trkpt lat="45.80648540067062" lon="9.849569420805619"><ele>404.0</ele><time>2026-04-03T13:27:19.976Z</time></trkpt><trkpt lat="45.80653297715375" lon="9.849647084980903"><ele>403.0</ele><time>2026-04-03T13:27:20.976Z</time></trkpt><trkpt lat="45.80659148471564" lon="9.849705193494696"><ele>402.0</ele><time>2026-04-03T13:27:21.976Z</time></trkpt><trkpt lat="45.806673974713384" lon="9.849809409252796"><ele>402.0</ele><time>2026-04-03T13:27:23.976Z</time></trkpt><trkpt lat="45.80675242358424" lon="9.849869073357006"><ele>402.0</ele><time>2026-04-03T13:27:25.976Z</time></trkpt><trkpt lat="45.8068285102802" lon="9.849906882410666"><ele>402.0</ele><time>2026-04-03T13:27:27.975Z</time></trkpt><trkpt lat="45.80691279800039" lon="9.849942977286238"><ele>402.0</ele><time>2026-04-03T13:27:33.975Z</time></trkpt><trkpt lat="45.806961310493925" lon="9.850036797162222"><ele>402.0</ele><time>2026-04-03T13:27:37.975Z</time></trkpt><trkpt lat="45.80701592408511" lon="9.850168827241715"><ele>402.0</ele><time>2026-04-03T13:27:40.975Z</time></trkpt><trkpt lat="45.807083595237934" lon="9.850179355810443"><ele>400.75</ele><time>2026-04-03T13:27:41.975Z</time></trkpt><trkpt lat="45.80722049270884" lon="9.850078796998812"><ele>399.5</ele><time>2026-04-03T13:27:42.975Z</time></trkpt><trkpt lat="45.80733059432198" lon="9.849970101094167"><ele>398.25</ele><time>2026-04-03T13:27:43.975Z</time></trkpt><trkpt lat="45.80744619107975" lon="9.849887186533426"><ele>397.0</ele><time>2026-04-03T13:27:44.974Z</time></trkpt><trkpt lat="45.80758764919298" lon="9.84972895972866"><ele>398.6666666666667</ele><time>2026-04-03T13:27:45.974Z</time></trkpt><trkpt lat="45.8077632534626" lon="9.849611916666404"><ele>400.33333333333337</ele><time>2026-04-03T13:27:46.974Z</time></trkpt><trkpt lat="45.807948853677786" lon="9.84947402876862"><ele>402.0</ele><time>2026-04-03T13:27:47.974Z</time></trkpt><trkpt lat="45.80811252411687" lon="9.849355014401054"><ele>401.66666666666663</ele><time>2026-04-03T13:27:48.974Z</time></trkpt><trkpt lat="45.808272444848356" lon="9.849253453913894"><ele>401.3333333333333</ele><time>2026-04-03T13:27:49.974Z</time></trkpt><trkpt lat="45.808428319906255" lon="9.849162146015997"><ele>401.0</ele><time>2026-04-03T13:27:50.974Z</time></trkpt><trkpt lat="45.808572457500546" lon="9.849077406211947"><ele>401.0</ele><time>2026-04-03T13:27:51.974Z</time></trkpt><trkpt lat="45.80869844228709" lon="9.849010161045154"><ele>401.0</ele><time>2026-04-03T13:27:52.974Z</time></trkpt><trkpt lat="45.80881384957129" lon="9.848947895119608"><ele>401.0</ele><time>2026-04-03T13:27:53.974Z</time></trkpt><trkpt lat="45.80892010564682" lon="9.848891877079668"><ele>401.0</ele><time>2026-04-03T13:27:54.974Z</time></trkpt><trkpt lat="45.80902142456624" lon="9.848829170168564"><ele>401.0</ele><time>2026-04-03T13:27:55.974Z</time></trkpt><trkpt lat="45.80908713416363" lon="9.848787230296082"><ele>401.0</ele><time>2026-04-03T13:27:56.974Z</time></trkpt><trkpt lat="45.8091908674122" lon="9.848762327151208"><ele>401.0</ele><time>2026-04-03T13:28:03.973Z</time></trkpt><trkpt lat="45.80927994312938" lon="9.848713474607427"><ele>401.0</ele><time>2026-04-03T13:28:04.973Z</time></trkpt><trkpt lat="45.80939815317089" lon="9.848625770964283"><ele>401.0</ele><time>2026-04-03T13:28:05.973Z</time></trkpt><trkpt lat="45.809503740031055" lon="9.848539127310008"><ele>402.0</ele><time>2026-04-03T13:28:06.973Z</time></trkpt><trkpt lat="45.80962343051799" lon="9.848462723438073"><ele>403.0</ele><time>2026-04-03T13:28:07.973Z</time></trkpt><trkpt lat="45.80975098363659" lon="9.848376481271274"><ele>404.0</ele><time>2026-04-03T13:28:08.973Z</time></trkpt><trkpt lat="45.809922741437425" lon="9.848302687387028"><ele>404.0</ele><time>2026-04-03T13:28:09.973Z</time></trkpt><trkpt lat="45.8100687138661" lon="9.848195430005708"><ele>404.0</ele><time>2026-04-03T13:28:10.973Z</time></trkpt><trkpt lat="45.810189579607275" lon="9.848111169086165"><ele>404.0</ele><time>2026-04-03T13:28:11.973Z</time></trkpt><trkpt lat="45.81029409757118" lon="9.848043870772413"><ele>404.0</ele><time>2026-04-03T13:28:12.973Z</time></trkpt><trkpt lat="45.810391834854265" lon="9.847957655312204"><ele>404.8333333333333</ele><time>2026-04-03T13:28:13.973Z</time></trkpt><trkpt lat="45.8104651448155" lon="9.847888514609105"><ele>405.66666666666663</ele><time>2026-04-03T13:28:14.973Z</time></trkpt><trkpt lat="45.810523336746215" lon="9.847845484850003"><ele>406.5</ele><time>2026-04-03T13:28:15.973Z</time></trkpt><trkpt lat="45.81058293770678" lon="9.84781164093032"><ele>407.33333333333337</ele><time>2026-04-03T13:28:16.973Z</time></trkpt><trkpt lat="45.81065592103848" lon="9.847833335742894"><ele>408.1666666666667</ele><time>2026-04-03T13:28:17.973Z</time></trkpt><trkpt lat="45.81073151091122" lon="9.8479105534205"><ele>409.0</ele><time>2026-04-03T13:28:19.973Z</time></trkpt><trkpt lat="45.81066835255977" lon="9.848083678423126"><ele>409.0</ele><time>2026-04-03T13:28:21.972Z</time></trkpt><trkpt lat="45.81061532614423" lon="9.848226416467263"><ele>409.0</ele><time>2026-04-03T13:28:22.972Z</time></trkpt><trkpt lat="45.81057456696542" lon="9.848343044967885"><ele>409.0</ele><time>2026-04-03T13:28:23.972Z</time></trkpt><trkpt lat="45.810561831329316" lon="9.848440342994852"><ele>409.0</ele><time>2026-04-03T13:28:24.972Z</time></trkpt><trkpt lat="45.810667908204785" lon="9.848584628460753"><ele>409.0</ele><time>2026-04-03T13:28:26.972Z</time></trkpt><trkpt lat="45.810772459866705" lon="9.848619263073164"><ele>410.79999999999995</ele><time>2026-04-03T13:28:27.972Z</time></trkpt><trkpt lat="45.810836427804105" lon="9.848696552039902"><ele>412.59999999999997</ele><time>2026-04-03T13:28:28.972Z</time></trkpt><trkpt lat="45.810863328341355" lon="9.848788569915929"><ele>414.4</ele><time>2026-04-03T13:28:29.972Z</time></trkpt><trkpt lat="45.81088543709685" lon="9.848894600084938"><ele>416.2</ele><time>2026-04-03T13:28:30.972Z</time></trkpt><trkpt lat="45.81081495780226" lon="9.849031178624022"><ele>418.0</ele><time>2026-04-03T13:28:33.972Z</time></trkpt><trkpt lat="45.8106918143294" lon="9.84911903926714"><ele>418.0</ele><time>2026-04-03T13:28:35.972Z</time></trkpt><trkpt lat="45.81059835566362" lon="9.849182307897534"><ele>418.0</ele><time>2026-04-03T13:28:36.972Z</time></trkpt><trkpt lat="45.810496786406446" lon="9.84927740719973"><ele>418.0</ele><time>2026-04-03T13:28:37.972Z</time></trkpt><trkpt lat="45.81039290100267" lon="9.849324704953055"><ele>418.0</ele><time>2026-04-03T13:28:38.972Z</time></trkpt><trkpt lat="45.81031338480752" lon="9.849369005657703"><ele>418.0</ele><time>2026-04-03T13:28:39.972Z</time></trkpt><trkpt lat="45.81020469378375" lon="9.849455847186201"><ele>419.59999999999997</ele><time>2026-04-03T13:28:40.971Z</time></trkpt><trkpt lat="45.810086374666554" lon="9.84956775258553"><ele>421.2</ele><time>2026-04-03T13:28:41.971Z</time></trkpt><trkpt lat="45.810019142153074" lon="9.849656323020488"><ele>422.8</ele><time>2026-04-03T13:28:42.971Z</time></trkpt><trkpt lat="45.809969104172644" lon="9.849751921388615"><ele>424.4</ele><time>2026-04-03T13:28:43.971Z</time></trkpt><trkpt lat="45.810040657067645" lon="9.849874619424288"><ele>426.0</ele><time>2026-04-03T13:28:45.971Z</time></trkpt><trkpt lat="45.810109257101495" lon="9.849850674559042"><ele>427.4</ele><time>2026-04-03T13:28:46.971Z</time></trkpt><trkpt lat="45.810195370936" lon="9.84979512938363"><ele>428.8</ele><time>2026-04-03T13:28:47.971Z</time></trkpt><trkpt lat="45.81025506559756" lon="9.849729343242984"><ele>430.19999999999993</ele><time>2026-04-03T13:28:48.971Z</time></trkpt><trkpt lat="45.81032435835455" lon="9.849684740226454"><ele>431.59999999999997</ele><time>2026-04-03T13:28:49.971Z</time></trkpt><trkpt lat="45.81039463287268" lon="9.849755578858778"><ele>433.0</ele><time>2026-04-03T13:28:51.971Z</time></trkpt><trkpt lat="45.81032255915829" lon="9.849901306679255"><ele>433.00000000000006</ele><time>2026-04-03T13:28:53.971Z</time></trkpt><trkpt lat="45.81026450106558" lon="9.85000686470391"><ele>433.0</ele><time>2026-04-03T13:28:54.971Z</time></trkpt><trkpt lat="45.81022572298355" lon="9.850103526818417"><ele>433.0</ele><time>2026-04-03T13:28:55.971Z</time></trkpt><trkpt lat="45.81023998715618" lon="9.85020698379217"><ele>433.0</ele><time>2026-04-03T13:28:57.971Z</time></trkpt><trkpt lat="45.81030901473291" lon="9.850235215807045"><ele>433.00000000000006</ele><time>2026-04-03T13:28:58.97Z</time></trkpt><trkpt lat="45.810386933935966" lon="9.850252595669179"><ele>433.0</ele><time>2026-04-03T13:28:59.97Z</time></trkpt><trkpt lat="45.81047589792864" lon="9.850249654623074"><ele>433.4</ele><time>2026-04-03T13:29:00.97Z</time></trkpt><trkpt lat="45.8105650190888" lon="9.850269639729683"><ele>433.79999999999995</ele><time>2026-04-03T13:29:01.97Z</time></trkpt><trkpt lat="45.810650026086186" lon="9.85029623181828"><ele>434.2</ele><time>2026-04-03T13:29:02.97Z</time></trkpt><trkpt lat="45.81075449498056" lon="9.850323478844816"><ele>434.6</ele><time>2026-04-03T13:29:03.97Z</time></trkpt><trkpt lat="45.81086221482014" lon="9.850350994366075"><ele>435.0</ele><time>2026-04-03T13:29:04.97Z</time></trkpt><trkpt lat="45.81097288333894" lon="9.850387197801245"><ele>435.8</ele><time>2026-04-03T13:29:05.97Z</time></trkpt><trkpt lat="45.811082642879654" lon="9.850444136272365"><ele>436.6</ele><time>2026-04-03T13:29:06.97Z</time></trkpt><trkpt lat="45.811177607120676" lon="9.850485318853647"><ele>437.4</ele><time>2026-04-03T13:29:07.97Z</time></trkpt><trkpt lat="45.81125192994781" lon="9.850523423914293"><ele>438.2</ele><time>2026-04-03T13:29:08.97Z</time></trkpt><trkpt lat="45.81131648741847" lon="9.850562732699368"><ele>439.0</ele><time>2026-04-03T13:29:09.97Z</time></trkpt><trkpt lat="45.811426553343566" lon="9.850603218412592"><ele>439.0</ele><time>2026-04-03T13:29:11.97Z</time></trkpt><trkpt lat="45.81152382876014" lon="9.850464468866539"><ele>439.0</ele><time>2026-04-03T13:29:13.97Z</time></trkpt><trkpt lat="45.811593784469416" lon="9.850340867130532"><ele>439.0</ele><time>2026-04-03T13:29:14.97Z</time></trkpt><trkpt lat="45.811687752864025" lon="9.850255236979514"><ele>439.0</ele><time>2026-04-03T13:29:15.97Z</time></trkpt><trkpt lat="45.81178495186418" lon="9.850219078220599"><ele>440.25</ele><time>2026-04-03T13:29:16.97Z</time></trkpt><trkpt lat="45.81189297624989" lon="9.850201700641643"><ele>441.5</ele><time>2026-04-03T13:29:17.969Z</time></trkpt><trkpt lat="45.81202031955483" lon="9.85019878265507"><ele>442.75</ele><time>2026-04-03T13:29:18.969Z</time></trkpt><trkpt lat="45.81216346764406" lon="9.850174622662722"><ele>444.0</ele><time>2026-04-03T13:29:19.969Z</time></trkpt><trkpt lat="45.81230768039262" lon="9.850147275845789"><ele>444.0</ele><time>2026-04-03T13:29:20.969Z</time></trkpt><trkpt lat="45.81242784144766" lon="9.850106936863472"><ele>444.0</ele><time>2026-04-03T13:29:21.969Z</time></trkpt><trkpt lat="45.81252363622684" lon="9.850040895289771"><ele>444.0</ele><time>2026-04-03T13:29:22.969Z</time></trkpt><trkpt lat="45.81261028604539" lon="9.84995680745933"><ele>444.0</ele><time>2026-04-03T13:29:23.969Z</time></trkpt><trkpt lat="45.812721819081105" lon="9.849800266615162"><ele>446.0</ele><time>2026-04-03T13:29:24.969Z</time></trkpt><trkpt lat="45.81283771474363" lon="9.8496583213815"><ele>448.0</ele><time>2026-04-03T13:29:25.969Z</time></trkpt><trkpt lat="45.812949842205285" lon="9.849507192206506"><ele>450.0</ele><time>2026-04-03T13:29:26.969Z</time></trkpt><trkpt lat="45.81305166363729" lon="9.849393316354456"><ele>452.0</ele><time>2026-04-03T13:29:27.969Z</time></trkpt><trkpt lat="45.81312414854407" lon="9.849296138873283"><ele>452.40000000000003</ele><time>2026-04-03T13:29:28.969Z</time></trkpt><trkpt lat="45.81318543657801" lon="9.849202883711564"><ele>452.80000000000007</ele><time>2026-04-03T13:29:29.969Z</time></trkpt><trkpt lat="45.813182577997736" lon="9.849100124140406"><ele>453.2</ele><time>2026-04-03T13:29:30.969Z</time></trkpt><trkpt lat="45.81313862736482" lon="9.848933021139596"><ele>453.6</ele><time>2026-04-03T13:29:31.969Z</time></trkpt><trkpt lat="45.81309672588062" lon="9.848779002592474"><ele>454.0</ele><time>2026-04-03T13:29:32.969Z</time></trkpt><trkpt lat="45.81306918214538" lon="9.848668745786384"><ele>454.00000000000006</ele><time>2026-04-03T13:29:33.969Z</time></trkpt><trkpt lat="45.81307429994894" lon="9.848563354883831"><ele>454.0</ele><time>2026-04-03T13:29:34.969Z</time></trkpt><trkpt lat="45.813100552761675" lon="9.848448365988094"><ele>454.0</ele><time>2026-04-03T13:29:35.968Z</time></trkpt><trkpt lat="45.81315801848236" lon="9.848369802726705"><ele>454.0</ele><time>2026-04-03T13:29:36.968Z</time></trkpt><trkpt lat="45.813235512021066" lon="9.848326255251637"><ele>454.00000000000006</ele><time>2026-04-03T13:29:37.968Z</time></trkpt><trkpt lat="45.81332254595752" lon="9.848264330777782"><ele>454.0</ele><time>2026-04-03T13:29:38.968Z</time></trkpt><trkpt lat="45.81343469391294" lon="9.848187182643667"><ele>458.0</ele><time>2026-04-03T13:29:39.968Z</time></trkpt><trkpt lat="45.81354281285338" lon="9.848107938933474"><ele>462.0</ele><time>2026-04-03T13:29:40.968Z</time></trkpt><trkpt lat="45.81362884587231" lon="9.84804655607405"><ele>466.0</ele><time>2026-04-03T13:29:41.968Z</time></trkpt><trkpt lat="45.81370433297037" lon="9.848014424877626"><ele>470.0</ele><time>2026-04-03T13:29:42.968Z</time></trkpt><trkpt lat="45.8137741130879" lon="9.847990039819802"><ele>474.0</ele><time>2026-04-03T13:29:43.968Z</time></trkpt><trkpt lat="45.81387487618373" lon="9.848023515670489"><ele>474.0</ele><time>2026-04-03T13:29:44.968Z</time></trkpt><trkpt lat="45.81398831463731" lon="9.84803812461125"><ele>474.0</ele><time>2026-04-03T13:29:45.968Z</time></trkpt><trkpt lat="45.81409737051204" lon="9.848036474187692"><ele>474.0</ele><time>2026-04-03T13:29:46.968Z</time></trkpt><trkpt lat="45.81419327385742" lon="9.847987727368551"><ele>474.0</ele><time>2026-04-03T13:29:47.968Z</time></trkpt><trkpt lat="45.814266210154386" lon="9.847902175015994"><ele>474.0</ele><time>2026-04-03T13:29:48.968Z</time></trkpt><trkpt lat="45.81429359690797" lon="9.847808421577213"><ele>477.5</ele><time>2026-04-03T13:29:49.968Z</time></trkpt><trkpt lat="45.814326711022936" lon="9.847706759275036"><ele>481.0</ele><time>2026-04-03T13:29:50.968Z</time></trkpt><trkpt lat="45.814337931579615" lon="9.847593023404817"><ele>484.5</ele><time>2026-04-03T13:29:52.968Z</time></trkpt><trkpt lat="45.81435363835749" lon="9.84768241406888"><ele>488.0</ele><time>2026-04-03T13:29:56.967Z</time></trkpt><trkpt lat="45.81441186101888" lon="9.847822733616242"><ele>491.5</ele><time>2026-04-03T13:29:58.967Z</time></trkpt><trkpt lat="45.81448497267559" lon="9.847911028588845"><ele>495.0</ele><time>2026-04-03T13:29:59.967Z</time></trkpt><trkpt lat="45.81456006532066" lon="9.847986245602133"><ele>495.0</ele><time>2026-04-03T13:30:00.967Z</time></trkpt><trkpt lat="45.814663902259525" lon="9.848113215561586"><ele>495.0</ele><time>2026-04-03T13:30:01.967Z</time></trkpt><trkpt lat="45.81476173393891" lon="9.848244590551332"><ele>495.0</ele><time>2026-04-03T13:30:02.967Z</time></trkpt><trkpt lat="45.814885624797704" lon="9.848354787684594"><ele>495.0</ele><time>2026-04-03T13:30:03.967Z</time></trkpt><trkpt lat="45.81501747609503" lon="9.848441537889595"><ele>498.66666666666663</ele><time>2026-04-03T13:30:04.967Z</time></trkpt><trkpt lat="45.81513563831288" lon="9.84858608946767"><ele>502.3333333333333</ele><time>2026-04-03T13:30:05.967Z</time></trkpt><trkpt lat="45.81524955086493" lon="9.848744265228273"><ele>506.0</ele><time>2026-04-03T13:30:06.967Z</time></trkpt><trkpt lat="45.81536420291853" lon="9.848873160566585"><ele>506.0</ele><time>2026-04-03T13:30:07.967Z</time></trkpt><trkpt lat="45.81548398833685" lon="9.848993616436521"><ele>506.0</ele><time>2026-04-03T13:30:08.967Z</time></trkpt><trkpt lat="45.81560978963326" lon="9.849114207415385"><ele>506.0</ele><time>2026-04-03T13:30:09.967Z</time></trkpt><trkpt lat="45.815737424896305" lon="9.849242907069515"><ele>508.0</ele><time>2026-04-03T13:30:10.967Z</time></trkpt><trkpt lat="45.81586090758471" lon="9.849380470226787"><ele>510.0</ele><time>2026-04-03T13:30:11.967Z</time></trkpt><trkpt lat="45.81597653889018" lon="9.849516979592043"><ele>512.0</ele><time>2026-04-03T13:30:12.966Z</time></trkpt><trkpt lat="45.8160479834153" lon="9.84967273081485"><ele>514.0</ele><time>2026-04-03T13:30:13.966Z</time></trkpt><trkpt lat="45.816127130769004" lon="9.849783828476388"><ele>514.0</ele><time>2026-04-03T13:30:14.966Z</time></trkpt><trkpt lat="45.81620713493975" lon="9.849885507860387"><ele>514.0</ele><time>2026-04-03T13:30:15.966Z</time></trkpt><trkpt lat="45.81629339760869" lon="9.849983544244163"><ele>514.0</ele><time>2026-04-03T13:30:16.966Z</time></trkpt><trkpt lat="45.81640985142856" lon="9.850071274597639"><ele>514.0</ele><time>2026-04-03T13:30:17.966Z</time></trkpt><trkpt lat="45.81653363211058" lon="9.8501549999389"><ele>513.75</ele><time>2026-04-03T13:30:18.966Z</time></trkpt><trkpt lat="45.816652274519086" lon="9.850269102632518"><ele>513.5</ele><time>2026-04-03T13:30:19.966Z</time></trkpt><trkpt lat="45.81677728974238" lon="9.850373341918948"><ele>513.25</ele><time>2026-04-03T13:30:20.966Z</time></trkpt><trkpt lat="45.816920251464445" lon="9.85046094800711"><ele>513.0</ele><time>2026-04-03T13:30:21.966Z</time></trkpt><trkpt lat="45.81706963169345" lon="9.850548587272336"><ele>513.0</ele><time>2026-04-03T13:30:22.966Z</time></trkpt><trkpt lat="45.817204204096875" lon="9.850667416767733"><ele>513.0</ele><time>2026-04-03T13:30:23.966Z</time></trkpt><trkpt lat="45.81732448412513" lon="9.850779848688632"><ele>513.0</ele><time>2026-04-03T13:30:24.966Z</time></trkpt><trkpt lat="45.81745051388887" lon="9.850856037761885"><ele>513.0</ele><time>2026-04-03T13:30:25.966Z</time></trkpt><trkpt lat="45.817582056065504" lon="9.850896820201198"><ele>512.8</ele><time>2026-04-03T13:30:26.966Z</time></trkpt><trkpt lat="45.81768962128635" lon="9.850934362416247"><ele>512.5999999999999</ele><time>2026-04-03T13:30:27.966Z</time></trkpt><trkpt lat="45.81776370812172" lon="9.851022315951152"><ele>512.4000000000001</ele><time>2026-04-03T13:30:28.966Z</time></trkpt><trkpt lat="45.8178113119997" lon="9.851103439947783"><ele>512.2</ele><time>2026-04-03T13:30:29.966Z</time></trkpt><trkpt lat="45.81790728363876" lon="9.85119114765836"><ele>512.0</ele><time>2026-04-03T13:30:31.965Z</time></trkpt><trkpt lat="45.81797887529242" lon="9.85118832894588"><ele>512.0</ele><time>2026-04-03T13:30:32.965Z</time></trkpt><trkpt lat="45.81804680242059" lon="9.851224752602233"><ele>512.0</ele><time>2026-04-03T13:30:33.965Z</time></trkpt><trkpt lat="45.81810297882456" lon="9.85128591389543"><ele>512.0</ele><time>2026-04-03T13:30:34.965Z</time></trkpt><trkpt lat="45.818197231217496" lon="9.85137905807406"><ele>512.0</ele><time>2026-04-03T13:30:35.965Z</time></trkpt><trkpt lat="45.8183146696738" lon="9.851476124786885"><ele>512.0</ele><time>2026-04-03T13:30:36.965Z</time></trkpt><trkpt lat="45.81843057601942" lon="9.851566182630586"><ele>517.0</ele><time>2026-04-03T13:30:37.965Z</time></trkpt><trkpt lat="45.81851271166619" lon="9.851625420988348"><ele>522.0</ele><time>2026-04-03T13:30:38.965Z</time></trkpt><trkpt lat="45.818598197666624" lon="9.851698375802627"><ele>527.0</ele><time>2026-04-03T13:30:39.965Z</time></trkpt><trkpt lat="45.818686046613124" lon="9.851804803235652"><ele>532.0</ele><time>2026-04-03T13:30:40.965Z</time></trkpt><trkpt lat="45.81878215964469" lon="9.851933574000109"><ele>537.0</ele><time>2026-04-03T13:30:41.965Z</time></trkpt><trkpt lat="45.81885835012419" lon="9.852056116433472"><ele>537.0</ele><time>2026-04-03T13:30:42.965Z</time></trkpt><trkpt lat="45.81892829282043" lon="9.852154178398463"><ele>537.0</ele><time>2026-04-03T13:30:43.965Z</time></trkpt><trkpt lat="45.81898760694524" lon="9.852207767703877"><ele>537.0</ele><time>2026-04-03T13:30:45.965Z</time></trkpt><trkpt lat="45.81895557097778" lon="9.852330547993194"><ele>537.0</ele><time>2026-04-03T13:30:48.965Z</time></trkpt><trkpt lat="45.8190083282866" lon="9.852403290849846"><ele>537.0</ele><time>2026-04-03T13:30:51.964Z</time></trkpt><trkpt lat="45.81905524454959" lon="9.852469572370184"><ele>537.0</ele><time>2026-04-03T13:30:52.964Z</time></trkpt><trkpt lat="45.81914818238972" lon="9.852571521992655"><ele>538.8333333333334</ele><time>2026-04-03T13:30:54.964Z</time></trkpt><trkpt lat="45.81924189096873" lon="9.852638879280295"><ele>540.6666666666666</ele><time>2026-04-03T13:30:56.964Z</time></trkpt><trkpt lat="45.81930216316558" lon="9.852703449821037"><ele>542.5</ele><time>2026-04-03T13:30:57.964Z</time></trkpt><trkpt lat="45.81937317513316" lon="9.852768174359209"><ele>544.3333333333333</ele><time>2026-04-03T13:30:58.964Z</time></trkpt><trkpt lat="45.81944322538142" lon="9.852832197980282"><ele>546.1666666666666</ele><time>2026-04-03T13:30:59.964Z</time></trkpt><trkpt lat="45.819508582763554" lon="9.852887322993597"><ele>548.0</ele><time>2026-04-03T13:31:00.964Z</time></trkpt><trkpt lat="45.819581031448315" lon="9.8529360045739"><ele>548.0</ele><time>2026-04-03T13:31:01.964Z</time></trkpt><trkpt lat="45.81966496104325" lon="9.852962076281086"><ele>548.0</ele><time>2026-04-03T13:31:04.964Z</time></trkpt><trkpt lat="45.81974015798306" lon="9.85296032334944"><ele>548.0</ele><time>2026-04-03T13:31:08.963Z</time></trkpt><trkpt lat="45.819815247166254" lon="9.852937723229871"><ele>548.0</ele><time>2026-04-03T13:31:10.963Z</time></trkpt><trkpt lat="45.81995358926483" lon="9.852929806785333"><ele>548.0</ele><time>2026-04-03T13:31:12.963Z</time></trkpt><trkpt lat="45.82003367013481" lon="9.852930933245261"><ele>548.0</ele><time>2026-04-03T13:31:13.963Z</time></trkpt><trkpt lat="45.82010996840827" lon="9.852910093997712"><ele>548.0</ele><time>2026-04-03T13:31:14.963Z</time></trkpt><trkpt lat="45.8201810595483" lon="9.852893284943963"><ele>548.0</ele><time>2026-04-03T13:31:15.963Z</time></trkpt><trkpt lat="45.820249091846115" lon="9.852892384515105"><ele>548.0</ele><time>2026-04-03T13:31:16.963Z</time></trkpt><trkpt lat="45.82033136167922" lon="9.852901477741032"><ele>548.0</ele><time>2026-04-03T13:31:17.963Z</time></trkpt><trkpt lat="45.82042253738269" lon="9.852906280152633"><ele>548.0</ele><time>2026-04-03T13:31:18.963Z</time></trkpt><trkpt lat="45.820537307393835" lon="9.852897211367537"><ele>552.8333333333333</ele><time>2026-04-03T13:31:19.963Z</time></trkpt><trkpt lat="45.82062958856478" lon="9.852895270397173"><ele>557.6666666666666</ele><time>2026-04-03T13:31:20.963Z</time></trkpt><trkpt lat="45.820716604803216" lon="9.852896577451103"><ele>562.5</ele><time>2026-04-03T13:31:21.963Z</time></trkpt><trkpt lat="45.82080330809153" lon="9.852894496551423"><ele>567.3333333333334</ele><time>2026-04-03T13:31:22.963Z</time></trkpt><trkpt lat="45.82088603588453" lon="9.852896276990982"><ele>572.1666666666667</ele><time>2026-04-03T13:31:23.963Z</time></trkpt><trkpt lat="45.820968609813164" lon="9.85289502317394"><ele>577.0</ele><time>2026-04-03T13:31:24.963Z</time></trkpt><trkpt lat="45.82106023925491" lon="9.852904066074267"><ele>584.0</ele><time>2026-04-03T13:31:25.963Z</time></trkpt><trkpt lat="45.821136324673574" lon="9.852913251735503"><ele>591.0</ele><time>2026-04-03T13:31:26.963Z</time></trkpt><trkpt lat="45.82122171898328" lon="9.852927058718906"><ele>598.0</ele><time>2026-04-03T13:31:27.962Z</time></trkpt><trkpt lat="45.82129979958325" lon="9.852951772443971"><ele>605.0</ele><time>2026-04-03T13:31:28.962Z</time></trkpt><trkpt lat="45.82136491734409" lon="9.853001917537942"><ele>612.0</ele><time>2026-04-03T13:31:29.962Z</time></trkpt><trkpt lat="45.82142996949902" lon="9.853073490240504"><ele>619.0</ele><time>2026-04-03T13:31:30.962Z</time></trkpt><trkpt lat="45.821469507272056" lon="9.853168736447598"><ele>619.0</ele><time>2026-04-03T13:31:31.962Z</time></trkpt><trkpt lat="45.821514814572296" lon="9.853330196593742"><ele>619.0</ele><time>2026-04-03T13:31:32.962Z</time></trkpt><trkpt lat="45.82156692712928" lon="9.853513551150439"><ele>619.0</ele><time>2026-04-03T13:31:33.962Z</time></trkpt><trkpt lat="45.821641292384896" lon="9.853716766766183"><ele>619.0</ele><time>2026-04-03T13:31:34.962Z</time></trkpt><trkpt lat="45.82171575984938" lon="9.853879378438746"><ele>620.8333333333334</ele><time>2026-04-03T13:31:35.962Z</time></trkpt><trkpt lat="45.8217731114305" lon="9.853993502540646"><ele>622.6666666666667</ele><time>2026-04-03T13:31:36.962Z</time></trkpt><trkpt lat="45.82182847607804" lon="9.854046186531999"><ele>624.5</ele><time>2026-04-03T13:31:37.962Z</time></trkpt><trkpt lat="45.82189275175133" lon="9.854133600243118"><ele>626.3333333333334</ele><time>2026-04-03T13:31:38.962Z</time></trkpt><trkpt lat="45.821966573650215" lon="9.854192583622012"><ele>628.1666666666666</ele><time>2026-04-03T13:31:39.962Z</time></trkpt><trkpt lat="45.82205437899116" lon="9.854232224943956"><ele>630.0</ele><time>2026-04-03T13:31:40.962Z</time></trkpt><trkpt lat="45.82213313239273" lon="9.854275827810927"><ele>630.0</ele><time>2026-04-03T13:31:41.962Z</time></trkpt><trkpt lat="45.8222293647339" lon="9.85428562940234"><ele>630.0</ele><time>2026-04-03T13:31:43.962Z</time></trkpt><trkpt lat="45.822303596484254" lon="9.854314553362594"><ele>630.0</ele><time>2026-04-03T13:31:44.962Z</time></trkpt><trkpt lat="45.82240261322222" lon="9.854358337862028"><ele>630.0</ele><time>2026-04-03T13:31:45.961Z</time></trkpt><trkpt lat="45.82251810129766" lon="9.854426092649435"><ele>630.0</ele><time>2026-04-03T13:31:46.961Z</time></trkpt><trkpt lat="45.82262540239393" lon="9.854496610060675"><ele>627.0</ele><time>2026-04-03T13:31:47.961Z</time></trkpt><trkpt lat="45.822762764421896" lon="9.854563058080386"><ele>624.0</ele><time>2026-04-03T13:31:48.961Z</time></trkpt><trkpt lat="45.82290049712074" lon="9.854650787983264"><ele>621.0</ele><time>2026-04-03T13:31:49.961Z</time></trkpt><trkpt lat="45.823047417057936" lon="9.854733195587754"><ele>621.0</ele><time>2026-04-03T13:31:50.961Z</time></trkpt><trkpt lat="45.82317883114454" lon="9.854822334690356"><ele>621.0</ele><time>2026-04-03T13:31:51.961Z</time></trkpt><trkpt lat="45.82333023147442" lon="9.854883039416473"><ele>621.0</ele><time>2026-04-03T13:31:52.961Z</time></trkpt><trkpt lat="45.82346291408294" lon="9.854943607191794"><ele>621.0</ele><time>2026-04-03T13:31:53.961Z</time></trkpt><trkpt lat="45.823570084105896" lon="9.855025474728341"><ele>621.6</ele><time>2026-04-03T13:31:54.961Z</time></trkpt><trkpt lat="45.82369367977371" lon="9.85508476342994"><ele>622.2</ele><time>2026-04-03T13:31:55.961Z</time></trkpt><trkpt lat="45.82379544933652" lon="9.855101018345344"><ele>622.8</ele><time>2026-04-03T13:31:56.961Z</time></trkpt><trkpt lat="45.823889132643174" lon="9.855071768365127"><ele>623.4</ele><time>2026-04-03T13:31:57.961Z</time></trkpt><trkpt lat="45.823970353604274" lon="9.855006507534464"><ele>624.0</ele><time>2026-04-03T13:31:58.961Z</time></trkpt><trkpt lat="45.82407403538093" lon="9.854901277181332"><ele>624.0</ele><time>2026-04-03T13:31:59.961Z</time></trkpt><trkpt lat="45.824177191171884" lon="9.854784418741323"><ele>624.0</ele><time>2026-04-03T13:32:00.961Z</time></trkpt><trkpt lat="45.8242981485533" lon="9.854659174316893"><ele>624.0</ele><time>2026-04-03T13:32:01.961Z</time></trkpt><trkpt lat="45.82442719909331" lon="9.85449644061368"><ele>627.5</ele><time>2026-04-03T13:32:02.961Z</time></trkpt><trkpt lat="45.82453382347126" lon="9.854365713255985"><ele>631.0</ele><time>2026-04-03T13:32:03.961Z</time></trkpt><trkpt lat="45.8246238475647" lon="9.854225757146242"><ele>634.5</ele><time>2026-04-03T13:32:04.96Z</time></trkpt><trkpt lat="45.82470562628377" lon="9.854077996235803"><ele>638.0</ele><time>2026-04-03T13:32:05.96Z</time></trkpt><trkpt lat="45.824785776427994" lon="9.853914624236294"><ele>638.0</ele><time>2026-04-03T13:32:06.96Z</time></trkpt><trkpt lat="45.82487750864028" lon="9.853774491947215"><ele>638.0</ele><time>2026-04-03T13:32:07.96Z</time></trkpt><trkpt lat="45.82498076739175" lon="9.853643977264715"><ele>638.0</ele><time>2026-04-03T13:32:08.96Z</time></trkpt><trkpt lat="45.825109591232845" lon="9.853506135250322"><ele>638.0</ele><time>2026-04-03T13:32:09.96Z</time></trkpt><trkpt lat="45.82522443217078" lon="9.853394489480106"><ele>645.25</ele><time>2026-04-03T13:32:10.96Z</time></trkpt><trkpt lat="45.82531832155886" lon="9.853241150132654"><ele>652.5</ele><time>2026-04-03T13:32:11.96Z</time></trkpt><trkpt lat="45.82541597299975" lon="9.853104900351834"><ele>659.75</ele><time>2026-04-03T13:32:12.96Z</time></trkpt><trkpt lat="45.82550914960722" lon="9.852999666144013"><ele>667.0</ele><time>2026-04-03T13:32:13.96Z</time></trkpt><trkpt lat="45.825630514047184" lon="9.852968885283214"><ele>667.0</ele><time>2026-04-03T13:32:14.96Z</time></trkpt><trkpt lat="45.82575827693994" lon="9.852993264670483"><ele>667.0</ele><time>2026-04-03T13:32:15.96Z</time></trkpt><trkpt lat="45.82588186109058" lon="9.853051633479943"><ele>667.0</ele><time>2026-04-03T13:32:16.96Z</time></trkpt><trkpt lat="45.82599916036353" lon="9.853122371891123"><ele>667.0</ele><time>2026-04-03T13:32:17.96Z</time></trkpt><trkpt lat="45.82611517782215" lon="9.853226206029749"><ele>668.8333333333334</ele><time>2026-04-03T13:32:18.96Z</time></trkpt><trkpt lat="45.82622489134008" lon="9.853276851250527"><ele>670.6666666666667</ele><time>2026-04-03T13:32:19.96Z</time></trkpt><trkpt lat="45.82629813921333" lon="9.853333711329505"><ele>672.5</ele><time>2026-04-03T13:32:20.96Z</time></trkpt><trkpt lat="45.826359382749295" lon="9.853368145111435"><ele>674.3333333333334</ele><time>2026-04-03T13:32:21.96Z</time></trkpt><trkpt lat="45.82643851670165" lon="9.853326887244004"><ele>676.1666666666666</ele><time>2026-04-03T13:32:23.959Z</time></trkpt><trkpt lat="45.82648543249977" lon="9.85323942193774"><ele>678.0</ele><time>2026-04-03T13:32:24.959Z</time></trkpt><trkpt lat="45.82640185660733" lon="9.853100996386244"><ele>678.0</ele><time>2026-04-03T13:32:25.959Z</time></trkpt><trkpt lat="45.82630854407995" lon="9.853052014562195"><ele>678.0</ele><time>2026-04-03T13:32:26.959Z</time></trkpt><trkpt lat="45.82624287790312" lon="9.852994875914595"><ele>678.0</ele><time>2026-04-03T13:32:27.959Z</time></trkpt><trkpt lat="45.82618367420251" lon="9.852930340895758"><ele>678.0</ele><time>2026-04-03T13:32:28.959Z</time></trkpt><trkpt lat="45.82612862907472" lon="9.852840370500324"><ele>678.0</ele><time>2026-04-03T13:32:29.959Z</time></trkpt><trkpt lat="45.82607606423109" lon="9.852771248216044"><ele>678.0</ele><time>2026-04-03T13:32:30.959Z</time></trkpt><trkpt lat="45.826016537255995" lon="9.852700073639635"><ele>678.0</ele><time>2026-04-03T13:32:31.959Z</time></trkpt><trkpt lat="45.82596500409368" lon="9.852641046502267"><ele>678.0</ele><time>2026-04-03T13:32:32.959Z</time></trkpt><trkpt lat="45.82602317811942" lon="9.852707743701572"><ele>678.0</ele><time>2026-04-03T13:32:39.959Z</time></trkpt><trkpt lat="45.82608800025978" lon="9.85278618295423"><ele>678.0</ele><time>2026-04-03T13:32:41.958Z</time></trkpt><trkpt lat="45.82618799115319" lon="9.852927946866966"><ele>678.0</ele><time>2026-04-03T13:32:43.958Z</time></trkpt><trkpt lat="45.826364149778925" lon="9.852622128260338"><ele>682.5</ele><time>2026-04-03T13:32:51.958Z</time></trkpt><trkpt lat="45.82643169337699" lon="9.852532610237022"><ele>687.0</ele><time>2026-04-03T13:32:52.958Z</time></trkpt><trkpt lat="45.826459925783496" lon="9.852429694286874"><ele>691.5</ele><time>2026-04-03T13:32:53.958Z</time></trkpt><trkpt lat="45.8264620389569" lon="9.852318466044592"><ele>696.0</ele><time>2026-04-03T13:32:54.958Z</time></trkpt><trkpt lat="45.82648653267385" lon="9.852178078452127"><ele>700.5</ele><time>2026-04-03T13:32:55.958Z</time></trkpt><trkpt lat="45.826500305214836" lon="9.85204284348746"><ele>705.0</ele><time>2026-04-03T13:32:56.958Z</time></trkpt><trkpt lat="45.826518345912234" lon="9.851928230281352"><ele>707.6</ele><time>2026-04-03T13:32:57.958Z</time></trkpt><trkpt lat="45.826538190947815" lon="9.851778475233571"><ele>710.2</ele><time>2026-04-03T13:32:58.958Z</time></trkpt><trkpt lat="45.82654358753378" lon="9.851672731812512"><ele>712.8</ele><time>2026-04-03T13:32:59.957Z</time></trkpt><trkpt lat="45.82661004181533" lon="9.851590615971926"><ele>715.4</ele><time>2026-04-03T13:33:02.957Z</time></trkpt><trkpt lat="45.826653167860144" lon="9.851432919627335"><ele>718.0</ele><time>2026-04-03T13:33:04.957Z</time></trkpt><trkpt lat="45.82669206724393" lon="9.851344651364705"><ele>718.0</ele><time>2026-04-03T13:33:05.957Z</time></trkpt><trkpt lat="45.8267593734084" lon="9.851219163958877"><ele>718.0</ele><time>2026-04-03T13:33:06.957Z</time></trkpt><trkpt lat="45.826814110105424" lon="9.85115378152118"><ele>718.0</ele><time>2026-04-03T13:33:08.957Z</time></trkpt><trkpt lat="45.8269559621628" lon="9.851087879208688"><ele>718.0</ele><time>2026-04-03T13:33:10.957Z</time></trkpt><trkpt lat="45.82705228304323" lon="9.8510599473044"><ele>718.0</ele><time>2026-04-03T13:33:11.957Z</time></trkpt><trkpt lat="45.827151061577325" lon="9.851023109543359"><ele>717.2</ele><time>2026-04-03T13:33:12.957Z</time></trkpt><trkpt lat="45.82723984082254" lon="9.850973566198569"><ele>716.4</ele><time>2026-04-03T13:33:13.957Z</time></trkpt><trkpt lat="45.82731547729104" lon="9.85091054191046"><ele>715.6</ele><time>2026-04-03T13:33:14.957Z</time></trkpt><trkpt lat="45.82738647431892" lon="9.850867772904953"><ele>714.8000000000001</ele><time>2026-04-03T13:33:15.957Z</time></trkpt><trkpt lat="45.82747580656698" lon="9.850789050967474"><ele>714.0</ele><time>2026-04-03T13:33:16.957Z</time></trkpt><trkpt lat="45.827575381761385" lon="9.850722046699847"><ele>719.0</ele><time>2026-04-03T13:33:17.957Z</time></trkpt><trkpt lat="45.82766895624373" lon="9.850659495673822"><ele>724.0</ele><time>2026-04-03T13:33:18.956Z</time></trkpt><trkpt lat="45.82775896470671" lon="9.85061285134303"><ele>729.0</ele><time>2026-04-03T13:33:19.956Z</time></trkpt><trkpt lat="45.82786359156057" lon="9.850577389023414"><ele>734.0</ele><time>2026-04-03T13:33:20.956Z</time></trkpt><trkpt lat="45.827973163241964" lon="9.850541009213117"><ele>739.0</ele><time>2026-04-03T13:33:21.956Z</time></trkpt><trkpt lat="45.82807905840667" lon="9.850496156450685"><ele>739.0</ele><time>2026-04-03T13:33:22.956Z</time></trkpt><trkpt lat="45.82818234015284" lon="9.850446985751262"><ele>739.0</ele><time>2026-04-03T13:33:23.956Z</time></trkpt><trkpt lat="45.82828022767925" lon="9.850406279874866"><ele>739.0</ele><time>2026-04-03T13:33:24.956Z</time></trkpt><trkpt lat="45.828367455073526" lon="9.85037032676596"><ele>739.0</ele><time>2026-04-03T13:33:25.956Z</time></trkpt><trkpt lat="45.82843230765866" lon="9.850319838725493"><ele>739.0</ele><time>2026-04-03T13:33:26.956Z</time></trkpt><trkpt lat="45.82849016958127" lon="9.850264486512327"><ele>739.0</ele><time>2026-04-03T13:33:27.956Z</time></trkpt><trkpt lat="45.82854391540108" lon="9.850189419004415"><ele>743.6</ele><time>2026-04-03T13:33:28.956Z</time></trkpt><trkpt lat="45.8286060632478" lon="9.850096273356607"><ele>748.2</ele><time>2026-04-03T13:33:29.956Z</time></trkpt><trkpt lat="45.82866731666184" lon="9.850071922400176"><ele>752.8000000000001</ele><time>2026-04-03T13:33:31.956Z</time></trkpt><trkpt lat="45.828788169924586" lon="9.85009297980748"><ele>757.4000000000001</ele><time>2026-04-03T13:33:33.956Z</time></trkpt><trkpt lat="45.828902445355425" lon="9.850055179221778"><ele>762.0</ele><time>2026-04-03T13:33:34.956Z</time></trkpt><trkpt lat="45.82902527882119" lon="9.850007257862792"><ele>762.0</ele><time>2026-04-03T13:33:35.956Z</time></trkpt><trkpt lat="45.82914937237913" lon="9.849973120907558"><ele>762.0</ele><time>2026-04-03T13:33:36.956Z</time></trkpt><trkpt lat="45.829279876617676" lon="9.849948210345598"><ele>762.0</ele><time>2026-04-03T13:33:37.955Z</time></trkpt><trkpt lat="45.82940692714348" lon="9.849923909684179"><ele>762.0</ele><time>2026-04-03T13:33:38.955Z</time></trkpt><trkpt lat="45.829541594614305" lon="9.84990749794643"><ele>764.25</ele><time>2026-04-03T13:33:39.955Z</time></trkpt><trkpt lat="45.829663862412445" lon="9.849900259814337"><ele>766.5</ele><time>2026-04-03T13:33:40.955Z</time></trkpt><trkpt lat="45.82975763789069" lon="9.849890751288616"><ele>768.75</ele><time>2026-04-03T13:33:41.955Z</time></trkpt><trkpt lat="45.82987548318861" lon="9.84984289985687"><ele>771.0</ele><time>2026-04-03T13:33:43.955Z</time></trkpt><trkpt lat="45.82998782420086" lon="9.849863116159359"><ele>771.0</ele><time>2026-04-03T13:33:45.955Z</time></trkpt><trkpt lat="45.830050697734215" lon="9.849915265036225"><ele>771.0</ele><time>2026-04-03T13:33:46.955Z</time></trkpt><trkpt lat="45.83015191993464" lon="9.849941782328408"><ele>771.0</ele><time>2026-04-03T13:33:47.955Z</time></trkpt><trkpt lat="45.8302532676561" lon="9.849988061405877"><ele>771.0</ele><time>2026-04-03T13:33:48.955Z</time></trkpt><trkpt lat="45.83032379372217" lon="9.850018165447997"><ele>771.0</ele><time>2026-04-03T13:33:49.955Z</time></trkpt><trkpt lat="45.83039262433284" lon="9.849988393588587"><ele>771.0</ele><time>2026-04-03T13:33:51.955Z</time></trkpt><trkpt lat="45.83049299825857" lon="9.849979805461848"><ele>772.1666666666666</ele><time>2026-04-03T13:33:53.955Z</time></trkpt><trkpt lat="45.83055236538412" lon="9.850035765685554"><ele>773.3333333333333</ele><time>2026-04-03T13:33:59.954Z</time></trkpt><trkpt lat="45.83059956409044" lon="9.850124701784376"><ele>774.5</ele><time>2026-04-03T13:34:03.954Z</time></trkpt><trkpt lat="45.83068862291672" lon="9.850158353072548"><ele>775.6666666666666</ele><time>2026-04-03T13:34:06.954Z</time></trkpt><trkpt lat="45.83075865833502" lon="9.850240012024662"><ele>776.8333333333333</ele><time>2026-04-03T13:34:09.954Z</time></trkpt><trkpt lat="45.83083548864379" lon="9.850253899128587"><ele>778.0</ele><time>2026-04-03T13:34:12.954Z</time></trkpt><trkpt lat="45.83090500920504" lon="9.850281819922165"><ele>778.0</ele><time>2026-04-03T13:34:17.953Z</time></trkpt><trkpt lat="45.83097003570961" lon="9.850302339073178"><ele>778.0</ele><time>2026-04-03T13:34:19.953Z</time></trkpt><trkpt lat="45.83104058625905" lon="9.850340696043192"><ele>778.0</ele><time>2026-04-03T13:34:21.953Z</time></trkpt><trkpt lat="45.83110426907405" lon="9.850412755593576"><ele>778.0</ele><time>2026-04-03T13:34:24.953Z</time></trkpt><trkpt lat="45.83117183198406" lon="9.850432029574545"><ele>778.0</ele><time>2026-04-03T13:34:26.953Z</time></trkpt><trkpt lat="45.83124409352021" lon="9.8504726347608"><ele>778.0</ele><time>2026-04-03T13:34:29.953Z</time></trkpt><trkpt lat="45.83130934597779" lon="9.850486512462378"><ele>778.0</ele><time>2026-04-03T13:34:31.953Z</time></trkpt><trkpt lat="45.83139610384809" lon="9.850486957359003"><ele>784.1666666666666</ele><time>2026-04-03T13:34:33.952Z</time></trkpt><trkpt lat="45.83146220694722" lon="9.850470639737503"><ele>790.3333333333333</ele><time>2026-04-03T13:34:35.952Z</time></trkpt><trkpt lat="45.83154635514623" lon="9.850540574759485"><ele>796.5</ele><time>2026-04-03T13:34:38.952Z</time></trkpt><trkpt lat="45.8316186088505" lon="9.850580983518315"><ele>802.6666666666667</ele><time>2026-04-03T13:34:41.952Z</time></trkpt><trkpt lat="45.831711153995975" lon="9.85062096424961"><ele>808.8333333333334</ele><time>2026-04-03T13:34:44.952Z</time></trkpt><trkpt lat="45.83177179285812" lon="9.850665072134365"><ele>815.0</ele><time>2026-04-03T13:34:46.952Z</time></trkpt><trkpt lat="45.831904933422145" lon="9.850769657002575"><ele>819.5000000000001</ele><time>2026-04-03T13:34:53.951Z</time></trkpt><trkpt lat="45.83199247710794" lon="9.850801806458572"><ele>824.0</ele><time>2026-04-03T13:34:56.951Z</time></trkpt><trkpt lat="45.83206225718884" lon="9.850824937349342"><ele>828.5</ele><time>2026-04-03T13:35:00.951Z</time></trkpt><trkpt lat="45.83212231656343" lon="9.850861515266523"><ele>833.0</ele><time>2026-04-03T13:35:04.951Z</time></trkpt><trkpt lat="45.83221071383154" lon="9.850873507657527"><ele>837.5000000000001</ele><time>2026-04-03T13:35:16.95Z</time></trkpt><trkpt lat="45.83227368400396" lon="9.850868478433222"><ele>842.0</ele><time>2026-04-03T13:35:19.95Z</time></trkpt><trkpt lat="45.832341253399704" lon="9.850941519154011"><ele>842.0000000000001</ele><time>2026-04-03T13:35:24.95Z</time></trkpt><trkpt lat="45.83241379144371" lon="9.850917294305873"><ele>842.0</ele><time>2026-04-03T13:35:27.95Z</time></trkpt><trkpt lat="45.83236421207244" lon="9.850844508351287"><ele>842.0</ele><time>2026-04-03T13:35:49.948Z</time></trkpt><trkpt lat="45.83236787968233" lon="9.850736176446162"><ele>842.0</ele><time>2026-04-03T13:35:53.948Z</time></trkpt><trkpt lat="45.83241586797738" lon="9.850659686653751"><ele>842.0</ele><time>2026-04-03T13:35:55.948Z</time></trkpt><trkpt lat="45.832469228355485" lon="9.850585577466537"><ele>842.0000000000001</ele><time>2026-04-03T13:36:00.948Z</time></trkpt><trkpt lat="45.83249243408103" lon="9.85049877010635"><ele>842.0</ele><time>2026-04-03T13:36:04.948Z</time></trkpt><trkpt lat="45.83244032342235" lon="9.850403685607905"><ele>842.0000000000001</ele><time>2026-04-03T13:36:11.947Z</time></trkpt><trkpt lat="45.83239764349931" lon="9.850322418858418"><ele>842.0</ele><time>2026-04-03T13:36:15.947Z</time></trkpt><trkpt lat="45.8323848957945" lon="9.850214615938308"><ele>842.0</ele><time>2026-04-03T13:36:19.947Z</time></trkpt><trkpt lat="45.83242935390152" lon="9.85014008818174"><ele>842.0</ele><time>2026-04-03T13:36:21.947Z</time></trkpt><trkpt lat="45.832500402585744" lon="9.850100835271487"><ele>842.0</ele><time>2026-04-03T13:36:23.946Z</time></trkpt><trkpt lat="45.83255940324297" lon="9.850056692325229"><ele>842.0000000000001</ele><time>2026-04-03T13:36:25.946Z</time></trkpt><trkpt lat="45.83261227047463" lon="9.849994430108882"><ele>842.0</ele><time>2026-04-03T13:36:28.946Z</time></trkpt><trkpt lat="45.83264482684279" lon="9.84991286868962"><ele>846.4285714285714</ele><time>2026-04-03T13:36:33.946Z</time></trkpt><trkpt lat="45.83267566163778" lon="9.849821417882634"><ele>850.8571428571429</ele><time>2026-04-03T13:36:46.945Z</time></trkpt><trkpt lat="45.832743568250514" lon="9.849749910966642"><ele>855.2857142857142</ele><time>2026-04-03T13:36:48.945Z</time></trkpt><trkpt lat="45.83280344340151" lon="9.849696841361029"><ele>859.7142857142858</ele><time>2026-04-03T13:36:49.945Z</time></trkpt><trkpt lat="45.83286302635945" lon="9.849639087341778"><ele>864.1428571428571</ele><time>2026-04-03T13:36:50.945Z</time></trkpt><trkpt lat="45.83290912520454" lon="9.849575546508152"><ele>868.5714285714286</ele><time>2026-04-03T13:36:51.945Z</time></trkpt><trkpt lat="45.832976802022166" lon="9.849518533667052"><ele>873.0</ele><time>2026-04-03T13:36:52.945Z</time></trkpt><trkpt lat="45.83309556725743" lon="9.849437444691185"><ele>873.0</ele><time>2026-04-03T13:36:54.945Z</time></trkpt><trkpt lat="45.83320416153994" lon="9.849442642049665"><ele>873.0</ele><time>2026-04-03T13:36:55.945Z</time></trkpt><trkpt lat="45.833303159331486" lon="9.849400150504124"><ele>873.0</ele><time>2026-04-03T13:36:56.945Z</time></trkpt><trkpt lat="45.83342793042796" lon="9.849421626661343"><ele>873.0</ele><time>2026-04-03T13:36:57.945Z</time></trkpt><trkpt lat="45.83355008022185" lon="9.849370678743279"><ele>874.2</ele><time>2026-04-03T13:36:58.945Z</time></trkpt><trkpt lat="45.83365699962553" lon="9.849320234938128"><ele>875.4</ele><time>2026-04-03T13:36:59.945Z</time></trkpt><trkpt lat="45.83377234635833" lon="9.849274255547828"><ele>876.6000000000001</ele><time>2026-04-03T13:37:00.945Z</time></trkpt><trkpt lat="45.833872641393704" lon="9.84925966814987"><ele>877.8000000000001</ele><time>2026-04-03T13:37:01.944Z</time></trkpt><trkpt lat="45.83395678062493" lon="9.849206839152966"><ele>879.0</ele><time>2026-04-03T13:37:02.944Z</time></trkpt><trkpt lat="45.834032277436634" lon="9.84916772444229"><ele>881.6</ele><time>2026-04-03T13:37:03.944Z</time></trkpt><trkpt lat="45.834115575186814" lon="9.849084640752904"><ele>884.2</ele><time>2026-04-03T13:37:04.944Z</time></trkpt><trkpt lat="45.83420814857009" lon="9.848978434374548"><ele>886.8000000000001</ele><time>2026-04-03T13:37:05.944Z</time></trkpt><trkpt lat="45.83427802484756" lon="9.84885810364905"><ele>889.4000000000001</ele><time>2026-04-03T13:37:06.944Z</time></trkpt><trkpt lat="45.834324962307456" lon="9.848764039696595"><ele>892.0</ele><time>2026-04-03T13:37:07.944Z</time></trkpt><trkpt lat="45.83433440128044" lon="9.8486530735535"><ele>895.2</ele><time>2026-04-03T13:37:08.944Z</time></trkpt><trkpt lat="45.83431780951079" lon="9.848521080938227"><ele>898.4000000000001</ele><time>2026-04-03T13:37:09.944Z</time></trkpt><trkpt lat="45.834288768793684" lon="9.848389092827558"><ele>901.5999999999999</ele><time>2026-04-03T13:37:10.944Z</time></trkpt><trkpt lat="45.8342600130302" lon="9.848226211004713"><ele>904.8</ele><time>2026-04-03T13:37:11.944Z</time></trkpt><trkpt lat="45.83424900901263" lon="9.848047765530273"><ele>908.0</ele><time>2026-04-03T13:37:13.944Z</time></trkpt><trkpt lat="45.83432014313911" lon="9.848030276422124"><ele>902.5000000000001</ele><time>2026-04-03T13:37:15.944Z</time></trkpt><trkpt lat="45.83437519770308" lon="9.847937661085684"><ele>897.0</ele><time>2026-04-03T13:37:17.944Z</time></trkpt><trkpt lat="45.83439558982504" lon="9.847793595067925"><ele>891.5</ele><time>2026-04-03T13:37:18.944Z</time></trkpt><trkpt lat="45.83442689215041" lon="9.847690314343554"><ele>886.0</ele><time>2026-04-03T13:37:19.943Z</time></trkpt><trkpt lat="45.834456524721745" lon="9.847575376647802"><ele>880.5000000000001</ele><time>2026-04-03T13:37:20.943Z</time></trkpt><trkpt lat="45.83450346031184" lon="9.847473069604822"><ele>875.0</ele><time>2026-04-03T13:37:21.943Z</time></trkpt><trkpt lat="45.834554885930075" lon="9.847296408818584"><ele>875.0</ele><time>2026-04-03T13:37:22.943Z</time></trkpt><trkpt lat="45.83456822826378" lon="9.847129274688958"><ele>875.0</ele><time>2026-04-03T13:37:23.943Z</time></trkpt><trkpt lat="45.83458107656112" lon="9.846874239604803"><ele>875.0</ele><time>2026-04-03T13:37:24.943Z</time></trkpt><trkpt lat="45.834591295425874" lon="9.84671735554506"><ele>875.0</ele><time>2026-04-03T13:37:25.943Z</time></trkpt><trkpt lat="45.83459305340184" lon="9.846556440335156"><ele>879.0</ele><time>2026-04-03T13:37:26.943Z</time></trkpt><trkpt lat="45.834595473644654" lon="9.846415159191643"><ele>883.0</ele><time>2026-04-03T13:37:27.943Z</time></trkpt><trkpt lat="45.834615368143226" lon="9.846232257864466"><ele>887.0</ele><time>2026-04-03T13:37:29.943Z</time></trkpt><trkpt lat="45.83470194934979" lon="9.846193916970858"><ele>891.0</ele><time>2026-04-03T13:37:31.943Z</time></trkpt><trkpt lat="45.83463907548972" lon="9.846210677943288"><ele>895.0</ele><time>2026-04-03T13:37:35.943Z</time></trkpt><trkpt lat="45.83456970719469" lon="9.846217413409683"><ele>895.0</ele><time>2026-04-03T13:37:38.942Z</time></trkpt><trkpt lat="45.834436377188695" lon="9.846254484911954"><ele>895.0</ele><time>2026-04-03T13:37:40.942Z</time></trkpt><trkpt lat="45.83456684305417" lon="9.846175326382452"><ele>895.0</ele><time>2026-04-03T13:37:46.942Z</time></trkpt><trkpt lat="45.83464138477911" lon="9.846175894835607"><ele>895.0</ele><time>2026-04-03T13:37:47.942Z</time></trkpt><trkpt lat="45.834771630156695" lon="9.8461898868677"><ele>895.0</ele><time>2026-04-03T13:37:48.942Z</time></trkpt><trkpt lat="45.834895631356865" lon="9.846207480378693"><ele>895.0</ele><time>2026-04-03T13:37:49.942Z</time></trkpt><trkpt lat="45.83500115066849" lon="9.84622355164495"><ele>895.0</ele><time>2026-04-03T13:37:50.942Z</time></trkpt><trkpt lat="45.83513247814451" lon="9.846229531942972"><ele>895.0</ele><time>2026-04-03T13:37:51.942Z</time></trkpt><trkpt lat="45.83524107264068" lon="9.846221754930973"><ele>893.0</ele><time>2026-04-03T13:37:52.942Z</time></trkpt><trkpt lat="45.83533688120618" lon="9.846227152907186"><ele>891.0</ele><time>2026-04-03T13:37:53.942Z</time></trkpt><trkpt lat="45.83544600780855" lon="9.846198947838595"><ele>889.0</ele><time>2026-04-03T13:37:54.942Z</time></trkpt><trkpt lat="45.83555141902843" lon="9.846163405788328"><ele>887.0</ele><time>2026-04-03T13:37:55.942Z</time></trkpt><trkpt lat="45.83567339272612" lon="9.84611068571177"><ele>885.0</ele><time>2026-04-03T13:37:56.941Z</time></trkpt><trkpt lat="45.83573988751441" lon="9.846093048503288"><ele>885.0</ele><time>2026-04-03T13:37:57.941Z</time></trkpt><trkpt lat="45.8358110133396" lon="9.846054543307421"><ele>885.0</ele><time>2026-04-03T13:37:58.941Z</time></trkpt><trkpt lat="45.83587000448192" lon="9.846001472012135"><ele>885.0</ele><time>2026-04-03T13:37:59.941Z</time></trkpt><trkpt lat="45.83601453467682" lon="9.846000460121145"><ele>885.0</ele><time>2026-04-03T13:38:01.941Z</time></trkpt><trkpt lat="45.83610707363005" lon="9.846035278299302"><ele>885.0</ele><time>2026-04-03T13:38:02.941Z</time></trkpt><trkpt lat="45.83619086753124" lon="9.846023456393313"><ele>889.5</ele><time>2026-04-03T13:38:03.941Z</time></trkpt><trkpt lat="45.83632392766453" lon="9.845949866900296"><ele>894.0</ele><time>2026-04-03T13:38:04.941Z</time></trkpt><trkpt lat="45.836451683530335" lon="9.845908779286368"><ele>898.5</ele><time>2026-04-03T13:38:05.941Z</time></trkpt><trkpt lat="45.83656022702747" lon="9.845801767080003"><ele>903.0</ele><time>2026-04-03T13:38:06.941Z</time></trkpt><trkpt lat="45.83664207498104" lon="9.845700713261426"><ele>903.0</ele><time>2026-04-03T13:38:07.941Z</time></trkpt><trkpt lat="45.83671922990235" lon="9.845675371520429"><ele>903.0</ele><time>2026-04-03T13:38:09.941Z</time></trkpt><trkpt lat="45.83682488595553" lon="9.845604909566509"><ele>903.0</ele><time>2026-04-03T13:38:11.941Z</time></trkpt><trkpt lat="45.836889728282664" lon="9.845629361576501"><ele>903.0</ele><time>2026-04-03T13:38:13.941Z</time></trkpt><trkpt lat="45.83691366596688" lon="9.845725317591501"><ele>903.0</ele><time>2026-04-03T13:38:15.94Z</time></trkpt><trkpt lat="45.83697950759683" lon="9.84583198889846"><ele>903.0</ele><time>2026-04-03T13:38:16.94Z</time></trkpt><trkpt lat="45.83710717822645" lon="9.845882001319797"><ele>904.0</ele><time>2026-04-03T13:38:17.94Z</time></trkpt><trkpt lat="45.83719169479644" lon="9.845978002650378"><ele>905.0</ele><time>2026-04-03T13:38:18.94Z</time></trkpt><trkpt lat="45.83729593410516" lon="9.84608972475982"><ele>906.0</ele><time>2026-04-03T13:38:19.94Z</time></trkpt><trkpt lat="45.83737929826734" lon="9.8461634657833"><ele>907.0</ele><time>2026-04-03T13:38:20.94Z</time></trkpt><trkpt lat="45.83744100770423" lon="9.846209700874846"><ele>908.0</ele><time>2026-04-03T13:38:21.94Z</time></trkpt><trkpt lat="45.837505125498005" lon="9.84622931410154"><ele>908.0</ele><time>2026-04-03T13:38:22.94Z</time></trkpt><trkpt lat="45.83761920838006" lon="9.846192933295624"><ele>908.0</ele><time>2026-04-03T13:38:23.94Z</time></trkpt><trkpt lat="45.83772877774623" lon="9.846205380204092"><ele>908.0</ele><time>2026-04-03T13:38:24.94Z</time></trkpt><trkpt lat="45.83784877292119" lon="9.846194978248716"><ele>908.0</ele><time>2026-04-03T13:38:25.94Z</time></trkpt><trkpt lat="45.837979084508426" lon="9.846179253903596"><ele>911.1666666666667</ele><time>2026-04-03T13:38:26.94Z</time></trkpt><trkpt lat="45.83806851433637" lon="9.846187872340352"><ele>914.3333333333334</ele><time>2026-04-03T13:38:27.94Z</time></trkpt><trkpt lat="45.83816103754644" lon="9.846235102619044"><ele>917.5</ele><time>2026-04-03T13:38:29.94Z</time></trkpt><trkpt lat="45.838224280476645" lon="9.846280240504933"><ele>920.6666666666667</ele><time>2026-04-03T13:38:46.939Z</time></trkpt><trkpt lat="45.83829867705126" lon="9.84632668773622"><ele>923.8333333333334</ele><time>2026-04-03T13:38:49.939Z</time></trkpt><trkpt lat="45.83837076454451" lon="9.846284214815066"><ele>927.0</ele><time>2026-04-03T13:38:51.939Z</time></trkpt><trkpt lat="45.83844038224418" lon="9.846277715830961"><ele>932.3333333333334</ele><time>2026-04-03T13:38:52.938Z</time></trkpt><trkpt lat="45.838501670700865" lon="9.846318663836772"><ele>937.6666666666667</ele><time>2026-04-03T13:38:53.938Z</time></trkpt><trkpt lat="45.83858932501462" lon="9.846368602726901"><ele>943.0</ele><time>2026-04-03T13:38:54.938Z</time></trkpt><trkpt lat="45.83868107603966" lon="9.846407246748653"><ele>948.3333333333334</ele><time>2026-04-03T13:38:55.938Z</time></trkpt><trkpt lat="45.8387684294201" lon="9.846462133532235"><ele>953.6666666666667</ele><time>2026-04-03T13:38:56.938Z</time></trkpt><trkpt lat="45.83883861738406" lon="9.846519515253167"><ele>959.0</ele><time>2026-04-03T13:38:57.938Z</time></trkpt><trkpt lat="45.8389034804881" lon="9.846571875023074"><ele>959.0000000000001</ele><time>2026-04-03T13:38:58.938Z</time></trkpt><trkpt lat="45.838969241852375" lon="9.846627807322335"><ele>959.0</ele><time>2026-04-03T13:38:59.938Z</time></trkpt><trkpt lat="45.83908152188825" lon="9.846706082101756"><ele>959.0</ele><time>2026-04-03T13:39:01.938Z</time></trkpt><trkpt lat="45.83915375676412" lon="9.846795320649365"><ele>959.0</ele><time>2026-04-03T13:39:02.938Z</time></trkpt><trkpt lat="45.83919507646299" lon="9.846878373563854"><ele>959.0000000000001</ele><time>2026-04-03T13:39:03.938Z</time></trkpt><trkpt lat="45.83923496373245" lon="9.846951197592062"><ele>959.0</ele><time>2026-04-03T13:39:04.938Z</time></trkpt><trkpt lat="45.83928901706612" lon="9.847051542315633"><ele>963.6</ele><time>2026-04-03T13:39:05.938Z</time></trkpt><trkpt lat="45.839358943156526" lon="9.847141798085069"><ele>968.2</ele><time>2026-04-03T13:39:06.938Z</time></trkpt><trkpt lat="45.839435043636314" lon="9.847197828226392"><ele>972.8000000000001</ele><time>2026-04-03T13:39:07.938Z</time></trkpt><trkpt lat="45.839507915024676" lon="9.847253974242376"><ele>977.4000000000001</ele><time>2026-04-03T13:39:08.938Z</time></trkpt><trkpt lat="45.83958754832179" lon="9.84730791465823"><ele>982.0</ele><time>2026-04-03T13:39:09.938Z</time></trkpt><trkpt lat="45.83969832206979" lon="9.847334994455824"><ele>982.0</ele><time>2026-04-03T13:39:11.937Z</time></trkpt><trkpt lat="45.83979255186845" lon="9.847422953491053"><ele>982.0</ele><time>2026-04-03T13:39:13.937Z</time></trkpt><trkpt lat="45.83985671088636" lon="9.84747381614813"><ele>982.0</ele><time>2026-04-03T13:39:14.937Z</time></trkpt><trkpt lat="45.839959800762934" lon="9.847536942513399"><ele>982.0</ele><time>2026-04-03T13:39:15.937Z</time></trkpt><trkpt lat="45.840051286170876" lon="9.84758718358226"><ele>982.0</ele><time>2026-04-03T13:39:16.937Z</time></trkpt><trkpt lat="45.840162371782924" lon="9.8476756194103"><ele>983.4000000000001</ele><time>2026-04-03T13:39:17.937Z</time></trkpt><trkpt lat="45.84027782565549" lon="9.847783114756997"><ele>984.8000000000001</ele><time>2026-04-03T13:39:18.937Z</time></trkpt><trkpt lat="45.84037165372724" lon="9.847834334952267"><ele>986.2</ele><time>2026-04-03T13:39:19.937Z</time></trkpt><trkpt lat="45.84044740303825" lon="9.847896176347875"><ele>987.6</ele><time>2026-04-03T13:39:20.937Z</time></trkpt><trkpt lat="45.84054003489052" lon="9.847956496517352"><ele>989.0</ele><time>2026-04-03T13:39:21.937Z</time></trkpt><trkpt lat="45.84063154683072" lon="9.848015768581835"><ele>989.0</ele><time>2026-04-03T13:39:22.937Z</time></trkpt><trkpt lat="45.84071661679676" lon="9.848087868619366"><ele>989.0000000000001</ele><time>2026-04-03T13:39:23.937Z</time></trkpt><trkpt lat="45.840798907974815" lon="9.848139641623959"><ele>989.0000000000001</ele><time>2026-04-03T13:39:24.937Z</time></trkpt><trkpt lat="45.84088329371595" lon="9.848199165590723"><ele>989.0</ele><time>2026-04-03T13:39:25.937Z</time></trkpt><trkpt lat="45.84096926001886" lon="9.848235967530949"><ele>989.0</ele><time>2026-04-03T13:39:26.937Z</time></trkpt><trkpt lat="45.84105202058915" lon="9.84824173398534"><ele>991.1666666666667</ele><time>2026-04-03T13:39:27.937Z</time></trkpt><trkpt lat="45.841133164253236" lon="9.848250115663577"><ele>993.3333333333334</ele><time>2026-04-03T13:39:28.937Z</time></trkpt><trkpt lat="45.841224971634254" lon="9.848242795417574"><ele>995.5</ele><time>2026-04-03T13:39:29.936Z</time></trkpt><trkpt lat="45.84132574563188" lon="9.848223752631563"><ele>997.6666666666667</ele><time>2026-04-03T13:39:30.936Z</time></trkpt><trkpt lat="45.841417533167984" lon="9.848214886721472"><ele>999.8333333333334</ele><time>2026-04-03T13:39:31.936Z</time></trkpt><trkpt lat="45.84149539286928" lon="9.848201505752204"><ele>1002.0</ele><time>2026-04-03T13:39:32.936Z</time></trkpt><trkpt lat="45.84156697642476" lon="9.848160015175822"><ele>1002.0</ele><time>2026-04-03T13:39:33.936Z</time></trkpt><trkpt lat="45.84165651786845" lon="9.84810275590924"><ele>1002.0</ele><time>2026-04-03T13:39:34.936Z</time></trkpt><trkpt lat="45.841732322431376" lon="9.848083793660962"><ele>1002.0</ele><time>2026-04-03T13:39:35.936Z</time></trkpt><trkpt lat="45.841803725608415" lon="9.848110214275971"><ele>1002.0</ele><time>2026-04-03T13:39:36.936Z</time></trkpt><trkpt lat="45.841907398007464" lon="9.848143427127479"><ele>1002.0</ele><time>2026-04-03T13:39:37.936Z</time></trkpt><trkpt lat="45.84204575582184" lon="9.84820392953601"><ele>1003.75</ele><time>2026-04-03T13:39:38.936Z</time></trkpt><trkpt lat="45.842172361297244" lon="9.848213884677932"><ele>1005.5</ele><time>2026-04-03T13:39:39.936Z</time></trkpt><trkpt lat="45.84230634080363" lon="9.848214333890775"><ele>1007.25</ele><time>2026-04-03T13:39:40.936Z</time></trkpt><trkpt lat="45.84243959393428" lon="9.848214913021993"><ele>1009.0</ele><time>2026-04-03T13:39:41.936Z</time></trkpt><trkpt lat="45.84258075208744" lon="9.84823353901578"><ele>1010.0</ele><time>2026-04-03T13:39:42.936Z</time></trkpt><trkpt lat="45.84274017149783" lon="9.848224550684131"><ele>1011.0</ele><time>2026-04-03T13:39:43.936Z</time></trkpt><trkpt lat="45.84292627733413" lon="9.848192041057505"><ele>1012.0</ele><time>2026-04-03T13:39:44.936Z</time></trkpt><trkpt lat="45.843075120821254" lon="9.848174382778645"><ele>1012.0</ele><time>2026-04-03T13:39:45.936Z</time></trkpt><trkpt lat="45.84320439705424" lon="9.84816121122788"><ele>1012.0</ele><time>2026-04-03T13:39:46.936Z</time></trkpt><trkpt lat="45.84330968630872" lon="9.84822229087814"><ele>1012.0</ele><time>2026-04-03T13:39:47.935Z</time></trkpt><trkpt lat="45.843416188288" lon="9.84828811326363"><ele>1012.0</ele><time>2026-04-03T13:39:48.935Z</time></trkpt><trkpt lat="45.8435219669614" lon="9.848334352686228"><ele>1010.3333333333333</ele><time>2026-04-03T13:39:49.935Z</time></trkpt><trkpt lat="45.84362263593371" lon="9.848348395121459"><ele>1008.6666666666666</ele><time>2026-04-03T13:39:50.935Z</time></trkpt><trkpt lat="45.84370855545617" lon="9.848331438847922"><ele>1007.0</ele><time>2026-04-03T13:39:52.935Z</time></trkpt><trkpt lat="45.84377567014869" lon="9.84824708257421"><ele>1005.3333333333333</ele><time>2026-04-03T13:39:56.998Z</time></trkpt><trkpt lat="45.843837077865416" lon="9.848281728179492"><ele>1003.6666666666666</ele><time>2026-04-03T13:40:00.997Z</time></trkpt><trkpt lat="45.84385109338052" lon="9.848391713097385"><ele>1002.0</ele><time>2026-04-03T13:40:02.997Z</time></trkpt><trkpt lat="45.84386142826764" lon="9.848489812771287"><ele>999.4000000000001</ele><time>2026-04-03T13:40:03.997Z</time></trkpt><trkpt lat="45.84387147857533" lon="9.84858360499709"><ele>996.8000000000001</ele><time>2026-04-03T13:40:05.997Z</time></trkpt><trkpt lat="45.8439436479374" lon="9.848676607287148"><ele>994.2</ele><time>2026-04-03T13:40:06.997Z</time></trkpt><trkpt lat="45.84403328688475" lon="9.84876523266483"><ele>991.6</ele><time>2026-04-03T13:40:07.997Z</time></trkpt><trkpt lat="45.84412206300935" lon="9.848853456983203"><ele>989.0</ele><time>2026-04-03T13:40:08.997Z</time></trkpt><trkpt lat="45.84420609162043" lon="9.84893766473582"><ele>989.0000000000001</ele><time>2026-04-03T13:40:09.997Z</time></trkpt><trkpt lat="45.84427123374142" lon="9.84900292817825"><ele>989.0</ele><time>2026-04-03T13:40:10.997Z</time></trkpt><trkpt lat="45.844327353568595" lon="9.849074203564166"><ele>989.0</ele><time>2026-04-03T13:40:11.997Z</time></trkpt><trkpt lat="45.84437456897902" lon="9.849134073215925"><ele>989.0</ele><time>2026-04-03T13:40:12.997Z</time></trkpt><trkpt lat="45.844461869254836" lon="9.849265037476979"><ele>989.0000000000001</ele><time>2026-04-03T13:40:14.997Z</time></trkpt><trkpt lat="45.84451409026309" lon="9.849319551244903"><ele>989.0</ele><time>2026-04-03T13:40:15.997Z</time></trkpt><trkpt lat="45.84459573318546" lon="9.849416259126052"><ele>986.8333333333334</ele><time>2026-04-03T13:40:17.996Z</time></trkpt><trkpt lat="45.84467869507687" lon="9.849454675637075"><ele>984.6666666666667</ele><time>2026-04-03T13:40:20.996Z</time></trkpt><trkpt lat="45.84475245186986" lon="9.849492349350438"><ele>982.5</ele><time>2026-04-03T13:40:22.996Z</time></trkpt><trkpt lat="45.844837615032006" lon="9.849394886475965"><ele>980.3333333333333</ele><time>2026-04-03T13:40:24.996Z</time></trkpt><trkpt lat="45.84487914863191" lon="9.849308606777827"><ele>978.1666666666666</ele><time>2026-04-03T13:40:25.996Z</time></trkpt><trkpt lat="45.84492386804377" lon="9.84923130724835"><ele>976.0</ele><time>2026-04-03T13:40:26.996Z</time></trkpt><trkpt lat="45.84496130323757" lon="9.84914662627828"><ele>975.9999999999999</ele><time>2026-04-03T13:40:27.996Z</time></trkpt><trkpt lat="45.8449609469975" lon="9.849041546359732"><ele>976.0</ele><time>2026-04-03T13:40:28.996Z</time></trkpt><trkpt lat="45.84494624886942" lon="9.848907940858494"><ele>976.0</ele><time>2026-04-03T13:40:29.996Z</time></trkpt><trkpt lat="45.844923789157626" lon="9.84879156080178"><ele>976.0</ele><time>2026-04-03T13:40:30.996Z</time></trkpt><trkpt lat="45.84489263773482" lon="9.848653653630906"><ele>975.9999999999999</ele><time>2026-04-03T13:40:31.996Z</time></trkpt><trkpt lat="45.844872393586066" lon="9.848518746098813"><ele>976.0</ele><time>2026-04-03T13:40:32.996Z</time></trkpt><trkpt lat="45.84486802689643" lon="9.84837755604083"><ele>976.5999999999999</ele><time>2026-04-03T13:40:33.996Z</time></trkpt><trkpt lat="45.84487712855596" lon="9.848236070048578"><ele>977.1999999999999</ele><time>2026-04-03T13:40:34.995Z</time></trkpt><trkpt lat="45.84488296537764" lon="9.848100462910072"><ele>977.8000000000001</ele><time>2026-04-03T13:40:35.995Z</time></trkpt><trkpt lat="45.84489311279879" lon="9.847963118797358"><ele>978.4000000000001</ele><time>2026-04-03T13:40:36.995Z</time></trkpt><trkpt lat="45.8448999185451" lon="9.847821184387756"><ele>979.0</ele><time>2026-04-03T13:40:37.995Z</time></trkpt><trkpt lat="45.84491354434948" lon="9.847677913924219"><ele>979.2</ele><time>2026-04-03T13:40:38.995Z</time></trkpt><trkpt lat="45.84492904871792" lon="9.8475232410848"><ele>979.4000000000001</ele><time>2026-04-03T13:40:39.995Z</time></trkpt><trkpt lat="45.84493654296086" lon="9.847372461965358"><ele>979.6</ele><time>2026-04-03T13:40:41.002Z</time></trkpt><trkpt lat="45.844947071937646" lon="9.847222417434669"><ele>979.8</ele><time>2026-04-03T13:40:42.002Z</time></trkpt><trkpt lat="45.84495241746004" lon="9.847071658848364"><ele>980.0</ele><time>2026-04-03T13:40:43.002Z</time></trkpt><trkpt lat="45.84495682059015" lon="9.84691979240483"><ele>980.2</ele><time>2026-04-03T13:40:44.001Z</time></trkpt><trkpt lat="45.84496938668323" lon="9.846774049309234"><ele>980.4</ele><time>2026-04-03T13:40:45.002Z</time></trkpt><trkpt lat="45.84498847624043" lon="9.84662998571946"><ele>980.5999999999999</ele><time>2026-04-03T13:40:46.002Z</time></trkpt><trkpt lat="45.84501054374894" lon="9.846470902577002"><ele>980.8</ele><time>2026-04-03T13:40:47.002Z</time></trkpt><trkpt lat="45.84503085899346" lon="9.846318768482503"><ele>981.0</ele><time>2026-04-03T13:40:48.001Z</time></trkpt><trkpt lat="45.84505166423459" lon="9.846166708611987"><ele>981.0</ele><time>2026-04-03T13:40:49.001Z</time></trkpt><trkpt lat="45.84510174178634" lon="9.846024979270886"><ele>980.9999999999999</ele><time>2026-04-03T13:40:50.002Z</time></trkpt><trkpt lat="45.84512287634999" lon="9.845885307376964"><ele>980.9999999999999</ele><time>2026-04-03T13:40:51.002Z</time></trkpt><trkpt lat="45.84514118603704" lon="9.845764304215004"><ele>981.0</ele><time>2026-04-03T13:40:52.002Z</time></trkpt><trkpt lat="45.84515783333467" lon="9.845630630514492"><ele>981.0</ele><time>2026-04-03T13:40:53.001Z</time></trkpt><trkpt lat="45.845170417858746" lon="9.845451334547551"><ele>977.0</ele><time>2026-04-03T13:40:54.002Z</time></trkpt><trkpt lat="45.8451767935678" lon="9.845272399278512"><ele>973.0</ele><time>2026-04-03T13:40:55.002Z</time></trkpt><trkpt lat="45.84522996157305" lon="9.845095682071527"><ele>969.0</ele><time>2026-04-03T13:40:56.002Z</time></trkpt><trkpt lat="45.84526771975206" lon="9.84493344868934"><ele>965.0</ele><time>2026-04-03T13:40:57.002Z</time></trkpt><trkpt lat="45.84531116386755" lon="9.844760463441807"><ele>963.8</ele><time>2026-04-03T13:40:58.002Z</time></trkpt><trkpt lat="45.84536476593515" lon="9.844605735436998"><ele>962.6</ele><time>2026-04-03T13:40:59.002Z</time></trkpt><trkpt lat="45.84541161383899" lon="9.844498925621073"><ele>961.4000000000001</ele><time>2026-04-03T13:41:00.002Z</time></trkpt><trkpt lat="45.84546701645208" lon="9.844379676432748"><ele>960.2</ele><time>2026-04-03T13:41:01.001Z</time></trkpt><trkpt lat="45.84550697588664" lon="9.84425797161682"><ele>959.0</ele><time>2026-04-03T13:41:02.001Z</time></trkpt><trkpt lat="45.84552519667734" lon="9.844116686115184"><ele>958.5</ele><time>2026-04-03T13:41:03.001Z</time></trkpt><trkpt lat="45.84554084740761" lon="9.84394182903325"><ele>958.0</ele><time>2026-04-03T13:41:04.001Z</time></trkpt><trkpt lat="45.845544641891834" lon="9.843770676672948"><ele>957.5</ele><time>2026-04-03T13:41:05.001Z</time></trkpt><trkpt lat="45.84549540304285" lon="9.843575945934697"><ele>957.0</ele><time>2026-04-03T13:41:06.001Z</time></trkpt><trkpt lat="45.845486983278384" lon="9.843456938699582"><ele>958.8</ele><time>2026-04-03T13:41:07.001Z</time></trkpt><trkpt lat="45.84553302080487" lon="9.843358454027477"><ele>960.6</ele><time>2026-04-03T13:41:08.001Z</time></trkpt><trkpt lat="45.845619675387695" lon="9.843305187731108"><ele>962.3999999999999</ele><time>2026-04-03T13:41:09.001Z</time></trkpt><trkpt lat="45.845724393919696" lon="9.843257687273374"><ele>964.1999999999999</ele><time>2026-04-03T13:41:10.001Z</time></trkpt><trkpt lat="45.84581745250333" lon="9.843210192442909"><ele>966.0</ele><time>2026-04-03T13:41:11.001Z</time></trkpt><trkpt lat="45.84589727799979" lon="9.843149940966493"><ele>966.0</ele><time>2026-04-03T13:41:12.001Z</time></trkpt><trkpt lat="45.84596026139389" lon="9.843095017890004"><ele>966.0</ele><time>2026-04-03T13:41:13.001Z</time></trkpt><trkpt lat="45.846011783008585" lon="9.843020526789267"><ele>966.0</ele><time>2026-04-03T13:41:14.001Z</time></trkpt><trkpt lat="45.8460647273969" lon="9.8429225374563"><ele>966.0</ele><time>2026-04-03T13:41:15.001Z</time></trkpt><trkpt lat="45.84611469815146" lon="9.84279710800227"><ele>966.0</ele><time>2026-04-03T13:41:16.001Z</time></trkpt><trkpt lat="45.84617200025607" lon="9.842697480259023"><ele>966.0</ele><time>2026-04-03T13:41:17.001Z</time></trkpt><trkpt lat="45.84622183352408" lon="9.842590880356234"><ele>965.4</ele><time>2026-04-03T13:41:18.001Z</time></trkpt><trkpt lat="45.84626980700499" lon="9.842489940670925"><ele>964.8</ele><time>2026-04-03T13:41:19.001Z</time></trkpt><trkpt lat="45.84631257830008" lon="9.842387035268603"><ele>964.1999999999999</ele><time>2026-04-03T13:41:20Z</time></trkpt><trkpt lat="45.84635608669931" lon="9.842266251414797"><ele>963.5999999999999</ele><time>2026-04-03T13:41:21Z</time></trkpt><trkpt lat="45.84639125887201" lon="9.842134591295641"><ele>963.0</ele><time>2026-04-03T13:41:22Z</time></trkpt><trkpt lat="45.84642902152759" lon="9.84200106152756"><ele>963.0</ele><time>2026-04-03T13:41:23Z</time></trkpt><trkpt lat="45.84647135337144" lon="9.841872908277029"><ele>963.0</ele><time>2026-04-03T13:41:24Z</time></trkpt><trkpt lat="45.846502109766796" lon="9.841756910383404"><ele>963.0</ele><time>2026-04-03T13:41:25Z</time></trkpt><trkpt lat="45.84655483343777" lon="9.841627986024035"><ele>963.0</ele><time>2026-04-03T13:41:26Z</time></trkpt><trkpt lat="45.84658364063817" lon="9.841473673117099"><ele>963.0</ele><time>2026-04-03T13:41:27Z</time></trkpt><trkpt lat="45.84657559584447" lon="9.841298808773645"><ele>962.2</ele><time>2026-04-03T13:41:28Z</time></trkpt><trkpt lat="45.84655858856194" lon="9.841143089946911"><ele>961.4</ele><time>2026-04-03T13:41:29Z</time></trkpt><trkpt lat="45.846554414966235" lon="9.840993409475502"><ele>960.6000000000001</ele><time>2026-04-03T13:41:30Z</time></trkpt><trkpt lat="45.846579871142346" lon="9.840851505900865"><ele>959.8000000000001</ele><time>2026-04-03T13:41:31Z</time></trkpt><trkpt lat="45.84661362118905" lon="9.84071112104228"><ele>959.0</ele><time>2026-04-03T13:41:32Z</time></trkpt><trkpt lat="45.84664484894275" lon="9.840580296098599"><ele>959.0000000000001</ele><time>2026-04-03T13:41:33Z</time></trkpt><trkpt lat="45.84667321116142" lon="9.840461475971539"><ele>959.0</ele><time>2026-04-03T13:41:34Z</time></trkpt><trkpt lat="45.84669724932815" lon="9.840360770945471"><ele>959.0</ele><time>2026-04-03T13:41:35Z</time></trkpt><trkpt lat="45.84671864735844" lon="9.840266491835765"><ele>959.0</ele><time>2026-04-03T13:41:36Z</time></trkpt><trkpt lat="45.846734218970134" lon="9.840127115626544"><ele>959.0000000000001</ele><time>2026-04-03T13:41:37.999Z</time></trkpt><trkpt lat="45.84678755093617" lon="9.840045276973845"><ele>959.0</ele><time>2026-04-03T13:41:40.999Z</time></trkpt><trkpt lat="45.84687372368218" lon="9.840026517241421"><ele>955.0</ele><time>2026-04-03T13:41:42.999Z</time></trkpt><trkpt lat="45.84696136937543" lon="9.839974287045663"><ele>951.0000000000001</ele><time>2026-04-03T13:41:43.999Z</time></trkpt><trkpt lat="45.84707502989286" lon="9.83988967865378"><ele>947.0000000000001</ele><time>2026-04-03T13:41:44.999Z</time></trkpt><trkpt lat="45.84716679754103" lon="9.839813154711642"><ele>943.0</ele><time>2026-04-03T13:41:45.999Z</time></trkpt><trkpt lat="45.847231563539204" lon="9.839757274233705"><ele>939.0</ele><time>2026-04-03T13:41:46.999Z</time></trkpt><trkpt lat="45.84727977374194" lon="9.839646285347321"><ele>939.0</ele><time>2026-04-03T13:41:47.999Z</time></trkpt><trkpt lat="45.84730134548469" lon="9.839510838984362"><ele>939.0</ele><time>2026-04-03T13:41:48.999Z</time></trkpt><trkpt lat="45.84731636990061" lon="9.839391849793913"><ele>939.0</ele><time>2026-04-03T13:41:49.999Z</time></trkpt><trkpt lat="45.84738418951866" lon="9.83932698990255"><ele>939.0</ele><time>2026-04-03T13:41:50.999Z</time></trkpt><trkpt lat="45.84748011845067" lon="9.839295173633946"><ele>939.0</ele><time>2026-04-03T13:41:51.999Z</time></trkpt><trkpt lat="45.84756105297868" lon="9.839260829721896"><ele>939.0</ele><time>2026-04-03T13:41:52.999Z</time></trkpt><trkpt lat="45.84766182287937" lon="9.8391748945679"><ele>935.6666666666666</ele><time>2026-04-03T13:41:54.999Z</time></trkpt><trkpt lat="45.847730052645566" lon="9.839113573183155"><ele>932.3333333333333</ele><time>2026-04-03T13:41:55.999Z</time></trkpt><trkpt lat="45.84780767457109" lon="9.839045222552167"><ele>929.0</ele><time>2026-04-03T13:41:56.998Z</time></trkpt><trkpt lat="45.84788300072103" lon="9.838978893485159"><ele>925.6666666666666</ele><time>2026-04-03T13:41:57.998Z</time></trkpt><trkpt lat="45.84794789033083" lon="9.838922116751009"><ele>922.3333333333333</ele><time>2026-04-03T13:41:58.998Z</time></trkpt><trkpt lat="45.84802693313478" lon="9.838850911939248"><ele>919.0</ele><time>2026-04-03T13:42:00.998Z</time></trkpt><trkpt lat="45.848110687830115" lon="9.838895200878888"><ele>919.0</ele><time>2026-04-03T13:42:01.998Z</time></trkpt><trkpt lat="45.84818209690576" lon="9.8388473440558"><ele>919.0000000000001</ele><time>2026-04-03T13:42:03.998Z</time></trkpt><trkpt lat="45.848244058676585" lon="9.838802124786783"><ele>919.0000000000001</ele><time>2026-04-03T13:42:04.998Z</time></trkpt><trkpt lat="45.84835735426528" lon="9.838772719859675"><ele>919.0</ele><time>2026-04-03T13:42:06.998Z</time></trkpt><trkpt lat="45.84844618646706" lon="9.838783150475368"><ele>919.0</ele><time>2026-04-03T13:42:08.998Z</time></trkpt><trkpt lat="45.848565026478056" lon="9.83874748139614"><ele>912.3333333333333</ele><time>2026-04-03T13:42:10.998Z</time></trkpt><trkpt lat="45.84865911058223" lon="9.838729246244652"><ele>905.6666666666666</ele><time>2026-04-03T13:42:12.998Z</time></trkpt><trkpt lat="45.84875206473156" lon="9.838715338522196"><ele>899.0</ele><time>2026-04-03T13:42:15.997Z</time></trkpt><trkpt lat="45.84881561819087" lon="9.838697633207794"><ele>892.3333333333333</ele><time>2026-04-03T13:42:17.997Z</time></trkpt><trkpt lat="45.848880238059735" lon="9.8386574134751"><ele>885.6666666666666</ele><time>2026-04-03T13:42:19.997Z</time></trkpt><trkpt lat="45.848945085445884" lon="9.838664802668161"><ele>879.0</ele><time>2026-04-03T13:42:22.997Z</time></trkpt><trkpt lat="45.849023554070726" lon="9.838630730302253"><ele>879.0</ele><time>2026-04-03T13:42:26.997Z</time></trkpt><trkpt lat="45.84908343261257" lon="9.838679988147993"><ele>879.0</ele><time>2026-04-03T13:42:29.997Z</time></trkpt><trkpt lat="45.84914968392285" lon="9.838716602068866"><ele>879.0</ele><time>2026-04-03T13:42:31.997Z</time></trkpt><trkpt lat="45.84921312981441" lon="9.838756090369756"><ele>879.0</ele><time>2026-04-03T13:42:33.996Z</time></trkpt><trkpt lat="45.84928539918017" lon="9.838728545054815"><ele>879.0</ele><time>2026-04-03T13:42:36.996Z</time></trkpt><trkpt lat="45.849377079923165" lon="9.838720308457402"><ele>879.0</ele><time>2026-04-03T13:42:39.996Z</time></trkpt><trkpt lat="45.849452816180644" lon="9.838725233330843"><ele>874.6666666666666</ele><time>2026-04-03T13:42:41.996Z</time></trkpt><trkpt lat="45.8495301016571" lon="9.838687244286286"><ele>870.3333333333333</ele><time>2026-04-03T13:42:43.996Z</time></trkpt><trkpt lat="45.84959630495305" lon="9.838646005671448"><ele>866.0</ele><time>2026-04-03T13:42:45.996Z</time></trkpt><trkpt lat="45.849690193992565" lon="9.838625461252942"><ele>861.6666666666666</ele><time>2026-04-03T13:42:48.001Z</time></trkpt><trkpt lat="45.849775152438916" lon="9.83865632257961"><ele>857.3333333333333</ele><time>2026-04-03T13:42:50.002Z</time></trkpt><trkpt lat="45.84985195222969" lon="9.83865813101391"><ele>853.0</ele><time>2026-04-03T13:42:52.002Z</time></trkpt><trkpt lat="45.84995571899033" lon="9.838664066114022"><ele>852.9999999999999</ele><time>2026-04-03T13:42:54.001Z</time></trkpt><trkpt lat="45.85006644313886" lon="9.83864458160249"><ele>853.0</ele><time>2026-04-03T13:42:56.002Z</time></trkpt><trkpt lat="45.85016600435946" lon="9.838599828521224"><ele>853.0</ele><time>2026-04-03T13:42:58.001Z</time></trkpt><trkpt lat="45.850231662333826" lon="9.838593524817217"><ele>853.0</ele><time>2026-04-03T13:42:59.001Z</time></trkpt><trkpt lat="45.8503017558158" lon="9.83857347889212"><ele>852.9999999999999</ele><time>2026-04-03T13:43:01.001Z</time></trkpt><trkpt lat="45.850351066034975" lon="9.838631238340968"><ele>853.0</ele><time>2026-04-03T13:43:03.001Z</time></trkpt><trkpt lat="45.850420574671624" lon="9.838667330052829"><ele>847.5</ele><time>2026-04-03T13:43:05.001Z</time></trkpt><trkpt lat="45.85052561750395" lon="9.83870831217581"><ele>842.0</ele><time>2026-04-03T13:43:07.001Z</time></trkpt><trkpt lat="45.85061958970982" lon="9.838743860999545"><ele>836.5</ele><time>2026-04-03T13:43:09.001Z</time></trkpt><trkpt lat="45.850726504467794" lon="9.838739207618765"><ele>831.0</ele><time>2026-04-03T13:43:11.001Z</time></trkpt><trkpt lat="45.85092877800124" lon="9.838786521851658"><ele>823.6666666666667</ele><time>2026-04-03T13:43:13.001Z</time></trkpt><trkpt lat="45.851052087201445" lon="9.838775455555217"><ele>816.3333333333334</ele><time>2026-04-03T13:43:14.001Z</time></trkpt><trkpt lat="45.851243975294274" lon="9.838762194850666"><ele>809.0</ele><time>2026-04-03T13:43:16.001Z</time></trkpt><trkpt lat="45.85142148783957" lon="9.838795245405835"><ele>809.0</ele><time>2026-04-03T13:43:18.001Z</time></trkpt><trkpt lat="45.85150989817364" lon="9.838828963978695"><ele>809.0</ele><time>2026-04-03T13:43:19Z</time></trkpt><trkpt lat="45.85160024109112" lon="9.838882569659807"><ele>809.0</ele><time>2026-04-03T13:43:20Z</time></trkpt><trkpt lat="45.851694492359634" lon="9.838927509493866"><ele>809.0</ele><time>2026-04-03T13:43:21Z</time></trkpt><trkpt lat="45.851796699681294" lon="9.83894332017199"><ele>809.0</ele><time>2026-04-03T13:43:22Z</time></trkpt><trkpt lat="45.85189310366477" lon="9.838945743771475"><ele>805.75</ele><time>2026-04-03T13:43:23Z</time></trkpt><trkpt lat="45.852011423212595" lon="9.838921819030755"><ele>802.5</ele><time>2026-04-03T13:43:24Z</time></trkpt><trkpt lat="45.85212031204294" lon="9.838897409310896"><ele>799.25</ele><time>2026-04-03T13:43:25Z</time></trkpt><trkpt lat="45.85222240890066" lon="9.838872798749096"><ele>796.0</ele><time>2026-04-03T13:43:26Z</time></trkpt><trkpt lat="45.85238353812603" lon="9.838899373509266"><ele>795.9999999999999</ele><time>2026-04-03T13:43:28Z</time></trkpt><trkpt lat="45.85246193325447" lon="9.83891160886204"><ele>796.0</ele><time>2026-04-03T13:43:29Z</time></trkpt><trkpt lat="45.85253349636284" lon="9.838950517858532"><ele>796.0</ele><time>2026-04-03T13:43:30Z</time></trkpt><trkpt lat="45.852597230326715" lon="9.839038889889888"><ele>796.0</ele><time>2026-04-03T13:43:32Z</time></trkpt><trkpt lat="45.85257651869409" lon="9.839201772326579"><ele>795.9999999999999</ele><time>2026-04-03T13:43:34Z</time></trkpt><trkpt lat="45.85256509299718" lon="9.839319312206085"><ele>796.0</ele><time>2026-04-03T13:43:35Z</time></trkpt><trkpt lat="45.852561827671956" lon="9.839451683886663"><ele>791.5999999999999</ele><time>2026-04-03T13:43:36Z</time></trkpt><trkpt lat="45.85256393544131" lon="9.839562706750971"><ele>787.2</ele><time>2026-04-03T13:43:37Z</time></trkpt><trkpt lat="45.852533152469725" lon="9.83967515586233"><ele>782.8</ele><time>2026-04-03T13:43:38.999Z</time></trkpt><trkpt lat="45.85242992489547" lon="9.839689834171924"><ele>778.4000000000001</ele><time>2026-04-03T13:43:40.999Z</time></trkpt><trkpt lat="45.8523458582875" lon="9.83970296697941"><ele>774.0</ele><time>2026-04-03T13:43:41.999Z</time></trkpt><trkpt lat="45.85223729796049" lon="9.839713916658866"><ele>774.0</ele><time>2026-04-03T13:43:42.999Z</time></trkpt><trkpt lat="45.852140363938325" lon="9.839690469925538"><ele>774.0</ele><time>2026-04-03T13:43:43.999Z</time></trkpt><trkpt lat="45.85205025491406" lon="9.839665974289455"><ele>774.0</ele><time>2026-04-03T13:43:44.999Z</time></trkpt><trkpt lat="45.85194173043672" lon="9.839661599917484"><ele>774.0</ele><time>2026-04-03T13:43:45.999Z</time></trkpt><trkpt lat="45.85183736697603" lon="9.839695537453759"><ele>774.0</ele><time>2026-04-03T13:43:46.999Z</time></trkpt><trkpt lat="45.8517537209883" lon="9.839772164017756"><ele>772.2</ele><time>2026-04-03T13:43:47.999Z</time></trkpt><trkpt lat="45.851664072146946" lon="9.839868847920078"><ele>770.4000000000001</ele><time>2026-04-03T13:43:48.999Z</time></trkpt><trkpt lat="45.8515819550475" lon="9.839956301193547"><ele>768.6</ele><time>2026-04-03T13:43:49.999Z</time></trkpt><trkpt lat="45.851527252484004" lon="9.840058763880352"><ele>766.8</ele><time>2026-04-03T13:43:50.999Z</time></trkpt><trkpt lat="45.851491636384154" lon="9.84015128375652"><ele>765.0</ele><time>2026-04-03T13:43:51.999Z</time></trkpt><trkpt lat="45.851453493496926" lon="9.840253274276632"><ele>765.0</ele><time>2026-04-03T13:43:52.999Z</time></trkpt><trkpt lat="45.85137253017568" lon="9.840343308125382"><ele>765.0</ele><time>2026-04-03T13:43:54.999Z</time></trkpt><trkpt lat="45.8514421397585" lon="9.84039473919685"><ele>765.0</ele><time>2026-04-03T13:43:58.998Z</time></trkpt><trkpt lat="45.851524048732344" lon="9.84037902639624"><ele>765.0</ele><time>2026-04-03T13:43:59.998Z</time></trkpt><trkpt lat="45.851593039504785" lon="9.840340711269036"><ele>765.0</ele><time>2026-04-03T13:44:00.998Z</time></trkpt><trkpt lat="45.85164744515937" lon="9.840286335042665"><ele>765.0</ele><time>2026-04-03T13:44:01.998Z</time></trkpt><trkpt lat="45.85166965074355" lon="9.840198011727642"><ele>765.0</ele><time>2026-04-03T13:44:02.998Z</time></trkpt><trkpt lat="45.85172087421565" lon="9.84011562984812"><ele>765.0</ele><time>2026-04-03T13:44:04.998Z</time></trkpt><trkpt lat="45.85175797424409" lon="9.84021320059283"><ele>765.0</ele><time>2026-04-03T13:44:06.998Z</time></trkpt><trkpt lat="45.85173817471839" lon="9.840309139920883"><ele>765.0</ele><time>2026-04-03T13:44:07.998Z</time></trkpt><trkpt lat="45.85174052697332" lon="9.840515095615535"><ele>765.0</ele><time>2026-04-03T13:44:08.998Z</time></trkpt><trkpt lat="45.851735852406094" lon="9.840721234602386"><ele>765.0</ele><time>2026-04-03T13:44:09.998Z</time></trkpt><trkpt lat="45.85174559415651" lon="9.840945919934642"><ele>765.0</ele><time>2026-04-03T13:44:10.998Z</time></trkpt><trkpt lat="45.85174205145001" lon="9.841136744504496"><ele>765.0</ele><time>2026-04-03T13:44:11.998Z</time></trkpt><trkpt lat="45.8517551602245" lon="9.841286717086847"><ele>765.0</ele><time>2026-04-03T13:44:12.998Z</time></trkpt><trkpt lat="45.85176264735065" lon="9.841401212372453"><ele>762.4</ele><time>2026-04-03T13:44:13.998Z</time></trkpt><trkpt lat="45.85174467663288" lon="9.84151167263243"><ele>759.8</ele><time>2026-04-03T13:44:14.997Z</time></trkpt><trkpt lat="45.85170106184949" lon="9.841645250722186"><ele>757.2</ele><time>2026-04-03T13:44:16.997Z</time></trkpt><trkpt lat="45.851758253544055" lon="9.841722088655034"><ele>754.6</ele><time>2026-04-03T13:44:20.997Z</time></trkpt><trkpt lat="45.85187218964361" lon="9.841676240304954"><ele>752.0</ele><time>2026-04-03T13:44:22.997Z</time></trkpt><trkpt lat="45.85195470614702" lon="9.84159589694293"><ele>746.8</ele><time>2026-04-03T13:44:23.997Z</time></trkpt><trkpt lat="45.852061726053805" lon="9.841543947583652"><ele>741.6</ele><time>2026-04-03T13:44:25.997Z</time></trkpt><trkpt lat="45.852153236876234" lon="9.841504722417765"><ele>736.4</ele><time>2026-04-03T13:44:28.997Z</time></trkpt><trkpt lat="45.852173879356855" lon="9.841627869847386"><ele>731.1999999999999</ele><time>2026-04-03T13:44:30.997Z</time></trkpt><trkpt lat="45.85215575732191" lon="9.84176156306817"><ele>726.0</ele><time>2026-04-03T13:44:32.996Z</time></trkpt><trkpt lat="45.85214607328943" lon="9.841920450023947"><ele>723.1999999999999</ele><time>2026-04-03T13:44:34.996Z</time></trkpt><trkpt lat="45.8520764614493" lon="9.84201805744686"><ele>720.4</ele><time>2026-04-03T13:44:36.996Z</time></trkpt><trkpt lat="45.85202601485268" lon="9.842112135520212"><ele>717.6</ele><time>2026-04-03T13:44:39.996Z</time></trkpt><trkpt lat="45.85199459747848" lon="9.84220021063461"><ele>714.8</ele><time>2026-04-03T13:44:43.996Z</time></trkpt><trkpt lat="45.85204021369854" lon="9.842275588073477"><ele>712.0</ele><time>2026-04-03T13:44:46.996Z</time></trkpt><trkpt lat="45.85224529463692" lon="9.842440210427995"><ele>712.0</ele><time>2026-04-03T13:44:53.002Z</time></trkpt><trkpt lat="45.85229768692742" lon="9.842510809337918"><ele>712.0</ele><time>2026-04-03T13:44:55.002Z</time></trkpt><trkpt lat="45.85238300915392" lon="9.842618242619123"><ele>712.0</ele><time>2026-04-03T13:44:57.002Z</time></trkpt><trkpt lat="45.85246011173901" lon="9.842703937507851"><ele>712.0</ele><time>2026-04-03T13:44:58.001Z</time></trkpt><trkpt lat="45.85253208220536" lon="9.842779515384855"><ele>712.0</ele><time>2026-04-03T13:44:59.002Z</time></trkpt><trkpt lat="45.852591109695496" lon="9.842838996613414"><ele>712.0</ele><time>2026-04-03T13:45:00.002Z</time></trkpt><trkpt lat="45.852674583316336" lon="9.842936999285493"><ele>704.4000000000001</ele><time>2026-04-03T13:45:02.001Z</time></trkpt><trkpt lat="45.85280780051667" lon="9.84303513360406"><ele>696.8000000000001</ele><time>2026-04-03T13:45:05.002Z</time></trkpt><trkpt lat="45.852885593324096" lon="9.843071639476689"><ele>689.2</ele><time>2026-04-03T13:45:08.001Z</time></trkpt><trkpt lat="45.85299255923717" lon="9.843105303153656"><ele>681.6</ele><time>2026-04-03T13:45:10.001Z</time></trkpt><trkpt lat="45.85305907568855" lon="9.843213783283081"><ele>674.0</ele><time>2026-04-03T13:45:13.001Z</time></trkpt><trkpt lat="45.85311849484973" lon="9.843280439077825"><ele>674.0</ele><time>2026-04-03T13:45:15.001Z</time></trkpt><trkpt lat="45.85317821306046" lon="9.843323181174474"><ele>674.0</ele><time>2026-04-03T13:45:16.001Z</time></trkpt><trkpt lat="45.8532736977755" lon="9.843363450496128"><ele>674.0</ele><time>2026-04-03T13:45:17.001Z</time></trkpt><trkpt lat="45.8533240301383" lon="9.843426284812866"><ele>674.0</ele><time>2026-04-03T13:45:18.001Z</time></trkpt><trkpt lat="45.85344071301051" lon="9.843505017555426"><ele>674.0</ele><time>2026-04-03T13:45:20.001Z</time></trkpt><trkpt lat="45.853508773135445" lon="9.84356758522683"><ele>674.0</ele><time>2026-04-03T13:45:21.001Z</time></trkpt><trkpt lat="45.85356931870356" lon="9.843606886597536"><ele>670.0</ele><time>2026-04-03T13:45:22.001Z</time></trkpt><trkpt lat="45.85362398338874" lon="9.84367658503778"><ele>666.0</ele><time>2026-04-03T13:45:23Z</time></trkpt><trkpt lat="45.853698099225284" lon="9.843762319129803"><ele>662.0</ele><time>2026-04-03T13:45:24Z</time></trkpt><trkpt lat="45.85376692786616" lon="9.843837007457905"><ele>658.0</ele><time>2026-04-03T13:45:25Z</time></trkpt><trkpt lat="45.85385219287944" lon="9.843887788386866"><ele>654.0</ele><time>2026-04-03T13:45:26Z</time></trkpt><trkpt lat="45.853918646039666" lon="9.843925530321695"><ele>650.0</ele><time>2026-04-03T13:45:27Z</time></trkpt><trkpt lat="45.85403092674131" lon="9.84400770385471"><ele>650.0</ele><time>2026-04-03T13:45:29Z</time></trkpt><trkpt lat="45.85413224590266" lon="9.844121158094694"><ele>650.0</ele><time>2026-04-03T13:45:31Z</time></trkpt><trkpt lat="45.85420419723599" lon="9.844195288309587"><ele>650.0</ele><time>2026-04-03T13:45:32Z</time></trkpt><trkpt lat="45.85428358276281" lon="9.84423851034231"><ele>650.0</ele><time>2026-04-03T13:45:33Z</time></trkpt><trkpt lat="45.85436731021601" lon="9.844309644239265"><ele>650.0</ele><time>2026-04-03T13:45:34Z</time></trkpt><trkpt lat="45.85445296876398" lon="9.84435197990025"><ele>649.0</ele><time>2026-04-03T13:45:35Z</time></trkpt><trkpt lat="45.854688798927626" lon="9.84437001947093"><ele>648.0</ele><time>2026-04-03T13:45:38Z</time></trkpt><trkpt lat="45.85478813456441" lon="9.84437332679994"><ele>647.0</ele><time>2026-04-03T13:45:40Z</time></trkpt><trkpt lat="45.85492325837354" lon="9.844361585256097"><ele>641.75</ele><time>2026-04-03T13:45:41.999Z</time></trkpt><trkpt lat="45.855132371164274" lon="9.844325157620482"><ele>636.5</ele><time>2026-04-03T13:45:43.999Z</time></trkpt><trkpt lat="45.855228425609766" lon="9.844303093157377"><ele>631.25</ele><time>2026-04-03T13:45:44.999Z</time></trkpt><trkpt lat="45.855320372133185" lon="9.844296963177772"><ele>626.0</ele><time>2026-04-03T13:45:45.999Z</time></trkpt><trkpt lat="45.85538766897582" lon="9.844304115295618"><ele>623.0</ele><time>2026-04-03T13:45:46.999Z</time></trkpt><trkpt lat="45.85549150988729" lon="9.844261411617993"><ele>620.0</ele><time>2026-04-03T13:45:48.999Z</time></trkpt><trkpt lat="45.85553118778979" lon="9.844179598043329"><ele>617.0</ele><time>2026-04-03T13:45:49.999Z</time></trkpt><trkpt lat="45.855609953801824" lon="9.843958819443941"><ele>614.0</ele><time>2026-04-03T13:45:51.999Z</time></trkpt><trkpt lat="45.85568108930064" lon="9.843840609837624"><ele>614.0</ele><time>2026-04-03T13:45:52.999Z</time></trkpt><trkpt lat="45.85573157863922" lon="9.843744433829984"><ele>614.0</ele><time>2026-04-03T13:45:53.999Z</time></trkpt><trkpt lat="45.85577889678202" lon="9.843657023654297"><ele>614.0</ele><time>2026-04-03T13:45:54.999Z</time></trkpt><trkpt lat="45.85583313388339" lon="9.843559717458431"><ele>614.0</ele><time>2026-04-03T13:45:55.999Z</time></trkpt><trkpt lat="45.85587189424252" lon="9.843468237064172"><ele>614.0</ele><time>2026-04-03T13:45:56.999Z</time></trkpt><trkpt lat="45.855911916928385" lon="9.843319440655648"><ele>614.0</ele><time>2026-04-03T13:45:58.999Z</time></trkpt><trkpt lat="45.85597451645069" lon="9.843140484849792"><ele>608.8</ele><time>2026-04-03T13:46:00.998Z</time></trkpt><trkpt lat="45.8560409621453" lon="9.843054291975667"><ele>603.5999999999999</ele><time>2026-04-03T13:46:01.998Z</time></trkpt><trkpt lat="45.856145516994026" lon="9.842998896124811"><ele>598.4</ele><time>2026-04-03T13:46:02.998Z</time></trkpt><trkpt lat="45.856264419852444" lon="9.842946848733654"><ele>593.1999999999999</ele><time>2026-04-03T13:46:03.998Z</time></trkpt><trkpt lat="45.85638153263271" lon="9.842892269208773"><ele>588.0</ele><time>2026-04-03T13:46:04.998Z</time></trkpt><trkpt lat="45.85648345255636" lon="9.84284617674621"><ele>588.0</ele><time>2026-04-03T13:46:05.998Z</time></trkpt><trkpt lat="45.85657030371491" lon="9.842856958790616"><ele>588.0</ele><time>2026-04-03T13:46:06.998Z</time></trkpt><trkpt lat="45.85664707270739" lon="9.842920637624886"><ele>588.0</ele><time>2026-04-03T13:46:07.998Z</time></trkpt><trkpt lat="45.85671526796002" lon="9.842993287715379"><ele>588.0</ele><time>2026-04-03T13:46:08.998Z</time></trkpt><trkpt lat="45.85678632828122" lon="9.843052870788773"><ele>588.0</ele><time>2026-04-03T13:46:09.998Z</time></trkpt><trkpt lat="45.85684606105124" lon="9.84299643230992"><ele>588.0</ele><time>2026-04-03T13:46:10.998Z</time></trkpt><trkpt lat="45.856922676721354" lon="9.842901115973813"><ele>585.4</ele><time>2026-04-03T13:46:11.998Z</time></trkpt><trkpt lat="45.85699471527953" lon="9.842805478520287"><ele>582.8</ele><time>2026-04-03T13:46:12.998Z</time></trkpt><trkpt lat="45.85706326862818" lon="9.842725248911899"><ele>580.2</ele><time>2026-04-03T13:46:13.998Z</time></trkpt><trkpt lat="45.85713679854481" lon="9.842636525419003"><ele>577.6</ele><time>2026-04-03T13:46:14.998Z</time></trkpt><trkpt lat="45.85720130970375" lon="9.842549434484724"><ele>575.0</ele><time>2026-04-03T13:46:15.998Z</time></trkpt><trkpt lat="45.85727368154415" lon="9.84246065918593"><ele>574.2</ele><time>2026-04-03T13:46:16.998Z</time></trkpt><trkpt lat="45.85734846056839" lon="9.842372334993435"><ele>573.4</ele><time>2026-04-03T13:46:17.998Z</time></trkpt><trkpt lat="45.857421545717784" lon="9.842283769976351"><ele>572.6</ele><time>2026-04-03T13:46:18.997Z</time></trkpt><trkpt lat="45.85748936142143" lon="9.842183119193837"><ele>571.8</ele><time>2026-04-03T13:46:19.997Z</time></trkpt><trkpt lat="45.857551404419695" lon="9.84207989832298"><ele>571.0</ele><time>2026-04-03T13:46:20.997Z</time></trkpt><trkpt lat="45.85760928279244" lon="9.841977311884461"><ele>567.2857142857143</ele><time>2026-04-03T13:46:21.997Z</time></trkpt><trkpt lat="45.857655821800165" lon="9.841876284300655"><ele>563.5714285714286</ele><time>2026-04-03T13:46:22.997Z</time></trkpt><trkpt lat="45.857688606627406" lon="9.841763973426508"><ele>559.8571428571429</ele><time>2026-04-03T13:46:23.997Z</time></trkpt><trkpt lat="45.857692309501836" lon="9.841673073269153"><ele>556.1428571428571</ele><time>2026-04-03T13:46:24.997Z</time></trkpt><trkpt lat="45.85768103689318" lon="9.841579780290502"><ele>552.4285714285714</ele><time>2026-04-03T13:46:25.997Z</time></trkpt><trkpt lat="45.8576514601026" lon="9.84148595657949"><ele>548.7142857142858</ele><time>2026-04-03T13:46:26.997Z</time></trkpt><trkpt lat="45.85763946461103" lon="9.841394742988314"><ele>545.0</ele><time>2026-04-03T13:46:27.997Z</time></trkpt><trkpt lat="45.85767332337437" lon="9.841246120215148"><ele>544.5</ele><time>2026-04-03T13:46:29.997Z</time></trkpt><trkpt lat="45.857773258827315" lon="9.841158692877357"><ele>544.0</ele><time>2026-04-03T13:46:31.997Z</time></trkpt><trkpt lat="45.85784202961344" lon="9.841113242498087"><ele>543.5</ele><time>2026-04-03T13:46:32.997Z</time></trkpt><trkpt lat="45.8578954336516" lon="9.841056379478605"><ele>543.0</ele><time>2026-04-03T13:46:33.997Z</time></trkpt><trkpt lat="45.85793338872645" lon="9.84098420561403"><ele>542.5</ele><time>2026-04-03T13:46:34.997Z</time></trkpt><trkpt lat="45.85796099054853" lon="9.84085155298998"><ele>542.0</ele><time>2026-04-03T13:46:36.996Z</time></trkpt><trkpt lat="45.85794656122072" lon="9.840688230088418"><ele>541.6</ele><time>2026-04-03T13:46:38.996Z</time></trkpt><trkpt lat="45.85792626853449" lon="9.840540617211804"><ele>541.2</ele><time>2026-04-03T13:46:40.996Z</time></trkpt><trkpt lat="45.857941414906044" lon="9.840390175413406"><ele>540.8</ele><time>2026-04-03T13:46:42.996Z</time></trkpt><trkpt lat="45.85795006349794" lon="9.840210276103733"><ele>540.4</ele><time>2026-04-03T13:46:44.996Z</time></trkpt><trkpt lat="45.857980555648766" lon="9.840060769162205"><ele>540.0</ele><time>2026-04-03T13:46:46.996Z</time></trkpt><trkpt lat="45.85799811855621" lon="9.83991069950355"><ele>540.0</ele><time>2026-04-03T13:46:48.996Z</time></trkpt><trkpt lat="45.8579689897582" lon="9.839819833206224"><ele>540.0</ele><time>2026-04-03T13:46:49.996Z</time></trkpt><trkpt lat="45.8579049686218" lon="9.839710113898036"><ele>540.0</ele><time>2026-04-03T13:46:50.996Z</time></trkpt><trkpt lat="45.85786614368125" lon="9.839631022841427"><ele>540.0</ele><time>2026-04-03T13:46:51.996Z</time></trkpt><trkpt lat="45.85792964693827" lon="9.839509718128738"><ele>540.0</ele><time>2026-04-03T13:46:53.996Z</time></trkpt><trkpt lat="45.85796927240824" lon="9.839418222075617"><ele>540.0</ele><time>2026-04-03T13:46:54.996Z</time></trkpt><trkpt lat="45.857958513492946" lon="9.839282412551691"><ele>542.0</ele><time>2026-04-03T13:46:55.995Z</time></trkpt><trkpt lat="45.85788052456978" lon="9.839146023259557"><ele>544.0</ele><time>2026-04-03T13:46:56.995Z</time></trkpt><trkpt lat="45.85778034393999" lon="9.83903864973541"><ele>546.0</ele><time>2026-04-03T13:46:57.995Z</time></trkpt><trkpt lat="45.8577342600619" lon="9.838950797633933"><ele>548.0</ele><time>2026-04-03T13:46:59.002Z</time></trkpt><trkpt lat="45.857758221820745" lon="9.83886293011886"><ele>550.0</ele><time>2026-04-03T13:47:00.002Z</time></trkpt><trkpt lat="45.857897226505585" lon="9.838857778012086"><ele>550.0</ele><time>2026-04-03T13:47:02.002Z</time></trkpt><trkpt lat="45.85798448898344" lon="9.838940148406923"><ele>550.0</ele><time>2026-04-03T13:47:03.002Z</time></trkpt><trkpt lat="45.85807684844661" lon="9.83902030843197"><ele>550.0</ele><time>2026-04-03T13:47:04.002Z</time></trkpt><trkpt lat="45.85814254903901" lon="9.839092330083727"><ele>550.0</ele><time>2026-04-03T13:47:05.002Z</time></trkpt><trkpt lat="45.858265189039706" lon="9.839091311254657"><ele>550.0</ele><time>2026-04-03T13:47:07.001Z</time></trkpt><trkpt lat="45.85833104712928" lon="9.83904605573648"><ele>550.0</ele><time>2026-04-03T13:47:09.002Z</time></trkpt><trkpt lat="45.858290195970135" lon="9.838903576877291"><ele>550.0</ele><time>2026-04-03T13:47:11.002Z</time></trkpt><trkpt lat="45.85822849806566" lon="9.83878854192649"><ele>550.0</ele><time>2026-04-03T13:47:12.002Z</time></trkpt><trkpt lat="45.85814989820816" lon="9.83865318743614"><ele>550.0</ele><time>2026-04-03T13:47:13.002Z</time></trkpt><trkpt lat="45.85803880208636" lon="9.838539269913348"><ele>552.5</ele><time>2026-04-03T13:47:14.001Z</time></trkpt><trkpt lat="45.8579159581299" lon="9.838451416682098"><ele>555.0</ele><time>2026-04-03T13:47:15.001Z</time></trkpt><trkpt lat="45.85778287615057" lon="9.838392678911477"><ele>557.5</ele><time>2026-04-03T13:47:16.001Z</time></trkpt><trkpt lat="45.857656298621855" lon="9.838332618523559"><ele>560.0</ele><time>2026-04-03T13:47:17.001Z</time></trkpt><trkpt lat="45.85755731595895" lon="9.83827440071909"><ele>560.0</ele><time>2026-04-03T13:47:18.001Z</time></trkpt><trkpt lat="45.857453126177326" lon="9.838196075298077"><ele>560.0</ele><time>2026-04-03T13:47:19.001Z</time></trkpt><trkpt lat="45.85735547421676" lon="9.83810823095105"><ele>560.0</ele><time>2026-04-03T13:47:20.001Z</time></trkpt><trkpt lat="45.85727160058041" lon="9.83801121231853"><ele>560.0</ele><time>2026-04-03T13:47:21.001Z</time></trkpt><trkpt lat="45.85720725623816" lon="9.837908452444502"><ele>560.0</ele><time>2026-04-03T13:47:22.001Z</time></trkpt><trkpt lat="45.85714127537938" lon="9.837833015820172"><ele>560.0</ele><time>2026-04-03T13:47:23.001Z</time></trkpt><trkpt lat="45.857080290657386" lon="9.837762995088266"><ele>560.0</ele><time>2026-04-03T13:47:24.001Z</time></trkpt><trkpt lat="45.85702352040315" lon="9.83768063466945"><ele>560.0</ele><time>2026-04-03T13:47:25.001Z</time></trkpt><trkpt lat="45.85699998605631" lon="9.837565101740095"><ele>560.0</ele><time>2026-04-03T13:47:26.001Z</time></trkpt><trkpt lat="45.85697130782832" lon="9.837439166739252"><ele>560.0</ele><time>2026-04-03T13:47:29.001Z</time></trkpt><trkpt lat="45.856984314530315" lon="9.837331637773818"><ele>560.0</ele><time>2026-04-03T13:47:30.001Z</time></trkpt><trkpt lat="45.85700644829713" lon="9.83721504616372"><ele>563.5</ele><time>2026-04-03T13:47:31.001Z</time></trkpt><trkpt lat="45.857027136989245" lon="9.837106925619556"><ele>567.0</ele><time>2026-04-03T13:47:32Z</time></trkpt><trkpt lat="45.857040119730414" lon="9.836993848883518"><ele>570.5</ele><time>2026-04-03T13:47:33Z</time></trkpt><trkpt lat="45.85704466527222" lon="9.836855350542157"><ele>574.0</ele><time>2026-04-03T13:47:34Z</time></trkpt><trkpt lat="45.85703145400281" lon="9.836724875512193"><ele>577.5</ele><time>2026-04-03T13:47:36Z</time></trkpt><trkpt lat="45.85704489683481" lon="9.836614077576792"><ele>581.0</ele><time>2026-04-03T13:47:39Z</time></trkpt><trkpt lat="45.85706187884825" lon="9.83650430058905"><ele>583.75</ele><time>2026-04-03T13:47:41Z</time></trkpt><trkpt lat="45.85728780072607" lon="9.836380289021115"><ele>586.5</ele><time>2026-04-03T13:47:43Z</time></trkpt><trkpt lat="45.85731085817503" lon="9.836278338943952"><ele>589.25</ele><time>2026-04-03T13:47:47Z</time></trkpt><trkpt lat="45.857293054916795" lon="9.836172364962053"><ele>592.0</ele><time>2026-04-03T13:47:49Z</time></trkpt><trkpt lat="45.85737457936226" lon="9.83604945129983"><ele>596.5</ele><time>2026-04-03T13:47:50.999Z</time></trkpt><trkpt lat="45.85741097039767" lon="9.835961387156244"><ele>601.0</ele><time>2026-04-03T13:47:52.999Z</time></trkpt><trkpt lat="45.85767015151543" lon="9.835286113681349"><ele>608.5</ele><time>2026-04-03T13:47:53.999Z</time></trkpt><trkpt lat="45.85768685969253" lon="9.835186379994488"><ele>616.0</ele><time>2026-04-03T13:47:54.999Z</time></trkpt><trkpt lat="45.857720635015575" lon="9.835053548761412"><ele>623.5</ele><time>2026-04-03T13:47:56.999Z</time></trkpt><trkpt lat="45.85774409702879" lon="9.834935060808368"><ele>631.0</ele><time>2026-04-03T13:47:57.999Z</time></trkpt><trkpt lat="45.857760383631366" lon="9.834800544697782"><ele>638.5</ele><time>2026-04-03T13:47:58.999Z</time></trkpt><trkpt lat="45.85778051868194" lon="9.834665151814741"><ele>646.0</ele><time>2026-04-03T13:47:59.999Z</time></trkpt><trkpt lat="45.857806793437675" lon="9.834537677933724"><ele>646.3333333333334</ele><time>2026-04-03T13:48:00.999Z</time></trkpt><trkpt lat="45.85785032841275" lon="9.834387085778122"><ele>646.6666666666667</ele><time>2026-04-03T13:48:01.999Z</time></trkpt><trkpt lat="45.85787991415682" lon="9.834246019960839"><ele>647.0</ele><time>2026-04-03T13:48:02.999Z</time></trkpt><trkpt lat="45.85792373081915" lon="9.834167059562304"><ele>647.3333333333334</ele><time>2026-04-03T13:48:03.999Z</time></trkpt><trkpt lat="45.85795937202336" lon="9.834064773280216"><ele>647.6666666666666</ele><time>2026-04-03T13:48:05.999Z</time></trkpt><trkpt lat="45.85798645494009" lon="9.833969146784659"><ele>648.0</ele><time>2026-04-03T13:48:07.999Z</time></trkpt><trkpt lat="45.85802745768613" lon="9.833853811500344"><ele>648.0</ele><time>2026-04-03T13:48:10.998Z</time></trkpt><trkpt lat="45.85802508453044" lon="9.833735243117383"><ele>648.0</ele><time>2026-04-03T13:48:13.998Z</time></trkpt><trkpt lat="45.85806757355523" lon="9.833808380355476"><ele>648.0</ele><time>2026-04-03T13:48:19.998Z</time></trkpt><trkpt lat="45.858082713858934" lon="9.833899319254533"><ele>648.0</ele><time>2026-04-03T13:48:23.998Z</time></trkpt><trkpt lat="45.85811105287694" lon="9.834010786813794"><ele>648.0</ele><time>2026-04-03T13:48:25.998Z</time></trkpt><trkpt lat="45.85809668632852" lon="9.834136417336852"><ele>648.0</ele><time>2026-04-03T13:48:28.997Z</time></trkpt><trkpt lat="45.85818406196992" lon="9.834340912486933"><ele>648.0</ele><time>2026-04-03T13:48:30.997Z</time></trkpt><trkpt lat="45.85822280934546" lon="9.834435752410226"><ele>648.0</ele><time>2026-04-03T13:48:31.997Z</time></trkpt><trkpt lat="45.858233860432684" lon="9.834550636719381"><ele>648.0</ele><time>2026-04-03T13:48:32.997Z</time></trkpt><trkpt lat="45.858256952000865" lon="9.834650217515941"><ele>648.0</ele><time>2026-04-03T13:48:33.997Z</time></trkpt><trkpt lat="45.85828355298521" lon="9.834740535102807"><ele>648.0</ele><time>2026-04-03T13:48:34.997Z</time></trkpt><trkpt lat="45.85827279922147" lon="9.834872073820533"><ele>648.0</ele><time>2026-04-03T13:48:36.997Z</time></trkpt><trkpt lat="45.85829201348041" lon="9.835011159038324"><ele>647.5999999999999</ele><time>2026-04-03T13:48:38.997Z</time></trkpt><trkpt lat="45.858309319452395" lon="9.835157367878194"><ele>647.1999999999999</ele><time>2026-04-03T13:48:40.997Z</time></trkpt><trkpt lat="45.85828172849309" lon="9.835287496821318"><ele>646.8</ele><time>2026-04-03T13:48:41.997Z</time></trkpt><trkpt lat="45.858262112528095" lon="9.83541218537115"><ele>646.4</ele><time>2026-04-03T13:48:42.997Z</time></trkpt><trkpt lat="45.858260815053654" lon="9.83551957060524"><ele>646.0</ele><time>2026-04-03T13:48:43.997Z</time></trkpt><trkpt lat="45.85831514823735" lon="9.835735303375257"><ele>646.0</ele><time>2026-04-03T13:48:45.996Z</time></trkpt><trkpt lat="45.85835581688973" lon="9.835854039802832"><ele>646.0</ele><time>2026-04-03T13:48:46.996Z</time></trkpt><trkpt lat="45.858395797874266" lon="9.835949884435694"><ele>646.0</ele><time>2026-04-03T13:48:47.996Z</time></trkpt><trkpt lat="45.858455521830265" lon="9.836034986953047"><ele>646.0</ele><time>2026-04-03T13:48:49.996Z</time></trkpt><trkpt lat="45.858485849913045" lon="9.835955587273999"><ele>646.0</ele><time>2026-04-03T13:48:58.996Z</time></trkpt><trkpt lat="45.85848941127183" lon="9.835843077578858"><ele>646.0</ele><time>2026-04-03T13:49:05.002Z</time></trkpt><trkpt lat="45.85852473516581" lon="9.83574262977156"><ele>648.1666666666667</ele><time>2026-04-03T13:49:10.002Z</time></trkpt><trkpt lat="45.858521542767626" lon="9.835600698219924"><ele>650.3333333333334</ele><time>2026-04-03T13:49:12.002Z</time></trkpt><trkpt lat="45.858556662176824" lon="9.835465814103035"><ele>652.5</ele><time>2026-04-03T13:49:13.001Z</time></trkpt><trkpt lat="45.858571069628965" lon="9.835368411559623"><ele>654.6666666666666</ele><time>2026-04-03T13:49:14.002Z</time></trkpt><trkpt lat="45.85861540187348" lon="9.835234694143658"><ele>656.8333333333333</ele><time>2026-04-03T13:49:17.002Z</time></trkpt><trkpt lat="45.85863545884593" lon="9.83513309289923"><ele>659.0</ele><time>2026-04-03T13:49:18.002Z</time></trkpt><trkpt lat="45.85864633477561" lon="9.835020612087384"><ele>662.4000000000001</ele><time>2026-04-03T13:49:19.002Z</time></trkpt><trkpt lat="45.85863902472782" lon="9.834893849038973"><ele>665.8</ele><time>2026-04-03T13:49:20.002Z</time></trkpt><trkpt lat="45.85863629362057" lon="9.834740102947556"><ele>669.2</ele><time>2026-04-03T13:49:21.002Z</time></trkpt><trkpt lat="45.85863356950385" lon="9.834618926260278"><ele>672.5999999999999</ele><time>2026-04-03T13:49:22.002Z</time></trkpt><trkpt lat="45.858656021658355" lon="9.834471435722385"><ele>676.0</ele><time>2026-04-03T13:49:23.002Z</time></trkpt><trkpt lat="45.858689782372856" lon="9.834313022441771"><ele>679.1999999999999</ele><time>2026-04-03T13:49:24.002Z</time></trkpt><trkpt lat="45.85872988850866" lon="9.834159155481835"><ele>682.4</ele><time>2026-04-03T13:49:25.002Z</time></trkpt><trkpt lat="45.85877757337585" lon="9.834026808114887"><ele>685.6</ele><time>2026-04-03T13:49:26.002Z</time></trkpt><trkpt lat="45.85884162362254" lon="9.833886819372305"><ele>688.8</ele><time>2026-04-03T13:49:27.002Z</time></trkpt><trkpt lat="45.858897430293595" lon="9.833765934570437"><ele>692.0</ele><time>2026-04-03T13:49:28.002Z</time></trkpt><trkpt lat="45.858945183299966" lon="9.833663151232303"><ele>688.0</ele><time>2026-04-03T13:49:29.001Z</time></trkpt><trkpt lat="45.859409136173426" lon="9.83360264684482"><ele>688.0</ele><time>2026-04-03T13:49:41.001Z</time></trkpt><trkpt lat="45.85940427539444" lon="9.833504426253993"><ele>688.0</ele><time>2026-04-03T13:49:42.001Z</time></trkpt><trkpt lat="45.85940243929497" lon="9.833390073169708"><ele>688.0</ele><time>2026-04-03T13:49:44.001Z</time></trkpt><trkpt lat="45.85945833318982" lon="9.83332612153823"><ele>688.0</ele><time>2026-04-03T13:49:46.001Z</time></trkpt><trkpt lat="45.859530821479616" lon="9.833238240893195"><ele>688.0</ele><time>2026-04-03T13:49:47.001Z</time></trkpt><trkpt lat="45.859581460153294" lon="9.833118201176394"><ele>688.0</ele><time>2026-04-03T13:49:48Z</time></trkpt><trkpt lat="45.85959531368103" lon="9.832977745093048"><ele>693.75</ele><time>2026-04-03T13:49:49Z</time></trkpt><trkpt lat="45.85960341784031" lon="9.8328039807622"><ele>699.5</ele><time>2026-04-03T13:49:50Z</time></trkpt><trkpt lat="45.859619544103865" lon="9.832634685904432"><ele>705.25</ele><time>2026-04-03T13:49:51Z</time></trkpt><trkpt lat="45.85961479967404" lon="9.832477291134675"><ele>711.0</ele><time>2026-04-03T13:49:52Z</time></trkpt><trkpt lat="45.85963763777488" lon="9.832306783965734"><ele>715.25</ele><time>2026-04-03T13:49:53Z</time></trkpt><trkpt lat="45.859675363816265" lon="9.832136910629181"><ele>719.5</ele><time>2026-04-03T13:49:54Z</time></trkpt><trkpt lat="45.859702217502736" lon="9.831975098243191"><ele>723.75</ele><time>2026-04-03T13:49:55Z</time></trkpt><trkpt lat="45.85971250325241" lon="9.831812494654807"><ele>728.0</ele><time>2026-04-03T13:49:56Z</time></trkpt><trkpt lat="45.859697117813596" lon="9.831651085605005"><ele>733.5</ele><time>2026-04-03T13:49:57Z</time></trkpt><trkpt lat="45.85966667605336" lon="9.831484021010148"><ele>739.0</ele><time>2026-04-03T13:49:58Z</time></trkpt><trkpt lat="45.85960596303093" lon="9.8313382581421"><ele>744.5</ele><time>2026-04-03T13:49:59Z</time></trkpt><trkpt lat="45.85953023266408" lon="9.8312025270901"><ele>750.0</ele><time>2026-04-03T13:50:00Z</time></trkpt><trkpt lat="45.859466200976186" lon="9.83107943371033"><ele>754.4</ele><time>2026-04-03T13:50:01Z</time></trkpt><trkpt lat="45.85941974466079" lon="9.830950120554219"><ele>758.8</ele><time>2026-04-03T13:50:02Z</time></trkpt><trkpt lat="45.85937111249153" lon="9.830812712854804"><ele>763.2</ele><time>2026-04-03T13:50:03Z</time></trkpt><trkpt lat="45.85934347654819" lon="9.83064633126069"><ele>767.6</ele><time>2026-04-03T13:50:04Z</time></trkpt><trkpt lat="45.85931804553759" lon="9.830494754183258"><ele>772.0</ele><time>2026-04-03T13:50:05Z</time></trkpt><trkpt lat="45.85932143445103" lon="9.830352748483326"><ele>772.0</ele><time>2026-04-03T13:50:05.999Z</time></trkpt><trkpt lat="45.85933229218019" lon="9.830195231731903"><ele>772.0</ele><time>2026-04-03T13:50:06.999Z</time></trkpt><trkpt lat="45.85933626217291" lon="9.830017081530816"><ele>772.0</ele><time>2026-04-03T13:50:07.999Z</time></trkpt><trkpt lat="45.85931136368472" lon="9.829883939327878"><ele>772.0</ele><time>2026-04-03T13:50:08.999Z</time></trkpt><trkpt lat="45.85925356170859" lon="9.829758602071358"><ele>772.0</ele><time>2026-04-03T13:50:09.999Z</time></trkpt><trkpt lat="45.85918258613046" lon="9.829653951262134"><ele>770.25</ele><time>2026-04-03T13:50:10.999Z</time></trkpt><trkpt lat="45.859091079159384" lon="9.829545971223384"><ele>768.5</ele><time>2026-04-03T13:50:11.999Z</time></trkpt><trkpt lat="45.858989279805094" lon="9.829441334404654"><ele>766.75</ele><time>2026-04-03T13:50:12.999Z</time></trkpt><trkpt lat="45.85889418780873" lon="9.829340071360294"><ele>765.0</ele><time>2026-04-03T13:50:13.999Z</time></trkpt><trkpt lat="45.85880495068678" lon="9.829224259168665"><ele>770.2</ele><time>2026-04-03T13:50:14.999Z</time></trkpt><trkpt lat="45.8587292486638" lon="9.829098895976687"><ele>775.4</ele><time>2026-04-03T13:50:15.999Z</time></trkpt><trkpt lat="45.85866486079165" lon="9.82898897343571"><ele>780.5999999999999</ele><time>2026-04-03T13:50:16.999Z</time></trkpt><trkpt lat="45.858598135271755" lon="9.828856096543113"><ele>785.8</ele><time>2026-04-03T13:50:17.999Z</time></trkpt><trkpt lat="45.85852153298394" lon="9.828734949668169"><ele>791.0</ele><time>2026-04-03T13:50:18.999Z</time></trkpt><trkpt lat="45.858453266051015" lon="9.828629122046635"><ele>789.1999999999999</ele><time>2026-04-03T13:50:19.999Z</time></trkpt><trkpt lat="45.85838570619229" lon="9.828522849900972"><ele>787.4</ele><time>2026-04-03T13:50:20.999Z</time></trkpt><trkpt lat="45.858332627248025" lon="9.828428505446347"><ele>785.6</ele><time>2026-04-03T13:50:21.999Z</time></trkpt><trkpt lat="45.858310587145645" lon="9.828307846737594"><ele>783.8</ele><time>2026-04-03T13:50:22.999Z</time></trkpt><trkpt lat="45.85828525726618" lon="9.828201590767774"><ele>782.0</ele><time>2026-04-03T13:50:24.998Z</time></trkpt><trkpt lat="45.85841291089762" lon="9.828193704505544"><ele>782.0</ele><time>2026-04-03T13:50:26.998Z</time></trkpt><trkpt lat="45.85844091880073" lon="9.828306273707126"><ele>782.0</ele><time>2026-04-03T13:50:27.998Z</time></trkpt><trkpt lat="45.8585002190985" lon="9.828511360407715"><ele>782.0</ele><time>2026-04-03T13:50:29.998Z</time></trkpt><trkpt lat="45.85857777800114" lon="9.828616516030715"><ele>782.0</ele><time>2026-04-03T13:50:30.998Z</time></trkpt><trkpt lat="45.858661249081045" lon="9.828740791902614"><ele>784.25</ele><time>2026-04-03T13:50:31.998Z</time></trkpt><trkpt lat="45.85877975767907" lon="9.828850258304906"><ele>786.5</ele><time>2026-04-03T13:50:32.998Z</time></trkpt><trkpt lat="45.85890067530882" lon="9.828955475922903"><ele>788.75</ele><time>2026-04-03T13:50:33.998Z</time></trkpt><trkpt lat="45.8590120241999" lon="9.829054985668197"><ele>791.0</ele><time>2026-04-03T13:50:34.998Z</time></trkpt><trkpt lat="45.85913436653315" lon="9.829132986782534"><ele>791.0</ele><time>2026-04-03T13:50:35.998Z</time></trkpt><trkpt lat="45.85925748338258" lon="9.829171189316783"><ele>791.0</ele><time>2026-04-03T13:50:36.998Z</time></trkpt><trkpt lat="45.85935471160624" lon="9.829222776658193"><ele>791.0</ele><time>2026-04-03T13:50:37.998Z</time></trkpt><trkpt lat="45.85943576133511" lon="9.829250932781182"><ele>791.0</ele><time>2026-04-03T13:50:38.998Z</time></trkpt><trkpt lat="45.859524307235645" lon="9.829281068797439"><ele>791.0</ele><time>2026-04-03T13:50:39.998Z</time></trkpt><trkpt lat="45.85959819824045" lon="9.829356561317702"><ele>790.5</ele><time>2026-04-03T13:50:40.998Z</time></trkpt><trkpt lat="45.8597109271724" lon="9.829423837701603"><ele>790.0</ele><time>2026-04-03T13:50:41.998Z</time></trkpt><trkpt lat="45.85981739975625" lon="9.829531684261047"><ele>789.5</ele><time>2026-04-03T13:50:42.997Z</time></trkpt><trkpt lat="45.859941163356574" lon="9.829618317199218"><ele>789.0</ele><time>2026-04-03T13:50:43.997Z</time></trkpt><trkpt lat="45.8600659385268" lon="9.829724155058198"><ele>788.8000000000001</ele><time>2026-04-03T13:50:44.997Z</time></trkpt><trkpt lat="45.860190492472654" lon="9.829820109629408"><ele>788.6</ele><time>2026-04-03T13:50:45.997Z</time></trkpt><trkpt lat="45.86029882701261" lon="9.829895204320135"><ele>788.4</ele><time>2026-04-03T13:50:46.997Z</time></trkpt><trkpt lat="45.860388756240724" lon="9.829934214744185"><ele>788.2</ele><time>2026-04-03T13:50:47.997Z</time></trkpt><trkpt lat="45.86046856480017" lon="9.82992274651334"><ele>788.0</ele><time>2026-04-03T13:50:48.997Z</time></trkpt><trkpt lat="45.86052788117479" lon="9.829844154070573"><ele>788.0</ele><time>2026-04-03T13:50:49.997Z</time></trkpt><trkpt lat="45.86055536348526" lon="9.829721117980597"><ele>788.0</ele><time>2026-04-03T13:50:50.997Z</time></trkpt><trkpt lat="45.86057828882513" lon="9.829613923075732"><ele>788.0</ele><time>2026-04-03T13:50:51.997Z</time></trkpt><trkpt lat="45.86058671420488" lon="9.829481539560854"><ele>788.0</ele><time>2026-04-03T13:50:52.997Z</time></trkpt><trkpt lat="45.86058704226951" lon="9.829342367133796"><ele>788.0</ele><time>2026-04-03T13:50:53.997Z</time></trkpt><trkpt lat="45.86058704226476" lon="9.829166403396286"><ele>792.0</ele><time>2026-04-03T13:50:54.997Z</time></trkpt><trkpt lat="45.86058769671304" lon="9.828986988919603"><ele>796.0</ele><time>2026-04-03T13:50:55.997Z</time></trkpt><trkpt lat="45.86059100726293" lon="9.828811754369987"><ele>800.0</ele><time>2026-04-03T13:50:56.997Z</time></trkpt><trkpt lat="45.86059236676351" lon="9.82866894736643"><ele>804.0</ele><time>2026-04-03T13:50:57.997Z</time></trkpt><trkpt lat="45.860572212878" lon="9.828531578623355"><ele>808.0</ele><time>2026-04-03T13:50:59.997Z</time></trkpt><trkpt lat="45.86053770730286" lon="9.828455305712511"><ele>808.0</ele><time>2026-04-03T13:51:00.997Z</time></trkpt><trkpt lat="45.86042011186922" lon="9.82851746865678"><ele>808.0</ele><time>2026-04-03T13:51:02.996Z</time></trkpt><trkpt lat="45.86041031192769" lon="9.82861850998968"><ele>808.0</ele><time>2026-04-03T13:51:04.996Z</time></trkpt><trkpt lat="45.86038778672377" lon="9.8287088636608"><ele>808.0</ele><time>2026-04-03T13:51:06.996Z</time></trkpt><trkpt lat="45.860338263463916" lon="9.828803903535945"><ele>808.0</ele><time>2026-04-03T13:51:08.996Z</time></trkpt><trkpt lat="45.860248704773646" lon="9.82872253978648"><ele>807.9999999999999</ele><time>2026-04-03T13:51:09.996Z</time></trkpt><trkpt lat="45.860217178864694" lon="9.828606724851673"><ele>808.0</ele><time>2026-04-03T13:51:11.002Z</time></trkpt><trkpt lat="45.86019707281015" lon="9.828511775889886"><ele>808.0</ele><time>2026-04-03T13:51:12.002Z</time></trkpt><trkpt lat="45.86022021612176" lon="9.828422476205603"><ele>808.0</ele><time>2026-04-03T13:51:13.002Z</time></trkpt><trkpt lat="45.86028204820532" lon="9.828379695163822"><ele>807.9999999999999</ele><time>2026-04-03T13:51:14.002Z</time></trkpt><trkpt lat="45.86035517586062" lon="9.828321420346793"><ele>808.0</ele><time>2026-04-03T13:51:16.002Z</time></trkpt><trkpt lat="45.8603904796812" lon="9.828225016953304"><ele>810.2857142857142</ele><time>2026-04-03T13:51:18.002Z</time></trkpt><trkpt lat="45.86039893967244" lon="9.828134984469447"><ele>812.5714285714286</ele><time>2026-04-03T13:51:19.002Z</time></trkpt><trkpt lat="45.860408177880934" lon="9.828030997426927"><ele>814.8571428571429</ele><time>2026-04-03T13:51:20.002Z</time></trkpt><trkpt lat="45.860423424464685" lon="9.827935722834551"><ele>817.1428571428571</ele><time>2026-04-03T13:51:21.002Z</time></trkpt><trkpt lat="45.86042891548832" lon="9.827837851297101"><ele>819.4285714285714</ele><time>2026-04-03T13:51:22.002Z</time></trkpt><trkpt lat="45.86042505115348" lon="9.827742115121955"><ele>821.7142857142857</ele><time>2026-04-03T13:51:23.002Z</time></trkpt><trkpt lat="45.86042102400938" lon="9.827646820428829"><ele>824.0</ele><time>2026-04-03T13:51:24.002Z</time></trkpt><trkpt lat="45.860416121079794" lon="9.827545521780193"><ele>827.1666666666667</ele><time>2026-04-03T13:51:25.002Z</time></trkpt><trkpt lat="45.86041055519404" lon="9.827385528702239"><ele>830.3333333333334</ele><time>2026-04-03T13:51:27.002Z</time></trkpt><trkpt lat="45.86040213476241" lon="9.827275148247708"><ele>833.5</ele><time>2026-04-03T13:51:29.002Z</time></trkpt><trkpt lat="45.86040586210703" lon="9.827156685048148"><ele>836.6666666666667</ele><time>2026-04-03T13:51:31.002Z</time></trkpt><trkpt lat="45.86039036627962" lon="9.827059626808218"><ele>839.8333333333334</ele><time>2026-04-03T13:51:33.001Z</time></trkpt><trkpt lat="45.86036376674656" lon="9.826935295082942"><ele>843.0</ele><time>2026-04-03T13:51:36.001Z</time></trkpt><trkpt lat="45.86033863843608" lon="9.826851775855818"><ele>846.5999999999999</ele><time>2026-04-03T13:51:38.001Z</time></trkpt><trkpt lat="45.8602965145543" lon="9.826743938965821"><ele>850.1999999999999</ele><time>2026-04-03T13:51:41.001Z</time></trkpt><trkpt lat="45.86025153374021" lon="9.826627102623842"><ele>853.8</ele><time>2026-04-03T13:51:44.001Z</time></trkpt><trkpt lat="45.8601936502452" lon="9.826517824855422"><ele>857.4</ele><time>2026-04-03T13:51:47.001Z</time></trkpt><trkpt lat="45.86016221529219" lon="9.826397997741203"><ele>861.0</ele><time>2026-04-03T13:51:50Z</time></trkpt><trkpt lat="45.860115088497174" lon="9.826282296625097"><ele>861.6666666666666</ele><time>2026-04-03T13:51:52Z</time></trkpt><trkpt lat="45.86006806565515" lon="9.826194217266929"><ele>862.3333333333333</ele><time>2026-04-03T13:51:53Z</time></trkpt><trkpt lat="45.86002855504094" lon="9.826093081315861"><ele>863.0</ele><time>2026-04-03T13:51:54Z</time></trkpt><trkpt lat="45.8600038007289" lon="9.826003777934153"><ele>863.6666666666666</ele><time>2026-04-03T13:51:55Z</time></trkpt><trkpt lat="45.85993494071283" lon="9.825935395647223"><ele>864.3333333333333</ele><time>2026-04-03T13:51:56Z</time></trkpt><trkpt lat="45.85983217528924" lon="9.825934905505877"><ele>865.0</ele><time>2026-04-03T13:51:57Z</time></trkpt><trkpt lat="45.859774622627576" lon="9.826110521793852"><ele>864.9999999999999</ele><time>2026-04-03T13:51:58Z</time></trkpt><trkpt lat="45.85972880638467" lon="9.826197360055337"><ele>865.0</ele><time>2026-04-03T13:51:59Z</time></trkpt><trkpt lat="45.859652955371416" lon="9.826198880392534"><ele>865.0</ele><time>2026-04-03T13:52:01Z</time></trkpt><trkpt lat="45.85959259673901" lon="9.826087741397917"><ele>865.0</ele><time>2026-04-03T13:52:03Z</time></trkpt><trkpt lat="45.8595341635361" lon="9.82600021121263"><ele>864.9999999999999</ele><time>2026-04-03T13:52:04Z</time></trkpt><trkpt lat="45.85948916613496" lon="9.825889430128418"><ele>865.0</ele><time>2026-04-03T13:52:05Z</time></trkpt><trkpt lat="45.85943752320214" lon="9.825781180261332"><ele>863.9999999999999</ele><time>2026-04-03T13:52:06Z</time></trkpt><trkpt lat="45.859386268097936" lon="9.825677416356582"><ele>863.0</ele><time>2026-04-03T13:52:07Z</time></trkpt><trkpt lat="45.859312936893815" lon="9.825604463191853"><ele>862.0</ele><time>2026-04-03T13:52:08Z</time></trkpt><trkpt lat="45.8592449792381" lon="9.82551228264537"><ele>861.0</ele><time>2026-04-03T13:52:08.999Z</time></trkpt><trkpt lat="45.85917174333591" lon="9.825465087275731"><ele>859.9999999999999</ele><time>2026-04-03T13:52:09.999Z</time></trkpt><trkpt lat="45.85910812632098" lon="9.825405812531013"><ele>859.0</ele><time>2026-04-03T13:52:10.999Z</time></trkpt><trkpt lat="45.85904072562945" lon="9.825321396438238"><ele>859.0</ele><time>2026-04-03T13:52:11.999Z</time></trkpt><trkpt lat="45.85899005330013" lon="9.825240446786971"><ele>859.0000000000001</ele><time>2026-04-03T13:52:12.999Z</time></trkpt><trkpt lat="45.85894970442765" lon="9.82512597199666"><ele>859.0000000000001</ele><time>2026-04-03T13:52:13.999Z</time></trkpt><trkpt lat="45.85888833135164" lon="9.825013522792306"><ele>859.0</ele><time>2026-04-03T13:52:14.999Z</time></trkpt><trkpt lat="45.85879040653642" lon="9.824891817331329"><ele>859.0</ele><time>2026-04-03T13:52:15.999Z</time></trkpt><trkpt lat="45.85868598278564" lon="9.824805367403712"><ele>859.3333333333333</ele><time>2026-04-03T13:52:16.999Z</time></trkpt><trkpt lat="45.85860689103422" lon="9.824744583531263"><ele>859.6666666666666</ele><time>2026-04-03T13:52:17.999Z</time></trkpt><trkpt lat="45.85852966913161" lon="9.824687156066053"><ele>860.0</ele><time>2026-04-03T13:52:18.999Z</time></trkpt><trkpt lat="45.858446424338176" lon="9.824627939531766"><ele>860.3333333333333</ele><time>2026-04-03T13:52:19.999Z</time></trkpt><trkpt lat="45.85837217388536" lon="9.824600928179205"><ele>860.6666666666666</ele><time>2026-04-03T13:52:20.999Z</time></trkpt><trkpt lat="45.858322322644625" lon="9.824537141683303"><ele>861.0</ele><time>2026-04-03T13:52:21.999Z</time></trkpt><trkpt lat="45.85828455601653" lon="9.824464764266287"><ele>861.0</ele><time>2026-04-03T13:52:22.999Z</time></trkpt><trkpt lat="45.85824926543536" lon="9.824384238589703"><ele>861.0</ele><time>2026-04-03T13:52:23.999Z</time></trkpt><trkpt lat="45.858223340170454" lon="9.824295585222911"><ele>861.0</ele><time>2026-04-03T13:52:24.999Z</time></trkpt><trkpt lat="45.85818185928156" lon="9.824179558354972"><ele>861.0</ele><time>2026-04-03T13:52:25.999Z</time></trkpt><trkpt lat="45.858141495779776" lon="9.824053053442585"><ele>861.0</ele><time>2026-04-03T13:52:26.999Z</time></trkpt><trkpt lat="45.85810560208374" lon="9.823957091155131"><ele>861.0</ele><time>2026-04-03T13:52:27.998Z</time></trkpt><trkpt lat="45.85810073091318" lon="9.823841674632389"><ele>863.6666666666666</ele><time>2026-04-03T13:52:28.998Z</time></trkpt><trkpt lat="45.85812104162133" lon="9.823705431414668"><ele>866.3333333333333</ele><time>2026-04-03T13:52:30.998Z</time></trkpt><trkpt lat="45.8581916801685" lon="9.823609827163411"><ele>869.0</ele><time>2026-04-03T13:52:32.998Z</time></trkpt><trkpt lat="45.85825927269953" lon="9.823536303316232"><ele>871.6666666666666</ele><time>2026-04-03T13:52:34.998Z</time></trkpt><trkpt lat="45.85827170691823" lon="9.823442647600901"><ele>874.3333333333333</ele><time>2026-04-03T13:52:35.998Z</time></trkpt><trkpt lat="45.85831220884709" lon="9.823341841162625"><ele>877.0</ele><time>2026-04-03T13:52:36.998Z</time></trkpt><trkpt lat="45.85833311329936" lon="9.82321874271468"><ele>878.4000000000001</ele><time>2026-04-03T13:52:37.998Z</time></trkpt><trkpt lat="45.858349740100074" lon="9.82310115706114"><ele>879.8000000000001</ele><time>2026-04-03T13:52:38.998Z</time></trkpt><trkpt lat="45.85829593333325" lon="9.822980894850435"><ele>881.2</ele><time>2026-04-03T13:52:40.998Z</time></trkpt><trkpt lat="45.85819985498533" lon="9.822877256398861"><ele>882.6</ele><time>2026-04-03T13:52:42.998Z</time></trkpt><trkpt lat="45.85816651349185" lon="9.822775238373266"><ele>884.0</ele><time>2026-04-03T13:52:45.997Z</time></trkpt><trkpt lat="45.85817639569828" lon="9.822677162008862"><ele>882.5000000000001</ele><time>2026-04-03T13:52:51.997Z</time></trkpt><trkpt lat="45.85814329174955" lon="9.822559463487387"><ele>881.0</ele><time>2026-04-03T13:52:53.997Z</time></trkpt><trkpt lat="45.85809956095065" lon="9.822492586399866"><ele>879.5</ele><time>2026-04-03T13:52:54.997Z</time></trkpt><trkpt lat="45.85806457341048" lon="9.822379572910895"><ele>878.0</ele><time>2026-04-03T13:52:55.997Z</time></trkpt><trkpt lat="45.85805742544057" lon="9.822283651017145"><ele>876.5000000000001</ele><time>2026-04-03T13:52:56.997Z</time></trkpt><trkpt lat="45.85802445390889" lon="9.82218845055491"><ele>875.0</ele><time>2026-04-03T13:52:57.997Z</time></trkpt><trkpt lat="45.85797312509274" lon="9.822075218279055"><ele>875.0</ele><time>2026-04-03T13:52:58.997Z</time></trkpt><trkpt lat="45.857928246586916" lon="9.821963154931826"><ele>875.0</ele><time>2026-04-03T13:52:59.997Z</time></trkpt><trkpt lat="45.85783550183914" lon="9.821816103564755"><ele>875.0</ele><time>2026-04-03T13:53:00.997Z</time></trkpt><trkpt lat="45.85777860574513" lon="9.821705041636239"><ele>875.0</ele><time>2026-04-03T13:53:01.997Z</time></trkpt><trkpt lat="45.85775179926827" lon="9.821598027561995"><ele>875.0</ele><time>2026-04-03T13:53:02.997Z</time></trkpt><trkpt lat="45.857747543969246" lon="9.82149656769929"><ele>871.0</ele><time>2026-04-03T13:53:03.997Z</time></trkpt><trkpt lat="45.8577404927219" lon="9.821336309286174"><ele>867.0</ele><time>2026-04-03T13:53:04.996Z</time></trkpt><trkpt lat="45.85770736248193" lon="9.821179125767069"><ele>863.0</ele><time>2026-04-03T13:53:05.996Z</time></trkpt><trkpt lat="45.85765961469376" lon="9.821060956678659"><ele>859.0</ele><time>2026-04-03T13:53:06.996Z</time></trkpt><trkpt lat="45.85766572356742" lon="9.82090472107211"><ele>855.0</ele><time>2026-04-03T13:53:08.996Z</time></trkpt><trkpt lat="45.85763121082655" lon="9.820801688715761"><ele>859.8</ele><time>2026-04-03T13:53:10.996Z</time></trkpt><trkpt lat="45.85759697288762" lon="9.820611750074372"><ele>864.6</ele><time>2026-04-03T13:53:12.996Z</time></trkpt><trkpt lat="45.857524607761746" lon="9.820514194925638"><ele>869.4000000000001</ele><time>2026-04-03T13:53:14.996Z</time></trkpt><trkpt lat="45.85743250230431" lon="9.820414440783367"><ele>874.2</ele><time>2026-04-03T13:53:17.002Z</time></trkpt><trkpt lat="45.85736565714025" lon="9.82040480548364"><ele>879.0</ele><time>2026-04-03T13:53:18.002Z</time></trkpt><trkpt lat="45.8573029140538" lon="9.82036820409299"><ele>879.0</ele><time>2026-04-03T13:53:19.002Z</time></trkpt><trkpt lat="45.857258791778634" lon="9.820292055784277"><ele>879.0</ele><time>2026-04-03T13:53:20.002Z</time></trkpt><trkpt lat="45.85726342242645" lon="9.820168481222018"><ele>879.0</ele><time>2026-04-03T13:53:21.002Z</time></trkpt><trkpt lat="45.85723894676824" lon="9.820029570965076"><ele>879.0</ele><time>2026-04-03T13:53:22.002Z</time></trkpt><trkpt lat="45.857231826414235" lon="9.819899410686197"><ele>879.0</ele><time>2026-04-03T13:53:23.002Z</time></trkpt><trkpt lat="45.8572192440867" lon="9.819805315990672"><ele>879.0</ele><time>2026-04-03T13:53:24.003Z</time></trkpt><trkpt lat="45.85717539673936" lon="9.8197304665683"><ele>876.2</ele><time>2026-04-03T13:53:25.003Z</time></trkpt><trkpt lat="45.8570891385835" lon="9.81957907156898"><ele>873.4000000000001</ele><time>2026-04-03T13:53:27.002Z</time></trkpt><trkpt lat="45.85704894950639" lon="9.819485778144921"><ele>870.6</ele><time>2026-04-03T13:53:28.002Z</time></trkpt><trkpt lat="45.85702746124439" lon="9.819399092818067"><ele>867.8</ele><time>2026-04-03T13:53:29.002Z</time></trkpt><trkpt lat="45.85699325293401" lon="9.819292847688656"><ele>865.0</ele><time>2026-04-03T13:53:30.003Z</time></trkpt><trkpt lat="45.856986881667204" lon="9.81915329034632"><ele>864.6666666666666</ele><time>2026-04-03T13:53:31.003Z</time></trkpt><trkpt lat="45.8569610895314" lon="9.819048228153846"><ele>864.3333333333333</ele><time>2026-04-03T13:53:32.003Z</time></trkpt><trkpt lat="45.85690167870505" lon="9.818915309674882"><ele>864.0</ele><time>2026-04-03T13:53:34.002Z</time></trkpt><trkpt lat="45.85686819569756" lon="9.818788831935613"><ele>863.6666666666667</ele><time>2026-04-03T13:53:35.002Z</time></trkpt><trkpt lat="45.856840267355906" lon="9.818668231788019"><ele>863.3333333333334</ele><time>2026-04-03T13:53:36.002Z</time></trkpt><trkpt lat="45.856797553471075" lon="9.818579304908294"><ele>863.0</ele><time>2026-04-03T13:53:37.002Z</time></trkpt><trkpt lat="45.85675533046913" lon="9.81844428309456"><ele>863.0000000000001</ele><time>2026-04-03T13:53:39.002Z</time></trkpt><trkpt lat="45.85675048895323" lon="9.818341889488169"><ele>863.0</ele><time>2026-04-03T13:53:41.002Z</time></trkpt><trkpt lat="45.8567113855941" lon="9.818243819650892"><ele>863.0</ele><time>2026-04-03T13:53:44.002Z</time></trkpt><trkpt lat="45.85671575776738" lon="9.818104324294257"><ele>863.0</ele><time>2026-04-03T13:53:46.002Z</time></trkpt><trkpt lat="45.85671288583304" lon="9.818008309997378"><ele>863.0000000000001</ele><time>2026-04-03T13:53:47.002Z</time></trkpt><trkpt lat="45.85665904850461" lon="9.817916954090725"><ele>863.0</ele><time>2026-04-03T13:53:49.002Z</time></trkpt><trkpt lat="45.85662015285162" lon="9.817804014358678"><ele>863.0000000000001</ele><time>2026-04-03T13:53:51.002Z</time></trkpt><trkpt lat="45.856540855199" lon="9.817719108127221"><ele>863.0</ele><time>2026-04-03T13:53:53.001Z</time></trkpt><trkpt lat="45.85648094669014" lon="9.817640114631939"><ele>863.0</ele><time>2026-04-03T13:53:55.001Z</time></trkpt><trkpt lat="45.85643458444211" lon="9.817562695048158"><ele>863.0</ele><time>2026-04-03T13:53:56.001Z</time></trkpt><trkpt lat="45.856407282698314" lon="9.817447039416058"><ele>863.0000000000001</ele><time>2026-04-03T13:53:57.001Z</time></trkpt><trkpt lat="45.856392771772356" lon="9.817317326918516"><ele>863.0</ele><time>2026-04-03T13:53:58.001Z</time></trkpt><trkpt lat="45.85636711842454" lon="9.81719569008712"><ele>860.3333333333334</ele><time>2026-04-03T13:53:59.001Z</time></trkpt><trkpt lat="45.85637515401193" lon="9.817083014882611"><ele>857.6666666666667</ele><time>2026-04-03T13:54:00.001Z</time></trkpt><trkpt lat="45.856299865256695" lon="9.817000146776031"><ele>855.0</ele><time>2026-04-03T13:54:02.001Z</time></trkpt><trkpt lat="45.856190095186165" lon="9.816949038090698"><ele>852.3333333333333</ele><time>2026-04-03T13:54:04.001Z</time></trkpt><trkpt lat="45.856133087380144" lon="9.816873919081042"><ele>849.6666666666666</ele><time>2026-04-03T13:54:05.001Z</time></trkpt><trkpt lat="45.85609697496436" lon="9.816784058918117"><ele>847.0</ele><time>2026-04-03T13:54:07.001Z</time></trkpt><trkpt lat="45.85606090492049" lon="9.81663904599211"><ele>846.1666666666666</ele><time>2026-04-03T13:54:09.001Z</time></trkpt><trkpt lat="45.85603486536312" lon="9.816537676465185"><ele>845.3333333333333</ele><time>2026-04-03T13:54:10.001Z</time></trkpt><trkpt lat="45.85600240124247" lon="9.816446134435415"><ele>844.5</ele><time>2026-04-03T13:54:11Z</time></trkpt><trkpt lat="45.855985542651844" lon="9.816326205675145"><ele>843.6666666666667</ele><time>2026-04-03T13:54:12Z</time></trkpt><trkpt lat="45.85595545653144" lon="9.81618234922301"><ele>842.8333333333334</ele><time>2026-04-03T13:54:13Z</time></trkpt><trkpt lat="45.85594343778939" lon="9.816067271877424"><ele>842.0</ele><time>2026-04-03T13:54:14Z</time></trkpt><trkpt lat="45.855936312231" lon="9.81595622244897"><ele>842.0</ele><time>2026-04-03T13:54:15Z</time></trkpt><trkpt lat="45.85588698460341" lon="9.81582910482111"><ele>842.0</ele><time>2026-04-03T13:54:18Z</time></trkpt><trkpt lat="45.85585208142065" lon="9.815732776268282"><ele>842.0</ele><time>2026-04-03T13:54:19Z</time></trkpt><trkpt lat="45.855795036524086" lon="9.81556397339366"><ele>842.0</ele><time>2026-04-03T13:54:20Z</time></trkpt><trkpt lat="45.85573504162443" lon="9.815454478676454"><ele>842.0</ele><time>2026-04-03T13:54:21Z</time></trkpt><trkpt lat="45.85569635915678" lon="9.815359126116366"><ele>842.0</ele><time>2026-04-03T13:54:22Z</time></trkpt><trkpt lat="45.855661476866274" lon="9.81526830072357"><ele>842.0</ele><time>2026-04-03T13:54:23Z</time></trkpt><trkpt lat="45.85562601553578" lon="9.815031406418237"><ele>842.0</ele><time>2026-04-03T13:54:25Z</time></trkpt><trkpt lat="45.85568864135549" lon="9.814871207026373"><ele>842.0</ele><time>2026-04-03T13:54:26Z</time></trkpt><trkpt lat="45.85571178450197" lon="9.814691051501933"><ele>838.6</ele><time>2026-04-03T13:54:27Z</time></trkpt><trkpt lat="45.85568621719022" lon="9.814589678970309"><ele>835.2</ele><time>2026-04-03T13:54:28.999Z</time></trkpt><trkpt lat="45.85561322866466" lon="9.814424864558491"><ele>831.8</ele><time>2026-04-03T13:54:30.999Z</time></trkpt><trkpt lat="45.85556677990347" lon="9.814315685751703"><ele>828.4</ele><time>2026-04-03T13:54:31.999Z</time></trkpt><trkpt lat="45.8555276575725" lon="9.81423256908703"><ele>825.0</ele><time>2026-04-03T13:54:32.999Z</time></trkpt><trkpt lat="45.85548759006842" lon="9.814128037595006"><ele>823.1666666666666</ele><time>2026-04-03T13:54:33.999Z</time></trkpt><trkpt lat="45.8554579533027" lon="9.814026730666523"><ele>821.3333333333333</ele><time>2026-04-03T13:54:34.999Z</time></trkpt><trkpt lat="45.85542535828309" lon="9.81386072343963"><ele>819.5</ele><time>2026-04-03T13:54:36.999Z</time></trkpt><trkpt lat="45.85542128793444" lon="9.813746636756129"><ele>817.6666666666666</ele><time>2026-04-03T13:54:37.999Z</time></trkpt><trkpt lat="45.85540406698449" lon="9.813632594914395"><ele>815.8333333333333</ele><time>2026-04-03T13:54:38.999Z</time></trkpt><trkpt lat="45.8553720256282" lon="9.813514233540223"><ele>814.0</ele><time>2026-04-03T13:54:40.999Z</time></trkpt><trkpt lat="45.855384126459796" lon="9.813394708938663"><ele>810.4000000000001</ele><time>2026-04-03T13:54:41.999Z</time></trkpt><trkpt lat="45.855376896485666" lon="9.813302533736298"><ele>806.8</ele><time>2026-04-03T13:54:42.999Z</time></trkpt><trkpt lat="45.855333830138925" lon="9.81318743116023"><ele>803.2</ele><time>2026-04-03T13:54:44.999Z</time></trkpt><trkpt lat="45.85527366184858" lon="9.81304717023077"><ele>799.5999999999999</ele><time>2026-04-03T13:54:46.999Z</time></trkpt><trkpt lat="45.85523468271491" lon="9.812904419710925"><ele>796.0</ele><time>2026-04-03T13:54:48.998Z</time></trkpt><trkpt lat="45.85519302083136" lon="9.812798788132339"><ele>796.0</ele><time>2026-04-03T13:54:50.998Z</time></trkpt><trkpt lat="45.85515540505265" lon="9.81265649687091"><ele>796.0</ele><time>2026-04-03T13:54:52.998Z</time></trkpt><trkpt lat="45.85512297953756" lon="9.812521344583054"><ele>796.0</ele><time>2026-04-03T13:54:54.998Z</time></trkpt><trkpt lat="45.85510664945702" lon="9.812329340064132"><ele>796.0</ele><time>2026-04-03T13:54:56.998Z</time></trkpt><trkpt lat="45.85509972521319" lon="9.812239009822651"><ele>796.0</ele><time>2026-04-03T13:54:57.998Z</time></trkpt><trkpt lat="45.855072658465964" lon="9.812109137420798"><ele>794.1666666666666</ele><time>2026-04-03T13:54:59.998Z</time></trkpt><trkpt lat="45.85503442479025" lon="9.812012314725672"><ele>792.3333333333333</ele><time>2026-04-03T13:55:00.998Z</time></trkpt><trkpt lat="45.85493766492885" lon="9.811871140769307"><ele>790.5</ele><time>2026-04-03T13:55:02.998Z</time></trkpt><trkpt lat="45.85487283575236" lon="9.8118137166857"><ele>788.6666666666667</ele><time>2026-04-03T13:55:03.998Z</time></trkpt><trkpt lat="45.8548120830705" lon="9.81177086946537"><ele>786.8333333333334</ele><time>2026-04-03T13:55:04.998Z</time></trkpt><trkpt lat="45.85475397119229" lon="9.811710813507052"><ele>785.0</ele><time>2026-04-03T13:55:06.997Z</time></trkpt><trkpt lat="45.854744779974915" lon="9.811608923456655"><ele>785.0</ele><time>2026-04-03T13:55:08.997Z</time></trkpt><trkpt lat="45.85484484510375" lon="9.811573325781922"><ele>785.0</ele><time>2026-04-03T13:55:13.997Z</time></trkpt><trkpt lat="45.85491722098414" lon="9.811565192793584"><ele>785.0</ele><time>2026-04-03T13:55:14.997Z</time></trkpt><trkpt lat="45.85497770116347" lon="9.811440068799712"><ele>785.0</ele><time>2026-04-03T13:55:16.997Z</time></trkpt><trkpt lat="45.85504953056468" lon="9.81135057278817"><ele>785.0</ele><time>2026-04-03T13:55:18.997Z</time></trkpt><trkpt lat="45.855092437497376" lon="9.811251587473974"><ele>785.0</ele><time>2026-04-03T13:55:20.997Z</time></trkpt><trkpt lat="45.85512069360589" lon="9.811157722580392"><ele>785.0</ele><time>2026-04-03T13:55:23.003Z</time></trkpt><trkpt lat="45.85513970300699" lon="9.811070416656568"><ele>785.0</ele><time>2026-04-03T13:55:24.002Z</time></trkpt><trkpt lat="45.85519822318185" lon="9.81088147598664"><ele>785.0</ele><time>2026-04-03T13:55:25.002Z</time></trkpt><trkpt lat="45.85524424905583" lon="9.810710634739975"><ele>785.0</ele><time>2026-04-03T13:55:26.003Z</time></trkpt><trkpt lat="45.855293528130616" lon="9.810534591311715"><ele>782.5</ele><time>2026-04-03T13:55:27.002Z</time></trkpt><trkpt lat="45.85533536830122" lon="9.810357608531831"><ele>780.0</ele><time>2026-04-03T13:55:28.002Z</time></trkpt><trkpt lat="45.855369178313396" lon="9.810176963442299"><ele>777.5</ele><time>2026-04-03T13:55:29.002Z</time></trkpt><trkpt lat="45.85539220844924" lon="9.810017691607571"><ele>775.0</ele><time>2026-04-03T13:55:30.002Z</time></trkpt><trkpt lat="45.85541879907295" lon="9.809907493005776"><ele>775.0</ele><time>2026-04-03T13:55:31.002Z</time></trkpt><trkpt lat="45.85543155729068" lon="9.809817639478075"><ele>775.0</ele><time>2026-04-03T13:55:32.003Z</time></trkpt><trkpt lat="45.85543106679787" lon="9.80969937884229"><ele>775.0</ele><time>2026-04-03T13:55:33.003Z</time></trkpt><trkpt lat="45.85541034659267" lon="9.809452880683864"><ele>775.0</ele><time>2026-04-03T13:55:35.002Z</time></trkpt><trkpt lat="45.85538321771187" lon="9.80930174389306"><ele>775.0</ele><time>2026-04-03T13:55:36.003Z</time></trkpt><trkpt lat="45.85538326649555" lon="9.80917248246222"><ele>777.2</ele><time>2026-04-03T13:55:37.003Z</time></trkpt><trkpt lat="45.855366931432926" lon="9.809047296913143"><ele>779.4</ele><time>2026-04-03T13:55:38.002Z</time></trkpt><trkpt lat="45.855344461481735" lon="9.808888361151858"><ele>781.5999999999999</ele><time>2026-04-03T13:55:39.002Z</time></trkpt><trkpt lat="45.855316611696395" lon="9.80872384378978"><ele>783.8</ele><time>2026-04-03T13:55:40.002Z</time></trkpt><trkpt lat="45.855306936461105" lon="9.808595766811253"><ele>786.0</ele><time>2026-04-03T13:55:41.002Z</time></trkpt><trkpt lat="45.8552901347683" lon="9.808430329207836"><ele>789.5999999999999</ele><time>2026-04-03T13:55:42.002Z</time></trkpt><trkpt lat="45.855293695748735" lon="9.808321649189885"><ele>793.2</ele><time>2026-04-03T13:55:43.002Z</time></trkpt><trkpt lat="45.85527972678663" lon="9.808182150687896"><ele>796.8</ele><time>2026-04-03T13:55:44.002Z</time></trkpt><trkpt lat="45.8552595344171" lon="9.808000995217318"><ele>800.4000000000001</ele><time>2026-04-03T13:55:45.002Z</time></trkpt><trkpt lat="45.855216619575934" lon="9.807839331261325"><ele>804.0</ele><time>2026-04-03T13:55:46.002Z</time></trkpt><trkpt lat="45.85516905428904" lon="9.807639637356951"><ele>809.6</ele><time>2026-04-03T13:55:47.002Z</time></trkpt><trkpt lat="45.85517348914762" lon="9.807549458112756"><ele>815.2</ele><time>2026-04-03T13:55:48.002Z</time></trkpt><trkpt lat="45.855158946277776" lon="9.80740798206965"><ele>820.8000000000001</ele><time>2026-04-03T13:55:49.002Z</time></trkpt><trkpt lat="45.855196331092955" lon="9.807290117302221"><ele>826.4000000000001</ele><time>2026-04-03T13:55:51.002Z</time></trkpt><trkpt lat="45.855286011218936" lon="9.807156679534216"><ele>832.0</ele><time>2026-04-03T13:55:53.002Z</time></trkpt><trkpt lat="45.8552456694314" lon="9.807074967489283"><ele>831.9999999999999</ele><time>2026-04-03T13:55:58.001Z</time></trkpt><trkpt lat="45.855162753838094" lon="9.807083330356425"><ele>832.0</ele><time>2026-04-03T13:56:01.001Z</time></trkpt><trkpt lat="45.85515016042567" lon="9.807174321007933"><ele>832.0</ele><time>2026-04-03T13:56:05.001Z</time></trkpt><trkpt lat="45.855115378224156" lon="9.80729254031606"><ele>832.0</ele><time>2026-04-03T13:56:07.001Z</time></trkpt><trkpt lat="45.85505569298178" lon="9.807383834613454"><ele>831.9999999999999</ele><time>2026-04-03T13:56:10.001Z</time></trkpt><trkpt lat="45.85511929296051" lon="9.80739529502833"><ele>832.0</ele><time>2026-04-03T13:56:11.001Z</time></trkpt><trkpt lat="45.8552434921327" lon="9.80742003127834"><ele>832.0</ele><time>2026-04-03T13:56:12.001Z</time></trkpt><trkpt lat="45.85536323808977" lon="9.807477968919482"><ele>832.0</ele><time>2026-04-03T13:56:13.001Z</time></trkpt><trkpt lat="45.8554909019479" lon="9.807593077820757"><ele>832.0</ele><time>2026-04-03T13:56:14.001Z</time></trkpt><trkpt lat="45.85558301588017" lon="9.807744015690917"><ele>832.0</ele><time>2026-04-03T13:56:15Z</time></trkpt><trkpt lat="45.8557136995245" lon="9.807883789519446"><ele>831.6666666666666</ele><time>2026-04-03T13:56:16Z</time></trkpt><trkpt lat="45.8558741164033" lon="9.807997831041575"><ele>831.3333333333333</ele><time>2026-04-03T13:56:17Z</time></trkpt><trkpt lat="45.855955394130206" lon="9.808017964766195"><ele>831.0</ele><time>2026-04-03T13:56:18Z</time></trkpt><trkpt lat="45.85630609662254" lon="9.808166363333203"><ele>831.0</ele><time>2026-04-03T13:56:19Z</time></trkpt><trkpt lat="45.85653319866146" lon="9.808297257603211"><ele>831.0</ele><time>2026-04-03T13:56:20Z</time></trkpt><trkpt lat="45.85672279658845" lon="9.808446393049481"><ele>832.3333333333333</ele><time>2026-04-03T13:56:21Z</time></trkpt><trkpt lat="45.856870050349144" lon="9.808562311270222"><ele>833.6666666666666</ele><time>2026-04-03T13:56:22Z</time></trkpt><trkpt lat="45.857042226742884" lon="9.808692898784786"><ele>835.0</ele><time>2026-04-03T13:56:23Z</time></trkpt><trkpt lat="45.85720492402648" lon="9.808827945252942"><ele>835.0</ele><time>2026-04-03T13:56:24Z</time></trkpt><trkpt lat="45.857337208150305" lon="9.808976363062472"><ele>835.0</ele><time>2026-04-03T13:56:25Z</time></trkpt><trkpt lat="45.85759513843876" lon="9.808993357731833"><ele>835.0</ele><time>2026-04-03T13:56:28Z</time></trkpt><trkpt lat="45.85769769673143" lon="9.809005890907374"><ele>832.8</ele><time>2026-04-03T13:56:29Z</time></trkpt><trkpt lat="45.8577813102992" lon="9.80902164621015"><ele>830.6</ele><time>2026-04-03T13:56:30Z</time></trkpt><trkpt lat="45.85785635172994" lon="9.809085407006505"><ele>828.4000000000001</ele><time>2026-04-03T13:56:31Z</time></trkpt><trkpt lat="45.85793875669718" lon="9.809147434448322"><ele>826.2</ele><time>2026-04-03T13:56:32Z</time></trkpt><trkpt lat="45.85804016140126" lon="9.809251020216907"><ele>824.0</ele><time>2026-04-03T13:56:32.999Z</time></trkpt><trkpt lat="45.85818680583423" lon="9.80935642668367"><ele>824.0</ele><time>2026-04-03T13:56:33.999Z</time></trkpt><trkpt lat="45.85826369693885" lon="9.809420470666254"><ele>824.0</ele><time>2026-04-03T13:56:34.999Z</time></trkpt><trkpt lat="45.858331948109694" lon="9.809462833115466"><ele>824.0</ele><time>2026-04-03T13:56:35.999Z</time></trkpt><trkpt lat="45.85842752202778" lon="9.80949354687212"><ele>824.0</ele><time>2026-04-03T13:56:36.999Z</time></trkpt><trkpt lat="45.85857542423114" lon="9.809541092690665"><ele>824.0</ele><time>2026-04-03T13:56:37.999Z</time></trkpt><trkpt lat="45.858702473947936" lon="9.80961313831293"><ele>828.25</ele><time>2026-04-03T13:56:38.999Z</time></trkpt><trkpt lat="45.85887355273185" lon="9.809706028754043"><ele>832.5</ele><time>2026-04-03T13:56:39.999Z</time></trkpt><trkpt lat="45.85901121973805" lon="9.809727899660794"><ele>836.75</ele><time>2026-04-03T13:56:40.999Z</time></trkpt><trkpt lat="45.85910029396265" lon="9.80979592745625"><ele>841.0</ele><time>2026-04-03T13:56:41.999Z</time></trkpt><trkpt lat="45.85938040292" lon="9.809824440237866"><ele>847.0</ele><time>2026-04-03T13:56:46.999Z</time></trkpt><trkpt lat="45.859460259789344" lon="9.80984408260947"><ele>853.0</ele><time>2026-04-03T13:56:49.999Z</time></trkpt><trkpt lat="45.859530063482325" lon="9.809871156432818"><ele>858.9999999999999</ele><time>2026-04-03T13:56:52.998Z</time></trkpt><trkpt lat="45.85962693669255" lon="9.809950800011807"><ele>865.0</ele><time>2026-04-03T13:56:54.998Z</time></trkpt><trkpt lat="45.85968936420841" lon="9.810023736940527"><ele>871.0</ele><time>2026-04-03T13:56:56.998Z</time></trkpt><trkpt lat="45.85998509644279" lon="9.810066782560442"><ele>872.25</ele><time>2026-04-03T13:57:00.998Z</time></trkpt><trkpt lat="45.86020964505164" lon="9.810128154135299"><ele>873.5</ele><time>2026-04-03T13:57:03.998Z</time></trkpt><trkpt lat="45.86028494972682" lon="9.81014779675803"><ele>874.75</ele><time>2026-04-03T13:57:04.998Z</time></trkpt><trkpt lat="45.86033919639898" lon="9.81022040705349"><ele>876.0</ele><time>2026-04-03T13:57:06.998Z</time></trkpt><trkpt lat="45.8603746202819" lon="9.810337368205598"><ele>876.0</ele><time>2026-04-03T13:57:07.998Z</time></trkpt><trkpt lat="45.86047783609105" lon="9.810425086149289"><ele>876.0</ele><time>2026-04-03T13:57:08.998Z</time></trkpt><trkpt lat="45.86058258683683" lon="9.81050331766922"><ele>876.0</ele><time>2026-04-03T13:57:09.997Z</time></trkpt><trkpt lat="45.86072630047397" lon="9.810617264324497"><ele>876.0</ele><time>2026-04-03T13:57:11.997Z</time></trkpt><trkpt lat="45.860810973938435" lon="9.810685509671313"><ele>876.0</ele><time>2026-04-03T13:57:12.997Z</time></trkpt><trkpt lat="45.86090725637963" lon="9.810765477697945"><ele>875.9999999999999</ele><time>2026-04-03T13:57:13.997Z</time></trkpt><trkpt lat="45.86094562048116" lon="9.810840185111893"><ele>875.9999999999999</ele><time>2026-04-03T13:57:15.997Z</time></trkpt><trkpt lat="45.861018967875935" lon="9.810946588274339"><ele>876.0</ele><time>2026-04-03T13:57:17.997Z</time></trkpt><trkpt lat="45.86110851037044" lon="9.810999357208095"><ele>876.0</ele><time>2026-04-03T13:57:18.997Z</time></trkpt><trkpt lat="45.861203760402304" lon="9.8111859662823"><ele>875.75</ele><time>2026-04-03T13:57:20.997Z</time></trkpt><trkpt lat="45.861274977657224" lon="9.811248775999358"><ele>875.5</ele><time>2026-04-03T13:57:21.997Z</time></trkpt><trkpt lat="45.8613060713488" lon="9.81134329829414"><ele>875.25</ele><time>2026-04-03T13:57:22.997Z</time></trkpt><trkpt lat="45.86139317847401" lon="9.811415843500145"><ele>875.0</ele><time>2026-04-03T13:57:23.997Z</time></trkpt><trkpt lat="45.8619829922896" lon="9.811267555546"><ele>882.3333333333334</ele><time>2026-04-03T13:57:24.997Z</time></trkpt><trkpt lat="45.86215529823674" lon="9.811306124679179"><ele>889.6666666666667</ele><time>2026-04-03T13:57:25.997Z</time></trkpt><trkpt lat="45.8623991483179" lon="9.811481293113854"><ele>897.0</ele><time>2026-04-03T13:57:27.997Z</time></trkpt><trkpt lat="45.86250368900476" lon="9.811542412862627"><ele>901.25</ele><time>2026-04-03T13:57:29.002Z</time></trkpt><trkpt lat="45.86263840810364" lon="9.811563719109571"><ele>905.5</ele><time>2026-04-03T13:57:30.002Z</time></trkpt><trkpt lat="45.86278094725364" lon="9.811603825863198"><ele>909.75</ele><time>2026-04-03T13:57:31.002Z</time></trkpt><trkpt lat="45.8628934985755" lon="9.811692305779237"><ele>914.0</ele><time>2026-04-03T13:57:32.002Z</time></trkpt><trkpt lat="45.86299749160792" lon="9.811762213127436"><ele>914.0</ele><time>2026-04-03T13:57:33.002Z</time></trkpt><trkpt lat="45.863093666743374" lon="9.81180395687486"><ele>914.0000000000001</ele><time>2026-04-03T13:57:34.002Z</time></trkpt><trkpt lat="45.86319470318052" lon="9.8118164386718"><ele>914.0000000000001</ele><time>2026-04-03T13:57:35.002Z</time></trkpt><trkpt lat="45.863332734380315" lon="9.811862890382782"><ele>914.0</ele><time>2026-04-03T13:57:36.003Z</time></trkpt><trkpt lat="45.863407788376136" lon="9.811879466744697"><ele>914.0</ele><time>2026-04-03T13:57:37.003Z</time></trkpt><trkpt lat="45.86349238036485" lon="9.811866095921982"><ele>910.6666666666667</ele><time>2026-04-03T13:57:38.003Z</time></trkpt><trkpt lat="45.8635686544112" lon="9.811840804343023"><ele>907.3333333333334</ele><time>2026-04-03T13:57:39.002Z</time></trkpt><trkpt lat="45.86365427567359" lon="9.811816726749498"><ele>904.0</ele><time>2026-04-03T13:57:40.002Z</time></trkpt><trkpt lat="45.86372874352294" lon="9.811767164601308"><ele>900.6666666666667</ele><time>2026-04-03T13:57:41.002Z</time></trkpt><trkpt lat="45.86381120518781" lon="9.8117104330804"><ele>897.3333333333334</ele><time>2026-04-03T13:57:42.002Z</time></trkpt><trkpt lat="45.863889994138994" lon="9.811664234723644"><ele>894.0</ele><time>2026-04-03T13:57:43.002Z</time></trkpt><trkpt lat="45.86395477123796" lon="9.811625673583254"><ele>894.0</ele><time>2026-04-03T13:57:44.002Z</time></trkpt><trkpt lat="45.864016398580915" lon="9.811562588717514"><ele>894.0</ele><time>2026-04-03T13:57:45.002Z</time></trkpt><trkpt lat="45.86404822373546" lon="9.811480380539498"><ele>894.0</ele><time>2026-04-03T13:57:46.002Z</time></trkpt><trkpt lat="45.8640406683939" lon="9.811332621719718"><ele>894.0</ele><time>2026-04-03T13:57:48.002Z</time></trkpt><trkpt lat="45.864091416796285" lon="9.811277489449386"><ele>894.0</ele><time>2026-04-03T13:57:50.002Z</time></trkpt><trkpt lat="45.86419751305246" lon="9.81121163269985"><ele>894.0</ele><time>2026-04-03T13:57:52.002Z</time></trkpt><trkpt lat="45.86424912995213" lon="9.811150306431514"><ele>890.0</ele><time>2026-04-03T13:57:53.002Z</time></trkpt><trkpt lat="45.86432368169674" lon="9.81111458571884"><ele>886.0000000000001</ele><time>2026-04-03T13:57:54.002Z</time></trkpt><trkpt lat="45.86439779210651" lon="9.811041750600955"><ele>882.0000000000001</ele><time>2026-04-03T13:57:56.002Z</time></trkpt><trkpt lat="45.864453489395814" lon="9.810874008023807"><ele>878.0</ele><time>2026-04-03T13:57:58.002Z</time></trkpt><trkpt lat="45.86445834420416" lon="9.810754280464765"><ele>874.0</ele><time>2026-04-03T13:57:59.002Z</time></trkpt><trkpt lat="45.86448194759375" lon="9.810618269549117"><ele>873.9999999999999</ele><time>2026-04-03T13:58:00.002Z</time></trkpt><trkpt lat="45.864483630319086" lon="9.810503702522713"><ele>874.0</ele><time>2026-04-03T13:58:01.001Z</time></trkpt><trkpt lat="45.86448696992042" lon="9.81040165795762"><ele>874.0</ele><time>2026-04-03T13:58:03.001Z</time></trkpt><trkpt lat="45.864582131800546" lon="9.810340949850218"><ele>874.0</ele><time>2026-04-03T13:58:05.001Z</time></trkpt><trkpt lat="45.86464950173271" lon="9.810404672385637"><ele>873.9999999999999</ele><time>2026-04-03T13:58:07.001Z</time></trkpt><trkpt lat="45.86473527224107" lon="9.810318185567645"><ele>874.0</ele><time>2026-04-03T13:58:09.001Z</time></trkpt><trkpt lat="45.864796010517594" lon="9.810165629143546"><ele>875.4000000000001</ele><time>2026-04-03T13:58:10.001Z</time></trkpt><trkpt lat="45.86482058859438" lon="9.810018792709311"><ele>876.8000000000001</ele><time>2026-04-03T13:58:11.001Z</time></trkpt><trkpt lat="45.86486082443669" lon="9.809921987672682"><ele>878.1999999999999</ele><time>2026-04-03T13:58:12.001Z</time></trkpt><trkpt lat="45.86493040948485" lon="9.809783004863599"><ele>879.5999999999999</ele><time>2026-04-03T13:58:14.001Z</time></trkpt><trkpt lat="45.865013266052905" lon="9.80969516716609"><ele>881.0</ele><time>2026-04-03T13:58:16.001Z</time></trkpt><trkpt lat="45.86506330585821" lon="9.809610981783505"><ele>881.0</ele><time>2026-04-03T13:58:17.001Z</time></trkpt><trkpt lat="45.865111994587615" lon="9.809507611749032"><ele>881.0</ele><time>2026-04-03T13:58:18.001Z</time></trkpt><trkpt lat="45.865159052776896" lon="9.809328897259174"><ele>881.0</ele><time>2026-04-03T13:58:20Z</time></trkpt><trkpt lat="45.865169542746884" lon="9.809151341527052"><ele>881.0</ele><time>2026-04-03T13:58:21Z</time></trkpt><trkpt lat="45.86518563139735" lon="9.808959522425328"><ele>876.8333333333334</ele><time>2026-04-03T13:58:22Z</time></trkpt><trkpt lat="45.86522006000476" lon="9.808880644338277"><ele>872.6666666666667</ele><time>2026-04-03T13:58:23Z</time></trkpt><trkpt lat="45.86528825071615" lon="9.808845345840085"><ele>868.5</ele><time>2026-04-03T13:58:26Z</time></trkpt><trkpt lat="45.86536405960271" lon="9.808804638736152"><ele>864.3333333333333</ele><time>2026-04-03T13:58:27Z</time></trkpt><trkpt lat="45.86543126700121" lon="9.808739429662806"><ele>860.1666666666666</ele><time>2026-04-03T13:58:28Z</time></trkpt><trkpt lat="45.86550420128014" lon="9.808599851950934"><ele>856.0</ele><time>2026-04-03T13:58:29Z</time></trkpt><trkpt lat="45.865583369802344" lon="9.808468524908518"><ele>856.0</ele><time>2026-04-03T13:58:30Z</time></trkpt><trkpt lat="45.86562177390464" lon="9.808396546846634"><ele>855.9999999999999</ele><time>2026-04-03T13:58:31Z</time></trkpt><trkpt lat="45.865648182190675" lon="9.808310939996376"><ele>855.9999999999999</ele><time>2026-04-03T13:58:32Z</time></trkpt><trkpt lat="45.86564374135626" lon="9.808166621710635"><ele>856.0</ele><time>2026-04-03T13:58:33Z</time></trkpt><trkpt lat="45.86564164215003" lon="9.807976685570896"><ele>856.0</ele><time>2026-04-03T13:58:34Z</time></trkpt><trkpt lat="45.86564611915458" lon="9.807831714114831"><ele>858.1999999999999</ele><time>2026-04-03T13:58:35Z</time></trkpt><trkpt lat="45.865578345932384" lon="9.807656788262046"><ele>860.3999999999999</ele><time>2026-04-03T13:58:37Z</time></trkpt><trkpt lat="45.86556296440384" lon="9.807567081582585"><ele>862.6</ele><time>2026-04-03T13:58:37.999Z</time></trkpt><trkpt lat="45.86560130752131" lon="9.807414252033048"><ele>864.8</ele><time>2026-04-03T13:58:39.999Z</time></trkpt><trkpt lat="45.86559058386372" lon="9.807314032283399"><ele>867.0</ele><time>2026-04-03T13:58:41.999Z</time></trkpt><trkpt lat="45.865569170139096" lon="9.807201229229154"><ele>867.0</ele><time>2026-04-03T13:58:42.999Z</time></trkpt><trkpt lat="45.86554212162871" lon="9.807079137839565"><ele>867.0</ele><time>2026-04-03T13:58:43.999Z</time></trkpt><trkpt lat="45.865542997618746" lon="9.806930765325143"><ele>867.0</ele><time>2026-04-03T13:58:44.999Z</time></trkpt><trkpt lat="45.86557615480818" lon="9.806827146421453"><ele>867.0</ele><time>2026-04-03T13:58:45.999Z</time></trkpt><trkpt lat="45.86562047180059" lon="9.806648442274618"><ele>867.0</ele><time>2026-04-03T13:58:47.999Z</time></trkpt><trkpt lat="45.8656063957305" lon="9.806489308447315"><ele>869.0</ele><time>2026-04-03T13:58:48.999Z</time></trkpt><trkpt lat="45.86562681284811" lon="9.806301937461209"><ele>871.0</ele><time>2026-04-03T13:58:49.999Z</time></trkpt><trkpt lat="45.86561447547633" lon="9.806071876202083"><ele>873.0</ele><time>2026-04-03T13:58:50.999Z</time></trkpt><trkpt lat="45.86560513151544" lon="9.805853485141144"><ele>875.0</ele><time>2026-04-03T13:58:51.999Z</time></trkpt><trkpt lat="45.865619917393055" lon="9.805686495965373"><ele>876.3333333333334</ele><time>2026-04-03T13:58:52.999Z</time></trkpt><trkpt lat="45.86561937520784" lon="9.805521235209953"><ele>877.6666666666667</ele><time>2026-04-03T13:58:53.999Z</time></trkpt><trkpt lat="45.86561704791625" lon="9.80540617692915"><ele>879.0</ele><time>2026-04-03T13:58:54.999Z</time></trkpt><trkpt lat="45.86558921433906" lon="9.805259402224912"><ele>880.3333333333333</ele><time>2026-04-03T13:58:57.998Z</time></trkpt><trkpt lat="45.86559833587031" lon="9.80515758117856"><ele>881.6666666666666</ele><time>2026-04-03T13:58:58.998Z</time></trkpt><trkpt lat="45.86566020748543" lon="9.805110636622402"><ele>883.0</ele><time>2026-04-03T13:58:59.998Z</time></trkpt><trkpt lat="45.86571442297718" lon="9.804842515095412"><ele>905.0</ele><time>2026-04-03T13:59:03.998Z</time></trkpt><trkpt lat="45.86588542199237" lon="9.804164412951016"><ele>905.0</ele><time>2026-04-03T13:59:04.998Z</time></trkpt><trkpt lat="45.86592663736332" lon="9.803990023603394"><ele>905.0</ele><time>2026-04-03T13:59:05.998Z</time></trkpt><trkpt lat="45.865955561289695" lon="9.80381931224704"><ele>905.0</ele><time>2026-04-03T13:59:06.998Z</time></trkpt><trkpt lat="45.865966616442876" lon="9.803643420500368"><ele>905.0</ele><time>2026-04-03T13:59:07.998Z</time></trkpt><trkpt lat="45.86598957412118" lon="9.803471652154634"><ele>903.75</ele><time>2026-04-03T13:59:08.998Z</time></trkpt><trkpt lat="45.86600788745683" lon="9.803299254306165"><ele>902.5</ele><time>2026-04-03T13:59:09.998Z</time></trkpt><trkpt lat="45.86603969747144" lon="9.80315181298736"><ele>901.25</ele><time>2026-04-03T13:59:10.998Z</time></trkpt><trkpt lat="45.86610130934028" lon="9.803012656763778"><ele>900.0</ele><time>2026-04-03T13:59:12.998Z</time></trkpt><trkpt lat="45.86621199866686" lon="9.80292516006301"><ele>900.0</ele><time>2026-04-03T13:59:14.997Z</time></trkpt><trkpt lat="45.8663001796856" lon="9.802820832827443"><ele>900.0</ele><time>2026-04-03T13:59:16.997Z</time></trkpt><trkpt lat="45.86637217112458" lon="9.802681778811566"><ele>900.0</ele><time>2026-04-03T13:59:18.997Z</time></trkpt><trkpt lat="45.866442528039876" lon="9.802575556276976"><ele>900.0</ele><time>2026-04-03T13:59:20.997Z</time></trkpt><trkpt lat="45.86652147163135" lon="9.802505058301094"><ele>900.0</ele><time>2026-04-03T13:59:22.997Z</time></trkpt><trkpt lat="45.86672887130189" lon="9.802433305192787"><ele>898.0</ele><time>2026-04-03T13:59:26.997Z</time></trkpt><trkpt lat="45.866811483663554" lon="9.802321374570328"><ele>896.0</ele><time>2026-04-03T13:59:27.997Z</time></trkpt><trkpt lat="45.866878399183314" lon="9.802223227948437"><ele>894.0</ele><time>2026-04-03T13:59:28.997Z</time></trkpt><trkpt lat="45.86693459998515" lon="9.802162837022895"><ele>892.0</ele><time>2026-04-03T13:59:29.997Z</time></trkpt><trkpt lat="45.867032358098484" lon="9.802094625023644"><ele>890.0</ele><time>2026-04-03T13:59:31.997Z</time></trkpt><trkpt lat="45.86710439878299" lon="9.801917194538825"><ele>893.6</ele><time>2026-04-03T13:59:33.996Z</time></trkpt><trkpt lat="45.867125631456695" lon="9.801807306400233"><ele>897.2</ele><time>2026-04-03T13:59:35.003Z</time></trkpt><trkpt lat="45.867184955324575" lon="9.801674487713145"><ele>900.8</ele><time>2026-04-03T13:59:36.003Z</time></trkpt><trkpt lat="45.8672345580355" lon="9.801560633470196"><ele>904.4</ele><time>2026-04-03T13:59:37.002Z</time></trkpt><trkpt lat="45.867347734214015" lon="9.801481650285808"><ele>908.0</ele><time>2026-04-03T13:59:40.003Z</time></trkpt><trkpt lat="45.86741587533525" lon="9.801436878558585"><ele>908.0</ele><time>2026-04-03T13:59:42.002Z</time></trkpt><trkpt lat="45.86747023680841" lon="9.801317356531953"><ele>908.0</ele><time>2026-04-03T13:59:44.003Z</time></trkpt><trkpt lat="45.86754784515431" lon="9.801236703342303"><ele>908.0</ele><time>2026-04-03T13:59:46.002Z</time></trkpt><trkpt lat="45.86760715862546" lon="9.801203746140162"><ele>908.0</ele><time>2026-04-03T13:59:48.002Z</time></trkpt><trkpt lat="45.86769545024852" lon="9.80131214574279"><ele>908.0</ele><time>2026-04-03T13:59:58.002Z</time></trkpt><trkpt lat="45.8679259235577" lon="9.801315271360675"><ele>910.1666666666667</ele><time>2026-04-03T14:00:03.002Z</time></trkpt><trkpt lat="45.867988997267524" lon="9.801336471802788"><ele>912.3333333333334</ele><time>2026-04-03T14:00:05.002Z</time></trkpt><trkpt lat="45.86806118237839" lon="9.801383003022883"><ele>914.5</ele><time>2026-04-03T14:00:09.001Z</time></trkpt><trkpt lat="45.86818871184204" lon="9.801433977374876"><ele>916.6666666666667</ele><time>2026-04-03T14:00:16.001Z</time></trkpt><trkpt lat="45.86825326902115" lon="9.801426197624975"><ele>918.8333333333334</ele><time>2026-04-03T14:01:08.998Z</time></trkpt><trkpt lat="45.86833628782301" lon="9.801400678502594"><ele>921.0</ele><time>2026-04-03T14:04:24.001Z</time></trkpt><trkpt lat="45.86837769875304" lon="9.801312004537364"><ele>921.0000000000001</ele><time>2026-04-03T14:04:27.001Z</time></trkpt><trkpt lat="45.868411473151966" lon="9.801228588028799"><ele>921.0</ele><time>2026-04-03T14:04:31.001Z</time></trkpt><trkpt lat="45.86844388113172" lon="9.801336137330035"><ele>921.0000000000001</ele><time>2026-04-03T14:04:41Z</time></trkpt><trkpt lat="45.868495473163776" lon="9.801415886505861"><ele>921.0000000000001</ele><time>2026-04-03T14:04:43Z</time></trkpt><trkpt lat="45.86856267551281" lon="9.801482073993888"><ele>921.0</ele><time>2026-04-03T14:04:47Z</time></trkpt><trkpt lat="45.86857657087161" lon="9.801593472090879"><ele>921.0000000000001</ele><time>2026-04-03T14:04:49Z</time></trkpt><trkpt lat="45.868605452084985" lon="9.801674160867606"><ele>921.0000000000001</ele><time>2026-04-03T14:04:50Z</time></trkpt><trkpt lat="45.86862338493486" lon="9.801768760504912"><ele>922.8333333333334</ele><time>2026-04-03T14:04:51Z</time></trkpt><trkpt lat="45.86867031200453" lon="9.801857080520932"><ele>924.6666666666667</ele><time>2026-04-03T14:04:52Z</time></trkpt><trkpt lat="45.868736295916705" lon="9.8019274472251"><ele>926.5</ele><time>2026-04-03T14:04:54Z</time></trkpt><trkpt lat="45.86877128563998" lon="9.802004773171873"><ele>928.3333333333334</ele><time>2026-04-03T14:04:56Z</time></trkpt><trkpt lat="45.86882846503179" lon="9.802101944520407"><ele>930.1666666666667</ele><time>2026-04-03T14:04:58Z</time></trkpt><trkpt lat="45.86889961474012" lon="9.802195801904851"><ele>932.0</ele><time>2026-04-03T14:04:59.999Z</time></trkpt><trkpt lat="45.8689526347878" lon="9.802253196218624"><ele>932.0</ele><time>2026-04-03T14:05:01.999Z</time></trkpt><trkpt lat="45.869067493632606" lon="9.802310242892167"><ele>932.0</ele><time>2026-04-03T14:05:03.999Z</time></trkpt><trkpt lat="45.869164966845595" lon="9.802318125338786"><ele>932.0</ele><time>2026-04-03T14:05:04.999Z</time></trkpt><trkpt lat="45.869301347616364" lon="9.802296076576717"><ele>932.0</ele><time>2026-04-03T14:05:05.999Z</time></trkpt><trkpt lat="45.86943162328458" lon="9.802283400271492"><ele>935.0</ele><time>2026-04-03T14:05:06.999Z</time></trkpt><trkpt lat="45.869565559983236" lon="9.802265285089893"><ele>938.0</ele><time>2026-04-03T14:05:07.999Z</time></trkpt><trkpt lat="45.86965879020186" lon="9.802229199651684"><ele>941.0</ele><time>2026-04-03T14:05:08.999Z</time></trkpt><trkpt lat="45.86971561762958" lon="9.802166091286361"><ele>944.0</ele><time>2026-04-03T14:05:09.999Z</time></trkpt><trkpt lat="45.86977779552235" lon="9.80214851423504"><ele>947.0</ele><time>2026-04-03T14:05:10.999Z</time></trkpt><trkpt lat="45.86986521012804" lon="9.802273628870086"><ele>947.0</ele><time>2026-04-03T14:05:12.999Z</time></trkpt><trkpt lat="45.870046899590115" lon="9.802344287556096"><ele>947.0</ele><time>2026-04-03T14:05:14.999Z</time></trkpt><trkpt lat="45.87015736623865" lon="9.802346245145879"><ele>947.0</ele><time>2026-04-03T14:05:15.999Z</time></trkpt><trkpt lat="45.870217052344316" lon="9.802400364662136"><ele>947.0</ele><time>2026-04-03T14:05:16.998Z</time></trkpt><trkpt lat="45.87028654627284" lon="9.802382873274562"><ele>947.0</ele><time>2026-04-03T14:05:19.998Z</time></trkpt><trkpt lat="45.87023788944208" lon="9.80244963488479"><ele>949.2</ele><time>2026-04-03T14:05:23.998Z</time></trkpt><trkpt lat="45.8701680841213" lon="9.80251500177432"><ele>951.4000000000001</ele><time>2026-04-03T14:05:25.998Z</time></trkpt><trkpt lat="45.8701700416631" lon="9.802685371054789"><ele>953.5999999999999</ele><time>2026-04-03T14:05:27.998Z</time></trkpt><trkpt lat="45.87023829517059" lon="9.802808870861012"><ele>955.8</ele><time>2026-04-03T14:05:29.998Z</time></trkpt><trkpt lat="45.87030948974252" lon="9.802919989843812"><ele>958.0</ele><time>2026-04-03T14:05:31.998Z</time></trkpt><trkpt lat="45.870360120806694" lon="9.802979704425772"><ele>958.0</ele><time>2026-04-03T14:05:32.998Z</time></trkpt><trkpt lat="45.87052356241514" lon="9.803071806093083"><ele>958.0</ele><time>2026-04-03T14:05:34.998Z</time></trkpt><trkpt lat="45.870632842897365" lon="9.803093509305013"><ele>958.0</ele><time>2026-04-03T14:05:35.997Z</time></trkpt><trkpt lat="45.87072565516122" lon="9.803124404475309"><ele>958.0</ele><time>2026-04-03T14:05:36.997Z</time></trkpt><trkpt lat="45.87083480328958" lon="9.803158663549631"><ele>962.0</ele><time>2026-04-03T14:05:38.997Z</time></trkpt><trkpt lat="45.870952611426326" lon="9.803212873888787"><ele>966.0</ele><time>2026-04-03T14:05:40.997Z</time></trkpt><trkpt lat="45.8710450401321" lon="9.80323754718221"><ele>970.0</ele><time>2026-04-03T14:05:42.997Z</time></trkpt><trkpt lat="45.87115190725867" lon="9.803310212373198"><ele>974.0</ele><time>2026-04-03T14:05:43.997Z</time></trkpt><trkpt lat="45.87130463394709" lon="9.803316112041013"><ele>974.0</ele><time>2026-04-03T14:05:45.997Z</time></trkpt><trkpt lat="45.871372098794005" lon="9.80334999341524"><ele>974.0000000000001</ele><time>2026-04-03T14:05:46.997Z</time></trkpt><trkpt lat="45.87149531262953" lon="9.80343805409603"><ele>974.0000000000001</ele><time>2026-04-03T14:05:48.997Z</time></trkpt><trkpt lat="45.871600359680606" lon="9.803515518580264"><ele>974.0</ele><time>2026-04-03T14:05:49.997Z</time></trkpt><trkpt lat="45.87169747012803" lon="9.803563866707377"><ele>974.0</ele><time>2026-04-03T14:05:50.997Z</time></trkpt><trkpt lat="45.87179208481373" lon="9.803596405320336"><ele>962.0</ele><time>2026-04-03T14:05:51.997Z</time></trkpt><trkpt lat="45.871891682415054" lon="9.803619785571525"><ele>950.0000000000001</ele><time>2026-04-03T14:05:53.003Z</time></trkpt><trkpt lat="45.87196757249505" lon="9.803641099071008"><ele>938.0000000000001</ele><time>2026-04-03T14:05:54.003Z</time></trkpt><trkpt lat="45.87206802164393" lon="9.803628001842439"><ele>926.0</ele><time>2026-04-03T14:05:55.003Z</time></trkpt><trkpt lat="45.872157482623344" lon="9.80360644227356"><ele>914.0</ele><time>2026-04-03T14:05:56.003Z</time></trkpt><trkpt lat="45.87225156098357" lon="9.8035720824677"><ele>914.0000000000001</ele><time>2026-04-03T14:05:57.003Z</time></trkpt><trkpt lat="45.87234078069054" lon="9.803526628457861"><ele>914.0</ele><time>2026-04-03T14:05:58.003Z</time></trkpt><trkpt lat="45.87240725066295" lon="9.803456384999608"><ele>914.0</ele><time>2026-04-03T14:05:59.003Z</time></trkpt><trkpt lat="45.87246854100793" lon="9.803413136487253"><ele>914.0</ele><time>2026-04-03T14:06:00.003Z</time></trkpt><trkpt lat="45.87251279504475" lon="9.803344893900501"><ele>914.0000000000001</ele><time>2026-04-03T14:06:01.002Z</time></trkpt><trkpt lat="45.87257206978732" lon="9.80328071582978"><ele>914.0</ele><time>2026-04-03T14:06:02.002Z</time></trkpt><trkpt lat="45.87266903792751" lon="9.80315977154774"><ele>921.2</ele><time>2026-04-03T14:06:04.002Z</time></trkpt><trkpt lat="45.872746079358066" lon="9.803090608626654"><ele>928.4000000000001</ele><time>2026-04-03T14:06:05.003Z</time></trkpt><trkpt lat="45.87281150779531" lon="9.803041992832753"><ele>935.6</ele><time>2026-04-03T14:06:06.003Z</time></trkpt><trkpt lat="45.87287048483835" lon="9.802998759394525"><ele>942.8</ele><time>2026-04-03T14:06:07.003Z</time></trkpt><trkpt lat="45.87296727399631" lon="9.803023152042234"><ele>950.0</ele><time>2026-04-03T14:06:09.003Z</time></trkpt><trkpt lat="45.872996226471685" lon="9.803210180804664"><ele>950.0</ele><time>2026-04-03T14:06:11.002Z</time></trkpt><trkpt lat="45.873022711691576" lon="9.803380040531573"><ele>950.0</ele><time>2026-04-03T14:06:12.002Z</time></trkpt><trkpt lat="45.87306471301907" lon="9.803507357262898"><ele>950.0</ele><time>2026-04-03T14:06:13.002Z</time></trkpt><trkpt lat="45.873111482126674" lon="9.803618451485587"><ele>950.0</ele><time>2026-04-03T14:06:14.002Z</time></trkpt><trkpt lat="45.87315135462123" lon="9.8037297379738"><ele>950.0</ele><time>2026-04-03T14:06:15.002Z</time></trkpt><trkpt lat="45.87320706502667" lon="9.803849364790977"><ele>950.6</ele><time>2026-04-03T14:06:16.002Z</time></trkpt><trkpt lat="45.873259827040094" lon="9.803947413399555"><ele>951.2</ele><time>2026-04-03T14:06:17.002Z</time></trkpt><trkpt lat="45.8733050294275" lon="9.804012993922047"><ele>951.8</ele><time>2026-04-03T14:06:18.002Z</time></trkpt><trkpt lat="45.873354008052885" lon="9.804174564773906"><ele>952.4</ele><time>2026-04-03T14:06:20.002Z</time></trkpt><trkpt lat="45.873392026870555" lon="9.804288650334133"><ele>953.0</ele><time>2026-04-03T14:06:21.002Z</time></trkpt><trkpt lat="45.873440821507856" lon="9.804410952039747"><ele>953.0</ele><time>2026-04-03T14:06:22.002Z</time></trkpt><trkpt lat="45.873493518489795" lon="9.804520271627666"><ele>953.0</ele><time>2026-04-03T14:06:23.002Z</time></trkpt><trkpt lat="45.8735474388122" lon="9.804613045930084"><ele>953.0</ele><time>2026-04-03T14:06:24.002Z</time></trkpt><trkpt lat="45.87359959451058" lon="9.804683128919422"><ele>953.0</ele><time>2026-04-03T14:06:25.002Z</time></trkpt><trkpt lat="45.87365326019553" lon="9.804734911363967"><ele>953.0</ele><time>2026-04-03T14:06:26.002Z</time></trkpt><trkpt lat="45.87369823721639" lon="9.80479836393689"><ele>953.0</ele><time>2026-04-03T14:06:27.002Z</time></trkpt><trkpt lat="45.87374990714949" lon="9.804859105515341"><ele>953.0</ele><time>2026-04-03T14:06:28.002Z</time></trkpt><trkpt lat="45.87379535568076" lon="9.804953207544349"><ele>953.0</ele><time>2026-04-03T14:06:29.002Z</time></trkpt><trkpt lat="45.87384247441253" lon="9.805090607690326"><ele>953.0</ele><time>2026-04-03T14:06:30.001Z</time></trkpt><trkpt lat="45.87392959362002" lon="9.805218426480746"><ele>953.0</ele><time>2026-04-03T14:06:32.001Z</time></trkpt><trkpt lat="45.87396129134015" lon="9.805307691242813"><ele>953.0</ele><time>2026-04-03T14:06:33.001Z</time></trkpt><trkpt lat="45.87400050168724" lon="9.805424891056111"><ele>953.0</ele><time>2026-04-03T14:06:35.001Z</time></trkpt><trkpt lat="45.874038245463176" lon="9.805524360006116"><ele>951.5999999999999</ele><time>2026-04-03T14:06:37.001Z</time></trkpt><trkpt lat="45.87412313243782" lon="9.805649680989472"><ele>950.1999999999999</ele><time>2026-04-03T14:06:40.001Z</time></trkpt><trkpt lat="45.87420012910997" lon="9.805703525224752"><ele>948.8</ele><time>2026-04-03T14:06:41.001Z</time></trkpt><trkpt lat="45.87432841863142" lon="9.805705742673608"><ele>947.4</ele><time>2026-04-03T14:06:43.001Z</time></trkpt><trkpt lat="45.874419069208756" lon="9.805731259796653"><ele>946.0</ele><time>2026-04-03T14:06:45.001Z</time></trkpt><trkpt lat="45.87452628345066" lon="9.805690583803255"><ele>946.0</ele><time>2026-04-03T14:06:47.001Z</time></trkpt><trkpt lat="45.87466535414009" lon="9.805667840394499"><ele>945.9999999999999</ele><time>2026-04-03T14:06:50Z</time></trkpt><trkpt lat="45.874742610430054" lon="9.805648529842479"><ele>945.9999999999999</ele><time>2026-04-03T14:06:51Z</time></trkpt><trkpt lat="45.874828957257904" lon="9.805617028570008"><ele>946.0</ele><time>2026-04-03T14:06:52Z</time></trkpt><trkpt lat="45.87491388712186" lon="9.80554959459314"><ele>946.0</ele><time>2026-04-03T14:06:53Z</time></trkpt><trkpt lat="45.87497748717393" lon="9.80553489561997"><ele>946.0</ele><time>2026-04-03T14:06:54Z</time></trkpt><trkpt lat="45.87504776268041" lon="9.805502226278128"><ele>945.9999999999999</ele><time>2026-04-03T14:06:55Z</time></trkpt><trkpt lat="45.875129469735086" lon="9.805463182524004"><ele>945.9999999999999</ele><time>2026-04-03T14:06:56Z</time></trkpt><trkpt lat="45.875213276569085" lon="9.805459395837172"><ele>946.0</ele><time>2026-04-03T14:06:57Z</time></trkpt><trkpt lat="45.87541524609458" lon="9.805434659080179"><ele>946.0</ele><time>2026-04-03T14:07:00Z</time></trkpt><trkpt lat="45.87547730853116" lon="9.80541624319601"><ele>944.3333333333333</ele><time>2026-04-03T14:07:01Z</time></trkpt><trkpt lat="45.875570997446935" lon="9.805329087732098"><ele>942.6666666666666</ele><time>2026-04-03T14:07:03Z</time></trkpt><trkpt lat="45.87556519369936" lon="9.8051948869782"><ele>941.0</ele><time>2026-04-03T14:07:06Z</time></trkpt><trkpt lat="45.87552708406624" lon="9.805114550151396"><ele>939.3333333333333</ele><time>2026-04-03T14:07:08.999Z</time></trkpt><trkpt lat="45.87557611669898" lon="9.804991560176799"><ele>937.6666666666666</ele><time>2026-04-03T14:07:10.999Z</time></trkpt><trkpt lat="45.87561185025434" lon="9.804910424896233"><ele>936.0</ele><time>2026-04-03T14:07:11.999Z</time></trkpt><trkpt lat="45.875651921200465" lon="9.804797894002002"><ele>939.6666666666666</ele><time>2026-04-03T14:07:12.999Z</time></trkpt><trkpt lat="45.87569351173124" lon="9.804671749262424"><ele>943.3333333333333</ele><time>2026-04-03T14:07:13.999Z</time></trkpt><trkpt lat="45.87572047139949" lon="9.804571985073775"><ele>947.0</ele><time>2026-04-03T14:07:14.999Z</time></trkpt><trkpt lat="45.87577666462103" lon="9.804420486426512"><ele>950.6666666666666</ele><time>2026-04-03T14:07:16.999Z</time></trkpt><trkpt lat="45.8757911450754" lon="9.804318467869512"><ele>954.3333333333333</ele><time>2026-04-03T14:07:17.999Z</time></trkpt><trkpt lat="45.87581214001694" lon="9.804229126193272"><ele>958.0</ele><time>2026-04-03T14:07:18.999Z</time></trkpt><trkpt lat="45.87586273503279" lon="9.804151987315919"><ele>954.9999999999999</ele><time>2026-04-03T14:07:21.999Z</time></trkpt><trkpt lat="45.875929794897864" lon="9.804098879541865"><ele>952.0</ele><time>2026-04-03T14:07:23.999Z</time></trkpt><trkpt lat="45.87596935401278" lon="9.804006430153807"><ele>949.0</ele><time>2026-04-03T14:07:25.998Z</time></trkpt><trkpt lat="45.87602725613764" lon="9.803885648151228"><ele>946.0</ele><time>2026-04-03T14:07:27.998Z</time></trkpt><trkpt lat="45.87605253280263" lon="9.803733301547377"><ele>942.9999999999999</ele><time>2026-04-03T14:07:29.998Z</time></trkpt><trkpt lat="45.87609349206426" lon="9.803662807581686"><ele>940.0</ele><time>2026-04-03T14:07:30.998Z</time></trkpt><trkpt lat="45.8761676619083" lon="9.80357305641387"><ele>944.4</ele><time>2026-04-03T14:07:32.998Z</time></trkpt><trkpt lat="45.876200643697615" lon="9.803475443938472"><ele>948.8</ele><time>2026-04-03T14:07:34.998Z</time></trkpt><trkpt lat="45.876242994814575" lon="9.803364805184069"><ele>953.2</ele><time>2026-04-03T14:07:36.998Z</time></trkpt><trkpt lat="45.87628342486468" lon="9.803248853237502"><ele>957.6</ele><time>2026-04-03T14:07:38.998Z</time></trkpt><trkpt lat="45.876310163906524" lon="9.803144954866019"><ele>962.0</ele><time>2026-04-03T14:07:40.998Z</time></trkpt><trkpt lat="45.87635807379075" lon="9.802979418256369"><ele>962.0000000000001</ele><time>2026-04-03T14:07:42.998Z</time></trkpt><trkpt lat="45.87640751113791" lon="9.80286754993399"><ele>962.0</ele><time>2026-04-03T14:07:44.997Z</time></trkpt><trkpt lat="45.87644075765843" lon="9.80274221338542"><ele>962.0</ele><time>2026-04-03T14:07:46.997Z</time></trkpt><trkpt lat="45.876470570677874" lon="9.802607435866715"><ele>962.0</ele><time>2026-04-03T14:07:49.997Z</time></trkpt><trkpt lat="45.87650629215406" lon="9.80249310491774"><ele>962.0000000000001</ele><time>2026-04-03T14:07:52.997Z</time></trkpt><trkpt lat="45.876517344433395" lon="9.80239870106348"><ele>962.0</ele><time>2026-04-03T14:07:54.997Z</time></trkpt><trkpt lat="45.87654545079318" lon="9.802290357966205"><ele>960.3333333333334</ele><time>2026-04-03T14:07:56.997Z</time></trkpt><trkpt lat="45.876579005488026" lon="9.802198615818154"><ele>958.6666666666667</ele><time>2026-04-03T14:08:01.003Z</time></trkpt><trkpt lat="45.87661366429294" lon="9.802109181664912"><ele>957.0</ele><time>2026-04-03T14:08:04.003Z</time></trkpt><trkpt lat="45.876696249098664" lon="9.802039088156949"><ele>955.3333333333333</ele><time>2026-04-03T14:08:06.003Z</time></trkpt><trkpt lat="45.87679917042601" lon="9.801964168938834"><ele>953.6666666666666</ele><time>2026-04-03T14:08:09.003Z</time></trkpt><trkpt lat="45.87685707378335" lon="9.801913085721583"><ele>952.0</ele><time>2026-04-03T14:08:11.003Z</time></trkpt><trkpt lat="45.8768920256124" lon="9.801820343182461"><ele>956.6666666666666</ele><time>2026-04-03T14:08:15.003Z</time></trkpt><trkpt lat="45.8769268196437" lon="9.8017417722389"><ele>961.3333333333333</ele><time>2026-04-03T14:08:19.003Z</time></trkpt><trkpt lat="45.87699180469506" lon="9.80165395459676"><ele>966.0</ele><time>2026-04-03T14:08:23.003Z</time></trkpt><trkpt lat="45.877015070959935" lon="9.801526360385157"><ele>970.6666666666667</ele><time>2026-04-03T14:08:27.002Z</time></trkpt><trkpt lat="45.8770534613405" lon="9.80143614721405"><ele>975.3333333333334</ele><time>2026-04-03T14:08:30.002Z</time></trkpt><trkpt lat="45.877089643384906" lon="9.801349808755596"><ele>980.0</ele><time>2026-04-03T14:08:34.002Z</time></trkpt><trkpt lat="45.87711064267908" lon="9.801261386694758"><ele>980.0</ele><time>2026-04-03T14:08:45.001Z</time></trkpt><trkpt lat="45.87704070322545" lon="9.80121782855524"><ele>980.0</ele><time>2026-04-03T14:08:49.001Z</time></trkpt><trkpt lat="45.87696167946023" lon="9.801205110497907"><ele>980.0</ele><time>2026-04-03T14:08:53.001Z</time></trkpt><trkpt lat="45.87690470210376" lon="9.801158788022255"><ele>980.0</ele><time>2026-04-03T14:09:06Z</time></trkpt><trkpt lat="45.87683687312283" lon="9.801129827271419"><ele>980.0</ele><time>2026-04-03T14:09:11Z</time></trkpt><trkpt lat="45.876770531665564" lon="9.8011070068446"><ele>980.0</ele><time>2026-04-03T14:09:15Z</time></trkpt><trkpt lat="45.87670550302365" lon="9.801059214486486"><ele>980.0</ele><time>2026-04-03T14:09:19Z</time></trkpt><trkpt lat="45.87664463220364" lon="9.800990569195182"><ele>983.3333333333334</ele><time>2026-04-03T14:09:21.999Z</time></trkpt><trkpt lat="45.87657283979684" lon="9.800940492357814"><ele>986.6666666666667</ele><time>2026-04-03T14:09:23.999Z</time></trkpt><trkpt lat="45.87646373863896" lon="9.800830016235446"><ele>990.0</ele><time>2026-04-03T14:09:43.998Z</time></trkpt><trkpt lat="45.876412032782646" lon="9.8009124179431"><ele>993.3333333333333</ele><time>2026-04-03T14:09:47.998Z</time></trkpt><trkpt lat="45.876362405080584" lon="9.801003690223432"><ele>996.6666666666666</ele><time>2026-04-03T14:09:51.998Z</time></trkpt><trkpt lat="45.87635769845377" lon="9.801104535490355"><ele>1000.0</ele><time>2026-04-03T14:09:54.998Z</time></trkpt><trkpt lat="45.87630654916768" lon="9.801199198216093"><ele>1000.0</ele><time>2026-04-03T14:09:57.997Z</time></trkpt><trkpt lat="45.87624598712248" lon="9.801244246988778"><ele>1000.0</ele><time>2026-04-03T14:09:59.997Z</time></trkpt><trkpt lat="45.87619144607315" lon="9.801296027312526"><ele>1000.0</ele><time>2026-04-03T14:10:02.997Z</time></trkpt><trkpt lat="45.876134403879654" lon="9.801350059709765"><ele>1000.0</ele><time>2026-04-03T14:10:07.003Z</time></trkpt><trkpt lat="45.87606919639922" lon="9.801408319154307"><ele>1000.0</ele><time>2026-04-03T14:10:11.003Z</time></trkpt><trkpt lat="45.876030569021104" lon="9.801480966405032"><ele>1000.0</ele><time>2026-04-03T14:10:16.003Z</time></trkpt><trkpt lat="45.875978513820215" lon="9.801563241040455"><ele>1000.0</ele><time>2026-04-03T14:10:18.003Z</time></trkpt><trkpt lat="45.87591200269973" lon="9.801561787796585"><ele>1006.3333333333333</ele><time>2026-04-03T14:10:21.002Z</time></trkpt><trkpt lat="45.87583024730456" lon="9.801537489104454"><ele>1012.6666666666666</ele><time>2026-04-03T14:10:24.002Z</time></trkpt><trkpt lat="45.875812884516534" lon="9.801445877936128"><ele>1019.0</ele><time>2026-04-03T14:10:27.002Z</time></trkpt><trkpt lat="45.875788016250226" lon="9.801326881296411"><ele>1025.3333333333333</ele><time>2026-04-03T14:10:32.002Z</time></trkpt><trkpt lat="45.87579497344383" lon="9.801235698841642"><ele>1031.6666666666667</ele><time>2026-04-03T14:10:35.002Z</time></trkpt><trkpt lat="45.875788029440486" lon="9.801115851303525"><ele>1038.0</ele><time>2026-04-03T14:10:38.002Z</time></trkpt><trkpt lat="45.875786731846176" lon="9.800973115221163"><ele>1040.6666666666667</ele><time>2026-04-03T14:10:41.001Z</time></trkpt><trkpt lat="45.8757738552926" lon="9.80084253384802"><ele>1043.3333333333333</ele><time>2026-04-03T14:10:44.001Z</time></trkpt><trkpt lat="45.87576543456248" lon="9.800712302744413"><ele>1046.0</ele><time>2026-04-03T14:10:46.001Z</time></trkpt><trkpt lat="45.87574557158451" lon="9.800598656833504"><ele>1048.6666666666665</ele><time>2026-04-03T14:10:48.001Z</time></trkpt><trkpt lat="45.875733430121834" lon="9.800488049166702"><ele>1051.3333333333333</ele><time>2026-04-03T14:10:50.001Z</time></trkpt><trkpt lat="45.87572344504263" lon="9.800385038049725"><ele>1054.0</ele><time>2026-04-03T14:10:52.001Z</time></trkpt><trkpt lat="45.875717206074604" lon="9.800289187030797"><ele>1054.6000000000001</ele><time>2026-04-03T14:10:54.001Z</time></trkpt><trkpt lat="45.87573739346253" lon="9.800154066769938"><ele>1055.2</ele><time>2026-04-03T14:10:56.001Z</time></trkpt><trkpt lat="45.875780269189995" lon="9.80003581883012"><ele>1055.8000000000002</ele><time>2026-04-03T14:10:59Z</time></trkpt><trkpt lat="45.87589342521392" lon="9.799924862701415"><ele>1056.4</ele><time>2026-04-03T14:11:01Z</time></trkpt><trkpt lat="45.87591909733737" lon="9.799837987043514"><ele>1057.0</ele><time>2026-04-03T14:11:04Z</time></trkpt><trkpt lat="45.875994432086806" lon="9.799757248115972"><ele>1057.0</ele><time>2026-04-03T14:11:06Z</time></trkpt><trkpt lat="45.87605675530325" lon="9.799670395297504"><ele>1057.0</ele><time>2026-04-03T14:11:09Z</time></trkpt><trkpt lat="45.8761144916981" lon="9.799588614824508"><ele>1057.0</ele><time>2026-04-03T14:11:11Z</time></trkpt><trkpt lat="45.87618826687208" lon="9.799533928401967"><ele>1057.0</ele><time>2026-04-03T14:11:14Z</time></trkpt><trkpt lat="45.87625280232252" lon="9.799459305059882"><ele>1057.0</ele><time>2026-04-03T14:11:15Z</time></trkpt><trkpt lat="45.876295591127516" lon="9.799382855303685"><ele>1057.0</ele><time>2026-04-03T14:11:15.999Z</time></trkpt><trkpt lat="45.876373753404486" lon="9.799318760532538"><ele>1060.6666666666665</ele><time>2026-04-03T14:11:18.999Z</time></trkpt><trkpt lat="45.87645137838066" lon="9.799254136944558"><ele>1064.3333333333333</ele><time>2026-04-03T14:11:20.999Z</time></trkpt><trkpt lat="45.87651852497526" lon="9.79924279402028"><ele>1068.0</ele><time>2026-04-03T14:11:21.999Z</time></trkpt><trkpt lat="45.87656420333624" lon="9.799175088825493"><ele>1071.6666666666667</ele><time>2026-04-03T14:11:22.999Z</time></trkpt><trkpt lat="45.87665181472274" lon="9.799068404567214"><ele>1075.3333333333335</ele><time>2026-04-03T14:11:24.999Z</time></trkpt><trkpt lat="45.87672391092957" lon="9.798976206322685"><ele>1079.0</ele><time>2026-04-03T14:11:25.999Z</time></trkpt><trkpt lat="45.87678073605984" lon="9.798923884560109"><ele>1079.0</ele><time>2026-04-03T14:11:26.999Z</time></trkpt><trkpt lat="45.87685230013341" lon="9.798848870657547"><ele>1079.0</ele><time>2026-04-03T14:11:28.999Z</time></trkpt><trkpt lat="45.876930146057425" lon="9.798743160747616"><ele>1079.0</ele><time>2026-04-03T14:11:30.999Z</time></trkpt><trkpt lat="45.877009109288764" lon="9.79870214592786"><ele>1079.0</ele><time>2026-04-03T14:11:32.999Z</time></trkpt><trkpt lat="45.87705625503914" lon="9.798636569346707"><ele>1079.0</ele><time>2026-04-03T14:11:33.999Z</time></trkpt><trkpt lat="45.87715089992046" lon="9.798543104999611"><ele>1083.6000000000001</ele><time>2026-04-03T14:11:35.998Z</time></trkpt><trkpt lat="45.87722667847466" lon="9.79847988242399"><ele>1088.2</ele><time>2026-04-03T14:11:37.998Z</time></trkpt><trkpt lat="45.87729483346197" lon="9.798418503370883"><ele>1092.8000000000002</ele><time>2026-04-03T14:11:40.998Z</time></trkpt><trkpt lat="45.87735979505434" lon="9.79833626194356"><ele>1097.4</ele><time>2026-04-03T14:11:42.998Z</time></trkpt><trkpt lat="45.8774385164032" lon="9.798246327986481"><ele>1102.0</ele><time>2026-04-03T14:11:44.996Z</time></trkpt><trkpt lat="45.87753322948767" lon="9.798191200992225"><ele>1103.8</ele><time>2026-04-03T14:11:46.995Z</time></trkpt><trkpt lat="45.87765739255123" lon="9.798184605087098"><ele>1105.6</ele><time>2026-04-03T14:11:48.994Z</time></trkpt><trkpt lat="45.87774258099749" lon="9.798156253620904"><ele>1107.3999999999999</ele><time>2026-04-03T14:11:50.993Z</time></trkpt><trkpt lat="45.87781410559067" lon="9.798135110126367"><ele>1109.2</ele><time>2026-04-03T14:11:52.992Z</time></trkpt><trkpt lat="45.877889247221304" lon="9.798057400493427"><ele>1111.0</ele><time>2026-04-03T14:11:54.991Z</time></trkpt><trkpt lat="45.877973451579656" lon="9.798010761451124"><ele>1111.0</ele><time>2026-04-03T14:11:56.99Z</time></trkpt><trkpt lat="45.878054924613735" lon="9.797992387520399"><ele>1111.0</ele><time>2026-04-03T14:11:58.989Z</time></trkpt><trkpt lat="45.878130875515076" lon="9.79793700915604"><ele>1111.0</ele><time>2026-04-03T14:12:00.988Z</time></trkpt><trkpt lat="45.87820390210615" lon="9.797873788790168"><ele>1111.0</ele><time>2026-04-03T14:12:02.988Z</time></trkpt><trkpt lat="45.87827290780405" lon="9.797783001938807"><ele>1111.0</ele><time>2026-04-03T14:12:04.987Z</time></trkpt><trkpt lat="45.87832737378384" lon="9.797705649890956"><ele>1111.0</ele><time>2026-04-03T14:12:06.987Z</time></trkpt><trkpt lat="45.878373294899916" lon="9.797609928815271"><ele>1113.2</ele><time>2026-04-03T14:12:08.986Z</time></trkpt><trkpt lat="45.87841468048895" lon="9.797529779985945"><ele>1115.3999999999999</ele><time>2026-04-03T14:12:10.993Z</time></trkpt><trkpt lat="45.87847874169848" lon="9.797425842763838"><ele>1117.6</ele><time>2026-04-03T14:12:12.993Z</time></trkpt><trkpt lat="45.87854478171792" lon="9.79729668390491"><ele>1119.8</ele><time>2026-04-03T14:12:14.992Z</time></trkpt><trkpt lat="45.87860225175359" lon="9.797156252234254"><ele>1122.0</ele><time>2026-04-03T14:12:16.992Z</time></trkpt><trkpt lat="45.878656897552005" lon="9.797034035606552"><ele>1125.4</ele><time>2026-04-03T14:12:18.992Z</time></trkpt><trkpt lat="45.878718012202036" lon="9.79683014590017"><ele>1128.8000000000002</ele><time>2026-04-03T14:12:21.992Z</time></trkpt><trkpt lat="45.87874702575112" lon="9.79670708907217"><ele>1132.2</ele><time>2026-04-03T14:12:22.992Z</time></trkpt><trkpt lat="45.87878524694359" lon="9.7965165334659"><ele>1135.6000000000001</ele><time>2026-04-03T14:12:24.991Z</time></trkpt><trkpt lat="45.87879078135297" lon="9.796424777827443"><ele>1139.0</ele><time>2026-04-03T14:12:25.991Z</time></trkpt><trkpt lat="45.87883328856069" lon="9.796279100385755"><ele>1139.0</ele><time>2026-04-03T14:12:27.991Z</time></trkpt><trkpt lat="45.87890494953171" lon="9.79616908809626"><ele>1139.0</ele><time>2026-04-03T14:12:29.991Z</time></trkpt><trkpt lat="45.87892258235015" lon="9.796075970915323"><ele>1139.0</ele><time>2026-04-03T14:12:31.99Z</time></trkpt><trkpt lat="45.87896000322151" lon="9.795943436281586"><ele>1139.0</ele><time>2026-04-03T14:12:34.99Z</time></trkpt><trkpt lat="45.87899354559253" lon="9.79582972382102"><ele>1139.0</ele><time>2026-04-03T14:12:37.99Z</time></trkpt><trkpt lat="45.87903978879575" lon="9.795740568314919"><ele>1139.0</ele><time>2026-04-03T14:12:39.99Z</time></trkpt><trkpt lat="45.87906684932759" lon="9.795648802898851"><ele>1141.1666666666667</ele><time>2026-04-03T14:12:41.99Z</time></trkpt><trkpt lat="45.87913498700194" lon="9.795581347968788"><ele>1143.3333333333335</ele><time>2026-04-03T14:12:43.989Z</time></trkpt><trkpt lat="45.879194351001495" lon="9.795464761747999"><ele>1145.5</ele><time>2026-04-03T14:12:45.989Z</time></trkpt><trkpt lat="45.87922712224491" lon="9.795362031249248"><ele>1147.6666666666667</ele><time>2026-04-03T14:12:47.989Z</time></trkpt><trkpt lat="45.87924174814946" lon="9.795243780686134"><ele>1149.8333333333333</ele><time>2026-04-03T14:12:49.989Z</time></trkpt><trkpt lat="45.87927160899082" lon="9.795103351810923"><ele>1152.0</ele><time>2026-04-03T14:12:52.989Z</time></trkpt><trkpt lat="45.87929797815472" lon="9.794995241779862"><ele>1152.0000000000002</ele><time>2026-04-03T14:12:54.989Z</time></trkpt><trkpt lat="45.87931365936922" lon="9.79489846392742"><ele>1152.0</ele><time>2026-04-03T14:12:56.989Z</time></trkpt><trkpt lat="45.87933176095501" lon="9.794809942812956"><ele>1152.0</ele><time>2026-04-03T14:12:58.988Z</time></trkpt><trkpt lat="45.879349195683886" lon="9.794708989628118"><ele>1152.0</ele><time>2026-04-03T14:13:00.988Z</time></trkpt><trkpt lat="45.87935577453204" lon="9.794595968096704"><ele>1152.0</ele><time>2026-04-03T14:13:02.988Z</time></trkpt><trkpt lat="45.87935846501191" lon="9.794498825886302"><ele>1152.0000000000002</ele><time>2026-04-03T14:13:05.988Z</time></trkpt><trkpt lat="45.879358530134446" lon="9.794367266458972"><ele>1152.0</ele><time>2026-04-03T14:13:07.988Z</time></trkpt><trkpt lat="45.879303620537286" lon="9.79389409565106"><ele>1159.5</ele><time>2026-04-03T14:13:09.988Z</time></trkpt><trkpt lat="45.87925719016385" lon="9.793781719385649"><ele>1167.0</ele><time>2026-04-03T14:13:10.988Z</time></trkpt><trkpt lat="45.87921729429302" lon="9.793692905730985"><ele>1174.5</ele><time>2026-04-03T14:13:11.988Z</time></trkpt><trkpt lat="45.87916860591689" lon="9.79357477333249"><ele>1182.0</ele><time>2026-04-03T14:13:13.987Z</time></trkpt><trkpt lat="45.87912994839552" lon="9.793487344241877"><ele>1189.5</ele><time>2026-04-03T14:13:15.987Z</time></trkpt><trkpt lat="45.87918904035848" lon="9.793404725556762"><ele>1197.0</ele><time>2026-04-03T14:13:16.987Z</time></trkpt><trkpt lat="45.87915809086122" lon="9.793317239650827"><ele>1199.5</ele><time>2026-04-03T14:13:20.987Z</time></trkpt><trkpt lat="45.879227962280716" lon="9.79334923679715"><ele>1202.0</ele><time>2026-04-03T14:13:34.986Z</time></trkpt><trkpt lat="45.879325348324045" lon="9.793404052425691"><ele>1204.5</ele><time>2026-04-03T14:13:37.986Z</time></trkpt><trkpt lat="45.87940196029516" lon="9.793397903994075"><ele>1207.0</ele><time>2026-04-03T14:13:38.986Z</time></trkpt><trkpt lat="45.879464757611714" lon="9.793371401807073"><ele>1209.5</ele><time>2026-04-03T14:13:40.986Z</time></trkpt><trkpt lat="45.879567811418404" lon="9.793424277183862"><ele>1212.0</ele><time>2026-04-03T14:13:42.986Z</time></trkpt><trkpt lat="45.87968369039108" lon="9.793461827160538"><ele>1212.2</ele><time>2026-04-03T14:13:44.986Z</time></trkpt><trkpt lat="45.87976449649374" lon="9.79344488157994"><ele>1212.4</ele><time>2026-04-03T14:13:45.986Z</time></trkpt><trkpt lat="45.87983249283323" lon="9.793432185400345"><ele>1212.6</ele><time>2026-04-03T14:13:46.986Z</time></trkpt><trkpt lat="45.87994068188671" lon="9.793365485498413"><ele>1212.8</ele><time>2026-04-03T14:13:48.985Z</time></trkpt><trkpt lat="45.880001056808666" lon="9.793264446605338"><ele>1213.0</ele><time>2026-04-03T14:13:49.985Z</time></trkpt><trkpt lat="45.88005907284528" lon="9.793150804514546"><ele>1213.6</ele><time>2026-04-03T14:13:50.985Z</time></trkpt><trkpt lat="45.88011697657092" lon="9.793042862561753"><ele>1214.1999999999998</ele><time>2026-04-03T14:13:51.985Z</time></trkpt><trkpt lat="45.880165033512625" lon="9.792913750728102"><ele>1214.8</ele><time>2026-04-03T14:13:52.985Z</time></trkpt><trkpt lat="45.88019319891547" lon="9.792778183642023"><ele>1215.3999999999999</ele><time>2026-04-03T14:13:53.985Z</time></trkpt><trkpt lat="45.88020747881319" lon="9.792681036629096"><ele>1216.0</ele><time>2026-04-03T14:13:54.985Z</time></trkpt><trkpt lat="45.880211306526384" lon="9.792555566113393"><ele>1219.8333333333333</ele><time>2026-04-03T14:13:55.985Z</time></trkpt><trkpt lat="45.88022999565377" lon="9.792420637509377"><ele>1223.6666666666665</ele><time>2026-04-03T14:13:56.985Z</time></trkpt><trkpt lat="45.880266922974215" lon="9.792296604426404"><ele>1227.5</ele><time>2026-04-03T14:13:57.985Z</time></trkpt><trkpt lat="45.88030602757286" lon="9.792173562547525"><ele>1231.3333333333333</ele><time>2026-04-03T14:13:58.985Z</time></trkpt><trkpt lat="45.88033837180421" lon="9.792061652616072"><ele>1235.1666666666667</ele><time>2026-04-03T14:13:59.985Z</time></trkpt><trkpt lat="45.88034571792022" lon="9.79195942205551"><ele>1239.0</ele><time>2026-04-03T14:14:01.985Z</time></trkpt><trkpt lat="45.8803223526511" lon="9.791839160838508"><ele>1239.0</ele><time>2026-04-03T14:14:03.985Z</time></trkpt><trkpt lat="45.88038447748226" lon="9.79186392568478"><ele>1239.0</ele><time>2026-04-03T14:14:11.984Z</time></trkpt><trkpt lat="45.88040883429296" lon="9.791965852638219"><ele>1239.0</ele><time>2026-04-03T14:14:15.984Z</time></trkpt><trkpt lat="45.880459296479934" lon="9.79205533617077"><ele>1239.0</ele><time>2026-04-03T14:14:16.99Z</time></trkpt><trkpt lat="45.880534139806755" lon="9.79221805568576"><ele>1239.0</ele><time>2026-04-03T14:14:22.99Z</time></trkpt><trkpt lat="45.880690026099764" lon="9.792285689654076"><ele>1239.0</ele><time>2026-04-03T14:14:23.99Z</time></trkpt><trkpt lat="45.88078546211554" lon="9.792393374321664"><ele>1239.0</ele><time>2026-04-03T14:14:25.99Z</time></trkpt><trkpt lat="45.88086438400978" lon="9.792251480182092"><ele>1239.0</ele><time>2026-04-03T14:14:27.99Z</time></trkpt><trkpt lat="45.88080936240305" lon="9.792133230062097"><ele>1239.0</ele><time>2026-04-03T14:14:28.99Z</time></trkpt><trkpt lat="45.880810789079554" lon="9.79201583415112"><ele>1239.0</ele><time>2026-04-03T14:14:29.99Z</time></trkpt><trkpt lat="45.88081922556433" lon="9.791884830764381"><ele>1242.4</ele><time>2026-04-03T14:14:30.99Z</time></trkpt><trkpt lat="45.880825963587455" lon="9.79171303069804"><ele>1245.8000000000002</ele><time>2026-04-03T14:14:32.99Z</time></trkpt><trkpt lat="45.88091325670684" lon="9.791632485768643"><ele>1249.1999999999998</ele><time>2026-04-03T14:14:34.99Z</time></trkpt><trkpt lat="45.880960290425605" lon="9.791518589120791"><ele>1252.6</ele><time>2026-04-03T14:14:35.99Z</time></trkpt><trkpt lat="45.88102085665796" lon="9.79145892494958"><ele>1256.0</ele><time>2026-04-03T14:14:37.99Z</time></trkpt><trkpt lat="45.88108920352671" lon="9.791392798831305"><ele>1258.8</ele><time>2026-04-03T14:14:39.99Z</time></trkpt><trkpt lat="45.88118774824924" lon="9.791357183011977"><ele>1261.6</ele><time>2026-04-03T14:14:41.99Z</time></trkpt><trkpt lat="45.881269276162634" lon="9.791308717512837"><ele>1264.4</ele><time>2026-04-03T14:14:43.99Z</time></trkpt><trkpt lat="45.88136615986594" lon="9.791281149606652"><ele>1267.2</ele><time>2026-04-03T14:14:47.989Z</time></trkpt><trkpt lat="45.88145906164454" lon="9.791372509265258"><ele>1270.0</ele><time>2026-04-03T14:14:49.989Z</time></trkpt><trkpt lat="45.881536819244126" lon="9.791427286320637"><ele>1270.0</ele><time>2026-04-03T14:14:51.989Z</time></trkpt><trkpt lat="45.88159314792459" lon="9.791492673118928"><ele>1270.0</ele><time>2026-04-03T14:14:52.989Z</time></trkpt><trkpt lat="45.88166831800208" lon="9.791566493836529"><ele>1270.0</ele><time>2026-04-03T14:14:53.989Z</time></trkpt><trkpt lat="45.88174987238993" lon="9.791649957340129"><ele>1270.0</ele><time>2026-04-03T14:14:54.989Z</time></trkpt><trkpt lat="45.881857363646134" lon="9.791797974032159"><ele>1270.0</ele><time>2026-04-03T14:14:55.989Z</time></trkpt><trkpt lat="45.88196220736751" lon="9.791927633406917"><ele>1272.25</ele><time>2026-04-03T14:14:56.989Z</time></trkpt><trkpt lat="45.88205632033844" lon="9.792052374559114"><ele>1274.5</ele><time>2026-04-03T14:14:57.989Z</time></trkpt><trkpt lat="45.88213483734539" lon="9.79215473274216"><ele>1276.75</ele><time>2026-04-03T14:14:58.989Z</time></trkpt><trkpt lat="45.882224355889754" lon="9.792271007364208"><ele>1279.0</ele><time>2026-04-03T14:14:59.989Z</time></trkpt><trkpt lat="45.88231524693276" lon="9.79238830449866"><ele>1279.0</ele><time>2026-04-03T14:15:00.989Z</time></trkpt><trkpt lat="45.88240490096686" lon="9.792528126545797"><ele>1279.0</ele><time>2026-04-03T14:15:01.989Z</time></trkpt><trkpt lat="45.88247737792566" lon="9.792637333937323"><ele>1279.0</ele><time>2026-04-03T14:15:02.989Z</time></trkpt><trkpt lat="45.88257170463201" lon="9.792799710073346"><ele>1279.0</ele><time>2026-04-03T14:15:03.988Z</time></trkpt><trkpt lat="45.882652915415655" lon="9.792979513679516"><ele>1278.75</ele><time>2026-04-03T14:15:04.988Z</time></trkpt><trkpt lat="45.88270043875984" lon="9.79315633769729"><ele>1278.5</ele><time>2026-04-03T14:15:05.988Z</time></trkpt><trkpt lat="45.882758906772835" lon="9.793314364669072"><ele>1278.25</ele><time>2026-04-03T14:15:06.988Z</time></trkpt><trkpt lat="45.88283722097649" lon="9.793436530774898"><ele>1278.0</ele><time>2026-04-03T14:15:07.988Z</time></trkpt><trkpt lat="45.88291249788358" lon="9.793522380061798"><ele>1278.0</ele><time>2026-04-03T14:15:08.988Z</time></trkpt><trkpt lat="45.882994580985894" lon="9.793588058038166"><ele>1278.0</ele><time>2026-04-03T14:15:09.988Z</time></trkpt><trkpt lat="45.883083560141834" lon="9.793612805735364"><ele>1278.0</ele><time>2026-04-03T14:15:10.988Z</time></trkpt><trkpt lat="45.88317435921346" lon="9.793655099701326"><ele>1278.0</ele><time>2026-04-03T14:15:11.988Z</time></trkpt><trkpt lat="45.88328182243122" lon="9.793695617343106"><ele>1278.0</ele><time>2026-04-03T14:15:12.988Z</time></trkpt><trkpt lat="45.88340526714631" lon="9.793770980979899"><ele>1279.4</ele><time>2026-04-03T14:15:13.988Z</time></trkpt><trkpt lat="45.88352374432413" lon="9.79384794806514"><ele>1280.8</ele><time>2026-04-03T14:15:14.988Z</time></trkpt><trkpt lat="45.88363123868071" lon="9.79390006790702"><ele>1282.2</ele><time>2026-04-03T14:15:15.988Z</time></trkpt><trkpt lat="45.88372914579994" lon="9.793938152276748"><ele>1283.6</ele><time>2026-04-03T14:15:16.988Z</time></trkpt><trkpt lat="45.883816049827765" lon="9.793979102404792"><ele>1285.0</ele><time>2026-04-03T14:15:17.988Z</time></trkpt><trkpt lat="45.883898987924105" lon="9.794054172341212"><ele>1285.0</ele><time>2026-04-03T14:15:18.988Z</time></trkpt><trkpt lat="45.88399385871235" lon="9.794163263317113"><ele>1285.0</ele><time>2026-04-03T14:15:19.988Z</time></trkpt><trkpt lat="45.88408689473512" lon="9.794279717108102"><ele>1285.0</ele><time>2026-04-03T14:15:20.987Z</time></trkpt><trkpt lat="45.884182008535234" lon="9.794409601912593"><ele>1285.0</ele><time>2026-04-03T14:15:21.987Z</time></trkpt><trkpt lat="45.884269243528614" lon="9.7945476306919"><ele>1286.4</ele><time>2026-04-03T14:15:22.987Z</time></trkpt><trkpt lat="45.88433199520786" lon="9.794679443625013"><ele>1287.8</ele><time>2026-04-03T14:15:23.987Z</time></trkpt><trkpt lat="45.88438618499231" lon="9.794812410662312"><ele>1289.1999999999998</ele><time>2026-04-03T14:15:24.987Z</time></trkpt><trkpt lat="45.88442859453001" lon="9.794933290360076"><ele>1290.6</ele><time>2026-04-03T14:15:25.987Z</time></trkpt><trkpt lat="45.88446964641193" lon="9.795037057153683"><ele>1292.0</ele><time>2026-04-03T14:15:26.987Z</time></trkpt><trkpt lat="45.88450350389415" lon="9.795154090511025"><ele>1290.1666666666667</ele><time>2026-04-03T14:15:27.987Z</time></trkpt><trkpt lat="45.88453990557026" lon="9.79523959886441"><ele>1288.3333333333335</ele><time>2026-04-03T14:15:28.987Z</time></trkpt><trkpt lat="45.88457836594743" lon="9.79532188258548"><ele>1286.5</ele><time>2026-04-03T14:15:29.987Z</time></trkpt><trkpt lat="45.88463863698542" lon="9.795421085568416"><ele>1284.6666666666667</ele><time>2026-04-03T14:15:30.987Z</time></trkpt><trkpt lat="45.884717148210754" lon="9.795521754030256"><ele>1282.8333333333333</ele><time>2026-04-03T14:15:31.987Z</time></trkpt><trkpt lat="45.88479762669894" lon="9.795619123127159"><ele>1281.0</ele><time>2026-04-03T14:15:32.987Z</time></trkpt><trkpt lat="45.884881075338356" lon="9.795703595442944"><ele>1281.0</ele><time>2026-04-03T14:15:33.987Z</time></trkpt><trkpt lat="45.88497523750786" lon="9.79578375033664"><ele>1281.0</ele><time>2026-04-03T14:15:34.987Z</time></trkpt><trkpt lat="45.88506779491435" lon="9.795889230172232"><ele>1281.0</ele><time>2026-04-03T14:15:35.987Z</time></trkpt><trkpt lat="45.88514181956777" lon="9.79600785854908"><ele>1281.0</ele><time>2026-04-03T14:15:36.987Z</time></trkpt><trkpt lat="45.88521698363141" lon="9.79614888619994"><ele>1277.5</ele><time>2026-04-03T14:15:37.986Z</time></trkpt><trkpt lat="45.88528103577249" lon="9.796306454002456"><ele>1274.0</ele><time>2026-04-03T14:15:38.986Z</time></trkpt><trkpt lat="45.88534621596759" lon="9.796498252274922"><ele>1270.5</ele><time>2026-04-03T14:15:39.986Z</time></trkpt><trkpt lat="45.88541299826371" lon="9.796666838504258"><ele>1267.0</ele><time>2026-04-03T14:15:40.986Z</time></trkpt><trkpt lat="45.88548033279802" lon="9.796817460369756"><ele>1266.0</ele><time>2026-04-03T14:15:41.986Z</time></trkpt><trkpt lat="45.88554505208343" lon="9.796972407486967"><ele>1265.0</ele><time>2026-04-03T14:15:42.986Z</time></trkpt><trkpt lat="45.885610146344604" lon="9.79712639369466"><ele>1264.0</ele><time>2026-04-03T14:15:43.986Z</time></trkpt><trkpt lat="45.88567367113855" lon="9.797276561557235"><ele>1263.0</ele><time>2026-04-03T14:15:44.986Z</time></trkpt><trkpt lat="45.885719461652826" lon="9.797422668915567"><ele>1263.0</ele><time>2026-04-03T14:15:45.986Z</time></trkpt><trkpt lat="45.88576739695023" lon="9.797539448910515"><ele>1263.0</ele><time>2026-04-03T14:15:46.986Z</time></trkpt><trkpt lat="45.88582671681286" lon="9.797607197520328"><ele>1263.0</ele><time>2026-04-03T14:15:47.986Z</time></trkpt><trkpt lat="45.88590968827273" lon="9.797645993212614"><ele>1263.0</ele><time>2026-04-03T14:15:48.986Z</time></trkpt><trkpt lat="45.88599976126533" lon="9.797654038516004"><ele>1263.0</ele><time>2026-04-03T14:15:49.986Z</time></trkpt><trkpt lat="45.88610221238733" lon="9.79764899790191"><ele>1263.8</ele><time>2026-04-03T14:15:50.986Z</time></trkpt><trkpt lat="45.8862204753063" lon="9.79766474001476"><ele>1264.6</ele><time>2026-04-03T14:15:51.986Z</time></trkpt><trkpt lat="45.88632701680192" lon="9.79768914949028"><ele>1265.4</ele><time>2026-04-03T14:15:52.986Z</time></trkpt><trkpt lat="45.88642678318097" lon="9.797710621182866"><ele>1266.2</ele><time>2026-04-03T14:15:53.986Z</time></trkpt><trkpt lat="45.88652692677433" lon="9.797723684641706"><ele>1267.0</ele><time>2026-04-03T14:15:54.985Z</time></trkpt><trkpt lat="45.88661410868399" lon="9.797745531848973"><ele>1267.1666666666665</ele><time>2026-04-03T14:15:55.985Z</time></trkpt><trkpt lat="45.886696887071786" lon="9.797754977148436"><ele>1267.3333333333333</ele><time>2026-04-03T14:15:56.985Z</time></trkpt><trkpt lat="45.886766981123294" lon="9.797774235942674"><ele>1267.5</ele><time>2026-04-03T14:15:57.985Z</time></trkpt><trkpt lat="45.88683355581581" lon="9.797787368338613"><ele>1267.6666666666667</ele><time>2026-04-03T14:15:58.985Z</time></trkpt><trkpt lat="45.88691626223767" lon="9.797805017491969"><ele>1267.8333333333335</ele><time>2026-04-03T14:16:00.985Z</time></trkpt><trkpt lat="45.886973076104695" lon="9.797861214239191"><ele>1268.0</ele><time>2026-04-03T14:16:10.985Z</time></trkpt><trkpt lat="45.887056774455" lon="9.797869739413937"><ele>1268.0</ele><time>2026-04-03T14:16:12.984Z</time></trkpt><trkpt lat="45.88712914370056" lon="9.797875161064711"><ele>1268.0</ele><time>2026-04-03T14:16:13.984Z</time></trkpt><trkpt lat="45.88721384912167" lon="9.797904695428151"><ele>1268.0</ele><time>2026-04-03T14:16:14.984Z</time></trkpt><trkpt lat="45.88731499226471" lon="9.797953762675787"><ele>1268.0</ele><time>2026-04-03T14:16:15.984Z</time></trkpt><trkpt lat="45.88743447280343" lon="9.798007680315209"><ele>1268.0</ele><time>2026-04-03T14:16:16.984Z</time></trkpt><trkpt lat="45.88756926653506" lon="9.798079297387169"><ele>1268.0</ele><time>2026-04-03T14:16:17.984Z</time></trkpt><trkpt lat="45.88769078660142" lon="9.798189348254315"><ele>1268.0</ele><time>2026-04-03T14:16:18.984Z</time></trkpt><trkpt lat="45.88780051531236" lon="9.798299283445841"><ele>1268.0</ele><time>2026-04-03T14:16:19.984Z</time></trkpt><trkpt lat="45.88790660530947" lon="9.798382997422484"><ele>1268.0</ele><time>2026-04-03T14:16:20.984Z</time></trkpt><trkpt lat="45.88800569536582" lon="9.79844488301069"><ele>1267.4</ele><time>2026-04-03T14:16:21.984Z</time></trkpt><trkpt lat="45.88811871804396" lon="9.798505843465863"><ele>1266.8</ele><time>2026-04-03T14:16:22.99Z</time></trkpt><trkpt lat="45.888208652719506" lon="9.79854076898886"><ele>1266.2</ele><time>2026-04-03T14:16:23.989Z</time></trkpt><trkpt lat="45.88831149000156" lon="9.798563527238185"><ele>1265.6</ele><time>2026-04-03T14:16:24.989Z</time></trkpt><trkpt lat="45.88838969591267" lon="9.798592490624"><ele>1265.0</ele><time>2026-04-03T14:16:25.989Z</time></trkpt><trkpt lat="45.88851319208503" lon="9.798670183755144"><ele>1264.6</ele><time>2026-04-03T14:16:27.99Z</time></trkpt><trkpt lat="45.888585640852895" lon="9.798741118890772"><ele>1264.2</ele><time>2026-04-03T14:16:28.99Z</time></trkpt><trkpt lat="45.88866037879714" lon="9.79881926472991"><ele>1263.8</ele><time>2026-04-03T14:16:29.99Z</time></trkpt><trkpt lat="45.888736938663754" lon="9.798902425319481"><ele>1263.4</ele><time>2026-04-03T14:16:30.99Z</time></trkpt><trkpt lat="45.888815487819436" lon="9.798979407918388"><ele>1263.0</ele><time>2026-04-03T14:16:31.989Z</time></trkpt><trkpt lat="45.88887668226269" lon="9.799059286120233"><ele>1263.0</ele><time>2026-04-03T14:16:33.989Z</time></trkpt><trkpt lat="45.88896290815556" lon="9.799175092151014"><ele>1263.0</ele><time>2026-04-03T14:16:35.99Z</time></trkpt><trkpt lat="45.88905454851984" lon="9.79922783507065"><ele>1263.0</ele><time>2026-04-03T14:16:37.99Z</time></trkpt><trkpt lat="45.88913328318021" lon="9.799277411002295"><ele>1263.0</ele><time>2026-04-03T14:16:40.99Z</time></trkpt><trkpt lat="45.88926332784348" lon="9.799331340128514"><ele>1263.0</ele><time>2026-04-03T14:16:59.988Z</time></trkpt><trkpt lat="45.88932069310193" lon="9.799370061492064"><ele>1261.5</ele><time>2026-04-03T14:17:02.988Z</time></trkpt><trkpt lat="45.889523067210646" lon="9.799418091912584"><ele>1260.0</ele><time>2026-04-03T14:19:58.984Z</time></trkpt><trkpt lat="45.8895851720709" lon="9.799460942214598"><ele>1258.5</ele><time>2026-04-03T14:19:59.984Z</time></trkpt><trkpt lat="45.88966567422979" lon="9.799525570927504"><ele>1257.0</ele><time>2026-04-03T14:20:00.984Z</time></trkpt><trkpt lat="45.8897572521322" lon="9.799595238967093"><ele>1257.0</ele><time>2026-04-03T14:20:01.984Z</time></trkpt><trkpt lat="45.88984630872589" lon="9.799679115709122"><ele>1257.0</ele><time>2026-04-03T14:20:02.984Z</time></trkpt><trkpt lat="45.889933571423356" lon="9.799759683824877"><ele>1257.0</ele><time>2026-04-03T14:20:03.984Z</time></trkpt><trkpt lat="45.89000629022988" lon="9.799827287974288"><ele>1257.0</ele><time>2026-04-03T14:20:04.984Z</time></trkpt><trkpt lat="45.89007690368074" lon="9.799889708179991"><ele>1257.0</ele><time>2026-04-03T14:20:05.984Z</time></trkpt><trkpt lat="45.890148713213726" lon="9.79993859088268"><ele>1256.8333333333333</ele><time>2026-04-03T14:20:06.984Z</time></trkpt><trkpt lat="45.890229454341664" lon="9.799986746054923"><ele>1256.6666666666667</ele><time>2026-04-03T14:20:07.984Z</time></trkpt><trkpt lat="45.89030958990153" lon="9.80003933242683"><ele>1256.5</ele><time>2026-04-03T14:20:08.983Z</time></trkpt><trkpt lat="45.89040026855828" lon="9.80008239477851"><ele>1256.3333333333335</ele><time>2026-04-03T14:20:09.983Z</time></trkpt><trkpt lat="45.89048691647358" lon="9.800114965722694"><ele>1256.1666666666667</ele><time>2026-04-03T14:20:10.983Z</time></trkpt><trkpt lat="45.890570803996454" lon="9.800144610060505"><ele>1256.0</ele><time>2026-04-03T14:20:11.983Z</time></trkpt><trkpt lat="45.890647233496274" lon="9.800144512624815"><ele>1256.0</ele><time>2026-04-03T14:20:12.983Z</time></trkpt><trkpt lat="45.89079188856156" lon="9.800164696540529"><ele>1256.0</ele><time>2026-04-03T14:20:14.983Z</time></trkpt><trkpt lat="45.89087782618241" lon="9.800179846085053"><ele>1256.0</ele><time>2026-04-03T14:20:15.983Z</time></trkpt><trkpt lat="45.89096985546716" lon="9.800232443050007"><ele>1256.0</ele><time>2026-04-03T14:20:16.983Z</time></trkpt><trkpt lat="45.891061058192875" lon="9.800308226911016"><ele>1256.0</ele><time>2026-04-03T14:20:19.983Z</time></trkpt><trkpt lat="45.89111232378603" lon="9.800445567951684"><ele>1256.6</ele><time>2026-04-03T14:20:21.983Z</time></trkpt><trkpt lat="45.89111208871402" lon="9.800549528287815"><ele>1257.1999999999998</ele><time>2026-04-03T14:20:22.983Z</time></trkpt><trkpt lat="45.89114712456695" lon="9.800730570385657"><ele>1257.8000000000002</ele><time>2026-04-03T14:20:24.983Z</time></trkpt><trkpt lat="45.89119925812889" lon="9.80089559500742"><ele>1258.4</ele><time>2026-04-03T14:20:26.982Z</time></trkpt><trkpt lat="45.89125801375982" lon="9.801029377178256"><ele>1259.0</ele><time>2026-04-03T14:20:27.982Z</time></trkpt><trkpt lat="45.89131954651037" lon="9.801146985739145"><ele>1260.6000000000001</ele><time>2026-04-03T14:20:28.982Z</time></trkpt><trkpt lat="45.891333725392855" lon="9.80125375542496"><ele>1262.2</ele><time>2026-04-03T14:20:29.982Z</time></trkpt><trkpt lat="45.891306203469505" lon="9.801368890050737"><ele>1263.8000000000002</ele><time>2026-04-03T14:20:30.982Z</time></trkpt><trkpt lat="45.89125139314651" lon="9.80148631699564"><ele>1265.4</ele><time>2026-04-03T14:20:31.982Z</time></trkpt><trkpt lat="45.891168160668805" lon="9.80161156743997"><ele>1267.0</ele><time>2026-04-03T14:20:32.982Z</time></trkpt><trkpt lat="45.89107596253757" lon="9.801769991437594"><ele>1268.2</ele><time>2026-04-03T14:20:33.988Z</time></trkpt><trkpt lat="45.891001211134075" lon="9.801916776842681"><ele>1269.4</ele><time>2026-04-03T14:20:34.988Z</time></trkpt><trkpt lat="45.890949844441955" lon="9.802010217297713"><ele>1270.6</ele><time>2026-04-03T14:20:35.988Z</time></trkpt><trkpt lat="45.890910976213" lon="9.802123752827029"><ele>1271.8</ele><time>2026-04-03T14:20:36.988Z</time></trkpt><trkpt lat="45.89088057022345" lon="9.802251303264267"><ele>1273.0</ele><time>2026-04-03T14:20:37.988Z</time></trkpt><trkpt lat="45.890861132492056" lon="9.80236889050066"><ele>1269.5</ele><time>2026-04-03T14:20:38.988Z</time></trkpt><trkpt lat="45.89086470972305" lon="9.802487434017404"><ele>1266.0</ele><time>2026-04-03T14:20:39.988Z</time></trkpt><trkpt lat="45.89088781706097" lon="9.802608079595021"><ele>1262.5</ele><time>2026-04-03T14:20:40.988Z</time></trkpt><trkpt lat="45.89089484143559" lon="9.802722022211327"><ele>1259.0</ele><time>2026-04-03T14:20:41.988Z</time></trkpt><trkpt lat="45.89088724507296" lon="9.802836438261515"><ele>1255.5</ele><time>2026-04-03T14:20:42.988Z</time></trkpt><trkpt lat="45.89087354547681" lon="9.802933426134457"><ele>1252.0</ele><time>2026-04-03T14:20:43.988Z</time></trkpt><trkpt lat="45.89085451570277" lon="9.803089652093776"><ele>1252.0</ele><time>2026-04-03T14:20:45.988Z</time></trkpt><trkpt lat="45.89085092452278" lon="9.803250277118384"><ele>1252.0</ele><time>2026-04-03T14:20:47.988Z</time></trkpt><trkpt lat="45.890905259060716" lon="9.80339680267877"><ele>1252.0</ele><time>2026-04-03T14:20:49.988Z</time></trkpt><trkpt lat="45.89097637704413" lon="9.803447191779659"><ele>1252.0</ele><time>2026-04-03T14:20:50.988Z</time></trkpt><trkpt lat="45.891040122323155" lon="9.803456456213736"><ele>1252.0</ele><time>2026-04-03T14:20:51.988Z</time></trkpt><trkpt lat="45.89115510531883" lon="9.803440393610988"><ele>1252.4</ele><time>2026-04-03T14:20:53.988Z</time></trkpt><trkpt lat="45.89124059086801" lon="9.803464191887546"><ele>1252.8000000000002</ele><time>2026-04-03T14:20:55.988Z</time></trkpt><trkpt lat="45.891333788092055" lon="9.803485461173524"><ele>1253.2</ele><time>2026-04-03T14:20:57.988Z</time></trkpt><trkpt lat="45.89142510472263" lon="9.8035135113266"><ele>1253.6000000000001</ele><time>2026-04-03T14:20:59.988Z</time></trkpt><trkpt lat="45.891514594967596" lon="9.803549900145072"><ele>1254.0</ele><time>2026-04-03T14:21:01.987Z</time></trkpt><trkpt lat="45.891600264516704" lon="9.803583817768553"><ele>1251.0</ele><time>2026-04-03T14:21:04.987Z</time></trkpt><trkpt lat="45.89166760130446" lon="9.803630619211132"><ele>1248.0</ele><time>2026-04-03T14:21:06.987Z</time></trkpt><trkpt lat="45.89173028467735" lon="9.803688949054795"><ele>1245.0</ele><time>2026-04-03T14:21:08.987Z</time></trkpt><trkpt lat="45.89181302156063" lon="9.803768833069638"><ele>1242.0</ele><time>2026-04-03T14:21:11.987Z</time></trkpt><trkpt lat="45.891881720419676" lon="9.80384730339847"><ele>1239.0</ele><time>2026-04-03T14:21:13.987Z</time></trkpt><trkpt lat="45.89194026303328" lon="9.803911880107636"><ele>1236.0</ele><time>2026-04-03T14:21:14.987Z</time></trkpt><trkpt lat="45.892016259711134" lon="9.803975625806169"><ele>1236.0</ele><time>2026-04-03T14:21:15.987Z</time></trkpt><trkpt lat="45.89207410196787" lon="9.804022721265857"><ele>1236.0</ele><time>2026-04-03T14:21:16.987Z</time></trkpt><trkpt lat="45.892143854788" lon="9.8040784098383"><ele>1236.0</ele><time>2026-04-03T14:21:17.986Z</time></trkpt><trkpt lat="45.89219756329191" lon="9.804127436968136"><ele>1236.0</ele><time>2026-04-03T14:21:18.986Z</time></trkpt><trkpt lat="45.89224975835768" lon="9.804179991273115"><ele>1236.0</ele><time>2026-04-03T14:21:19.986Z</time></trkpt><trkpt lat="45.89233714976496" lon="9.8043037581032"><ele>1236.0</ele><time>2026-04-03T14:21:20.986Z</time></trkpt><trkpt lat="45.89240039288882" lon="9.804422814391422"><ele>1236.2</ele><time>2026-04-03T14:21:21.986Z</time></trkpt><trkpt lat="45.892502319045036" lon="9.804565989980917"><ele>1236.3999999999999</ele><time>2026-04-03T14:21:22.986Z</time></trkpt><trkpt lat="45.89259229126983" lon="9.804663887950404"><ele>1236.6</ele><time>2026-04-03T14:21:23.986Z</time></trkpt><trkpt lat="45.89264776885676" lon="9.804711136299023"><ele>1236.8</ele><time>2026-04-03T14:21:24.986Z</time></trkpt><trkpt lat="45.89269282703927" lon="9.804781170247622"><ele>1237.0</ele><time>2026-04-03T14:21:25.986Z</time></trkpt><trkpt lat="45.89270143836679" lon="9.804901531596206"><ele>1237.0</ele><time>2026-04-03T14:21:27.986Z</time></trkpt><trkpt lat="45.89269216941215" lon="9.80502792128366"><ele>1237.0</ele><time>2026-04-03T14:21:30.986Z</time></trkpt><trkpt lat="45.89270412092716" lon="9.805164394126976"><ele>1237.0</ele><time>2026-04-03T14:21:33.986Z</time></trkpt><trkpt lat="45.89270605515805" lon="9.805323621265176"><ele>1237.0</ele><time>2026-04-03T14:21:35.985Z</time></trkpt><trkpt lat="45.8927576731894" lon="9.805402110769409"><ele>1237.0</ele><time>2026-04-03T14:21:37.985Z</time></trkpt><trkpt lat="45.8927897426103" lon="9.805498207414741"><ele>1237.0</ele><time>2026-04-03T14:21:39.985Z</time></trkpt><trkpt lat="45.892842355637285" lon="9.805599960040047"><ele>1237.3333333333333</ele><time>2026-04-03T14:21:41.985Z</time></trkpt><trkpt lat="45.89288844529113" lon="9.805723874304736"><ele>1237.6666666666665</ele><time>2026-04-03T14:21:43.985Z</time></trkpt><trkpt lat="45.89292665344753" lon="9.805815106579203"><ele>1238.0</ele><time>2026-04-03T14:21:44.985Z</time></trkpt><trkpt lat="45.89294451613414" lon="9.805907044268531"><ele>1238.3333333333333</ele><time>2026-04-03T14:21:46.985Z</time></trkpt><trkpt lat="45.892944207553874" lon="9.806000314172787"><ele>1238.6666666666667</ele><time>2026-04-03T14:21:49.985Z</time></trkpt><trkpt lat="45.89296704739085" lon="9.806116293939745"><ele>1239.0</ele><time>2026-04-03T14:21:52.984Z</time></trkpt><trkpt lat="45.893005309663394" lon="9.806205476121038"><ele>1235.8</ele><time>2026-04-03T14:21:54.984Z</time></trkpt><trkpt lat="45.89300566800444" lon="9.806297056684686"><ele>1232.6000000000001</ele><time>2026-04-03T14:21:56.984Z</time></trkpt><trkpt lat="45.89302676784115" lon="9.806439730578083"><ele>1229.4</ele><time>2026-04-03T14:21:59.984Z</time></trkpt><trkpt lat="45.89303460099155" lon="9.806629898615876"><ele>1226.2</ele><time>2026-04-03T14:22:01.984Z</time></trkpt><trkpt lat="45.89302934831779" lon="9.806756992286852"><ele>1223.0</ele><time>2026-04-03T14:22:03.984Z</time></trkpt><trkpt lat="45.8930686861276" lon="9.806875630812735"><ele>1219.4285714285713</ele><time>2026-04-03T14:22:05.984Z</time></trkpt><trkpt lat="45.893126389674705" lon="9.80695733004308"><ele>1215.857142857143</ele><time>2026-04-03T14:22:07.984Z</time></trkpt><trkpt lat="45.89317364280782" lon="9.80703265917856"><ele>1212.2857142857142</ele><time>2026-04-03T14:22:08.983Z</time></trkpt><trkpt lat="45.89321180952232" lon="9.807131729753715"><ele>1208.7142857142858</ele><time>2026-04-03T14:22:10.983Z</time></trkpt><trkpt lat="45.89324014588324" lon="9.807226035589245"><ele>1205.142857142857</ele><time>2026-04-03T14:22:12.983Z</time></trkpt><trkpt lat="45.89329354135693" lon="9.807299661763079"><ele>1201.5714285714287</ele><time>2026-04-03T14:22:14.983Z</time></trkpt><trkpt lat="45.893317609129035" lon="9.807390209242714"><ele>1198.0</ele><time>2026-04-03T14:22:18.983Z</time></trkpt><trkpt lat="45.89337551237403" lon="9.807507532545708"><ele>1198.0</ele><time>2026-04-03T14:22:20.983Z</time></trkpt><trkpt lat="45.89340575268289" lon="9.80763421829999"><ele>1198.0</ele><time>2026-04-03T14:22:22.983Z</time></trkpt><trkpt lat="45.89339892231967" lon="9.80773748278194"><ele>1198.0</ele><time>2026-04-03T14:22:24.983Z</time></trkpt><trkpt lat="45.89343431452566" lon="9.807876123240261"><ele>1198.0</ele><time>2026-04-03T14:22:27.982Z</time></trkpt><trkpt lat="45.89344756644064" lon="9.808031288772826"><ele>1198.0</ele><time>2026-04-03T14:22:29.982Z</time></trkpt><trkpt lat="45.89347366934433" lon="9.808140270091537"><ele>1201.3333333333333</ele><time>2026-04-03T14:22:31.982Z</time></trkpt><trkpt lat="45.89352797919721" lon="9.80825908951412"><ele>1204.6666666666665</ele><time>2026-04-03T14:22:34.982Z</time></trkpt><trkpt lat="45.89356362762876" lon="9.808376054832458"><ele>1208.0</ele><time>2026-04-03T14:22:36.982Z</time></trkpt><trkpt lat="45.893593217316784" lon="9.808481630844504"><ele>1211.3333333333333</ele><time>2026-04-03T14:22:38.982Z</time></trkpt><trkpt lat="45.893588803158345" lon="9.808579367186152"><ele>1214.6666666666667</ele><time>2026-04-03T14:22:40.987Z</time></trkpt><trkpt lat="45.89356242866261" lon="9.808690957239293"><ele>1218.0</ele><time>2026-04-03T14:22:43.988Z</time></trkpt><trkpt lat="45.89355316130347" lon="9.80882023830111"><ele>1218.0</ele><time>2026-04-03T14:22:46.987Z</time></trkpt><trkpt lat="45.8935856707336" lon="9.808922543021628"><ele>1218.0</ele><time>2026-04-03T14:22:48.987Z</time></trkpt><trkpt lat="45.8936140441911" lon="9.809034008817322"><ele>1218.0</ele><time>2026-04-03T14:22:51.988Z</time></trkpt><trkpt lat="45.89361577520426" lon="9.809128634727763"><ele>1218.0</ele><time>2026-04-03T14:22:53.988Z</time></trkpt><trkpt lat="45.89358848738721" lon="9.809292322346643"><ele>1218.0</ele><time>2026-04-03T14:22:55.988Z</time></trkpt><trkpt lat="45.89358180355144" lon="9.809476074994025"><ele>1217.8333333333333</ele><time>2026-04-03T14:22:59.987Z</time></trkpt><trkpt lat="45.893586513546225" lon="9.809568575742375"><ele>1217.6666666666667</ele><time>2026-04-03T14:23:00.987Z</time></trkpt><trkpt lat="45.893621231124605" lon="9.809715309693631"><ele>1217.5</ele><time>2026-04-03T14:23:02.987Z</time></trkpt><trkpt lat="45.89366061585012" lon="9.809826582962273"><ele>1217.3333333333335</ele><time>2026-04-03T14:23:04.987Z</time></trkpt><trkpt lat="45.893685645128" lon="9.809944862917801"><ele>1217.1666666666667</ele><time>2026-04-03T14:23:07.987Z</time></trkpt><trkpt lat="45.893661253101804" lon="9.810034280733886"><ele>1217.0</ele><time>2026-04-03T14:23:12.987Z</time></trkpt><trkpt lat="45.89360481794531" lon="9.8101296433818"><ele>1217.8333333333335</ele><time>2026-04-03T14:23:15.986Z</time></trkpt><trkpt lat="45.893557590621164" lon="9.810201711833017"><ele>1218.6666666666667</ele><time>2026-04-03T14:23:18.986Z</time></trkpt><trkpt lat="45.893481368830805" lon="9.810271397971125"><ele>1219.5</ele><time>2026-04-03T14:23:20.986Z</time></trkpt><trkpt lat="45.89335627102121" lon="9.810305381135677"><ele>1220.3333333333333</ele><time>2026-04-03T14:23:24.986Z</time></trkpt><trkpt lat="45.89329492478795" lon="9.810330849964412"><ele>1221.1666666666665</ele><time>2026-04-03T14:23:25.986Z</time></trkpt><trkpt lat="45.89321796371691" lon="9.810359295631645"><ele>1222.0</ele><time>2026-04-03T14:23:26.986Z</time></trkpt><trkpt lat="45.89307078951277" lon="9.810414035639976"><ele>1217.5</ele><time>2026-04-03T14:23:28.986Z</time></trkpt><trkpt lat="45.892991307963875" lon="9.810445219028717"><ele>1213.0</ele><time>2026-04-03T14:23:29.986Z</time></trkpt><trkpt lat="45.8929139533851" lon="9.810452244795309"><ele>1208.5</ele><time>2026-04-03T14:23:30.986Z</time></trkpt><trkpt lat="45.89284782305055" lon="9.810420302768748"><ele>1204.0</ele><time>2026-04-03T14:23:31.985Z</time></trkpt><trkpt lat="45.892767539664746" lon="9.81040034177628"><ele>1199.5</ele><time>2026-04-03T14:23:32.985Z</time></trkpt><trkpt lat="45.89264799121725" lon="9.810438200288841"><ele>1195.0</ele><time>2026-04-03T14:23:34.985Z</time></trkpt><trkpt lat="45.89259305327221" lon="9.810495406862481"><ele>1196.6666666666665</ele><time>2026-04-03T14:23:35.985Z</time></trkpt><trkpt lat="45.89252222526293" lon="9.810562722995057"><ele>1198.3333333333333</ele><time>2026-04-03T14:23:36.985Z</time></trkpt><trkpt lat="45.892464095087846" lon="9.810643344018418"><ele>1200.0</ele><time>2026-04-03T14:23:37.985Z</time></trkpt><trkpt lat="45.89243136401483" lon="9.810730222430342"><ele>1201.6666666666667</ele><time>2026-04-03T14:23:38.985Z</time></trkpt><trkpt lat="45.892381698783154" lon="9.810801159343264"><ele>1203.3333333333335</ele><time>2026-04-03T14:23:39.985Z</time></trkpt><trkpt lat="45.892324855130575" lon="9.810892785233461"><ele>1205.0</ele><time>2026-04-03T14:23:40.985Z</time></trkpt><trkpt lat="45.89228718208371" lon="9.810994722651452"><ele>1205.0</ele><time>2026-04-03T14:23:41.985Z</time></trkpt><trkpt lat="45.89229673226706" lon="9.811112883523181"><ele>1205.0</ele><time>2026-04-03T14:23:43.985Z</time></trkpt><trkpt lat="45.8922053456143" lon="9.811234701029052"><ele>1205.0</ele><time>2026-04-03T14:23:45.985Z</time></trkpt><trkpt lat="45.892170865345854" lon="9.811350833805175"><ele>1205.0</ele><time>2026-04-03T14:23:46.985Z</time></trkpt><trkpt lat="45.89209498687835" lon="9.811552918547847"><ele>1205.0</ele><time>2026-04-03T14:23:48.984Z</time></trkpt><trkpt lat="45.89202432737507" lon="9.811614384789035"><ele>1205.0</ele><time>2026-04-03T14:23:49.984Z</time></trkpt><trkpt lat="45.89197262793678" lon="9.811671181700456"><ele>1205.0</ele><time>2026-04-03T14:23:51.984Z</time></trkpt><trkpt lat="45.89190243603789" lon="9.811663970371638"><ele>1205.0</ele><time>2026-04-03T14:23:53.984Z</time></trkpt><trkpt lat="45.89182575328858" lon="9.811747328854818"><ele>1205.0</ele><time>2026-04-03T14:23:55.984Z</time></trkpt><trkpt lat="45.89179042372415" lon="9.811860359759303"><ele>1205.0</ele><time>2026-04-03T14:23:57.984Z</time></trkpt><trkpt lat="45.891681672354295" lon="9.811984085787058"><ele>1201.5</ele><time>2026-04-03T14:23:59.984Z</time></trkpt><trkpt lat="45.8916157455053" lon="9.812027766009777"><ele>1198.0</ele><time>2026-04-03T14:24:00.984Z</time></trkpt><trkpt lat="45.89154846099239" lon="9.812049122406878"><ele>1194.5</ele><time>2026-04-03T14:24:02.984Z</time></trkpt><trkpt lat="45.89144033434544" lon="9.812056288907"><ele>1191.0</ele><time>2026-04-03T14:24:04.984Z</time></trkpt><trkpt lat="45.89137718627532" lon="9.81206313505072"><ele>1187.5</ele><time>2026-04-03T14:24:08.983Z</time></trkpt><trkpt lat="45.891283996113586" lon="9.812046051206092"><ele>1184.0</ele><time>2026-04-03T14:24:10.983Z</time></trkpt><trkpt lat="45.89121106840906" lon="9.812014436460323"><ele>1184.0</ele><time>2026-04-03T14:24:12.983Z</time></trkpt><trkpt lat="45.891119497442986" lon="9.812025752726923"><ele>1184.0</ele><time>2026-04-03T14:24:13.983Z</time></trkpt><trkpt lat="45.89103605353707" lon="9.812050625913757"><ele>1184.0</ele><time>2026-04-03T14:24:14.983Z</time></trkpt><trkpt lat="45.89095076540736" lon="9.812096556480784"><ele>1184.0</ele><time>2026-04-03T14:24:15.983Z</time></trkpt><trkpt lat="45.89088117125664" lon="9.81213796485858"><ele>1184.0</ele><time>2026-04-03T14:24:16.983Z</time></trkpt><trkpt lat="45.8908031792132" lon="9.812238020675919"><ele>1184.0</ele><time>2026-04-03T14:24:18.983Z</time></trkpt><trkpt lat="45.890730968552305" lon="9.81232251815606"><ele>1185.6666666666667</ele><time>2026-04-03T14:24:20.983Z</time></trkpt><trkpt lat="45.890682689192325" lon="9.812386954254892"><ele>1187.3333333333335</ele><time>2026-04-03T14:24:21.983Z</time></trkpt><trkpt lat="45.8905897244534" lon="9.812445446104393"><ele>1189.0</ele><time>2026-04-03T14:24:23.982Z</time></trkpt><trkpt lat="45.890532235498554" lon="9.812487821615775"><ele>1190.6666666666667</ele><time>2026-04-03T14:24:24.982Z</time></trkpt><trkpt lat="45.89044396486557" lon="9.812555368436369"><ele>1192.3333333333333</ele><time>2026-04-03T14:24:25.982Z</time></trkpt><trkpt lat="45.890343063344496" lon="9.812609912533038"><ele>1194.0</ele><time>2026-04-03T14:24:26.982Z</time></trkpt><trkpt lat="45.8902789630894" lon="9.81271200841211"><ele>1194.0</ele><time>2026-04-03T14:24:28.982Z</time></trkpt><trkpt lat="45.89026159799613" lon="9.812801029482696"><ele>1194.0</ele><time>2026-04-03T14:24:29.982Z</time></trkpt><trkpt lat="45.89019509451801" lon="9.812925145607508"><ele>1194.0</ele><time>2026-04-03T14:24:30.982Z</time></trkpt><trkpt lat="45.89016325918821" lon="9.813021084570924"><ele>1194.0</ele><time>2026-04-03T14:24:31.982Z</time></trkpt><trkpt lat="45.89014549728678" lon="9.813153377744083"><ele>1194.0</ele><time>2026-04-03T14:24:33.982Z</time></trkpt><trkpt lat="45.89009062092366" lon="9.813274323728091"><ele>1194.0</ele><time>2026-04-03T14:24:34.982Z</time></trkpt><trkpt lat="45.89005732525594" lon="9.813373089853982"><ele>1189.4</ele><time>2026-04-03T14:24:35.982Z</time></trkpt><trkpt lat="45.88997763607336" lon="9.813451722333351"><ele>1184.8000000000002</ele><time>2026-04-03T14:24:37.982Z</time></trkpt><trkpt lat="45.88992061222904" lon="9.813501044230373"><ele>1180.1999999999998</ele><time>2026-04-03T14:24:38.982Z</time></trkpt><trkpt lat="45.889839226505586" lon="9.81357338511457"><ele>1175.6</ele><time>2026-04-03T14:24:40.981Z</time></trkpt><trkpt lat="45.88974288771121" lon="9.813658757696494"><ele>1171.0</ele><time>2026-04-03T14:24:42.981Z</time></trkpt><trkpt lat="45.88970423624102" lon="9.813765248116244"><ele>1171.0</ele><time>2026-04-03T14:24:43.981Z</time></trkpt><trkpt lat="45.889622770630226" lon="9.813858561692324"><ele>1171.0</ele><time>2026-04-03T14:24:45.987Z</time></trkpt><trkpt lat="45.88952182721363" lon="9.813897867904686"><ele>1171.0</ele><time>2026-04-03T14:24:47.987Z</time></trkpt><trkpt lat="45.88945836886582" lon="9.813923044138361"><ele>1171.0</ele><time>2026-04-03T14:24:48.987Z</time></trkpt><trkpt lat="45.88936927429855" lon="9.813934449787913"><ele>1171.0</ele><time>2026-04-03T14:24:50.987Z</time></trkpt><trkpt lat="45.88929766216611" lon="9.813934476839666"><ele>1171.0</ele><time>2026-04-03T14:24:52.987Z</time></trkpt><trkpt lat="45.88918200806442" lon="9.813961561155427"><ele>1163.6</ele><time>2026-04-03T14:24:54.987Z</time></trkpt><trkpt lat="45.88907613653762" lon="9.814036428677662"><ele>1156.1999999999998</ele><time>2026-04-03T14:24:56.987Z</time></trkpt><trkpt lat="45.88901578629431" lon="9.8141048056965"><ele>1148.8000000000002</ele><time>2026-04-03T14:24:57.987Z</time></trkpt><trkpt lat="45.88888430575374" lon="9.814195799710026"><ele>1141.4</ele><time>2026-04-03T14:24:59.987Z</time></trkpt><trkpt lat="45.888805759998654" lon="9.81426048967497"><ele>1134.0</ele><time>2026-04-03T14:25:01.987Z</time></trkpt><trkpt lat="45.88872531512898" lon="9.814310444124622"><ele>1137.1666666666667</ele><time>2026-04-03T14:25:04.987Z</time></trkpt><trkpt lat="45.88865035958508" lon="9.814356296591065"><ele>1140.3333333333333</ele><time>2026-04-03T14:25:06.987Z</time></trkpt><trkpt lat="45.88857436977926" lon="9.814405390097761"><ele>1143.5</ele><time>2026-04-03T14:25:08.986Z</time></trkpt><trkpt lat="45.888492910230696" lon="9.81446124076483"><ele>1146.6666666666665</ele><time>2026-04-03T14:25:11.986Z</time></trkpt><trkpt lat="45.88841766588944" lon="9.81452798502524"><ele>1149.8333333333333</ele><time>2026-04-03T14:25:13.986Z</time></trkpt><trkpt lat="45.8883394563372" lon="9.814587850595304"><ele>1153.0</ele><time>2026-04-03T14:25:16.986Z</time></trkpt><trkpt lat="45.888275054006954" lon="9.814628365797148"><ele>1153.0</ele><time>2026-04-03T14:25:18.986Z</time></trkpt><trkpt lat="45.888204203701164" lon="9.814744376080148"><ele>1153.0</ele><time>2026-04-03T14:25:20.986Z</time></trkpt><trkpt lat="45.888147739670565" lon="9.814812077896558"><ele>1153.0</ele><time>2026-04-03T14:25:22.986Z</time></trkpt><trkpt lat="45.88804542931042" lon="9.814883468354001"><ele>1153.0</ele><time>2026-04-03T14:25:24.986Z</time></trkpt><trkpt lat="45.88800139263788" lon="9.814987429754828"><ele>1153.0</ele><time>2026-04-03T14:25:27.985Z</time></trkpt><trkpt lat="45.88793983979756" lon="9.815087239504221"><ele>1158.5</ele><time>2026-04-03T14:25:30.985Z</time></trkpt><trkpt lat="45.88788658899022" lon="9.815177156543426"><ele>1164.0</ele><time>2026-04-03T14:25:32.985Z</time></trkpt><trkpt lat="45.88786191951712" lon="9.815280209426778"><ele>1169.5</ele><time>2026-04-03T14:25:34.985Z</time></trkpt><trkpt lat="45.887819547543195" lon="9.815414165408763"><ele>1175.0</ele><time>2026-04-03T14:25:36.985Z</time></trkpt><trkpt lat="45.887797084205694" lon="9.815504057532548"><ele>1180.5</ele><time>2026-04-03T14:25:39.985Z</time></trkpt><trkpt lat="45.88774764640563" lon="9.815562119334741"><ele>1186.0</ele><time>2026-04-03T14:25:45.984Z</time></trkpt><trkpt lat="45.887684373229135" lon="9.81561891362086"><ele>1186.0</ele><time>2026-04-03T14:25:50.984Z</time></trkpt><trkpt lat="45.88761132154823" lon="9.815596753078378"><ele>1186.0</ele><time>2026-04-03T14:25:53.984Z</time></trkpt><trkpt lat="45.88752417160715" lon="9.815624814419886"><ele>1186.0</ele><time>2026-04-03T14:25:56.984Z</time></trkpt><trkpt lat="45.88745608148422" lon="9.81562257326773"><ele>1186.0</ele><time>2026-04-03T14:25:58.984Z</time></trkpt><trkpt lat="45.8873897170782" lon="9.815633021813978"><ele>1186.0</ele><time>2026-04-03T14:26:00.983Z</time></trkpt><trkpt lat="45.88727277530323" lon="9.815647140647751"><ele>1186.0</ele><time>2026-04-03T14:26:02.983Z</time></trkpt><trkpt lat="45.88719294936077" lon="9.815661334021222"><ele>1186.8333333333333</ele><time>2026-04-03T14:26:04.983Z</time></trkpt><trkpt lat="45.88712426207273" lon="9.815638632733958"><ele>1187.6666666666665</ele><time>2026-04-03T14:26:06.983Z</time></trkpt><trkpt lat="45.88704412241184" lon="9.815679436570546"><ele>1188.5</ele><time>2026-04-03T14:26:09.983Z</time></trkpt><trkpt lat="45.8869755967314" lon="9.815733364324227"><ele>1189.3333333333333</ele><time>2026-04-03T14:26:11.983Z</time></trkpt><trkpt lat="45.88692594379245" lon="9.815823131082661"><ele>1190.1666666666667</ele><time>2026-04-03T14:26:13.983Z</time></trkpt><trkpt lat="45.886848652733484" lon="9.815934563049941"><ele>1191.0</ele><time>2026-04-03T14:26:15.983Z</time></trkpt><trkpt lat="45.88681267763464" lon="9.81603450067628"><ele>1191.0</ele><time>2026-04-03T14:26:17.982Z</time></trkpt><trkpt lat="45.88677358942227" lon="9.816162464101396"><ele>1191.0</ele><time>2026-04-03T14:26:19.982Z</time></trkpt><trkpt lat="45.88669882757622" lon="9.816260384668876"><ele>1191.0</ele><time>2026-04-03T14:26:21.982Z</time></trkpt><trkpt lat="45.8866319512892" lon="9.816341100960425"><ele>1191.0</ele><time>2026-04-03T14:26:24.982Z</time></trkpt><trkpt lat="45.886530807525546" lon="9.816310961855068"><ele>1191.0</ele><time>2026-04-03T14:26:27.982Z</time></trkpt><trkpt lat="45.886343441976884" lon="9.816333183718141"><ele>1186.0</ele><time>2026-04-03T14:26:30.982Z</time></trkpt><trkpt lat="45.88625613361325" lon="9.816324644420531"><ele>1181.0</ele><time>2026-04-03T14:26:33.981Z</time></trkpt><trkpt lat="45.886169202588746" lon="9.816312051947307"><ele>1176.0</ele><time>2026-04-03T14:26:35.981Z</time></trkpt><trkpt lat="45.8860929820579" lon="9.816294017392345"><ele>1171.0</ele><time>2026-04-03T14:26:36.981Z</time></trkpt><trkpt lat="45.885995230449346" lon="9.81625999941581"><ele>1166.0</ele><time>2026-04-03T14:26:37.981Z</time></trkpt><trkpt lat="45.885913646511355" lon="9.81621694101916"><ele>1161.0</ele><time>2026-04-03T14:26:38.981Z</time></trkpt><trkpt lat="45.885856195770714" lon="9.816170299221229"><ele>1158.4285714285713</ele><time>2026-04-03T14:26:39.981Z</time></trkpt><trkpt lat="45.88579126965214" lon="9.81614512324099"><ele>1155.857142857143</ele><time>2026-04-03T14:26:41.981Z</time></trkpt><trkpt lat="45.88572119484166" lon="9.816150976171977"><ele>1153.2857142857142</ele><time>2026-04-03T14:26:42.981Z</time></trkpt><trkpt lat="45.88564778557361" lon="9.816163974848873"><ele>1150.7142857142858</ele><time>2026-04-03T14:26:43.981Z</time></trkpt><trkpt lat="45.88557230501533" lon="9.816179880214959"><ele>1148.142857142857</ele><time>2026-04-03T14:26:44.981Z</time></trkpt><trkpt lat="45.885508203886644" lon="9.816173678142103"><ele>1145.5714285714284</ele><time>2026-04-03T14:26:45.981Z</time></trkpt><trkpt lat="45.88542358123305" lon="9.816198369203196"><ele>1143.0</ele><time>2026-04-03T14:26:47.981Z</time></trkpt><trkpt lat="45.8853535462796" lon="9.816197426604102"><ele>1143.0</ele><time>2026-04-03T14:26:49.981Z</time></trkpt><trkpt lat="45.88528413401515" lon="9.816211228801858"><ele>1143.0</ele><time>2026-04-03T14:26:53.987Z</time></trkpt><trkpt lat="45.88521755122019" lon="9.816224482732766"><ele>1143.0</ele><time>2026-04-03T14:26:56.986Z</time></trkpt><trkpt lat="45.885131994839234" lon="9.816249766132248"><ele>1143.0</ele><time>2026-04-03T14:26:59.987Z</time></trkpt><trkpt lat="45.88507567156918" lon="9.81629502236666"><ele>1143.0</ele><time>2026-04-03T14:27:05.986Z</time></trkpt><trkpt lat="45.88501046645609" lon="9.816361726297337"><ele>1143.0</ele><time>2026-04-03T14:27:10.986Z</time></trkpt><trkpt lat="45.88496517567809" lon="9.816429863583844"><ele>1143.0</ele><time>2026-04-03T14:27:12.986Z</time></trkpt><trkpt lat="45.88488427914814" lon="9.816468490013346"><ele>1141.8333333333333</ele><time>2026-04-03T14:27:14.986Z</time></trkpt><trkpt lat="45.88481851209416" lon="9.81647925070117"><ele>1140.6666666666667</ele><time>2026-04-03T14:27:18.986Z</time></trkpt><trkpt lat="45.8847352183048" lon="9.816472063729915"><ele>1139.5</ele><time>2026-04-03T14:27:22.985Z</time></trkpt><trkpt lat="45.884642184473755" lon="9.816491265324348"><ele>1138.3333333333335</ele><time>2026-04-03T14:27:26.985Z</time></trkpt><trkpt lat="45.88455192228423" lon="9.816508661061105"><ele>1137.1666666666667</ele><time>2026-04-03T14:27:29.985Z</time></trkpt><trkpt lat="45.88447726320111" lon="9.81651519921632"><ele>1136.0</ele><time>2026-04-03T14:27:31.985Z</time></trkpt><trkpt lat="45.88440072470257" lon="9.816569255225062"><ele>1136.0</ele><time>2026-04-03T14:27:34.985Z</time></trkpt><trkpt lat="45.884326014943426" lon="9.816596450207197"><ele>1136.0</ele><time>2026-04-03T14:27:36.985Z</time></trkpt><trkpt lat="45.88426145971616" lon="9.816623098700177"><ele>1136.0</ele><time>2026-04-03T14:27:38.984Z</time></trkpt><trkpt lat="45.88417911978916" lon="9.816702468400951"><ele>1136.0</ele><time>2026-04-03T14:27:40.984Z</time></trkpt><trkpt lat="45.884100366138135" lon="9.816750524726801"><ele>1136.0</ele><time>2026-04-03T14:27:42.984Z</time></trkpt><trkpt lat="45.884011936207706" lon="9.816776107863928"><ele>1136.0</ele><time>2026-04-03T14:27:44.984Z</time></trkpt><trkpt lat="45.883948523073194" lon="9.816814449596718"><ele>1139.8333333333335</ele><time>2026-04-03T14:27:46.984Z</time></trkpt><trkpt lat="45.88387485888046" lon="9.816843683796021"><ele>1143.6666666666667</ele><time>2026-04-03T14:27:48.984Z</time></trkpt><trkpt lat="45.88377540752868" lon="9.816904102101963"><ele>1147.5</ele><time>2026-04-03T14:27:51.984Z</time></trkpt><trkpt lat="45.883700448683555" lon="9.816969214699666"><ele>1151.3333333333333</ele><time>2026-04-03T14:27:53.984Z</time></trkpt><trkpt lat="45.88364241956621" lon="9.81703516521914"><ele>1155.1666666666665</ele><time>2026-04-03T14:27:54.983Z</time></trkpt><trkpt lat="45.88356499923771" lon="9.817126667232028"><ele>1159.0</ele><time>2026-04-03T14:27:55.983Z</time></trkpt><trkpt lat="45.883500425485416" lon="9.81718147790884"><ele>1154.8</ele><time>2026-04-03T14:27:57.983Z</time></trkpt><trkpt lat="45.883390988179215" lon="9.817286754503407"><ele>1150.6000000000001</ele><time>2026-04-03T14:27:59.983Z</time></trkpt><trkpt lat="45.88331443432105" lon="9.81738251317453"><ele>1146.4</ele><time>2026-04-03T14:28:01.983Z</time></trkpt><trkpt lat="45.8832568643514" lon="9.817452185559109"><ele>1142.2</ele><time>2026-04-03T14:28:03.983Z</time></trkpt><trkpt lat="45.88317827203194" lon="9.817529230368521"><ele>1138.0</ele><time>2026-04-03T14:28:05.983Z</time></trkpt><trkpt lat="45.88310250896125" lon="9.817592930170106"><ele>1143.6</ele><time>2026-04-03T14:28:07.983Z</time></trkpt><trkpt lat="45.882991860150554" lon="9.817656440830842"><ele>1149.1999999999998</ele><time>2026-04-03T14:28:09.983Z</time></trkpt><trkpt lat="45.88291387755915" lon="9.817721992211027"><ele>1154.8</ele><time>2026-04-03T14:28:10.983Z</time></trkpt><trkpt lat="45.88285597215663" lon="9.817834500600947"><ele>1160.3999999999999</ele><time>2026-04-03T14:28:12.982Z</time></trkpt><trkpt lat="45.882795644555124" lon="9.81792735239495"><ele>1166.0</ele><time>2026-04-03T14:28:13.982Z</time></trkpt><trkpt lat="45.88273750761447" lon="9.81800497444501"><ele>1166.0</ele><time>2026-04-03T14:28:14.982Z</time></trkpt><trkpt lat="45.882684893006115" lon="9.818112146997937"><ele>1166.0</ele><time>2026-04-03T14:28:17.982Z</time></trkpt><trkpt lat="45.8826279190897" lon="9.818153120427272"><ele>1166.0</ele><time>2026-04-03T14:28:18.982Z</time></trkpt><trkpt lat="45.88256835921439" lon="9.818223020987258"><ele>1166.0</ele><time>2026-04-03T14:28:19.982Z</time></trkpt><trkpt lat="45.88248833878505" lon="9.818360092759143"><ele>1166.0</ele><time>2026-04-03T14:28:21.982Z</time></trkpt><trkpt lat="45.88240745041616" lon="9.818472440551615"><ele>1165.0</ele><time>2026-04-03T14:28:23.982Z</time></trkpt><trkpt lat="45.88234790060311" lon="9.818533313424862"><ele>1164.0</ele><time>2026-04-03T14:28:24.982Z</time></trkpt><trkpt lat="45.88227602675129" lon="9.818610399130481"><ele>1163.0</ele><time>2026-04-03T14:28:25.982Z</time></trkpt><trkpt lat="45.88213413061968" lon="9.818697511772772"><ele>1162.0</ele><time>2026-04-03T14:28:26.982Z</time></trkpt><trkpt lat="45.882012765838596" lon="9.818790636413215"><ele>1162.0</ele><time>2026-04-03T14:28:27.982Z</time></trkpt><trkpt lat="45.88187394254189" lon="9.818865030136456"><ele>1162.0</ele><time>2026-04-03T14:28:28.981Z</time></trkpt><trkpt lat="45.881748472947855" lon="9.81897201936996"><ele>1162.0</ele><time>2026-04-03T14:28:29.981Z</time></trkpt><trkpt lat="45.88166109702871" lon="9.819070393883312"><ele>1162.0</ele><time>2026-04-03T14:28:30.981Z</time></trkpt><trkpt lat="45.88156396230803" lon="9.819207845287192"><ele>1161.0</ele><time>2026-04-03T14:28:31.981Z</time></trkpt><trkpt lat="45.88152325203135" lon="9.819309600715696"><ele>1160.0</ele><time>2026-04-03T14:28:32.981Z</time></trkpt><trkpt lat="45.881483081115384" lon="9.819382150884644"><ele>1159.0</ele><time>2026-04-03T14:28:33.981Z</time></trkpt><trkpt lat="45.88139641917957" lon="9.819402439115757"><ele>1158.0</ele><time>2026-04-03T14:28:35.981Z</time></trkpt><trkpt lat="45.88123995567918" lon="9.819524843997796"><ele>1157.0</ele><time>2026-04-03T14:28:36.981Z</time></trkpt><trkpt lat="45.88112728092331" lon="9.819715058886093"><ele>1157.0</ele><time>2026-04-03T14:28:37.981Z</time></trkpt><trkpt lat="45.88104460009132" lon="9.81984617069973"><ele>1157.0</ele><time>2026-04-03T14:28:38.981Z</time></trkpt><trkpt lat="45.88099490807036" lon="9.819957033502407"><ele>1157.0</ele><time>2026-04-03T14:28:39.981Z</time></trkpt><trkpt lat="45.880909661163" lon="9.820091518654444"><ele>1157.0</ele><time>2026-04-03T14:28:40.981Z</time></trkpt><trkpt lat="45.88083109555151" lon="9.820192389366678"><ele>1157.0</ele><time>2026-04-03T14:28:41.981Z</time></trkpt><trkpt lat="45.88076573508709" lon="9.820350974579863"><ele>1155.0</ele><time>2026-04-03T14:28:42.981Z</time></trkpt><trkpt lat="45.88073753996935" lon="9.820452705510382"><ele>1153.0</ele><time>2026-04-03T14:28:43.981Z</time></trkpt><trkpt lat="45.88068648347173" lon="9.820575579299826"><ele>1151.0</ele><time>2026-04-03T14:28:44.981Z</time></trkpt><trkpt lat="45.88062795536075" lon="9.820695248876328"><ele>1149.0</ele><time>2026-04-03T14:28:45.98Z</time></trkpt><trkpt lat="45.880554540288074" lon="9.820838953995507"><ele>1147.0</ele><time>2026-04-03T14:28:46.98Z</time></trkpt><trkpt lat="45.88046659891456" lon="9.820967091891932"><ele>1150.4</ele><time>2026-04-03T14:28:47.98Z</time></trkpt><trkpt lat="45.88038627745576" lon="9.821094730070284"><ele>1153.8000000000002</ele><time>2026-04-03T14:28:48.98Z</time></trkpt><trkpt lat="45.88033079583228" lon="9.821232298567619"><ele>1157.2</ele><time>2026-04-03T14:28:49.98Z</time></trkpt><trkpt lat="45.88027947733492" lon="9.821354653050825"><ele>1160.6000000000001</ele><time>2026-04-03T14:28:50.98Z</time></trkpt><trkpt lat="45.88023923873145" lon="9.821475433936179"><ele>1164.0</ele><time>2026-04-03T14:28:51.98Z</time></trkpt><trkpt lat="45.8801963946021" lon="9.82159784344038"><ele>1164.0</ele><time>2026-04-03T14:28:52.98Z</time></trkpt><trkpt lat="45.8801706344916" lon="9.82178573532552"><ele>1164.0</ele><time>2026-04-03T14:28:53.98Z</time></trkpt><trkpt lat="45.880120276945334" lon="9.821944172995181"><ele>1164.0</ele><time>2026-04-03T14:28:54.98Z</time></trkpt><trkpt lat="45.88004092387792" lon="9.822102631564054"><ele>1164.0</ele><time>2026-04-03T14:28:55.98Z</time></trkpt><trkpt lat="45.879971620915946" lon="9.822243116472851"><ele>1158.75</ele><time>2026-04-03T14:28:56.98Z</time></trkpt><trkpt lat="45.87987613146131" lon="9.82234828257266"><ele>1153.5</ele><time>2026-04-03T14:28:57.986Z</time></trkpt><trkpt lat="45.87977777226896" lon="9.82251266346237"><ele>1148.25</ele><time>2026-04-03T14:28:58.986Z</time></trkpt><trkpt lat="45.87970498101283" lon="9.822684158232578"><ele>1143.0</ele><time>2026-04-03T14:28:59.986Z</time></trkpt><trkpt lat="45.87962564634874" lon="9.822778736632271"><ele>1143.0</ele><time>2026-04-03T14:29:00.986Z</time></trkpt><trkpt lat="45.87959595219646" lon="9.82286333991403"><ele>1143.0</ele><time>2026-04-03T14:29:01.986Z</time></trkpt><trkpt lat="45.879583183685796" lon="9.822973926072416"><ele>1143.0</ele><time>2026-04-03T14:29:03.986Z</time></trkpt><trkpt lat="45.879576911812734" lon="9.823089419381283"><ele>1143.0</ele><time>2026-04-03T14:29:04.986Z</time></trkpt><trkpt lat="45.879609531849695" lon="9.823236968787779"><ele>1143.0</ele><time>2026-04-03T14:29:06.986Z</time></trkpt><trkpt lat="45.879672060056976" lon="9.823377902752515"><ele>1143.0</ele><time>2026-04-03T14:29:08.986Z</time></trkpt><trkpt lat="45.87972609336704" lon="9.823496589112363"><ele>1141.8333333333333</ele><time>2026-04-03T14:29:10.986Z</time></trkpt><trkpt lat="45.87977505000345" lon="9.823609098102581"><ele>1140.6666666666667</ele><time>2026-04-03T14:29:12.986Z</time></trkpt><trkpt lat="45.87982719159629" lon="9.823660707985184"><ele>1139.5</ele><time>2026-04-03T14:29:16.986Z</time></trkpt><trkpt lat="45.87985975623026" lon="9.823789238588988"><ele>1138.3333333333335</ele><time>2026-04-03T14:29:36.984Z</time></trkpt><trkpt lat="45.87983068474281" lon="9.823871983800041"><ele>1137.1666666666667</ele><time>2026-04-03T14:29:39.984Z</time></trkpt><trkpt lat="45.879795188788314" lon="9.823971256581592"><ele>1136.0</ele><time>2026-04-03T14:29:41.984Z</time></trkpt><trkpt lat="45.87985503131934" lon="9.824130524059132"><ele>1136.0</ele><time>2026-04-03T14:29:43.984Z</time></trkpt><trkpt lat="45.879906717355375" lon="9.824253736923955"><ele>1136.0</ele><time>2026-04-03T14:29:45.984Z</time></trkpt><trkpt lat="45.87990434870348" lon="9.824358299723455"><ele>1136.0</ele><time>2026-04-03T14:29:47.984Z</time></trkpt><trkpt lat="45.87991090711828" lon="9.824458675839164"><ele>1136.0</ele><time>2026-04-03T14:29:50.984Z</time></trkpt><trkpt lat="45.8799425231086" lon="9.824604861806806"><ele>1136.0</ele><time>2026-04-03T14:29:53.983Z</time></trkpt><trkpt lat="45.87989356444606" lon="9.824700611703168"><ele>1136.0</ele><time>2026-04-03T14:29:57.983Z</time></trkpt><trkpt lat="45.87990331050488" lon="9.824794952382677"><ele>1135.1666666666667</ele><time>2026-04-03T14:30:01.983Z</time></trkpt><trkpt lat="45.87996299199377" lon="9.824849170469896"><ele>1134.3333333333335</ele><time>2026-04-03T14:30:07.983Z</time></trkpt><trkpt lat="45.88002978753327" lon="9.824863639719227"><ele>1133.5</ele><time>2026-04-03T14:30:09.983Z</time></trkpt><trkpt lat="45.88010011081909" lon="9.82490924866161"><ele>1132.6666666666667</ele><time>2026-04-03T14:30:13.982Z</time></trkpt><trkpt lat="45.88019571831778" lon="9.824919564057677"><ele>1131.8333333333333</ele><time>2026-04-03T14:30:18.982Z</time></trkpt><trkpt lat="45.88026026313957" lon="9.824925654270334"><ele>1131.0</ele><time>2026-04-03T14:30:20.982Z</time></trkpt><trkpt lat="45.880326672563" lon="9.825012736582165"><ele>1133.1428571428573</ele><time>2026-04-03T14:30:24.982Z</time></trkpt><trkpt lat="45.8803769113798" lon="9.825088836094915"><ele>1135.2857142857142</ele><time>2026-04-03T14:30:27.981Z</time></trkpt><trkpt lat="45.88042447433548" lon="9.825150443281943"><ele>1137.4285714285716</ele><time>2026-04-03T14:30:29.981Z</time></trkpt><trkpt lat="45.88049105681848" lon="9.825179752613662"><ele>1139.5714285714287</ele><time>2026-04-03T14:30:31.981Z</time></trkpt><trkpt lat="45.88057506873566" lon="9.825235595683823"><ele>1141.7142857142858</ele><time>2026-04-03T14:30:33.981Z</time></trkpt><trkpt lat="45.880659546589214" lon="9.825264276348035"><ele>1143.857142857143</ele><time>2026-04-03T14:30:35.981Z</time></trkpt><trkpt lat="45.880722551364144" lon="9.82527017366176"><ele>1146.0</ele><time>2026-04-03T14:30:36.981Z</time></trkpt><trkpt lat="45.8808130067085" lon="9.825310537008866"><ele>1144.3999999999999</ele><time>2026-04-03T14:30:38.981Z</time></trkpt><trkpt lat="45.880876557073385" lon="9.82534830609043"><ele>1142.8</ele><time>2026-04-03T14:30:40.981Z</time></trkpt><trkpt lat="45.88102105296995" lon="9.82540490602624"><ele>1141.1999999999998</ele><time>2026-04-03T14:30:43.981Z</time></trkpt><trkpt lat="45.88108509975694" lon="9.825424884143585"><ele>1139.6</ele><time>2026-04-03T14:30:48.98Z</time></trkpt><trkpt lat="45.88107200420769" lon="9.82554469617767"><ele>1138.0</ele><time>2026-04-03T14:30:50.98Z</time></trkpt><trkpt lat="45.88112052631653" lon="9.825638279002925"><ele>1138.0</ele><time>2026-04-03T14:30:51.98Z</time></trkpt><trkpt lat="45.88112765551479" lon="9.825770520074084"><ele>1138.0</ele><time>2026-04-03T14:30:52.98Z</time></trkpt><trkpt lat="45.88116497595486" lon="9.825868342283155"><ele>1138.0</ele><time>2026-04-03T14:30:53.98Z</time></trkpt><trkpt lat="45.881195030818574" lon="9.825949910838832"><ele>1138.0</ele><time>2026-04-03T14:30:54.98Z</time></trkpt><trkpt lat="45.88127196194692" lon="9.826036741333294"><ele>1138.0</ele><time>2026-04-03T14:30:56.98Z</time></trkpt><trkpt lat="45.88134687217514" lon="9.826133018832703"><ele>1138.0</ele><time>2026-04-03T14:30:58.98Z</time></trkpt><trkpt lat="45.8814033571322" lon="9.826193582508374"><ele>1138.8333333333333</ele><time>2026-04-03T14:31:00.98Z</time></trkpt><trkpt lat="45.88146191194374" lon="9.826276540122246"><ele>1139.6666666666665</ele><time>2026-04-03T14:31:02.979Z</time></trkpt><trkpt lat="45.8815400045541" lon="9.826342872017124"><ele>1140.5</ele><time>2026-04-03T14:31:04.985Z</time></trkpt><trkpt lat="45.88164778459262" lon="9.826386353801702"><ele>1141.3333333333333</ele><time>2026-04-03T14:31:07.986Z</time></trkpt><trkpt lat="45.88171407030024" lon="9.826435382498813"><ele>1142.1666666666667</ele><time>2026-04-03T14:31:09.986Z</time></trkpt><trkpt lat="45.881776229691475" lon="9.826470583034153"><ele>1143.0</ele><time>2026-04-03T14:31:10.985Z</time></trkpt><trkpt lat="45.88187949951703" lon="9.826586604159138"><ele>1143.0</ele><time>2026-04-03T14:31:12.985Z</time></trkpt><trkpt lat="45.881941849753396" lon="9.826657617248221"><ele>1143.0</ele><time>2026-04-03T14:31:14.985Z</time></trkpt><trkpt lat="45.88203235046808" lon="9.82668310017616"><ele>1143.0</ele><time>2026-04-03T14:31:16.986Z</time></trkpt><trkpt lat="45.882117085506934" lon="9.826748863892254"><ele>1143.0</ele><time>2026-04-03T14:31:18.986Z</time></trkpt><trkpt lat="45.88219481199534" lon="9.82681410021032"><ele>1143.0</ele><time>2026-04-03T14:31:20.986Z</time></trkpt><trkpt lat="45.88225441841207" lon="9.82688828461156"><ele>1143.0</ele><time>2026-04-03T14:31:22.985Z</time></trkpt><trkpt lat="45.88231944495606" lon="9.826929925932394"><ele>1140.2</ele><time>2026-04-03T14:31:23.985Z</time></trkpt><trkpt lat="45.88240046180957" lon="9.827006143049468"><ele>1137.4</ele><time>2026-04-03T14:31:25.985Z</time></trkpt><trkpt lat="45.882473722779" lon="9.82710075050955"><ele>1134.6000000000001</ele><time>2026-04-03T14:31:27.985Z</time></trkpt><trkpt lat="45.88256481417371" lon="9.827170682060352"><ele>1131.8</ele><time>2026-04-03T14:31:30.985Z</time></trkpt><trkpt lat="45.882640171967346" lon="9.827262865804892"><ele>1129.0</ele><time>2026-04-03T14:31:33.985Z</time></trkpt><trkpt lat="45.88271526548732" lon="9.827341804842664"><ele>1129.0</ele><time>2026-04-03T14:31:35.985Z</time></trkpt><trkpt lat="45.882760728077976" lon="9.827441694145651"><ele>1129.0</ele><time>2026-04-03T14:31:37.985Z</time></trkpt><trkpt lat="45.88279370772099" lon="9.827553390005619"><ele>1129.0</ele><time>2026-04-03T14:31:41.984Z</time></trkpt><trkpt lat="45.88279746755846" lon="9.82765669124218"><ele>1129.0</ele><time>2026-04-03T14:31:44.984Z</time></trkpt><trkpt lat="45.88271812840066" lon="9.827756080628095"><ele>1129.0</ele><time>2026-04-03T14:31:47.984Z</time></trkpt><trkpt lat="45.88265034166115" lon="9.827799507638455"><ele>1129.0</ele><time>2026-04-03T14:31:48.984Z</time></trkpt><trkpt lat="45.88247250986092" lon="9.827940859014882"><ele>1122.0</ele><time>2026-04-03T14:31:49.984Z</time></trkpt><trkpt lat="45.882357699833356" lon="9.82801979704252"><ele>1115.0</ele><time>2026-04-03T14:31:50.984Z</time></trkpt><trkpt lat="45.88226463629098" lon="9.82808746426275"><ele>1108.0</ele><time>2026-04-03T14:31:51.984Z</time></trkpt><trkpt lat="45.88217793053659" lon="9.828177278381528"><ele>1101.0</ele><time>2026-04-03T14:31:53.984Z</time></trkpt><trkpt lat="45.88214371603501" lon="9.828329130628198"><ele>1101.0</ele><time>2026-04-03T14:31:56.983Z</time></trkpt><trkpt lat="45.88208268445298" lon="9.828410856455243"><ele>1101.0</ele><time>2026-04-03T14:31:58.983Z</time></trkpt><trkpt lat="45.881993973003965" lon="9.828454860718898"><ele>1101.0</ele><time>2026-04-03T14:32:00.983Z</time></trkpt><trkpt lat="45.881920749340736" lon="9.828523192353869"><ele>1101.0</ele><time>2026-04-03T14:32:02.983Z</time></trkpt><trkpt lat="45.88187704445787" lon="9.828652794874452"><ele>1101.0</ele><time>2026-04-03T14:32:04.983Z</time></trkpt><trkpt lat="45.88183348122605" lon="9.828741497518902"><ele>1101.0</ele><time>2026-04-03T14:32:05.983Z</time></trkpt><trkpt lat="45.881769182416974" lon="9.828856034222204"><ele>1101.0</ele><time>2026-04-03T14:32:07.983Z</time></trkpt><trkpt lat="45.88172436287931" lon="9.828928590273392"><ele>1101.0</ele><time>2026-04-03T14:32:09.983Z</time></trkpt><trkpt lat="45.88162916008416" lon="9.828920410360102"><ele>1101.0</ele><time>2026-04-03T14:32:12.982Z</time></trkpt><trkpt lat="45.88151538455148" lon="9.82889833188093"><ele>1101.0</ele><time>2026-04-03T14:32:14.982Z</time></trkpt><trkpt lat="45.88140567992303" lon="9.828915982544064"><ele>1101.0</ele><time>2026-04-03T14:32:15.982Z</time></trkpt><trkpt lat="45.8813037444231" lon="9.8289426141996"><ele>1101.0</ele><time>2026-04-03T14:32:16.982Z</time></trkpt><trkpt lat="45.881196326102994" lon="9.82901993188296"><ele>1101.0</ele><time>2026-04-03T14:32:17.982Z</time></trkpt><trkpt lat="45.881136727967444" lon="9.829096431070981"><ele>1101.0</ele><time>2026-04-03T14:32:18.982Z</time></trkpt><trkpt lat="45.88108124815737" lon="9.82915981012238"><ele>1101.0</ele><time>2026-04-03T14:32:19.982Z</time></trkpt><trkpt lat="45.88101878192408" lon="9.829205057477077"><ele>1101.0</ele><time>2026-04-03T14:32:20.982Z</time></trkpt><trkpt lat="45.88086252991291" lon="9.82929819891783"><ele>1105.0</ele><time>2026-04-03T14:32:22.982Z</time></trkpt><trkpt lat="45.88077085306603" lon="9.82938044188601"><ele>1109.0</ele><time>2026-04-03T14:32:23.982Z</time></trkpt><trkpt lat="45.880644874465354" lon="9.8294517027542"><ele>1113.0</ele><time>2026-04-03T14:32:24.982Z</time></trkpt><trkpt lat="45.880526608848236" lon="9.829532323990904"><ele>1117.0</ele><time>2026-04-03T14:32:25.982Z</time></trkpt><trkpt lat="45.88042888622423" lon="9.82959739823325"><ele>1117.0</ele><time>2026-04-03T14:32:26.982Z</time></trkpt><trkpt lat="45.880314412596256" lon="9.829631638672574"><ele>1117.0</ele><time>2026-04-03T14:32:27.982Z</time></trkpt><trkpt lat="45.880208219258044" lon="9.829652682788414"><ele>1117.0</ele><time>2026-04-03T14:32:28.981Z</time></trkpt><trkpt lat="45.88008867735854" lon="9.829694237713971"><ele>1117.0</ele><time>2026-04-03T14:32:29.981Z</time></trkpt><trkpt lat="45.87997850636464" lon="9.82972582489139"><ele>1113.2</ele><time>2026-04-03T14:32:30.981Z</time></trkpt><trkpt lat="45.87986563080736" lon="9.829743615055968"><ele>1109.4</ele><time>2026-04-03T14:32:31.981Z</time></trkpt><trkpt lat="45.87977701786871" lon="9.829805947994014"><ele>1105.6</ele><time>2026-04-03T14:32:32.981Z</time></trkpt><trkpt lat="45.879693056340905" lon="9.829801458652081"><ele>1101.8</ele><time>2026-04-03T14:32:33.981Z</time></trkpt><trkpt lat="45.879610991969635" lon="9.829789066753547"><ele>1098.0</ele><time>2026-04-03T14:32:34.981Z</time></trkpt><trkpt lat="45.87948941709866" lon="9.829796134446294"><ele>1098.0</ele><time>2026-04-03T14:32:35.981Z</time></trkpt><trkpt lat="45.87936902133035" lon="9.829799862704172"><ele>1098.0</ele><time>2026-04-03T14:32:36.981Z</time></trkpt><trkpt lat="45.8792621963159" lon="9.829793681831458"><ele>1098.0</ele><time>2026-04-03T14:32:37.981Z</time></trkpt><trkpt lat="45.87916011156299" lon="9.829829951294222"><ele>1098.0</ele><time>2026-04-03T14:32:38.981Z</time></trkpt><trkpt lat="45.879095236050674" lon="9.829867690136432"><ele>1098.0</ele><time>2026-04-03T14:32:39.981Z</time></trkpt><trkpt lat="45.87899162862476" lon="9.82992364180017"><ele>1098.5</ele><time>2026-04-03T14:32:41.981Z</time></trkpt><trkpt lat="45.87891833700137" lon="9.829941146545199"><ele>1099.0</ele><time>2026-04-03T14:32:42.981Z</time></trkpt><trkpt lat="45.87882125205122" lon="9.82995483733049"><ele>1099.5</ele><time>2026-04-03T14:32:43.981Z</time></trkpt><trkpt lat="45.87874498900167" lon="9.829968153473306"><ele>1100.0</ele><time>2026-04-03T14:32:44.981Z</time></trkpt><trkpt lat="45.87867776484003" lon="9.830024594950025"><ele>1100.5</ele><time>2026-04-03T14:32:45.98Z</time></trkpt><trkpt lat="45.87861000087429" lon="9.830086290681114"><ele>1101.0</ele><time>2026-04-03T14:32:46.98Z</time></trkpt><trkpt lat="45.87855406461352" lon="9.83016526335803"><ele>1100.2</ele><time>2026-04-03T14:32:52.98Z</time></trkpt><trkpt lat="45.878493369602104" lon="9.830248690890983"><ele>1099.3999999999999</ele><time>2026-04-03T14:32:54.98Z</time></trkpt><trkpt lat="45.878445586337236" lon="9.830331748629742"><ele>1098.6</ele><time>2026-04-03T14:32:56.98Z</time></trkpt><trkpt lat="45.87839434182965" lon="9.830445976668834"><ele>1097.8</ele><time>2026-04-03T14:32:59.98Z</time></trkpt><trkpt lat="45.878335914529956" lon="9.830538315829845"><ele>1097.0</ele><time>2026-04-03T14:33:01.98Z</time></trkpt><trkpt lat="45.87827162569423" lon="9.830675148219322"><ele>1097.0</ele><time>2026-04-03T14:33:03.979Z</time></trkpt><trkpt lat="45.87824428040443" lon="9.83076737846441"><ele>1097.0</ele><time>2026-04-03T14:33:04.979Z</time></trkpt><trkpt lat="45.87822052845087" lon="9.830853781300496"><ele>1097.0</ele><time>2026-04-03T14:33:05.979Z</time></trkpt><trkpt lat="45.878172705159734" lon="9.831001795010621"><ele>1097.0</ele><time>2026-04-03T14:33:07.979Z</time></trkpt><trkpt lat="45.87809174863654" lon="9.831076544735257"><ele>1097.0</ele><time>2026-04-03T14:33:09.985Z</time></trkpt><trkpt lat="45.877999981523836" lon="9.831105639681"><ele>1097.0</ele><time>2026-04-03T14:33:11.985Z</time></trkpt><trkpt lat="45.87791698731221" lon="9.8310795154531"><ele>1095.1666666666667</ele><time>2026-04-03T14:33:13.985Z</time></trkpt><trkpt lat="45.87782770998406" lon="9.831067624610542"><ele>1093.3333333333335</ele><time>2026-04-03T14:33:15.985Z</time></trkpt><trkpt lat="45.87774431714415" lon="9.831084702319414"><ele>1091.5</ele><time>2026-04-03T14:33:17.985Z</time></trkpt><trkpt lat="45.87767551555489" lon="9.831043047735976"><ele>1089.6666666666667</ele><time>2026-04-03T14:33:19.985Z</time></trkpt><trkpt lat="45.87757660572553" lon="9.831037827604016"><ele>1087.8333333333333</ele><time>2026-04-03T14:33:22.985Z</time></trkpt><trkpt lat="45.87750819464391" lon="9.831054940074315"><ele>1086.0</ele><time>2026-04-03T14:33:24.984Z</time></trkpt><trkpt lat="45.87744532988477" lon="9.831080319182352"><ele>1082.857142857143</ele><time>2026-04-03T14:33:28.984Z</time></trkpt><trkpt lat="45.87737905290653" lon="9.831079230596146"><ele>1079.7142857142858</ele><time>2026-04-03T14:33:33.984Z</time></trkpt><trkpt lat="45.87731341938352" lon="9.8311002100114"><ele>1076.5714285714284</ele><time>2026-04-03T14:33:36.984Z</time></trkpt><trkpt lat="45.877239222446555" lon="9.831123706410322"><ele>1073.4285714285716</ele><time>2026-04-03T14:33:40.983Z</time></trkpt><trkpt lat="45.87717711555375" lon="9.83110566403513"><ele>1070.2857142857142</ele><time>2026-04-03T14:33:47.983Z</time></trkpt><trkpt lat="45.87710384655892" lon="9.831105542208249"><ele>1067.142857142857</ele><time>2026-04-03T14:33:54.983Z</time></trkpt><trkpt lat="45.87702485726882" lon="9.831085602917694"><ele>1064.0</ele><time>2026-04-03T14:33:56.983Z</time></trkpt><trkpt lat="45.87695880661964" lon="9.831010773262447"><ele>1064.0</ele><time>2026-04-03T14:33:59.982Z</time></trkpt><trkpt lat="45.87695487638823" lon="9.831125615850508"><ele>1064.0</ele><time>2026-04-03T14:34:04.982Z</time></trkpt><trkpt lat="45.8770018259685" lon="9.831207665997816"><ele>1064.0</ele><time>2026-04-03T14:34:07.982Z</time></trkpt><trkpt lat="45.87710215444227" lon="9.83128661947272"><ele>1064.0</ele><time>2026-04-03T14:34:09.982Z</time></trkpt><trkpt lat="45.87720663916335" lon="9.831282267548248"><ele>1064.0</ele><time>2026-04-03T14:34:11.982Z</time></trkpt><trkpt lat="45.877426308537835" lon="9.831269446668907"><ele>1064.0</ele><time>2026-04-03T14:34:18.981Z</time></trkpt><trkpt lat="45.87748492599022" lon="9.831316709989379"><ele>1064.0</ele><time>2026-04-03T14:34:20.981Z</time></trkpt><trkpt lat="45.877572702979066" lon="9.83139453289769"><ele>1064.0</ele><time>2026-04-03T14:34:22.981Z</time></trkpt><trkpt lat="45.87763506913331" lon="9.831484694282247"><ele>1064.0</ele><time>2026-04-03T14:34:24.981Z</time></trkpt><trkpt lat="45.87765614977681" lon="9.831589079092717"><ele>1064.0</ele><time>2026-04-03T14:34:28.981Z</time></trkpt><trkpt lat="45.87766573319024" lon="9.831703110165156"><ele>1064.0</ele><time>2026-04-03T14:34:29.981Z</time></trkpt><trkpt lat="45.87766927890057" lon="9.831819567739402"><ele>1067.8</ele><time>2026-04-03T14:34:30.98Z</time></trkpt><trkpt lat="45.87766898726923" lon="9.831989605203367"><ele>1071.6000000000001</ele><time>2026-04-03T14:34:32.98Z</time></trkpt><trkpt lat="45.877636053759495" lon="9.832087167838383"><ele>1075.4</ele><time>2026-04-03T14:34:33.98Z</time></trkpt><trkpt lat="45.87761662455692" lon="9.832213670625086"><ele>1079.2</ele><time>2026-04-03T14:34:34.98Z</time></trkpt><trkpt lat="45.87761555629315" lon="9.832403423932348"><ele>1083.0</ele><time>2026-04-03T14:34:35.98Z</time></trkpt><trkpt lat="45.87762833320359" lon="9.832611825501333"><ele>1084.5</ele><time>2026-04-03T14:34:36.98Z</time></trkpt><trkpt lat="45.8776280367509" lon="9.832819388057079"><ele>1086.0</ele><time>2026-04-03T14:34:37.98Z</time></trkpt><trkpt lat="45.87760796637041" lon="9.833036771619117"><ele>1087.5</ele><time>2026-04-03T14:34:38.98Z</time></trkpt><trkpt lat="45.8775895915963" lon="9.833242216484246"><ele>1089.0</ele><time>2026-04-03T14:34:39.98Z</time></trkpt><trkpt lat="45.87757526685996" lon="9.833452156912733"><ele>1088.25</ele><time>2026-04-03T14:34:40.98Z</time></trkpt><trkpt lat="45.877625703451734" lon="9.833647225880252"><ele>1087.5</ele><time>2026-04-03T14:34:41.98Z</time></trkpt><trkpt lat="45.877670158776276" lon="9.833840440856426"><ele>1086.75</ele><time>2026-04-03T14:34:42.98Z</time></trkpt><trkpt lat="45.87770602630312" lon="9.834041538099513"><ele>1086.0</ele><time>2026-04-03T14:34:43.98Z</time></trkpt><trkpt lat="45.877768610133735" lon="9.834247824689474"><ele>1085.25</ele><time>2026-04-03T14:34:44.98Z</time></trkpt><trkpt lat="45.877858550257" lon="9.834441338559737"><ele>1084.5</ele><time>2026-04-03T14:34:45.98Z</time></trkpt><trkpt lat="45.87792484694677" lon="9.834602121559598"><ele>1083.75</ele><time>2026-04-03T14:34:46.98Z</time></trkpt><trkpt lat="45.87799319111155" lon="9.834751935968299"><ele>1083.0</ele><time>2026-04-03T14:34:47.979Z</time></trkpt><trkpt lat="45.87806007347689" lon="9.834864326504277"><ele>1083.0</ele><time>2026-04-03T14:34:48.979Z</time></trkpt><trkpt lat="45.878129622743714" lon="9.834972321832035"><ele>1083.0</ele><time>2026-04-03T14:34:49.979Z</time></trkpt><trkpt lat="45.87817292252062" lon="9.835077850754676"><ele>1083.0</ele><time>2026-04-03T14:34:50.979Z</time></trkpt><trkpt lat="45.878210330741396" lon="9.835164563455734"><ele>1083.0</ele><time>2026-04-03T14:34:51.979Z</time></trkpt><trkpt lat="45.87821454753202" lon="9.83527367702352"><ele>1083.0</ele><time>2026-04-03T14:34:52.979Z</time></trkpt><trkpt lat="45.878181045754104" lon="9.835447357683153"><ele>1082.2</ele><time>2026-04-03T14:34:53.979Z</time></trkpt><trkpt lat="45.8782064666079" lon="9.835560175890102"><ele>1081.4</ele><time>2026-04-03T14:34:54.979Z</time></trkpt><trkpt lat="45.87824593454917" lon="9.835683717515183"><ele>1080.6000000000001</ele><time>2026-04-03T14:34:55.979Z</time></trkpt><trkpt lat="45.87818785258652" lon="9.83581197437004"><ele>1079.8</ele><time>2026-04-03T14:34:56.979Z</time></trkpt><trkpt lat="45.8781264145246" lon="9.835872373395459"><ele>1079.0</ele><time>2026-04-03T14:34:57.979Z</time></trkpt><trkpt lat="45.87803586982574" lon="9.835949653598991"><ele>1080.8</ele><time>2026-04-03T14:34:58.979Z</time></trkpt><trkpt lat="45.87795908684868" lon="9.836036747712082"><ele>1082.6000000000001</ele><time>2026-04-03T14:34:59.979Z</time></trkpt><trkpt lat="45.87789591849382" lon="9.83612741412601"><ele>1084.4</ele><time>2026-04-03T14:35:00.979Z</time></trkpt><trkpt lat="45.87784514331463" lon="9.836244145297616"><ele>1086.2</ele><time>2026-04-03T14:35:01.979Z</time></trkpt><trkpt lat="45.877821262699335" lon="9.836387214755863"><ele>1088.0</ele><time>2026-04-03T14:35:02.979Z</time></trkpt><trkpt lat="45.87777880157731" lon="9.83651268328333"><ele>1088.0</ele><time>2026-04-03T14:35:03.979Z</time></trkpt><trkpt lat="45.87774661956575" lon="9.836629277819249"><ele>1088.0</ele><time>2026-04-03T14:35:04.978Z</time></trkpt><trkpt lat="45.87771217934356" lon="9.836728695500312"><ele>1088.0</ele><time>2026-04-03T14:35:05.978Z</time></trkpt><trkpt lat="45.877679513517265" lon="9.83680906140588"><ele>1088.0</ele><time>2026-04-03T14:35:06.978Z</time></trkpt><trkpt lat="45.877557721731826" lon="9.836833373608044"><ele>1088.0</ele><time>2026-04-03T14:35:07.978Z</time></trkpt><trkpt lat="45.87749634263598" lon="9.836870357174366"><ele>1088.0</ele><time>2026-04-03T14:35:08.978Z</time></trkpt><trkpt lat="45.877438827665834" lon="9.836918723668335"><ele>1084.6666666666667</ele><time>2026-04-03T14:35:09.978Z</time></trkpt><trkpt lat="45.87733669741745" lon="9.837002723302549"><ele>1081.3333333333335</ele><time>2026-04-03T14:35:11.978Z</time></trkpt><trkpt lat="45.87728099253593" lon="9.837077401298934"><ele>1078.0</ele><time>2026-04-03T14:35:12.978Z</time></trkpt><trkpt lat="45.877238925875176" lon="9.837179886760936"><ele>1074.6666666666667</ele><time>2026-04-03T14:35:13.978Z</time></trkpt><trkpt lat="45.87721638630244" lon="9.83730047582648"><ele>1071.3333333333333</ele><time>2026-04-03T14:35:14.978Z</time></trkpt><trkpt lat="45.877217559235206" lon="9.837405941005906"><ele>1068.0</ele><time>2026-04-03T14:35:15.985Z</time></trkpt><trkpt lat="45.877250689513545" lon="9.837527378817402"><ele>1068.0</ele><time>2026-04-03T14:35:17.984Z</time></trkpt><trkpt lat="45.87716694120477" lon="9.83761825806698"><ele>1068.0</ele><time>2026-04-03T14:35:20.985Z</time></trkpt><trkpt lat="45.87709508564813" lon="9.837653117216407"><ele>1068.0</ele><time>2026-04-03T14:35:21.984Z</time></trkpt><trkpt lat="45.87703296787782" lon="9.83769002149512"><ele>1068.0</ele><time>2026-04-03T14:35:22.984Z</time></trkpt><trkpt lat="45.87696847152301" lon="9.83773174882016"><ele>1068.0</ele><time>2026-04-03T14:35:23.984Z</time></trkpt><trkpt lat="45.87689618418344" lon="9.837789579920207"><ele>1068.0</ele><time>2026-04-03T14:35:24.985Z</time></trkpt><trkpt lat="45.876829483695616" lon="9.83783402318801"><ele>1068.4</ele><time>2026-04-03T14:35:25.985Z</time></trkpt><trkpt lat="45.87677710431631" lon="9.837886233069897"><ele>1068.8</ele><time>2026-04-03T14:35:26.985Z</time></trkpt><trkpt lat="45.87671406245801" lon="9.838048832133481"><ele>1069.2</ele><time>2026-04-03T14:35:28.984Z</time></trkpt><trkpt lat="45.87666791745912" lon="9.838139741518876"><ele>1069.6</ele><time>2026-04-03T14:35:29.984Z</time></trkpt><trkpt lat="45.87659786198658" lon="9.83826624510816"><ele>1070.0</ele><time>2026-04-03T14:35:30.984Z</time></trkpt><trkpt lat="45.876537994872805" lon="9.838338128004612"><ele>1066.5</ele><time>2026-04-03T14:35:31.984Z</time></trkpt><trkpt lat="45.87647620065229" lon="9.838396600384513"><ele>1063.0</ele><time>2026-04-03T14:35:32.984Z</time></trkpt><trkpt lat="45.876407099074754" lon="9.83847959250694"><ele>1059.5</ele><time>2026-04-03T14:35:33.984Z</time></trkpt><trkpt lat="45.876348183502024" lon="9.838562901073514"><ele>1056.0</ele><time>2026-04-03T14:35:34.984Z</time></trkpt><trkpt lat="45.87628436533882" lon="9.83867946230078"><ele>1052.5</ele><time>2026-04-03T14:35:35.984Z</time></trkpt><trkpt lat="45.876222949485644" lon="9.838779767656607"><ele>1049.0</ele><time>2026-04-03T14:35:36.984Z</time></trkpt><trkpt lat="45.87614708861346" lon="9.838920231318111"><ele>1049.0</ele><time>2026-04-03T14:35:37.984Z</time></trkpt><trkpt lat="45.8760811953763" lon="9.839032924326203"><ele>1049.0</ele><time>2026-04-03T14:35:38.984Z</time></trkpt><trkpt lat="45.876000453860506" lon="9.839144745344985"><ele>1049.0</ele><time>2026-04-03T14:35:39.984Z</time></trkpt><trkpt lat="45.87591626255402" lon="9.839241251886072"><ele>1049.0</ele><time>2026-04-03T14:35:40.984Z</time></trkpt><trkpt lat="45.87583224760441" lon="9.839358400655303"><ele>1049.0</ele><time>2026-04-03T14:35:41.984Z</time></trkpt><trkpt lat="45.8757369227732" lon="9.839472030205865"><ele>1044.4</ele><time>2026-04-03T14:35:42.983Z</time></trkpt><trkpt lat="45.87565265763245" lon="9.839578163671057"><ele>1039.8000000000002</ele><time>2026-04-03T14:35:43.983Z</time></trkpt><trkpt lat="45.875569956882785" lon="9.839672350540402"><ele>1035.1999999999998</ele><time>2026-04-03T14:35:44.983Z</time></trkpt><trkpt lat="45.875471638580635" lon="9.83976850687899"><ele>1030.6</ele><time>2026-04-03T14:35:45.983Z</time></trkpt><trkpt lat="45.875409064110904" lon="9.839869459484854"><ele>1026.0</ele><time>2026-04-03T14:35:46.983Z</time></trkpt><trkpt lat="45.87535616060557" lon="9.83995528343826"><ele>1026.0</ele><time>2026-04-03T14:35:47.983Z</time></trkpt><trkpt lat="45.87532348653461" lon="9.840038801854078"><ele>1026.0</ele><time>2026-04-03T14:35:48.983Z</time></trkpt><trkpt lat="45.87527711142797" lon="9.840129643870608"><ele>1026.0</ele><time>2026-04-03T14:35:50.983Z</time></trkpt><trkpt lat="45.875264428286506" lon="9.839964850803916"><ele>1026.0</ele><time>2026-04-03T14:35:53.983Z</time></trkpt><trkpt lat="45.875284055117106" lon="9.839797161376339"><ele>1026.0</ele><time>2026-04-03T14:35:54.983Z</time></trkpt><trkpt lat="45.87529767537521" lon="9.839635009450909"><ele>1026.0</ele><time>2026-04-03T14:35:55.983Z</time></trkpt><trkpt lat="45.875305726649586" lon="9.83949647226021"><ele>1026.0</ele><time>2026-04-03T14:35:56.983Z</time></trkpt><trkpt lat="45.87531469385247" lon="9.839378583620757"><ele>1026.0</ele><time>2026-04-03T14:35:57.983Z</time></trkpt><trkpt lat="45.875311664620355" lon="9.839277240526807"><ele>1026.0</ele><time>2026-04-03T14:35:58.983Z</time></trkpt><trkpt lat="45.875265033674154" lon="9.839172771658864"><ele>1026.0</ele><time>2026-04-03T14:36:00.982Z</time></trkpt><trkpt lat="45.87516948146527" lon="9.839219898532887"><ele>1026.0</ele><time>2026-04-03T14:36:02.982Z</time></trkpt><trkpt lat="45.87509280695776" lon="9.839287074893328"><ele>1021.1666666666666</ele><time>2026-04-03T14:36:03.982Z</time></trkpt><trkpt lat="45.875000865751055" lon="9.839323382657104"><ele>1016.3333333333333</ele><time>2026-04-03T14:36:04.982Z</time></trkpt><trkpt lat="45.87491133279068" lon="9.839350778603086"><ele>1011.5</ele><time>2026-04-03T14:36:05.982Z</time></trkpt><trkpt lat="45.87484657151018" lon="9.839397712455954"><ele>1006.6666666666666</ele><time>2026-04-03T14:36:06.982Z</time></trkpt><trkpt lat="45.87478179341184" lon="9.839452258305"><ele>1001.8333333333333</ele><time>2026-04-03T14:36:07.982Z</time></trkpt><trkpt lat="45.87474349634348" lon="9.839548556631852"><ele>997.0</ele><time>2026-04-03T14:36:08.982Z</time></trkpt><trkpt lat="45.874691933935786" lon="9.839647809573238"><ele>997.0</ele><time>2026-04-03T14:36:09.982Z</time></trkpt><trkpt lat="45.874635216572365" lon="9.839716394289473"><ele>997.0</ele><time>2026-04-03T14:36:10.982Z</time></trkpt><trkpt lat="45.8745262249366" lon="9.839721575403292"><ele>997.0</ele><time>2026-04-03T14:36:12.982Z</time></trkpt><trkpt lat="45.874407475220266" lon="9.839683230730344"><ele>997.0</ele><time>2026-04-03T14:36:14.982Z</time></trkpt><trkpt lat="45.87434429315293" lon="9.839715780822871"><ele>997.0</ele><time>2026-04-03T14:36:15.982Z</time></trkpt><trkpt lat="45.8742661191998" lon="9.83977775955593"><ele>992.8</ele><time>2026-04-03T14:36:16.981Z</time></trkpt><trkpt lat="45.874183707724455" lon="9.839833128199533"><ele>988.6</ele><time>2026-04-03T14:36:17.981Z</time></trkpt><trkpt lat="45.87408769523961" lon="9.839871371419616"><ele>984.3999999999999</ele><time>2026-04-03T14:36:18.981Z</time></trkpt><trkpt lat="45.87398514560393" lon="9.839906006741007"><ele>980.1999999999999</ele><time>2026-04-03T14:36:19.981Z</time></trkpt><trkpt lat="45.873866153229905" lon="9.839954377908136"><ele>976.0</ele><time>2026-04-03T14:36:20.981Z</time></trkpt><trkpt lat="45.87375560400695" lon="9.840004890609068"><ele>976.0</ele><time>2026-04-03T14:36:21.981Z</time></trkpt><trkpt lat="45.873650296624355" lon="9.840044223755724"><ele>975.9999999999999</ele><time>2026-04-03T14:36:22.981Z</time></trkpt><trkpt lat="45.87355062945612" lon="9.84008661457809"><ele>975.9999999999999</ele><time>2026-04-03T14:36:23.981Z</time></trkpt><trkpt lat="45.87345322508106" lon="9.840118017486642"><ele>976.0</ele><time>2026-04-03T14:36:24.981Z</time></trkpt><trkpt lat="45.87336441368018" lon="9.840146807811356"><ele>976.0</ele><time>2026-04-03T14:36:25.981Z</time></trkpt><trkpt lat="45.873280119281745" lon="9.840167416853486"><ele>974.8333333333333</ele><time>2026-04-03T14:36:26.981Z</time></trkpt><trkpt lat="45.8731922861596" lon="9.840197016610771"><ele>973.6666666666666</ele><time>2026-04-03T14:36:27.981Z</time></trkpt><trkpt lat="45.87312964228146" lon="9.840206317484528"><ele>972.5</ele><time>2026-04-03T14:36:28.981Z</time></trkpt><trkpt lat="45.87305693136243" lon="9.840173734454611"><ele>971.3333333333333</ele><time>2026-04-03T14:36:29.981Z</time></trkpt><trkpt lat="45.87299479347418" lon="9.840114137155393"><ele>970.1666666666666</ele><time>2026-04-03T14:36:30.981Z</time></trkpt><trkpt lat="45.87293308648436" lon="9.840034098986358"><ele>969.0</ele><time>2026-04-03T14:36:31.981Z</time></trkpt><trkpt lat="45.8728303783722" lon="9.839971244072403"><ele>966.0</ele><time>2026-04-03T14:36:32.981Z</time></trkpt><trkpt lat="45.872745822940956" lon="9.83991872322828"><ele>963.0000000000001</ele><time>2026-04-03T14:36:33.98Z</time></trkpt><trkpt lat="45.87265089449298" lon="9.839849201141783"><ele>960.0000000000001</ele><time>2026-04-03T14:36:34.98Z</time></trkpt><trkpt lat="45.87256348409358" lon="9.839755092454748"><ele>957.0</ele><time>2026-04-03T14:36:35.98Z</time></trkpt><trkpt lat="45.87247282318436" lon="9.83963800011264"><ele>954.0</ele><time>2026-04-03T14:36:36.98Z</time></trkpt><trkpt lat="45.87238998158515" lon="9.839554728358097"><ele>954.0</ele><time>2026-04-03T14:36:37.98Z</time></trkpt><trkpt lat="45.87229822024743" lon="9.839489807321346"><ele>954.0000000000001</ele><time>2026-04-03T14:36:38.98Z</time></trkpt><trkpt lat="45.8722125051386" lon="9.839434342598045"><ele>954.0000000000001</ele><time>2026-04-03T14:36:39.98Z</time></trkpt><trkpt lat="45.87213972851918" lon="9.839385897965904"><ele>954.0</ele><time>2026-04-03T14:36:40.98Z</time></trkpt><trkpt lat="45.87202384705332" lon="9.83932141846745"><ele>954.0</ele><time>2026-04-03T14:36:42.98Z</time></trkpt><trkpt lat="45.87193627097813" lon="9.83931469579923"><ele>954.0</ele><time>2026-04-03T14:36:43.98Z</time></trkpt><trkpt lat="45.87184749895803" lon="9.839314674154956"><ele>954.0000000000001</ele><time>2026-04-03T14:36:44.98Z</time></trkpt><trkpt lat="45.87174727637437" lon="9.839318342819897"><ele>954.0000000000001</ele><time>2026-04-03T14:36:45.98Z</time></trkpt><trkpt lat="45.87165489691404" lon="9.83931391075228"><ele>954.0</ele><time>2026-04-03T14:36:46.98Z</time></trkpt><trkpt lat="45.87155769800971" lon="9.839310099054105"><ele>954.0</ele><time>2026-04-03T14:36:47.98Z</time></trkpt><trkpt lat="45.87146623427686" lon="9.83930613380536"><ele>953.5</ele><time>2026-04-03T14:36:48.98Z</time></trkpt><trkpt lat="45.871377570734545" lon="9.839295118551926"><ele>953.0</ele><time>2026-04-03T14:36:49.98Z</time></trkpt><trkpt lat="45.87128978129802" lon="9.839286574115564"><ele>952.5</ele><time>2026-04-03T14:36:50.979Z</time></trkpt><trkpt lat="45.871208307512745" lon="9.839278496023685"><ele>952.0</ele><time>2026-04-03T14:36:51.979Z</time></trkpt><trkpt lat="45.871131271953836" lon="9.839287686495293"><ele>951.5</ele><time>2026-04-03T14:36:52.979Z</time></trkpt><trkpt lat="45.87105844620813" lon="9.839320396224226"><ele>951.0</ele><time>2026-04-03T14:36:53.979Z</time></trkpt><trkpt lat="45.87099075666403" lon="9.839363539421255"><ele>948.5</ele><time>2026-04-03T14:36:54.979Z</time></trkpt><trkpt lat="45.870926770455206" lon="9.839422931040282"><ele>946.0</ele><time>2026-04-03T14:36:55.979Z</time></trkpt><trkpt lat="45.87086035033294" lon="9.83947659381309"><ele>943.5</ele><time>2026-04-03T14:36:56.979Z</time></trkpt><trkpt lat="45.87079340980338" lon="9.839535204831156"><ele>941.0</ele><time>2026-04-03T14:36:57.979Z</time></trkpt><trkpt lat="45.8707156320641" lon="9.839611430689647"><ele>938.5</ele><time>2026-04-03T14:36:58.979Z</time></trkpt><trkpt lat="45.87064739724732" lon="9.839694468543609"><ele>936.0</ele><time>2026-04-03T14:36:59.979Z</time></trkpt><trkpt lat="45.87057881586032" lon="9.839781056772672"><ele>936.0</ele><time>2026-04-03T14:37:00.979Z</time></trkpt><trkpt lat="45.87051041614611" lon="9.839873830430296"><ele>936.0</ele><time>2026-04-03T14:37:01.979Z</time></trkpt><trkpt lat="45.8704429234463" lon="9.839963003800644"><ele>936.0</ele><time>2026-04-03T14:37:02.979Z</time></trkpt><trkpt lat="45.87037515454876" lon="9.840042182511123"><ele>936.0</ele><time>2026-04-03T14:37:03.979Z</time></trkpt><trkpt lat="45.87030653179135" lon="9.840123898155515"><ele>936.0</ele><time>2026-04-03T14:37:04.979Z</time></trkpt><trkpt lat="45.87024278620094" lon="9.840203271477032"><ele>936.0</ele><time>2026-04-03T14:37:05.979Z</time></trkpt><trkpt lat="45.87017105504619" lon="9.840276904878683"><ele>934.0</ele><time>2026-04-03T14:37:06.979Z</time></trkpt><trkpt lat="45.870108206767505" lon="9.840345598049552"><ele>931.9999999999999</ele><time>2026-04-03T14:37:07.978Z</time></trkpt><trkpt lat="45.870051708762944" lon="9.84038698121403"><ele>929.9999999999999</ele><time>2026-04-03T14:37:08.978Z</time></trkpt><trkpt lat="45.86993375508412" lon="9.84044671651828"><ele>928.0</ele><time>2026-04-03T14:37:10.978Z</time></trkpt><trkpt lat="45.869865188448465" lon="9.840480615126557"><ele>926.0</ele><time>2026-04-03T14:37:12.978Z</time></trkpt><trkpt lat="45.86978250604779" lon="9.840589627887077"><ele>926.0000000000001</ele><time>2026-04-03T14:37:14.978Z</time></trkpt><trkpt lat="45.86974813710958" lon="9.840666206434836"><ele>926.0</ele><time>2026-04-03T14:37:15.978Z</time></trkpt><trkpt lat="45.86970917281002" lon="9.84076340496864"><ele>926.0</ele><time>2026-04-03T14:37:17.978Z</time></trkpt><trkpt lat="45.869655936773746" lon="9.84088400324903"><ele>926.0</ele><time>2026-04-03T14:37:19.978Z</time></trkpt><trkpt lat="45.869629313565056" lon="9.840979174731745"><ele>926.0000000000001</ele><time>2026-04-03T14:37:20.978Z</time></trkpt><trkpt lat="45.8695847125867" lon="9.841075327911662"><ele>926.0</ele><time>2026-04-03T14:37:21.984Z</time></trkpt><trkpt lat="45.86953176475399" lon="9.841175384127204"><ele>926.5000000000001</ele><time>2026-04-03T14:37:22.984Z</time></trkpt><trkpt lat="45.86948324361363" lon="9.841242177400739"><ele>927.0</ele><time>2026-04-03T14:37:23.984Z</time></trkpt><trkpt lat="45.86943499194035" lon="9.84131793953129"><ele>927.5</ele><time>2026-04-03T14:37:25.984Z</time></trkpt><trkpt lat="45.86936872359766" lon="9.841339558360731"><ele>928.0</ele><time>2026-04-03T14:37:27.984Z</time></trkpt><trkpt lat="45.869299973348774" lon="9.841345668966182"><ele>928.5000000000001</ele><time>2026-04-03T14:37:28.984Z</time></trkpt><trkpt lat="45.86919986355188" lon="9.841414624697055"><ele>929.0</ele><time>2026-04-03T14:37:30.984Z</time></trkpt><trkpt lat="45.86911736456221" lon="9.841506736498864"><ele>925.3333333333334</ele><time>2026-04-03T14:37:32.984Z</time></trkpt><trkpt lat="45.86906754795304" lon="9.84160738208429"><ele>921.6666666666667</ele><time>2026-04-03T14:37:34.984Z</time></trkpt><trkpt lat="45.8690365195076" lon="9.84173734078071"><ele>918.0</ele><time>2026-04-03T14:37:36.984Z</time></trkpt><trkpt lat="45.86899976513453" lon="9.841819471875986"><ele>914.3333333333333</ele><time>2026-04-03T14:37:37.984Z</time></trkpt><trkpt lat="45.86894049320473" lon="9.841919955684956"><ele>910.6666666666666</ele><time>2026-04-03T14:37:38.983Z</time></trkpt><trkpt lat="45.868871610146044" lon="9.842031244849428"><ele>907.0</ele><time>2026-04-03T14:37:39.983Z</time></trkpt><trkpt lat="45.86881373984774" lon="9.8421499477318"><ele>906.9999999999999</ele><time>2026-04-03T14:37:40.983Z</time></trkpt><trkpt lat="45.868753139273295" lon="9.842247815890625"><ele>907.0</ele><time>2026-04-03T14:37:41.983Z</time></trkpt><trkpt lat="45.86869317381026" lon="9.842326263943281"><ele>907.0</ele><time>2026-04-03T14:37:42.983Z</time></trkpt><trkpt lat="45.868640569234834" lon="9.842407732120183"><ele>907.0</ele><time>2026-04-03T14:37:43.983Z</time></trkpt><trkpt lat="45.86860642721783" lon="9.842519521832243"><ele>906.9999999999999</ele><time>2026-04-03T14:37:44.983Z</time></trkpt><trkpt lat="45.86854718692929" lon="9.842621597390004"><ele>907.0</ele><time>2026-04-03T14:37:45.983Z</time></trkpt><trkpt lat="45.86849197793098" lon="9.842713485423085"><ele>908.0000000000001</ele><time>2026-04-03T14:37:46.983Z</time></trkpt><trkpt lat="45.868448479458564" lon="9.842780784021457"><ele>909.0</ele><time>2026-04-03T14:37:47.983Z</time></trkpt><trkpt lat="45.868390258104995" lon="9.842849323253358"><ele>910.0000000000001</ele><time>2026-04-03T14:37:48.983Z</time></trkpt><trkpt lat="45.86832291223807" lon="9.842912488987272"><ele>911.0000000000001</ele><time>2026-04-03T14:37:49.983Z</time></trkpt><trkpt lat="45.86825287988467" lon="9.842959684712174"><ele>912.0</ele><time>2026-04-03T14:37:50.983Z</time></trkpt><trkpt lat="45.86819144907598" lon="9.842985868648134"><ele>913.0000000000001</ele><time>2026-04-03T14:37:51.983Z</time></trkpt><trkpt lat="45.86812740682901" lon="9.843008240737262"><ele>914.0000000000001</ele><time>2026-04-03T14:37:52.983Z</time></trkpt><trkpt lat="45.8680322821506" lon="9.843033017051956"><ele>908.8000000000001</ele><time>2026-04-03T14:37:53.983Z</time></trkpt><trkpt lat="45.86795045044912" lon="9.843059859370928"><ele>903.6000000000001</ele><time>2026-04-03T14:37:54.983Z</time></trkpt><trkpt lat="45.86786381351321" lon="9.84310191117285"><ele>898.4</ele><time>2026-04-03T14:37:55.982Z</time></trkpt><trkpt lat="45.867773707531356" lon="9.843146695046782"><ele>893.2</ele><time>2026-04-03T14:37:56.982Z</time></trkpt><trkpt lat="45.86769385211351" lon="9.8431947724704"><ele>888.0</ele><time>2026-04-03T14:37:57.982Z</time></trkpt><trkpt lat="45.86761223677952" lon="9.843261822066113"><ele>885.3333333333334</ele><time>2026-04-03T14:37:58.982Z</time></trkpt><trkpt lat="45.8675439688773" lon="9.843325148109232"><ele>882.6666666666667</ele><time>2026-04-03T14:37:59.982Z</time></trkpt><trkpt lat="45.86746973829123" lon="9.843373111855858"><ele>880.0</ele><time>2026-04-03T14:38:00.982Z</time></trkpt><trkpt lat="45.867385385204145" lon="9.843400341009058"><ele>877.3333333333334</ele><time>2026-04-03T14:38:02.982Z</time></trkpt><trkpt lat="45.86731466467131" lon="9.84337184516516"><ele>874.6666666666667</ele><time>2026-04-03T14:38:03.982Z</time></trkpt><trkpt lat="45.86723098280882" lon="9.843339693927692"><ele>872.0</ele><time>2026-04-03T14:38:04.982Z</time></trkpt><trkpt lat="45.867166790886884" lon="9.843329675585927"><ele>872.0</ele><time>2026-04-03T14:38:05.982Z</time></trkpt><trkpt lat="45.86707637412477" lon="9.843293523146386"><ele>872.0</ele><time>2026-04-03T14:38:07.982Z</time></trkpt><trkpt lat="45.866997273475796" lon="9.843255401359242"><ele>872.0</ele><time>2026-04-03T14:38:09.982Z</time></trkpt><trkpt lat="45.866919681921" lon="9.843159244837864"><ele>872.0</ele><time>2026-04-03T14:38:11.982Z</time></trkpt><trkpt lat="45.8668643052128" lon="9.843092167695632"><ele>872.0</ele><time>2026-04-03T14:38:13.981Z</time></trkpt><trkpt lat="45.866793038915624" lon="9.842971291838051"><ele>867.6</ele><time>2026-04-03T14:38:15.981Z</time></trkpt><trkpt lat="45.866714136730096" lon="9.842910614830922"><ele>863.2</ele><time>2026-04-03T14:38:17.981Z</time></trkpt><trkpt lat="45.86662653090486" lon="9.842809130287836"><ele>858.8</ele><time>2026-04-03T14:38:19.981Z</time></trkpt><trkpt lat="45.866525124778526" lon="9.842763755215328"><ele>854.4</ele><time>2026-04-03T14:38:21.981Z</time></trkpt><trkpt lat="45.86643540749913" lon="9.84275010243574"><ele>850.0</ele><time>2026-04-03T14:38:22.981Z</time></trkpt><trkpt lat="45.86636535538724" lon="9.842754415175154"><ele>850.0</ele><time>2026-04-03T14:38:23.981Z</time></trkpt><trkpt lat="45.86626282774823" lon="9.842740749508618"><ele>850.0</ele><time>2026-04-03T14:38:25.981Z</time></trkpt><trkpt lat="45.866148270258556" lon="9.842647842418733"><ele>850.0</ele><time>2026-04-03T14:38:27.981Z</time></trkpt><trkpt lat="45.866090704076" lon="9.842569489316622"><ele>850.0</ele><time>2026-04-03T14:38:28.981Z</time></trkpt><trkpt lat="45.8660242714033" lon="9.842496991452071"><ele>850.0</ele><time>2026-04-03T14:38:29.98Z</time></trkpt><trkpt lat="45.865972950716255" lon="9.842433723564678"><ele>844.4</ele><time>2026-04-03T14:38:30.98Z</time></trkpt><trkpt lat="45.865910520854094" lon="9.842389342412956"><ele>838.8</ele><time>2026-04-03T14:38:31.98Z</time></trkpt><trkpt lat="45.8658535300386" lon="9.84234141771073"><ele>833.2</ele><time>2026-04-03T14:38:32.98Z</time></trkpt><trkpt lat="45.86574370908659" lon="9.84226986167292"><ele>827.6</ele><time>2026-04-03T14:38:34.98Z</time></trkpt><trkpt lat="45.86563071410115" lon="9.8422065370686"><ele>822.0</ele><time>2026-04-03T14:38:36.98Z</time></trkpt><trkpt lat="45.8655498211833" lon="9.84211843663655"><ele>822.0</ele><time>2026-04-03T14:38:38.98Z</time></trkpt><trkpt lat="45.865497728034974" lon="9.842054265621098"><ele>822.0</ele><time>2026-04-03T14:38:39.98Z</time></trkpt><trkpt lat="45.86540920117536" lon="9.841998795968864"><ele>822.0</ele><time>2026-04-03T14:38:40.98Z</time></trkpt><trkpt lat="45.86533669549325" lon="9.84195974668175"><ele>822.0</ele><time>2026-04-03T14:38:41.98Z</time></trkpt><trkpt lat="45.865270278881155" lon="9.841869725218839"><ele>822.0</ele><time>2026-04-03T14:38:42.98Z</time></trkpt><trkpt lat="45.8652038538088" lon="9.841782779178063"><ele>822.0</ele><time>2026-04-03T14:38:43.98Z</time></trkpt><trkpt lat="45.86514169510914" lon="9.841703997596362"><ele>817.3333333333334</ele><time>2026-04-03T14:38:44.98Z</time></trkpt><trkpt lat="45.865081377383916" lon="9.841626441185808"><ele>812.6666666666667</ele><time>2026-04-03T14:38:45.98Z</time></trkpt><trkpt lat="45.86502414405348" lon="9.84154925735069"><ele>808.0</ele><time>2026-04-03T14:38:46.979Z</time></trkpt><trkpt lat="45.86497505448667" lon="9.841467125130073"><ele>803.3333333333334</ele><time>2026-04-03T14:38:47.979Z</time></trkpt><trkpt lat="45.864928825093564" lon="9.841392032036607"><ele>798.6666666666667</ele><time>2026-04-03T14:38:48.979Z</time></trkpt><trkpt lat="45.86488074732249" lon="9.841306205884123"><ele>794.0</ele><time>2026-04-03T14:38:49.979Z</time></trkpt><trkpt lat="45.86483312737108" lon="9.841228034036757"><ele>794.0</ele><time>2026-04-03T14:38:50.979Z</time></trkpt><trkpt lat="45.86474875972044" lon="9.841120177343193"><ele>794.0</ele><time>2026-04-03T14:38:52.979Z</time></trkpt><trkpt lat="45.86466751365251" lon="9.84106754851927"><ele>794.0</ele><time>2026-04-03T14:38:54.979Z</time></trkpt><trkpt lat="45.86460029266607" lon="9.84108102017975"><ele>794.0</ele><time>2026-04-03T14:38:56.979Z</time></trkpt><trkpt lat="45.86456987744575" lon="9.84097314612087"><ele>794.0</ele><time>2026-04-03T14:38:59.979Z</time></trkpt><trkpt lat="45.864635913852815" lon="9.840863344699606"><ele>790.4000000000001</ele><time>2026-04-03T14:39:01.979Z</time></trkpt><trkpt lat="45.86453842120483" lon="9.840790065981928"><ele>786.8</ele><time>2026-04-03T14:39:07.978Z</time></trkpt><trkpt lat="45.86443826619069" lon="9.840708911096101"><ele>783.2</ele><time>2026-04-03T14:39:09.978Z</time></trkpt><trkpt lat="45.86436619871548" lon="9.84064953634776"><ele>779.5999999999999</ele><time>2026-04-03T14:39:11.978Z</time></trkpt><trkpt lat="45.8642950268082" lon="9.840628841572107"><ele>776.0</ele><time>2026-04-03T14:39:14.978Z</time></trkpt><trkpt lat="45.864219790356856" lon="9.84057024802982"><ele>773.0000000000001</ele><time>2026-04-03T14:39:18.978Z</time></trkpt><trkpt lat="45.86415971322691" lon="9.840542101573488"><ele>770.0</ele><time>2026-04-03T14:39:20.977Z</time></trkpt><trkpt lat="45.864088643394076" lon="9.84042606566748"><ele>767.0</ele><time>2026-04-03T14:39:24.977Z</time></trkpt><trkpt lat="45.86401846126564" lon="9.840426179957943"><ele>764.0</ele><time>2026-04-03T14:39:26.977Z</time></trkpt><trkpt lat="45.86391590319049" lon="9.840436803479843"><ele>761.0</ele><time>2026-04-03T14:39:29.983Z</time></trkpt><trkpt lat="45.863848686887984" lon="9.840323953489596"><ele>758.0</ele><time>2026-04-03T14:39:31.983Z</time></trkpt><trkpt lat="45.863784927388416" lon="9.840248841485476"><ele>758.0</ele><time>2026-04-03T14:39:33.984Z</time></trkpt><trkpt lat="45.86374411516252" lon="9.840179167617146"><ele>758.0</ele><time>2026-04-03T14:39:35.984Z</time></trkpt><trkpt lat="45.86369260419363" lon="9.840110838690224"><ele>758.0</ele><time>2026-04-03T14:39:39.984Z</time></trkpt><trkpt lat="45.8636405071828" lon="9.840228553890823"><ele>758.0</ele><time>2026-04-03T14:39:42.983Z</time></trkpt><trkpt lat="45.86365961287271" lon="9.840322148526477"><ele>758.0</ele><time>2026-04-03T14:39:43.983Z</time></trkpt><trkpt lat="45.863689124337036" lon="9.840465141835212"><ele>758.0</ele><time>2026-04-03T14:39:44.983Z</time></trkpt><trkpt lat="45.863732923384475" lon="9.840613017495933"><ele>758.0</ele><time>2026-04-03T14:39:45.983Z</time></trkpt><trkpt lat="45.86379419280499" lon="9.840777426287904"><ele>758.0</ele><time>2026-04-03T14:39:46.983Z</time></trkpt><trkpt lat="45.863854279390075" lon="9.840945396284914"><ele>758.0</ele><time>2026-04-03T14:39:47.983Z</time></trkpt><trkpt lat="45.86390707200513" lon="9.84111595316076"><ele>758.0</ele><time>2026-04-03T14:39:48.982Z</time></trkpt><trkpt lat="45.863953078496664" lon="9.841280653233532"><ele>757.0</ele><time>2026-04-03T14:39:49.982Z</time></trkpt><trkpt lat="45.86395335429219" lon="9.841455710379167"><ele>756.0</ele><time>2026-04-03T14:39:50.982Z</time></trkpt><trkpt lat="45.863950717486944" lon="9.841635175514927"><ele>755.0</ele><time>2026-04-03T14:39:51.982Z</time></trkpt><trkpt lat="45.863953777845516" lon="9.84181942798811"><ele>754.0</ele><time>2026-04-03T14:39:52.982Z</time></trkpt><trkpt lat="45.863964739414534" lon="9.841998330309421"><ele>751.0</ele><time>2026-04-03T14:39:53.982Z</time></trkpt><trkpt lat="45.863977321367244" lon="9.842162117142442"><ele>748.0</ele><time>2026-04-03T14:39:54.982Z</time></trkpt><trkpt lat="45.86400043423665" lon="9.842310654798364"><ele>745.0</ele><time>2026-04-03T14:39:55.982Z</time></trkpt><trkpt lat="45.86403442547595" lon="9.842465408613686"><ele>742.0</ele><time>2026-04-03T14:39:56.982Z</time></trkpt><trkpt lat="45.864109364211004" lon="9.842609316331185"><ele>738.0</ele><time>2026-04-03T14:39:57.982Z</time></trkpt><trkpt lat="45.864196039927656" lon="9.84273158323501"><ele>734.0</ele><time>2026-04-03T14:39:58.982Z</time></trkpt><trkpt lat="45.86430712665204" lon="9.842825568342638"><ele>730.0</ele><time>2026-04-03T14:39:59.982Z</time></trkpt><trkpt lat="45.86441011101548" lon="9.84289314670766"><ele>726.0</ele><time>2026-04-03T14:40:00.982Z</time></trkpt><trkpt lat="45.864533613441566" lon="9.842945204689446"><ele>732.6666666666666</ele><time>2026-04-03T14:40:01.982Z</time></trkpt><trkpt lat="45.864647211744334" lon="9.842985097247881"><ele>739.3333333333334</ele><time>2026-04-03T14:40:02.982Z</time></trkpt><trkpt lat="45.86474331295213" lon="9.843034133797415"><ele>746.0</ele><time>2026-04-03T14:40:03.982Z</time></trkpt><trkpt lat="45.86480816375633" lon="9.843091276913102"><ele>752.6666666666667</ele><time>2026-04-03T14:40:04.982Z</time></trkpt><trkpt lat="45.86486110361034" lon="9.84315690303848"><ele>759.3333333333334</ele><time>2026-04-03T14:40:05.981Z</time></trkpt><trkpt lat="45.86487101499547" lon="9.843258409002553"><ele>766.0</ele><time>2026-04-03T14:40:06.981Z</time></trkpt><trkpt lat="45.86482143733225" lon="9.843484818592966"><ele>766.0</ele><time>2026-04-03T14:40:08.981Z</time></trkpt><trkpt lat="45.86475110516029" lon="9.843578537446936"><ele>766.0</ele><time>2026-04-03T14:40:09.981Z</time></trkpt><trkpt lat="45.864679362331756" lon="9.843718779111493"><ele>766.0</ele><time>2026-04-03T14:40:10.981Z</time></trkpt><trkpt lat="45.86464457970196" lon="9.84387655177772"><ele>766.0</ele><time>2026-04-03T14:40:11.981Z</time></trkpt><trkpt lat="45.86461663183233" lon="9.844040882639435"><ele>766.0</ele><time>2026-04-03T14:40:12.981Z</time></trkpt><trkpt lat="45.86461546066297" lon="9.844205297078886"><ele>766.0</ele><time>2026-04-03T14:40:13.981Z</time></trkpt><trkpt lat="45.864634235725575" lon="9.84439446155653"><ele>766.0</ele><time>2026-04-03T14:40:14.981Z</time></trkpt><trkpt lat="45.86466872477623" lon="9.844587990600576"><ele>766.0</ele><time>2026-04-03T14:40:15.981Z</time></trkpt><trkpt lat="45.86469469916854" lon="9.844742547126359"><ele>765.0</ele><time>2026-04-03T14:40:16.981Z</time></trkpt><trkpt lat="45.864671161864166" lon="9.844900168712892"><ele>764.0</ele><time>2026-04-03T14:40:17.981Z</time></trkpt><trkpt lat="45.864617656404334" lon="9.845041518930833"><ele>763.0</ele><time>2026-04-03T14:40:18.981Z</time></trkpt><trkpt lat="45.86455306171529" lon="9.845175619682953"><ele>762.0</ele><time>2026-04-03T14:40:19.981Z</time></trkpt><trkpt lat="45.86451591746549" lon="9.845334181997137"><ele>761.8</ele><time>2026-04-03T14:40:20.981Z</time></trkpt><trkpt lat="45.86449586452614" lon="9.8454847494024"><ele>761.6</ele><time>2026-04-03T14:40:21.981Z</time></trkpt><trkpt lat="45.864498561927284" lon="9.84563081050374"><ele>761.4</ele><time>2026-04-03T14:40:22.98Z</time></trkpt><trkpt lat="45.86449699133681" lon="9.845758862020837"><ele>761.1999999999999</ele><time>2026-04-03T14:40:23.98Z</time></trkpt><trkpt lat="45.864504560970005" lon="9.845885073703238"><ele>761.0</ele><time>2026-04-03T14:40:24.98Z</time></trkpt><trkpt lat="45.86451386240671" lon="9.846000893097289"><ele>761.0</ele><time>2026-04-03T14:40:25.98Z</time></trkpt><trkpt lat="45.86450440743388" lon="9.84609277922767"><ele>761.0</ele><time>2026-04-03T14:40:27.98Z</time></trkpt><trkpt lat="45.864445582756424" lon="9.846178586559025"><ele>761.0</ele><time>2026-04-03T14:40:30.98Z</time></trkpt><trkpt lat="45.86445933353856" lon="9.846367199164094"><ele>761.0</ele><time>2026-04-03T14:40:31.98Z</time></trkpt><trkpt lat="45.86445300953129" lon="9.846488464980807"><ele>761.0</ele><time>2026-04-03T14:40:32.98Z</time></trkpt><trkpt lat="45.86442808757259" lon="9.846635367273885"><ele>762.0</ele><time>2026-04-03T14:40:33.98Z</time></trkpt><trkpt lat="45.864400647441855" lon="9.84680617962241"><ele>763.0</ele><time>2026-04-03T14:40:34.98Z</time></trkpt><trkpt lat="45.864357486227426" lon="9.84697808034853"><ele>764.0</ele><time>2026-04-03T14:40:35.98Z</time></trkpt><trkpt lat="45.86429416958569" lon="9.847143981391884"><ele>765.0</ele><time>2026-04-03T14:40:36.98Z</time></trkpt><trkpt lat="45.864216549195426" lon="9.847310276010647"><ele>766.0</ele><time>2026-04-03T14:40:37.98Z</time></trkpt><trkpt lat="45.86417860616152" lon="9.847450747642265"><ele>767.0</ele><time>2026-04-03T14:40:38.979Z</time></trkpt><trkpt lat="45.86417795502234" lon="9.84760265500179"><ele>768.0</ele><time>2026-04-03T14:40:39.979Z</time></trkpt><trkpt lat="45.86420640982706" lon="9.847694206285398"><ele>769.0</ele><time>2026-04-03T14:40:40.979Z</time></trkpt><trkpt lat="45.86430367641448" lon="9.847820018994234"><ele>770.0</ele><time>2026-04-03T14:40:42.979Z</time></trkpt><trkpt lat="45.86438104232496" lon="9.84777634247684"><ele>770.0</ele><time>2026-04-03T14:40:43.979Z</time></trkpt><trkpt lat="45.86442130258177" lon="9.847633723172589"><ele>770.0</ele><time>2026-04-03T14:40:44.979Z</time></trkpt><trkpt lat="45.86448520741872" lon="9.84753290117902"><ele>770.0</ele><time>2026-04-03T14:40:45.979Z</time></trkpt><trkpt lat="45.86455990734625" lon="9.847421748614979"><ele>770.0</ele><time>2026-04-03T14:40:46.979Z</time></trkpt><trkpt lat="45.864654377659576" lon="9.847324152900919"><ele>770.0</ele><time>2026-04-03T14:40:47.979Z</time></trkpt><trkpt lat="45.864732460583376" lon="9.847216220073967"><ele>769.1666666666667</ele><time>2026-04-03T14:40:48.979Z</time></trkpt><trkpt lat="45.86479542581396" lon="9.84713731968009"><ele>768.3333333333334</ele><time>2026-04-03T14:40:49.979Z</time></trkpt><trkpt lat="45.86485421218109" lon="9.84708236294515"><ele>767.5</ele><time>2026-04-03T14:40:50.979Z</time></trkpt><trkpt lat="45.86492169500101" lon="9.847064649644038"><ele>766.6666666666667</ele><time>2026-04-03T14:40:51.979Z</time></trkpt><trkpt lat="45.865017492683094" lon="9.847174612701268"><ele>765.8333333333334</ele><time>2026-04-03T14:40:53.979Z</time></trkpt><trkpt lat="45.86504113278259" lon="9.84726599205844"><ele>765.0</ele><time>2026-04-03T14:40:54.979Z</time></trkpt><trkpt lat="45.86504820311645" lon="9.847371980789895"><ele>765.0</ele><time>2026-04-03T14:40:55.978Z</time></trkpt><trkpt lat="45.86502032326333" lon="9.8474720808888"><ele>765.0</ele><time>2026-04-03T14:40:56.978Z</time></trkpt><trkpt lat="45.864974273951425" lon="9.847590648390366"><ele>765.0</ele><time>2026-04-03T14:40:57.978Z</time></trkpt><trkpt lat="45.86495572695015" lon="9.847769373701938"><ele>765.0</ele><time>2026-04-03T14:40:58.978Z</time></trkpt><trkpt lat="45.86494610807379" lon="9.847955274037163"><ele>765.0</ele><time>2026-04-03T14:40:59.978Z</time></trkpt><trkpt lat="45.86495703676857" lon="9.848150200914898"><ele>766.6666666666667</ele><time>2026-04-03T14:41:00.978Z</time></trkpt><trkpt lat="45.864985554399425" lon="9.848371925007928"><ele>768.3333333333334</ele><time>2026-04-03T14:41:01.978Z</time></trkpt><trkpt lat="45.865006256789194" lon="9.84861263883575"><ele>770.0</ele><time>2026-04-03T14:41:02.978Z</time></trkpt><trkpt lat="45.86502594875543" lon="9.848836633703078"><ele>770.25</ele><time>2026-04-03T14:41:03.978Z</time></trkpt><trkpt lat="45.86504226147007" lon="9.849038894107657"><ele>770.5</ele><time>2026-04-03T14:41:04.978Z</time></trkpt><trkpt lat="45.86506211856711" lon="9.849222637680503"><ele>770.75</ele><time>2026-04-03T14:41:05.978Z</time></trkpt><trkpt lat="45.86509414381363" lon="9.849379576773263"><ele>771.0</ele><time>2026-04-03T14:41:06.978Z</time></trkpt><trkpt lat="45.865123367840255" lon="9.849519954923979"><ele>775.0</ele><time>2026-04-03T14:41:07.978Z</time></trkpt><trkpt lat="45.86513762716916" lon="9.849654879893361"><ele>779.0</ele><time>2026-04-03T14:41:08.978Z</time></trkpt><trkpt lat="45.86514954529254" lon="9.849782635260107"><ele>783.0</ele><time>2026-04-03T14:41:09.978Z</time></trkpt><trkpt lat="45.865151483465425" lon="9.849904269824174"><ele>787.0</ele><time>2026-04-03T14:41:10.978Z</time></trkpt><trkpt lat="45.86515305626495" lon="9.850025568052947"><ele>791.0</ele><time>2026-04-03T14:41:11.978Z</time></trkpt><trkpt lat="45.865156913054236" lon="9.850135385517316"><ele>795.0</ele><time>2026-04-03T14:41:12.977Z</time></trkpt><trkpt lat="45.865170817003914" lon="9.850247043435246"><ele>795.0</ele><time>2026-04-03T14:41:13.977Z</time></trkpt><trkpt lat="45.86518121718414" lon="9.85036423876164"><ele>795.0</ele><time>2026-04-03T14:41:14.977Z</time></trkpt><trkpt lat="45.86519717231096" lon="9.850497583391357"><ele>795.0</ele><time>2026-04-03T14:41:15.977Z</time></trkpt><trkpt lat="45.86523938339096" lon="9.850635970469073"><ele>795.0</ele><time>2026-04-03T14:41:16.977Z</time></trkpt><trkpt lat="45.8652854356173" lon="9.85076936164724"><ele>795.0</ele><time>2026-04-03T14:41:17.977Z</time></trkpt><trkpt lat="45.86532073487624" lon="9.850912978870838"><ele>794.5</ele><time>2026-04-03T14:41:18.977Z</time></trkpt><trkpt lat="45.865343273294194" lon="9.851063675724141"><ele>794.0</ele><time>2026-04-03T14:41:19.977Z</time></trkpt><trkpt lat="45.8653381404029" lon="9.85122465491418"><ele>793.5</ele><time>2026-04-03T14:41:20.977Z</time></trkpt><trkpt lat="45.86531130440053" lon="9.851386675622951"><ele>793.0</ele><time>2026-04-03T14:41:21.977Z</time></trkpt><trkpt lat="45.865278954393624" lon="9.851549246276901"><ele>793.0</ele><time>2026-04-03T14:41:22.977Z</time></trkpt><trkpt lat="45.865246055754206" lon="9.85170718405793"><ele>793.0</ele><time>2026-04-03T14:41:23.977Z</time></trkpt><trkpt lat="45.86521174607322" lon="9.851862940742551"><ele>793.0</ele><time>2026-04-03T14:41:24.977Z</time></trkpt><trkpt lat="45.86517295175227" lon="9.85201880895709"><ele>793.0</ele><time>2026-04-03T14:41:25.977Z</time></trkpt><trkpt lat="45.865124339792025" lon="9.85216386984179"><ele>789.2</ele><time>2026-04-03T14:41:26.977Z</time></trkpt><trkpt lat="45.865070660242466" lon="9.852291708633812"><ele>785.4</ele><time>2026-04-03T14:41:27.977Z</time></trkpt><trkpt lat="45.86501044500261" lon="9.852410861980053"><ele>781.6</ele><time>2026-04-03T14:41:28.977Z</time></trkpt><trkpt lat="45.86494574267169" lon="9.852513134666017"><ele>777.8000000000001</ele><time>2026-04-03T14:41:29.976Z</time></trkpt><trkpt lat="45.86487090091954" lon="9.852611984978433"><ele>774.0</ele><time>2026-04-03T14:41:30.976Z</time></trkpt><trkpt lat="45.864805304483404" lon="9.852720505034336"><ele>774.0</ele><time>2026-04-03T14:41:31.976Z</time></trkpt><trkpt lat="45.86476641118501" lon="9.852860818837472"><ele>774.0</ele><time>2026-04-03T14:41:32.976Z</time></trkpt><trkpt lat="45.86474354629004" lon="9.853017721665475"><ele>774.0</ele><time>2026-04-03T14:41:33.983Z</time></trkpt><trkpt lat="45.86471649736812" lon="9.853173896608975"><ele>774.0</ele><time>2026-04-03T14:41:34.983Z</time></trkpt><trkpt lat="45.86467923220227" lon="9.853345307021174"><ele>775.5</ele><time>2026-04-03T14:41:35.983Z</time></trkpt><trkpt lat="45.864632681427366" lon="9.853528605784419"><ele>777.0</ele><time>2026-04-03T14:41:36.983Z</time></trkpt><trkpt lat="45.86458654515579" lon="9.853710043124426"><ele>778.5</ele><time>2026-04-03T14:41:37.983Z</time></trkpt><trkpt lat="45.86453969013133" lon="9.853887716771352"><ele>780.0</ele><time>2026-04-03T14:41:38.983Z</time></trkpt><trkpt lat="45.86448729292478" lon="9.854058319632387"><ele>780.0</ele><time>2026-04-03T14:41:39.983Z</time></trkpt><trkpt lat="45.86443895665691" lon="9.854233550100524"><ele>780.0</ele><time>2026-04-03T14:41:40.983Z</time></trkpt><trkpt lat="45.864389225827445" lon="9.854403888278771"><ele>780.0</ele><time>2026-04-03T14:41:41.983Z</time></trkpt><trkpt lat="45.86433813914835" lon="9.854570474985854"><ele>780.0</ele><time>2026-04-03T14:41:42.982Z</time></trkpt><trkpt lat="45.864289924693146" lon="9.854736291572529"><ele>773.0</ele><time>2026-04-03T14:41:43.983Z</time></trkpt><trkpt lat="45.86424710055264" lon="9.854902097668612"><ele>766.0</ele><time>2026-04-03T14:41:44.983Z</time></trkpt><trkpt lat="45.86420690598603" lon="9.855052958216005"><ele>759.0</ele><time>2026-04-03T14:41:45.983Z</time></trkpt><trkpt lat="45.864167327520605" lon="9.85517548461551"><ele>752.0</ele><time>2026-04-03T14:41:46.983Z</time></trkpt><trkpt lat="45.864130793873215" lon="9.855297234549232"><ele>745.0</ele><time>2026-04-03T14:41:47.983Z</time></trkpt><trkpt lat="45.86409991596375" lon="9.855410195402682"><ele>745.0</ele><time>2026-04-03T14:41:48.983Z</time></trkpt><trkpt lat="45.86406695223979" lon="9.855502902080092"><ele>745.0</ele><time>2026-04-03T14:41:49.983Z</time></trkpt><trkpt lat="45.86401034266561" lon="9.855600855415863"><ele>745.0</ele><time>2026-04-03T14:41:51.983Z</time></trkpt><trkpt lat="45.86393954977232" lon="9.855659667227183"><ele>745.0</ele><time>2026-04-03T14:41:57.983Z</time></trkpt><trkpt lat="45.86391100614039" lon="9.855804780036461"><ele>745.0</ele><time>2026-04-03T14:41:58.983Z</time></trkpt><trkpt lat="45.86385072373023" lon="9.85583617757304"><ele>745.0</ele><time>2026-04-03T14:41:59.982Z</time></trkpt><trkpt lat="45.86378364936157" lon="9.855831893336438"><ele>745.5</ele><time>2026-04-03T14:42:01.982Z</time></trkpt><trkpt lat="45.863874622916484" lon="9.856437352922866"><ele>746.0</ele><time>2026-04-03T14:42:03.982Z</time></trkpt><trkpt lat="45.86384608427409" lon="9.856530615138176"><ele>746.0</ele><time>2026-04-03T14:42:04.982Z</time></trkpt><trkpt lat="45.86383524052805" lon="9.85663644499216"><ele>746.0</ele><time>2026-04-03T14:42:05.982Z</time></trkpt><trkpt lat="45.86385642007817" lon="9.856826010661953"><ele>746.0</ele><time>2026-04-03T14:42:07.982Z</time></trkpt><trkpt lat="45.86388361880165" lon="9.856915957645796"><ele>746.0</ele><time>2026-04-03T14:42:08.982Z</time></trkpt><trkpt lat="45.86392975337227" lon="9.856994809301716"><ele>746.0</ele><time>2026-04-03T14:42:09.982Z</time></trkpt><trkpt lat="45.864002599748346" lon="9.857059507845225"><ele>746.0</ele><time>2026-04-03T14:42:10.982Z</time></trkpt><trkpt lat="45.86409518828961" lon="9.857114859809174"><ele>746.25</ele><time>2026-04-03T14:42:11.982Z</time></trkpt><trkpt lat="45.86416464788797" lon="9.857176168320713"><ele>746.5</ele><time>2026-04-03T14:42:12.982Z</time></trkpt><trkpt lat="45.864244394462716" lon="9.857272310173256"><ele>746.75</ele><time>2026-04-03T14:42:13.982Z</time></trkpt><trkpt lat="45.86434744330032" lon="9.857385715637145"><ele>747.0</ele><time>2026-04-03T14:42:14.982Z</time></trkpt><trkpt lat="45.86445379194314" lon="9.857504608713006"><ele>743.0</ele><time>2026-04-03T14:42:15.982Z</time></trkpt><trkpt lat="45.864549751351284" lon="9.85762333806749"><ele>739.0</ele><time>2026-04-03T14:42:16.981Z</time></trkpt><trkpt lat="45.864640573470275" lon="9.857731038143337"><ele>735.0</ele><time>2026-04-03T14:42:17.981Z</time></trkpt><trkpt lat="45.86470082334788" lon="9.857816989640785"><ele>731.0</ele><time>2026-04-03T14:42:18.981Z</time></trkpt><trkpt lat="45.86475447468379" lon="9.857932841027928"><ele>727.0</ele><time>2026-04-03T14:42:19.981Z</time></trkpt><trkpt lat="45.86484773003444" lon="9.858041232331056"><ele>727.0</ele><time>2026-04-03T14:42:21.981Z</time></trkpt><trkpt lat="45.86495111166667" lon="9.858123193532874"><ele>727.0</ele><time>2026-04-03T14:42:23.981Z</time></trkpt><trkpt lat="45.86500376578804" lon="9.858201809214027"><ele>727.0</ele><time>2026-04-03T14:42:24.981Z</time></trkpt><trkpt lat="45.86507677332979" lon="9.85826587773018"><ele>727.0</ele><time>2026-04-03T14:42:25.981Z</time></trkpt><trkpt lat="45.86517129520909" lon="9.85832357537575"><ele>727.0</ele><time>2026-04-03T14:42:26.981Z</time></trkpt><trkpt lat="45.865249542032295" lon="9.85835259545456"><ele>726.75</ele><time>2026-04-03T14:42:27.981Z</time></trkpt><trkpt lat="45.86534097435833" lon="9.858355678640425"><ele>726.5</ele><time>2026-04-03T14:42:29.981Z</time></trkpt><trkpt lat="45.865427556858364" lon="9.858354549152757"><ele>726.25</ele><time>2026-04-03T14:42:31.981Z</time></trkpt><trkpt lat="45.86549824147504" lon="9.858274077821394"><ele>726.0</ele><time>2026-04-03T14:42:32.981Z</time></trkpt><trkpt lat="45.865680414701984" lon="9.858266575333445"><ele>726.0</ele><time>2026-04-03T14:42:36.98Z</time></trkpt><trkpt lat="45.86576537034713" lon="9.858259283361324"><ele>726.0</ele><time>2026-04-03T14:42:37.98Z</time></trkpt><trkpt lat="45.86585963533113" lon="9.858302900948122"><ele>726.0</ele><time>2026-04-03T14:42:39.98Z</time></trkpt><trkpt lat="45.86594486939639" lon="9.858326036885193"><ele>726.0</ele><time>2026-04-03T14:42:41.98Z</time></trkpt><trkpt lat="45.86600898983808" lon="9.858303450456857"><ele>726.0</ele><time>2026-04-03T14:42:42.98Z</time></trkpt><trkpt lat="45.86611443457354" lon="9.858305343433125"><ele>726.0</ele><time>2026-04-03T14:42:43.98Z</time></trkpt><trkpt lat="45.86621816908474" lon="9.85830674948445"><ele>723.8</ele><time>2026-04-03T14:42:44.98Z</time></trkpt><trkpt lat="45.86629703300058" lon="9.85832983816286"><ele>721.5999999999999</ele><time>2026-04-03T14:42:45.98Z</time></trkpt><trkpt lat="45.86637907650364" lon="9.858308808630264"><ele>719.4</ele><time>2026-04-03T14:42:46.98Z</time></trkpt><trkpt lat="45.866481777063015" lon="9.8582610643877"><ele>717.2</ele><time>2026-04-03T14:42:48.98Z</time></trkpt><trkpt lat="45.866605383467956" lon="9.858262287896553"><ele>715.0</ele><time>2026-04-03T14:42:50.979Z</time></trkpt><trkpt lat="45.86666970271747" lon="9.85830038214134"><ele>715.0</ele><time>2026-04-03T14:42:52.979Z</time></trkpt><trkpt lat="45.86673585472296" lon="9.858268250179172"><ele>715.0</ele><time>2026-04-03T14:42:53.979Z</time></trkpt><trkpt lat="45.86684826213613" lon="9.85823153674479"><ele>715.0</ele><time>2026-04-03T14:42:55.979Z</time></trkpt><trkpt lat="45.866904200920544" lon="9.858187847464073"><ele>715.0</ele><time>2026-04-03T14:42:56.979Z</time></trkpt><trkpt lat="45.86695795105042" lon="9.858076759515866"><ele>715.0</ele><time>2026-04-03T14:42:58.979Z</time></trkpt><trkpt lat="45.86698401262512" lon="9.85792966673898"><ele>715.0</ele><time>2026-04-03T14:43:00.979Z</time></trkpt><trkpt lat="45.86724520320546" lon="9.857878956103285"><ele>716.1428571428572</ele><time>2026-04-03T14:43:08.978Z</time></trkpt><trkpt lat="45.86728526088594" lon="9.85779299686259"><ele>717.2857142857142</ele><time>2026-04-03T14:43:17.978Z</time></trkpt><trkpt lat="45.86725856467587" lon="9.857890440988907"><ele>718.4285714285714</ele><time>2026-04-03T14:43:47.983Z</time></trkpt><trkpt lat="45.86720047217187" lon="9.857962524810697"><ele>719.5714285714287</ele><time>2026-04-03T14:43:55.982Z</time></trkpt><trkpt lat="45.86721752556306" lon="9.858055910191645"><ele>720.7142857142858</ele><time>2026-04-03T14:44:02.982Z</time></trkpt><trkpt lat="45.8671550062502" lon="9.858114786316989"><ele>721.8571428571429</ele><time>2026-04-03T14:44:05.982Z</time></trkpt><trkpt lat="45.86709196284635" lon="9.858151993959744"><ele>723.0</ele><time>2026-04-03T14:44:07.981Z</time></trkpt><trkpt lat="45.867020452326415" lon="9.858242165347116"><ele>723.0000000000001</ele><time>2026-04-03T14:44:09.981Z</time></trkpt><trkpt lat="45.86694723179738" lon="9.85830115089803"><ele>723.0</ele><time>2026-04-03T14:44:12.981Z</time></trkpt><trkpt lat="45.866884283554064" lon="9.858348236739646"><ele>723.0</ele><time>2026-04-03T14:44:14.981Z</time></trkpt><trkpt lat="45.86685561206747" lon="9.858435240663514"><ele>723.0</ele><time>2026-04-03T14:44:16.981Z</time></trkpt><trkpt lat="45.866827686188316" lon="9.8585163719371"><ele>723.0</ele><time>2026-04-03T14:44:18.981Z</time></trkpt><trkpt lat="45.86679325899092" lon="9.858607757011688"><ele>723.0000000000001</ele><time>2026-04-03T14:44:20.981Z</time></trkpt><trkpt lat="45.86675745792438" lon="9.858688239016272"><ele>723.0</ele><time>2026-04-03T14:44:22.981Z</time></trkpt><trkpt lat="45.86674987162825" lon="9.858831100755351"><ele>720.8333333333334</ele><time>2026-04-03T14:44:24.98Z</time></trkpt><trkpt lat="45.86675300159484" lon="9.858931766701064"><ele>718.6666666666666</ele><time>2026-04-03T14:44:25.98Z</time></trkpt><trkpt lat="45.86675492125036" lon="9.859063031362531"><ele>716.5</ele><time>2026-04-03T14:44:26.98Z</time></trkpt><trkpt lat="45.86674085404428" lon="9.859171267973757"><ele>714.3333333333333</ele><time>2026-04-03T14:44:27.98Z</time></trkpt><trkpt lat="45.86675459293095" lon="9.859284506605263"><ele>712.1666666666666</ele><time>2026-04-03T14:44:28.98Z</time></trkpt><trkpt lat="45.86676365778917" lon="9.859424970253741"><ele>710.0</ele><time>2026-04-03T14:44:30.98Z</time></trkpt><trkpt lat="45.86677050694088" lon="9.859525154151907"><ele>710.0</ele><time>2026-04-03T14:44:31.98Z</time></trkpt><trkpt lat="45.86675776427871" lon="9.859657476734506"><ele>710.0</ele><time>2026-04-03T14:44:33.98Z</time></trkpt><trkpt lat="45.866761486983634" lon="9.85980581834364"><ele>710.0</ele><time>2026-04-03T14:44:35.98Z</time></trkpt><trkpt lat="45.86677429144706" lon="9.85990770387973"><ele>710.0</ele><time>2026-04-03T14:44:36.98Z</time></trkpt><trkpt lat="45.86675892654359" lon="9.860063251514044"><ele>710.0</ele><time>2026-04-03T14:44:38.98Z</time></trkpt><trkpt lat="45.86669543643793" lon="9.860166725693558"><ele>712.2</ele><time>2026-04-03T14:44:40.979Z</time></trkpt><trkpt lat="45.866648311879466" lon="9.860314463847274"><ele>714.4</ele><time>2026-04-03T14:44:42.979Z</time></trkpt><trkpt lat="45.866613565103506" lon="9.86042373959193"><ele>716.5999999999999</ele><time>2026-04-03T14:44:43.979Z</time></trkpt><trkpt lat="45.86651002527547" lon="9.860596708722213"><ele>718.8</ele><time>2026-04-03T14:44:45.979Z</time></trkpt><trkpt lat="45.86647346483769" lon="9.860711890961651"><ele>721.0</ele><time>2026-04-03T14:44:46.979Z</time></trkpt><trkpt lat="45.86645910372748" lon="9.86082559688926"><ele>721.0</ele><time>2026-04-03T14:44:47.979Z</time></trkpt><trkpt lat="45.8664420531961" lon="9.860921679382415"><ele>721.0</ele><time>2026-04-03T14:44:48.907Z</time></trkpt><trkpt lat="45.86644188017831" lon="9.861041986340659"><ele>721.0</ele><time>2026-04-03T14:44:50.907Z</time></trkpt><trkpt lat="45.866446064673866" lon="9.861153634767076"><ele>721.0</ele><time>2026-04-03T14:44:52.907Z</time></trkpt><trkpt lat="45.86645226423571" lon="9.861266173375158"><ele>721.0</ele><time>2026-04-03T14:44:54.906Z</time></trkpt><trkpt lat="45.866468727663374" lon="9.861368420590326"><ele>721.0</ele><time>2026-04-03T14:44:56.906Z</time></trkpt><trkpt lat="45.86651031087799" lon="9.86147040905906"><ele>723.0</ele><time>2026-04-03T14:45:00.906Z</time></trkpt><trkpt lat="45.866484702580685" lon="9.86158006824679"><ele>725.0</ele><time>2026-04-03T14:45:03.906Z</time></trkpt><trkpt lat="45.86650751076516" lon="9.861707394172576"><ele>727.0</ele><time>2026-04-03T14:45:05.906Z</time></trkpt><trkpt lat="45.86631165953034" lon="9.86226993739431"><ele>729.8</ele><time>2026-04-03T14:45:08.906Z</time></trkpt><trkpt lat="45.866298625278496" lon="9.86236348335472"><ele>732.6</ele><time>2026-04-03T14:45:11.905Z</time></trkpt><trkpt lat="45.86622014753884" lon="9.862445093158568"><ele>735.4</ele><time>2026-04-03T14:45:14.905Z</time></trkpt><trkpt lat="45.866148379077266" lon="9.862523771689848"><ele>738.1999999999999</ele><time>2026-04-03T14:45:15.905Z</time></trkpt><trkpt lat="45.86607050754621" lon="9.862669390694967"><ele>741.0</ele><time>2026-04-03T14:45:16.905Z</time></trkpt><trkpt lat="45.865976160292334" lon="9.862807508044943"><ele>738.4</ele><time>2026-04-03T14:45:17.905Z</time></trkpt><trkpt lat="45.86589538792611" lon="9.862905574668051"><ele>735.8</ele><time>2026-04-03T14:45:18.905Z</time></trkpt><trkpt lat="45.86583337759589" lon="9.863013890156482"><ele>733.1999999999999</ele><time>2026-04-03T14:45:19.905Z</time></trkpt><trkpt lat="45.86576616577211" lon="9.86314810701602"><ele>730.5999999999999</ele><time>2026-04-03T14:45:20.905Z</time></trkpt><trkpt lat="45.865704918094785" lon="9.863262790676243"><ele>728.0</ele><time>2026-04-03T14:45:21.905Z</time></trkpt><trkpt lat="45.86564943035197" lon="9.863375271246204"><ele>728.6666666666666</ele><time>2026-04-03T14:45:22.905Z</time></trkpt><trkpt lat="45.86560490466557" lon="9.863499460778785"><ele>729.3333333333333</ele><time>2026-04-03T14:45:23.905Z</time></trkpt><trkpt lat="45.865570994479704" lon="9.863611006446385"><ele>730.0</ele><time>2026-04-03T14:45:24.905Z</time></trkpt><trkpt lat="45.8655459372891" lon="9.863710901577026"><ele>730.6666666666666</ele><time>2026-04-03T14:45:25.905Z</time></trkpt><trkpt lat="45.86553453655133" lon="9.863822553357627"><ele>731.3333333333334</ele><time>2026-04-03T14:45:26.905Z</time></trkpt><trkpt lat="45.86544522940508" lon="9.86382923586826"><ele>732.0</ele><time>2026-04-03T14:45:27.905Z</time></trkpt><trkpt lat="45.86545011332511" lon="9.864004102625628"><ele>732.0</ele><time>2026-04-03T14:45:28.904Z</time></trkpt><trkpt lat="45.86547364961165" lon="9.864150457077265"><ele>732.0</ele><time>2026-04-03T14:45:29.904Z</time></trkpt><trkpt lat="45.86549254205773" lon="9.864286071716583"><ele>732.0</ele><time>2026-04-03T14:45:30.904Z</time></trkpt><trkpt lat="45.86555095100615" lon="9.864338477078467"><ele>732.0</ele><time>2026-04-03T14:45:31.904Z</time></trkpt><trkpt lat="45.86558726338435" lon="9.864455956719373"><ele>732.0</ele><time>2026-04-03T14:45:32.904Z</time></trkpt><trkpt lat="45.86562434163916" lon="9.864602935687719"><ele>729.8</ele><time>2026-04-03T14:45:33.904Z</time></trkpt><trkpt lat="45.86565965398885" lon="9.864733079535842"><ele>727.6</ele><time>2026-04-03T14:45:34.904Z</time></trkpt><trkpt lat="45.86570701755662" lon="9.86483406345813"><ele>725.4</ele><time>2026-04-03T14:45:35.904Z</time></trkpt><trkpt lat="45.865733182549974" lon="9.864921795698132"><ele>723.1999999999999</ele><time>2026-04-03T14:45:36.904Z</time></trkpt><trkpt lat="45.86575184036906" lon="9.86501399074593"><ele>721.0</ele><time>2026-04-03T14:45:37.904Z</time></trkpt><trkpt lat="45.86573064914671" lon="9.865218369551634"><ele>719.5</ele><time>2026-04-03T14:45:39.904Z</time></trkpt><trkpt lat="45.86574416827411" lon="9.865328876332434"><ele>718.0</ele><time>2026-04-03T14:45:40.904Z</time></trkpt><trkpt lat="45.86576804558982" lon="9.865433676443205"><ele>716.5</ele><time>2026-04-03T14:45:41.904Z</time></trkpt><trkpt lat="45.86578519659861" lon="9.865545768910215"><ele>715.0</ele><time>2026-04-03T14:45:42.904Z</time></trkpt><trkpt lat="45.865791564728184" lon="9.865670006929765"><ele>713.5</ele><time>2026-04-03T14:45:43.904Z</time></trkpt><trkpt lat="45.86579840959928" lon="9.865778114232214"><ele>712.0</ele><time>2026-04-03T14:45:44.91Z</time></trkpt><trkpt lat="45.865808273944495" lon="9.865883062181915"><ele>710.5</ele><time>2026-04-03T14:45:45.91Z</time></trkpt><trkpt lat="45.86582567010256" lon="9.865999319991753"><ele>709.0</ele><time>2026-04-03T14:45:46.909Z</time></trkpt><trkpt lat="45.8658439567278" lon="9.866117848032445"><ele>707.5</ele><time>2026-04-03T14:45:47.91Z</time></trkpt><trkpt lat="45.865859096495114" lon="9.866250893425871"><ele>706.0</ele><time>2026-04-03T14:45:48.909Z</time></trkpt><trkpt lat="45.86587091117591" lon="9.866376181549962"><ele>704.5</ele><time>2026-04-03T14:45:49.909Z</time></trkpt><trkpt lat="45.86588427658934" lon="9.866473385505577"><ele>703.0</ele><time>2026-04-03T14:45:50.91Z</time></trkpt><trkpt lat="45.86590218122693" lon="9.8666401232134"><ele>703.0</ele><time>2026-04-03T14:45:52.909Z</time></trkpt><trkpt lat="45.86589759016633" lon="9.86675431079823"><ele>703.0</ele><time>2026-04-03T14:45:54.909Z</time></trkpt><trkpt lat="45.865926574967766" lon="9.866854794836875"><ele>703.0</ele><time>2026-04-03T14:45:56.909Z</time></trkpt><trkpt lat="45.86601937692578" lon="9.866984833000977"><ele>703.0</ele><time>2026-04-03T14:45:58.909Z</time></trkpt><trkpt lat="45.86612099151528" lon="9.867023804890543"><ele>703.0</ele><time>2026-04-03T14:46:00.909Z</time></trkpt><trkpt lat="45.8662136621298" lon="9.867018015383094"><ele>701.8333333333334</ele><time>2026-04-03T14:46:02.909Z</time></trkpt><trkpt lat="45.866296917641144" lon="9.86701761680235"><ele>700.6666666666667</ele><time>2026-04-03T14:46:03.909Z</time></trkpt><trkpt lat="45.866396076364346" lon="9.867035932213193"><ele>699.5</ele><time>2026-04-03T14:46:04.909Z</time></trkpt><trkpt lat="45.8664953398839" lon="9.867040802905215"><ele>698.3333333333334</ele><time>2026-04-03T14:46:05.909Z</time></trkpt><trkpt lat="45.866564631387796" lon="9.867029828753138"><ele>697.1666666666666</ele><time>2026-04-03T14:46:06.909Z</time></trkpt><trkpt lat="45.86663419576107" lon="9.866934309402351"><ele>696.0</ele><time>2026-04-03T14:46:08.908Z</time></trkpt><trkpt lat="45.86667381533808" lon="9.867025508791027"><ele>696.0</ele><time>2026-04-03T14:46:31.907Z</time></trkpt><trkpt lat="45.86669555044414" lon="9.867116946636008"><ele>696.0</ele><time>2026-04-03T14:46:34.907Z</time></trkpt><trkpt lat="45.866849953694015" lon="9.867212210596108"><ele>696.0</ele><time>2026-04-03T14:46:37.907Z</time></trkpt><trkpt lat="45.866983217752576" lon="9.86732313525423"><ele>696.0</ele><time>2026-04-03T14:46:38.907Z</time></trkpt><trkpt lat="45.867125759245496" lon="9.867419608492016"><ele>694.0</ele><time>2026-04-03T14:46:39.907Z</time></trkpt><trkpt lat="45.86723678657638" lon="9.867466453512089"><ele>692.0</ele><time>2026-04-03T14:46:40.907Z</time></trkpt><trkpt lat="45.86730710779876" lon="9.86752380022603"><ele>690.0</ele><time>2026-04-03T14:46:41.906Z</time></trkpt><trkpt lat="45.86736450802758" lon="9.86758236727467"><ele>688.0</ele><time>2026-04-03T14:46:42.906Z</time></trkpt><trkpt lat="45.867421821830156" lon="9.867634289397602"><ele>686.0</ele><time>2026-04-03T14:46:43.906Z</time></trkpt><trkpt lat="45.8675262817552" lon="9.86769722608252"><ele>684.0</ele><time>2026-04-03T14:46:45.906Z</time></trkpt><trkpt lat="45.86760528584474" lon="9.86772174020605"><ele>683.2</ele><time>2026-04-03T14:46:46.906Z</time></trkpt><trkpt lat="45.86769375345373" lon="9.867786073996488"><ele>682.4000000000001</ele><time>2026-04-03T14:46:47.906Z</time></trkpt><trkpt lat="45.86779229026667" lon="9.86784481079281"><ele>681.6</ele><time>2026-04-03T14:46:48.906Z</time></trkpt><trkpt lat="45.86787445928664" lon="9.867902302405831"><ele>680.8</ele><time>2026-04-03T14:46:49.906Z</time></trkpt><trkpt lat="45.867947755568814" lon="9.867914267607736"><ele>680.0</ele><time>2026-04-03T14:46:50.906Z</time></trkpt><trkpt lat="45.86803833316948" lon="9.867894423396516"><ele>680.0</ele><time>2026-04-03T14:46:52.906Z</time></trkpt><trkpt lat="45.86809662924107" lon="9.867854472081774"><ele>680.0</ele><time>2026-04-03T14:46:53.906Z</time></trkpt><trkpt lat="45.86816553727311" lon="9.867800060262951"><ele>680.0</ele><time>2026-04-03T14:46:54.906Z</time></trkpt><trkpt lat="45.86824037538628" lon="9.867752819247778"><ele>680.0</ele><time>2026-04-03T14:46:56.906Z</time></trkpt><trkpt lat="45.86827592076174" lon="9.867663393342129"><ele>680.0</ele><time>2026-04-03T14:46:58.905Z</time></trkpt><trkpt lat="45.8683333480946" lon="9.867620104260851"><ele>680.0</ele><time>2026-04-03T14:47:02.905Z</time></trkpt><trkpt lat="45.868409886064434" lon="9.867605369070596"><ele>680.0</ele><time>2026-04-03T14:47:04.905Z</time></trkpt><trkpt lat="45.8685182689885" lon="9.867550938590535"><ele>683.0</ele><time>2026-04-03T14:47:06.905Z</time></trkpt><trkpt lat="45.86869011764816" lon="9.867538791190935"><ele>686.0</ele><time>2026-04-03T14:47:12.905Z</time></trkpt><trkpt lat="45.86878428979022" lon="9.867501809105095"><ele>689.0</ele><time>2026-04-03T14:47:24.904Z</time></trkpt><trkpt lat="45.86886316598459" lon="9.867497260375314"><ele>692.0</ele><time>2026-04-03T14:47:26.904Z</time></trkpt><trkpt lat="45.86900437332091" lon="9.867475112767432"><ele>692.0</ele><time>2026-04-03T14:47:28.904Z</time></trkpt><trkpt lat="45.8690745127159" lon="9.86746508238273"><ele>692.0</ele><time>2026-04-03T14:47:29.904Z</time></trkpt><trkpt lat="45.86918442467691" lon="9.867454388618976"><ele>692.0</ele><time>2026-04-03T14:47:31.903Z</time></trkpt><trkpt lat="45.86926914984945" lon="9.867392358301567"><ele>692.0</ele><time>2026-04-03T14:47:33.903Z</time></trkpt><trkpt lat="45.8693079366153" lon="9.867308727056647"><ele>692.0</ele><time>2026-04-03T14:47:35.903Z</time></trkpt><trkpt lat="45.869379306680855" lon="9.86727944353836"><ele>692.0</ele><time>2026-04-03T14:47:37.903Z</time></trkpt><trkpt lat="45.8694500530996" lon="9.8673841468443"><ele>695.3333333333333</ele><time>2026-04-03T14:47:44.903Z</time></trkpt><trkpt lat="45.86952610000768" lon="9.86744208305855"><ele>698.6666666666666</ele><time>2026-04-03T14:47:46.903Z</time></trkpt><trkpt lat="45.86951076109003" lon="9.86758504656593"><ele>702.0</ele><time>2026-04-03T14:47:47.903Z</time></trkpt><trkpt lat="45.8694689487575" lon="9.867665268223556"><ele>705.3333333333334</ele><time>2026-04-03T14:47:48.902Z</time></trkpt><trkpt lat="45.86942954794851" lon="9.86778166535733"><ele>708.6666666666667</ele><time>2026-04-03T14:47:50.909Z</time></trkpt><trkpt lat="45.869428053739036" lon="9.867874394677864"><ele>712.0</ele><time>2026-04-03T14:47:51.909Z</time></trkpt><trkpt lat="45.86940597452472" lon="9.867966783084324"><ele>712.0</ele><time>2026-04-03T14:47:53.909Z</time></trkpt><trkpt lat="45.86932834905819" lon="9.868002993666133"><ele>712.0</ele><time>2026-04-03T14:47:55.909Z</time></trkpt><trkpt lat="45.86933194679863" lon="9.868134594481408"><ele>712.0</ele><time>2026-04-03T14:47:57.909Z</time></trkpt><trkpt lat="45.86925538597241" lon="9.868205830423596"><ele>712.0</ele><time>2026-04-03T14:47:59.909Z</time></trkpt><trkpt lat="45.86924169909035" lon="9.868328881959867"><ele>712.0</ele><time>2026-04-03T14:48:02.909Z</time></trkpt><trkpt lat="45.869110931472164" lon="9.868790787218982"><ele>708.2</ele><time>2026-04-03T14:48:08.908Z</time></trkpt><trkpt lat="45.86905549026464" lon="9.869000998519835"><ele>704.4000000000001</ele><time>2026-04-03T14:48:09.908Z</time></trkpt><trkpt lat="45.86900715760085" lon="9.869141467181102"><ele>700.5999999999999</ele><time>2026-04-03T14:48:10.908Z</time></trkpt><trkpt lat="45.868922650312" lon="9.869201672934487"><ele>696.8</ele><time>2026-04-03T14:48:11.908Z</time></trkpt><trkpt lat="45.86887065954596" lon="9.869252868683283"><ele>693.0</ele><time>2026-04-03T14:48:12.908Z</time></trkpt><trkpt lat="45.86873517498306" lon="9.86937808013108"><ele>693.0</ele><time>2026-04-03T14:48:14.908Z</time></trkpt><trkpt lat="45.86868402293365" lon="9.869444477449418"><ele>693.0</ele><time>2026-04-03T14:48:15.908Z</time></trkpt><trkpt lat="45.86860548837069" lon="9.869519826811674"><ele>693.0</ele><time>2026-04-03T14:48:16.908Z</time></trkpt><trkpt lat="45.86855562571" lon="9.869627144741036"><ele>693.0</ele><time>2026-04-03T14:48:17.908Z</time></trkpt><trkpt lat="45.86847431950313" lon="9.869813848323705"><ele>693.0</ele><time>2026-04-03T14:48:19.908Z</time></trkpt><trkpt lat="45.868431722401326" lon="9.86992078906838"><ele>689.0</ele><time>2026-04-03T14:48:20.907Z</time></trkpt><trkpt lat="45.868406915865286" lon="9.870029895229907"><ele>685.0</ele><time>2026-04-03T14:48:22.907Z</time></trkpt><trkpt lat="45.86836090036217" lon="9.870158337634344"><ele>681.0</ele><time>2026-04-03T14:48:24.907Z</time></trkpt><trkpt lat="45.86828946108785" lon="9.870263596615032"><ele>677.0</ele><time>2026-04-03T14:48:26.907Z</time></trkpt><trkpt lat="45.86824079280513" lon="9.870436235414953"><ele>673.0</ele><time>2026-04-03T14:48:28.907Z</time></trkpt><trkpt lat="45.86824458133322" lon="9.870545646773202"><ele>673.0</ele><time>2026-04-03T14:48:29.907Z</time></trkpt><trkpt lat="45.86826858646001" lon="9.870649624198487"><ele>673.0</ele><time>2026-04-03T14:48:30.907Z</time></trkpt><trkpt lat="45.86830722536645" lon="9.870775838847734"><ele>673.0</ele><time>2026-04-03T14:48:31.907Z</time></trkpt><trkpt lat="45.868342965950184" lon="9.870890097138592"><ele>673.0</ele><time>2026-04-03T14:48:32.907Z</time></trkpt><trkpt lat="45.86837508877367" lon="9.871010817162102"><ele>673.0</ele><time>2026-04-03T14:48:33.907Z</time></trkpt><trkpt lat="45.86839058083512" lon="9.87113112201376"><ele>673.0</ele><time>2026-04-03T14:48:34.907Z</time></trkpt><trkpt lat="45.868373929753915" lon="9.871256121654199"><ele>671.5</ele><time>2026-04-03T14:48:35.907Z</time></trkpt><trkpt lat="45.86835110844909" lon="9.871368037529532"><ele>670.0</ele><time>2026-04-03T14:48:36.906Z</time></trkpt><trkpt lat="45.86830801909631" lon="9.871468620272534"><ele>668.5</ele><time>2026-04-03T14:48:37.906Z</time></trkpt><trkpt lat="45.86825257298527" lon="9.87155811331103"><ele>667.0</ele><time>2026-04-03T14:48:38.906Z</time></trkpt><trkpt lat="45.868220085747524" lon="9.871669701641844"><ele>665.5</ele><time>2026-04-03T14:48:39.906Z</time></trkpt><trkpt lat="45.86819351341634" lon="9.871784199276119"><ele>664.0</ele><time>2026-04-03T14:48:40.906Z</time></trkpt><trkpt lat="45.86820039722753" lon="9.871889446973235"><ele>661.6666666666667</ele><time>2026-04-03T14:48:41.906Z</time></trkpt><trkpt lat="45.868245163142426" lon="9.871979655592448"><ele>659.3333333333334</ele><time>2026-04-03T14:48:42.906Z</time></trkpt><trkpt lat="45.86831824849839" lon="9.872027765934815"><ele>657.0</ele><time>2026-04-03T14:48:43.906Z</time></trkpt><trkpt lat="45.868398790785776" lon="9.872033247941593"><ele>654.6666666666666</ele><time>2026-04-03T14:48:44.906Z</time></trkpt><trkpt lat="45.86848304728966" lon="9.871998428847819"><ele>652.3333333333333</ele><time>2026-04-03T14:48:45.906Z</time></trkpt><trkpt lat="45.868567085948996" lon="9.871952628124516"><ele>650.0</ele><time>2026-04-03T14:48:46.906Z</time></trkpt><trkpt lat="45.868658122647645" lon="9.871920753021334"><ele>650.0</ele><time>2026-04-03T14:48:47.906Z</time></trkpt><trkpt lat="45.86874695522635" lon="9.871895887306195"><ele>650.0</ele><time>2026-04-03T14:48:48.906Z</time></trkpt><trkpt lat="45.868850842799766" lon="9.871859408003886"><ele>650.0</ele><time>2026-04-03T14:48:49.906Z</time></trkpt><trkpt lat="45.86895980630028" lon="9.871815007888568"><ele>650.0</ele><time>2026-04-03T14:48:50.906Z</time></trkpt><trkpt lat="45.86907471110696" lon="9.871762440883044"><ele>650.0</ele><time>2026-04-03T14:48:51.906Z</time></trkpt><trkpt lat="45.869192815767" lon="9.871715806284675"><ele>654.2</ele><time>2026-04-03T14:48:52.906Z</time></trkpt><trkpt lat="45.86930485712273" lon="9.871680450618388"><ele>658.4</ele><time>2026-04-03T14:48:53.905Z</time></trkpt><trkpt lat="45.869401271090574" lon="9.871649963243703"><ele>662.5999999999999</ele><time>2026-04-03T14:48:54.905Z</time></trkpt><trkpt lat="45.869483080548164" lon="9.871613158009398"><ele>666.8</ele><time>2026-04-03T14:48:55.905Z</time></trkpt><trkpt lat="45.8695502691678" lon="9.87159035465889"><ele>671.0</ele><time>2026-04-03T14:48:56.905Z</time></trkpt><trkpt lat="45.869653040538" lon="9.871664851847806"><ele>671.25</ele><time>2026-04-03T14:48:58.905Z</time></trkpt><trkpt lat="45.86963145675116" lon="9.871804561507618"><ele>671.5</ele><time>2026-04-03T14:49:00.905Z</time></trkpt><trkpt lat="45.86952910703329" lon="9.871881295955943"><ele>671.75</ele><time>2026-04-03T14:49:02.905Z</time></trkpt><trkpt lat="45.86946258320571" lon="9.871858106559536"><ele>672.0</ele><time>2026-04-03T14:49:03.905Z</time></trkpt><trkpt lat="45.86939937523889" lon="9.872112087798559"><ele>672.0</ele><time>2026-04-03T14:49:04.905Z</time></trkpt><trkpt lat="45.86933195023476" lon="9.872244258149523"><ele>672.0</ele><time>2026-04-03T14:49:05.905Z</time></trkpt><trkpt lat="45.869254652383155" lon="9.872400140303501"><ele>672.0</ele><time>2026-04-03T14:49:06.905Z</time></trkpt><trkpt lat="45.86919110770363" lon="9.872538078651655"><ele>672.0</ele><time>2026-04-03T14:49:07.905Z</time></trkpt><trkpt lat="45.86914542655418" lon="9.872692177344316"><ele>667.0</ele><time>2026-04-03T14:49:08.905Z</time></trkpt><trkpt lat="45.86911759738028" lon="9.872831508128359"><ele>662.0</ele><time>2026-04-03T14:49:09.905Z</time></trkpt><trkpt lat="45.86913113723381" lon="9.872976034808323"><ele>657.0</ele><time>2026-04-03T14:49:10.904Z</time></trkpt><trkpt lat="45.869120487092886" lon="9.873115081800316"><ele>652.0</ele><time>2026-04-03T14:49:11.904Z</time></trkpt><trkpt lat="45.86911507327033" lon="9.873271184643023"><ele>647.0</ele><time>2026-04-03T14:49:12.904Z</time></trkpt><trkpt lat="45.869111800580946" lon="9.87338439958953"><ele>646.0</ele><time>2026-04-03T14:49:13.904Z</time></trkpt><trkpt lat="45.86911507638559" lon="9.87348522697031"><ele>645.0</ele><time>2026-04-03T14:49:14.904Z</time></trkpt><trkpt lat="45.86912947979608" lon="9.873645463561994"><ele>644.0</ele><time>2026-04-03T14:49:16.904Z</time></trkpt><trkpt lat="45.86911316893514" lon="9.87375825665894"><ele>643.0</ele><time>2026-04-03T14:49:18.904Z</time></trkpt><trkpt lat="45.86911051531935" lon="9.87385692902831"><ele>642.0</ele><time>2026-04-03T14:49:20.904Z</time></trkpt><trkpt lat="45.869110992293265" lon="9.874010330458264"><ele>641.0</ele><time>2026-04-03T14:49:22.904Z</time></trkpt><trkpt lat="45.869151762423556" lon="9.87410044486726"><ele>641.0</ele><time>2026-04-03T14:49:23.904Z</time></trkpt><trkpt lat="45.86922620153328" lon="9.874201975657266"><ele>641.0</ele><time>2026-04-03T14:49:24.904Z</time></trkpt><trkpt lat="45.86930800133558" lon="9.874268575143208"><ele>641.0</ele><time>2026-04-03T14:49:25.904Z</time></trkpt><trkpt lat="45.869401166799896" lon="9.874327694229061"><ele>641.0</ele><time>2026-04-03T14:49:26.903Z</time></trkpt><trkpt lat="45.86952807799029" lon="9.874382148566673"><ele>641.0</ele><time>2026-04-03T14:49:27.903Z</time></trkpt><trkpt lat="45.86964542214869" lon="9.87442295215586"><ele>640.8</ele><time>2026-04-03T14:49:28.903Z</time></trkpt><trkpt lat="45.86976636211173" lon="9.874460758784089"><ele>640.5999999999999</ele><time>2026-04-03T14:49:29.903Z</time></trkpt><trkpt lat="45.86988351134217" lon="9.874484773288632"><ele>640.4</ele><time>2026-04-03T14:49:30.903Z</time></trkpt><trkpt lat="45.86998683518832" lon="9.87449152297774"><ele>640.2</ele><time>2026-04-03T14:49:31.903Z</time></trkpt><trkpt lat="45.87008520795343" lon="9.87448660368291"><ele>640.0</ele><time>2026-04-03T14:49:32.903Z</time></trkpt><trkpt lat="45.87016997108398" lon="9.874467373643519"><ele>640.0</ele><time>2026-04-03T14:49:33.903Z</time></trkpt><trkpt lat="45.87024178436618" lon="9.874420531063954"><ele>640.0</ele><time>2026-04-03T14:49:34.903Z</time></trkpt><trkpt lat="45.87031255095086" lon="9.874347008813265"><ele>640.0</ele><time>2026-04-03T14:49:35.903Z</time></trkpt><trkpt lat="45.8703689419367" lon="9.874285554428827"><ele>640.0</ele><time>2026-04-03T14:49:36.903Z</time></trkpt><trkpt lat="45.870421088959" lon="9.874232796265646"><ele>640.0</ele><time>2026-04-03T14:49:37.903Z</time></trkpt><trkpt lat="45.87048754388323" lon="9.874162931489147"><ele>640.0</ele><time>2026-04-03T14:49:38.903Z</time></trkpt><trkpt lat="45.87055188228997" lon="9.874135704639562"><ele>640.0</ele><time>2026-04-03T14:49:39.903Z</time></trkpt><trkpt lat="45.870631655914444" lon="9.874134314677343"><ele>640.0</ele><time>2026-04-03T14:49:41.903Z</time></trkpt><trkpt lat="45.87069374217437" lon="9.87416490899122"><ele>640.0</ele><time>2026-04-03T14:49:43.902Z</time></trkpt><trkpt lat="45.8707969698768" lon="9.874283312242605"><ele>640.0</ele><time>2026-04-03T14:49:47.902Z</time></trkpt><trkpt lat="45.870830382912885" lon="9.874399058843773"><ele>640.0</ele><time>2026-04-03T14:49:48.902Z</time></trkpt><trkpt lat="45.870858348909415" lon="9.874549223832133"><ele>640.0</ele><time>2026-04-03T14:49:49.902Z</time></trkpt><trkpt lat="45.87089196180123" lon="9.874695432850944"><ele>640.0</ele><time>2026-04-03T14:49:50.902Z</time></trkpt><trkpt lat="45.87093273684859" lon="9.874801884841327"><ele>640.0</ele><time>2026-04-03T14:49:51.902Z</time></trkpt><trkpt lat="45.870989186677924" lon="9.87490343150254"><ele>640.0</ele><time>2026-04-03T14:49:52.902Z</time></trkpt><trkpt lat="45.87103343196738" lon="9.875006266693255"><ele>640.0</ele><time>2026-04-03T14:49:53.902Z</time></trkpt><trkpt lat="45.87108947787962" lon="9.8750697134759"><ele>640.0</ele><time>2026-04-03T14:49:54.902Z</time></trkpt><trkpt lat="45.87115082903138" lon="9.8751463887936"><ele>640.6</ele><time>2026-04-03T14:49:55.908Z</time></trkpt><trkpt lat="45.87120562174009" lon="9.875213591764247"><ele>641.2</ele><time>2026-04-03T14:49:56.909Z</time></trkpt><trkpt lat="45.87125805057454" lon="9.875284566594589"><ele>641.8</ele><time>2026-04-03T14:49:57.909Z</time></trkpt><trkpt lat="45.871342502994445" lon="9.875357327134479"><ele>642.4</ele><time>2026-04-03T14:49:59.908Z</time></trkpt><trkpt lat="45.8713928422196" lon="9.87541591649955"><ele>643.0</ele><time>2026-04-03T14:50:01.908Z</time></trkpt><trkpt lat="45.87141346427724" lon="9.875644659729142"><ele>643.0</ele><time>2026-04-03T14:50:04.908Z</time></trkpt><trkpt lat="45.871364949653746" lon="9.875745959668313"><ele>643.0</ele><time>2026-04-03T14:50:06.908Z</time></trkpt><trkpt lat="45.87122235151792" lon="9.875886899799411"><ele>643.0</ele><time>2026-04-03T14:50:08.908Z</time></trkpt><trkpt lat="45.87117976594394" lon="9.87600522269913"><ele>643.0</ele><time>2026-04-03T14:50:09.908Z</time></trkpt><trkpt lat="45.87115917927899" lon="9.876171427899365"><ele>642.4</ele><time>2026-04-03T14:50:10.908Z</time></trkpt><trkpt lat="45.87116649354944" lon="9.876282929493362"><ele>641.8</ele><time>2026-04-03T14:50:11.908Z</time></trkpt><trkpt lat="45.87116999005747" lon="9.876387884944863"><ele>641.2</ele><time>2026-04-03T14:50:12.908Z</time></trkpt><trkpt lat="45.87118363970986" lon="9.876488088515364"><ele>640.6</ele><time>2026-04-03T14:50:14.908Z</time></trkpt><trkpt lat="45.871341084954175" lon="9.876613672338847"><ele>640.0</ele><time>2026-04-03T14:50:16.908Z</time></trkpt><trkpt lat="45.87141779173106" lon="9.876624144924019"><ele>640.0</ele><time>2026-04-03T14:50:17.908Z</time></trkpt><trkpt lat="45.87148425814116" lon="9.876561965940448"><ele>640.0</ele><time>2026-04-03T14:50:18.908Z</time></trkpt><trkpt lat="45.87157450979131" lon="9.87652250342313"><ele>640.0</ele><time>2026-04-03T14:50:19.908Z</time></trkpt><trkpt lat="45.87165867965387" lon="9.876479697410232"><ele>640.0</ele><time>2026-04-03T14:50:20.908Z</time></trkpt><trkpt lat="45.87173375427762" lon="9.876479577635449"><ele>640.0</ele><time>2026-04-03T14:50:21.908Z</time></trkpt><trkpt lat="45.871833432591906" lon="9.876444368929933"><ele>640.0</ele><time>2026-04-03T14:50:23.908Z</time></trkpt><trkpt lat="45.871911415262936" lon="9.87644529915982"><ele>639.2</ele><time>2026-04-03T14:50:25.907Z</time></trkpt><trkpt lat="45.87202334530585" lon="9.876448543165193"><ele>638.4</ele><time>2026-04-03T14:50:27.907Z</time></trkpt><trkpt lat="45.872111702878165" lon="9.876401542358481"><ele>637.6</ele><time>2026-04-03T14:50:29.907Z</time></trkpt><trkpt lat="45.87218356596747" lon="9.876405665993916"><ele>636.8</ele><time>2026-04-03T14:50:32.907Z</time></trkpt><trkpt lat="45.872247370524626" lon="9.876526656265122"><ele>636.0</ele><time>2026-04-03T14:50:34.907Z</time></trkpt><trkpt lat="45.87234579199532" lon="9.87661187938462"><ele>636.0</ele><time>2026-04-03T14:50:36.907Z</time></trkpt><trkpt lat="45.872402118323244" lon="9.876676248215311"><ele>636.0</ele><time>2026-04-03T14:50:37.907Z</time></trkpt><trkpt lat="45.872483911840725" lon="9.87673972983966"><ele>636.0</ele><time>2026-04-03T14:50:39.907Z</time></trkpt><trkpt lat="45.87254320995577" lon="9.876784944862099"><ele>636.0</ele><time>2026-04-03T14:50:41.906Z</time></trkpt><trkpt lat="45.87260430502792" lon="9.876893185886574"><ele>636.0</ele><time>2026-04-03T14:50:43.906Z</time></trkpt><trkpt lat="45.87267400040221" lon="9.876919937160793"><ele>636.0</ele><time>2026-04-03T14:50:44.906Z</time></trkpt><trkpt lat="45.872741983388224" lon="9.876921470513182"><ele>628.2</ele><time>2026-04-03T14:50:45.906Z</time></trkpt><trkpt lat="45.87286427013778" lon="9.876943616972094"><ele>620.4000000000001</ele><time>2026-04-03T14:50:46.906Z</time></trkpt><trkpt lat="45.8729709945739" lon="9.876958522877775"><ele>612.6</ele><time>2026-04-03T14:50:47.906Z</time></trkpt><trkpt lat="45.87305166363914" lon="9.876979484409096"><ele>604.8000000000001</ele><time>2026-04-03T14:50:48.906Z</time></trkpt><trkpt lat="45.87313432737363" lon="9.87694318063112"><ele>597.0</ele><time>2026-04-03T14:50:50.906Z</time></trkpt><trkpt lat="45.87318914761334" lon="9.876890729304792"><ele>600.8000000000001</ele><time>2026-04-03T14:50:51.906Z</time></trkpt><trkpt lat="45.873229334315646" lon="9.87676025046464"><ele>604.6</ele><time>2026-04-03T14:50:52.906Z</time></trkpt><trkpt lat="45.87326756987426" lon="9.876665740272365"><ele>608.4000000000001</ele><time>2026-04-03T14:50:53.906Z</time></trkpt><trkpt lat="45.87335906732411" lon="9.876604996513292"><ele>612.2</ele><time>2026-04-03T14:50:55.906Z</time></trkpt><trkpt lat="45.873445308482744" lon="9.876430274321713"><ele>616.0</ele><time>2026-04-03T14:50:57.906Z</time></trkpt><trkpt lat="45.87349651147019" lon="9.876354263602424"><ele>606.0</ele><time>2026-04-03T14:50:58.905Z</time></trkpt><trkpt lat="45.87358740545619" lon="9.87631506021314"><ele>596.0</ele><time>2026-04-03T14:51:00.905Z</time></trkpt><trkpt lat="45.8736858328094" lon="9.876260702039383"><ele>586.0</ele><time>2026-04-03T14:51:02.905Z</time></trkpt><trkpt lat="45.87375853380982" lon="9.876224332994491"><ele>576.0</ele><time>2026-04-03T14:51:03.905Z</time></trkpt><trkpt lat="45.87384745191124" lon="9.876139740518099"><ele>566.0</ele><time>2026-04-03T14:51:04.905Z</time></trkpt><trkpt lat="45.873955318075055" lon="9.876087503706104"><ele>566.0</ele><time>2026-04-03T14:51:05.905Z</time></trkpt><trkpt lat="45.87406729446527" lon="9.876038555071947"><ele>566.0</ele><time>2026-04-03T14:51:06.905Z</time></trkpt><trkpt lat="45.87417722435075" lon="9.875993957836783"><ele>566.0</ele><time>2026-04-03T14:51:07.905Z</time></trkpt><trkpt lat="45.87426764517988" lon="9.87596157431865"><ele>566.0</ele><time>2026-04-03T14:51:08.905Z</time></trkpt><trkpt lat="45.87436221896051" lon="9.87590789626905"><ele>566.0</ele><time>2026-04-03T14:51:09.905Z</time></trkpt><trkpt lat="45.874449627019246" lon="9.875842963348765"><ele>566.2</ele><time>2026-04-03T14:51:10.905Z</time></trkpt><trkpt lat="45.874525423293164" lon="9.87581599064344"><ele>566.4000000000001</ele><time>2026-04-03T14:51:11.905Z</time></trkpt><trkpt lat="45.87462049915238" lon="9.875752474101999"><ele>566.6</ele><time>2026-04-03T14:51:12.905Z</time></trkpt><trkpt lat="45.874682847379454" lon="9.875670372048361"><ele>566.8000000000001</ele><time>2026-04-03T14:51:13.905Z</time></trkpt><trkpt lat="45.87477118166816" lon="9.875571309619833"><ele>567.0</ele><time>2026-04-03T14:51:14.904Z</time></trkpt><trkpt lat="45.874870440777535" lon="9.87549207525028"><ele>567.0</ele><time>2026-04-03T14:51:15.904Z</time></trkpt><trkpt lat="45.87496043128536" lon="9.87544424495275"><ele>567.0</ele><time>2026-04-03T14:51:16.904Z</time></trkpt><trkpt lat="45.87504988340535" lon="9.875369745540324"><ele>567.0</ele><time>2026-04-03T14:51:17.904Z</time></trkpt><trkpt lat="45.87510730629121" lon="9.875300485120981"><ele>567.0</ele><time>2026-04-03T14:51:18.904Z</time></trkpt><trkpt lat="45.87516974527003" lon="9.875170395956824"><ele>567.0</ele><time>2026-04-03T14:51:19.904Z</time></trkpt><trkpt lat="45.87521999843006" lon="9.875066346289337"><ele>566.6</ele><time>2026-04-03T14:51:20.904Z</time></trkpt><trkpt lat="45.87528609019035" lon="9.874968513918526"><ele>566.2</ele><time>2026-04-03T14:51:21.904Z</time></trkpt><trkpt lat="45.875375405000135" lon="9.874876151952014"><ele>565.8</ele><time>2026-04-03T14:51:22.904Z</time></trkpt><trkpt lat="45.87546295217239" lon="9.874780014150488"><ele>565.4</ele><time>2026-04-03T14:51:23.904Z</time></trkpt><trkpt lat="45.875538826962085" lon="9.87469546768731"><ele>565.0</ele><time>2026-04-03T14:51:24.904Z</time></trkpt><trkpt lat="45.87561347584162" lon="9.874583866991461"><ele>565.0</ele><time>2026-04-03T14:51:25.904Z</time></trkpt><trkpt lat="45.87569943214588" lon="9.874471921326483"><ele>565.0</ele><time>2026-04-03T14:51:26.904Z</time></trkpt><trkpt lat="45.87577999942591" lon="9.874359875470168"><ele>565.0</ele><time>2026-04-03T14:51:27.904Z</time></trkpt><trkpt lat="45.875854577415396" lon="9.87426135093468"><ele>565.0</ele><time>2026-04-03T14:51:28.904Z</time></trkpt><trkpt lat="45.8759277614566" lon="9.874174605215797"><ele>565.0</ele><time>2026-04-03T14:51:29.904Z</time></trkpt><trkpt lat="45.87600744818816" lon="9.874122505665577"><ele>565.6</ele><time>2026-04-03T14:51:30.904Z</time></trkpt><trkpt lat="45.87609080491847" lon="9.874080070720408"><ele>566.2</ele><time>2026-04-03T14:51:31.903Z</time></trkpt><trkpt lat="45.87618613656282" lon="9.874013452869338"><ele>566.8</ele><time>2026-04-03T14:51:32.903Z</time></trkpt><trkpt lat="45.87629443133794" lon="9.873938188723546"><ele>567.4</ele><time>2026-04-03T14:51:33.903Z</time></trkpt><trkpt lat="45.8763929160123" lon="9.873859393394014"><ele>568.0</ele><time>2026-04-03T14:51:34.903Z</time></trkpt><trkpt lat="45.87649689340473" lon="9.873783788337736"><ele>568.0</ele><time>2026-04-03T14:51:35.903Z</time></trkpt><trkpt lat="45.876593767094114" lon="9.873720134496866"><ele>568.0</ele><time>2026-04-03T14:51:36.903Z</time></trkpt><trkpt lat="45.876684425265346" lon="9.873670679141666"><ele>568.0</ele><time>2026-04-03T14:51:37.903Z</time></trkpt><trkpt lat="45.87679219320972" lon="9.873584733308979"><ele>568.0</ele><time>2026-04-03T14:51:38.903Z</time></trkpt><trkpt lat="45.87689344395264" lon="9.873513798192572"><ele>568.0</ele><time>2026-04-03T14:51:39.903Z</time></trkpt><trkpt lat="45.87698363384988" lon="9.873427832850805"><ele>568.6</ele><time>2026-04-03T14:51:40.903Z</time></trkpt><trkpt lat="45.87707253747232" lon="9.873375049240238"><ele>569.1999999999999</ele><time>2026-04-03T14:51:41.903Z</time></trkpt><trkpt lat="45.877136951539754" lon="9.873284956675198"><ele>569.8</ele><time>2026-04-03T14:51:42.903Z</time></trkpt><trkpt lat="45.87718719191484" lon="9.873222011481806"><ele>570.4</ele><time>2026-04-03T14:51:43.903Z</time></trkpt><trkpt lat="45.877273951123755" lon="9.873123398549334"><ele>571.0</ele><time>2026-04-03T14:51:45.903Z</time></trkpt><trkpt lat="45.87736956049064" lon="9.873017139689077"><ele>571.0</ele><time>2026-04-03T14:51:47.903Z</time></trkpt><trkpt lat="45.87742053136404" lon="9.872930560033279"><ele>571.0</ele><time>2026-04-03T14:51:48.902Z</time></trkpt><trkpt lat="45.877472864831795" lon="9.8728045833365"><ele>571.0</ele><time>2026-04-03T14:51:49.902Z</time></trkpt><trkpt lat="45.87753058015475" lon="9.872741961056942"><ele>571.0</ele><time>2026-04-03T14:51:50.902Z</time></trkpt><trkpt lat="45.877576802974495" lon="9.872672717819379"><ele>571.0</ele><time>2026-04-03T14:51:52.902Z</time></trkpt><trkpt lat="45.877674874419576" lon="9.872626117847103"><ele>571.0</ele><time>2026-04-03T14:51:54.902Z</time></trkpt><trkpt lat="45.87775273371553" lon="9.872570623652571"><ele>571.75</ele><time>2026-04-03T14:51:56.902Z</time></trkpt><trkpt lat="45.8778430542695" lon="9.872556813879706"><ele>572.5</ele><time>2026-04-03T14:51:58.902Z</time></trkpt><trkpt lat="45.877898090501695" lon="9.872482548551687"><ele>573.25</ele><time>2026-04-03T14:52:00.902Z</time></trkpt><trkpt lat="45.87794943151279" lon="9.872338146355965"><ele>574.0</ele><time>2026-04-03T14:52:06.907Z</time></trkpt><trkpt lat="45.87813416231886" lon="9.87234127165367"><ele>574.0</ele><time>2026-04-03T14:52:29.907Z</time></trkpt><trkpt lat="45.87818560162672" lon="9.872394647054914"><ele>574.0</ele><time>2026-04-03T14:52:32.907Z</time></trkpt><trkpt lat="45.87818798188496" lon="9.872485925851832"><ele>574.0</ele><time>2026-04-03T14:52:34.907Z</time></trkpt><trkpt lat="45.878174292657825" lon="9.872585728568206"><ele>574.0</ele><time>2026-04-03T14:52:37.907Z</time></trkpt><trkpt lat="45.878227894206425" lon="9.872651684363223"><ele>574.0</ele><time>2026-04-03T14:52:40.906Z</time></trkpt><trkpt lat="45.87827768652374" lon="9.872747574544897"><ele>574.0</ele><time>2026-04-03T14:52:46.906Z</time></trkpt><trkpt lat="45.87831286818493" lon="9.872823608974093"><ele>574.0</ele><time>2026-04-03T14:52:50.906Z</time></trkpt><trkpt lat="45.87836126893159" lon="9.872889327516088"><ele>575.1666666666667</ele><time>2026-04-03T14:53:00.905Z</time></trkpt><trkpt lat="45.87843594903123" lon="9.872892659937788"><ele>576.3333333333334</ele><time>2026-04-03T14:53:07.905Z</time></trkpt><trkpt lat="45.87850274875849" lon="9.872829794178497"><ele>577.5</ele><time>2026-04-03T14:53:09.905Z</time></trkpt><trkpt lat="45.87858712019992" lon="9.872806710739255"><ele>578.6666666666666</ele><time>2026-04-03T14:53:11.904Z</time></trkpt><trkpt lat="45.87861000508551" lon="9.872660302806375"><ele>579.8333333333333</ele><time>2026-04-03T14:53:14.904Z</time></trkpt><trkpt lat="45.87864527537395" lon="9.87254743070702"><ele>581.0</ele><time>2026-04-03T14:53:15.904Z</time></trkpt><trkpt lat="45.878702475524506" lon="9.872432405955237"><ele>581.0</ele><time>2026-04-03T14:53:17.904Z</time></trkpt><trkpt lat="45.87877877989548" lon="9.872358291579415"><ele>581.0</ele><time>2026-04-03T14:53:19.904Z</time></trkpt><trkpt lat="45.87882973334402" lon="9.87229592981497"><ele>581.0</ele><time>2026-04-03T14:53:23.904Z</time></trkpt><trkpt lat="45.87875918532038" lon="9.872536956152123"><ele>581.0</ele><time>2026-04-03T14:53:31.903Z</time></trkpt><trkpt lat="45.87870289105741" lon="9.872689804623292"><ele>584.25</ele><time>2026-04-03T14:53:32.903Z</time></trkpt><trkpt lat="45.878659843719305" lon="9.872840316468618"><ele>587.5</ele><time>2026-04-03T14:53:33.903Z</time></trkpt><trkpt lat="45.87858733838639" lon="9.873050203235614"><ele>590.75</ele><time>2026-04-03T14:53:34.903Z</time></trkpt><trkpt lat="45.878534507205835" lon="9.873245746009642"><ele>594.0</ele><time>2026-04-03T14:53:35.903Z</time></trkpt><trkpt lat="45.87850004521295" lon="9.873395330946378"><ele>598.0</ele><time>2026-04-03T14:53:36.903Z</time></trkpt><trkpt lat="45.878447842796575" lon="9.87350798945044"><ele>602.0</ele><time>2026-04-03T14:53:37.903Z</time></trkpt><trkpt lat="45.87838833647002" lon="9.873584699288307"><ele>606.0</ele><time>2026-04-03T14:53:38.903Z</time></trkpt><trkpt lat="45.8783219143187" lon="9.87365871624492"><ele>610.0</ele><time>2026-04-03T14:53:39.903Z</time></trkpt><trkpt lat="45.87825091351602" lon="9.87376559741595"><ele>614.0</ele><time>2026-04-03T14:53:40.903Z</time></trkpt><trkpt lat="45.87823221451691" lon="9.87392989371231"><ele>609.8</ele><time>2026-04-03T14:53:41.903Z</time></trkpt><trkpt lat="45.87816249593553" lon="9.874037925615335"><ele>605.5999999999999</ele><time>2026-04-03T14:53:42.903Z</time></trkpt><trkpt lat="45.878090966058274" lon="9.874113221268422"><ele>601.4</ele><time>2026-04-03T14:53:43.903Z</time></trkpt><trkpt lat="45.87802159124816" lon="9.874276245973354"><ele>597.1999999999999</ele><time>2026-04-03T14:53:44.902Z</time></trkpt><trkpt lat="45.87795573891117" lon="9.874395132541494"><ele>593.0</ele><time>2026-04-03T14:53:45.902Z</time></trkpt><trkpt lat="45.87787338305963" lon="9.874599280751125"><ele>593.0</ele><time>2026-04-03T14:53:46.902Z</time></trkpt><trkpt lat="45.87778776523087" lon="9.874821697063771"><ele>593.0</ele><time>2026-04-03T14:53:47.902Z</time></trkpt><trkpt lat="45.87769756991879" lon="9.875017355497986"><ele>593.0</ele><time>2026-04-03T14:53:48.902Z</time></trkpt><trkpt lat="45.8776301007596" lon="9.875207266101118"><ele>588.0</ele><time>2026-04-03T14:53:49.902Z</time></trkpt><trkpt lat="45.877550137682675" lon="9.875392643827839"><ele>583.0</ele><time>2026-04-03T14:53:50.902Z</time></trkpt><trkpt lat="45.87749540234172" lon="9.875590421278092"><ele>578.0</ele><time>2026-04-03T14:53:51.902Z</time></trkpt><trkpt lat="45.87749199230334" lon="9.875817484767248"><ele>586.25</ele><time>2026-04-03T14:53:52.902Z</time></trkpt><trkpt lat="45.87740051874455" lon="9.875990962176303"><ele>594.5</ele><time>2026-04-03T14:53:53.902Z</time></trkpt><trkpt lat="45.87730046355112" lon="9.876171412945927"><ele>602.75</ele><time>2026-04-03T14:53:54.902Z</time></trkpt><trkpt lat="45.87724810824469" lon="9.876310181780264"><ele>611.0</ele><time>2026-04-03T14:53:55.902Z</time></trkpt><trkpt lat="45.87716677432542" lon="9.876449830333582"><ele>611.0</ele><time>2026-04-03T14:53:56.902Z</time></trkpt><trkpt lat="45.8770899144357" lon="9.87658840694171"><ele>611.0</ele><time>2026-04-03T14:53:57.902Z</time></trkpt><trkpt lat="45.876978110531994" lon="9.876696338142807"><ele>611.0</ele><time>2026-04-03T14:53:58.902Z</time></trkpt><trkpt lat="45.87691051855093" lon="9.876874002471055"><ele>611.0</ele><time>2026-04-03T14:53:59.902Z</time></trkpt><trkpt lat="45.876826707802074" lon="9.877045264635681"><ele>608.6</ele><time>2026-04-03T14:54:00.902Z</time></trkpt><trkpt lat="45.87674838824746" lon="9.877200994602026"><ele>606.2</ele><time>2026-04-03T14:54:01.901Z</time></trkpt><trkpt lat="45.87668714115884" lon="9.877308425730838"><ele>603.8</ele><time>2026-04-03T14:54:02.901Z</time></trkpt><trkpt lat="45.87662287079508" lon="9.877379519500513"><ele>601.4</ele><time>2026-04-03T14:54:03.901Z</time></trkpt><trkpt lat="45.876573600261544" lon="9.87746539938248"><ele>599.0</ele><time>2026-04-03T14:54:05.901Z</time></trkpt><trkpt lat="45.87649377181332" lon="9.87765207942585"><ele>599.0</ele><time>2026-04-03T14:54:07.907Z</time></trkpt><trkpt lat="45.876529529213855" lon="9.87774397241632"><ele>599.0</ele><time>2026-04-03T14:54:08.907Z</time></trkpt><trkpt lat="45.876600077624445" lon="9.877947760165766"><ele>599.0</ele><time>2026-04-03T14:54:10.907Z</time></trkpt><trkpt lat="45.876661439734804" lon="9.878090489908743"><ele>599.0</ele><time>2026-04-03T14:54:11.907Z</time></trkpt><trkpt lat="45.87673449346265" lon="9.878208199960076"><ele>607.5</ele><time>2026-04-03T14:54:12.907Z</time></trkpt><trkpt lat="45.87677507022835" lon="9.878372083117844"><ele>616.0</ele><time>2026-04-03T14:54:13.907Z</time></trkpt><trkpt lat="45.87681193353315" lon="9.87853407725806"><ele>624.5</ele><time>2026-04-03T14:54:14.907Z</time></trkpt><trkpt lat="45.876859639345405" lon="9.87870280082318"><ele>633.0</ele><time>2026-04-03T14:54:15.907Z</time></trkpt><trkpt lat="45.87688103454435" lon="9.87888862469918"><ele>633.0</ele><time>2026-04-03T14:54:16.907Z</time></trkpt><trkpt lat="45.87689765885832" lon="9.879098018432641"><ele>633.0</ele><time>2026-04-03T14:54:17.907Z</time></trkpt><trkpt lat="45.876900741421295" lon="9.879288287671564"><ele>633.0</ele><time>2026-04-03T14:54:18.907Z</time></trkpt><trkpt lat="45.87689657071993" lon="9.879453734361052"><ele>633.0</ele><time>2026-04-03T14:54:19.907Z</time></trkpt><trkpt lat="45.87690449466295" lon="9.879602001849273"><ele>631.6</ele><time>2026-04-03T14:54:20.907Z</time></trkpt><trkpt lat="45.87694115424154" lon="9.879755564525913"><ele>630.1999999999999</ele><time>2026-04-03T14:54:21.907Z</time></trkpt><trkpt lat="45.87698692757469" lon="9.879904854923653"><ele>628.8</ele><time>2026-04-03T14:54:22.907Z</time></trkpt><trkpt lat="45.877034896347645" lon="9.88005478070118"><ele>627.4</ele><time>2026-04-03T14:54:23.907Z</time></trkpt><trkpt lat="45.877058621186976" lon="9.880195744181082"><ele>626.0</ele><time>2026-04-03T14:54:24.907Z</time></trkpt><trkpt lat="45.87706239634567" lon="9.880348478397941"><ele>625.8</ele><time>2026-04-03T14:54:25.907Z</time></trkpt><trkpt lat="45.87708898405907" lon="9.880485322647504"><ele>625.6</ele><time>2026-04-03T14:54:26.907Z</time></trkpt><trkpt lat="45.87712050300063" lon="9.880635561181121"><ele>625.4</ele><time>2026-04-03T14:54:27.907Z</time></trkpt><trkpt lat="45.87717196498929" lon="9.880756140859962"><ele>625.2</ele><time>2026-04-03T14:54:28.907Z</time></trkpt><trkpt lat="45.877222888996705" lon="9.880853132545909"><ele>625.0</ele><time>2026-04-03T14:54:29.907Z</time></trkpt><trkpt lat="45.87721776876709" lon="9.88096889522667"><ele>628.8</ele><time>2026-04-03T14:54:30.907Z</time></trkpt><trkpt lat="45.87719022318852" lon="9.881057226108702"><ele>632.6</ele><time>2026-04-03T14:54:31.907Z</time></trkpt><trkpt lat="45.87709814303105" lon="9.881111656731091"><ele>636.4000000000001</ele><time>2026-04-03T14:54:32.907Z</time></trkpt><trkpt lat="45.877010968308404" lon="9.88117708748125"><ele>640.2</ele><time>2026-04-03T14:54:33.906Z</time></trkpt><trkpt lat="45.87692611918331" lon="9.881260749168257"><ele>644.0</ele><time>2026-04-03T14:54:34.906Z</time></trkpt><trkpt lat="45.87684088940058" lon="9.881359195328008"><ele>641.0</ele><time>2026-04-03T14:54:35.906Z</time></trkpt><trkpt lat="45.876731845456284" lon="9.88144005937541"><ele>638.0</ele><time>2026-04-03T14:54:36.906Z</time></trkpt><trkpt lat="45.87664513988773" lon="9.881545257965799"><ele>635.0</ele><time>2026-04-03T14:54:37.906Z</time></trkpt><trkpt lat="45.87654664299649" lon="9.881656152189183"><ele>632.0</ele><time>2026-04-03T14:54:38.906Z</time></trkpt><trkpt lat="45.876453276804895" lon="9.881758726862804"><ele>635.6666666666666</ele><time>2026-04-03T14:54:39.906Z</time></trkpt><trkpt lat="45.87639109185621" lon="9.881882339529847"><ele>639.3333333333333</ele><time>2026-04-03T14:54:40.906Z</time></trkpt><trkpt lat="45.87633035341367" lon="9.881979423493084"><ele>643.0</ele><time>2026-04-03T14:54:41.906Z</time></trkpt><trkpt lat="45.87627387663147" lon="9.882072308012951"><ele>646.6666666666666</ele><time>2026-04-03T14:54:42.906Z</time></trkpt><trkpt lat="45.87622186376232" lon="9.882159865739853"><ele>650.3333333333334</ele><time>2026-04-03T14:54:43.906Z</time></trkpt><trkpt lat="45.87616254994497" lon="9.882230790180936"><ele>654.0</ele><time>2026-04-03T14:54:44.906Z</time></trkpt><trkpt lat="45.87609832490672" lon="9.882357361098878"><ele>654.0</ele><time>2026-04-03T14:54:46.906Z</time></trkpt><trkpt lat="45.87605663639942" lon="9.882531258762125"><ele>654.0</ele><time>2026-04-03T14:54:48.906Z</time></trkpt><trkpt lat="45.87605867687935" lon="9.882698270497446"><ele>654.0</ele><time>2026-04-03T14:54:50.905Z</time></trkpt><trkpt lat="45.876079836969545" lon="9.882796611246665"><ele>654.0</ele><time>2026-04-03T14:54:51.905Z</time></trkpt><trkpt lat="45.876098943125214" lon="9.88293037305223"><ele>654.0</ele><time>2026-04-03T14:54:52.905Z</time></trkpt><trkpt lat="45.87612274803475" lon="9.883076180938076"><ele>653.75</ele><time>2026-04-03T14:54:53.905Z</time></trkpt><trkpt lat="45.87613956033945" lon="9.883245344948955"><ele>653.5</ele><time>2026-04-03T14:54:54.905Z</time></trkpt><trkpt lat="45.876124422938204" lon="9.883417498319204"><ele>653.25</ele><time>2026-04-03T14:54:55.905Z</time></trkpt><trkpt lat="45.87609148634527" lon="9.88356428496883"><ele>653.0</ele><time>2026-04-03T14:54:56.905Z</time></trkpt><trkpt lat="45.87604677085057" lon="9.883699249600898"><ele>652.5999999999999</ele><time>2026-04-03T14:54:57.905Z</time></trkpt><trkpt lat="45.87599925704093" lon="9.883798572118344"><ele>652.1999999999999</ele><time>2026-04-03T14:54:58.905Z</time></trkpt><trkpt lat="45.875956791782336" lon="9.883882980830238"><ele>651.8</ele><time>2026-04-03T14:54:59.905Z</time></trkpt><trkpt lat="45.87601795638122" lon="9.88397591719523"><ele>651.4</ele><time>2026-04-03T14:55:04.905Z</time></trkpt><trkpt lat="45.8760954710272" lon="9.88391695088406"><ele>651.0</ele><time>2026-04-03T14:55:05.905Z</time></trkpt><trkpt lat="45.876234785853484" lon="9.88388679886945"><ele>651.0</ele><time>2026-04-03T14:55:07.904Z</time></trkpt><trkpt lat="45.876348946482324" lon="9.883867520464364"><ele>651.0</ele><time>2026-04-03T14:55:08.904Z</time></trkpt><trkpt lat="45.87644692174517" lon="9.883836920875236"><ele>651.0</ele><time>2026-04-03T14:55:09.904Z</time></trkpt><trkpt lat="45.876581977227524" lon="9.883820240559448"><ele>651.0</ele><time>2026-04-03T14:55:10.904Z</time></trkpt><trkpt lat="45.87670072121253" lon="9.883806688106002"><ele>655.8</ele><time>2026-04-03T14:55:11.904Z</time></trkpt><trkpt lat="45.876803497335565" lon="9.883780183836581"><ele>660.5999999999999</ele><time>2026-04-03T14:55:12.904Z</time></trkpt><trkpt lat="45.87688553856296" lon="9.883758317646533"><ele>665.4</ele><time>2026-04-03T14:55:13.904Z</time></trkpt><trkpt lat="45.87696308780795" lon="9.883737648693455"><ele>670.2</ele><time>2026-04-03T14:55:14.904Z</time></trkpt><trkpt lat="45.87703690040206" lon="9.883846995094439"><ele>675.0</ele><time>2026-04-03T14:55:15.904Z</time></trkpt><trkpt lat="45.877164043117375" lon="9.88381065516924"><ele>675.0</ele><time>2026-04-03T14:55:17.904Z</time></trkpt><trkpt lat="45.877248519246564" lon="9.883797240736286"><ele>675.0</ele><time>2026-04-03T14:55:18.904Z</time></trkpt><trkpt lat="45.87734352914467" lon="9.883797132980725"><ele>675.0</ele><time>2026-04-03T14:55:19.904Z</time></trkpt><trkpt lat="45.877443882068874" lon="9.883808852924787"><ele>675.0</ele><time>2026-04-03T14:55:20.904Z</time></trkpt><trkpt lat="45.87754273636696" lon="9.883827056750254"><ele>675.0</ele><time>2026-04-03T14:55:21.904Z</time></trkpt><trkpt lat="45.87765979575143" lon="9.883850526079867"><ele>678.4</ele><time>2026-04-03T14:55:22.904Z</time></trkpt><trkpt lat="45.87776229872865" lon="9.883855395540815"><ele>681.8</ele><time>2026-04-03T14:55:23.903Z</time></trkpt><trkpt lat="45.87784982481921" lon="9.883866647982805"><ele>685.2</ele><time>2026-04-03T14:55:24.903Z</time></trkpt><trkpt lat="45.87790926222469" lon="9.883962033393937"><ele>688.6</ele><time>2026-04-03T14:55:27.903Z</time></trkpt><trkpt lat="45.87801358139887" lon="9.884035336816149"><ele>692.0</ele><time>2026-04-03T14:55:29.903Z</time></trkpt><trkpt lat="45.87807954089808" lon="9.884128051845847"><ele>692.0</ele><time>2026-04-03T14:55:30.903Z</time></trkpt><trkpt lat="45.87813687902458" lon="9.884209158582694"><ele>692.0</ele><time>2026-04-03T14:55:31.903Z</time></trkpt><trkpt lat="45.87816267479564" lon="9.884339165017964"><ele>692.0</ele><time>2026-04-03T14:55:33.903Z</time></trkpt><trkpt lat="45.87808869321174" lon="9.884434779600577"><ele>692.0</ele><time>2026-04-03T14:55:35.903Z</time></trkpt><trkpt lat="45.878033857028576" lon="9.88455519531859"><ele>692.0</ele><time>2026-04-03T14:55:37.903Z</time></trkpt><trkpt lat="45.87802712731191" lon="9.884660562896105"><ele>692.0</ele><time>2026-04-03T14:55:38.903Z</time></trkpt><trkpt lat="45.87802056049964" lon="9.88475197418611"><ele>692.6666666666666</ele><time>2026-04-03T14:55:39.903Z</time></trkpt><trkpt lat="45.878011212301274" lon="9.884862275346363"><ele>693.3333333333333</ele><time>2026-04-03T14:55:40.902Z</time></trkpt><trkpt lat="45.878006366657466" lon="9.884996439383515"><ele>694.0</ele><time>2026-04-03T14:55:41.902Z</time></trkpt><trkpt lat="45.87800885224471" lon="9.885142867975677"><ele>694.6666666666666</ele><time>2026-04-03T14:55:42.902Z</time></trkpt><trkpt lat="45.87800941276201" lon="9.885264969410233"><ele>695.3333333333334</ele><time>2026-04-03T14:55:43.902Z</time></trkpt><trkpt lat="45.87801359352271" lon="9.88537623641464"><ele>696.0</ele><time>2026-04-03T14:55:44.902Z</time></trkpt><trkpt lat="45.87801305602694" lon="9.885467498947305"><ele>696.5</ele><time>2026-04-03T14:55:45.902Z</time></trkpt><trkpt lat="45.87795537545707" lon="9.885598595809238"><ele>697.0</ele><time>2026-04-03T14:55:47.902Z</time></trkpt><trkpt lat="45.87785119295487" lon="9.885637988257562"><ele>697.5</ele><time>2026-04-03T14:55:49.902Z</time></trkpt><trkpt lat="45.87781559220241" lon="9.885724160425895"><ele>698.0</ele><time>2026-04-03T14:55:53.902Z</time></trkpt><trkpt lat="45.87782933752625" lon="9.88582893491745"><ele>698.5</ele><time>2026-04-03T14:55:56.901Z</time></trkpt><trkpt lat="45.87787720206006" lon="9.885907833010634"><ele>699.0</ele><time>2026-04-03T14:56:02.901Z</time></trkpt><trkpt lat="45.87794129978678" lon="9.88594238455119"><ele>701.6</ele><time>2026-04-03T14:56:06.901Z</time></trkpt><trkpt lat="45.87800321575988" lon="9.886010563393015"><ele>704.2</ele><time>2026-04-03T14:56:09.901Z</time></trkpt><trkpt lat="45.87807023261571" lon="9.886090581268636"><ele>706.8000000000001</ele><time>2026-04-03T14:56:13.906Z</time></trkpt><trkpt lat="45.87814440268147" lon="9.88617060480325"><ele>709.4000000000001</ele><time>2026-04-03T14:56:16.906Z</time></trkpt><trkpt lat="45.87820945684544" lon="9.886254080985909"><ele>712.0</ele><time>2026-04-03T14:56:18.907Z</time></trkpt><trkpt lat="45.878310444355016" lon="9.886311091939604"><ele>712.0</ele><time>2026-04-03T14:56:21.906Z</time></trkpt><trkpt lat="45.87837000775107" lon="9.886394963550092"><ele>712.0</ele><time>2026-04-03T14:56:24.907Z</time></trkpt><trkpt lat="45.87844539634474" lon="9.886454303435045"><ele>712.0</ele><time>2026-04-03T14:56:27.906Z</time></trkpt><trkpt lat="45.878520607979944" lon="9.886521509916973"><ele>712.0</ele><time>2026-04-03T14:56:30.906Z</time></trkpt><trkpt lat="45.87859449168145" lon="9.886575740611494"><ele>712.0</ele><time>2026-04-03T14:56:32.906Z</time></trkpt><trkpt lat="45.87869719337334" lon="9.886640533658491"><ele>715.3333333333334</ele><time>2026-04-03T14:56:35.906Z</time></trkpt><trkpt lat="45.87877153275263" lon="9.886679904585076"><ele>718.6666666666667</ele><time>2026-04-03T14:56:36.906Z</time></trkpt><trkpt lat="45.87883996938889" lon="9.886692941558817"><ele>722.0</ele><time>2026-04-03T14:56:37.906Z</time></trkpt><trkpt lat="45.878900221900764" lon="9.886737709554836"><ele>725.3333333333334</ele><time>2026-04-03T14:56:38.906Z</time></trkpt><trkpt lat="45.87896573094324" lon="9.886780964843403"><ele>728.6666666666666</ele><time>2026-04-03T14:56:40.905Z</time></trkpt><trkpt lat="45.87906326465463" lon="9.886869908631372"><ele>732.0</ele><time>2026-04-03T14:56:42.905Z</time></trkpt><trkpt lat="45.879130256698325" lon="9.886935739383564"><ele>733.8333333333334</ele><time>2026-04-03T14:56:44.905Z</time></trkpt><trkpt lat="45.879185678420136" lon="9.887008835383115"><ele>735.6666666666666</ele><time>2026-04-03T14:56:46.905Z</time></trkpt><trkpt lat="45.87923401989774" lon="9.887073204103055"><ele>737.5</ele><time>2026-04-03T14:56:48.905Z</time></trkpt><trkpt lat="45.87929874049625" lon="9.887122392311634"><ele>739.3333333333333</ele><time>2026-04-03T14:56:50.905Z</time></trkpt><trkpt lat="45.879355552358966" lon="9.88719303093522"><ele>741.1666666666666</ele><time>2026-04-03T14:56:52.905Z</time></trkpt><trkpt lat="45.87942228376719" lon="9.887324706005014"><ele>743.0</ele><time>2026-04-03T14:56:55.905Z</time></trkpt><trkpt lat="45.87948444319277" lon="9.887411474475444"><ele>745.0</ele><time>2026-04-03T14:56:57.904Z</time></trkpt><trkpt lat="45.879533101616126" lon="9.887504558922265"><ele>747.0</ele><time>2026-04-03T14:56:59.904Z</time></trkpt><trkpt lat="45.87957829153923" lon="9.88760768153018"><ele>749.0</ele><time>2026-04-03T14:57:01.904Z</time></trkpt><trkpt lat="45.87962865365664" lon="9.887732329718583"><ele>751.0</ele><time>2026-04-03T14:57:04.904Z</time></trkpt><trkpt lat="45.879682194891366" lon="9.887863176400968"><ele>753.0</ele><time>2026-04-03T14:57:06.904Z</time></trkpt><trkpt lat="45.879709622891355" lon="9.88794775663785"><ele>755.0</ele><time>2026-04-03T14:57:08.904Z</time></trkpt><trkpt lat="45.87976568620329" lon="9.888040111053076"><ele>755.3333333333333</ele><time>2026-04-03T14:57:10.904Z</time></trkpt><trkpt lat="45.879799368866685" lon="9.888121556943071"><ele>755.6666666666666</ele><time>2026-04-03T14:57:11.904Z</time></trkpt><trkpt lat="45.879826589894336" lon="9.888258813527777"><ele>756.0</ele><time>2026-04-03T14:57:13.903Z</time></trkpt><trkpt lat="45.879847209957354" lon="9.888388354906484"><ele>756.3333333333334</ele><time>2026-04-03T14:57:15.903Z</time></trkpt><trkpt lat="45.87986427057351" lon="9.88848228120314"><ele>756.6666666666667</ele><time>2026-04-03T14:57:16.903Z</time></trkpt><trkpt lat="45.87990290973903" lon="9.888605981571528"><ele>757.0</ele><time>2026-04-03T14:57:18.903Z</time></trkpt><trkpt lat="45.8798902227478" lon="9.888697771099876"><ele>753.5</ele><time>2026-04-03T14:57:19.903Z</time></trkpt><trkpt lat="45.87992683152803" lon="9.888887928791089"><ele>750.0</ele><time>2026-04-03T14:57:21.903Z</time></trkpt><trkpt lat="45.880119079288534" lon="9.889373972615108"><ele>750.0</ele><time>2026-04-03T14:57:22.903Z</time></trkpt><trkpt lat="45.88014417984591" lon="9.889529431596563"><ele>750.0</ele><time>2026-04-03T14:57:23.903Z</time></trkpt><trkpt lat="45.88016217713234" lon="9.889689134697461"><ele>750.0</ele><time>2026-04-03T14:57:24.903Z</time></trkpt><trkpt lat="45.88020584593686" lon="9.889849041418021"><ele>750.0</ele><time>2026-04-03T14:57:25.903Z</time></trkpt><trkpt lat="45.880241504114885" lon="9.889995244545515"><ele>745.2</ele><time>2026-04-03T14:57:26.903Z</time></trkpt><trkpt lat="45.880268219883085" lon="9.890161170298404"><ele>740.4</ele><time>2026-04-03T14:57:27.903Z</time></trkpt><trkpt lat="45.880283283509044" lon="9.890282220644895"><ele>735.5999999999999</ele><time>2026-04-03T14:57:28.903Z</time></trkpt><trkpt lat="45.88031452702306" lon="9.89040460317529"><ele>730.8</ele><time>2026-04-03T14:57:29.902Z</time></trkpt><trkpt lat="45.88035553667376" lon="9.890549120362063"><ele>726.0</ele><time>2026-04-03T14:57:30.902Z</time></trkpt><trkpt lat="45.880400580256435" lon="9.890685090251976"><ele>726.0</ele><time>2026-04-03T14:57:31.902Z</time></trkpt><trkpt lat="45.880429362152924" lon="9.890828620172258"><ele>726.0</ele><time>2026-04-03T14:57:32.902Z</time></trkpt><trkpt lat="45.88045558853664" lon="9.890954289350905"><ele>726.0</ele><time>2026-04-03T14:57:33.902Z</time></trkpt><trkpt lat="45.88048945064557" lon="9.89105011042169"><ele>726.0</ele><time>2026-04-03T14:57:34.902Z</time></trkpt><trkpt lat="45.88052081648973" lon="9.891138475752188"><ele>726.0</ele><time>2026-04-03T14:57:35.902Z</time></trkpt><trkpt lat="45.88058591401451" lon="9.891244702813315"><ele>726.0</ele><time>2026-04-03T14:57:36.902Z</time></trkpt><trkpt lat="45.88065308325093" lon="9.8913248010018"><ele>721.1999999999999</ele><time>2026-04-03T14:57:37.902Z</time></trkpt><trkpt lat="45.880737119714794" lon="9.891385515922847"><ele>716.4</ele><time>2026-04-03T14:57:38.902Z</time></trkpt><trkpt lat="45.88080728209048" lon="9.891433560520875"><ele>711.6</ele><time>2026-04-03T14:57:39.902Z</time></trkpt><trkpt lat="45.88091364746755" lon="9.891499438765855"><ele>706.8</ele><time>2026-04-03T14:57:41.902Z</time></trkpt><trkpt lat="45.88100953594445" lon="9.891562842276349"><ele>702.0</ele><time>2026-04-03T14:57:43.902Z</time></trkpt><trkpt lat="45.88109752858674" lon="9.891579920023787"><ele>699.25</ele><time>2026-04-03T14:57:44.902Z</time></trkpt><trkpt lat="45.881195754148145" lon="9.891505147160101"><ele>696.5</ele><time>2026-04-03T14:57:45.902Z</time></trkpt><trkpt lat="45.88131898843776" lon="9.891478908784242"><ele>693.75</ele><time>2026-04-03T14:57:46.901Z</time></trkpt><trkpt lat="45.881427168715526" lon="9.891450921115691"><ele>691.0</ele><time>2026-04-03T14:57:47.901Z</time></trkpt><trkpt lat="45.881549583983336" lon="9.891407363419624"><ele>691.0</ele><time>2026-04-03T14:57:48.901Z</time></trkpt><trkpt lat="45.88164994660364" lon="9.891350138290607"><ele>691.0</ele><time>2026-04-03T14:57:49.901Z</time></trkpt><trkpt lat="45.88173769312761" lon="9.891319186982702"><ele>691.0</ele><time>2026-04-03T14:57:50.901Z</time></trkpt><trkpt lat="45.8818276405487" lon="9.891301627139747"><ele>691.0</ele><time>2026-04-03T14:57:51.901Z</time></trkpt><trkpt lat="45.881895104" lon="9.891302990598506"><ele>691.0</ele><time>2026-04-03T14:57:52.901Z</time></trkpt><trkpt lat="45.88198315970549" lon="9.891342806875969"><ele>691.0</ele><time>2026-04-03T14:57:54.901Z</time></trkpt><trkpt lat="45.88207729102007" lon="9.89139751143145"><ele>691.5999999999999</ele><time>2026-04-03T14:57:55.901Z</time></trkpt><trkpt lat="45.88218459183861" lon="9.891418410320664"><ele>692.2</ele><time>2026-04-03T14:57:56.901Z</time></trkpt><trkpt lat="45.88227886738853" lon="9.891424571666834"><ele>692.8</ele><time>2026-04-03T14:57:57.901Z</time></trkpt><trkpt lat="45.88235957421214" lon="9.891453606625788"><ele>693.4000000000001</ele><time>2026-04-03T14:57:58.901Z</time></trkpt><trkpt lat="45.88245156504697" lon="9.8915113967342"><ele>694.0</ele><time>2026-04-03T14:57:59.901Z</time></trkpt><trkpt lat="45.88264889052207" lon="9.891606878284575"><ele>697.0</ele><time>2026-04-03T14:58:01.901Z</time></trkpt><trkpt lat="45.88274668356304" lon="9.891590625373416"><ele>700.0</ele><time>2026-04-03T14:58:02.9Z</time></trkpt><trkpt lat="45.88283768667643" lon="9.891578011503045"><ele>703.0</ele><time>2026-04-03T14:58:04.9Z</time></trkpt><trkpt lat="45.88281400734725" lon="9.89146333158427"><ele>706.0</ele><time>2026-04-03T14:58:13.9Z</time></trkpt><trkpt lat="45.882761390403445" lon="9.89136937622051"><ele>709.0</ele><time>2026-04-03T14:58:16.9Z</time></trkpt><trkpt lat="45.88266279410996" lon="9.891258610763892"><ele>707.2</ele><time>2026-04-03T14:58:18.9Z</time></trkpt><trkpt lat="45.882569949723845" lon="9.891292325852662"><ele>705.4000000000001</ele><time>2026-04-03T14:58:19.905Z</time></trkpt><trkpt lat="45.88249190759693" lon="9.89139099334429"><ele>703.6</ele><time>2026-04-03T14:58:20.905Z</time></trkpt><trkpt lat="45.8824151380622" lon="9.89147329877832"><ele>701.8</ele><time>2026-04-03T14:58:21.905Z</time></trkpt><trkpt lat="45.882351504630044" lon="9.891611604343503"><ele>700.0</ele><time>2026-04-03T14:58:22.906Z</time></trkpt><trkpt lat="45.882275700657644" lon="9.891768728496316"><ele>700.0</ele><time>2026-04-03T14:58:23.906Z</time></trkpt><trkpt lat="45.88217453711837" lon="9.891833212536872"><ele>700.0</ele><time>2026-04-03T14:58:24.906Z</time></trkpt><trkpt lat="45.88204126300512" lon="9.89192607857668"><ele>700.0</ele><time>2026-04-03T14:58:25.905Z</time></trkpt><trkpt lat="45.881900710048164" lon="9.892123592249987"><ele>700.0</ele><time>2026-04-03T14:58:26.906Z</time></trkpt><trkpt lat="45.881827184658746" lon="9.892282387341039"><ele>700.0</ele><time>2026-04-03T14:58:27.906Z</time></trkpt><trkpt lat="45.88176692997274" lon="9.892398448803535"><ele>700.0</ele><time>2026-04-03T14:58:28.905Z</time></trkpt><trkpt lat="45.88176304388026" lon="9.892537015717764"><ele>700.0</ele><time>2026-04-03T14:58:29.906Z</time></trkpt><trkpt lat="45.88173779875001" lon="9.892636854116162"><ele>700.0</ele><time>2026-04-03T14:58:30.905Z</time></trkpt><trkpt lat="45.881717192742556" lon="9.892752302775637"><ele>696.0</ele><time>2026-04-03T14:58:31.906Z</time></trkpt><trkpt lat="45.881684518958934" lon="9.892877630238878"><ele>692.0</ele><time>2026-04-03T14:58:32.906Z</time></trkpt><trkpt lat="45.881658999390645" lon="9.893027997169867"><ele>688.0</ele><time>2026-04-03T14:58:33.906Z</time></trkpt><trkpt lat="45.88164086478398" lon="9.893160667899345"><ele>684.0</ele><time>2026-04-03T14:58:34.906Z</time></trkpt><trkpt lat="45.88160623394339" lon="9.893269583941107"><ele>680.0</ele><time>2026-04-03T14:58:35.906Z</time></trkpt><trkpt lat="45.881568905341815" lon="9.893351838507447"><ele>676.0</ele><time>2026-04-03T14:58:36.906Z</time></trkpt><trkpt lat="45.88149886197162" lon="9.893458057953554"><ele>676.0</ele><time>2026-04-03T14:58:38.906Z</time></trkpt><trkpt lat="45.881464453726494" lon="9.893548451948678"><ele>676.0</ele><time>2026-04-03T14:58:39.906Z</time></trkpt><trkpt lat="45.88142216025376" lon="9.893680415804779"><ele>676.0</ele><time>2026-04-03T14:58:40.906Z</time></trkpt><trkpt lat="45.881389471644226" lon="9.89376151982424"><ele>676.0</ele><time>2026-04-03T14:58:42.906Z</time></trkpt><trkpt lat="45.88134978056187" lon="9.893885223107132"><ele>676.0</ele><time>2026-04-03T14:58:44.905Z</time></trkpt><trkpt lat="45.88131473657906" lon="9.8941712164243"><ele>679.0</ele><time>2026-04-03T14:58:48.905Z</time></trkpt><trkpt lat="45.88130533824063" lon="9.894423268085824"><ele>682.0</ele><time>2026-04-03T14:58:49.905Z</time></trkpt><trkpt lat="45.88125453961763" lon="9.894694112892191"><ele>685.0</ele><time>2026-04-03T14:58:50.905Z</time></trkpt><trkpt lat="45.88119231255348" lon="9.894907026645622"><ele>685.0</ele><time>2026-04-03T14:58:51.905Z</time></trkpt><trkpt lat="45.88115988852407" lon="9.895072111184154"><ele>685.0</ele><time>2026-04-03T14:58:52.905Z</time></trkpt><trkpt lat="45.88110507433843" lon="9.89523847959471"><ele>685.0</ele><time>2026-04-03T14:58:54.905Z</time></trkpt><trkpt lat="45.88108430470754" lon="9.895346773172493"><ele>685.0</ele><time>2026-04-03T14:58:55.905Z</time></trkpt><trkpt lat="45.8810697692219" lon="9.895450752425681"><ele>685.0</ele><time>2026-04-03T14:58:56.905Z</time></trkpt><trkpt lat="45.88103178553701" lon="9.895586513291278"><ele>683.4</ele><time>2026-04-03T14:58:57.905Z</time></trkpt><trkpt lat="45.881018694203675" lon="9.895700239453854"><ele>681.8</ele><time>2026-04-03T14:58:58.905Z</time></trkpt><trkpt lat="45.881014902859285" lon="9.895802829086806"><ele>680.2</ele><time>2026-04-03T14:58:59.905Z</time></trkpt><trkpt lat="45.88099550274098" lon="9.895989494014394"><ele>678.6</ele><time>2026-04-03T14:59:01.904Z</time></trkpt><trkpt lat="45.88095963882031" lon="9.89613264740993"><ele>677.0</ele><time>2026-04-03T14:59:02.904Z</time></trkpt><trkpt lat="45.88093184476048" lon="9.89624612301842"><ele>667.2</ele><time>2026-04-03T14:59:03.904Z</time></trkpt><trkpt lat="45.880907879630215" lon="9.896346209680926"><ele>657.4000000000001</ele><time>2026-04-03T14:59:04.904Z</time></trkpt><trkpt lat="45.88088758738897" lon="9.896501474619011"><ele>647.5999999999999</ele><time>2026-04-03T14:59:06.904Z</time></trkpt><trkpt lat="45.88083954153259" lon="9.89666960078741"><ele>637.8</ele><time>2026-04-03T14:59:08.904Z</time></trkpt><trkpt lat="45.88081574771884" lon="9.89680160080075"><ele>628.0</ele><time>2026-04-03T14:59:09.904Z</time></trkpt><trkpt lat="45.880795634630665" lon="9.896919564080207"><ele>627.6</ele><time>2026-04-03T14:59:10.904Z</time></trkpt><trkpt lat="45.880769706631945" lon="9.897011847423444"><ele>627.1999999999999</ele><time>2026-04-03T14:59:11.904Z</time></trkpt><trkpt lat="45.880752797411" lon="9.897141731681062"><ele>626.8</ele><time>2026-04-03T14:59:13.904Z</time></trkpt><trkpt lat="45.88076798229358" lon="9.897304334083762"><ele>626.4</ele><time>2026-04-03T14:59:15.904Z</time></trkpt><trkpt lat="45.880814269539854" lon="9.897451589239033"><ele>626.0</ele><time>2026-04-03T14:59:17.903Z</time></trkpt><trkpt lat="45.880851878045746" lon="9.897575944955111"><ele>624.6666666666666</ele><time>2026-04-03T14:59:18.903Z</time></trkpt><trkpt lat="45.880886637284675" lon="9.897713981819882"><ele>623.3333333333333</ele><time>2026-04-03T14:59:19.903Z</time></trkpt><trkpt lat="45.88091796810431" lon="9.897822029045408"><ele>622.0</ele><time>2026-04-03T14:59:20.903Z</time></trkpt><trkpt lat="45.880949418528225" lon="9.897923514713494"><ele>620.6666666666666</ele><time>2026-04-03T14:59:21.903Z</time></trkpt><trkpt lat="45.88096337440977" lon="9.898030174694716"><ele>619.3333333333334</ele><time>2026-04-03T14:59:22.903Z</time></trkpt><trkpt lat="45.88096712775149" lon="9.8981458531925"><ele>618.0</ele><time>2026-04-03T14:59:23.903Z</time></trkpt><trkpt lat="45.88095364904714" lon="9.898277941364247"><ele>620.6666666666666</ele><time>2026-04-03T14:59:25.903Z</time></trkpt><trkpt lat="45.88098792299331" lon="9.898369574313369"><ele>623.3333333333334</ele><time>2026-04-03T14:59:27.903Z</time></trkpt><trkpt lat="45.881026205223954" lon="9.898464291242634"><ele>626.0</ele><time>2026-04-03T14:59:29.903Z</time></trkpt><trkpt lat="45.881043257543034" lon="9.898616143554282"><ele>628.6666666666667</ele><time>2026-04-03T14:59:31.903Z</time></trkpt><trkpt lat="45.88106220205955" lon="9.898722175619323"><ele>631.3333333333334</ele><time>2026-04-03T14:59:32.903Z</time></trkpt><trkpt lat="45.88107747962425" lon="9.898841792421182"><ele>634.0</ele><time>2026-04-03T14:59:33.903Z</time></trkpt><trkpt lat="45.8810939632898" lon="9.898940364882304"><ele>634.0</ele><time>2026-04-03T14:59:35.902Z</time></trkpt><trkpt lat="45.881094109054004" lon="9.899041889317735"><ele>634.0</ele><time>2026-04-03T14:59:37.902Z</time></trkpt><trkpt lat="45.8811044767062" lon="9.89916152094912"><ele>634.0</ele><time>2026-04-03T14:59:39.902Z</time></trkpt><trkpt lat="45.881046070335096" lon="9.899287547120732"><ele>634.0</ele><time>2026-04-03T14:59:41.902Z</time></trkpt><trkpt lat="45.88099759170194" lon="9.899372871348586"><ele>634.0</ele><time>2026-04-03T14:59:43.902Z</time></trkpt><trkpt lat="45.88091301335568" lon="9.899464976478658"><ele>634.0</ele><time>2026-04-03T14:59:45.902Z</time></trkpt><trkpt lat="45.88085831919987" lon="9.899572572712234"><ele>625.2</ele><time>2026-04-03T14:59:47.902Z</time></trkpt><trkpt lat="45.88086207411935" lon="9.899699931007444"><ele>616.4</ele><time>2026-04-03T14:59:50.901Z</time></trkpt><trkpt lat="45.8808172231913" lon="9.899815859611223"><ele>607.6</ele><time>2026-04-03T14:59:53.901Z</time></trkpt><trkpt lat="45.88073902277836" lon="9.89985192052546"><ele>598.8</ele><time>2026-04-03T14:59:55.901Z</time></trkpt><trkpt lat="45.88060638847906" lon="9.899877054943822"><ele>590.0</ele><time>2026-04-03T14:59:57.901Z</time></trkpt><trkpt lat="45.8805109714017" lon="9.89986188094313"><ele>590.0</ele><time>2026-04-03T14:59:59.901Z</time></trkpt><trkpt lat="45.88039199214433" lon="9.899791692839186"><ele>590.0</ele><time>2026-04-03T15:00:01.901Z</time></trkpt><trkpt lat="45.88025269608283" lon="9.899708006482854"><ele>590.0</ele><time>2026-04-03T15:00:03.901Z</time></trkpt><trkpt lat="45.88019691514384" lon="9.899638201127864"><ele>590.0</ele><time>2026-04-03T15:00:04.901Z</time></trkpt><trkpt lat="45.88014266207785" lon="9.8995853557644"><ele>590.0</ele><time>2026-04-03T15:00:05.901Z</time></trkpt><trkpt lat="45.88005905905633" lon="9.899520898722956"><ele>586.8333333333333</ele><time>2026-04-03T15:00:07.9Z</time></trkpt><trkpt lat="45.87999755436727" lon="9.899633753507798"><ele>583.6666666666666</ele><time>2026-04-03T15:00:10.9Z</time></trkpt><trkpt lat="45.879931248181244" lon="9.89972154800677"><ele>580.5</ele><time>2026-04-03T15:00:11.9Z</time></trkpt><trkpt lat="45.87987744320101" lon="9.899796652143223"><ele>577.3333333333334</ele><time>2026-04-03T15:00:12.9Z</time></trkpt><trkpt lat="45.879830589586795" lon="9.899858637553969"><ele>574.1666666666667</ele><time>2026-04-03T15:00:13.9Z</time></trkpt><trkpt lat="45.879802271227454" lon="9.899947433177884"><ele>571.0</ele><time>2026-04-03T15:00:14.9Z</time></trkpt><trkpt lat="45.879764887904535" lon="9.900044872214481"><ele>571.0</ele><time>2026-04-03T15:00:16.9Z</time></trkpt><trkpt lat="45.87972560284327" lon="9.900129201486571"><ele>571.0</ele><time>2026-04-03T15:00:22.902Z</time></trkpt><trkpt lat="45.87975259201311" lon="9.90000513495752"><ele>571.0</ele><time>2026-04-03T15:00:37.924Z</time></trkpt><trkpt lat="45.879804095227726" lon="9.899936710852877"><ele>571.0</ele><time>2026-04-03T15:00:39.925Z</time></trkpt><trkpt lat="45.879858791228635" lon="9.89982868158614"><ele>571.0</ele><time>2026-04-03T15:00:41.926Z</time></trkpt><trkpt lat="45.87992935663793" lon="9.899772978122247"><ele>571.0</ele><time>2026-04-03T15:00:43.927Z</time></trkpt><trkpt lat="45.88001647561068" lon="9.89984520190264"><ele>571.0</ele><time>2026-04-03T15:00:45.927Z</time></trkpt><trkpt lat="45.88006159814599" lon="9.899937216332756"><ele>571.0</ele><time>2026-04-03T15:00:46.928Z</time></trkpt><trkpt lat="45.880128679058" lon="9.90002986303859"><ele>571.0</ele><time>2026-04-03T15:00:47.928Z</time></trkpt><trkpt lat="45.880214806377715" lon="9.90007920349084"><ele>571.0</ele><time>2026-04-03T15:00:48.928Z</time></trkpt><trkpt lat="45.88029164443147" lon="9.900123077286727"><ele>571.0</ele><time>2026-04-03T15:00:49.928Z</time></trkpt><trkpt lat="45.880366455090154" lon="9.900173757278296"><ele>571.0</ele><time>2026-04-03T15:00:50.929Z</time></trkpt><trkpt lat="45.88044411421069" lon="9.900205736984658"><ele>573.0</ele><time>2026-04-03T15:00:51.929Z</time></trkpt><trkpt lat="45.88053062078537" lon="9.900211242841042"><ele>575.0</ele><time>2026-04-03T15:00:52.929Z</time></trkpt><trkpt lat="45.88060829515277" lon="9.90016434782958"><ele>577.0</ele><time>2026-04-03T15:00:53.929Z</time></trkpt><trkpt lat="45.880689245158685" lon="9.900154391112634"><ele>579.0</ele><time>2026-04-03T15:00:54.93Z</time></trkpt><trkpt lat="45.880765872057395" lon="9.900123250088763"><ele>581.0</ele><time>2026-04-03T15:00:55.93Z</time></trkpt><trkpt lat="45.88084706400179" lon="9.900163221221852"><ele>583.0</ele><time>2026-04-03T15:00:56.93Z</time></trkpt><trkpt lat="45.88090275968609" lon="9.900214587792037"><ele>591.5</ele><time>2026-04-03T15:00:57.93Z</time></trkpt><trkpt lat="45.88097147858025" lon="9.900285093552442"><ele>600.0</ele><time>2026-04-03T15:00:58.93Z</time></trkpt><trkpt lat="45.88111139890266" lon="9.900525106700938"><ele>608.5</ele><time>2026-04-03T15:01:00.93Z</time></trkpt><trkpt lat="45.88121201352186" lon="9.900632009959596"><ele>617.0</ele><time>2026-04-03T15:01:01.93Z</time></trkpt><trkpt lat="45.88129369660198" lon="9.90075184265679"><ele>617.0</ele><time>2026-04-03T15:01:02.93Z</time></trkpt><trkpt lat="45.881364596122374" lon="9.900869924013309"><ele>617.0</ele><time>2026-04-03T15:01:03.931Z</time></trkpt><trkpt lat="45.88141904457328" lon="9.900972912540176"><ele>617.0</ele><time>2026-04-03T15:01:04.931Z</time></trkpt><trkpt lat="45.88147408049092" lon="9.901024599549093"><ele>617.0</ele><time>2026-04-03T15:01:05.931Z</time></trkpt><trkpt lat="45.88153938680396" lon="9.90108715195097"><ele>617.0</ele><time>2026-04-03T15:01:07.931Z</time></trkpt><trkpt lat="45.881605225961245" lon="9.90112374315519"><ele>617.0</ele><time>2026-04-03T15:01:09.931Z</time></trkpt><trkpt lat="45.88152901966951" lon="9.901080811379789"><ele>616.0</ele><time>2026-04-03T15:01:16.931Z</time></trkpt><trkpt lat="45.88146041227388" lon="9.901035062568948"><ele>615.0</ele><time>2026-04-03T15:01:19.931Z</time></trkpt><trkpt lat="45.88143199626559" lon="9.90114967484916"><ele>614.0</ele><time>2026-04-03T15:01:28.931Z</time></trkpt><trkpt lat="45.88149233294465" lon="9.901239980930272"><ele>613.0</ele><time>2026-04-03T15:01:30.931Z</time></trkpt><trkpt lat="45.88153831165235" lon="9.901344302197474"><ele>612.0</ele><time>2026-04-03T15:01:32.931Z</time></trkpt><trkpt lat="45.881512808607006" lon="9.90143216056751"><ele>611.0</ele><time>2026-04-03T15:01:35.931Z</time></trkpt><trkpt lat="45.88151885592628" lon="9.901563588520977"><ele>611.0000000000001</ele><time>2026-04-03T15:01:37.931Z</time></trkpt><trkpt lat="45.8815417639212" lon="9.90167083248928"><ele>611.0</ele><time>2026-04-03T15:01:40.931Z</time></trkpt><trkpt lat="45.88156091944444" lon="9.901757666667153"><ele>611.0</ele><time>2026-04-03T15:01:42.931Z</time></trkpt><trkpt lat="45.88156993184022" lon="9.901878472308532"><ele>611.0</ele><time>2026-04-03T15:01:44.931Z</time></trkpt><trkpt lat="45.881586493353645" lon="9.901989211526022"><ele>611.0</ele><time>2026-04-03T15:01:47.931Z</time></trkpt><trkpt lat="45.88162169515454" lon="9.902069343482225"><ele>611.0000000000001</ele><time>2026-04-03T15:01:52.93Z</time></trkpt><trkpt lat="45.8816462041572" lon="9.902163769607602"><ele>611.0</ele><time>2026-04-03T15:01:58.93Z</time></trkpt><trkpt lat="45.88165496638344" lon="9.902298269490588"><ele>611.5</ele><time>2026-04-03T15:02:16.93Z</time></trkpt><trkpt lat="45.881692264163206" lon="9.90222141518386"><ele>612.0</ele><time>2026-04-03T15:02:41.935Z</time></trkpt><trkpt lat="45.88173053354998" lon="9.902316627577571"><ele>612.5</ele><time>2026-04-03T15:02:46.935Z</time></trkpt><trkpt lat="45.881753526030366" lon="9.902419285815213"><ele>613.0</ele><time>2026-04-03T15:02:49.935Z</time></trkpt><trkpt lat="45.881741432670886" lon="9.902529830441953"><ele>613.5</ele><time>2026-04-03T15:02:51.935Z</time></trkpt><trkpt lat="45.881813520779374" lon="9.902695076502107"><ele>614.0</ele><time>2026-04-03T15:02:53.934Z</time></trkpt><trkpt lat="45.88182439888638" lon="9.90281005616193"><ele>614.0</ele><time>2026-04-03T15:02:57.934Z</time></trkpt><trkpt lat="45.8818568909793" lon="9.90291436214873"><ele>614.0</ele><time>2026-04-03T15:03:00.934Z</time></trkpt><trkpt lat="45.88196018423758" lon="9.903042591655934"><ele>614.0</ele><time>2026-04-03T15:03:02.934Z</time></trkpt><trkpt lat="45.88200772828309" lon="9.90312448547993"><ele>614.0</ele><time>2026-04-03T15:03:04.934Z</time></trkpt><trkpt lat="45.88207078777541" lon="9.903165219855843"><ele>614.0</ele><time>2026-04-03T15:03:06.934Z</time></trkpt><trkpt lat="45.882168913651775" lon="9.903328733621603"><ele>614.0</ele><time>2026-04-03T15:03:07.934Z</time></trkpt><trkpt lat="45.88222485084433" lon="9.903375535027319"><ele>614.0</ele><time>2026-04-03T15:03:09.934Z</time></trkpt><trkpt lat="45.882305852661815" lon="9.903404718536658"><ele>614.0</ele><time>2026-04-03T15:03:11.934Z</time></trkpt><trkpt lat="45.882356085107794" lon="9.903500189328172"><ele>614.0</ele><time>2026-04-03T15:03:13.934Z</time></trkpt><trkpt lat="45.88241660037548" lon="9.903623822411204"><ele>614.0</ele><time>2026-04-03T15:03:15.934Z</time></trkpt><trkpt lat="45.882515061589444" lon="9.90373181851849"><ele>614.8</ele><time>2026-04-03T15:03:17.934Z</time></trkpt><trkpt lat="45.8825706036021" lon="9.903796864581198"><ele>615.5999999999999</ele><time>2026-04-03T15:03:18.934Z</time></trkpt><trkpt lat="45.88266726305606" lon="9.903932491944978"><ele>616.4</ele><time>2026-04-03T15:03:20.933Z</time></trkpt><trkpt lat="45.88272068903482" lon="9.904047333517777"><ele>617.1999999999999</ele><time>2026-04-03T15:03:21.933Z</time></trkpt><trkpt lat="45.88280387458985" lon="9.904163230991951"><ele>618.0</ele><time>2026-04-03T15:03:22.933Z</time></trkpt><trkpt lat="45.88286766073997" lon="9.904236717772429"><ele>611.5</ele><time>2026-04-03T15:03:23.933Z</time></trkpt><trkpt lat="45.88292435107655" lon="9.904300502602712"><ele>605.0</ele><time>2026-04-03T15:03:24.933Z</time></trkpt><trkpt lat="45.88298237148927" lon="9.904384195003356"><ele>598.5</ele><time>2026-04-03T15:03:25.933Z</time></trkpt><trkpt lat="45.88304610238577" lon="9.904420253385991"><ele>592.0</ele><time>2026-04-03T15:03:26.933Z</time></trkpt><trkpt lat="45.883112521244435" lon="9.904511411189318"><ele>585.5</ele><time>2026-04-03T15:03:27.933Z</time></trkpt><trkpt lat="45.88318705521832" lon="9.904514958239405"><ele>579.0</ele><time>2026-04-03T15:03:29.933Z</time></trkpt><trkpt lat="45.88329973595662" lon="9.904585706674341"><ele>579.0</ele><time>2026-04-03T15:03:31.933Z</time></trkpt><trkpt lat="45.883396921083076" lon="9.904638042816055"><ele>579.0</ele><time>2026-04-03T15:03:32.933Z</time></trkpt><trkpt lat="45.88352942203003" lon="9.90470265249814"><ele>579.0</ele><time>2026-04-03T15:03:33.933Z</time></trkpt><trkpt lat="45.883591524150965" lon="9.904738308075657"><ele>579.0</ele><time>2026-04-03T15:03:34.933Z</time></trkpt><trkpt lat="45.8836598921973" lon="9.904808744204965"><ele>579.0</ele><time>2026-04-03T15:03:35.933Z</time></trkpt><trkpt lat="45.88374210352638" lon="9.904872293497972"><ele>583.3333333333334</ele><time>2026-04-03T15:03:36.933Z</time></trkpt><trkpt lat="45.883826037339" lon="9.904908282624433"><ele>587.6666666666666</ele><time>2026-04-03T15:03:37.933Z</time></trkpt><trkpt lat="45.88389967847443" lon="9.904925414008408"><ele>592.0</ele><time>2026-04-03T15:03:38.933Z</time></trkpt><trkpt lat="45.88399662704156" lon="9.90493064818208"><ele>596.3333333333333</ele><time>2026-04-03T15:03:39.933Z</time></trkpt><trkpt lat="45.88406617625533" lon="9.904961579226786"><ele>600.6666666666666</ele><time>2026-04-03T15:03:40.933Z</time></trkpt><trkpt lat="45.884123923789225" lon="9.905002196686183"><ele>605.0</ele><time>2026-04-03T15:03:41.933Z</time></trkpt><trkpt lat="45.88444756785094" lon="9.905159596977391"><ele>605.0</ele><time>2026-04-03T15:03:43.933Z</time></trkpt><trkpt lat="45.88450734780223" lon="9.905188541918093"><ele>605.0</ele><time>2026-04-03T15:03:44.933Z</time></trkpt><trkpt lat="45.884578513264714" lon="9.905230424922966"><ele>605.0</ele><time>2026-04-03T15:03:45.932Z</time></trkpt><trkpt lat="45.88468903298673" lon="9.90524371654511"><ele>605.0</ele><time>2026-04-03T15:03:47.932Z</time></trkpt><trkpt lat="45.884779800250946" lon="9.905263919199143"><ele>605.0</ele><time>2026-04-03T15:03:48.932Z</time></trkpt><trkpt lat="45.88487235397181" lon="9.905300905273078"><ele>605.0</ele><time>2026-04-03T15:03:49.932Z</time></trkpt><trkpt lat="45.884950838211644" lon="9.905321716377506"><ele>605.0</ele><time>2026-04-03T15:03:50.932Z</time></trkpt><trkpt lat="45.885043182292335" lon="9.905282739244832"><ele>605.0</ele><time>2026-04-03T15:03:52.932Z</time></trkpt><trkpt lat="45.885111287862074" lon="9.905324312759399"><ele>605.0</ele><time>2026-04-03T15:03:54.932Z</time></trkpt><trkpt lat="45.88518759515569" lon="9.905386825220992"><ele>605.0</ele><time>2026-04-03T15:03:56.932Z</time></trkpt><trkpt lat="45.88527215226856" lon="9.905426030145772"><ele>605.0</ele><time>2026-04-03T15:03:58.932Z</time></trkpt><trkpt lat="45.88535807582742" lon="9.905495362063899"><ele>605.0</ele><time>2026-04-03T15:03:59.932Z</time></trkpt><trkpt lat="45.88544445046474" lon="9.905510064012713"><ele>608.0</ele><time>2026-04-03T15:04:01.932Z</time></trkpt><trkpt lat="45.88551928369548" lon="9.905538269215945"><ele>611.0</ele><time>2026-04-03T15:04:03.932Z</time></trkpt><trkpt lat="45.885597680624926" lon="9.9055686660589"><ele>614.0</ele><time>2026-04-03T15:04:05.932Z</time></trkpt><trkpt lat="45.885668887166105" lon="9.905616932963406"><ele>617.0</ele><time>2026-04-03T15:04:07.932Z</time></trkpt><trkpt lat="45.88574191200561" lon="9.905618975777086"><ele>620.0</ele><time>2026-04-03T15:04:11.931Z</time></trkpt><trkpt lat="45.885847065558124" lon="9.90560692259207"><ele>623.0</ele><time>2026-04-03T15:04:25.931Z</time></trkpt><trkpt lat="45.885936640722335" lon="9.905655049039876"><ele>623.0</ele><time>2026-04-03T15:05:03.937Z</time></trkpt><trkpt lat="45.88584725971563" lon="9.905655420167642"><ele>623.0</ele><time>2026-04-03T15:05:12.936Z</time></trkpt><trkpt lat="45.885783872177015" lon="9.905639935187319"><ele>623.0</ele><time>2026-04-03T15:05:16.936Z</time></trkpt><trkpt lat="45.885719901968606" lon="9.905604798922546"><ele>623.0</ele><time>2026-04-03T15:05:21.936Z</time></trkpt><trkpt lat="45.88561707506884" lon="9.905556290315094"><ele>623.0</ele><time>2026-04-03T15:05:24.936Z</time></trkpt><trkpt lat="45.88553716707493" lon="9.905500760048586"><ele>623.0</ele><time>2026-04-03T15:05:26.936Z</time></trkpt><trkpt lat="45.88544460488779" lon="9.905559946979789"><ele>623.0</ele><time>2026-04-03T15:05:31.936Z</time></trkpt><trkpt lat="45.885318531156834" lon="9.90559306951379"><ele>623.0</ele><time>2026-04-03T15:05:33.935Z</time></trkpt><trkpt lat="45.88520724655961" lon="9.905491344063764"><ele>623.0</ele><time>2026-04-03T15:05:34.935Z</time></trkpt><trkpt lat="45.88482422627296" lon="9.905353478339764"><ele>619.4</ele><time>2026-04-03T15:05:36.935Z</time></trkpt><trkpt lat="45.88476075423156" lon="9.905322119716969"><ele>615.8</ele><time>2026-04-03T15:05:38.935Z</time></trkpt><trkpt lat="45.88468258351617" lon="9.905292590593145"><ele>612.2</ele><time>2026-04-03T15:05:40.935Z</time></trkpt><trkpt lat="45.8845690005974" lon="9.905249744190417"><ele>608.6</ele><time>2026-04-03T15:05:42.935Z</time></trkpt><trkpt lat="45.884478720593016" lon="9.905251231448883"><ele>605.0</ele><time>2026-04-03T15:05:44.935Z</time></trkpt><trkpt lat="45.88436739039796" lon="9.90520443089167"><ele>605.0</ele><time>2026-04-03T15:05:46.935Z</time></trkpt><trkpt lat="45.884292313516966" lon="9.905176498984027"><ele>605.0</ele><time>2026-04-03T15:05:47.935Z</time></trkpt><trkpt lat="45.884242778575334" lon="9.90509095794714"><ele>605.0</ele><time>2026-04-03T15:05:50.935Z</time></trkpt><trkpt lat="45.884164733247864" lon="9.905064488297073"><ele>605.0</ele><time>2026-04-03T15:05:51.935Z</time></trkpt><trkpt lat="45.88409119529627" lon="9.9050194522678"><ele>605.0</ele><time>2026-04-03T15:05:52.935Z</time></trkpt><trkpt lat="45.88400240398208" lon="9.904982156105739"><ele>605.0</ele><time>2026-04-03T15:05:53.935Z</time></trkpt><trkpt lat="45.88393167199397" lon="9.904929621599054"><ele>606.6</ele><time>2026-04-03T15:05:54.935Z</time></trkpt><trkpt lat="45.88385261172966" lon="9.904880065659407"><ele>608.2</ele><time>2026-04-03T15:05:55.935Z</time></trkpt><trkpt lat="45.88375018673858" lon="9.90483408040537"><ele>609.8</ele><time>2026-04-03T15:05:56.935Z</time></trkpt><trkpt lat="45.88366040679485" lon="9.904764848759363"><ele>611.4</ele><time>2026-04-03T15:05:57.935Z</time></trkpt><trkpt lat="45.88373010044516" lon="9.904700298367713"><ele>613.0</ele><time>2026-04-03T15:05:58.935Z</time></trkpt><trkpt lat="45.88363381314436" lon="9.904581866392833"><ele>613.0</ele><time>2026-04-03T15:06:00.934Z</time></trkpt><trkpt lat="45.88355532166313" lon="9.904540539861353"><ele>613.0</ele><time>2026-04-03T15:06:01.934Z</time></trkpt><trkpt lat="45.8834771902548" lon="9.904472510960957"><ele>613.0</ele><time>2026-04-03T15:06:02.934Z</time></trkpt><trkpt lat="45.88342272706785" lon="9.904414683989668"><ele>613.0</ele><time>2026-04-03T15:06:03.934Z</time></trkpt><trkpt lat="45.88333521620768" lon="9.904308871344753"><ele>613.0</ele><time>2026-04-03T15:06:05.934Z</time></trkpt><trkpt lat="45.88329299605774" lon="9.904227850170557"><ele>613.0</ele><time>2026-04-03T15:06:06.934Z</time></trkpt><trkpt lat="45.88317901920015" lon="9.904167068677111"><ele>613.8333333333334</ele><time>2026-04-03T15:06:08.934Z</time></trkpt><trkpt lat="45.88308416491385" lon="9.904096114154607"><ele>614.6666666666667</ele><time>2026-04-03T15:06:09.934Z</time></trkpt><trkpt lat="45.8830247799269" lon="9.904029240903363"><ele>615.5</ele><time>2026-04-03T15:06:10.934Z</time></trkpt><trkpt lat="45.882974074276774" lon="9.903959371900177"><ele>616.3333333333334</ele><time>2026-04-03T15:06:11.934Z</time></trkpt><trkpt lat="45.882927229344155" lon="9.903896865780201"><ele>617.1666666666666</ele><time>2026-04-03T15:06:12.934Z</time></trkpt><trkpt lat="45.88284618504337" lon="9.903825087509613"><ele>618.0</ele><time>2026-04-03T15:06:14.934Z</time></trkpt><trkpt lat="45.88278755453644" lon="9.903781057663036"><ele>618.0000000000001</ele><time>2026-04-03T15:06:17.934Z</time></trkpt><trkpt lat="45.882718561788366" lon="9.903731016105167"><ele>618.0</ele><time>2026-04-03T15:06:20.934Z</time></trkpt><trkpt lat="45.88264281721703" lon="9.903710557089719"><ele>618.0</ele><time>2026-04-03T15:06:22.934Z</time></trkpt><trkpt lat="45.882562662478534" lon="9.903721412862431"><ele>618.0</ele><time>2026-04-03T15:06:24.934Z</time></trkpt><trkpt lat="45.882498453693614" lon="9.903659174620106"><ele>618.0</ele><time>2026-04-03T15:06:25.933Z</time></trkpt><trkpt lat="45.88244335060432" lon="9.903592082526337"><ele>618.0000000000001</ele><time>2026-04-03T15:06:26.933Z</time></trkpt><trkpt lat="45.88239172150047" lon="9.903539388344505"><ele>618.0</ele><time>2026-04-03T15:06:27.933Z</time></trkpt><trkpt lat="45.88232150160193" lon="9.903432357029587"><ele>617.1999999999999</ele><time>2026-04-03T15:06:29.933Z</time></trkpt><trkpt lat="45.88231092584401" lon="9.90332681950156"><ele>616.4</ele><time>2026-04-03T15:06:30.933Z</time></trkpt><trkpt lat="45.88230812844061" lon="9.903224306243292"><ele>615.5999999999999</ele><time>2026-04-03T15:06:31.933Z</time></trkpt><trkpt lat="45.88228650434643" lon="9.90311367347484"><ele>614.8</ele><time>2026-04-03T15:06:32.933Z</time></trkpt><trkpt lat="45.88220752492415" lon="9.902986893337314"><ele>614.0</ele><time>2026-04-03T15:06:34.933Z</time></trkpt><trkpt lat="45.882144139189165" lon="9.902837969830943"><ele>614.0</ele><time>2026-04-03T15:06:36.933Z</time></trkpt><trkpt lat="45.882112683869686" lon="9.902755412333038"><ele>614.0</ele><time>2026-04-03T15:06:37.933Z</time></trkpt><trkpt lat="45.882046015141746" lon="9.902676495652697"><ele>614.0</ele><time>2026-04-03T15:06:38.933Z</time></trkpt><trkpt lat="45.88196363384613" lon="9.902558029528587"><ele>614.0</ele><time>2026-04-03T15:06:40.933Z</time></trkpt><trkpt lat="45.881931328671016" lon="9.902430778677559"><ele>614.0</ele><time>2026-04-03T15:06:42.939Z</time></trkpt><trkpt lat="45.88190111819372" lon="9.902289957751616"><ele>613.5</ele><time>2026-04-03T15:06:44.939Z</time></trkpt><trkpt lat="45.88187680929438" lon="9.902160185852594"><ele>613.0</ele><time>2026-04-03T15:06:45.939Z</time></trkpt><trkpt lat="45.88182764033852" lon="9.902029761271555"><ele>612.5</ele><time>2026-04-03T15:06:47.939Z</time></trkpt><trkpt lat="45.881801184926026" lon="9.901936229332362"><ele>612.0</ele><time>2026-04-03T15:06:49.939Z</time></trkpt><trkpt lat="45.88172919460492" lon="9.90182945585344"><ele>611.5</ele><time>2026-04-03T15:06:51.939Z</time></trkpt><trkpt lat="45.8816715303621" lon="9.901785211170663"><ele>611.0</ele><time>2026-04-03T15:06:52.939Z</time></trkpt><trkpt lat="45.88161679603728" lon="9.901670247048935"><ele>611.0</ele><time>2026-04-03T15:06:54.939Z</time></trkpt><trkpt lat="45.88157714941758" lon="9.901508926655195"><ele>611.0</ele><time>2026-04-03T15:06:56.939Z</time></trkpt><trkpt lat="45.88156361122045" lon="9.901386020878352"><ele>611.0</ele><time>2026-04-03T15:06:58.939Z</time></trkpt><trkpt lat="45.881513658425746" lon="9.901230519534662"><ele>611.0</ele><time>2026-04-03T15:07:00.939Z</time></trkpt><trkpt lat="45.881468900532724" lon="9.901137581483857"><ele>611.0</ele><time>2026-04-03T15:07:01.939Z</time></trkpt><trkpt lat="45.88142428005071" lon="9.901056652676568"><ele>611.0</ele><time>2026-04-03T15:07:02.939Z</time></trkpt><trkpt lat="45.88138437410528" lon="9.900970425239928"><ele>611.0</ele><time>2026-04-03T15:07:03.939Z</time></trkpt><trkpt lat="45.881335885653314" lon="9.900863440840224"><ele>611.0</ele><time>2026-04-03T15:07:04.939Z</time></trkpt><trkpt lat="45.88129509452142" lon="9.90077264963421"><ele>611.0</ele><time>2026-04-03T15:07:05.939Z</time></trkpt><trkpt lat="45.88124131882015" lon="9.90067966633183"><ele>611.0</ele><time>2026-04-03T15:07:06.939Z</time></trkpt><trkpt lat="45.88118206220825" lon="9.900576613605951"><ele>611.0</ele><time>2026-04-03T15:07:07.939Z</time></trkpt><trkpt lat="45.881116415370705" lon="9.900476389798232"><ele>612.2</ele><time>2026-04-03T15:07:08.939Z</time></trkpt><trkpt lat="45.88106213403161" lon="9.900400987883774"><ele>613.4000000000001</ele><time>2026-04-03T15:07:09.939Z</time></trkpt><trkpt lat="45.88095038964419" lon="9.900319807670792"><ele>614.6</ele><time>2026-04-03T15:07:11.938Z</time></trkpt><trkpt lat="45.88088152782101" lon="9.900312729969386"><ele>615.8000000000001</ele><time>2026-04-03T15:07:12.938Z</time></trkpt><trkpt lat="45.88076428388462" lon="9.900297681373559"><ele>617.0</ele><time>2026-04-03T15:07:14.938Z</time></trkpt><trkpt lat="45.880690596932716" lon="9.90029807986256"><ele>611.6</ele><time>2026-04-03T15:07:15.938Z</time></trkpt><trkpt lat="45.880589788219446" lon="9.900258419113069"><ele>606.2</ele><time>2026-04-03T15:07:16.938Z</time></trkpt><trkpt lat="45.880521511749095" lon="9.900197517441637"><ele>600.8</ele><time>2026-04-03T15:07:17.938Z</time></trkpt><trkpt lat="45.880430645461374" lon="9.900128272576804"><ele>595.4</ele><time>2026-04-03T15:07:18.938Z</time></trkpt><trkpt lat="45.88033477479701" lon="9.900041399761069"><ele>590.0</ele><time>2026-04-03T15:07:19.938Z</time></trkpt><trkpt lat="45.88025085635881" lon="9.899958447900046"><ele>590.0</ele><time>2026-04-03T15:07:20.938Z</time></trkpt><trkpt lat="45.88017757531067" lon="9.899857809674275"><ele>590.0</ele><time>2026-04-03T15:07:21.938Z</time></trkpt><trkpt lat="45.88009863404731" lon="9.899716052797528"><ele>590.0</ele><time>2026-04-03T15:07:22.938Z</time></trkpt><trkpt lat="45.88002016325067" lon="9.899607163045525"><ele>590.0</ele><time>2026-04-03T15:07:23.938Z</time></trkpt><trkpt lat="45.87993223872259" lon="9.899522481187786"><ele>590.0</ele><time>2026-04-03T15:07:24.938Z</time></trkpt><trkpt lat="45.879827775506406" lon="9.899453417769259"><ele>588.0</ele><time>2026-04-03T15:07:25.938Z</time></trkpt><trkpt lat="45.87973096088762" lon="9.899391365552663"><ele>586.0</ele><time>2026-04-03T15:07:26.938Z</time></trkpt><trkpt lat="45.87964092963255" lon="9.899311455987467"><ele>584.0</ele><time>2026-04-03T15:07:27.938Z</time></trkpt><trkpt lat="45.87956563847334" lon="9.899215761030165"><ele>582.0</ele><time>2026-04-03T15:07:28.938Z</time></trkpt><trkpt lat="45.8795037900067" lon="9.899126134357617"><ele>580.0</ele><time>2026-04-03T15:07:29.938Z</time></trkpt><trkpt lat="45.87945284589476" lon="9.899059661567915"><ele>580.0</ele><time>2026-04-03T15:07:30.938Z</time></trkpt><trkpt lat="45.87937798166644" lon="9.899010334433003"><ele>580.0</ele><time>2026-04-03T15:07:31.938Z</time></trkpt><trkpt lat="45.87933847879011" lon="9.898874467874792"><ele>580.0</ele><time>2026-04-03T15:07:32.938Z</time></trkpt><trkpt lat="45.87926995695353" lon="9.898805638063564"><ele>580.0</ele><time>2026-04-03T15:07:33.938Z</time></trkpt><trkpt lat="45.87921190970529" lon="9.898746413587977"><ele>580.0</ele><time>2026-04-03T15:07:34.938Z</time></trkpt><trkpt lat="45.879136829391" lon="9.898651770402587"><ele>580.0</ele><time>2026-04-03T15:07:36.938Z</time></trkpt><trkpt lat="45.879095310869" lon="9.898560952461652"><ele>576.8</ele><time>2026-04-03T15:07:38.937Z</time></trkpt><trkpt lat="45.87911873209193" lon="9.898449200725535"><ele>573.6</ele><time>2026-04-03T15:07:39.937Z</time></trkpt><trkpt lat="45.879151804003826" lon="9.898363087140707"><ele>570.4</ele><time>2026-04-03T15:07:41.937Z</time></trkpt><trkpt lat="45.87923507080549" lon="9.898334007341608"><ele>567.2</ele><time>2026-04-03T15:07:42.937Z</time></trkpt><trkpt lat="45.879231278039406" lon="9.89820176498123"><ele>564.0</ele><time>2026-04-03T15:07:44.937Z</time></trkpt><trkpt lat="45.87900646477015" lon="9.898079800328853"><ele>564.0</ele><time>2026-04-03T15:07:46.937Z</time></trkpt><trkpt lat="45.87892608134216" lon="9.898180648952282"><ele>564.0</ele><time>2026-04-03T15:07:47.937Z</time></trkpt><trkpt lat="45.87885757100283" lon="9.898301233581883"><ele>564.0</ele><time>2026-04-03T15:07:48.937Z</time></trkpt><trkpt lat="45.87876738072284" lon="9.898471345907371"><ele>564.0</ele><time>2026-04-03T15:07:49.937Z</time></trkpt><trkpt lat="45.87869125519198" lon="9.898637738716799"><ele>562.8</ele><time>2026-04-03T15:07:50.937Z</time></trkpt><trkpt lat="45.878620762251025" lon="9.898795370682798"><ele>561.5999999999999</ele><time>2026-04-03T15:07:51.937Z</time></trkpt><trkpt lat="45.87855933291772" lon="9.898883158330966"><ele>560.4</ele><time>2026-04-03T15:07:52.937Z</time></trkpt><trkpt lat="45.87851592027154" lon="9.898964442310778"><ele>559.1999999999999</ele><time>2026-04-03T15:07:54.937Z</time></trkpt><trkpt lat="45.87842882686726" lon="9.899021447910242"><ele>558.0</ele><time>2026-04-03T15:07:56.937Z</time></trkpt><trkpt lat="45.878339877727214" lon="9.899086772725783"><ele>556.0</ele><time>2026-04-03T15:07:57.937Z</time></trkpt><trkpt lat="45.87826534659807" lon="9.899169358112042"><ele>554.0</ele><time>2026-04-03T15:07:58.937Z</time></trkpt><trkpt lat="45.87821053452355" lon="9.899247697224238"><ele>552.0</ele><time>2026-04-03T15:07:59.937Z</time></trkpt><trkpt lat="45.87815234595296" lon="9.899317017235155"><ele>550.0</ele><time>2026-04-03T15:08:00.937Z</time></trkpt><trkpt lat="45.87808430363075" lon="9.899333398183861"><ele>548.0</ele><time>2026-04-03T15:08:01.937Z</time></trkpt><trkpt lat="45.878003314984475" lon="9.899365988211514"><ele>546.0</ele><time>2026-04-03T15:08:02.937Z</time></trkpt><trkpt lat="45.877897220825325" lon="9.899425206108022"><ele>543.75</ele><time>2026-04-03T15:08:03.936Z</time></trkpt><trkpt lat="45.87779229027001" lon="9.899504730941116"><ele>541.5</ele><time>2026-04-03T15:08:04.936Z</time></trkpt><trkpt lat="45.87768722910358" lon="9.899623126979966"><ele>539.25</ele><time>2026-04-03T15:08:05.936Z</time></trkpt><trkpt lat="45.87759638066025" lon="9.899702501315359"><ele>537.0</ele><time>2026-04-03T15:08:06.936Z</time></trkpt><trkpt lat="45.877488060285046" lon="9.899776825372038"><ele>536.4</ele><time>2026-04-03T15:08:07.936Z</time></trkpt><trkpt lat="45.87740047275356" lon="9.899859547597659"><ele>535.8000000000001</ele><time>2026-04-03T15:08:08.936Z</time></trkpt><trkpt lat="45.87732233143681" lon="9.899933664530888"><ele>535.2</ele><time>2026-04-03T15:08:09.936Z</time></trkpt><trkpt lat="45.87721968688246" lon="9.90000184162926"><ele>534.6</ele><time>2026-04-03T15:08:10.936Z</time></trkpt><trkpt lat="45.877116304459896" lon="9.900055977005362"><ele>534.0</ele><time>2026-04-03T15:08:11.936Z</time></trkpt><trkpt lat="45.87702092319375" lon="9.900116889375429"><ele>532.5</ele><time>2026-04-03T15:08:12.936Z</time></trkpt><trkpt lat="45.87694516219657" lon="9.900193239242883"><ele>531.0</ele><time>2026-04-03T15:08:13.936Z</time></trkpt><trkpt lat="45.87688015491112" lon="9.900269913148009"><ele>529.5</ele><time>2026-04-03T15:08:14.936Z</time></trkpt><trkpt lat="45.87681665507985" lon="9.900339575429712"><ele>528.0</ele><time>2026-04-03T15:08:15.936Z</time></trkpt><trkpt lat="45.87674593992446" lon="9.900410954131319"><ele>526.5</ele><time>2026-04-03T15:08:17.936Z</time></trkpt><trkpt lat="45.87670427958814" lon="9.900498890071889"><ele>525.0</ele><time>2026-04-03T15:08:21.936Z</time></trkpt><trkpt lat="45.87657620887374" lon="9.900405210582555"><ele>525.2</ele><time>2026-04-03T15:08:23.936Z</time></trkpt><trkpt lat="45.87649197188435" lon="9.900362502879094"><ele>525.4</ele><time>2026-04-03T15:08:24.936Z</time></trkpt><trkpt lat="45.87640598871746" lon="9.900295006150309"><ele>525.6</ele><time>2026-04-03T15:08:25.936Z</time></trkpt><trkpt lat="45.87630354445361" lon="9.900220962154567"><ele>525.8</ele><time>2026-04-03T15:08:26.936Z</time></trkpt><trkpt lat="45.87619915561664" lon="9.900151515904177"><ele>526.0</ele><time>2026-04-03T15:08:27.936Z</time></trkpt><trkpt lat="45.87607131645323" lon="9.90007084289312"><ele>525.75</ele><time>2026-04-03T15:08:28.936Z</time></trkpt><trkpt lat="45.875922750158594" lon="9.90003226182324"><ele>525.5</ele><time>2026-04-03T15:08:29.935Z</time></trkpt><trkpt lat="45.87577659352341" lon="9.900000964076451"><ele>525.25</ele><time>2026-04-03T15:08:30.935Z</time></trkpt><trkpt lat="45.87564046132436" lon="9.899970526412009"><ele>525.0</ele><time>2026-04-03T15:08:31.935Z</time></trkpt><trkpt lat="45.87551741504843" lon="9.899936464075873"><ele>525.0</ele><time>2026-04-03T15:08:32.935Z</time></trkpt><trkpt lat="45.875396280895664" lon="9.899893004649233"><ele>525.0</ele><time>2026-04-03T15:08:33.935Z</time></trkpt><trkpt lat="45.875274649908164" lon="9.899837141137912"><ele>525.0</ele><time>2026-04-03T15:08:34.935Z</time></trkpt><trkpt lat="45.87515939547304" lon="9.89977553061636"><ele>525.0</ele><time>2026-04-03T15:08:35.935Z</time></trkpt><trkpt lat="45.87504492974013" lon="9.899726072078048"><ele>520.6</ele><time>2026-04-03T15:08:36.935Z</time></trkpt><trkpt lat="45.87493581483602" lon="9.899667396902823"><ele>516.2</ele><time>2026-04-03T15:08:37.935Z</time></trkpt><trkpt lat="45.874830702671716" lon="9.899613922915718"><ele>511.79999999999995</ele><time>2026-04-03T15:08:38.935Z</time></trkpt><trkpt lat="45.874726570703906" lon="9.899563173327016"><ele>507.4</ele><time>2026-04-03T15:08:39.935Z</time></trkpt><trkpt lat="45.87462430245737" lon="9.899510197013356"><ele>503.0</ele><time>2026-04-03T15:08:40.935Z</time></trkpt><trkpt lat="45.87452586529853" lon="9.899451902200978"><ele>503.0</ele><time>2026-04-03T15:08:41.935Z</time></trkpt><trkpt lat="45.87443042779158" lon="9.899394226983794"><ele>502.99999999999994</ele><time>2026-04-03T15:08:42.935Z</time></trkpt><trkpt lat="45.87434056811307" lon="9.899322417599521"><ele>502.99999999999994</ele><time>2026-04-03T15:08:43.935Z</time></trkpt><trkpt lat="45.87425612742802" lon="9.899243688821246"><ele>503.0</ele><time>2026-04-03T15:08:44.935Z</time></trkpt><trkpt lat="45.874196208344145" lon="9.899146042680936"><ele>503.0</ele><time>2026-04-03T15:08:45.935Z</time></trkpt><trkpt lat="45.874148991640446" lon="9.899041869879591"><ele>502.3333333333333</ele><time>2026-04-03T15:08:46.935Z</time></trkpt><trkpt lat="45.87411308923478" lon="9.898930633804063"><ele>501.66666666666663</ele><time>2026-04-03T15:08:47.935Z</time></trkpt><trkpt lat="45.87408678501458" lon="9.898815336982851"><ele>501.0</ele><time>2026-04-03T15:08:48.941Z</time></trkpt><trkpt lat="45.87407050959363" lon="9.89870900821897"><ele>500.33333333333337</ele><time>2026-04-03T15:08:49.941Z</time></trkpt><trkpt lat="45.87403486330515" lon="9.898568918288355"><ele>499.6666666666667</ele><time>2026-04-03T15:08:51.941Z</time></trkpt><trkpt lat="45.8740080916036" lon="9.898465341476864"><ele>499.0</ele><time>2026-04-03T15:09:44.94Z</time></trkpt><trkpt lat="45.87390179950541" lon="9.89864459773827"><ele>499.0</ele><time>2026-04-03T15:10:41.937Z</time></trkpt><trkpt lat="45.87392692596973" lon="9.898756856800214"><ele>499.0</ele><time>2026-04-03T15:10:42.937Z</time></trkpt><trkpt lat="45.87394909567732" lon="9.898869666572237"><ele>499.0</ele><time>2026-04-03T15:10:43.937Z</time></trkpt><trkpt lat="45.873993350677985" lon="9.898990593245275"><ele>499.0</ele><time>2026-04-03T15:10:44.937Z</time></trkpt><trkpt lat="45.874038197915915" lon="9.89910729727993"><ele>499.0</ele><time>2026-04-03T15:10:45.937Z</time></trkpt><trkpt lat="45.87409409896047" lon="9.89922622272176"><ele>499.79999999999995</ele><time>2026-04-03T15:10:46.937Z</time></trkpt><trkpt lat="45.8741590075122" lon="9.89934318262422"><ele>500.59999999999997</ele><time>2026-04-03T15:10:47.937Z</time></trkpt><trkpt lat="45.87422478664665" lon="9.899461838655657"><ele>501.4</ele><time>2026-04-03T15:10:48.937Z</time></trkpt><trkpt lat="45.87429185915292" lon="9.899586425501104"><ele>502.2</ele><time>2026-04-03T15:10:49.937Z</time></trkpt><trkpt lat="45.87437334937534" lon="9.899709881635358"><ele>503.0</ele><time>2026-04-03T15:10:50.937Z</time></trkpt><trkpt lat="45.87447006799234" lon="9.899829196077347"><ele>503.0</ele><time>2026-04-03T15:10:51.937Z</time></trkpt><trkpt lat="45.87457487543238" lon="9.899942390036369"><ele>503.0</ele><time>2026-04-03T15:10:52.937Z</time></trkpt><trkpt lat="45.87467281637156" lon="9.900060672665763"><ele>503.0</ele><time>2026-04-03T15:10:53.937Z</time></trkpt><trkpt lat="45.87477157896708" lon="9.900167733332712"><ele>503.0</ele><time>2026-04-03T15:10:54.943Z</time></trkpt><trkpt lat="45.874867719871155" lon="9.900288389557598"><ele>503.25</ele><time>2026-04-03T15:10:55.943Z</time></trkpt><trkpt lat="45.874958439948934" lon="9.90040178726655"><ele>503.5</ele><time>2026-04-03T15:10:56.943Z</time></trkpt><trkpt lat="45.87503087181776" lon="9.900520519753233"><ele>503.75</ele><time>2026-04-03T15:10:57.943Z</time></trkpt><trkpt lat="45.87507908556811" lon="9.900661052957897"><ele>504.0</ele><time>2026-04-03T15:10:58.943Z</time></trkpt><trkpt lat="45.875147371205685" lon="9.900816754873778"><ele>500.2</ele><time>2026-04-03T15:10:59.943Z</time></trkpt><trkpt lat="45.87521175198043" lon="9.900940655864222"><ele>496.4</ele><time>2026-04-03T15:11:00.943Z</time></trkpt><trkpt lat="45.87528203472778" lon="9.901051795184003"><ele>492.6</ele><time>2026-04-03T15:11:01.943Z</time></trkpt><trkpt lat="45.875363891430204" lon="9.901150600885341"><ele>488.8</ele><time>2026-04-03T15:11:02.943Z</time></trkpt><trkpt lat="45.87545115165631" lon="9.901233001176486"><ele>485.0</ele><time>2026-04-03T15:11:03.943Z</time></trkpt><trkpt lat="45.87553980880691" lon="9.901306473516016"><ele>484.99999999999994</ele><time>2026-04-03T15:11:04.943Z</time></trkpt><trkpt lat="45.87561294801643" lon="9.90137732348806"><ele>485.0</ele><time>2026-04-03T15:11:05.943Z</time></trkpt><trkpt lat="45.87567673261288" lon="9.901442418555488"><ele>485.0</ele><time>2026-04-03T15:11:06.943Z</time></trkpt><trkpt lat="45.875735376318026" lon="9.901489444634082"><ele>485.0</ele><time>2026-04-03T15:11:07.943Z</time></trkpt><trkpt lat="45.87579097291116" lon="9.901533815091566"><ele>484.99999999999994</ele><time>2026-04-03T15:11:08.943Z</time></trkpt><trkpt lat="45.87569843871595" lon="9.901650628583393"><ele>485.0</ele><time>2026-04-03T15:11:11.943Z</time></trkpt><trkpt lat="45.875643025788904" lon="9.901562307971837"><ele>485.0</ele><time>2026-04-03T15:11:12.943Z</time></trkpt><trkpt lat="45.87556675974196" lon="9.90147860132519"><ele>485.0</ele><time>2026-04-03T15:11:13.943Z</time></trkpt><trkpt lat="45.87547373053788" lon="9.901380260077687"><ele>485.0</ele><time>2026-04-03T15:11:14.943Z</time></trkpt><trkpt lat="45.87538595409738" lon="9.901288169289394"><ele>485.0</ele><time>2026-04-03T15:11:15.943Z</time></trkpt><trkpt lat="45.87528768493178" lon="9.901185070048312"><ele>485.0</ele><time>2026-04-03T15:11:16.943Z</time></trkpt><trkpt lat="45.87518777679512" lon="9.90108025125447"><ele>484.8</ele><time>2026-04-03T15:11:17.943Z</time></trkpt><trkpt lat="45.875093896239406" lon="9.90098175632536"><ele>484.6</ele><time>2026-04-03T15:11:18.943Z</time></trkpt><trkpt lat="45.87500061618453" lon="9.900885699610194"><ele>484.4</ele><time>2026-04-03T15:11:19.943Z</time></trkpt><trkpt lat="45.874910997690634" lon="9.900799703186383"><ele>484.2</ele><time>2026-04-03T15:11:20.943Z</time></trkpt><trkpt lat="45.87482968273493" lon="9.900752859353936"><ele>484.0</ele><time>2026-04-03T15:11:21.943Z</time></trkpt><trkpt lat="45.874767353595445" lon="9.900731871813672"><ele>484.0</ele><time>2026-04-03T15:11:22.943Z</time></trkpt><trkpt lat="45.87468943262127" lon="9.90067462481469"><ele>484.0</ele><time>2026-04-03T15:11:23.943Z</time></trkpt><trkpt lat="45.87460407702981" lon="9.900603548614315"><ele>484.0</ele><time>2026-04-03T15:11:24.942Z</time></trkpt><trkpt lat="45.87451861383368" lon="9.900498633845567"><ele>484.0</ele><time>2026-04-03T15:11:25.942Z</time></trkpt><trkpt lat="45.87443626643303" lon="9.900421029635357"><ele>484.0</ele><time>2026-04-03T15:11:26.942Z</time></trkpt><trkpt lat="45.87436400139016" lon="9.900361049034773"><ele>484.00000000000006</ele><time>2026-04-03T15:11:27.942Z</time></trkpt><trkpt lat="45.8743008065498" lon="9.900306573395302"><ele>484.0</ele><time>2026-04-03T15:11:28.942Z</time></trkpt><trkpt lat="45.87420631951817" lon="9.900225123079492"><ele>484.0</ele><time>2026-04-03T15:11:30.942Z</time></trkpt><trkpt lat="45.87411831905297" lon="9.900150757484488"><ele>484.0</ele><time>2026-04-03T15:11:32.942Z</time></trkpt><trkpt lat="45.87406840968414" lon="9.900092727681761"><ele>484.00000000000006</ele><time>2026-04-03T15:11:34.942Z</time></trkpt><trkpt lat="45.87399739270892" lon="9.90001299639242"><ele>484.0</ele><time>2026-04-03T15:11:44.942Z</time></trkpt><trkpt lat="45.87392589442855" lon="9.899979990476089"><ele>482.2</ele><time>2026-04-03T15:11:56.941Z</time></trkpt><trkpt lat="45.87377575333718" lon="9.90010870429309"><ele>480.4</ele><time>2026-04-03T15:11:59.941Z</time></trkpt><trkpt lat="45.8737029397837" lon="9.900198151097216"><ele>478.6</ele><time>2026-04-03T15:12:00.941Z</time></trkpt><trkpt lat="45.873636164641695" lon="9.900286508214595"><ele>476.8</ele><time>2026-04-03T15:12:01.941Z</time></trkpt><trkpt lat="45.87358296715686" lon="9.900372660908468"><ele>475.0</ele><time>2026-04-03T15:12:02.941Z</time></trkpt><trkpt lat="45.873507376821614" lon="9.900448498635974"><ele>475.0</ele><time>2026-04-03T15:12:04.941Z</time></trkpt><trkpt lat="45.873628421640504" lon="9.9007068312568"><ele>475.0</ele><time>2026-04-03T15:12:07.941Z</time></trkpt><trkpt lat="45.873685663787114" lon="9.900807669128143"><ele>475.0</ele><time>2026-04-03T15:12:08.941Z</time></trkpt><trkpt lat="45.87374359646635" lon="9.900931412260817"><ele>475.0</ele><time>2026-04-03T15:12:09.941Z</time></trkpt><trkpt lat="45.873800339796695" lon="9.901067117246455"><ele>476.5</ele><time>2026-04-03T15:12:10.941Z</time></trkpt><trkpt lat="45.87385207705344" lon="9.901203617188472"><ele>478.0</ele><time>2026-04-03T15:12:11.941Z</time></trkpt><trkpt lat="45.87391620302092" lon="9.90134884021691"><ele>479.5</ele><time>2026-04-03T15:12:12.941Z</time></trkpt><trkpt lat="45.87398350199152" lon="9.901498772802269"><ele>481.0</ele><time>2026-04-03T15:12:13.941Z</time></trkpt><trkpt lat="45.87405260003553" lon="9.901638117992883"><ele>482.6</ele><time>2026-04-03T15:12:14.941Z</time></trkpt><trkpt lat="45.87410641798092" lon="9.90175796812463"><ele>484.20000000000005</ele><time>2026-04-03T15:12:15.941Z</time></trkpt><trkpt lat="45.87417360223516" lon="9.901901940828544"><ele>485.79999999999995</ele><time>2026-04-03T15:12:16.94Z</time></trkpt><trkpt lat="45.87423043901416" lon="9.90203998210638"><ele>487.4</ele><time>2026-04-03T15:12:17.94Z</time></trkpt><trkpt lat="45.87428193531443" lon="9.902143688101669"><ele>489.0</ele><time>2026-04-03T15:12:18.94Z</time></trkpt><trkpt lat="45.87437330466869" lon="9.902265787804039"><ele>489.0</ele><time>2026-04-03T15:12:20.94Z</time></trkpt><trkpt lat="45.874422655711896" lon="9.902323815284934"><ele>489.0</ele><time>2026-04-03T15:12:21.94Z</time></trkpt><trkpt lat="45.874485100416045" lon="9.902386034587472"><ele>489.0</ele><time>2026-04-03T15:12:22.94Z</time></trkpt><trkpt lat="45.87459061682243" lon="9.902467171396768"><ele>489.0</ele><time>2026-04-03T15:12:24.94Z</time></trkpt><trkpt lat="45.874659798683794" lon="9.90254475995817"><ele>489.0</ele><time>2026-04-03T15:12:25.94Z</time></trkpt><trkpt lat="45.87472116814529" lon="9.902612467037216"><ele>489.0</ele><time>2026-04-03T15:12:26.94Z</time></trkpt><trkpt lat="45.8747763094254" lon="9.902668637862606"><ele>489.1666666666667</ele><time>2026-04-03T15:12:27.94Z</time></trkpt><trkpt lat="45.87483970396243" lon="9.90274663608899"><ele>489.33333333333337</ele><time>2026-04-03T15:12:30.94Z</time></trkpt><trkpt lat="45.8748745299462" lon="9.902829390481966"><ele>489.5</ele><time>2026-04-03T15:12:32.94Z</time></trkpt><trkpt lat="45.874944982215865" lon="9.902869215882369"><ele>489.6666666666667</ele><time>2026-04-03T15:12:34.94Z</time></trkpt><trkpt lat="45.87503574627819" lon="9.902955565177864"><ele>489.83333333333337</ele><time>2026-04-03T15:12:36.94Z</time></trkpt><trkpt lat="45.87509308340955" lon="9.903060683410496"><ele>490.0</ele><time>2026-04-03T15:12:37.94Z</time></trkpt><trkpt lat="45.87517748137108" lon="9.903176223945172"><ele>490.0</ele><time>2026-04-03T15:12:38.94Z</time></trkpt><trkpt lat="45.8752570644235" lon="9.903284824110484"><ele>490.0</ele><time>2026-04-03T15:12:39.94Z</time></trkpt><trkpt lat="45.87535015840229" lon="9.903380025568516"><ele>490.0</ele><time>2026-04-03T15:12:40.94Z</time></trkpt><trkpt lat="45.87542041805939" lon="9.903478115827559"><ele>490.0</ele><time>2026-04-03T15:12:41.94Z</time></trkpt><trkpt lat="45.875464869787365" lon="9.90355139721113"><ele>490.0</ele><time>2026-04-03T15:12:42.939Z</time></trkpt><trkpt lat="45.87552592935611" lon="9.903662035365615"><ele>494.2</ele><time>2026-04-03T15:12:43.939Z</time></trkpt><trkpt lat="45.875561423109076" lon="9.903751263700974"><ele>498.4</ele><time>2026-04-03T15:12:44.939Z</time></trkpt><trkpt lat="45.8756693887608" lon="9.903881889756946"><ele>502.6</ele><time>2026-04-03T15:12:45.939Z</time></trkpt><trkpt lat="45.87575028423125" lon="9.903997409867745"><ele>506.8</ele><time>2026-04-03T15:12:46.939Z</time></trkpt><trkpt lat="45.87579874872495" lon="9.904081733124157"><ele>511.0</ele><time>2026-04-03T15:12:47.939Z</time></trkpt><trkpt lat="45.87590042132713" lon="9.904190827330705"><ele>511.8</ele><time>2026-04-03T15:12:49.939Z</time></trkpt><trkpt lat="45.87595128608318" lon="9.904301506925632"><ele>512.6</ele><time>2026-04-03T15:12:51.939Z</time></trkpt><trkpt lat="45.876031464767266" lon="9.904387265369172"><ele>513.4</ele><time>2026-04-03T15:12:53.939Z</time></trkpt><trkpt lat="45.87608644604086" lon="9.904444220942988"><ele>514.2</ele><time>2026-04-03T15:12:54.939Z</time></trkpt><trkpt lat="45.87614737581871" lon="9.90454362202272"><ele>515.0</ele><time>2026-04-03T15:12:55.939Z</time></trkpt><trkpt lat="45.87621973135139" lon="9.904638572692408"><ele>515.0</ele><time>2026-04-03T15:12:56.939Z</time></trkpt><trkpt lat="45.876285012668255" lon="9.904693581864628"><ele>515.0</ele><time>2026-04-03T15:12:57.939Z</time></trkpt><trkpt lat="45.876344288982395" lon="9.904730683753112"><ele>515.0</ele><time>2026-04-03T15:12:58.939Z</time></trkpt><trkpt lat="45.876422253739136" lon="9.90480702131239"><ele>515.0</ele><time>2026-04-03T15:13:00.945Z</time></trkpt><trkpt lat="45.87653796428316" lon="9.904867445635537"><ele>515.0</ele><time>2026-04-03T15:13:02.945Z</time></trkpt><trkpt lat="45.876614047296876" lon="9.904884793298649"><ele>515.0</ele><time>2026-04-03T15:13:03.945Z</time></trkpt><trkpt lat="45.87668178028813" lon="9.90490819481202"><ele>515.0</ele><time>2026-04-03T15:13:04.945Z</time></trkpt><trkpt lat="45.87675136754959" lon="9.904911931467494"><ele>515.0</ele><time>2026-04-03T15:13:05.945Z</time></trkpt><trkpt lat="45.87683035339088" lon="9.90494148662473"><ele>515.0</ele><time>2026-04-03T15:13:06.945Z</time></trkpt><trkpt lat="45.87690728080869" lon="9.904995288412492"><ele>515.0</ele><time>2026-04-03T15:13:07.945Z</time></trkpt><trkpt lat="45.87699771396658" lon="9.905060713861532"><ele>515.0</ele><time>2026-04-03T15:13:08.945Z</time></trkpt><trkpt lat="45.87709523138592" lon="9.90512075087552"><ele>515.0</ele><time>2026-04-03T15:13:09.945Z</time></trkpt><trkpt lat="45.87716626328126" lon="9.905170703867853"><ele>516.4</ele><time>2026-04-03T15:13:10.946Z</time></trkpt><trkpt lat="45.87723762275056" lon="9.905278232545061"><ele>517.8</ele><time>2026-04-03T15:13:12.946Z</time></trkpt><trkpt lat="45.8773703511462" lon="9.905266185489197"><ele>519.2</ele><time>2026-04-03T15:13:14.945Z</time></trkpt><trkpt lat="45.877439240312064" lon="9.90520435431262"><ele>520.6</ele><time>2026-04-03T15:13:15.945Z</time></trkpt><trkpt lat="45.87754401475833" lon="9.9052033329079"><ele>522.0</ele><time>2026-04-03T15:13:17.945Z</time></trkpt><trkpt lat="45.87763382832827" lon="9.905262633005544"><ele>522.0</ele><time>2026-04-03T15:13:19.945Z</time></trkpt><trkpt lat="45.877749466524186" lon="9.905259950348327"><ele>522.0</ele><time>2026-04-03T15:13:21.945Z</time></trkpt><trkpt lat="45.87784986015267" lon="9.905205640705912"><ele>522.0</ele><time>2026-04-03T15:13:23.945Z</time></trkpt><trkpt lat="45.87794287735678" lon="9.905138030771521"><ele>522.0</ele><time>2026-04-03T15:13:25.945Z</time></trkpt><trkpt lat="45.87805551863169" lon="9.90513240364697"><ele>522.0</ele><time>2026-04-03T15:13:27.944Z</time></trkpt><trkpt lat="45.87816008561488" lon="9.905109701316704"><ele>522.0</ele><time>2026-04-03T15:13:28.944Z</time></trkpt><trkpt lat="45.87829560242946" lon="9.905108152579336"><ele>522.0</ele><time>2026-04-03T15:13:29.944Z</time></trkpt><trkpt lat="45.87844664460056" lon="9.905130257324798"><ele>522.0</ele><time>2026-04-03T15:13:30.944Z</time></trkpt><trkpt lat="45.878592921198816" lon="9.905175833274992"><ele>522.0</ele><time>2026-04-03T15:13:31.944Z</time></trkpt><trkpt lat="45.87873220033976" lon="9.905200645543559"><ele>522.25</ele><time>2026-04-03T15:13:32.944Z</time></trkpt><trkpt lat="45.87888261222787" lon="9.905284795157051"><ele>522.5</ele><time>2026-04-03T15:13:33.944Z</time></trkpt><trkpt lat="45.879022963545474" lon="9.905369017104146"><ele>522.75</ele><time>2026-04-03T15:13:34.944Z</time></trkpt><trkpt lat="45.87913411090367" lon="9.905455050292634"><ele>523.0</ele><time>2026-04-03T15:13:35.944Z</time></trkpt><trkpt lat="45.87924739143965" lon="9.905530542531837"><ele>520.0</ele><time>2026-04-03T15:13:36.944Z</time></trkpt><trkpt lat="45.87937753993493" lon="9.905627279911199"><ele>517.0</ele><time>2026-04-03T15:13:37.944Z</time></trkpt><trkpt lat="45.87948831198581" lon="9.90571404024217"><ele>514.0</ele><time>2026-04-03T15:13:38.944Z</time></trkpt><trkpt lat="45.879568039102615" lon="9.905797513422945"><ele>511.0</ele><time>2026-04-03T15:13:39.944Z</time></trkpt><trkpt lat="45.87963133495758" lon="9.905872877222658"><ele>512.5</ele><time>2026-04-03T15:13:40.944Z</time></trkpt><trkpt lat="45.879685234686974" lon="9.905939770452479"><ele>514.0</ele><time>2026-04-03T15:13:41.944Z</time></trkpt><trkpt lat="45.87972615610675" lon="9.906030413397428"><ele>515.5</ele><time>2026-04-03T15:13:42.944Z</time></trkpt><trkpt lat="45.87976268290902" lon="9.906125294750717"><ele>517.0</ele><time>2026-04-03T15:13:43.944Z</time></trkpt><trkpt lat="45.87979986508128" lon="9.906240013017879"><ele>518.5</ele><time>2026-04-03T15:13:44.944Z</time></trkpt><trkpt lat="45.87983083874656" lon="9.906339392319142"><ele>520.0</ele><time>2026-04-03T15:13:45.944Z</time></trkpt><trkpt lat="45.8798556113376" lon="9.906443443358535"><ele>520.0</ele><time>2026-04-03T15:13:48.944Z</time></trkpt><trkpt lat="45.8799237488339" lon="9.906658630722218"><ele>520.0</ele><time>2026-04-03T15:13:50.944Z</time></trkpt><trkpt lat="45.87995399740844" lon="9.90683049966391"><ele>520.0</ele><time>2026-04-03T15:13:51.944Z</time></trkpt><trkpt lat="45.8799663016661" lon="9.906967941470576"><ele>520.0</ele><time>2026-04-03T15:13:52.944Z</time></trkpt><trkpt lat="45.8799500422148" lon="9.907085835820139"><ele>521.0</ele><time>2026-04-03T15:13:53.943Z</time></trkpt><trkpt lat="45.879948387765616" lon="9.907257475519158"><ele>522.0</ele><time>2026-04-03T15:13:55.943Z</time></trkpt><trkpt lat="45.87995688030634" lon="9.90741894866585"><ele>523.0</ele><time>2026-04-03T15:13:56.943Z</time></trkpt><trkpt lat="45.87997726221495" lon="9.907557637886892"><ele>524.0</ele><time>2026-04-03T15:13:57.943Z</time></trkpt><trkpt lat="45.8799592066016" lon="9.907693827997372"><ele>525.0</ele><time>2026-04-03T15:13:58.943Z</time></trkpt><trkpt lat="45.87999395613435" lon="9.907828947134444"><ele>525.2</ele><time>2026-04-03T15:13:59.943Z</time></trkpt><trkpt lat="45.88002295866818" lon="9.907983095218686"><ele>525.4</ele><time>2026-04-03T15:14:00.943Z</time></trkpt><trkpt lat="45.88003492831072" lon="9.908097024482423"><ele>525.6</ele><time>2026-04-03T15:14:01.943Z</time></trkpt><trkpt lat="45.87998862248328" lon="9.908227422444188"><ele>525.8</ele><time>2026-04-03T15:14:03.943Z</time></trkpt><trkpt lat="45.87997660336563" lon="9.908448857975944"><ele>526.0</ele><time>2026-04-03T15:14:05.943Z</time></trkpt><trkpt lat="45.87990630108628" lon="9.90855753856472"><ele>526.4</ele><time>2026-04-03T15:14:06.943Z</time></trkpt><trkpt lat="45.879932296933276" lon="9.908664653672913"><ele>526.8</ele><time>2026-04-03T15:14:07.943Z</time></trkpt><trkpt lat="45.880011495101115" lon="9.908803698853102"><ele>527.1999999999999</ele><time>2026-04-03T15:14:09.943Z</time></trkpt><trkpt lat="45.880066694528715" lon="9.908900332962483"><ele>527.6</ele><time>2026-04-03T15:14:10.943Z</time></trkpt><trkpt lat="45.880158834745146" lon="9.90904106818127"><ele>528.0</ele><time>2026-04-03T15:14:11.943Z</time></trkpt><trkpt lat="45.88024499621494" lon="9.909200665123612"><ele>527.0</ele><time>2026-04-03T15:14:12.943Z</time></trkpt><trkpt lat="45.88034530198193" lon="9.909360148954521"><ele>526.0</ele><time>2026-04-03T15:14:13.943Z</time></trkpt><trkpt lat="45.88044507104532" lon="9.909473534485842"><ele>525.0</ele><time>2026-04-03T15:14:14.943Z</time></trkpt><trkpt lat="45.880515204846084" lon="9.90958952993474"><ele>524.0</ele><time>2026-04-03T15:14:15.943Z</time></trkpt><trkpt lat="45.88056766548704" lon="9.909644422369675"><ele>523.0</ele><time>2026-04-03T15:14:16.943Z</time></trkpt><trkpt lat="45.88061309371026" lon="9.909710937425597"><ele>523.0</ele><time>2026-04-03T15:14:17.943Z</time></trkpt><trkpt lat="45.88068055628899" lon="9.909807055018168"><ele>523.0</ele><time>2026-04-03T15:14:18.943Z</time></trkpt><trkpt lat="45.88075096845072" lon="9.909918720744948"><ele>523.0</ele><time>2026-04-03T15:14:19.942Z</time></trkpt><trkpt lat="45.88080553434706" lon="9.909981556613419"><ele>523.0</ele><time>2026-04-03T15:14:20.942Z</time></trkpt><trkpt lat="45.88085887046165" lon="9.910082032895113"><ele>523.0</ele><time>2026-04-03T15:14:21.942Z</time></trkpt><trkpt lat="45.880904998985464" lon="9.910189946080877"><ele>523.0</ele><time>2026-04-03T15:14:22.942Z</time></trkpt><trkpt lat="45.88092922596784" lon="9.910290339104833"><ele>522.4</ele><time>2026-04-03T15:14:23.942Z</time></trkpt><trkpt lat="45.880944448766215" lon="9.910428013136174"><ele>521.8</ele><time>2026-04-03T15:14:25.942Z</time></trkpt><trkpt lat="45.88095033460765" lon="9.910559545866004"><ele>521.2</ele><time>2026-04-03T15:14:27.942Z</time></trkpt><trkpt lat="45.880977688235426" lon="9.910708217677655"><ele>520.6</ele><time>2026-04-03T15:14:29.942Z</time></trkpt><trkpt lat="45.88103663716998" lon="9.910826137667968"><ele>520.0</ele><time>2026-04-03T15:14:30.942Z</time></trkpt><trkpt lat="45.88108049786083" lon="9.910967825840872"><ele>522.8</ele><time>2026-04-03T15:14:31.942Z</time></trkpt><trkpt lat="45.88113654081645" lon="9.911054732700336"><ele>525.6</ele><time>2026-04-03T15:14:32.942Z</time></trkpt><trkpt lat="45.88121110965935" lon="9.911187604662405"><ele>528.4</ele><time>2026-04-03T15:14:33.942Z</time></trkpt><trkpt lat="45.88125295748226" lon="9.911294920708302"><ele>531.2</ele><time>2026-04-03T15:14:34.942Z</time></trkpt><trkpt lat="45.88128498887643" lon="9.911418034156378"><ele>534.0</ele><time>2026-04-03T15:14:35.942Z</time></trkpt><trkpt lat="45.881315503551214" lon="9.911530966704538"><ele>534.0</ele><time>2026-04-03T15:14:36.942Z</time></trkpt><trkpt lat="45.88133082670814" lon="9.911637593959226"><ele>534.0</ele><time>2026-04-03T15:14:37.942Z</time></trkpt><trkpt lat="45.88134167249577" lon="9.911750186301159"><ele>534.0</ele><time>2026-04-03T15:14:38.942Z</time></trkpt><trkpt lat="45.88135349100698" lon="9.911865229664373"><ele>534.0</ele><time>2026-04-03T15:14:39.942Z</time></trkpt><trkpt lat="45.88138552935553" lon="9.911983697385363"><ele>534.0</ele><time>2026-04-03T15:14:40.942Z</time></trkpt><trkpt lat="45.881423302480464" lon="9.912084790703172"><ele>534.0</ele><time>2026-04-03T15:14:41.942Z</time></trkpt><trkpt lat="45.88147064679085" lon="9.912176552657604"><ele>534.0</ele><time>2026-04-03T15:14:42.942Z</time></trkpt><trkpt lat="45.88152702587843" lon="9.912255723834788"><ele>534.0</ele><time>2026-04-03T15:14:43.942Z</time></trkpt><trkpt lat="45.8815750178577" lon="9.912334577816736"><ele>534.0</ele><time>2026-04-03T15:14:44.941Z</time></trkpt><trkpt lat="45.88164155039141" lon="9.912415211215471"><ele>534.0</ele><time>2026-04-03T15:14:45.941Z</time></trkpt><trkpt lat="45.881701132488004" lon="9.912476599781645"><ele>534.0</ele><time>2026-04-03T15:14:46.941Z</time></trkpt><trkpt lat="45.88176645699152" lon="9.912555219624043"><ele>534.0</ele><time>2026-04-03T15:14:47.941Z</time></trkpt><trkpt lat="45.88182315120274" lon="9.912627055164002"><ele>534.0</ele><time>2026-04-03T15:14:48.941Z</time></trkpt><trkpt lat="45.88187967939031" lon="9.912735462770247"><ele>534.0</ele><time>2026-04-03T15:14:49.941Z</time></trkpt><trkpt lat="45.88193520061811" lon="9.912824600962672"><ele>534.0</ele><time>2026-04-03T15:14:50.941Z</time></trkpt><trkpt lat="45.881974454117355" lon="9.912945299701395"><ele>534.0</ele><time>2026-04-03T15:14:51.941Z</time></trkpt><trkpt lat="45.88201352694439" lon="9.913085862340175"><ele>534.0</ele><time>2026-04-03T15:14:52.941Z</time></trkpt><trkpt lat="45.88203432423658" lon="9.913192508932637"><ele>534.0</ele><time>2026-04-03T15:14:53.941Z</time></trkpt><trkpt lat="45.88202550874132" lon="9.913317303698957"><ele>534.0</ele><time>2026-04-03T15:14:56.941Z</time></trkpt><trkpt lat="45.882013402806415" lon="9.913425813060682"><ele>534.0</ele><time>2026-04-03T15:14:59.941Z</time></trkpt><trkpt lat="45.88195211744366" lon="9.913480584293056"><ele>534.0</ele><time>2026-04-03T15:15:01.941Z</time></trkpt><trkpt lat="45.88187846689171" lon="9.913484321829653"><ele>534.0</ele><time>2026-04-03T15:15:03.941Z</time></trkpt><trkpt lat="45.88180153438364" lon="9.913519938452705"><ele>534.0</ele><time>2026-04-03T15:15:06.947Z</time></trkpt><trkpt lat="45.881752263828325" lon="9.913606158221203"><ele>533.5</ele><time>2026-04-03T15:15:10.947Z</time></trkpt><trkpt lat="45.881686160935025" lon="9.91367441293451"><ele>533.0</ele><time>2026-04-03T15:15:20.947Z</time></trkpt><trkpt lat="45.88168152692181" lon="9.913775032064995"><ele>532.5</ele><time>2026-04-03T15:15:24.947Z</time></trkpt><trkpt lat="45.88176857941063" lon="9.913980437230737"><ele>532.0</ele><time>2026-04-03T15:15:26.947Z</time></trkpt><trkpt lat="45.88182364376051" lon="9.914154106720936"><ele>532.6</ele><time>2026-04-03T15:15:27.947Z</time></trkpt><trkpt lat="45.88185793923159" lon="9.91427230309867"><ele>533.2</ele><time>2026-04-03T15:15:28.947Z</time></trkpt><trkpt lat="45.88188382131547" lon="9.914394696276373"><ele>533.8</ele><time>2026-04-03T15:15:29.947Z</time></trkpt><trkpt lat="45.881899519406794" lon="9.914531994159244"><ele>534.4</ele><time>2026-04-03T15:15:30.947Z</time></trkpt><trkpt lat="45.8819083152162" lon="9.914675612252974"><ele>535.0</ele><time>2026-04-03T15:15:31.947Z</time></trkpt><trkpt lat="45.881911264802184" lon="9.914805165872831"><ele>535.0</ele><time>2026-04-03T15:15:32.947Z</time></trkpt><trkpt lat="45.88191404700839" lon="9.914896040886594"><ele>535.0</ele><time>2026-04-03T15:15:33.947Z</time></trkpt><trkpt lat="45.8819240924575" lon="9.91500168294989"><ele>535.0</ele><time>2026-04-03T15:15:34.947Z</time></trkpt><trkpt lat="45.88186935218523" lon="9.915126612108105"><ele>535.0</ele><time>2026-04-03T15:15:36.947Z</time></trkpt><trkpt lat="45.88183338295819" lon="9.915234619841417"><ele>535.0</ele><time>2026-04-03T15:15:37.947Z</time></trkpt><trkpt lat="45.88181911899847" lon="9.915332700834803"><ele>535.0</ele><time>2026-04-03T15:15:38.947Z</time></trkpt><trkpt lat="45.8818054967982" lon="9.915469989127748"><ele>535.6666666666667</ele><time>2026-04-03T15:15:40.854Z</time></trkpt><trkpt lat="45.8818246279197" lon="9.91560433285499"><ele>536.3333333333334</ele><time>2026-04-03T15:15:43.853Z</time></trkpt><trkpt lat="45.88180748921393" lon="9.91569288539655"><ele>537.0</ele><time>2026-04-03T15:15:45.853Z</time></trkpt><trkpt lat="45.88181820180672" lon="9.915849339902552"><ele>537.6666666666666</ele><time>2026-04-03T15:15:47.853Z</time></trkpt><trkpt lat="45.88184206992042" lon="9.915998431086047"><ele>538.3333333333333</ele><time>2026-04-03T15:15:49.853Z</time></trkpt><trkpt lat="45.88186680350786" lon="9.916095120483664"><ele>539.0</ele><time>2026-04-03T15:15:50.853Z</time></trkpt><trkpt lat="45.88189546632009" lon="9.916185160919193"><ele>539.6666666666666</ele><time>2026-04-03T15:15:51.853Z</time></trkpt><trkpt lat="45.88189821041153" lon="9.91629455228526"><ele>540.3333333333333</ele><time>2026-04-03T15:15:53.853Z</time></trkpt><trkpt lat="45.88187043918052" lon="9.916401898000572"><ele>541.0</ele><time>2026-04-03T15:15:55.853Z</time></trkpt><trkpt lat="45.8818801913265" lon="9.916542078296986"><ele>541.6666666666666</ele><time>2026-04-03T15:15:57.853Z</time></trkpt><trkpt lat="45.881862791162106" lon="9.916666529665722"><ele>542.3333333333334</ele><time>2026-04-03T15:15:59.852Z</time></trkpt><trkpt lat="45.88185689482113" lon="9.916807087955915"><ele>543.0</ele><time>2026-04-03T15:16:01.852Z</time></trkpt><trkpt lat="45.88183687306891" lon="9.916954210825466"><ele>543.8333333333334</ele><time>2026-04-03T15:16:03.852Z</time></trkpt><trkpt lat="45.881828958965315" lon="9.917050773706277"><ele>544.6666666666666</ele><time>2026-04-03T15:16:04.852Z</time></trkpt><trkpt lat="45.88183683120908" lon="9.917157540772918"><ele>545.5</ele><time>2026-04-03T15:16:06.852Z</time></trkpt><trkpt lat="45.88183104419247" lon="9.917255064493059"><ele>546.3333333333333</ele><time>2026-04-03T15:16:07.852Z</time></trkpt><trkpt lat="45.88180102988959" lon="9.917341318779442"><ele>547.1666666666666</ele><time>2026-04-03T15:16:08.852Z</time></trkpt><trkpt lat="45.881726495195" lon="9.917479355652116"><ele>548.0</ele><time>2026-04-03T15:16:10.852Z</time></trkpt><trkpt lat="45.88166331432229" lon="9.917570888423416"><ele>551.5</ele><time>2026-04-03T15:16:11.852Z</time></trkpt><trkpt lat="45.88157213499266" lon="9.91767378678305"><ele>555.0</ele><time>2026-04-03T15:16:12.852Z</time></trkpt><trkpt lat="45.881488915879686" lon="9.917815946958667"><ele>558.5</ele><time>2026-04-03T15:16:13.852Z</time></trkpt><trkpt lat="45.88138524394248" lon="9.917970443903018"><ele>562.0</ele><time>2026-04-03T15:16:14.852Z</time></trkpt><trkpt lat="45.88126868835735" lon="9.918137551516722"><ele>562.0</ele><time>2026-04-03T15:16:15.851Z</time></trkpt><trkpt lat="45.88111302120691" lon="9.91834789568188"><ele>562.0</ele><time>2026-04-03T15:16:16.851Z</time></trkpt><trkpt lat="45.880963421018066" lon="9.918586294200498"><ele>562.0</ele><time>2026-04-03T15:16:17.851Z</time></trkpt><trkpt lat="45.880831759501035" lon="9.918805565597518"><ele>563.0</ele><time>2026-04-03T15:16:18.851Z</time></trkpt><trkpt lat="45.88072176482072" lon="9.91898252437308"><ele>564.0</ele><time>2026-04-03T15:16:19.851Z</time></trkpt><trkpt lat="45.88060095679382" lon="9.919171941825299"><ele>565.0</ele><time>2026-04-03T15:16:20.851Z</time></trkpt><trkpt lat="45.88049573352931" lon="9.91934553995683"><ele>565.75</ele><time>2026-04-03T15:16:21.851Z</time></trkpt><trkpt lat="45.880403009386725" lon="9.91949973778557"><ele>566.5</ele><time>2026-04-03T15:16:22.851Z</time></trkpt><trkpt lat="45.88034046312234" lon="9.919640341782928"><ele>567.25</ele><time>2026-04-03T15:16:23.851Z</time></trkpt><trkpt lat="45.88030963783663" lon="9.91978953137519"><ele>568.0</ele><time>2026-04-03T15:16:24.851Z</time></trkpt><trkpt lat="45.880270084007115" lon="9.919906591311118"><ele>568.5</ele><time>2026-04-03T15:16:25.851Z</time></trkpt><trkpt lat="45.88020312359943" lon="9.920082146010616"><ele>569.0</ele><time>2026-04-03T15:16:26.851Z</time></trkpt><trkpt lat="45.880136727173905" lon="9.920226305785135"><ele>569.5</ele><time>2026-04-03T15:16:27.851Z</time></trkpt><trkpt lat="45.88006938030833" lon="9.920343656550756"><ele>570.0</ele><time>2026-04-03T15:16:28.851Z</time></trkpt><trkpt lat="45.88001956582788" lon="9.920458732414565"><ele>568.0</ele><time>2026-04-03T15:16:29.851Z</time></trkpt><trkpt lat="45.8799488220151" lon="9.920635148117825"><ele>566.0</ele><time>2026-04-03T15:16:30.851Z</time></trkpt><trkpt lat="45.87985529370063" lon="9.920806653203078"><ele>564.0</ele><time>2026-04-03T15:16:31.851Z</time></trkpt><trkpt lat="45.8797617928962" lon="9.92096059498178"><ele>562.0</ele><time>2026-04-03T15:16:32.85Z</time></trkpt><trkpt lat="45.87966600828269" lon="9.92113308225981"><ele>562.0</ele><time>2026-04-03T15:16:33.85Z</time></trkpt><trkpt lat="45.87960351677831" lon="9.921379713623642"><ele>562.0</ele><time>2026-04-03T15:16:34.85Z</time></trkpt><trkpt lat="45.879498060987615" lon="9.921549584783662"><ele>562.0</ele><time>2026-04-03T15:16:35.85Z</time></trkpt><trkpt lat="45.87942711240177" lon="9.921786062931545"><ele>563.0</ele><time>2026-04-03T15:16:36.85Z</time></trkpt><trkpt lat="45.879340095790425" lon="9.922016274192474"><ele>564.0</ele><time>2026-04-03T15:16:37.85Z</time></trkpt><trkpt lat="45.87926412600178" lon="9.92220720516587"><ele>565.0</ele><time>2026-04-03T15:16:38.85Z</time></trkpt><trkpt lat="45.879187257742295" lon="9.922387318580325"><ele>563.5</ele><time>2026-04-03T15:16:39.85Z</time></trkpt><trkpt lat="45.87912157695289" lon="9.922546620847069"><ele>562.0</ele><time>2026-04-03T15:16:40.85Z</time></trkpt><trkpt lat="45.87905529138733" lon="9.922698246776157"><ele>560.5</ele><time>2026-04-03T15:16:41.85Z</time></trkpt><trkpt lat="45.878997280673424" lon="9.922842231057059"><ele>559.0</ele><time>2026-04-03T15:16:42.85Z</time></trkpt><trkpt lat="45.87894511272799" lon="9.922977741857066"><ele>559.0</ele><time>2026-04-03T15:16:43.85Z</time></trkpt><trkpt lat="45.87887963629446" lon="9.923100425642057"><ele>559.0</ele><time>2026-04-03T15:16:44.85Z</time></trkpt><trkpt lat="45.87882429627141" lon="9.923222994777747"><ele>559.0</ele><time>2026-04-03T15:16:45.85Z</time></trkpt><trkpt lat="45.878774381077" lon="9.923314610159245"><ele>559.0</ele><time>2026-04-03T15:16:46.85Z</time></trkpt><trkpt lat="45.878723257017704" lon="9.923404710017786"><ele>559.0</ele><time>2026-04-03T15:16:47.85Z</time></trkpt><trkpt lat="45.87865140887514" lon="9.92344755031575"><ele>559.0</ele><time>2026-04-03T15:16:48.85Z</time></trkpt><trkpt lat="45.87857966551433" lon="9.923463108531573"><ele>560.0</ele><time>2026-04-03T15:16:50.849Z</time></trkpt><trkpt lat="45.87851483462035" lon="9.923590186587255"><ele>561.0</ele><time>2026-04-03T15:16:53.849Z</time></trkpt><trkpt lat="45.87852856671198" lon="9.923701994226079"><ele>562.0</ele><time>2026-04-03T15:16:54.849Z</time></trkpt><trkpt lat="45.87852913586552" lon="9.923842761785538"><ele>563.0</ele><time>2026-04-03T15:16:55.849Z</time></trkpt><trkpt lat="45.87847460740148" lon="9.92398518723678"><ele>564.0</ele><time>2026-04-03T15:16:56.849Z</time></trkpt><trkpt lat="45.87841369954004" lon="9.924104273825112"><ele>562.4</ele><time>2026-04-03T15:16:57.849Z</time></trkpt><trkpt lat="45.87835620610269" lon="9.924208991654654"><ele>560.8</ele><time>2026-04-03T15:16:58.849Z</time></trkpt><trkpt lat="45.878310181556664" lon="9.924287292044397"><ele>559.2</ele><time>2026-04-03T15:16:59.849Z</time></trkpt><trkpt lat="45.878233921307675" lon="9.924374169031791"><ele>557.6</ele><time>2026-04-03T15:17:01.849Z</time></trkpt><trkpt lat="45.878181845091916" lon="9.924461663734954"><ele>556.0</ele><time>2026-04-03T15:17:26.854Z</time></trkpt><trkpt lat="45.87806403363953" lon="9.92455262848932"><ele>556.0</ele><time>2026-04-03T15:17:28.854Z</time></trkpt><trkpt lat="45.87800566553672" lon="9.924699084182162"><ele>556.0</ele><time>2026-04-03T15:17:29.854Z</time></trkpt><trkpt lat="45.87797376825146" lon="9.924852892850954"><ele>556.0</ele><time>2026-04-03T15:17:30.854Z</time></trkpt><trkpt lat="45.87794049496302" lon="9.92502664662901"><ele>556.0</ele><time>2026-04-03T15:17:31.854Z</time></trkpt><trkpt lat="45.87790444490617" lon="9.925207175795556"><ele>556.5</ele><time>2026-04-03T15:17:32.854Z</time></trkpt><trkpt lat="45.87786830081386" lon="9.925388151657055"><ele>557.0</ele><time>2026-04-03T15:17:33.854Z</time></trkpt><trkpt lat="45.87784735966617" lon="9.925580395050273"><ele>557.5</ele><time>2026-04-03T15:17:34.853Z</time></trkpt><trkpt lat="45.877806858394905" lon="9.925775260757076"><ele>558.0</ele><time>2026-04-03T15:17:35.853Z</time></trkpt><trkpt lat="45.877776514520335" lon="9.925967413323605"><ele>558.25</ele><time>2026-04-03T15:17:36.853Z</time></trkpt><trkpt lat="45.877759406840994" lon="9.926159522773581"><ele>558.5</ele><time>2026-04-03T15:17:37.853Z</time></trkpt><trkpt lat="45.877758005372684" lon="9.926350569463057"><ele>558.75</ele><time>2026-04-03T15:17:38.853Z</time></trkpt><trkpt lat="45.877755386697395" lon="9.926539125775266"><ele>559.0</ele><time>2026-04-03T15:17:39.853Z</time></trkpt><trkpt lat="45.877746394410075" lon="9.926720217433209"><ele>559.75</ele><time>2026-04-03T15:17:40.853Z</time></trkpt><trkpt lat="45.87771114165786" lon="9.926888733705029"><ele>560.5</ele><time>2026-04-03T15:17:41.853Z</time></trkpt><trkpt lat="45.87765316649456" lon="9.927046637063189"><ele>561.25</ele><time>2026-04-03T15:17:42.853Z</time></trkpt><trkpt lat="45.87756026363613" lon="9.927137458215567"><ele>562.0</ele><time>2026-04-03T15:17:43.853Z</time></trkpt><trkpt lat="45.87746914055305" lon="9.92725024870729"><ele>563.25</ele><time>2026-04-03T15:17:44.853Z</time></trkpt><trkpt lat="45.8773699638797" lon="9.927370769050649"><ele>564.5</ele><time>2026-04-03T15:17:45.853Z</time></trkpt><trkpt lat="45.87728527504502" lon="9.927529158185317"><ele>565.75</ele><time>2026-04-03T15:17:46.853Z</time></trkpt><trkpt lat="45.87721370579199" lon="9.927712025314893"><ele>567.0</ele><time>2026-04-03T15:17:47.853Z</time></trkpt><trkpt lat="45.87714354953585" lon="9.92790714731041"><ele>569.0</ele><time>2026-04-03T15:17:48.853Z</time></trkpt><trkpt lat="45.87707511407037" lon="9.928103987616018"><ele>571.0</ele><time>2026-04-03T15:17:49.853Z</time></trkpt><trkpt lat="45.87700854057739" lon="9.928297420887445"><ele>573.0</ele><time>2026-04-03T15:17:50.853Z</time></trkpt><trkpt lat="45.8769279780012" lon="9.928471209411445"><ele>575.0</ele><time>2026-04-03T15:17:51.852Z</time></trkpt><trkpt lat="45.87685648344808" lon="9.928653169969323"><ele>575.0</ele><time>2026-04-03T15:17:52.852Z</time></trkpt><trkpt lat="45.87678827817017" lon="9.92884385856523"><ele>575.0</ele><time>2026-04-03T15:17:53.852Z</time></trkpt><trkpt lat="45.87672061356339" lon="9.929018551054673"><ele>575.0</ele><time>2026-04-03T15:17:54.852Z</time></trkpt><trkpt lat="45.876646475174816" lon="9.929185710181342"><ele>575.0</ele><time>2026-04-03T15:17:55.852Z</time></trkpt><trkpt lat="45.87657688909408" lon="9.929352547620082"><ele>577.0</ele><time>2026-04-03T15:17:56.852Z</time></trkpt><trkpt lat="45.876508395066615" lon="9.929539553886404"><ele>579.0</ele><time>2026-04-03T15:17:57.852Z</time></trkpt><trkpt lat="45.876448377804884" lon="9.929751291555283"><ele>581.0</ele><time>2026-04-03T15:17:58.852Z</time></trkpt><trkpt lat="45.876372181896386" lon="9.929956779218434"><ele>583.5</ele><time>2026-04-03T15:17:59.852Z</time></trkpt><trkpt lat="45.876310335780396" lon="9.930159102551366"><ele>586.0</ele><time>2026-04-03T15:18:00.852Z</time></trkpt><trkpt lat="45.876253958854136" lon="9.930350334086855"><ele>588.5</ele><time>2026-04-03T15:18:01.852Z</time></trkpt><trkpt lat="45.876202913376765" lon="9.93052693974777"><ele>591.0</ele><time>2026-04-03T15:18:02.852Z</time></trkpt><trkpt lat="45.87614818787205" lon="9.930674148017989"><ele>591.0</ele><time>2026-04-03T15:18:03.852Z</time></trkpt><trkpt lat="45.87609430401782" lon="9.930796673128654"><ele>591.0</ele><time>2026-04-03T15:18:04.852Z</time></trkpt><trkpt lat="45.876058582659596" lon="9.93092046740952"><ele>591.0</ele><time>2026-04-03T15:18:05.852Z</time></trkpt><trkpt lat="45.876025860147635" lon="9.931025113564731"><ele>591.0</ele><time>2026-04-03T15:18:06.852Z</time></trkpt><trkpt lat="45.87600304843246" lon="9.931147187246136"><ele>591.0</ele><time>2026-04-03T15:18:07.851Z</time></trkpt><trkpt lat="45.87598907992922" lon="9.931257290982954"><ele>591.0</ele><time>2026-04-03T15:18:08.851Z</time></trkpt><trkpt lat="45.87598674070976" lon="9.931363873102164"><ele>589.8</ele><time>2026-04-03T15:18:09.851Z</time></trkpt><trkpt lat="45.87595389518493" lon="9.931446500474497"><ele>588.6</ele><time>2026-04-03T15:18:10.851Z</time></trkpt><trkpt lat="45.87593414679125" lon="9.931543049304093"><ele>587.4</ele><time>2026-04-03T15:18:11.851Z</time></trkpt><trkpt lat="45.8758935570239" lon="9.931666150602613"><ele>586.2</ele><time>2026-04-03T15:18:12.851Z</time></trkpt><trkpt lat="45.87582366359394" lon="9.93179761081173"><ele>585.0</ele><time>2026-04-03T15:18:13.851Z</time></trkpt><trkpt lat="45.875749406558946" lon="9.931908822835085"><ele>587.8</ele><time>2026-04-03T15:18:14.851Z</time></trkpt><trkpt lat="45.875695834855414" lon="9.931994688144787"><ele>590.6</ele><time>2026-04-03T15:18:15.851Z</time></trkpt><trkpt lat="45.875645473722415" lon="9.932075587974712"><ele>593.4</ele><time>2026-04-03T15:18:16.851Z</time></trkpt><trkpt lat="45.87558705850586" lon="9.932169424163797"><ele>596.2</ele><time>2026-04-03T15:18:17.851Z</time></trkpt><trkpt lat="45.87552325306206" lon="9.932271916059495"><ele>599.0</ele><time>2026-04-03T15:18:18.851Z</time></trkpt><trkpt lat="45.875436640407564" lon="9.932411043606484"><ele>600.3333333333333</ele><time>2026-04-03T15:18:19.851Z</time></trkpt><trkpt lat="45.87534307662471" lon="9.932561336880063"><ele>601.6666666666666</ele><time>2026-04-03T15:18:20.851Z</time></trkpt><trkpt lat="45.87510228771759" lon="9.932539656529315"><ele>603.0</ele><time>2026-04-03T15:18:21.851Z</time></trkpt><trkpt lat="45.874948806037835" lon="9.932647753016944"><ele>603.0</ele><time>2026-04-03T15:18:22.851Z</time></trkpt><trkpt lat="45.87479516417447" lon="9.932747959168712"><ele>603.0</ele><time>2026-04-03T15:18:23.851Z</time></trkpt><trkpt lat="45.87465088023952" lon="9.932850695319406"><ele>603.0</ele><time>2026-04-03T15:18:24.85Z</time></trkpt><trkpt lat="45.87452421120791" lon="9.932966163409437"><ele>603.0</ele><time>2026-04-03T15:18:25.85Z</time></trkpt><trkpt lat="45.87441161795025" lon="9.933092124809827"><ele>603.0</ele><time>2026-04-03T15:18:26.85Z</time></trkpt><trkpt lat="45.87430661136047" lon="9.933224032781903"><ele>603.0</ele><time>2026-04-03T15:18:27.85Z</time></trkpt><trkpt lat="45.87420722642415" lon="9.933367315350575"><ele>603.0</ele><time>2026-04-03T15:18:28.85Z</time></trkpt><trkpt lat="45.874095144660735" lon="9.933504700272767"><ele>604.3333333333334</ele><time>2026-04-03T15:18:29.85Z</time></trkpt><trkpt lat="45.873966213059425" lon="9.933645888280672"><ele>605.6666666666667</ele><time>2026-04-03T15:18:30.85Z</time></trkpt><trkpt lat="45.873849169943156" lon="9.93379709353235"><ele>607.0</ele><time>2026-04-03T15:18:31.85Z</time></trkpt><trkpt lat="45.873718765858044" lon="9.933967795265973"><ele>607.0</ele><time>2026-04-03T15:18:32.85Z</time></trkpt><trkpt lat="45.873599763347435" lon="9.934136763037106"><ele>607.0</ele><time>2026-04-03T15:18:33.85Z</time></trkpt><trkpt lat="45.873475982233586" lon="9.934292494161028"><ele>607.0</ele><time>2026-04-03T15:18:34.85Z</time></trkpt><trkpt lat="45.873350811128134" lon="9.934437786870486"><ele>608.6666666666667</ele><time>2026-04-03T15:18:35.85Z</time></trkpt><trkpt lat="45.873216261659366" lon="9.934590463047295"><ele>610.3333333333334</ele><time>2026-04-03T15:18:36.85Z</time></trkpt><trkpt lat="45.873082610477525" lon="9.934740558952226"><ele>612.0</ele><time>2026-04-03T15:18:37.85Z</time></trkpt><trkpt lat="45.872948756221795" lon="9.934901872649794"><ele>612.0</ele><time>2026-04-03T15:18:38.85Z</time></trkpt><trkpt lat="45.87284246182656" lon="9.935051276556953"><ele>612.0</ele><time>2026-04-03T15:18:39.85Z</time></trkpt><trkpt lat="45.87273149456786" lon="9.935184457122334"><ele>612.0</ele><time>2026-04-03T15:18:40.85Z</time></trkpt><trkpt lat="45.872615705843735" lon="9.935269973125484"><ele>612.0</ele><time>2026-04-03T15:18:41.849Z</time></trkpt><trkpt lat="45.87249981216235" lon="9.935327098615753"><ele>612.2</ele><time>2026-04-03T15:18:42.849Z</time></trkpt><trkpt lat="45.87239921445899" lon="9.935394868348194"><ele>612.4000000000001</ele><time>2026-04-03T15:18:43.849Z</time></trkpt><trkpt lat="45.87231525727236" lon="9.935493517355079"><ele>612.5999999999999</ele><time>2026-04-03T15:18:44.849Z</time></trkpt><trkpt lat="45.872260283694324" lon="9.935622148282656"><ele>612.8</ele><time>2026-04-03T15:18:45.849Z</time></trkpt><trkpt lat="45.872181342729384" lon="9.935754479101606"><ele>613.0</ele><time>2026-04-03T15:18:46.849Z</time></trkpt><trkpt lat="45.87208323872234" lon="9.93589604798172"><ele>613.4</ele><time>2026-04-03T15:18:47.849Z</time></trkpt><trkpt lat="45.87200218488856" lon="9.935986969388834"><ele>613.8</ele><time>2026-04-03T15:18:48.849Z</time></trkpt><trkpt lat="45.871951642556226" lon="9.936093984972633"><ele>614.2</ele><time>2026-04-03T15:18:49.849Z</time></trkpt><trkpt lat="45.87188622644305" lon="9.93616867007655"><ele>614.6</ele><time>2026-04-03T15:18:50.849Z</time></trkpt><trkpt lat="45.87179877370389" lon="9.936247698269021"><ele>615.0</ele><time>2026-04-03T15:18:51.849Z</time></trkpt><trkpt lat="45.87170931518916" lon="9.936342113861047"><ele>615.0</ele><time>2026-04-03T15:18:52.849Z</time></trkpt><trkpt lat="45.87160829238682" lon="9.936452233725682"><ele>615.0</ele><time>2026-04-03T15:18:53.849Z</time></trkpt><trkpt lat="45.871515248221634" lon="9.936546924420789"><ele>615.0</ele><time>2026-04-03T15:18:54.849Z</time></trkpt><trkpt lat="45.8714187683989" lon="9.936619728287184"><ele>615.0</ele><time>2026-04-03T15:18:55.849Z</time></trkpt><trkpt lat="45.87131689605031" lon="9.936704787203942"><ele>615.75</ele><time>2026-04-03T15:18:56.849Z</time></trkpt><trkpt lat="45.87120647764981" lon="9.936787208887322"><ele>616.5</ele><time>2026-04-03T15:18:57.848Z</time></trkpt><trkpt lat="45.871073145432185" lon="9.936897620134102"><ele>617.25</ele><time>2026-04-03T15:18:58.848Z</time></trkpt><trkpt lat="45.870972592392164" lon="9.936991015919196"><ele>618.0</ele><time>2026-04-03T15:18:59.848Z</time></trkpt><trkpt lat="45.870867676209734" lon="9.937117861149487"><ele>618.0</ele><time>2026-04-03T15:19:00.848Z</time></trkpt><trkpt lat="45.870756967050525" lon="9.937264394676177"><ele>618.0</ele><time>2026-04-03T15:19:01.848Z</time></trkpt><trkpt lat="45.870676943174146" lon="9.937393312882623"><ele>618.0</ele><time>2026-04-03T15:19:02.848Z</time></trkpt><trkpt lat="45.87060828134086" lon="9.937527804785995"><ele>618.0</ele><time>2026-04-03T15:19:03.848Z</time></trkpt><trkpt lat="45.87056210805068" lon="9.937621472938144"><ele>620.6</ele><time>2026-04-03T15:19:04.848Z</time></trkpt><trkpt lat="45.870519581005226" lon="9.937723421265154"><ele>623.1999999999999</ele><time>2026-04-03T15:19:05.848Z</time></trkpt><trkpt lat="45.870456831860714" lon="9.93783972551957"><ele>625.8</ele><time>2026-04-03T15:19:06.848Z</time></trkpt><trkpt lat="45.870405526412945" lon="9.937946630346332"><ele>628.4</ele><time>2026-04-03T15:19:08.848Z</time></trkpt><trkpt lat="45.8703613633481" lon="9.93804440528936"><ele>631.0</ele><time>2026-04-03T15:19:10.848Z</time></trkpt><trkpt lat="45.87047134156981" lon="9.938134309026609"><ele>631.0</ele><time>2026-04-03T15:19:16.847Z</time></trkpt><trkpt lat="45.87055763445027" lon="9.938195402505407"><ele>631.0</ele><time>2026-04-03T15:19:18.853Z</time></trkpt><trkpt lat="45.87063100143126" lon="9.938181964210635"><ele>631.0</ele><time>2026-04-03T15:19:21.853Z</time></trkpt><trkpt lat="45.870671003248574" lon="9.938077870691583"><ele>631.0</ele><time>2026-04-03T15:19:23.853Z</time></trkpt><trkpt lat="45.870741752160185" lon="9.938037266821317"><ele>631.0</ele><time>2026-04-03T15:19:24.853Z</time></trkpt><trkpt lat="45.87083040064597" lon="9.937990875085292"><ele>631.0</ele><time>2026-04-03T15:19:25.853Z</time></trkpt><trkpt lat="45.87088659039019" lon="9.937912338041857"><ele>631.0</ele><time>2026-04-03T15:19:26.854Z</time></trkpt><trkpt lat="45.870972455156966" lon="9.937822487923988"><ele>631.0</ele><time>2026-04-03T15:19:27.853Z</time></trkpt><trkpt lat="45.87102202773632" lon="9.937691656834083"><ele>631.0</ele><time>2026-04-03T15:19:29.853Z</time></trkpt><trkpt lat="45.87109093768922" lon="9.937584964694906"><ele>631.0</ele><time>2026-04-03T15:19:31.853Z</time></trkpt><trkpt lat="45.87113919537611" lon="9.937458079169751"><ele>631.0</ele><time>2026-04-03T15:19:32.853Z</time></trkpt><trkpt lat="45.87124292869714" lon="9.937364807547574"><ele>631.0</ele><time>2026-04-03T15:19:33.853Z</time></trkpt><trkpt lat="45.8713155554256" lon="9.937281214595606"><ele>631.0</ele><time>2026-04-03T15:19:34.853Z</time></trkpt><trkpt lat="45.87139670828806" lon="9.93718473680523"><ele>631.0</ele><time>2026-04-03T15:19:35.853Z</time></trkpt><trkpt lat="45.87149003589046" lon="9.937083726113906"><ele>631.0</ele><time>2026-04-03T15:19:36.853Z</time></trkpt><trkpt lat="45.871582509238905" lon="9.937017250504702"><ele>631.0</ele><time>2026-04-03T15:19:37.853Z</time></trkpt><trkpt lat="45.871693560020084" lon="9.936936436590958"><ele>632.4</ele><time>2026-04-03T15:19:38.853Z</time></trkpt><trkpt lat="45.8717936088584" lon="9.936857248637795"><ele>633.8</ele><time>2026-04-03T15:19:39.853Z</time></trkpt><trkpt lat="45.871863509418006" lon="9.936815052134936"><ele>635.1999999999999</ele><time>2026-04-03T15:19:40.853Z</time></trkpt><trkpt lat="45.871965891619794" lon="9.936788527809727"><ele>636.6</ele><time>2026-04-03T15:19:42.853Z</time></trkpt><trkpt lat="45.87202950076008" lon="9.936699115650296"><ele>638.0</ele><time>2026-04-03T15:19:44.853Z</time></trkpt><trkpt lat="45.87210541424633" lon="9.936672054828168"><ele>638.0</ele><time>2026-04-03T15:19:45.852Z</time></trkpt><trkpt lat="45.87217791837216" lon="9.936624712209952"><ele>638.0</ele><time>2026-04-03T15:19:47.852Z</time></trkpt><trkpt lat="45.87224298064346" lon="9.936524963488083"><ele>638.0</ele><time>2026-04-03T15:19:50.852Z</time></trkpt><trkpt lat="45.87229785328588" lon="9.93644285415431"><ele>638.0</ele><time>2026-04-03T15:19:51.852Z</time></trkpt><trkpt lat="45.87236323979888" lon="9.93634370777951"><ele>638.0</ele><time>2026-04-03T15:19:52.852Z</time></trkpt><trkpt lat="45.87244291964624" lon="9.93628966984638"><ele>638.0</ele><time>2026-04-03T15:19:53.852Z</time></trkpt><trkpt lat="45.87251614607109" lon="9.936238281613488"><ele>638.1999999999999</ele><time>2026-04-03T15:19:54.852Z</time></trkpt><trkpt lat="45.8726096706731" lon="9.936191970376841"><ele>638.4</ele><time>2026-04-03T15:19:56.852Z</time></trkpt><trkpt lat="45.8726652307953" lon="9.9361193136843"><ele>638.5999999999999</ele><time>2026-04-03T15:19:57.852Z</time></trkpt><trkpt lat="45.872746376669575" lon="9.936054368682136"><ele>638.8</ele><time>2026-04-03T15:19:58.852Z</time></trkpt><trkpt lat="45.872846473936534" lon="9.935969664038735"><ele>639.0</ele><time>2026-04-03T15:19:59.852Z</time></trkpt><trkpt lat="45.87294949938507" lon="9.935884119883818"><ele>639.0</ele><time>2026-04-03T15:20:00.852Z</time></trkpt><trkpt lat="45.87303749167888" lon="9.935792174292938"><ele>639.0</ele><time>2026-04-03T15:20:01.851Z</time></trkpt><trkpt lat="45.873114492261685" lon="9.93569062832921"><ele>639.0</ele><time>2026-04-03T15:20:02.851Z</time></trkpt><trkpt lat="45.873182495054564" lon="9.935590853164047"><ele>639.0</ele><time>2026-04-03T15:20:03.851Z</time></trkpt><trkpt lat="45.87325654390417" lon="9.935541776487248"><ele>639.0</ele><time>2026-04-03T15:20:04.851Z</time></trkpt><trkpt lat="45.87334915287787" lon="9.935496470422056"><ele>641.4</ele><time>2026-04-03T15:20:05.851Z</time></trkpt><trkpt lat="45.87347028288889" lon="9.935425639206368"><ele>643.8</ele><time>2026-04-03T15:20:06.851Z</time></trkpt><trkpt lat="45.873588881593165" lon="9.935392140358427"><ele>646.1999999999999</ele><time>2026-04-03T15:20:07.851Z</time></trkpt><trkpt lat="45.87368893528623" lon="9.935342099915665"><ele>648.5999999999999</ele><time>2026-04-03T15:20:08.851Z</time></trkpt><trkpt lat="45.87376251398401" lon="9.935296815595608"><ele>651.0</ele><time>2026-04-03T15:20:09.851Z</time></trkpt><trkpt lat="45.87387840673461" lon="9.935221050769018"><ele>651.0</ele><time>2026-04-03T15:20:10.851Z</time></trkpt><trkpt lat="45.87396964599735" lon="9.935132151429736"><ele>651.0</ele><time>2026-04-03T15:20:11.851Z</time></trkpt><trkpt lat="45.87403394207212" lon="9.935012885442031"><ele>651.0</ele><time>2026-04-03T15:20:12.851Z</time></trkpt><trkpt lat="45.874109524337655" lon="9.934897455741805"><ele>651.0</ele><time>2026-04-03T15:20:13.851Z</time></trkpt><trkpt lat="45.874167306135284" lon="9.934819396955366"><ele>651.0</ele><time>2026-04-03T15:20:14.851Z</time></trkpt><trkpt lat="45.87424612820267" lon="9.93481373764078"><ele>648.6666666666666</ele><time>2026-04-03T15:20:16.851Z</time></trkpt><trkpt lat="45.87434261415201" lon="9.934830845338471"><ele>646.3333333333334</ele><time>2026-04-03T15:20:17.851Z</time></trkpt><trkpt lat="45.87441872269796" lon="9.934879380739114"><ele>644.0</ele><time>2026-04-03T15:20:18.85Z</time></trkpt><trkpt lat="45.87448593036047" lon="9.93492020103302"><ele>641.6666666666667</ele><time>2026-04-03T15:20:19.85Z</time></trkpt><trkpt lat="45.87454469688941" lon="9.934974559133247"><ele>639.3333333333334</ele><time>2026-04-03T15:20:20.85Z</time></trkpt><trkpt lat="45.87461091424298" lon="9.93505869288074"><ele>637.0</ele><time>2026-04-03T15:20:22.85Z</time></trkpt><trkpt lat="45.87466508270763" lon="9.935156419831543"><ele>635.1666666666667</ele><time>2026-04-03T15:20:24.85Z</time></trkpt><trkpt lat="45.87467954337732" lon="9.935284174651699"><ele>633.3333333333334</ele><time>2026-04-03T15:20:26.85Z</time></trkpt><trkpt lat="45.87464695990049" lon="9.935408420289434"><ele>631.5</ele><time>2026-04-03T15:20:28.85Z</time></trkpt><trkpt lat="45.874625855313994" lon="9.93550702716019"><ele>629.6666666666666</ele><time>2026-04-03T15:20:30.85Z</time></trkpt><trkpt lat="45.87463996082954" lon="9.935621514764117"><ele>627.8333333333333</ele><time>2026-04-03T15:20:32.85Z</time></trkpt><trkpt lat="45.87465416869988" lon="9.935772603072442"><ele>626.0</ele><time>2026-04-03T15:20:34.85Z</time></trkpt><trkpt lat="45.87466786229219" lon="9.935871335331383"><ele>622.6</ele><time>2026-04-03T15:20:38.849Z</time></trkpt><trkpt lat="45.874680989047974" lon="9.936026756133689"><ele>619.2</ele><time>2026-04-03T15:20:40.849Z</time></trkpt><trkpt lat="45.874678789307914" lon="9.936170299131687"><ele>615.8</ele><time>2026-04-03T15:20:41.849Z</time></trkpt><trkpt lat="45.87470647292929" lon="9.936308362368155"><ele>612.4</ele><time>2026-04-03T15:20:42.849Z</time></trkpt><trkpt lat="45.8747350200934" lon="9.936430434009996"><ele>609.0</ele><time>2026-04-03T15:20:43.849Z</time></trkpt><trkpt lat="45.87477531033528" lon="9.9365499024481"><ele>609.0</ele><time>2026-04-03T15:20:44.849Z</time></trkpt><trkpt lat="45.87481347745685" lon="9.936680797761735"><ele>609.0</ele><time>2026-04-03T15:20:45.849Z</time></trkpt><trkpt lat="45.8748547363874" lon="9.936813440024139"><ele>609.0</ele><time>2026-04-03T15:20:46.849Z</time></trkpt><trkpt lat="45.87490168690446" lon="9.936946496347721"><ele>609.0</ele><time>2026-04-03T15:20:47.849Z</time></trkpt><trkpt lat="45.87493444215828" lon="9.9370657701716"><ele>609.0</ele><time>2026-04-03T15:20:48.849Z</time></trkpt><trkpt lat="45.874985896317014" lon="9.937196007436379"><ele>607.5</ele><time>2026-04-03T15:20:49.849Z</time></trkpt><trkpt lat="45.87503553532184" lon="9.937339702393363"><ele>606.0</ele><time>2026-04-03T15:20:50.849Z</time></trkpt><trkpt lat="45.875096873284065" lon="9.937497564772649"><ele>604.5</ele><time>2026-04-03T15:20:51.848Z</time></trkpt><trkpt lat="45.87512987377838" lon="9.937653079514227"><ele>603.0</ele><time>2026-04-03T15:20:52.848Z</time></trkpt><trkpt lat="45.87515501718096" lon="9.937802263470184"><ele>600.1666666666666</ele><time>2026-04-03T15:20:53.848Z</time></trkpt><trkpt lat="45.875173710526184" lon="9.937939442340404"><ele>597.3333333333334</ele><time>2026-04-03T15:20:54.848Z</time></trkpt><trkpt lat="45.87520261581198" lon="9.938087429272795"><ele>594.5</ele><time>2026-04-03T15:20:55.848Z</time></trkpt><trkpt lat="45.87522618429322" lon="9.938196178556257"><ele>591.6666666666667</ele><time>2026-04-03T15:20:56.848Z</time></trkpt><trkpt lat="45.87524339109658" lon="9.938301319492384"><ele>588.8333333333334</ele><time>2026-04-03T15:20:58.848Z</time></trkpt><trkpt lat="45.87524801092888" lon="9.93839725652752"><ele>586.0</ele><time>2026-04-03T15:21:03.848Z</time></trkpt><trkpt lat="45.875213230807645" lon="9.938506946353193"><ele>585.6</ele><time>2026-04-03T15:23:48.852Z</time></trkpt><trkpt lat="45.875215141543414" lon="9.938627299896611"><ele>585.2</ele><time>2026-04-03T15:23:51.852Z</time></trkpt><trkpt lat="45.87526311408827" lon="9.938842077497927"><ele>584.8</ele><time>2026-04-03T15:23:53.852Z</time></trkpt><trkpt lat="45.87529095675343" lon="9.93895145861233"><ele>584.4</ele><time>2026-04-03T15:23:54.851Z</time></trkpt><trkpt lat="45.87533144690493" lon="9.939072803483548"><ele>584.0</ele><time>2026-04-03T15:23:55.851Z</time></trkpt><trkpt lat="45.875356168579195" lon="9.939220129007998"><ele>584.0</ele><time>2026-04-03T15:23:56.851Z</time></trkpt><trkpt lat="45.87537407225944" lon="9.939343128382692"><ele>584.0</ele><time>2026-04-03T15:23:57.851Z</time></trkpt><trkpt lat="45.87539461325693" lon="9.939434065004775"><ele>584.0</ele><time>2026-04-03T15:23:58.851Z</time></trkpt><trkpt lat="45.87542797622129" lon="9.939514337259828"><ele>584.0</ele><time>2026-04-03T15:23:59.851Z</time></trkpt><trkpt lat="45.875505155284905" lon="9.939579280577627"><ele>584.0</ele><time>2026-04-03T15:24:01.851Z</time></trkpt><trkpt lat="45.87554015030554" lon="9.93967086228355"><ele>584.0</ele><time>2026-04-03T15:24:04.851Z</time></trkpt><trkpt lat="45.87558602359748" lon="9.93977231094429"><ele>584.0</ele><time>2026-04-03T15:24:05.851Z</time></trkpt><trkpt lat="45.875652192037606" lon="9.939817964595996"><ele>584.0</ele><time>2026-04-03T15:24:06.851Z</time></trkpt><trkpt lat="45.87572413600462" lon="9.939862773367821"><ele>584.0</ele><time>2026-04-03T15:24:08.851Z</time></trkpt><trkpt lat="45.87580454477557" lon="9.939875733567566"><ele>584.0</ele><time>2026-04-03T15:24:09.851Z</time></trkpt><trkpt lat="45.8758964570548" lon="9.939956703164965"><ele>584.0</ele><time>2026-04-03T15:24:11.85Z</time></trkpt><trkpt lat="45.875964515473704" lon="9.940113258609202"><ele>583.2</ele><time>2026-04-03T15:24:13.85Z</time></trkpt><trkpt lat="45.87601280599068" lon="9.940261539796355"><ele>582.4</ele><time>2026-04-03T15:24:15.85Z</time></trkpt><trkpt lat="45.87605921360614" lon="9.9403578553864"><ele>581.6</ele><time>2026-04-03T15:24:16.85Z</time></trkpt><trkpt lat="45.87612136995443" lon="9.94046565351228"><ele>580.8</ele><time>2026-04-03T15:24:17.85Z</time></trkpt><trkpt lat="45.87617820507914" lon="9.940578146842574"><ele>580.0</ele><time>2026-04-03T15:24:18.85Z</time></trkpt><trkpt lat="45.87622772870849" lon="9.940660635490927"><ele>580.0</ele><time>2026-04-03T15:24:19.85Z</time></trkpt><trkpt lat="45.87628147966015" lon="9.940744344839121"><ele>580.0</ele><time>2026-04-03T15:24:20.85Z</time></trkpt><trkpt lat="45.87633496737768" lon="9.940807253531217"><ele>580.0</ele><time>2026-04-03T15:24:21.85Z</time></trkpt><trkpt lat="45.876442332231825" lon="9.94092563461092"><ele>580.0</ele><time>2026-04-03T15:24:23.85Z</time></trkpt><trkpt lat="45.87652132266377" lon="9.941035112792164"><ele>580.0</ele><time>2026-04-03T15:24:25.85Z</time></trkpt><trkpt lat="45.87657451447924" lon="9.941121110467797"><ele>579.8333333333334</ele><time>2026-04-03T15:24:26.85Z</time></trkpt><trkpt lat="45.87659478664382" lon="9.941215940747918"><ele>579.6666666666667</ele><time>2026-04-03T15:24:27.849Z</time></trkpt><trkpt lat="45.876609553549585" lon="9.94130578184464"><ele>579.5</ele><time>2026-04-03T15:24:28.849Z</time></trkpt><trkpt lat="45.8766400413016" lon="9.941414420599147"><ele>579.3333333333334</ele><time>2026-04-03T15:24:29.849Z</time></trkpt><trkpt lat="45.876668023242345" lon="9.941538428024243"><ele>579.1666666666666</ele><time>2026-04-03T15:24:30.849Z</time></trkpt><trkpt lat="45.87670282430437" lon="9.941666436808527"><ele>579.0</ele><time>2026-04-03T15:24:31.849Z</time></trkpt><trkpt lat="45.87673696746173" lon="9.941801899767587"><ele>577.6666666666666</ele><time>2026-04-03T15:24:32.849Z</time></trkpt><trkpt lat="45.876771099868186" lon="9.941926279345259"><ele>576.3333333333334</ele><time>2026-04-03T15:24:33.849Z</time></trkpt><trkpt lat="45.87679735903313" lon="9.942039778092424"><ele>575.0</ele><time>2026-04-03T15:24:34.849Z</time></trkpt><trkpt lat="45.87683423184197" lon="9.942151246571461"><ele>573.6666666666667</ele><time>2026-04-03T15:24:35.849Z</time></trkpt><trkpt lat="45.876871436297705" lon="9.942243488397265"><ele>572.3333333333334</ele><time>2026-04-03T15:24:36.849Z</time></trkpt><trkpt lat="45.876918486941186" lon="9.942327084881342"><ele>571.0</ele><time>2026-04-03T15:24:37.849Z</time></trkpt><trkpt lat="45.87702523200132" lon="9.942438166482042"><ele>569.75</ele><time>2026-04-03T15:24:39.849Z</time></trkpt><trkpt lat="45.87706765477637" lon="9.94255269471783"><ele>568.5</ele><time>2026-04-03T15:24:40.849Z</time></trkpt><trkpt lat="45.87709756436155" lon="9.942734405295719"><ele>567.25</ele><time>2026-04-03T15:24:41.849Z</time></trkpt><trkpt lat="45.877116238395764" lon="9.942916440791475"><ele>566.0</ele><time>2026-04-03T15:24:42.849Z</time></trkpt><trkpt lat="45.87712341064577" lon="9.943098121799329"><ele>566.0</ele><time>2026-04-03T15:24:43.849Z</time></trkpt><trkpt lat="45.877122482377786" lon="9.943263093900349"><ele>566.0</ele><time>2026-04-03T15:24:44.848Z</time></trkpt><trkpt lat="45.87714373371339" lon="9.94341321856682"><ele>566.0</ele><time>2026-04-03T15:24:45.848Z</time></trkpt><trkpt lat="45.87716919385351" lon="9.943542433807053"><ele>566.0</ele><time>2026-04-03T15:24:46.848Z</time></trkpt><trkpt lat="45.87720540963626" lon="9.943657257515047"><ele>566.0</ele><time>2026-04-03T15:24:47.848Z</time></trkpt><trkpt lat="45.877261610126794" lon="9.943760221097882"><ele>565.8333333333333</ele><time>2026-04-03T15:24:48.848Z</time></trkpt><trkpt lat="45.87731684713418" lon="9.943855851320118"><ele>565.6666666666666</ele><time>2026-04-03T15:24:49.848Z</time></trkpt><trkpt lat="45.877360408658284" lon="9.943957790195816"><ele>565.5</ele><time>2026-04-03T15:24:50.848Z</time></trkpt><trkpt lat="45.87742609450184" lon="9.944018464783335"><ele>565.3333333333334</ele><time>2026-04-03T15:24:52.848Z</time></trkpt><trkpt lat="45.87736646866077" lon="9.944163343608443"><ele>565.1666666666667</ele><time>2026-04-03T15:24:53.848Z</time></trkpt><trkpt lat="45.8773304914199" lon="9.944268450578472"><ele>565.0</ele><time>2026-04-03T15:24:54.848Z</time></trkpt><trkpt lat="45.87729148935894" lon="9.944403479215646"><ele>565.0</ele><time>2026-04-03T15:24:55.848Z</time></trkpt><trkpt lat="45.877250393045315" lon="9.944543806561663"><ele>565.0</ele><time>2026-04-03T15:24:56.848Z</time></trkpt><trkpt lat="45.877215165195985" lon="9.94468229524387"><ele>565.0</ele><time>2026-04-03T15:24:57.848Z</time></trkpt><trkpt lat="45.87718146816332" lon="9.94481899037726"><ele>565.0</ele><time>2026-04-03T15:24:58.848Z</time></trkpt><trkpt lat="45.87715437874355" lon="9.944961591671929"><ele>565.0</ele><time>2026-04-03T15:24:59.848Z</time></trkpt><trkpt lat="45.87711418637584" lon="9.945094977985844"><ele>565.25</ele><time>2026-04-03T15:25:00.848Z</time></trkpt><trkpt lat="45.87708110311697" lon="9.945241324857838"><ele>565.5</ele><time>2026-04-03T15:25:01.847Z</time></trkpt><trkpt lat="45.87704492107095" lon="9.94542557520587"><ele>565.75</ele><time>2026-04-03T15:25:02.847Z</time></trkpt><trkpt lat="45.877014623839514" lon="9.945610538361368"><ele>566.0</ele><time>2026-04-03T15:25:03.847Z</time></trkpt><trkpt lat="45.87698433046769" lon="9.945795950342468"><ele>566.25</ele><time>2026-04-03T15:25:04.847Z</time></trkpt><trkpt lat="45.87694898494934" lon="9.945988772211582"><ele>566.5</ele><time>2026-04-03T15:25:05.847Z</time></trkpt><trkpt lat="45.876911805252206" lon="9.946185634237075"><ele>566.75</ele><time>2026-04-03T15:25:06.847Z</time></trkpt><trkpt lat="45.876873425761346" lon="9.946377754865754"><ele>567.0</ele><time>2026-04-03T15:25:07.847Z</time></trkpt><trkpt lat="45.8768269681642" lon="9.946571966737787"><ele>567.25</ele><time>2026-04-03T15:25:08.847Z</time></trkpt><trkpt lat="45.87678279128818" lon="9.94676748077829"><ele>567.5</ele><time>2026-04-03T15:25:09.847Z</time></trkpt><trkpt lat="45.87674100869162" lon="9.946956592073352"><ele>567.75</ele><time>2026-04-03T15:25:10.847Z</time></trkpt><trkpt lat="45.87670660304765" lon="9.94713494868644"><ele>568.0</ele><time>2026-04-03T15:25:11.847Z</time></trkpt><trkpt lat="45.876667497738566" lon="9.947312492417932"><ele>568.5</ele><time>2026-04-03T15:25:12.847Z</time></trkpt><trkpt lat="45.87663238879981" lon="9.947484992186569"><ele>569.0</ele><time>2026-04-03T15:25:13.847Z</time></trkpt><trkpt lat="45.87659748336117" lon="9.947660461298998"><ele>569.5</ele><time>2026-04-03T15:25:14.847Z</time></trkpt><trkpt lat="45.87656190813892" lon="9.947839362154994"><ele>570.0</ele><time>2026-04-03T15:25:15.847Z</time></trkpt><trkpt lat="45.876521783356104" lon="9.948017623152646"><ele>570.0</ele><time>2026-04-03T15:25:16.847Z</time></trkpt><trkpt lat="45.87648728800645" lon="9.94820411508671"><ele>570.0</ele><time>2026-04-03T15:25:17.846Z</time></trkpt><trkpt lat="45.876442073866976" lon="9.94838959408903"><ele>570.0</ele><time>2026-04-03T15:25:18.846Z</time></trkpt><trkpt lat="45.87640897604489" lon="9.948575283386642"><ele>570.0</ele><time>2026-04-03T15:25:19.846Z</time></trkpt><trkpt lat="45.87637604472977" lon="9.948766252894748"><ele>570.25</ele><time>2026-04-03T15:25:20.846Z</time></trkpt><trkpt lat="45.87634333320377" lon="9.9489559478445"><ele>570.5</ele><time>2026-04-03T15:25:21.846Z</time></trkpt><trkpt lat="45.876312142792315" lon="9.949148757988938"><ele>570.75</ele><time>2026-04-03T15:25:22.846Z</time></trkpt><trkpt lat="45.8762804352294" lon="9.949349846744715"><ele>571.0</ele><time>2026-04-03T15:25:23.846Z</time></trkpt><trkpt lat="45.87626645723433" lon="9.94954846713946"><ele>571.2</ele><time>2026-04-03T15:25:24.846Z</time></trkpt><trkpt lat="45.876239896298976" lon="9.949724801344772"><ele>571.4000000000001</ele><time>2026-04-03T15:25:25.846Z</time></trkpt><trkpt lat="45.87620508807907" lon="9.949892926271742"><ele>571.6</ele><time>2026-04-03T15:25:26.846Z</time></trkpt><trkpt lat="45.8761912998058" lon="9.950039312584273"><ele>571.8000000000001</ele><time>2026-04-03T15:25:27.846Z</time></trkpt><trkpt lat="45.87618627573154" lon="9.950168180995728"><ele>572.0</ele><time>2026-04-03T15:25:28.846Z</time></trkpt><trkpt lat="45.876190417947235" lon="9.9502692072154"><ele>572.2</ele><time>2026-04-03T15:25:29.846Z</time></trkpt><trkpt lat="45.87618397614133" lon="9.95039324397995"><ele>572.4000000000001</ele><time>2026-04-03T15:25:31.846Z</time></trkpt><trkpt lat="45.87604641633235" lon="9.950471571820827"><ele>572.5999999999999</ele><time>2026-04-03T15:25:34.845Z</time></trkpt><trkpt lat="45.87597673242767" lon="9.950405526450352"><ele>572.8</ele><time>2026-04-03T15:25:35.852Z</time></trkpt><trkpt lat="45.87588646575845" lon="9.950365132278344"><ele>573.0</ele><time>2026-04-03T15:25:36.851Z</time></trkpt><trkpt lat="45.8757904429438" lon="9.950325351773833"><ele>573.75</ele><time>2026-04-03T15:25:37.851Z</time></trkpt><trkpt lat="45.87567750316791" lon="9.95029016879325"><ele>574.5</ele><time>2026-04-03T15:25:38.852Z</time></trkpt><trkpt lat="45.87556680438546" lon="9.950249568987504"><ele>575.25</ele><time>2026-04-03T15:25:39.851Z</time></trkpt><trkpt lat="45.8754423782012" lon="9.950204111739422"><ele>576.0</ele><time>2026-04-03T15:25:40.851Z</time></trkpt><trkpt lat="45.87530838748909" lon="9.950163789737452"><ele>576.0</ele><time>2026-04-03T15:25:41.851Z</time></trkpt><trkpt lat="45.87517061027458" lon="9.950119719276815"><ele>576.0</ele><time>2026-04-03T15:25:42.851Z</time></trkpt><trkpt lat="45.87504754173014" lon="9.950072492218336"><ele>576.0</ele><time>2026-04-03T15:25:43.851Z</time></trkpt><trkpt lat="45.87492073053209" lon="9.950025211727064"><ele>576.0</ele><time>2026-04-03T15:25:44.851Z</time></trkpt><trkpt lat="45.87481008657068" lon="9.949961261243114"><ele>577.0</ele><time>2026-04-03T15:25:45.851Z</time></trkpt><trkpt lat="45.87472124488861" lon="9.949871856673205"><ele>578.0</ele><time>2026-04-03T15:25:46.851Z</time></trkpt><trkpt lat="45.87465951665055" lon="9.949751180477337"><ele>579.0</ele><time>2026-04-03T15:25:47.851Z</time></trkpt><trkpt lat="45.87460586129859" lon="9.949656277563136"><ele>580.0</ele><time>2026-04-03T15:25:48.851Z</time></trkpt><trkpt lat="45.874551017582476" lon="9.949597099118977"><ele>581.0</ele><time>2026-04-03T15:25:49.851Z</time></trkpt><trkpt lat="45.87447946353446" lon="9.949582940227385"><ele>582.0</ele><time>2026-04-03T15:25:50.851Z</time></trkpt><trkpt lat="45.87439287062049" lon="9.94968069895537"><ele>582.0</ele><time>2026-04-03T15:25:51.851Z</time></trkpt><trkpt lat="45.87434508818046" lon="9.949792118203098"><ele>582.0</ele><time>2026-04-03T15:25:52.851Z</time></trkpt><trkpt lat="45.874299163813134" lon="9.949896071373578"><ele>582.0</ele><time>2026-04-03T15:25:53.851Z</time></trkpt><trkpt lat="45.874258060237246" lon="9.95000610448702"><ele>582.0</ele><time>2026-04-03T15:25:54.851Z</time></trkpt><trkpt lat="45.87419838737845" lon="9.95011687824564"><ele>582.0</ele><time>2026-04-03T15:25:56.851Z</time></trkpt><trkpt lat="45.874125036544505" lon="9.950147526213343"><ele>582.0</ele><time>2026-04-03T15:25:58.851Z</time></trkpt><trkpt lat="45.87402702515727" lon="9.95007915197974"><ele>586.75</ele><time>2026-04-03T15:26:00.851Z</time></trkpt><trkpt lat="45.87399261579355" lon="9.94995004012923"><ele>591.5</ele><time>2026-04-03T15:26:02.85Z</time></trkpt><trkpt lat="45.87398065953528" lon="9.949826563449555"><ele>596.25</ele><time>2026-04-03T15:26:04.85Z</time></trkpt><trkpt lat="45.87397253726344" lon="9.949930986848063"><ele>601.0</ele><time>2026-04-03T15:26:13.85Z</time></trkpt><trkpt lat="45.87374487586608" lon="9.950009730761037"><ele>601.0</ele><time>2026-04-03T15:26:24.849Z</time></trkpt><trkpt lat="45.87367457747712" lon="9.950029636860009"><ele>601.0</ele><time>2026-04-03T15:26:30.849Z</time></trkpt><trkpt lat="45.873609516891996" lon="9.950039209160476"><ele>601.0</ele><time>2026-04-03T15:26:35.848Z</time></trkpt><trkpt lat="45.873545086484825" lon="9.950065147268267"><ele>601.0</ele><time>2026-04-03T15:26:42.848Z</time></trkpt><trkpt lat="45.873482036509394" lon="9.950106122831528"><ele>601.0</ele><time>2026-04-03T15:26:50.848Z</time></trkpt><trkpt lat="45.87341717771779" lon="9.95015245852024"><ele>601.0</ele><time>2026-04-03T15:26:58.847Z</time></trkpt><trkpt lat="45.87338329268636" lon="9.95023542300886"><ele>601.0</ele><time>2026-04-03T15:27:12.846Z</time></trkpt><trkpt lat="45.87331562000989" lon="9.950269724983805"><ele>604.3333333333334</ele><time>2026-04-03T15:27:30.845Z</time></trkpt><trkpt lat="45.87330330514703" lon="9.950379850918846"><ele>607.6666666666667</ele><time>2026-04-03T15:27:35.845Z</time></trkpt><trkpt lat="45.87326509483723" lon="9.950474347967083"><ele>611.0</ele><time>2026-04-03T15:27:39.845Z</time></trkpt><trkpt lat="45.87321065361438" lon="9.95056596433289"><ele>614.3333333333334</ele><time>2026-04-03T15:27:42.851Z</time></trkpt><trkpt lat="45.8731270615334" lon="9.950562852345703"><ele>617.6666666666666</ele><time>2026-04-03T15:27:48.85Z</time></trkpt><trkpt lat="45.87305936384193" lon="9.950527870955893"><ele>621.0</ele><time>2026-04-03T15:27:52.851Z</time></trkpt><trkpt lat="45.87299014368405" lon="9.950422602041941"><ele>621.0</ele><time>2026-04-03T15:27:55.85Z</time></trkpt><trkpt lat="45.872929851890206" lon="9.950356817260687"><ele>621.0</ele><time>2026-04-03T15:27:58.85Z</time></trkpt><trkpt lat="45.87285147186664" lon="9.950343873466215"><ele>621.0</ele><time>2026-04-03T15:28:03.85Z</time></trkpt><trkpt lat="45.872788778157386" lon="9.950315307588582"><ele>621.0</ele><time>2026-04-03T15:28:08.849Z</time></trkpt><trkpt lat="45.872728916238735" lon="9.950278688432642"><ele>621.0</ele><time>2026-04-03T15:28:17.849Z</time></trkpt><trkpt lat="45.872665402759225" lon="9.950177483013595"><ele>621.0</ele><time>2026-04-03T15:28:20.849Z</time></trkpt><trkpt lat="45.8726096021944" lon="9.950059281757591"><ele>627.4</ele><time>2026-04-03T15:28:22.849Z</time></trkpt><trkpt lat="45.87255999211855" lon="9.949988286384572"><ele>633.8</ele><time>2026-04-03T15:28:23.849Z</time></trkpt><trkpt lat="45.87250475601289" lon="9.949926445806296"><ele>640.1999999999999</ele><time>2026-04-03T15:28:24.848Z</time></trkpt><trkpt lat="45.87240541653241" lon="9.949826042308523"><ele>646.6</ele><time>2026-04-03T15:28:25.848Z</time></trkpt><trkpt lat="45.8723047240029" lon="9.949780331875312"><ele>653.0</ele><time>2026-04-03T15:28:26.848Z</time></trkpt><trkpt lat="45.87219271827453" lon="9.949757704017953"><ele>653.0</ele><time>2026-04-03T15:28:27.848Z</time></trkpt><trkpt lat="45.87209450557795" lon="9.949755746502944"><ele>653.0</ele><time>2026-04-03T15:28:28.848Z</time></trkpt><trkpt lat="45.87202828611593" lon="9.94985472061119"><ele>653.0</ele><time>2026-04-03T15:28:29.848Z</time></trkpt><trkpt lat="45.871958894884756" lon="9.949818068328616"><ele>653.0</ele><time>2026-04-03T15:28:30.848Z</time></trkpt><trkpt lat="45.87189287653573" lon="9.949771943407617"><ele>653.0</ele><time>2026-04-03T15:28:31.848Z</time></trkpt><trkpt lat="45.8718377106348" lon="9.949727885469526"><ele>653.0</ele><time>2026-04-03T15:28:33.848Z</time></trkpt><trkpt lat="45.871735913057115" lon="9.949665307170319"><ele>661.4</ele><time>2026-04-03T15:28:35.848Z</time></trkpt><trkpt lat="45.8716562076373" lon="9.949587508226571"><ele>669.8</ele><time>2026-04-03T15:28:37.848Z</time></trkpt><trkpt lat="45.87160382564218" lon="9.949464759765299"><ele>678.2</ele><time>2026-04-03T15:28:39.848Z</time></trkpt><trkpt lat="45.871544820385886" lon="9.949362402917492"><ele>686.6</ele><time>2026-04-03T15:28:41.847Z</time></trkpt><trkpt lat="45.87149586010949" lon="9.949296309417761"><ele>695.0</ele><time>2026-04-03T15:28:42.847Z</time></trkpt><trkpt lat="45.87139598264396" lon="9.949210809225285"><ele>695.3333333333333</ele><time>2026-04-03T15:28:44.847Z</time></trkpt><trkpt lat="45.87133756043104" lon="9.949151414211917"><ele>695.6666666666666</ele><time>2026-04-03T15:28:45.847Z</time></trkpt><trkpt lat="45.871273158390316" lon="9.949077206488916"><ele>696.0</ele><time>2026-04-03T15:28:46.847Z</time></trkpt><trkpt lat="45.87122342040258" lon="9.949018639848024"><ele>696.3333333333334</ele><time>2026-04-03T15:28:47.847Z</time></trkpt><trkpt lat="45.87111915532324" lon="9.948898879852768"><ele>696.6666666666667</ele><time>2026-04-03T15:28:51.847Z</time></trkpt><trkpt lat="45.87111278661236" lon="9.948800407276309"><ele>697.0</ele><time>2026-04-03T15:28:54.847Z</time></trkpt><trkpt lat="45.871132986282056" lon="9.948684968939219"><ele>697.0</ele><time>2026-04-03T15:28:59.846Z</time></trkpt><trkpt lat="45.87117614922275" lon="9.94854924743141"><ele>697.0</ele><time>2026-04-03T15:29:01.846Z</time></trkpt><trkpt lat="45.87120566352236" lon="9.948373874463293"><ele>697.0</ele><time>2026-04-03T15:29:03.846Z</time></trkpt><trkpt lat="45.871219559232365" lon="9.94828115719346"><ele>697.0</ele><time>2026-04-03T15:29:05.846Z</time></trkpt><trkpt lat="45.87122086212781" lon="9.948159894889708"><ele>697.0</ele><time>2026-04-03T15:29:07.846Z</time></trkpt><trkpt lat="45.8712375268101" lon="9.948047862761657"><ele>699.3333333333334</ele><time>2026-04-03T15:29:09.846Z</time></trkpt><trkpt lat="45.871262007037046" lon="9.947943244424128"><ele>701.6666666666667</ele><time>2026-04-03T15:29:11.846Z</time></trkpt><trkpt lat="45.87131557637907" lon="9.94788053988108"><ele>704.0</ele><time>2026-04-03T15:29:13.846Z</time></trkpt><trkpt lat="45.87139710244016" lon="9.947788574657094"><ele>706.3333333333334</ele><time>2026-04-03T15:29:15.845Z</time></trkpt><trkpt lat="45.87143686792624" lon="9.947698648353335"><ele>708.6666666666666</ele><time>2026-04-03T15:29:17.845Z</time></trkpt><trkpt lat="45.87144144718383" lon="9.94755319804891"><ele>711.0</ele><time>2026-04-03T15:29:20.845Z</time></trkpt><trkpt lat="45.87144493351048" lon="9.947400747020849"><ele>715.8333333333334</ele><time>2026-04-03T15:29:22.845Z</time></trkpt><trkpt lat="45.87141843437684" lon="9.947264436001907"><ele>720.6666666666666</ele><time>2026-04-03T15:29:24.845Z</time></trkpt><trkpt lat="45.871422164384796" lon="9.947162894145578"><ele>725.5</ele><time>2026-04-03T15:29:27.845Z</time></trkpt><trkpt lat="45.87142695656334" lon="9.947066926329308"><ele>730.3333333333333</ele><time>2026-04-03T15:29:31.844Z</time></trkpt><trkpt lat="45.871446770677764" lon="9.946955944071048"><ele>735.1666666666666</ele><time>2026-04-03T15:29:38.844Z</time></trkpt><trkpt lat="45.871442528494285" lon="9.946852958976637"><ele>740.0</ele><time>2026-04-03T15:29:42.844Z</time></trkpt><trkpt lat="45.87143114930525" lon="9.946753970525707"><ele>743.1428571428571</ele><time>2026-04-03T15:29:45.844Z</time></trkpt><trkpt lat="45.87141213335359" lon="9.946645859463546"><ele>746.2857142857142</ele><time>2026-04-03T15:29:48.851Z</time></trkpt><trkpt lat="45.871400329972076" lon="9.94655140037485"><ele>749.4285714285713</ele><time>2026-04-03T15:29:51.85Z</time></trkpt><trkpt lat="45.87146042994972" lon="9.94650806561378"><ele>752.5714285714286</ele><time>2026-04-03T15:29:54.85Z</time></trkpt><trkpt lat="45.871458321626776" lon="9.946411105118036"><ele>755.7142857142858</ele><time>2026-04-03T15:30:03.85Z</time></trkpt><trkpt lat="45.871437789414856" lon="9.94630690138826"><ele>758.8571428571428</ele><time>2026-04-03T15:30:14.849Z</time></trkpt><trkpt lat="45.87147836425134" lon="9.946209136439707"><ele>762.0</ele><time>2026-04-03T15:30:18.849Z</time></trkpt><trkpt lat="45.87149479678449" lon="9.946111612470593"><ele>762.0</ele><time>2026-04-03T15:30:20.849Z</time></trkpt><trkpt lat="45.871491868267434" lon="9.945969279097145"><ele>762.0</ele><time>2026-04-03T15:30:23.849Z</time></trkpt><trkpt lat="45.87147577653737" lon="9.945862954767057"><ele>762.0</ele><time>2026-04-03T15:30:25.849Z</time></trkpt><trkpt lat="45.87145335593977" lon="9.945715590005484"><ele>762.0</ele><time>2026-04-03T15:30:27.849Z</time></trkpt><trkpt lat="45.87146202940115" lon="9.945606479189095"><ele>762.0</ele><time>2026-04-03T15:30:30.848Z</time></trkpt><trkpt lat="45.871497813487586" lon="9.945511553704153"><ele>762.0</ele><time>2026-04-03T15:30:33.848Z</time></trkpt><trkpt lat="45.87157783715344" lon="9.94544604588022"><ele>766.0</ele><time>2026-04-03T15:30:35.848Z</time></trkpt><trkpt lat="45.87169014980745" lon="9.945381402321837"><ele>770.0</ele><time>2026-04-03T15:30:37.848Z</time></trkpt><trkpt lat="45.871745609888535" lon="9.94526697018776"><ele>774.0</ele><time>2026-04-03T15:30:40.847Z</time></trkpt><trkpt lat="45.87172751436836" lon="9.945153480910738"><ele>778.0</ele><time>2026-04-03T15:30:42.842Z</time></trkpt><trkpt lat="45.87165895983668" lon="9.945078399581362"><ele>782.0</ele><time>2026-04-03T15:30:44.837Z</time></trkpt><trkpt lat="45.87160105890991" lon="9.944932584724373"><ele>785.3333333333334</ele><time>2026-04-03T15:30:47.831Z</time></trkpt><trkpt lat="45.871570682897094" lon="9.944828035132872"><ele>788.6666666666667</ele><time>2026-04-03T15:30:49.828Z</time></trkpt><trkpt lat="45.871528830966476" lon="9.944741510803295"><ele>792.0</ele><time>2026-04-03T15:30:50.826Z</time></trkpt><trkpt lat="45.871471609294254" lon="9.944683130181536"><ele>795.3333333333333</ele><time>2026-04-03T15:30:52.824Z</time></trkpt><trkpt lat="45.87143011110476" lon="9.94458387488618"><ele>798.6666666666666</ele><time>2026-04-03T15:30:54.821Z</time></trkpt><trkpt lat="45.87135230628002" lon="9.944410168500971"><ele>802.0</ele><time>2026-04-03T15:30:56.819Z</time></trkpt><trkpt lat="45.87130660147466" lon="9.944278559768634"><ele>805.3333333333333</ele><time>2026-04-03T15:30:57.818Z</time></trkpt><trkpt lat="45.8712534483134" lon="9.9441645375927"><ele>808.6666666666666</ele><time>2026-04-03T15:30:58.817Z</time></trkpt><trkpt lat="45.87120038352343" lon="9.944077034112938"><ele>812.0</ele><time>2026-04-03T15:30:59.816Z</time></trkpt><trkpt lat="45.87116293073377" lon="9.943980595752127"><ele>815.3333333333333</ele><time>2026-04-03T15:31:00.816Z</time></trkpt><trkpt lat="45.87110221750111" lon="9.943889195298402"><ele>818.6666666666666</ele><time>2026-04-03T15:31:02.814Z</time></trkpt><trkpt lat="45.87102494415338" lon="9.943863073444858"><ele>822.0</ele><time>2026-04-03T15:31:04.813Z</time></trkpt><trkpt lat="45.87093166243863" lon="9.943818660289674"><ele>823.6</ele><time>2026-04-03T15:31:06.811Z</time></trkpt><trkpt lat="45.87085495765356" lon="9.943798316394235"><ele>825.2</ele><time>2026-04-03T15:31:07.811Z</time></trkpt><trkpt lat="45.87077705658523" lon="9.943802709113154"><ele>826.8</ele><time>2026-04-03T15:31:08.81Z</time></trkpt><trkpt lat="45.870696091186055" lon="9.943848398281155"><ele>828.4</ele><time>2026-04-03T15:31:09.81Z</time></trkpt><trkpt lat="45.87060047467694" lon="9.943901873207109"><ele>830.0</ele><time>2026-04-03T15:31:10.809Z</time></trkpt><trkpt lat="45.870506667022056" lon="9.943970497853302"><ele>830.0</ele><time>2026-04-03T15:31:11.809Z</time></trkpt><trkpt lat="45.870415493155" lon="9.94404062406434"><ele>830.0</ele><time>2026-04-03T15:31:12.809Z</time></trkpt><trkpt lat="45.87033793129" lon="9.944095927760104"><ele>830.0</ele><time>2026-04-03T15:31:13.808Z</time></trkpt><trkpt lat="45.8702330842305" lon="9.944142363737006"><ele>830.0</ele><time>2026-04-03T15:31:14.808Z</time></trkpt><trkpt lat="45.8701224546807" lon="9.944189232213269"><ele>830.0</ele><time>2026-04-03T15:31:15.808Z</time></trkpt><trkpt lat="45.870003232739336" lon="9.944253140782942"><ele>834.75</ele><time>2026-04-03T15:31:16.807Z</time></trkpt><trkpt lat="45.86988297016423" lon="9.944321501310982"><ele>839.5</ele><time>2026-04-03T15:31:17.807Z</time></trkpt><trkpt lat="45.86975960647253" lon="9.944394130671665"><ele>844.25</ele><time>2026-04-03T15:31:18.807Z</time></trkpt><trkpt lat="45.86963950445962" lon="9.944435633850375"><ele>849.0</ele><time>2026-04-03T15:31:19.806Z</time></trkpt><trkpt lat="45.8695194239841" lon="9.94445933705161"><ele>849.0</ele><time>2026-04-03T15:31:20.806Z</time></trkpt><trkpt lat="45.869380697467676" lon="9.944463139051928"><ele>849.0</ele><time>2026-04-03T15:31:21.806Z</time></trkpt><trkpt lat="45.86924733703869" lon="9.94440325758854"><ele>849.0</ele><time>2026-04-03T15:31:22.806Z</time></trkpt><trkpt lat="45.86911052147978" lon="9.944370726646934"><ele>849.0</ele><time>2026-04-03T15:31:23.805Z</time></trkpt><trkpt lat="45.86899902119219" lon="9.944341373224818"><ele>854.75</ele><time>2026-04-03T15:31:24.805Z</time></trkpt><trkpt lat="45.8689109664957" lon="9.944328515137377"><ele>860.5</ele><time>2026-04-03T15:31:25.805Z</time></trkpt><trkpt lat="45.86879113643953" lon="9.944347534847548"><ele>866.25</ele><time>2026-04-03T15:31:26.805Z</time></trkpt><trkpt lat="45.86864778385016" lon="9.94439222877686"><ele>872.0</ele><time>2026-04-03T15:31:27.804Z</time></trkpt><trkpt lat="45.86852471928217" lon="9.944381142356896"><ele>870.5</ele><time>2026-04-03T15:31:28.804Z</time></trkpt><trkpt lat="45.86841867145824" lon="9.944311228667837"><ele>869.0</ele><time>2026-04-03T15:31:29.804Z</time></trkpt><trkpt lat="45.86829366802649" lon="9.944290942256107"><ele>867.5</ele><time>2026-04-03T15:31:30.804Z</time></trkpt><trkpt lat="45.868172021180655" lon="9.944231324084651"><ele>866.0</ele><time>2026-04-03T15:31:31.804Z</time></trkpt><trkpt lat="45.86803349509997" lon="9.944146809474638"><ele>866.0</ele><time>2026-04-03T15:31:32.804Z</time></trkpt><trkpt lat="45.86793569954777" lon="9.944072200673757"><ele>866.0</ele><time>2026-04-03T15:31:33.803Z</time></trkpt><trkpt lat="45.86780871706673" lon="9.944021880502195"><ele>866.0</ele><time>2026-04-03T15:31:35.803Z</time></trkpt><trkpt lat="45.86770800398727" lon="9.944053470423633"><ele>866.0</ele><time>2026-04-03T15:31:36.803Z</time></trkpt><trkpt lat="45.86758746821985" lon="9.944077060379055"><ele>869.5999999999999</ele><time>2026-04-03T15:31:37.803Z</time></trkpt><trkpt lat="45.86746627277337" lon="9.944112397986302"><ele>873.1999999999999</ele><time>2026-04-03T15:31:38.803Z</time></trkpt><trkpt lat="45.8673627131884" lon="9.94410442357451"><ele>876.8000000000001</ele><time>2026-04-03T15:31:39.803Z</time></trkpt><trkpt lat="45.86728074830865" lon="9.94412441174274"><ele>880.4000000000001</ele><time>2026-04-03T15:31:40.803Z</time></trkpt><trkpt lat="45.86717664634336" lon="9.944119761370558"><ele>884.0</ele><time>2026-04-03T15:31:42.802Z</time></trkpt><trkpt lat="45.86723616483963" lon="9.944294489197336"><ele>886.6</ele><time>2026-04-03T15:31:46.802Z</time></trkpt><trkpt lat="45.86733549539458" lon="9.944301786786575"><ele>889.2</ele><time>2026-04-03T15:31:47.802Z</time></trkpt><trkpt lat="45.867453041728965" lon="9.944310849664262"><ele>891.8000000000001</ele><time>2026-04-03T15:31:48.802Z</time></trkpt><trkpt lat="45.86758338723064" lon="9.944318496834029"><ele>894.4000000000001</ele><time>2026-04-03T15:31:49.802Z</time></trkpt><trkpt lat="45.867684431931124" lon="9.94432505855298"><ele>897.0</ele><time>2026-04-03T15:31:50.802Z</time></trkpt><trkpt lat="45.86774653090309" lon="9.944351831673137"><ele>897.0</ele><time>2026-04-03T15:31:51.808Z</time></trkpt><trkpt lat="45.86784740963028" lon="9.944448550733295"><ele>897.0</ele><time>2026-04-03T15:31:53.807Z</time></trkpt><trkpt lat="45.86795243092159" lon="9.9445784571452"><ele>897.0</ele><time>2026-04-03T15:31:54.807Z</time></trkpt><trkpt lat="45.86805622841186" lon="9.944693920903086"><ele>897.0</ele><time>2026-04-03T15:31:55.807Z</time></trkpt><trkpt lat="45.868154902381505" lon="9.944805756080296"><ele>897.0</ele><time>2026-04-03T15:31:56.807Z</time></trkpt><trkpt lat="45.86824499031245" lon="9.944904481709168"><ele>897.0</ele><time>2026-04-03T15:31:57.807Z</time></trkpt><trkpt lat="45.868339903848145" lon="9.944967598568157"><ele>897.0</ele><time>2026-04-03T15:31:58.807Z</time></trkpt><trkpt lat="45.86836600007325" lon="9.945053123339852"><ele>897.0</ele><time>2026-04-03T15:31:59.807Z</time></trkpt><trkpt lat="45.86843785332128" lon="9.94518044475065"><ele>897.0</ele><time>2026-04-03T15:32:00.807Z</time></trkpt><trkpt lat="45.86844003278092" lon="9.945287573823043"><ele>898.0</ele><time>2026-04-03T15:32:01.807Z</time></trkpt><trkpt lat="45.86841112678617" lon="9.945456695293965"><ele>899.0</ele><time>2026-04-03T15:32:02.807Z</time></trkpt><trkpt lat="45.86838284877021" lon="9.945591620289276"><ele>900.0</ele><time>2026-04-03T15:32:03.807Z</time></trkpt><trkpt lat="45.86834773507818" lon="9.945764837844965"><ele>901.0</ele><time>2026-04-03T15:32:04.807Z</time></trkpt><trkpt lat="45.86828916357117" lon="9.945942044303541"><ele>901.0</ele><time>2026-04-03T15:32:05.807Z</time></trkpt><trkpt lat="45.86823216887991" lon="9.94612681997604"><ele>901.0</ele><time>2026-04-03T15:32:06.807Z</time></trkpt><trkpt lat="45.86816858529488" lon="9.946305873397897"><ele>901.0</ele><time>2026-04-03T15:32:07.807Z</time></trkpt><trkpt lat="45.86809779988298" lon="9.946506121689826"><ele>901.0</ele><time>2026-04-03T15:32:08.807Z</time></trkpt><trkpt lat="45.86802705993957" lon="9.946733025697693"><ele>898.0</ele><time>2026-04-03T15:32:09.807Z</time></trkpt><trkpt lat="45.867951742068165" lon="9.946942926053012"><ele>895.0</ele><time>2026-04-03T15:32:10.807Z</time></trkpt><trkpt lat="45.86788016864133" lon="9.947134130968724"><ele>892.0</ele><time>2026-04-03T15:32:11.807Z</time></trkpt><trkpt lat="45.86778545307539" lon="9.947300515237906"><ele>892.0</ele><time>2026-04-03T15:32:12.807Z</time></trkpt><trkpt lat="45.86771144814993" lon="9.947445195910165"><ele>892.0</ele><time>2026-04-03T15:32:13.806Z</time></trkpt><trkpt lat="45.867648894566074" lon="9.947595388591665"><ele>892.0</ele><time>2026-04-03T15:32:14.806Z</time></trkpt><trkpt lat="45.86761378788746" lon="9.947709329646027"><ele>892.0</ele><time>2026-04-03T15:32:15.806Z</time></trkpt><trkpt lat="45.86760676293245" lon="9.947830295213471"><ele>892.0</ele><time>2026-04-03T15:32:16.806Z</time></trkpt><trkpt lat="45.867588368841965" lon="9.947919123719466"><ele>900.4000000000001</ele><time>2026-04-03T15:32:17.806Z</time></trkpt><trkpt lat="45.86755722257421" lon="9.948019452671698"><ele>908.8000000000001</ele><time>2026-04-03T15:32:19.806Z</time></trkpt><trkpt lat="45.86754622408424" lon="9.947918724604953"><ele>917.2</ele><time>2026-04-03T15:32:22.806Z</time></trkpt><trkpt lat="45.86753358750824" lon="9.947747228990856"><ele>925.6</ele><time>2026-04-03T15:32:24.806Z</time></trkpt><trkpt lat="45.86753813603712" lon="9.94760152735761"><ele>934.0</ele><time>2026-04-03T15:32:25.806Z</time></trkpt><trkpt lat="45.86755430719467" lon="9.947458250624463"><ele>935.25</ele><time>2026-04-03T15:32:26.806Z</time></trkpt><trkpt lat="45.86757329624891" lon="9.94729970178416"><ele>936.5</ele><time>2026-04-03T15:32:27.806Z</time></trkpt><trkpt lat="45.867597289350044" lon="9.947127063411983"><ele>937.75</ele><time>2026-04-03T15:32:28.806Z</time></trkpt><trkpt lat="45.86759890541928" lon="9.946951972805591"><ele>939.0</ele><time>2026-04-03T15:32:29.805Z</time></trkpt><trkpt lat="45.86760253318278" lon="9.946812038816336"><ele>932.6666666666666</ele><time>2026-04-03T15:32:30.805Z</time></trkpt><trkpt lat="45.867616887590714" lon="9.946713230451943"><ele>926.3333333333333</ele><time>2026-04-03T15:32:31.805Z</time></trkpt><trkpt lat="45.867639990756146" lon="9.946619851655422"><ele>920.0</ele><time>2026-04-03T15:32:32.805Z</time></trkpt><trkpt lat="45.86765872672834" lon="9.946503181223086"><ele>913.6666666666666</ele><time>2026-04-03T15:32:33.805Z</time></trkpt><trkpt lat="45.86767215340413" lon="9.946346192023842"><ele>907.3333333333333</ele><time>2026-04-03T15:32:34.805Z</time></trkpt><trkpt lat="45.86768284158422" lon="9.946196723140616"><ele>901.0</ele><time>2026-04-03T15:32:35.805Z</time></trkpt><trkpt lat="45.867682657909654" lon="9.94604594022834"><ele>901.0</ele><time>2026-04-03T15:32:36.805Z</time></trkpt><trkpt lat="45.86768636220856" lon="9.945886028001647"><ele>901.0</ele><time>2026-04-03T15:32:37.805Z</time></trkpt><trkpt lat="45.86769391741107" lon="9.945742934922354"><ele>901.0</ele><time>2026-04-03T15:32:38.805Z</time></trkpt><trkpt lat="45.86770548413683" lon="9.945597167548987"><ele>901.0</ele><time>2026-04-03T15:32:40.805Z</time></trkpt><trkpt lat="45.86773082783607" lon="9.945388754680431"><ele>902.0</ele><time>2026-04-03T15:32:42.805Z</time></trkpt><trkpt lat="45.86764902410913" lon="9.945506275716552"><ele>902.9999999999999</ele><time>2026-04-03T15:32:43.805Z</time></trkpt><trkpt lat="45.86765460756719" lon="9.945652399725532"><ele>903.9999999999999</ele><time>2026-04-03T15:32:45.804Z</time></trkpt><trkpt lat="45.867641105422784" lon="9.945785536383354"><ele>905.0</ele><time>2026-04-03T15:32:46.804Z</time></trkpt><trkpt lat="45.867606392840976" lon="9.945940980613974"><ele>906.0</ele><time>2026-04-03T15:32:47.804Z</time></trkpt><trkpt lat="45.86755495036687" lon="9.94607579260783"><ele>914.25</ele><time>2026-04-03T15:32:48.804Z</time></trkpt><trkpt lat="45.867484889783526" lon="9.94623734108641"><ele>922.5</ele><time>2026-04-03T15:32:49.804Z</time></trkpt><trkpt lat="45.86738816362494" lon="9.946433370568004"><ele>930.75</ele><time>2026-04-03T15:32:50.804Z</time></trkpt><trkpt lat="45.86731482447579" lon="9.946613833692979"><ele>939.0</ele><time>2026-04-03T15:32:51.804Z</time></trkpt><trkpt lat="45.86723702628022" lon="9.94681292963157"><ele>939.0</ele><time>2026-04-03T15:32:52.804Z</time></trkpt><trkpt lat="45.867159596294776" lon="9.94699399804039"><ele>939.0</ele><time>2026-04-03T15:32:53.804Z</time></trkpt><trkpt lat="45.86708784288485" lon="9.947159804472916"><ele>939.0</ele><time>2026-04-03T15:32:54.804Z</time></trkpt><trkpt lat="45.86703360337002" lon="9.947304380583189"><ele>939.0</ele><time>2026-04-03T15:32:55.804Z</time></trkpt><trkpt lat="45.86696808130556" lon="9.947461251839758"><ele>938.0</ele><time>2026-04-03T15:32:56.804Z</time></trkpt><trkpt lat="45.86691161327236" lon="9.947619741527047"><ele>937.0000000000001</ele><time>2026-04-03T15:32:57.804Z</time></trkpt><trkpt lat="45.86686172974475" lon="9.947753028872699"><ele>936.0000000000001</ele><time>2026-04-03T15:32:58.804Z</time></trkpt><trkpt lat="45.86680999618114" lon="9.947870370511616"><ele>935.0</ele><time>2026-04-03T15:32:59.804Z</time></trkpt><trkpt lat="45.866748277410316" lon="9.94798479311173"><ele>934.0</ele><time>2026-04-03T15:33:01.803Z</time></trkpt><trkpt lat="45.86670538017099" lon="9.948124502849403"><ele>942.8000000000001</ele><time>2026-04-03T15:33:04.803Z</time></trkpt><trkpt lat="45.86663934752967" lon="9.947965667794529"><ele>951.6000000000001</ele><time>2026-04-03T15:33:05.803Z</time></trkpt><trkpt lat="45.86668227696373" lon="9.947843176250053"><ele>960.4</ele><time>2026-04-03T15:33:07.803Z</time></trkpt><trkpt lat="45.86670636923924" lon="9.947726668814399"><ele>969.2</ele><time>2026-04-03T15:33:08.803Z</time></trkpt><trkpt lat="45.86669473265913" lon="9.947603543416063"><ele>978.0</ele><time>2026-04-03T15:33:09.803Z</time></trkpt><trkpt lat="45.866660547023926" lon="9.947471597470342"><ele>978.6666666666666</ele><time>2026-04-03T15:33:11.803Z</time></trkpt><trkpt lat="45.86663408111967" lon="9.947335221658443"><ele>979.3333333333333</ele><time>2026-04-03T15:33:15.803Z</time></trkpt><trkpt lat="45.8666240946633" lon="9.947234950493838"><ele>980.0</ele><time>2026-04-03T15:33:26.802Z</time></trkpt><trkpt lat="45.866566279077766" lon="9.947282526565195"><ele>980.6666666666666</ele><time>2026-04-03T15:33:37.801Z</time></trkpt><trkpt lat="45.86653865719213" lon="9.947397123365478"><ele>981.3333333333333</ele><time>2026-04-03T15:33:41.801Z</time></trkpt><trkpt lat="45.8664484046436" lon="9.947460428899836"><ele>982.0</ele><time>2026-04-03T15:33:45.801Z</time></trkpt><trkpt lat="45.86636355212332" lon="9.94753746992146"><ele>981.9999999999999</ele><time>2026-04-03T15:33:48.801Z</time></trkpt><trkpt lat="45.86629686353211" lon="9.947576377020633"><ele>982.0</ele><time>2026-04-03T15:33:50.801Z</time></trkpt><trkpt lat="45.86622962498939" lon="9.947588894146971"><ele>982.0</ele><time>2026-04-03T15:33:53.8Z</time></trkpt><trkpt lat="45.86617273426821" lon="9.947492250823803"><ele>982.0</ele><time>2026-04-03T15:33:56.806Z</time></trkpt><trkpt lat="45.86612771415051" lon="9.947414597161057"><ele>981.9999999999999</ele><time>2026-04-03T15:33:58.806Z</time></trkpt><trkpt lat="45.86605042642461" lon="9.947313221957186"><ele>982.0</ele><time>2026-04-03T15:34:02.806Z</time></trkpt><trkpt lat="45.865991775135505" lon="9.947216859040532"><ele>988.1666666666666</ele><time>2026-04-03T15:34:05.807Z</time></trkpt><trkpt lat="45.865944725195845" lon="9.94713838391737"><ele>994.3333333333333</ele><time>2026-04-03T15:34:08.806Z</time></trkpt><trkpt lat="45.865887501258044" lon="9.947068921828768"><ele>1000.5</ele><time>2026-04-03T15:34:11.806Z</time></trkpt><trkpt lat="45.86579236659685" lon="9.947074366054913"><ele>1006.6666666666667</ele><time>2026-04-03T15:34:15.806Z</time></trkpt><trkpt lat="45.86571824364808" lon="9.947043416295239"><ele>1012.8333333333334</ele><time>2026-04-03T15:34:17.806Z</time></trkpt><trkpt lat="45.8656548684509" lon="9.947014702221466"><ele>1019.0</ele><time>2026-04-03T15:34:19.806Z</time></trkpt><trkpt lat="45.865581495347385" lon="9.947021962551487"><ele>1019.0</ele><time>2026-04-03T15:34:21.806Z</time></trkpt><trkpt lat="45.8655179863408" lon="9.947046548477207"><ele>1019.0000000000001</ele><time>2026-04-03T15:34:24.805Z</time></trkpt><trkpt lat="45.86539167135251" lon="9.947193634194496"><ele>1019.0000000000001</ele><time>2026-04-03T15:34:27.805Z</time></trkpt><trkpt lat="45.86536364392114" lon="9.947342607969984"><ele>1019.0</ele><time>2026-04-03T15:34:28.805Z</time></trkpt><trkpt lat="45.86530876871216" lon="9.947436567587575"><ele>1019.0</ele><time>2026-04-03T15:34:29.805Z</time></trkpt><trkpt lat="45.86526245882216" lon="9.947520268895142"><ele>1019.0</ele><time>2026-04-03T15:34:30.805Z</time></trkpt><trkpt lat="45.86516758308853" lon="9.947663169981265"><ele>1019.0000000000001</ele><time>2026-04-03T15:34:32.805Z</time></trkpt><trkpt lat="45.86509487608649" lon="9.947757044289599"><ele>1019.0000000000001</ele><time>2026-04-03T15:34:33.805Z</time></trkpt><trkpt lat="45.86503979897981" lon="9.947836251117707"><ele>1019.0</ele><time>2026-04-03T15:34:34.805Z</time></trkpt><trkpt lat="45.86499393025188" lon="9.9478992205953"><ele>1019.0</ele><time>2026-04-03T15:34:35.805Z</time></trkpt><trkpt lat="45.864924027179796" lon="9.947995363918649"><ele>1024.0</ele><time>2026-04-03T15:34:37.805Z</time></trkpt><trkpt lat="45.864873136650274" lon="9.94809977309997"><ele>1029.0</ele><time>2026-04-03T15:34:39.804Z</time></trkpt><trkpt lat="45.86479285318123" lon="9.94811081878692"><ele>1034.0</ele><time>2026-04-03T15:34:41.804Z</time></trkpt><trkpt lat="45.8647054670198" lon="9.948112849367416"><ele>1039.0</ele><time>2026-04-03T15:34:44.804Z</time></trkpt><trkpt lat="45.86460612197068" lon="9.948095647528561"><ele>1044.0</ele><time>2026-04-03T15:34:46.804Z</time></trkpt><trkpt lat="45.864530773376465" lon="9.948096357510398"><ele>1049.0</ele><time>2026-04-03T15:34:47.804Z</time></trkpt><trkpt lat="45.86446429307933" lon="9.948081421968958"><ele>1049.0</ele><time>2026-04-03T15:34:48.804Z</time></trkpt><trkpt lat="45.86439260306233" lon="9.948076261928493"><ele>1049.0</ele><time>2026-04-03T15:34:49.804Z</time></trkpt><trkpt lat="45.86426799871677" lon="9.948046348770015"><ele>1049.0</ele><time>2026-04-03T15:34:51.804Z</time></trkpt><trkpt lat="45.864200817155336" lon="9.948022144108956"><ele>1049.0</ele><time>2026-04-03T15:34:52.804Z</time></trkpt><trkpt lat="45.86413117045318" lon="9.9479974578015"><ele>1049.0</ele><time>2026-04-03T15:34:53.804Z</time></trkpt><trkpt lat="45.8640436527489" lon="9.947984623962457"><ele>1049.0</ele><time>2026-04-03T15:34:54.804Z</time></trkpt><trkpt lat="45.86397205824978" lon="9.947952870371035"><ele>1052.6000000000001</ele><time>2026-04-03T15:34:55.803Z</time></trkpt><trkpt lat="45.86386422075074" lon="9.94793081795587"><ele>1056.2</ele><time>2026-04-03T15:34:56.803Z</time></trkpt><trkpt lat="45.863757002336115" lon="9.947928403860212"><ele>1059.8000000000002</ele><time>2026-04-03T15:34:57.803Z</time></trkpt><trkpt lat="45.86362870063829" lon="9.947945524186668"><ele>1063.4</ele><time>2026-04-03T15:34:58.803Z</time></trkpt><trkpt lat="45.8635328185602" lon="9.947962507045599"><ele>1067.0</ele><time>2026-04-03T15:34:59.803Z</time></trkpt><trkpt lat="45.86344408153575" lon="9.94799138926106"><ele>1070.5</ele><time>2026-04-03T15:35:00.803Z</time></trkpt><trkpt lat="45.86335570798244" lon="9.948019784088737"><ele>1074.0</ele><time>2026-04-03T15:35:01.803Z</time></trkpt><trkpt lat="45.863269465439885" lon="9.948041656879845"><ele>1077.5</ele><time>2026-04-03T15:35:02.803Z</time></trkpt><trkpt lat="45.86320054112522" lon="9.948076062425738"><ele>1081.0</ele><time>2026-04-03T15:35:03.803Z</time></trkpt><trkpt lat="45.863113336230214" lon="9.948113584438344"><ele>1084.5</ele><time>2026-04-03T15:35:04.803Z</time></trkpt><trkpt lat="45.86301316771052" lon="9.948138614681262"><ele>1088.0</ele><time>2026-04-03T15:35:05.803Z</time></trkpt><trkpt lat="45.86294604201799" lon="9.948131449347457"><ele>1088.0</ele><time>2026-04-03T15:35:06.803Z</time></trkpt><trkpt lat="45.86286273220567" lon="9.948126576637653"><ele>1088.0</ele><time>2026-04-03T15:35:07.803Z</time></trkpt><trkpt lat="45.86281231764514" lon="9.94806314442274"><ele>1088.0</ele><time>2026-04-03T15:35:10.803Z</time></trkpt><trkpt lat="45.86267715207488" lon="9.948044704377379"><ele>1088.0</ele><time>2026-04-03T15:35:11.803Z</time></trkpt><trkpt lat="45.862550785827075" lon="9.948016614825212"><ele>1088.0</ele><time>2026-04-03T15:35:12.802Z</time></trkpt><trkpt lat="45.86242696714015" lon="9.947933328603945"><ele>1091.0</ele><time>2026-04-03T15:35:13.802Z</time></trkpt><trkpt lat="45.86234936995035" lon="9.947909476737905"><ele>1094.0</ele><time>2026-04-03T15:35:14.802Z</time></trkpt><trkpt lat="45.8622584233415" lon="9.94789720462694"><ele>1097.0</ele><time>2026-04-03T15:35:15.802Z</time></trkpt><trkpt lat="45.86218723486296" lon="9.947871416322183"><ele>1100.0</ele><time>2026-04-03T15:35:16.802Z</time></trkpt><trkpt lat="45.862080487156035" lon="9.94781138576047"><ele>1103.0</ele><time>2026-04-03T15:35:18.802Z</time></trkpt><trkpt lat="45.86203907840146" lon="9.947734808501773"><ele>1106.0</ele><time>2026-04-03T15:35:19.802Z</time></trkpt><trkpt lat="45.861993394164344" lon="9.947598099817254"><ele>1106.25</ele><time>2026-04-03T15:35:20.802Z</time></trkpt><trkpt lat="45.8619302392613" lon="9.947474553480093"><ele>1106.5</ele><time>2026-04-03T15:35:21.802Z</time></trkpt><trkpt lat="45.86180628030593" lon="9.947318263052988"><ele>1106.75</ele><time>2026-04-03T15:35:22.802Z</time></trkpt><trkpt lat="45.86169920111379" lon="9.947203258484977"><ele>1107.0</ele><time>2026-04-03T15:35:23.802Z</time></trkpt><trkpt lat="45.861604367676286" lon="9.94713750190189"><ele>1110.75</ele><time>2026-04-03T15:35:24.802Z</time></trkpt><trkpt lat="45.86153771821694" lon="9.947108560089369"><ele>1114.5</ele><time>2026-04-03T15:35:25.802Z</time></trkpt><trkpt lat="45.861439092713944" lon="9.947075157483543"><ele>1118.25</ele><time>2026-04-03T15:35:26.802Z</time></trkpt><trkpt lat="45.861302474823596" lon="9.94700329557248"><ele>1122.0</ele><time>2026-04-03T15:35:27.802Z</time></trkpt><trkpt lat="45.861162215094026" lon="9.946888057935157"><ele>1122.0</ele><time>2026-04-03T15:35:28.802Z</time></trkpt><trkpt lat="45.86106489389269" lon="9.94681282321569"><ele>1122.0</ele><time>2026-04-03T15:35:29.801Z</time></trkpt><trkpt lat="45.86100054450095" lon="9.946773471153923"><ele>1122.0</ele><time>2026-04-03T15:35:30.801Z</time></trkpt><trkpt lat="45.86091662836681" lon="9.9467586482597"><ele>1122.0</ele><time>2026-04-03T15:35:31.801Z</time></trkpt><trkpt lat="45.86085048311781" lon="9.946781027057387"><ele>1122.0</ele><time>2026-04-03T15:35:32.801Z</time></trkpt><trkpt lat="45.86071513470908" lon="9.946838830364664"><ele>1125.0</ele><time>2026-04-03T15:35:34.801Z</time></trkpt><trkpt lat="45.86057220132721" lon="9.946839660448513"><ele>1128.0</ele><time>2026-04-03T15:35:36.801Z</time></trkpt><trkpt lat="45.860469244760246" lon="9.946843287369786"><ele>1131.0</ele><time>2026-04-03T15:35:37.801Z</time></trkpt><trkpt lat="45.86033270376932" lon="9.94682638100268"><ele>1134.0</ele><time>2026-04-03T15:35:38.801Z</time></trkpt><trkpt lat="45.86024170964018" lon="9.946823963383238"><ele>1134.0</ele><time>2026-04-03T15:35:39.801Z</time></trkpt><trkpt lat="45.86015067635348" lon="9.94682098472247"><ele>1134.0</ele><time>2026-04-03T15:35:40.801Z</time></trkpt><trkpt lat="45.86008025442283" lon="9.946822512263164"><ele>1134.0</ele><time>2026-04-03T15:35:41.801Z</time></trkpt><trkpt lat="45.8599574530654" lon="9.94688892782644"><ele>1134.0</ele><time>2026-04-03T15:35:43.801Z</time></trkpt><trkpt lat="45.859888761069456" lon="9.946925100859872"><ele>1134.0</ele><time>2026-04-03T15:35:44.801Z</time></trkpt><trkpt lat="45.85982369110711" lon="9.947015329437042"><ele>1134.75</ele><time>2026-04-03T15:35:46.8Z</time></trkpt><trkpt lat="45.85971200181336" lon="9.947040170906005"><ele>1135.5</ele><time>2026-04-03T15:35:47.8Z</time></trkpt><trkpt lat="45.859592264548134" lon="9.947126117165396"><ele>1136.25</ele><time>2026-04-03T15:35:48.8Z</time></trkpt><trkpt lat="45.85947891746692" lon="9.947212880968678"><ele>1137.0</ele><time>2026-04-03T15:35:49.8Z</time></trkpt><trkpt lat="45.85936668433344" lon="9.947343539938355"><ele>1136.3333333333333</ele><time>2026-04-03T15:35:50.8Z</time></trkpt><trkpt lat="45.85926037466305" lon="9.947421679783234"><ele>1135.6666666666667</ele><time>2026-04-03T15:35:51.8Z</time></trkpt><trkpt lat="45.85917658231285" lon="9.94747457623591"><ele>1135.0</ele><time>2026-04-03T15:35:52.8Z</time></trkpt><trkpt lat="45.85909810949289" lon="9.94749367248586"><ele>1134.3333333333335</ele><time>2026-04-03T15:35:53.8Z</time></trkpt><trkpt lat="45.859030406151014" lon="9.947495054184305"><ele>1133.6666666666667</ele><time>2026-04-03T15:35:54.8Z</time></trkpt><trkpt lat="45.85896055535718" lon="9.947492399207256"><ele>1133.0</ele><time>2026-04-03T15:35:55.8Z</time></trkpt><trkpt lat="45.85889453995387" lon="9.947498058649842"><ele>1132.25</ele><time>2026-04-03T15:35:56.8Z</time></trkpt><trkpt lat="45.85873038146967" lon="9.947569782196828"><ele>1131.5</ele><time>2026-04-03T15:35:58.8Z</time></trkpt><trkpt lat="45.858599484623994" lon="9.947628142275581"><ele>1130.75</ele><time>2026-04-03T15:35:59.8Z</time></trkpt><trkpt lat="45.85850981764312" lon="9.947670905664713"><ele>1130.0</ele><time>2026-04-03T15:36:00.8Z</time></trkpt><trkpt lat="45.858413937460526" lon="9.947730127369281"><ele>1130.0</ele><time>2026-04-03T15:36:01.8Z</time></trkpt><trkpt lat="45.85829006819981" lon="9.9477848147421"><ele>1130.0</ele><time>2026-04-03T15:36:02.806Z</time></trkpt><trkpt lat="45.858183828935104" lon="9.947841150189278"><ele>1130.0</ele><time>2026-04-03T15:36:03.806Z</time></trkpt><trkpt lat="45.85812235070889" lon="9.947877811372086"><ele>1130.0</ele><time>2026-04-03T15:36:04.806Z</time></trkpt><trkpt lat="45.85804521738294" lon="9.947883725573249"><ele>1130.0</ele><time>2026-04-03T15:36:05.806Z</time></trkpt><trkpt lat="45.85793813589845" lon="9.94791618976322"><ele>1130.0</ele><time>2026-04-03T15:36:06.806Z</time></trkpt><trkpt lat="45.85785096224298" lon="9.94791518211084"><ele>1130.0</ele><time>2026-04-03T15:36:07.805Z</time></trkpt><trkpt lat="45.8577465470681" lon="9.947911290840318"><ele>1130.0</ele><time>2026-04-03T15:36:08.806Z</time></trkpt><trkpt lat="45.857633277589926" lon="9.947917555579536"><ele>1130.0</ele><time>2026-04-03T15:36:09.805Z</time></trkpt><trkpt lat="45.85753096646978" lon="9.947922437524145"><ele>1130.0</ele><time>2026-04-03T15:36:10.805Z</time></trkpt><trkpt lat="45.857420875241864" lon="9.947943058646313"><ele>1131.8</ele><time>2026-04-03T15:36:11.805Z</time></trkpt><trkpt lat="45.857306569080365" lon="9.947967457088026"><ele>1133.6</ele><time>2026-04-03T15:36:12.806Z</time></trkpt><trkpt lat="45.85721260825728" lon="9.947988009450249"><ele>1135.4</ele><time>2026-04-03T15:36:13.806Z</time></trkpt><trkpt lat="45.857111726575425" lon="9.94803387700343"><ele>1137.2</ele><time>2026-04-03T15:36:14.806Z</time></trkpt><trkpt lat="45.857012675543665" lon="9.948080840545833"><ele>1139.0</ele><time>2026-04-03T15:36:15.805Z</time></trkpt><trkpt lat="45.8569153005464" lon="9.94810430618358"><ele>1139.0</ele><time>2026-04-03T15:36:16.805Z</time></trkpt><trkpt lat="45.85682434922028" lon="9.948120088106382"><ele>1139.0</ele><time>2026-04-03T15:36:17.805Z</time></trkpt><trkpt lat="45.856753831962294" lon="9.948142868136468"><ele>1139.0</ele><time>2026-04-03T15:36:18.805Z</time></trkpt><trkpt lat="45.85663606539288" lon="9.948201016181086"><ele>1139.0</ele><time>2026-04-03T15:36:20.805Z</time></trkpt><trkpt lat="45.85653180569072" lon="9.948294046525197"><ele>1139.0</ele><time>2026-04-03T15:36:22.805Z</time></trkpt><trkpt lat="45.85641512954638" lon="9.948387906684763"><ele>1138.1666666666667</ele><time>2026-04-03T15:36:24.805Z</time></trkpt><trkpt lat="45.85634211859849" lon="9.948441129971668"><ele>1137.3333333333335</ele><time>2026-04-03T15:36:25.805Z</time></trkpt><trkpt lat="45.856271713308715" lon="9.94849423717589"><ele>1136.5</ele><time>2026-04-03T15:36:26.805Z</time></trkpt><trkpt lat="45.85620299854146" lon="9.948535437746024"><ele>1135.6666666666667</ele><time>2026-04-03T15:36:27.805Z</time></trkpt><trkpt lat="45.85614011164298" lon="9.94856923079404"><ele>1134.8333333333333</ele><time>2026-04-03T15:36:28.805Z</time></trkpt><trkpt lat="45.85603660073689" lon="9.948607867175538"><ele>1134.0</ele><time>2026-04-03T15:36:30.804Z</time></trkpt><trkpt lat="45.85590996351427" lon="9.948626679433126"><ele>1134.0</ele><time>2026-04-03T15:36:32.804Z</time></trkpt><trkpt lat="45.855790406941416" lon="9.94860460442698"><ele>1134.0</ele><time>2026-04-03T15:36:34.804Z</time></trkpt><trkpt lat="45.85566272254798" lon="9.948575642030098"><ele>1134.0</ele><time>2026-04-03T15:36:36.804Z</time></trkpt><trkpt lat="45.8556000189098" lon="9.948601215674428"><ele>1134.0</ele><time>2026-04-03T15:36:37.804Z</time></trkpt><trkpt lat="45.85553322008789" lon="9.948661587432506"><ele>1134.0</ele><time>2026-04-03T15:36:38.804Z</time></trkpt><trkpt lat="45.85549339061648" lon="9.948788123997225"><ele>1134.0</ele><time>2026-04-03T15:36:39.804Z</time></trkpt><trkpt lat="45.855464767592416" lon="9.948939811790629"><ele>1134.0</ele><time>2026-04-03T15:36:40.804Z</time></trkpt><trkpt lat="45.85542832897441" lon="9.949093281051805"><ele>1134.0</ele><time>2026-04-03T15:36:41.804Z</time></trkpt><trkpt lat="45.855392112103935" lon="9.949266735204375"><ele>1134.0</ele><time>2026-04-03T15:36:42.804Z</time></trkpt><trkpt lat="45.85536028537637" lon="9.949453496951426"><ele>1134.6000000000001</ele><time>2026-04-03T15:36:43.804Z</time></trkpt><trkpt lat="45.85534203519261" lon="9.949649881895098"><ele>1135.2</ele><time>2026-04-03T15:36:44.804Z</time></trkpt><trkpt lat="45.85534306885901" lon="9.949810557504076"><ele>1135.8000000000002</ele><time>2026-04-03T15:36:45.803Z</time></trkpt><trkpt lat="45.85534496828953" lon="9.949943150651945"><ele>1136.4</ele><time>2026-04-03T15:36:46.803Z</time></trkpt><trkpt lat="45.85534472434482" lon="9.950056195824729"><ele>1137.0</ele><time>2026-04-03T15:36:47.803Z</time></trkpt><trkpt lat="45.85533827733258" lon="9.95014821303172"><ele>1137.0</ele><time>2026-04-03T15:36:48.803Z</time></trkpt><trkpt lat="45.855302100623405" lon="9.950266202837572"><ele>1137.0</ele><time>2026-04-03T15:36:50.803Z</time></trkpt><trkpt lat="45.85522884409324" lon="9.950366975102614"><ele>1137.0</ele><time>2026-04-03T15:36:52.803Z</time></trkpt><trkpt lat="45.855173835033064" lon="9.950440589451016"><ele>1137.0</ele><time>2026-04-03T15:36:53.803Z</time></trkpt><trkpt lat="45.85510665998215" lon="9.95052263199121"><ele>1137.0</ele><time>2026-04-03T15:36:54.803Z</time></trkpt><trkpt lat="45.855046262272126" lon="9.950632778638147"><ele>1137.0</ele><time>2026-04-03T15:36:55.803Z</time></trkpt><trkpt lat="45.85499799833843" lon="9.95077353789342"><ele>1137.0</ele><time>2026-04-03T15:36:56.803Z</time></trkpt><trkpt lat="45.8549641018305" lon="9.95094327946953"><ele>1137.0</ele><time>2026-04-03T15:36:57.803Z</time></trkpt><trkpt lat="45.8549463774731" lon="9.951127974325441"><ele>1137.0</ele><time>2026-04-03T15:36:58.803Z</time></trkpt><trkpt lat="45.854938395677465" lon="9.951340299452555"><ele>1137.75</ele><time>2026-04-03T15:36:59.803Z</time></trkpt><trkpt lat="45.854928143250824" lon="9.951516356094594"><ele>1138.5</ele><time>2026-04-03T15:37:00.803Z</time></trkpt><trkpt lat="45.85491170166642" lon="9.951694416670799"><ele>1139.25</ele><time>2026-04-03T15:37:01.803Z</time></trkpt><trkpt lat="45.8548874856713" lon="9.95184501726002"><ele>1140.0</ele><time>2026-04-03T15:37:02.802Z</time></trkpt><trkpt lat="45.854864864641065" lon="9.951980861209737"><ele>1140.2</ele><time>2026-04-03T15:37:03.802Z</time></trkpt><trkpt lat="45.85485346025083" lon="9.952086774937076"><ele>1140.4</ele><time>2026-04-03T15:37:04.802Z</time></trkpt><trkpt lat="45.85484930683068" lon="9.952213901621988"><ele>1140.6</ele><time>2026-04-03T15:37:06.802Z</time></trkpt><trkpt lat="45.8548562158865" lon="9.952348703911783"><ele>1140.8</ele><time>2026-04-03T15:37:08.802Z</time></trkpt><trkpt lat="45.85479987176923" lon="9.952485536432405"><ele>1141.0</ele><time>2026-04-03T15:37:10.802Z</time></trkpt><trkpt lat="45.854689415707455" lon="9.952570337439127"><ele>1141.0</ele><time>2026-04-03T15:37:12.802Z</time></trkpt><trkpt lat="45.85462824592762" lon="9.952628276064923"><ele>1141.0</ele><time>2026-04-03T15:37:13.802Z</time></trkpt><trkpt lat="45.854532497389584" lon="9.95266050849944"><ele>1141.0</ele><time>2026-04-03T15:37:15.802Z</time></trkpt><trkpt lat="45.85448817743386" lon="9.95255780795353"><ele>1141.0</ele><time>2026-04-03T15:37:18.801Z</time></trkpt><trkpt lat="45.85443557808782" lon="9.952483043997624"><ele>1141.0</ele><time>2026-04-03T15:37:20.801Z</time></trkpt><trkpt lat="45.854357860863594" lon="9.952455129758947"><ele>1141.0</ele><time>2026-04-03T15:37:22.801Z</time></trkpt><trkpt lat="45.854288578163256" lon="9.952441306074427"><ele>1140.3333333333333</ele><time>2026-04-03T15:37:24.801Z</time></trkpt><trkpt lat="45.85422400718547" lon="9.952449224980226"><ele>1139.6666666666665</ele><time>2026-04-03T15:37:26.801Z</time></trkpt><trkpt lat="45.85410335063542" lon="9.952452428805458"><ele>1139.0</ele><time>2026-04-03T15:37:29.801Z</time></trkpt><trkpt lat="45.854020691616014" lon="9.952481190214478"><ele>1138.3333333333333</ele><time>2026-04-03T15:37:31.801Z</time></trkpt><trkpt lat="45.85394774695591" lon="9.952555376748856"><ele>1137.6666666666667</ele><time>2026-04-03T15:37:33.801Z</time></trkpt><trkpt lat="45.853872731159655" lon="9.952572704181751"><ele>1137.0</ele><time>2026-04-03T15:37:35.8Z</time></trkpt><trkpt lat="45.853771108303185" lon="9.95258504550104"><ele>1137.0</ele><time>2026-04-03T15:37:38.8Z</time></trkpt><trkpt lat="45.853665645976" lon="9.952557816574942"><ele>1137.0</ele><time>2026-04-03T15:37:40.8Z</time></trkpt><trkpt lat="45.85357264717094" lon="9.952563798671818"><ele>1137.0</ele><time>2026-04-03T15:37:42.8Z</time></trkpt><trkpt lat="45.85349949228582" lon="9.95254499301677"><ele>1137.0</ele><time>2026-04-03T15:37:43.8Z</time></trkpt><trkpt lat="45.85342064985686" lon="9.95248479352733"><ele>1137.0</ele><time>2026-04-03T15:37:44.8Z</time></trkpt><trkpt lat="45.85332980785758" lon="9.952467906451522"><ele>1141.6666666666667</ele><time>2026-04-03T15:37:46.8Z</time></trkpt><trkpt lat="45.853236093377305" lon="9.952398078880728"><ele>1146.3333333333333</ele><time>2026-04-03T15:37:48.8Z</time></trkpt><trkpt lat="45.85318288648532" lon="9.952315739068487"><ele>1151.0</ele><time>2026-04-03T15:37:50.8Z</time></trkpt><trkpt lat="45.85311840616117" lon="9.952274050255042"><ele>1155.6666666666665</ele><time>2026-04-03T15:37:52.799Z</time></trkpt><trkpt lat="45.85306921994099" lon="9.952159428140181"><ele>1160.3333333333333</ele><time>2026-04-03T15:37:54.799Z</time></trkpt><trkpt lat="45.853048544665825" lon="9.952057623411084"><ele>1165.0</ele><time>2026-04-03T15:37:55.799Z</time></trkpt><trkpt lat="45.85302343328024" lon="9.951908206003901"><ele>1165.0</ele><time>2026-04-03T15:37:56.799Z</time></trkpt><trkpt lat="45.85299394270332" lon="9.951778654935566"><ele>1165.0</ele><time>2026-04-03T15:37:57.799Z</time></trkpt><trkpt lat="45.85295226863096" lon="9.951685996057092"><ele>1165.0</ele><time>2026-04-03T15:37:58.799Z</time></trkpt><trkpt lat="45.8529095561736" lon="9.951494145666762"><ele>1165.0</ele><time>2026-04-03T15:38:00.799Z</time></trkpt><trkpt lat="45.85285802733176" lon="9.951379348114816"><ele>1165.0</ele><time>2026-04-03T15:38:02.799Z</time></trkpt><trkpt lat="45.85279033001108" lon="9.951292700460234"><ele>1165.5</ele><time>2026-04-03T15:38:05.799Z</time></trkpt><trkpt lat="45.852682026241" lon="9.951369062375171"><ele>1166.0</ele><time>2026-04-03T15:38:07.799Z</time></trkpt><trkpt lat="45.85263145309024" lon="9.951452986526295"><ele>1166.5</ele><time>2026-04-03T15:38:08.805Z</time></trkpt><trkpt lat="45.85258887995699" lon="9.951532324999235"><ele>1167.0</ele><time>2026-04-03T15:38:09.805Z</time></trkpt><trkpt lat="45.85252226642034" lon="9.951511617770963"><ele>1167.5</ele><time>2026-04-03T15:38:12.805Z</time></trkpt><trkpt lat="45.852481580137756" lon="9.951422406381692"><ele>1168.0</ele><time>2026-04-03T15:38:14.805Z</time></trkpt><trkpt lat="45.852458205080445" lon="9.951287563898982"><ele>1175.0</ele><time>2026-04-03T15:38:16.805Z</time></trkpt><trkpt lat="45.85244159946366" lon="9.95105100768456"><ele>1182.0</ele><time>2026-04-03T15:38:18.805Z</time></trkpt><trkpt lat="45.85241101968174" lon="9.950895626007892"><ele>1189.0</ele><time>2026-04-03T15:38:19.805Z</time></trkpt><trkpt lat="45.852397190260824" lon="9.950787541222283"><ele>1196.0</ele><time>2026-04-03T15:38:20.805Z</time></trkpt><trkpt lat="45.852357836063334" lon="9.950702507154373"><ele>1203.0</ele><time>2026-04-03T15:38:21.805Z</time></trkpt><trkpt lat="45.85232136194062" lon="9.950600633936418"><ele>1203.8</ele><time>2026-04-03T15:38:22.805Z</time></trkpt><trkpt lat="45.85226384559413" lon="9.950493436041716"><ele>1204.6</ele><time>2026-04-03T15:38:23.805Z</time></trkpt><trkpt lat="45.85220986119285" lon="9.950350329485374"><ele>1205.4</ele><time>2026-04-03T15:38:24.805Z</time></trkpt><trkpt lat="45.85213977082203" lon="9.950231116817957"><ele>1206.2</ele><time>2026-04-03T15:38:25.805Z</time></trkpt><trkpt lat="45.852062161363484" lon="9.950115731623393"><ele>1207.0</ele><time>2026-04-03T15:38:26.805Z</time></trkpt><trkpt lat="45.85198662261669" lon="9.95002349622101"><ele>1207.2</ele><time>2026-04-03T15:38:27.805Z</time></trkpt><trkpt lat="45.851927785244115" lon="9.949882149093746"><ele>1207.4</ele><time>2026-04-03T15:38:28.804Z</time></trkpt><trkpt lat="45.851892342349736" lon="9.949788514742949"><ele>1207.6</ele><time>2026-04-03T15:38:29.804Z</time></trkpt><trkpt lat="45.85186311963192" lon="9.949684597337196"><ele>1207.8</ele><time>2026-04-03T15:38:30.804Z</time></trkpt><trkpt lat="45.851823064530066" lon="9.949536559416316"><ele>1208.0</ele><time>2026-04-03T15:38:31.804Z</time></trkpt><trkpt lat="45.85176339354778" lon="9.949469099129225"><ele>1217.75</ele><time>2026-04-03T15:38:32.804Z</time></trkpt><trkpt lat="45.85163052122856" lon="9.94939554885307"><ele>1227.5</ele><time>2026-04-03T15:38:34.804Z</time></trkpt><trkpt lat="45.85150132064419" lon="9.949389589687208"><ele>1237.25</ele><time>2026-04-03T15:38:36.804Z</time></trkpt><trkpt lat="45.851446508733844" lon="9.949482514497888"><ele>1247.0</ele><time>2026-04-03T15:38:38.804Z</time></trkpt><trkpt lat="45.85146176673692" lon="9.949661120796025"><ele>1247.0</ele><time>2026-04-03T15:38:41.804Z</time></trkpt><trkpt lat="45.85146526397761" lon="9.94976444633814"><ele>1247.0</ele><time>2026-04-03T15:38:43.804Z</time></trkpt><trkpt lat="45.85141393139963" lon="9.949851840971156"><ele>1247.0</ele><time>2026-04-03T15:38:45.803Z</time></trkpt><trkpt lat="45.85138488524059" lon="9.949957919713702"><ele>1247.0</ele><time>2026-04-03T15:38:47.803Z</time></trkpt><trkpt lat="45.85139101903686" lon="9.950091827051722"><ele>1247.0</ele><time>2026-04-03T15:38:49.803Z</time></trkpt><trkpt lat="45.851377093138666" lon="9.95019189975416"><ele>1247.0</ele><time>2026-04-03T15:38:50.803Z</time></trkpt><trkpt lat="45.85133359941073" lon="9.95027575722946"><ele>1248.1666666666667</ele><time>2026-04-03T15:38:51.803Z</time></trkpt><trkpt lat="45.85131169531129" lon="9.950361818469037"><ele>1249.3333333333335</ele><time>2026-04-03T15:38:52.803Z</time></trkpt><trkpt lat="45.85128216512069" lon="9.95048849247871"><ele>1250.5</ele><time>2026-04-03T15:38:53.803Z</time></trkpt><trkpt lat="45.851249640224005" lon="9.950593587537963"><ele>1251.6666666666667</ele><time>2026-04-03T15:38:55.803Z</time></trkpt><trkpt lat="45.8511778676619" lon="9.950632832380995"><ele>1252.8333333333333</ele><time>2026-04-03T15:39:00.803Z</time></trkpt><trkpt lat="45.85110122790295" lon="9.950729197993402"><ele>1254.0</ele><time>2026-04-03T15:39:03.802Z</time></trkpt><trkpt lat="45.85104351405093" lon="9.95082965329546"><ele>1252.5</ele><time>2026-04-03T15:39:05.802Z</time></trkpt><trkpt lat="45.85099004151751" lon="9.950918671486118"><ele>1251.0</ele><time>2026-04-03T15:39:08.802Z</time></trkpt><trkpt lat="45.85090794671197" lon="9.950889768667329"><ele>1249.5</ele><time>2026-04-03T15:39:10.802Z</time></trkpt><trkpt lat="45.85085192198874" lon="9.950798338952348"><ele>1248.0</ele><time>2026-04-03T15:39:13.802Z</time></trkpt><trkpt lat="45.85076887717294" lon="9.950744408749781"><ele>1246.5</ele><time>2026-04-03T15:39:15.802Z</time></trkpt><trkpt lat="45.85070812049442" lon="9.950647648117263"><ele>1245.0</ele><time>2026-04-03T15:39:16.802Z</time></trkpt><trkpt lat="45.85064272108559" lon="9.950546486900102"><ele>1252.0</ele><time>2026-04-03T15:39:17.802Z</time></trkpt><trkpt lat="45.850605339231805" lon="9.950471407896707"><ele>1259.0</ele><time>2026-04-03T15:39:18.801Z</time></trkpt><trkpt lat="45.850515145325076" lon="9.950325891354304"><ele>1266.0</ele><time>2026-04-03T15:39:20.801Z</time></trkpt><trkpt lat="45.850470554263325" lon="9.950257780111048"><ele>1273.0</ele><time>2026-04-03T15:39:21.801Z</time></trkpt><trkpt lat="45.850393379318945" lon="9.95020466438348"><ele>1280.0</ele><time>2026-04-03T15:39:23.801Z</time></trkpt><trkpt lat="45.85032765717576" lon="9.950179186915362"><ele>1287.0</ele><time>2026-04-03T15:39:24.801Z</time></trkpt><trkpt lat="45.85024960760173" lon="9.950122454140207"><ele>1287.0</ele><time>2026-04-03T15:39:25.801Z</time></trkpt><trkpt lat="45.85017308317966" lon="9.950053091132618"><ele>1287.0</ele><time>2026-04-03T15:39:26.801Z</time></trkpt><trkpt lat="45.85008485434982" lon="9.949979142831411"><ele>1287.0</ele><time>2026-04-03T15:39:27.801Z</time></trkpt><trkpt lat="45.850002744689654" lon="9.94993943449427"><ele>1287.0</ele><time>2026-04-03T15:39:28.801Z</time></trkpt><trkpt lat="45.849908626217065" lon="9.94990084034853"><ele>1287.0</ele><time>2026-04-03T15:39:29.801Z</time></trkpt><trkpt lat="45.84982349249343" lon="9.949861647799782"><ele>1291.1999999999998</ele><time>2026-04-03T15:39:30.801Z</time></trkpt><trkpt lat="45.84976504700097" lon="9.94981560451393"><ele>1295.4</ele><time>2026-04-03T15:39:31.801Z</time></trkpt><trkpt lat="45.84965157069373" lon="9.949757717263074"><ele>1299.6</ele><time>2026-04-03T15:39:33.801Z</time></trkpt><trkpt lat="45.84958226253692" lon="9.949714982686723"><ele>1303.8000000000002</ele><time>2026-04-03T15:39:34.8Z</time></trkpt><trkpt lat="45.84950902564395" lon="9.949621228612093"><ele>1308.0</ele><time>2026-04-03T15:39:35.8Z</time></trkpt><trkpt lat="45.849428129703064" lon="9.949513017891592"><ele>1308.0</ele><time>2026-04-03T15:39:36.8Z</time></trkpt><trkpt lat="45.84934307313946" lon="9.949421987318445"><ele>1308.0</ele><time>2026-04-03T15:39:37.8Z</time></trkpt><trkpt lat="45.84926597324809" lon="9.949333171077981"><ele>1308.0</ele><time>2026-04-03T15:39:38.8Z</time></trkpt><trkpt lat="45.84921563006602" lon="9.949253196464884"><ele>1308.0</ele><time>2026-04-03T15:39:39.8Z</time></trkpt><trkpt lat="45.84916359631024" lon="9.949124390521588"><ele>1308.0</ele><time>2026-04-03T15:39:41.8Z</time></trkpt><trkpt lat="45.84918848853374" lon="9.948985973959795"><ele>1311.25</ele><time>2026-04-03T15:39:45.8Z</time></trkpt><trkpt lat="45.84917610463982" lon="9.94884624524024"><ele>1314.5</ele><time>2026-04-03T15:39:47.8Z</time></trkpt><trkpt lat="45.849125291239325" lon="9.948693935610605"><ele>1317.75</ele><time>2026-04-03T15:39:49.8Z</time></trkpt><trkpt lat="45.8490610852465" lon="9.948552142522319"><ele>1321.0</ele><time>2026-04-03T15:39:50.8Z</time></trkpt><trkpt lat="45.849007046036306" lon="9.948398477797477"><ele>1319.1999999999998</ele><time>2026-04-03T15:39:51.799Z</time></trkpt><trkpt lat="45.84896978523286" lon="9.948321679799703"><ele>1317.3999999999999</ele><time>2026-04-03T15:39:52.799Z</time></trkpt><trkpt lat="45.84897663795616" lon="9.948194990729023"><ele>1315.6</ele><time>2026-04-03T15:39:55.799Z</time></trkpt><trkpt lat="45.84893211533173" lon="9.948030662061832"><ele>1313.8</ele><time>2026-04-03T15:39:57.799Z</time></trkpt><trkpt lat="45.84887886030594" lon="9.947880345131072"><ele>1312.0</ele><time>2026-04-03T15:39:59.799Z</time></trkpt><trkpt lat="45.84883469913227" lon="9.947773285561484"><ele>1312.0</ele><time>2026-04-03T15:40:00.799Z</time></trkpt><trkpt lat="45.84882239658455" lon="9.947662401594483"><ele>1312.0</ele><time>2026-04-03T15:40:01.799Z</time></trkpt><trkpt lat="45.84873528311625" lon="9.947511246448265"><ele>1312.0</ele><time>2026-04-03T15:40:03.799Z</time></trkpt><trkpt lat="45.848721860364485" lon="9.94736751166709"><ele>1312.0</ele><time>2026-04-03T15:40:05.799Z</time></trkpt><trkpt lat="45.84870234164831" lon="9.947278682307346"><ele>1312.0</ele><time>2026-04-03T15:40:06.799Z</time></trkpt><trkpt lat="45.848655255314185" lon="9.94719550226109"><ele>1309.1666666666665</ele><time>2026-04-03T15:40:07.799Z</time></trkpt><trkpt lat="45.84859805132895" lon="9.947108280705539"><ele>1306.3333333333333</ele><time>2026-04-03T15:40:08.798Z</time></trkpt><trkpt lat="45.84854727351165" lon="9.947041480556264"><ele>1303.5</ele><time>2026-04-03T15:40:09.798Z</time></trkpt><trkpt lat="45.848476462411895" lon="9.946962782877517"><ele>1300.6666666666667</ele><time>2026-04-03T15:40:10.798Z</time></trkpt><trkpt lat="45.84838425275686" lon="9.946903390935322"><ele>1297.8333333333335</ele><time>2026-04-03T15:40:11.798Z</time></trkpt><trkpt lat="45.848323690009664" lon="9.946857492221465"><ele>1295.0</ele><time>2026-04-03T15:40:12.798Z</time></trkpt><trkpt lat="45.84824928214709" lon="9.946814195001444"><ele>1300.4</ele><time>2026-04-03T15:40:13.798Z</time></trkpt><trkpt lat="45.848173953482885" lon="9.946731330897274"><ele>1305.8</ele><time>2026-04-03T15:40:15.805Z</time></trkpt><trkpt lat="45.84808597345577" lon="9.946711563736526"><ele>1311.1999999999998</ele><time>2026-04-03T15:40:17.805Z</time></trkpt><trkpt lat="45.8480019009068" lon="9.946602342733275"><ele>1316.6</ele><time>2026-04-03T15:40:19.804Z</time></trkpt><trkpt lat="45.8479271191493" lon="9.94645398361396"><ele>1322.0</ele><time>2026-04-03T15:40:21.804Z</time></trkpt><trkpt lat="45.84784707400526" lon="9.946349272571018"><ele>1322.0</ele><time>2026-04-03T15:40:23.804Z</time></trkpt><trkpt lat="45.84780324266389" lon="9.946281507230774"><ele>1322.0</ele><time>2026-04-03T15:40:27.805Z</time></trkpt><trkpt lat="45.84779303468442" lon="9.946176668769171"><ele>1322.0</ele><time>2026-04-03T15:40:31.804Z</time></trkpt><trkpt lat="45.8478198089447" lon="9.946081143409556"><ele>1322.0</ele><time>2026-04-03T15:40:35.804Z</time></trkpt><trkpt lat="45.847822695292976" lon="9.9459858014904"><ele>1322.0</ele><time>2026-04-03T15:40:37.804Z</time></trkpt><trkpt lat="45.84785952034915" lon="9.94590422141993"><ele>1322.0</ele><time>2026-04-03T15:40:39.804Z</time></trkpt><trkpt lat="45.8479300027726" lon="9.945823299859033"><ele>1322.0</ele><time>2026-04-03T15:40:41.804Z</time></trkpt><trkpt lat="45.84799248329254" lon="9.945718697486496"><ele>1320.6666666666667</ele><time>2026-04-03T15:40:43.804Z</time></trkpt><trkpt lat="45.84799082815185" lon="9.945626876074959"><ele>1319.3333333333335</ele><time>2026-04-03T15:40:44.804Z</time></trkpt><trkpt lat="45.848031792435975" lon="9.945526598893595"><ele>1318.0</ele><time>2026-04-03T15:40:46.803Z</time></trkpt><trkpt lat="45.84809108150212" lon="9.945488249870984"><ele>1316.6666666666667</ele><time>2026-04-03T15:40:48.803Z</time></trkpt><trkpt lat="45.84818877105881" lon="9.94538206396037"><ele>1315.3333333333333</ele><time>2026-04-03T15:40:50.803Z</time></trkpt><trkpt lat="45.84825228661297" lon="9.94528844595387"><ele>1314.0</ele><time>2026-04-03T15:40:51.803Z</time></trkpt><trkpt lat="45.848301622603586" lon="9.945184373489647"><ele>1314.0</ele><time>2026-04-03T15:40:52.803Z</time></trkpt><trkpt lat="45.84834593321324" lon="9.945063753708208"><ele>1314.0</ele><time>2026-04-03T15:40:53.803Z</time></trkpt><trkpt lat="45.848358841008405" lon="9.94494810533774"><ele>1314.0</ele><time>2026-04-03T15:40:55.803Z</time></trkpt><trkpt lat="45.848358571557895" lon="9.944849693007834"><ele>1314.0</ele><time>2026-04-03T15:40:56.803Z</time></trkpt><trkpt lat="45.84836705132561" lon="9.944724833468344"><ele>1314.0</ele><time>2026-04-03T15:40:58.803Z</time></trkpt><trkpt lat="45.84836225025801" lon="9.94460766562532"><ele>1314.0</ele><time>2026-04-03T15:40:59.803Z</time></trkpt><trkpt lat="45.84833490102146" lon="9.944471953594912"><ele>1317.8333333333333</ele><time>2026-04-03T15:41:00.803Z</time></trkpt><trkpt lat="45.8483124459403" lon="9.944359039325887"><ele>1321.6666666666667</ele><time>2026-04-03T15:41:01.803Z</time></trkpt><trkpt lat="45.848311832392596" lon="9.944231153113986"><ele>1325.5</ele><time>2026-04-03T15:41:02.803Z</time></trkpt><trkpt lat="45.84829655352945" lon="9.944039219834721"><ele>1329.3333333333335</ele><time>2026-04-03T15:41:04.802Z</time></trkpt><trkpt lat="45.84828488891806" lon="9.943943474572162"><ele>1333.1666666666667</ele><time>2026-04-03T15:41:05.802Z</time></trkpt><trkpt lat="45.84828991700685" lon="9.943848050981222"><ele>1337.0</ele><time>2026-04-03T15:41:06.802Z</time></trkpt><trkpt lat="45.84824005063792" lon="9.943784859796407"><ele>1337.5</ele><time>2026-04-03T15:41:08.802Z</time></trkpt><trkpt lat="45.84820352650757" lon="9.943690069189731"><ele>1338.0</ele><time>2026-04-03T15:41:10.802Z</time></trkpt><trkpt lat="45.84812286046007" lon="9.943636048586033"><ele>1338.5</ele><time>2026-04-03T15:41:11.802Z</time></trkpt><trkpt lat="45.84805306132382" lon="9.943598818647892"><ele>1339.0</ele><time>2026-04-03T15:41:12.802Z</time></trkpt><trkpt lat="45.847989879953246" lon="9.943510052710481"><ele>1339.5</ele><time>2026-04-03T15:41:13.802Z</time></trkpt><trkpt lat="45.84795826556845" lon="9.943429493332491"><ele>1340.0</ele><time>2026-04-03T15:41:14.802Z</time></trkpt><trkpt lat="45.84787643822976" lon="9.943375375093392"><ele>1340.0</ele><time>2026-04-03T15:41:15.802Z</time></trkpt><trkpt lat="45.847800126275764" lon="9.943304554495786"><ele>1340.0</ele><time>2026-04-03T15:41:16.802Z</time></trkpt><trkpt lat="45.84775801297707" lon="9.943223838107915"><ele>1340.0</ele><time>2026-04-03T15:41:18.802Z</time></trkpt><trkpt lat="45.84775273610528" lon="9.943131811667461"><ele>1340.0</ele><time>2026-04-03T15:41:20.801Z</time></trkpt><trkpt lat="45.84772546882587" lon="9.943022665816102"><ele>1340.0</ele><time>2026-04-03T15:41:22.801Z</time></trkpt><trkpt lat="45.84769126765279" lon="9.942893323366516"><ele>1340.0</ele><time>2026-04-03T15:41:24.801Z</time></trkpt><trkpt lat="45.84761699798808" lon="9.942819686746262"><ele>1345.5</ele><time>2026-04-03T15:41:26.801Z</time></trkpt><trkpt lat="45.84755464802204" lon="9.942777606662876"><ele>1351.0</ele><time>2026-04-03T15:41:28.801Z</time></trkpt><trkpt lat="45.84749822493948" lon="9.94272099139289"><ele>1356.5</ele><time>2026-04-03T15:41:31.801Z</time></trkpt><trkpt lat="45.847415137831604" lon="9.942685958671367"><ele>1362.0</ele><time>2026-04-03T15:41:41.8Z</time></trkpt><trkpt lat="45.84748276599752" lon="9.942622319894507"><ele>1367.5</ele><time>2026-04-03T15:42:25.804Z</time></trkpt><trkpt lat="45.847557418289455" lon="9.942573957083258"><ele>1373.0</ele><time>2026-04-03T15:42:28.803Z</time></trkpt><trkpt lat="45.8476188480348" lon="9.942519912654987"><ele>1362.4</ele><time>2026-04-03T15:42:31.804Z</time></trkpt><trkpt lat="45.84765537165687" lon="9.942431963973641"><ele>1351.8000000000002</ele><time>2026-04-03T15:42:34.804Z</time></trkpt><trkpt lat="45.84768402714903" lon="9.942344889424376"><ele>1341.2</ele><time>2026-04-03T15:42:36.804Z</time></trkpt><trkpt lat="45.847727695556074" lon="9.942234905563344"><ele>1330.6</ele><time>2026-04-03T15:42:38.804Z</time></trkpt><trkpt lat="45.84776668275874" lon="9.942072668641924"><ele>1320.0</ele><time>2026-04-03T15:42:40.804Z</time></trkpt><trkpt lat="45.84780672999263" lon="9.941918633089347"><ele>1320.0</ele><time>2026-04-03T15:42:42.803Z</time></trkpt><trkpt lat="45.84779355185453" lon="9.94178115448734"><ele>1320.0</ele><time>2026-04-03T15:42:44.803Z</time></trkpt><trkpt lat="45.84777594362189" lon="9.941610863060875"><ele>1320.0</ele><time>2026-04-03T15:42:46.803Z</time></trkpt><trkpt lat="45.847771541048324" lon="9.941498934570847"><ele>1320.0</ele><time>2026-04-03T15:42:47.803Z</time></trkpt><trkpt lat="45.84774432385443" lon="9.941388277914672"><ele>1320.0</ele><time>2026-04-03T15:42:48.803Z</time></trkpt><trkpt lat="45.84778456327468" lon="9.941269763205025"><ele>1321.6</ele><time>2026-04-03T15:42:51.803Z</time></trkpt><trkpt lat="45.847840031212165" lon="9.941173453363147"><ele>1323.2</ele><time>2026-04-03T15:42:53.803Z</time></trkpt><trkpt lat="45.84783391528886" lon="9.940999512968096"><ele>1324.8000000000002</ele><time>2026-04-03T15:42:55.803Z</time></trkpt><trkpt lat="45.847811158231366" lon="9.940908398843003"><ele>1326.4</ele><time>2026-04-03T15:42:56.803Z</time></trkpt><trkpt lat="45.84776730376128" lon="9.940779432603742"><ele>1328.0</ele><time>2026-04-03T15:42:57.802Z</time></trkpt><trkpt lat="45.847710545757785" lon="9.940657595116086"><ele>1329.5</ele><time>2026-04-03T15:42:59.802Z</time></trkpt><trkpt lat="45.847656002250666" lon="9.940561856538547"><ele>1331.0</ele><time>2026-04-03T15:43:00.802Z</time></trkpt><trkpt lat="45.84763203279816" lon="9.940465985624563"><ele>1332.5</ele><time>2026-04-03T15:43:01.802Z</time></trkpt><trkpt lat="45.847629414212875" lon="9.94034847182"><ele>1334.0</ele><time>2026-04-03T15:43:03.802Z</time></trkpt><trkpt lat="45.84762503503861" lon="9.940234203546504"><ele>1335.5</ele><time>2026-04-03T15:43:06.802Z</time></trkpt><trkpt lat="45.84766716870516" lon="9.940157659195782"><ele>1337.0</ele><time>2026-04-03T15:43:08.802Z</time></trkpt><trkpt lat="45.84777607648838" lon="9.940113759139535"><ele>1338.8</ele><time>2026-04-03T15:43:10.802Z</time></trkpt><trkpt lat="45.847872317823345" lon="9.94003761958623"><ele>1340.6</ele><time>2026-04-03T15:43:12.802Z</time></trkpt><trkpt lat="45.8479817663885" lon="9.939935904516743"><ele>1342.3999999999999</ele><time>2026-04-03T15:43:14.801Z</time></trkpt><trkpt lat="45.84804794948671" lon="9.939808288970156"><ele>1344.1999999999998</ele><time>2026-04-03T15:43:16.801Z</time></trkpt><trkpt lat="45.84805142772675" lon="9.939714231326299"><ele>1346.0</ele><time>2026-04-03T15:43:18.801Z</time></trkpt><trkpt lat="45.84811489714117" lon="9.939585221831559"><ele>1346.0</ele><time>2026-04-03T15:43:22.801Z</time></trkpt><trkpt lat="45.84814395618963" lon="9.939492092093506"><ele>1346.0</ele><time>2026-04-03T15:43:23.801Z</time></trkpt><trkpt lat="45.84818614592663" lon="9.939397385256262"><ele>1346.0</ele><time>2026-04-03T15:43:24.801Z</time></trkpt><trkpt lat="45.8482021095108" lon="9.939218154016428"><ele>1346.0</ele><time>2026-04-03T15:43:26.801Z</time></trkpt><trkpt lat="45.84825513268313" lon="9.938450646591924"><ele>1354.8</ele><time>2026-04-03T15:43:27.801Z</time></trkpt><trkpt lat="45.84829270469067" lon="9.938330007809276"><ele>1363.6</ele><time>2026-04-03T15:43:28.801Z</time></trkpt><trkpt lat="45.8483223542871" lon="9.938214178294619"><ele>1372.4</ele><time>2026-04-03T15:43:29.801Z</time></trkpt><trkpt lat="45.84835066255409" lon="9.938057777064937"><ele>1381.2</ele><time>2026-04-03T15:43:31.8Z</time></trkpt><trkpt lat="45.84835790680861" lon="9.937923567203825"><ele>1390.0</ele><time>2026-04-03T15:43:32.8Z</time></trkpt><trkpt lat="45.84835758914742" lon="9.937798994274768"><ele>1390.0</ele><time>2026-04-03T15:43:33.8Z</time></trkpt><trkpt lat="45.84833877491865" lon="9.937684751264975"><ele>1390.0</ele><time>2026-04-03T15:43:34.8Z</time></trkpt><trkpt lat="45.84832499190618" lon="9.93756506736765"><ele>1390.0</ele><time>2026-04-03T15:43:35.8Z</time></trkpt><trkpt lat="45.848271362067" lon="9.93744357406624"><ele>1390.0</ele><time>2026-04-03T15:43:36.8Z</time></trkpt><trkpt lat="45.84820694019657" lon="9.937367854935788"><ele>1390.0</ele><time>2026-04-03T15:43:37.8Z</time></trkpt><trkpt lat="45.84816149400556" lon="9.937252463614783"><ele>1390.0</ele><time>2026-04-03T15:43:38.8Z</time></trkpt><trkpt lat="45.848106954727434" lon="9.937184948514584"><ele>1392.0</ele><time>2026-04-03T15:43:39.8Z</time></trkpt><trkpt lat="45.848049724261564" lon="9.9370501364392"><ele>1394.0</ele><time>2026-04-03T15:43:41.8Z</time></trkpt><trkpt lat="45.84800128435911" lon="9.936932337710227"><ele>1396.0</ele><time>2026-04-03T15:43:42.8Z</time></trkpt><trkpt lat="45.84791201800386" lon="9.936808049567318"><ele>1398.0</ele><time>2026-04-03T15:43:44.8Z</time></trkpt><trkpt lat="45.84788553339681" lon="9.936716886551173"><ele>1400.0</ele><time>2026-04-03T15:43:48.799Z</time></trkpt><trkpt lat="45.847855999914366" lon="9.936580952044991"><ele>1400.0</ele><time>2026-04-03T15:43:55.799Z</time></trkpt><trkpt lat="45.8478396051483" lon="9.936476599393284"><ele>1400.0</ele><time>2026-04-03T15:43:56.799Z</time></trkpt><trkpt lat="45.847819219789926" lon="9.936340019493725"><ele>1400.0</ele><time>2026-04-03T15:43:58.799Z</time></trkpt><trkpt lat="45.84788104197154" lon="9.93631617098988"><ele>1400.0</ele><time>2026-04-03T15:44:01.799Z</time></trkpt><trkpt lat="45.847860642434114" lon="9.936227561054324"><ele>1400.0</ele><time>2026-04-03T15:44:05.798Z</time></trkpt><trkpt lat="45.84787786865499" lon="9.936127965987508"><ele>1400.0</ele><time>2026-04-03T15:44:07.798Z</time></trkpt><trkpt lat="45.847896469445466" lon="9.936037234768374"><ele>1400.0</ele><time>2026-04-03T15:44:09.798Z</time></trkpt><trkpt lat="45.84792152909548" lon="9.93589197810482"><ele>1401.4</ele><time>2026-04-03T15:44:11.798Z</time></trkpt><trkpt lat="45.847914663678175" lon="9.935778191514771"><ele>1402.8</ele><time>2026-04-03T15:44:12.798Z</time></trkpt><trkpt lat="45.84790312213663" lon="9.93564677906177"><ele>1404.1999999999998</ele><time>2026-04-03T15:44:13.798Z</time></trkpt><trkpt lat="45.84788895699246" lon="9.935529383812288"><ele>1405.6</ele><time>2026-04-03T15:44:14.798Z</time></trkpt><trkpt lat="45.84787090791818" lon="9.935390371031202"><ele>1407.0</ele><time>2026-04-03T15:44:15.798Z</time></trkpt><trkpt lat="45.84787081087517" lon="9.935245885635538"><ele>1407.0</ele><time>2026-04-03T15:44:16.798Z</time></trkpt><trkpt lat="45.84786053879166" lon="9.935057383071467"><ele>1407.0</ele><time>2026-04-03T15:44:17.798Z</time></trkpt><trkpt lat="45.8478241148534" lon="9.93492857309839"><ele>1407.0</ele><time>2026-04-03T15:44:18.798Z</time></trkpt><trkpt lat="45.847819349884894" lon="9.934819199553957"><ele>1407.0</ele><time>2026-04-03T15:44:19.798Z</time></trkpt><trkpt lat="45.847842419416814" lon="9.934692828604039"><ele>1407.0</ele><time>2026-04-03T15:44:21.797Z</time></trkpt><trkpt lat="45.84776960271846" lon="9.934581012847"><ele>1409.8333333333333</ele><time>2026-04-03T15:44:22.797Z</time></trkpt><trkpt lat="45.84775056868731" lon="9.93447848067983"><ele>1412.6666666666667</ele><time>2026-04-03T15:44:23.797Z</time></trkpt><trkpt lat="45.8477138594858" lon="9.934353670445107"><ele>1415.5</ele><time>2026-04-03T15:44:24.797Z</time></trkpt><trkpt lat="45.84767967571086" lon="9.934231207231809"><ele>1418.3333333333335</ele><time>2026-04-03T15:44:25.803Z</time></trkpt><trkpt lat="45.84765417771121" lon="9.934148193480983"><ele>1421.1666666666667</ele><time>2026-04-03T15:44:26.803Z</time></trkpt><trkpt lat="45.84761583471209" lon="9.934051271328427"><ele>1424.0</ele><time>2026-04-03T15:44:28.803Z</time></trkpt><trkpt lat="45.847568647731606" lon="9.93388802865849"><ele>1430.6666666666667</ele><time>2026-04-03T15:44:30.802Z</time></trkpt><trkpt lat="45.847531418903685" lon="9.933772204141935"><ele>1437.3333333333335</ele><time>2026-04-03T15:44:31.802Z</time></trkpt><trkpt lat="45.847501420476306" lon="9.933682331866109"><ele>1444.0</ele><time>2026-04-03T15:44:32.803Z</time></trkpt><trkpt lat="45.84748666344808" lon="9.93359255882415"><ele>1450.6666666666667</ele><time>2026-04-03T15:44:33.802Z</time></trkpt><trkpt lat="45.84745493293587" lon="9.933510333298521"><ele>1457.3333333333333</ele><time>2026-04-03T15:44:34.803Z</time></trkpt><trkpt lat="45.84738913226988" lon="9.93336256220998"><ele>1464.0</ele><time>2026-04-03T15:44:36.803Z</time></trkpt><trkpt lat="45.84732810700887" lon="9.93324222492562"><ele>1464.0</ele><time>2026-04-03T15:44:38.803Z</time></trkpt><trkpt lat="45.84722987159538" lon="9.933157201345642"><ele>1464.0</ele><time>2026-04-03T15:44:40.803Z</time></trkpt><trkpt lat="45.84714464467336" lon="9.933032709240932"><ele>1464.0</ele><time>2026-04-03T15:44:42.803Z</time></trkpt><trkpt lat="45.84708659003511" lon="9.932969058164153"><ele>1464.0</ele><time>2026-04-03T15:44:43.803Z</time></trkpt><trkpt lat="45.84702522249068" lon="9.93291200206491"><ele>1464.0</ele><time>2026-04-03T15:44:44.803Z</time></trkpt><trkpt lat="45.84696184169849" lon="9.932870963363806"><ele>1464.0</ele><time>2026-04-03T15:44:45.803Z</time></trkpt><trkpt lat="45.84690588032463" lon="9.932824801128021"><ele>1464.0</ele><time>2026-04-03T15:44:46.803Z</time></trkpt><trkpt lat="45.84684633855689" lon="9.932758889598952"><ele>1464.0</ele><time>2026-04-03T15:44:47.803Z</time></trkpt><trkpt lat="45.84678996767587" lon="9.932699684104396"><ele>1464.0</ele><time>2026-04-03T15:44:48.803Z</time></trkpt><trkpt lat="45.846722006605454" lon="9.932630758613682"><ele>1464.0</ele><time>2026-04-03T15:44:49.803Z</time></trkpt><trkpt lat="45.846661722409856" lon="9.9325584685366"><ele>1464.0</ele><time>2026-04-03T15:44:50.802Z</time></trkpt><trkpt lat="45.84660561450032" lon="9.932505000785973"><ele>1464.0</ele><time>2026-04-03T15:44:51.802Z</time></trkpt><trkpt lat="45.8465514263144" lon="9.932442186873066"><ele>1463.3333333333333</ele><time>2026-04-03T15:44:52.802Z</time></trkpt><trkpt lat="45.84645539448677" lon="9.932314060558392"><ele>1462.6666666666667</ele><time>2026-04-03T15:44:54.802Z</time></trkpt><trkpt lat="45.84640486347437" lon="9.932239106245977"><ele>1462.0</ele><time>2026-04-03T15:44:55.802Z</time></trkpt><trkpt lat="45.846355705582674" lon="9.932168237299194"><ele>1461.3333333333335</ele><time>2026-04-03T15:44:56.802Z</time></trkpt><trkpt lat="45.84630488144662" lon="9.9320684073284"><ele>1460.6666666666667</ele><time>2026-04-03T15:44:58.802Z</time></trkpt><trkpt lat="45.846235485568485" lon="9.932035344005532"><ele>1460.0</ele><time>2026-04-03T15:45:01.802Z</time></trkpt><trkpt lat="45.84616366502684" lon="9.931930152432116"><ele>1460.0</ele><time>2026-04-03T15:45:03.802Z</time></trkpt><trkpt lat="45.84611908546838" lon="9.931834580457334"><ele>1460.0</ele><time>2026-04-03T15:45:06.802Z</time></trkpt><trkpt lat="45.846050230826364" lon="9.931713507631072"><ele>1460.0</ele><time>2026-04-03T15:45:09.801Z</time></trkpt><trkpt lat="45.84600721221459" lon="9.931609331050467"><ele>1460.0</ele><time>2026-04-03T15:45:11.801Z</time></trkpt><trkpt lat="45.84597340517033" lon="9.931509311927067"><ele>1460.0</ele><time>2026-04-03T15:45:13.801Z</time></trkpt><trkpt lat="45.84589368449688" lon="9.9313703255547"><ele>1458.2</ele><time>2026-04-03T15:45:15.801Z</time></trkpt><trkpt lat="45.84582291711132" lon="9.931230859164948"><ele>1456.4</ele><time>2026-04-03T15:45:17.801Z</time></trkpt><trkpt lat="45.84579710737501" lon="9.931137783778802"><ele>1454.6</ele><time>2026-04-03T15:45:19.801Z</time></trkpt><trkpt lat="45.845754427896416" lon="9.93106075972795"><ele>1452.8</ele><time>2026-04-03T15:45:22.801Z</time></trkpt><trkpt lat="45.84571685026794" lon="9.930928659032695"><ele>1451.0</ele><time>2026-04-03T15:45:24.8Z</time></trkpt><trkpt lat="45.84567954410614" lon="9.93080612334557"><ele>1451.0</ele><time>2026-04-03T15:45:26.8Z</time></trkpt><trkpt lat="45.84563206739644" lon="9.930713148002896"><ele>1451.0</ele><time>2026-04-03T15:45:28.8Z</time></trkpt><trkpt lat="45.84556668121942" lon="9.930646276743936"><ele>1451.0</ele><time>2026-04-03T15:45:30.8Z</time></trkpt><trkpt lat="45.845505466927655" lon="9.93050517027704"><ele>1451.0</ele><time>2026-04-03T15:45:33.8Z</time></trkpt><trkpt lat="45.8454404135131" lon="9.93036923038738"><ele>1451.0</ele><time>2026-04-03T15:45:35.8Z</time></trkpt><trkpt lat="45.84538679957908" lon="9.930221254673144"><ele>1451.0</ele><time>2026-04-03T15:45:37.8Z</time></trkpt><trkpt lat="45.845311478511846" lon="9.930074460837298"><ele>1451.0</ele><time>2026-04-03T15:45:39.8Z</time></trkpt><trkpt lat="45.84527192224826" lon="9.929960670062734"><ele>1451.0</ele><time>2026-04-03T15:45:40.799Z</time></trkpt><trkpt lat="45.84522949754816" lon="9.929843335300339"><ele>1451.0</ele><time>2026-04-03T15:45:41.799Z</time></trkpt><trkpt lat="45.84518512983214" lon="9.929727468975718"><ele>1451.0</ele><time>2026-04-03T15:45:42.799Z</time></trkpt><trkpt lat="45.84515686795946" lon="9.929608441776583"><ele>1453.8</ele><time>2026-04-03T15:45:43.799Z</time></trkpt><trkpt lat="45.84516190422524" lon="9.929474531535597"><ele>1456.6</ele><time>2026-04-03T15:45:44.799Z</time></trkpt><trkpt lat="45.8451676886681" lon="9.929328996693371"><ele>1459.4</ele><time>2026-04-03T15:45:45.799Z</time></trkpt><trkpt lat="45.84515973069997" lon="9.929171056195434"><ele>1462.2</ele><time>2026-04-03T15:45:46.799Z</time></trkpt><trkpt lat="45.845151493831864" lon="9.929005933317628"><ele>1465.0</ele><time>2026-04-03T15:45:47.799Z</time></trkpt><trkpt lat="45.84514530080113" lon="9.928869397729336"><ele>1465.3333333333333</ele><time>2026-04-03T15:45:48.799Z</time></trkpt><trkpt lat="45.845152427753675" lon="9.928748274028178"><ele>1465.6666666666665</ele><time>2026-04-03T15:45:49.799Z</time></trkpt><trkpt lat="45.84517667537073" lon="9.92862080537395"><ele>1466.0</ele><time>2026-04-03T15:45:50.799Z</time></trkpt><trkpt lat="45.84519606151146" lon="9.928501101805388"><ele>1466.3333333333333</ele><time>2026-04-03T15:45:51.799Z</time></trkpt><trkpt lat="45.845201710021804" lon="9.928391031794433"><ele>1466.6666666666667</ele><time>2026-04-03T15:45:52.799Z</time></trkpt><trkpt lat="45.845181508051766" lon="9.928288420358504"><ele>1467.0</ele><time>2026-04-03T15:45:53.799Z</time></trkpt><trkpt lat="45.84513450731089" lon="9.928191885656544"><ele>1460.6666666666667</ele><time>2026-04-03T15:45:54.799Z</time></trkpt><trkpt lat="45.845069608520255" lon="9.928129831421245"><ele>1454.3333333333333</ele><time>2026-04-03T15:45:55.799Z</time></trkpt><trkpt lat="45.844993533990255" lon="9.928066038326811"><ele>1448.0</ele><time>2026-04-03T15:45:56.799Z</time></trkpt><trkpt lat="45.84493633981037" lon="9.927993869404373"><ele>1441.6666666666665</ele><time>2026-04-03T15:45:57.798Z</time></trkpt><trkpt lat="45.844901325326475" lon="9.92791118170917"><ele>1435.3333333333333</ele><time>2026-04-03T15:45:58.798Z</time></trkpt><trkpt lat="45.844875781090195" lon="9.92780177542215"><ele>1429.0</ele><time>2026-04-03T15:45:59.798Z</time></trkpt><trkpt lat="45.84485193172854" lon="9.927672744457352"><ele>1430.25</ele><time>2026-04-03T15:46:00.798Z</time></trkpt><trkpt lat="45.844816752510106" lon="9.927505311058852"><ele>1431.5</ele><time>2026-04-03T15:46:01.798Z</time></trkpt><trkpt lat="45.84476950647475" lon="9.927362196227639"><ele>1432.75</ele><time>2026-04-03T15:46:02.798Z</time></trkpt><trkpt lat="45.844732028455695" lon="9.927175571678024"><ele>1434.0</ele><time>2026-04-03T15:46:03.798Z</time></trkpt><trkpt lat="45.84469302537567" lon="9.926996707789657"><ele>1434.0</ele><time>2026-04-03T15:46:04.798Z</time></trkpt><trkpt lat="45.84464908526106" lon="9.926820274457917"><ele>1434.0</ele><time>2026-04-03T15:46:05.798Z</time></trkpt><trkpt lat="45.84460978851032" lon="9.926651113061473"><ele>1434.0</ele><time>2026-04-03T15:46:06.798Z</time></trkpt><trkpt lat="45.84455962593181" lon="9.926503870072407"><ele>1434.0</ele><time>2026-04-03T15:46:07.798Z</time></trkpt><trkpt lat="45.84449648353204" lon="9.926372043172957"><ele>1437.25</ele><time>2026-04-03T15:46:08.798Z</time></trkpt><trkpt lat="45.84443326569465" lon="9.926218426074218"><ele>1440.5</ele><time>2026-04-03T15:46:09.798Z</time></trkpt><trkpt lat="45.84438643254576" lon="9.92603374244194"><ele>1443.75</ele><time>2026-04-03T15:46:10.798Z</time></trkpt><trkpt lat="45.844336632962495" lon="9.925847353356096"><ele>1447.0</ele><time>2026-04-03T15:46:11.798Z</time></trkpt><trkpt lat="45.84427481204488" lon="9.9256771377153"><ele>1441.5</ele><time>2026-04-03T15:46:12.798Z</time></trkpt><trkpt lat="45.84422303264649" lon="9.925511715037464"><ele>1436.0</ele><time>2026-04-03T15:46:13.797Z</time></trkpt><trkpt lat="45.84418351423559" lon="9.925355447235962"><ele>1430.5</ele><time>2026-04-03T15:46:14.797Z</time></trkpt><trkpt lat="45.84414809804225" lon="9.925199335097432"><ele>1425.0</ele><time>2026-04-03T15:46:15.797Z</time></trkpt><trkpt lat="45.844116086601716" lon="9.92504323110893"><ele>1425.0</ele><time>2026-04-03T15:46:16.797Z</time></trkpt><trkpt lat="45.84409142430892" lon="9.924870219026085"><ele>1425.0</ele><time>2026-04-03T15:46:17.797Z</time></trkpt><trkpt lat="45.84407401335447" lon="9.924687259391574"><ele>1425.0</ele><time>2026-04-03T15:46:18.797Z</time></trkpt><trkpt lat="45.84406634617099" lon="9.92449280074386"><ele>1425.0</ele><time>2026-04-03T15:46:19.797Z</time></trkpt><trkpt lat="45.844067839921024" lon="9.924305445580934"><ele>1425.4</ele><time>2026-04-03T15:46:20.797Z</time></trkpt><trkpt lat="45.844057472643264" lon="9.924142216409317"><ele>1425.8</ele><time>2026-04-03T15:46:21.797Z</time></trkpt><trkpt lat="45.844037754821365" lon="9.92400477737703"><ele>1426.1999999999998</ele><time>2026-04-03T15:46:22.797Z</time></trkpt><trkpt lat="45.84401033407582" lon="9.92388621082872"><ele>1426.6</ele><time>2026-04-03T15:46:23.797Z</time></trkpt><trkpt lat="45.843983029432714" lon="9.923775915091118"><ele>1427.0</ele><time>2026-04-03T15:46:24.797Z</time></trkpt><trkpt lat="45.84395014467369" lon="9.923669756960907"><ele>1427.0</ele><time>2026-04-03T15:46:25.797Z</time></trkpt><trkpt lat="45.84390777192645" lon="9.923575910593332"><ele>1427.0</ele><time>2026-04-03T15:46:26.797Z</time></trkpt><trkpt lat="45.84386620614283" lon="9.923503663905558"><ele>1427.0</ele><time>2026-04-03T15:46:27.797Z</time></trkpt><trkpt lat="45.843815126461784" lon="9.923431715066451"><ele>1427.0</ele><time>2026-04-03T15:46:28.797Z</time></trkpt><trkpt lat="45.843797927992846" lon="9.92327713336906"><ele>1427.0</ele><time>2026-04-03T15:46:30.796Z</time></trkpt><trkpt lat="45.8438688351023" lon="9.923157072994412"><ele>1427.0</ele><time>2026-04-03T15:46:32.802Z</time></trkpt><trkpt lat="45.84392452237244" lon="9.923037202571221"><ele>1426.8</ele><time>2026-04-03T15:46:34.802Z</time></trkpt><trkpt lat="45.84392491528686" lon="9.922942313257238"><ele>1426.6</ele><time>2026-04-03T15:46:35.89Z</time></trkpt><trkpt lat="45.843856857389696" lon="9.92273610887543"><ele>1426.3999999999999</ele><time>2026-04-03T15:46:37.89Z</time></trkpt><trkpt lat="45.843817260219616" lon="9.922621980676128"><ele>1426.1999999999998</ele><time>2026-04-03T15:46:38.89Z</time></trkpt><trkpt lat="45.843784319116665" lon="9.922517236205112"><ele>1426.0</ele><time>2026-04-03T15:46:39.89Z</time></trkpt><trkpt lat="45.84377510955734" lon="9.922412243528973"><ele>1426.0</ele><time>2026-04-03T15:46:40.89Z</time></trkpt><trkpt lat="45.8437802690208" lon="9.922320695224744"><ele>1426.0</ele><time>2026-04-03T15:46:41.89Z</time></trkpt><trkpt lat="45.84374182670826" lon="9.922205703431512"><ele>1426.0</ele><time>2026-04-03T15:46:43.89Z</time></trkpt><trkpt lat="45.84362504635671" lon="9.92223506678074"><ele>1426.0</ele><time>2026-04-03T15:46:45.89Z</time></trkpt><trkpt lat="45.84356112865598" lon="9.922260757246821"><ele>1426.0</ele><time>2026-04-03T15:46:46.89Z</time></trkpt><trkpt lat="45.84348701538332" lon="9.922261877264768"><ele>1426.0</ele><time>2026-04-03T15:46:47.89Z</time></trkpt><trkpt lat="45.84340833303894" lon="9.922274693971879"><ele>1421.4</ele><time>2026-04-03T15:46:48.89Z</time></trkpt><trkpt lat="45.84328902442378" lon="9.922279888132461"><ele>1416.8</ele><time>2026-04-03T15:46:50.89Z</time></trkpt><trkpt lat="45.84322587853002" lon="9.92225346988125"><ele>1412.2</ele><time>2026-04-03T15:46:51.89Z</time></trkpt><trkpt lat="45.84316308061312" lon="9.92219087210391"><ele>1407.6000000000001</ele><time>2026-04-03T15:46:52.89Z</time></trkpt><trkpt lat="45.84310520839315" lon="9.922115415883477"><ele>1403.0</ele><time>2026-04-03T15:46:53.89Z</time></trkpt><trkpt lat="45.843071950388676" lon="9.921952038776281"><ele>1403.0</ele><time>2026-04-03T15:46:55.89Z</time></trkpt><trkpt lat="45.84307870899748" lon="9.92185659470827"><ele>1403.0</ele><time>2026-04-03T15:46:56.89Z</time></trkpt><trkpt lat="45.84306905670718" lon="9.92173742716109"><ele>1403.0</ele><time>2026-04-03T15:46:57.89Z</time></trkpt><trkpt lat="45.843024310110465" lon="9.921611791365134"><ele>1403.0</ele><time>2026-04-03T15:46:58.89Z</time></trkpt><trkpt lat="45.84295702210153" lon="9.921506857337643"><ele>1403.0</ele><time>2026-04-03T15:46:59.89Z</time></trkpt><trkpt lat="45.84286249753014" lon="9.921411866345625"><ele>1403.3333333333335</ele><time>2026-04-03T15:47:00.89Z</time></trkpt><trkpt lat="45.842785452138806" lon="9.92132258274992"><ele>1403.6666666666667</ele><time>2026-04-03T15:47:01.89Z</time></trkpt><trkpt lat="45.84272289655459" lon="9.921233308921153"><ele>1404.0</ele><time>2026-04-03T15:47:02.89Z</time></trkpt><trkpt lat="45.84267096439275" lon="9.92114598860864"><ele>1404.3333333333333</ele><time>2026-04-03T15:47:03.89Z</time></trkpt><trkpt lat="45.84263725210794" lon="9.921047556924913"><ele>1404.6666666666665</ele><time>2026-04-03T15:47:04.89Z</time></trkpt><trkpt lat="45.842628179688795" lon="9.920900648569352"><ele>1405.0</ele><time>2026-04-03T15:47:06.89Z</time></trkpt><trkpt lat="45.84266088846095" lon="9.920822216479865"><ele>1405.0</ele><time>2026-04-03T15:47:07.89Z</time></trkpt><trkpt lat="45.842764716605" lon="9.920730390304138"><ele>1405.0</ele><time>2026-04-03T15:47:09.89Z</time></trkpt><trkpt lat="45.842873692293594" lon="9.920697410021823"><ele>1405.0</ele><time>2026-04-03T15:47:10.89Z</time></trkpt><trkpt lat="45.84298074844677" lon="9.920656148277683"><ele>1405.0</ele><time>2026-04-03T15:47:11.89Z</time></trkpt><trkpt lat="45.843030882780226" lon="9.920564409646774"><ele>1405.0</ele><time>2026-04-03T15:47:13.89Z</time></trkpt><trkpt lat="45.84292288359857" lon="9.920448548581133"><ele>1405.0</ele><time>2026-04-03T15:47:15.89Z</time></trkpt><trkpt lat="45.84283693615766" lon="9.920440011443683"><ele>1405.0</ele><time>2026-04-03T15:47:16.89Z</time></trkpt><trkpt lat="45.8427049887435" lon="9.92041819183589"><ele>1405.0</ele><time>2026-04-03T15:47:17.89Z</time></trkpt><trkpt lat="45.84259209022884" lon="9.9203647863128"><ele>1405.0</ele><time>2026-04-03T15:47:18.89Z</time></trkpt><trkpt lat="45.84251296950508" lon="9.920308642488031"><ele>1405.0</ele><time>2026-04-03T15:47:19.89Z</time></trkpt><trkpt lat="45.84244708037332" lon="9.920164667359407"><ele>1401.25</ele><time>2026-04-03T15:47:21.89Z</time></trkpt><trkpt lat="45.8424207010236" lon="9.920041710314688"><ele>1397.5</ele><time>2026-04-03T15:47:22.89Z</time></trkpt><trkpt lat="45.842394567026766" lon="9.919886286573597"><ele>1393.75</ele><time>2026-04-03T15:47:23.89Z</time></trkpt><trkpt lat="45.842353424949955" lon="9.919683573665383"><ele>1390.0</ele><time>2026-04-03T15:47:24.89Z</time></trkpt><trkpt lat="45.84228935937267" lon="9.919457584482934"><ele>1390.0</ele><time>2026-04-03T15:47:25.89Z</time></trkpt><trkpt lat="45.842222143729266" lon="9.91925881697856"><ele>1390.0</ele><time>2026-04-03T15:47:26.89Z</time></trkpt><trkpt lat="45.84217079123603" lon="9.919094375822107"><ele>1390.0</ele><time>2026-04-03T15:47:27.89Z</time></trkpt><trkpt lat="45.842142663417945" lon="9.918965873025634"><ele>1390.0</ele><time>2026-04-03T15:47:28.89Z</time></trkpt><trkpt lat="45.842139781607074" lon="9.918869677624187"><ele>1390.0</ele><time>2026-04-03T15:47:29.89Z</time></trkpt><trkpt lat="45.84216076826569" lon="9.918763826783772"><ele>1390.8333333333333</ele><time>2026-04-03T15:47:30.89Z</time></trkpt><trkpt lat="45.842205138572965" lon="9.918635684124705"><ele>1391.6666666666665</ele><time>2026-04-03T15:47:31.89Z</time></trkpt><trkpt lat="45.842253456802965" lon="9.918546919913918"><ele>1392.5</ele><time>2026-04-03T15:47:32.89Z</time></trkpt><trkpt lat="45.8421984719011" lon="9.918463924046595"><ele>1393.3333333333333</ele><time>2026-04-03T15:47:34.89Z</time></trkpt><trkpt lat="45.842134731508025" lon="9.918455430029924"><ele>1394.1666666666667</ele><time>2026-04-03T15:47:35.89Z</time></trkpt><trkpt lat="45.84205717035708" lon="9.91844639458252"><ele>1395.0</ele><time>2026-04-03T15:47:36.89Z</time></trkpt><trkpt lat="45.8419850389805" lon="9.918412217103795"><ele>1396.2</ele><time>2026-04-03T15:47:37.89Z</time></trkpt><trkpt lat="45.84191401157117" lon="9.918363972747409"><ele>1397.4</ele><time>2026-04-03T15:47:38.89Z</time></trkpt><trkpt lat="45.8418599619408" lon="9.918279711462871"><ele>1398.6</ele><time>2026-04-03T15:47:39.89Z</time></trkpt><trkpt lat="45.841807912466145" lon="9.918150509633072"><ele>1399.8</ele><time>2026-04-03T15:47:40.89Z</time></trkpt><trkpt lat="45.84174286089001" lon="9.917980483346968"><ele>1401.0</ele><time>2026-04-03T15:47:41.89Z</time></trkpt><trkpt lat="45.841642172124494" lon="9.917825441172804"><ele>1398.6666666666667</ele><time>2026-04-03T15:47:42.89Z</time></trkpt><trkpt lat="45.841535373224715" lon="9.917662108905615"><ele>1396.3333333333335</ele><time>2026-04-03T15:47:43.89Z</time></trkpt><trkpt lat="45.841423175542694" lon="9.917469820168153"><ele>1394.0</ele><time>2026-04-03T15:47:44.89Z</time></trkpt><trkpt lat="45.84130418039748" lon="9.917276502418659"><ele>1394.0</ele><time>2026-04-03T15:47:45.89Z</time></trkpt><trkpt lat="45.84120067454957" lon="9.917096220601168"><ele>1394.0</ele><time>2026-04-03T15:47:46.89Z</time></trkpt><trkpt lat="45.8411203285796" lon="9.916940639508162"><ele>1394.0</ele><time>2026-04-03T15:47:47.89Z</time></trkpt><trkpt lat="45.84105915152443" lon="9.916795436499536"><ele>1394.0</ele><time>2026-04-03T15:47:48.89Z</time></trkpt><trkpt lat="45.841022500182454" lon="9.916666261052908"><ele>1395.2857142857142</ele><time>2026-04-03T15:47:49.89Z</time></trkpt><trkpt lat="45.841007704915725" lon="9.916563780461102"><ele>1396.5714285714284</ele><time>2026-04-03T15:47:50.89Z</time></trkpt><trkpt lat="45.8410286230554" lon="9.916462747207353"><ele>1397.8571428571427</ele><time>2026-04-03T15:47:51.89Z</time></trkpt><trkpt lat="45.84107861418435" lon="9.916388364990844"><ele>1399.142857142857</ele><time>2026-04-03T15:47:52.89Z</time></trkpt><trkpt lat="45.841132609921395" lon="9.916325036567706"><ele>1400.4285714285713</ele><time>2026-04-03T15:47:53.89Z</time></trkpt><trkpt lat="45.84118179974906" lon="9.916245099782943"><ele>1401.7142857142856</ele><time>2026-04-03T15:47:54.89Z</time></trkpt><trkpt lat="45.84122206058346" lon="9.916152711217233"><ele>1403.0</ele><time>2026-04-03T15:47:55.89Z</time></trkpt><trkpt lat="45.84123720277998" lon="9.916053039726638"><ele>1403.0</ele><time>2026-04-03T15:47:56.89Z</time></trkpt><trkpt lat="45.841212001060654" lon="9.915968921408986"><ele>1403.0</ele><time>2026-04-03T15:47:57.89Z</time></trkpt><trkpt lat="45.84116659962899" lon="9.915895102229765"><ele>1403.0</ele><time>2026-04-03T15:47:58.89Z</time></trkpt><trkpt lat="45.841099536094546" lon="9.915818112853946"><ele>1403.0</ele><time>2026-04-03T15:47:59.89Z</time></trkpt><trkpt lat="45.84102046067898" lon="9.91572249275363"><ele>1403.0</ele><time>2026-04-03T15:48:00.889Z</time></trkpt><trkpt lat="45.84095902976008" lon="9.915615464672825"><ele>1403.0</ele><time>2026-04-03T15:48:01.889Z</time></trkpt><trkpt lat="45.84091961216272" lon="9.91550130326923"><ele>1403.5</ele><time>2026-04-03T15:48:02.889Z</time></trkpt><trkpt lat="45.840894743533156" lon="9.915396213473661"><ele>1404.0</ele><time>2026-04-03T15:48:03.889Z</time></trkpt><trkpt lat="45.84088324971042" lon="9.91525270449133"><ele>1404.5</ele><time>2026-04-03T15:48:05.889Z</time></trkpt><trkpt lat="45.840954218950564" lon="9.915211232977821"><ele>1405.0</ele><time>2026-04-03T15:48:06.889Z</time></trkpt><trkpt lat="45.84101897648719" lon="9.915193797072979"><ele>1405.5</ele><time>2026-04-03T15:48:07.889Z</time></trkpt><trkpt lat="45.84108300640656" lon="9.915192343181577"><ele>1406.0</ele><time>2026-04-03T15:48:08.889Z</time></trkpt><trkpt lat="45.84116935494701" lon="9.915143542528666"><ele>1405.8333333333335</ele><time>2026-04-03T15:48:10.889Z</time></trkpt><trkpt lat="45.841152651925405" lon="9.915027272122327"><ele>1405.6666666666667</ele><time>2026-04-03T15:48:12.889Z</time></trkpt><trkpt lat="45.84111134514172" lon="9.91495342122321"><ele>1405.5</ele><time>2026-04-03T15:48:13.889Z</time></trkpt><trkpt lat="45.841079168270554" lon="9.914858720987425"><ele>1405.3333333333333</ele><time>2026-04-03T15:48:14.889Z</time></trkpt><trkpt lat="45.84106030859211" lon="9.91474348235156"><ele>1405.1666666666665</ele><time>2026-04-03T15:48:15.889Z</time></trkpt><trkpt lat="45.841056833348816" lon="9.91463346470806"><ele>1405.0</ele><time>2026-04-03T15:48:16.889Z</time></trkpt><trkpt lat="45.8410695233741" lon="9.914511750561397"><ele>1405.0</ele><time>2026-04-03T15:48:17.889Z</time></trkpt><trkpt lat="45.841097842554035" lon="9.914394335777239"><ele>1405.0</ele><time>2026-04-03T15:48:18.889Z</time></trkpt><trkpt lat="45.84113634410774" lon="9.914294505654372"><ele>1405.0</ele><time>2026-04-03T15:48:19.889Z</time></trkpt><trkpt lat="45.84117957923862" lon="9.91420838270566"><ele>1405.0</ele><time>2026-04-03T15:48:20.889Z</time></trkpt><trkpt lat="45.84120098736847" lon="9.914102728307187"><ele>1405.0</ele><time>2026-04-03T15:48:21.889Z</time></trkpt><trkpt lat="45.841195201651246" lon="9.913987588712272"><ele>1405.0</ele><time>2026-04-03T15:48:22.889Z</time></trkpt><trkpt lat="45.84114990408339" lon="9.913894391006654"><ele>1404.5</ele><time>2026-04-03T15:48:23.889Z</time></trkpt><trkpt lat="45.84106985875589" lon="9.913817586503562"><ele>1404.0</ele><time>2026-04-03T15:48:24.889Z</time></trkpt><trkpt lat="45.840971943131144" lon="9.913718091682112"><ele>1403.5</ele><time>2026-04-03T15:48:25.889Z</time></trkpt><trkpt lat="45.84087657044236" lon="9.913595359620684"><ele>1403.0</ele><time>2026-04-03T15:48:26.889Z</time></trkpt><trkpt lat="45.84078456196071" lon="9.91345020562146"><ele>1397.75</ele><time>2026-04-03T15:48:27.889Z</time></trkpt><trkpt lat="45.840697834836405" lon="9.913298240696014"><ele>1392.5</ele><time>2026-04-03T15:48:28.889Z</time></trkpt><trkpt lat="45.84060031217437" lon="9.913145661617179"><ele>1387.25</ele><time>2026-04-03T15:48:29.889Z</time></trkpt><trkpt lat="45.84050511701966" lon="9.913015405410624"><ele>1382.0</ele><time>2026-04-03T15:48:30.889Z</time></trkpt><trkpt lat="45.840423987224206" lon="9.91292844151324"><ele>1382.0</ele><time>2026-04-03T15:48:31.889Z</time></trkpt><trkpt lat="45.84035602120914" lon="9.912859362120791"><ele>1382.0</ele><time>2026-04-03T15:48:32.889Z</time></trkpt><trkpt lat="45.840284631162994" lon="9.912782624760736"><ele>1382.0</ele><time>2026-04-03T15:48:33.889Z</time></trkpt><trkpt lat="45.84020102578889" lon="9.912712895033744"><ele>1382.0</ele><time>2026-04-03T15:48:34.889Z</time></trkpt><trkpt lat="45.8401067377726" lon="9.91264209520871"><ele>1382.0</ele><time>2026-04-03T15:48:35.889Z</time></trkpt><trkpt lat="45.840008265895655" lon="9.912547260437426"><ele>1382.3999999999999</ele><time>2026-04-03T15:48:36.889Z</time></trkpt><trkpt lat="45.839910877776006" lon="9.91242678624417"><ele>1382.8</ele><time>2026-04-03T15:48:37.895Z</time></trkpt><trkpt lat="45.83981773271217" lon="9.912309964174177"><ele>1383.2</ele><time>2026-04-03T15:48:38.895Z</time></trkpt><trkpt lat="45.83973878258023" lon="9.912216597722852"><ele>1383.6</ele><time>2026-04-03T15:48:39.895Z</time></trkpt><trkpt lat="45.83966621897695" lon="9.912143574581625"><ele>1384.0</ele><time>2026-04-03T15:48:40.895Z</time></trkpt><trkpt lat="45.839600686182514" lon="9.912070587562278"><ele>1384.0</ele><time>2026-04-03T15:48:41.895Z</time></trkpt><trkpt lat="45.8395615584028" lon="9.911997043835829"><ele>1384.0</ele><time>2026-04-03T15:48:42.895Z</time></trkpt><trkpt lat="45.83954027782401" lon="9.911900918614503"><ele>1384.0</ele><time>2026-04-03T15:48:43.896Z</time></trkpt><trkpt lat="45.839530282026374" lon="9.911801850203522"><ele>1384.0</ele><time>2026-04-03T15:48:44.896Z</time></trkpt><trkpt lat="45.83950653285068" lon="9.911711217880994"><ele>1384.0</ele><time>2026-04-03T15:48:45.896Z</time></trkpt><trkpt lat="45.839461801481924" lon="9.911614193348983"><ele>1384.0</ele><time>2026-04-03T15:48:46.895Z</time></trkpt><trkpt lat="45.83939464142679" lon="9.911528917188564"><ele>1384.0</ele><time>2026-04-03T15:48:47.896Z</time></trkpt><trkpt lat="45.8393457112033" lon="9.91145471098609"><ele>1384.0</ele><time>2026-04-03T15:48:48.896Z</time></trkpt><trkpt lat="45.83929260041511" lon="9.911270270295722"><ele>1384.0</ele><time>2026-04-03T15:48:50.896Z</time></trkpt><trkpt lat="45.83926567562459" lon="9.91113237091699"><ele>1384.0</ele><time>2026-04-03T15:48:51.896Z</time></trkpt><trkpt lat="45.839242370136944" lon="9.911002377062644"><ele>1384.0</ele><time>2026-04-03T15:48:52.896Z</time></trkpt><trkpt lat="45.83921696420726" lon="9.910883117366408"><ele>1384.0</ele><time>2026-04-03T15:48:53.896Z</time></trkpt><trkpt lat="45.839172606571786" lon="9.910801138988866"><ele>1384.4</ele><time>2026-04-03T15:48:54.896Z</time></trkpt><trkpt lat="45.839074761997885" lon="9.910710844920143"><ele>1384.8000000000002</ele><time>2026-04-03T15:48:56.896Z</time></trkpt><trkpt lat="45.83903293652573" lon="9.910634039778527"><ele>1385.1999999999998</ele><time>2026-04-03T15:48:57.896Z</time></trkpt><trkpt lat="45.83899272677918" lon="9.910554584092361"><ele>1385.6</ele><time>2026-04-03T15:48:58.896Z</time></trkpt><trkpt lat="45.838967719010796" lon="9.910371432457497"><ele>1386.0</ele><time>2026-04-03T15:49:00.896Z</time></trkpt><trkpt lat="45.83894645213366" lon="9.910247122049208"><ele>1386.0</ele><time>2026-04-03T15:49:01.896Z</time></trkpt><trkpt lat="45.83892645453034" lon="9.910151344319253"><ele>1386.0</ele><time>2026-04-03T15:49:02.896Z</time></trkpt><trkpt lat="45.83890279324296" lon="9.909981156369733"><ele>1386.0</ele><time>2026-04-03T15:49:04.896Z</time></trkpt><trkpt lat="45.83888411490902" lon="9.909820340559262"><ele>1386.0</ele><time>2026-04-03T15:49:06.896Z</time></trkpt><trkpt lat="45.838846830466444" lon="9.909711499570156"><ele>1386.0</ele><time>2026-04-03T15:49:07.896Z</time></trkpt><trkpt lat="45.838803189131" lon="9.909578632913428"><ele>1384.6</ele><time>2026-04-03T15:49:08.896Z</time></trkpt><trkpt lat="45.83875362455384" lon="9.909440660099063"><ele>1383.1999999999998</ele><time>2026-04-03T15:49:09.896Z</time></trkpt><trkpt lat="45.838708378567425" lon="9.909279197001569"><ele>1381.8000000000002</ele><time>2026-04-03T15:49:10.896Z</time></trkpt><trkpt lat="45.8386522904372" lon="9.909134704221977"><ele>1380.4</ele><time>2026-04-03T15:49:11.896Z</time></trkpt><trkpt lat="45.8386030993693" lon="9.909004585213314"><ele>1379.0</ele><time>2026-04-03T15:49:12.896Z</time></trkpt><trkpt lat="45.83854821905512" lon="9.908886486775035"><ele>1377.2</ele><time>2026-04-03T15:49:13.896Z</time></trkpt><trkpt lat="45.838481605124414" lon="9.908788794516685"><ele>1375.4</ele><time>2026-04-03T15:49:14.896Z</time></trkpt><trkpt lat="45.838419544128655" lon="9.90868855167286"><ele>1373.6</ele><time>2026-04-03T15:49:15.896Z</time></trkpt><trkpt lat="45.838373508991104" lon="9.90857372247639"><ele>1371.8</ele><time>2026-04-03T15:49:16.896Z</time></trkpt><trkpt lat="45.83836342825138" lon="9.90845865833957"><ele>1370.0</ele><time>2026-04-03T15:49:17.896Z</time></trkpt><trkpt lat="45.83835456225382" lon="9.908322751291209"><ele>1365.8</ele><time>2026-04-03T15:49:18.896Z</time></trkpt><trkpt lat="45.83835763204489" lon="9.908178510619562"><ele>1361.6</ele><time>2026-04-03T15:49:19.896Z</time></trkpt><trkpt lat="45.83836328823402" lon="9.908038500236671"><ele>1357.4</ele><time>2026-04-03T15:49:20.896Z</time></trkpt><trkpt lat="45.83836374982841" lon="9.90790454346168"><ele>1353.2</ele><time>2026-04-03T15:49:21.896Z</time></trkpt><trkpt lat="45.838361253706005" lon="9.90777376481368"><ele>1349.0</ele><time>2026-04-03T15:49:22.896Z</time></trkpt><trkpt lat="45.83836718135257" lon="9.907637030245386"><ele>1347.6</ele><time>2026-04-03T15:49:23.896Z</time></trkpt><trkpt lat="45.838372771703376" lon="9.907502659204704"><ele>1346.2</ele><time>2026-04-03T15:49:24.896Z</time></trkpt><trkpt lat="45.83836088647692" lon="9.907369269775954"><ele>1344.8</ele><time>2026-04-03T15:49:25.896Z</time></trkpt><trkpt lat="45.838332024901405" lon="9.90726105953681"><ele>1343.3999999999999</ele><time>2026-04-03T15:49:26.896Z</time></trkpt><trkpt lat="45.83829093940119" lon="9.907157486167256"><ele>1342.0</ele><time>2026-04-03T15:49:27.896Z</time></trkpt><trkpt lat="45.83824564381283" lon="9.907020362826676"><ele>1342.0</ele><time>2026-04-03T15:49:28.896Z</time></trkpt><trkpt lat="45.83820551587881" lon="9.906909938846793"><ele>1342.0</ele><time>2026-04-03T15:49:29.896Z</time></trkpt><trkpt lat="45.838162106196606" lon="9.90680994905125"><ele>1342.0</ele><time>2026-04-03T15:49:30.896Z</time></trkpt><trkpt lat="45.83811697172057" lon="9.906721819521787"><ele>1342.0</ele><time>2026-04-03T15:49:31.896Z</time></trkpt><trkpt lat="45.83806841301127" lon="9.906631804584315"><ele>1342.0</ele><time>2026-04-03T15:49:32.896Z</time></trkpt><trkpt lat="45.838011115080235" lon="9.906556452153207"><ele>1342.0</ele><time>2026-04-03T15:49:33.896Z</time></trkpt><trkpt lat="45.837917825209836" lon="9.906492160832856"><ele>1340.5</ele><time>2026-04-03T15:49:35.896Z</time></trkpt><trkpt lat="45.8378449093011" lon="9.906397628219619"><ele>1339.0</ele><time>2026-04-03T15:49:37.896Z</time></trkpt><trkpt lat="45.83779468958356" lon="9.90630071823307"><ele>1337.5</ele><time>2026-04-03T15:49:39.896Z</time></trkpt><trkpt lat="45.83777104724426" lon="9.906206116396216"><ele>1336.0</ele><time>2026-04-03T15:49:41.896Z</time></trkpt><trkpt lat="45.83772143563612" lon="9.906108898549016"><ele>1334.5</ele><time>2026-04-03T15:49:48.895Z</time></trkpt><trkpt lat="45.837648186329815" lon="9.906096464600289"><ele>1333.0</ele><time>2026-04-03T15:49:52.895Z</time></trkpt><trkpt lat="45.837593295874875" lon="9.906004382130558"><ele>1328.4</ele><time>2026-04-03T15:49:56.895Z</time></trkpt><trkpt lat="45.83755946983744" lon="9.905895155422039"><ele>1323.8000000000002</ele><time>2026-04-03T15:49:58.895Z</time></trkpt><trkpt lat="45.837510078917724" lon="9.905820991798617"><ele>1319.2</ele><time>2026-04-03T15:50:00.895Z</time></trkpt><trkpt lat="45.837397257083914" lon="9.905752429804293"><ele>1314.6</ele><time>2026-04-03T15:50:02.895Z</time></trkpt><trkpt lat="45.83732030871882" lon="9.905676053121278"><ele>1310.0</ele><time>2026-04-03T15:50:03.895Z</time></trkpt><trkpt lat="45.837254552750814" lon="9.905599699130915"><ele>1310.0</ele><time>2026-04-03T15:50:04.895Z</time></trkpt><trkpt lat="45.83718823498187" lon="9.905533403996577"><ele>1310.0</ele><time>2026-04-03T15:50:05.895Z</time></trkpt><trkpt lat="45.837140083312015" lon="9.905464921182322"><ele>1310.0</ele><time>2026-04-03T15:50:06.895Z</time></trkpt><trkpt lat="45.837095408491656" lon="9.905395587117944"><ele>1310.0</ele><time>2026-04-03T15:50:07.895Z</time></trkpt><trkpt lat="45.83705056725544" lon="9.905328193074887"><ele>1310.0</ele><time>2026-04-03T15:50:08.895Z</time></trkpt><trkpt lat="45.83699495738463" lon="9.905259999641807"><ele>1310.0</ele><time>2026-04-03T15:50:09.895Z</time></trkpt><trkpt lat="45.836926106815746" lon="9.905179208775337"><ele>1310.0</ele><time>2026-04-03T15:50:10.895Z</time></trkpt><trkpt lat="45.83686271646219" lon="9.905109551899745"><ele>1304.75</ele><time>2026-04-03T15:50:11.895Z</time></trkpt><trkpt lat="45.83678863750447" lon="9.904991495430606"><ele>1299.5</ele><time>2026-04-03T15:50:12.895Z</time></trkpt><trkpt lat="45.83671765963748" lon="9.904854253031742"><ele>1294.25</ele><time>2026-04-03T15:50:13.895Z</time></trkpt><trkpt lat="45.836641417850764" lon="9.90473291356292"><ele>1289.0</ele><time>2026-04-03T15:50:14.895Z</time></trkpt><trkpt lat="45.836547992980556" lon="9.90461716950085"><ele>1289.0</ele><time>2026-04-03T15:50:15.895Z</time></trkpt><trkpt lat="45.83646295453475" lon="9.904499463585344"><ele>1289.0</ele><time>2026-04-03T15:50:16.895Z</time></trkpt><trkpt lat="45.83637960804134" lon="9.904391353222001"><ele>1289.0</ele><time>2026-04-03T15:50:17.895Z</time></trkpt><trkpt lat="45.83629357624602" lon="9.904299810789684"><ele>1289.0</ele><time>2026-04-03T15:50:18.895Z</time></trkpt><trkpt lat="45.83619671169457" lon="9.90419280441737"><ele>1288.2</ele><time>2026-04-03T15:50:19.895Z</time></trkpt><trkpt lat="45.83612313684103" lon="9.904098472537106"><ele>1287.4</ele><time>2026-04-03T15:50:20.895Z</time></trkpt><trkpt lat="45.83604934275256" lon="9.904012753768283"><ele>1286.6</ele><time>2026-04-03T15:50:21.895Z</time></trkpt><trkpt lat="45.835955808177765" lon="9.90396584583202"><ele>1285.8</ele><time>2026-04-03T15:50:22.895Z</time></trkpt><trkpt lat="45.83585631195353" lon="9.903931131740569"><ele>1285.0</ele><time>2026-04-03T15:50:23.895Z</time></trkpt><trkpt lat="45.83575936726387" lon="9.903892769935775"><ele>1282.6</ele><time>2026-04-03T15:50:24.895Z</time></trkpt><trkpt lat="45.83566433043965" lon="9.903849461507592"><ele>1280.2</ele><time>2026-04-03T15:50:25.895Z</time></trkpt><trkpt lat="45.83558143674345" lon="9.903810251758134"><ele>1277.8</ele><time>2026-04-03T15:50:26.895Z</time></trkpt><trkpt lat="45.83548857349693" lon="9.90377061407616"><ele>1275.4</ele><time>2026-04-03T15:50:27.895Z</time></trkpt><trkpt lat="45.835399658285965" lon="9.903726422910085"><ele>1273.0</ele><time>2026-04-03T15:50:28.895Z</time></trkpt><trkpt lat="45.8353138258102" lon="9.903682221370307"><ele>1273.0</ele><time>2026-04-03T15:50:29.895Z</time></trkpt><trkpt lat="45.83522003922568" lon="9.903636467552523"><ele>1273.0</ele><time>2026-04-03T15:50:30.895Z</time></trkpt><trkpt lat="45.83513096738584" lon="9.903597228756164"><ele>1273.0</ele><time>2026-04-03T15:50:31.895Z</time></trkpt><trkpt lat="45.835039620450964" lon="9.903551117213865"><ele>1273.0</ele><time>2026-04-03T15:50:32.895Z</time></trkpt><trkpt lat="45.834936147405614" lon="9.903505234050705"><ele>1273.0</ele><time>2026-04-03T15:50:33.895Z</time></trkpt><trkpt lat="45.834837903690655" lon="9.903461085771852"><ele>1269.4</ele><time>2026-04-03T15:50:34.895Z</time></trkpt><trkpt lat="45.83475143377556" lon="9.903410236580143"><ele>1265.8</ele><time>2026-04-03T15:50:35.895Z</time></trkpt><trkpt lat="45.83465625824143" lon="9.903345021842656"><ele>1262.2</ele><time>2026-04-03T15:50:36.895Z</time></trkpt><trkpt lat="45.834563462554925" lon="9.903275803935053"><ele>1258.6</ele><time>2026-04-03T15:50:37.895Z</time></trkpt><trkpt lat="45.834464985458524" lon="9.903228145957003"><ele>1255.0</ele><time>2026-04-03T15:50:38.895Z</time></trkpt><trkpt lat="45.83438544896323" lon="9.903207874637852"><ele>1255.0</ele><time>2026-04-03T15:50:39.895Z</time></trkpt><trkpt lat="45.83431355572138" lon="9.903184369139725"><ele>1255.0</ele><time>2026-04-03T15:50:40.895Z</time></trkpt><trkpt lat="45.83422771028507" lon="9.90313522774231"><ele>1255.0</ele><time>2026-04-03T15:50:41.895Z</time></trkpt><trkpt lat="45.83416096150368" lon="9.903048237453122"><ele>1255.0</ele><time>2026-04-03T15:50:42.895Z</time></trkpt><trkpt lat="45.834094746130766" lon="9.902927014740204"><ele>1255.0</ele><time>2026-04-03T15:50:43.9Z</time></trkpt><trkpt lat="45.834025205268624" lon="9.90282262939027"><ele>1253.25</ele><time>2026-04-03T15:50:44.901Z</time></trkpt><trkpt lat="45.83394985269278" lon="9.902696705446704"><ele>1251.5</ele><time>2026-04-03T15:50:45.901Z</time></trkpt><trkpt lat="45.83389390472787" lon="9.902555701751474"><ele>1249.75</ele><time>2026-04-03T15:50:46.901Z</time></trkpt><trkpt lat="45.83384582298819" lon="9.902391592975778"><ele>1248.0</ele><time>2026-04-03T15:50:47.901Z</time></trkpt><trkpt lat="45.8338128809331" lon="9.902222200483218"><ele>1247.25</ele><time>2026-04-03T15:50:48.901Z</time></trkpt><trkpt lat="45.83378247605113" lon="9.90204715387675"><ele>1246.5</ele><time>2026-04-03T15:50:49.901Z</time></trkpt><trkpt lat="45.83376287370603" lon="9.901866285242816"><ele>1245.75</ele><time>2026-04-03T15:50:50.901Z</time></trkpt><trkpt lat="45.83373126745321" lon="9.901683425868821"><ele>1245.0</ele><time>2026-04-03T15:50:51.901Z</time></trkpt><trkpt lat="45.83368675269218" lon="9.90149784435097"><ele>1245.0</ele><time>2026-04-03T15:50:52.901Z</time></trkpt><trkpt lat="45.83364188035317" lon="9.901318841412872"><ele>1245.0</ele><time>2026-04-03T15:50:53.901Z</time></trkpt><trkpt lat="45.833591169060405" lon="9.901164944451256"><ele>1245.0</ele><time>2026-04-03T15:50:54.901Z</time></trkpt><trkpt lat="45.833505626791165" lon="9.901004609992334"><ele>1245.0</ele><time>2026-04-03T15:50:55.901Z</time></trkpt><trkpt lat="45.833405941949266" lon="9.900854525253889"><ele>1242.0</ele><time>2026-04-03T15:50:56.901Z</time></trkpt><trkpt lat="45.833318576089745" lon="9.900693915454292"><ele>1239.0</ele><time>2026-04-03T15:50:57.901Z</time></trkpt><trkpt lat="45.8332453389196" lon="9.900525960934468"><ele>1236.0</ele><time>2026-04-03T15:50:58.901Z</time></trkpt><trkpt lat="45.833176986194395" lon="9.900366924865239"><ele>1233.0</ele><time>2026-04-03T15:50:59.901Z</time></trkpt><trkpt lat="45.83311313773691" lon="9.900213661412042"><ele>1231.6</ele><time>2026-04-03T15:51:00.901Z</time></trkpt><trkpt lat="45.83303673953217" lon="9.900078966959759"><ele>1230.1999999999998</ele><time>2026-04-03T15:51:01.901Z</time></trkpt><trkpt lat="45.83297849390855" lon="9.899962171759572"><ele>1228.8</ele><time>2026-04-03T15:51:02.901Z</time></trkpt><trkpt lat="45.83292258124525" lon="9.899850735734965"><ele>1227.3999999999999</ele><time>2026-04-03T15:51:03.901Z</time></trkpt><trkpt lat="45.832859579894446" lon="9.899750550391872"><ele>1226.0</ele><time>2026-04-03T15:51:04.901Z</time></trkpt><trkpt lat="45.83279857391825" lon="9.899623434949829"><ele>1226.0</ele><time>2026-04-03T15:51:05.901Z</time></trkpt><trkpt lat="45.832730510231976" lon="9.899486983360859"><ele>1226.0</ele><time>2026-04-03T15:51:06.901Z</time></trkpt><trkpt lat="45.83268431349212" lon="9.899339706710677"><ele>1226.0</ele><time>2026-04-03T15:51:07.901Z</time></trkpt><trkpt lat="45.83263535778256" lon="9.899222305290445"><ele>1226.0</ele><time>2026-04-03T15:51:08.901Z</time></trkpt><trkpt lat="45.83256873136107" lon="9.899144113943315"><ele>1226.0</ele><time>2026-04-03T15:51:09.901Z</time></trkpt><trkpt lat="45.83247520595059" lon="9.899114519441563"><ele>1225.0</ele><time>2026-04-03T15:51:10.901Z</time></trkpt><trkpt lat="45.83237961488328" lon="9.899134069544429"><ele>1224.0</ele><time>2026-04-03T15:51:11.901Z</time></trkpt><trkpt lat="45.832275009143785" lon="9.899151545024147"><ele>1223.0</ele><time>2026-04-03T15:51:12.901Z</time></trkpt><trkpt lat="45.83218069571376" lon="9.89913007893054"><ele>1222.0</ele><time>2026-04-03T15:51:13.901Z</time></trkpt><trkpt lat="45.832069485248525" lon="9.89907624111505"><ele>1221.0</ele><time>2026-04-03T15:51:14.901Z</time></trkpt><trkpt lat="45.83196152726128" lon="9.899018518322935"><ele>1221.0</ele><time>2026-04-03T15:51:15.901Z</time></trkpt><trkpt lat="45.83186800146305" lon="9.898959683220237"><ele>1221.0</ele><time>2026-04-03T15:51:16.901Z</time></trkpt><trkpt lat="45.83179150898721" lon="9.89889323352686"><ele>1221.0</ele><time>2026-04-03T15:51:17.901Z</time></trkpt><trkpt lat="45.83175201239954" lon="9.898796356843961"><ele>1221.0</ele><time>2026-04-03T15:51:18.901Z</time></trkpt><trkpt lat="45.83174352292941" lon="9.898687888870706"><ele>1221.0</ele><time>2026-04-03T15:51:19.901Z</time></trkpt><trkpt lat="45.83175707548049" lon="9.898564337180169"><ele>1221.0</ele><time>2026-04-03T15:51:20.901Z</time></trkpt><trkpt lat="45.831756304093155" lon="9.898424533209441"><ele>1216.6</ele><time>2026-04-03T15:51:21.901Z</time></trkpt><trkpt lat="45.831727504083545" lon="9.898295311836051"><ele>1212.1999999999998</ele><time>2026-04-03T15:51:22.901Z</time></trkpt><trkpt lat="45.83168327470625" lon="9.898184081878542"><ele>1207.8000000000002</ele><time>2026-04-03T15:51:23.901Z</time></trkpt><trkpt lat="45.83160873681907" lon="9.898069493871057"><ele>1203.4</ele><time>2026-04-03T15:51:24.901Z</time></trkpt><trkpt lat="45.83152407564302" lon="9.897980827378282"><ele>1199.0</ele><time>2026-04-03T15:51:25.901Z</time></trkpt><trkpt lat="45.8314272493656" lon="9.897930769688465"><ele>1199.0</ele><time>2026-04-03T15:51:26.901Z</time></trkpt><trkpt lat="45.83132328499138" lon="9.897887668419152"><ele>1199.0</ele><time>2026-04-03T15:51:27.901Z</time></trkpt><trkpt lat="45.831211457319114" lon="9.89785075125647"><ele>1199.0</ele><time>2026-04-03T15:51:28.901Z</time></trkpt><trkpt lat="45.83109688285042" lon="9.897823642621875"><ele>1199.0</ele><time>2026-04-03T15:51:29.901Z</time></trkpt><trkpt lat="45.83097905291809" lon="9.897827937462656"><ele>1196.4</ele><time>2026-04-03T15:51:30.901Z</time></trkpt><trkpt lat="45.83086929376014" lon="9.897853008954575"><ele>1193.8000000000002</ele><time>2026-04-03T15:51:31.901Z</time></trkpt><trkpt lat="45.83076048991749" lon="9.89787157992532"><ele>1191.1999999999998</ele><time>2026-04-03T15:51:32.901Z</time></trkpt><trkpt lat="45.83065784251883" lon="9.897877626150072"><ele>1188.6</ele><time>2026-04-03T15:51:33.901Z</time></trkpt><trkpt lat="45.830561108163224" lon="9.897865252307096"><ele>1186.0</ele><time>2026-04-03T15:51:34.901Z</time></trkpt><trkpt lat="45.830458995689455" lon="9.897840636270638"><ele>1186.0</ele><time>2026-04-03T15:51:35.901Z</time></trkpt><trkpt lat="45.830368828240836" lon="9.897801466895583"><ele>1186.0</ele><time>2026-04-03T15:51:36.901Z</time></trkpt><trkpt lat="45.830280279880256" lon="9.89775002155629"><ele>1186.0</ele><time>2026-04-03T15:51:37.901Z</time></trkpt><trkpt lat="45.8301917652245" lon="9.897695132760116"><ele>1186.0</ele><time>2026-04-03T15:51:38.901Z</time></trkpt><trkpt lat="45.83010129531311" lon="9.897638948678715"><ele>1186.0</ele><time>2026-04-03T15:51:39.901Z</time></trkpt><trkpt lat="45.83001141968266" lon="9.897574814713112"><ele>1182.8</ele><time>2026-04-03T15:51:40.901Z</time></trkpt><trkpt lat="45.82991968896059" lon="9.897512899211753"><ele>1179.6</ele><time>2026-04-03T15:51:41.901Z</time></trkpt><trkpt lat="45.82983092108717" lon="9.897453879595895"><ele>1176.4</ele><time>2026-04-03T15:51:42.901Z</time></trkpt><trkpt lat="45.82974184187011" lon="9.897405866517975"><ele>1173.2</ele><time>2026-04-03T15:51:43.901Z</time></trkpt><trkpt lat="45.82965873516651" lon="9.89737847684502"><ele>1170.0</ele><time>2026-04-03T15:51:44.901Z</time></trkpt><trkpt lat="45.82958204456896" lon="9.897361196042674"><ele>1170.0</ele><time>2026-04-03T15:51:45.901Z</time></trkpt><trkpt lat="45.82950972717426" lon="9.897345654037576"><ele>1170.0</ele><time>2026-04-03T15:51:46.901Z</time></trkpt><trkpt lat="45.829439532039814" lon="9.897332230002398"><ele>1170.0</ele><time>2026-04-03T15:51:47.901Z</time></trkpt><trkpt lat="45.829372373175914" lon="9.897308055618897"><ele>1170.0</ele><time>2026-04-03T15:51:48.901Z</time></trkpt><trkpt lat="45.82926240327783" lon="9.897262631193419"><ele>1170.0</ele><time>2026-04-03T15:51:50.901Z</time></trkpt><trkpt lat="45.82919543967109" lon="9.897215149904458"><ele>1170.0</ele><time>2026-04-03T15:51:52.901Z</time></trkpt><trkpt lat="45.82916659395008" lon="9.897093844721931"><ele>1167.0</ele><time>2026-04-03T15:51:54.901Z</time></trkpt><trkpt lat="45.82919309093342" lon="9.897010542714414"><ele>1164.0</ele><time>2026-04-03T15:51:55.901Z</time></trkpt><trkpt lat="45.82921143425003" lon="9.896880876864898"><ele>1161.0</ele><time>2026-04-03T15:51:57.901Z</time></trkpt><trkpt lat="45.8291297207589" lon="9.896816980040574"><ele>1158.0</ele><time>2026-04-03T15:51:59.901Z</time></trkpt><trkpt lat="45.82901358844275" lon="9.896868231848455"><ele>1155.0</ele><time>2026-04-03T15:52:01.901Z</time></trkpt><trkpt lat="45.828943543725" lon="9.896885694470253"><ele>1152.0</ele><time>2026-04-03T15:52:02.901Z</time></trkpt><trkpt lat="45.82886667523167" lon="9.896911410944828"><ele>1152.0000000000002</ele><time>2026-04-03T15:52:03.901Z</time></trkpt><trkpt lat="45.8287913132971" lon="9.89694403779402"><ele>1152.0</ele><time>2026-04-03T15:52:04.901Z</time></trkpt><trkpt lat="45.828720327318734" lon="9.896987730715987"><ele>1152.0</ele><time>2026-04-03T15:52:05.901Z</time></trkpt><trkpt lat="45.82866303869878" lon="9.89704988264439"><ele>1152.0</ele><time>2026-04-03T15:52:06.901Z</time></trkpt><trkpt lat="45.82862922646982" lon="9.89713283236791"><ele>1152.0</ele><time>2026-04-03T15:52:07.901Z</time></trkpt><trkpt lat="45.82862484214962" lon="9.897245385075077"><ele>1152.0000000000002</ele><time>2026-04-03T15:52:09.901Z</time></trkpt><trkpt lat="45.828643007897114" lon="9.89735071317701"><ele>1152.0</ele><time>2026-04-03T15:55:39.912Z</time></trkpt><trkpt lat="45.82854682283206" lon="9.897395708816651"><ele>1152.0</ele><time>2026-04-03T15:55:45.912Z</time></trkpt><trkpt lat="45.82848872148914" lon="9.897311488913015"><ele>1152.0</ele><time>2026-04-03T15:55:46.912Z</time></trkpt><trkpt lat="45.82843900957331" lon="9.89723929646801"><ele>1152.0</ele><time>2026-04-03T15:55:47.912Z</time></trkpt><trkpt lat="45.82837215639473" lon="9.897177002413256"><ele>1152.0</ele><time>2026-04-03T15:55:48.912Z</time></trkpt><trkpt lat="45.82829150448165" lon="9.897117059993233"><ele>1152.0</ele><time>2026-04-03T15:55:49.912Z</time></trkpt><trkpt lat="45.82821205010244" lon="9.897051523792577"><ele>1152.0</ele><time>2026-04-03T15:55:50.912Z</time></trkpt><trkpt lat="45.82814241477802" lon="9.896979306829346"><ele>1148.3333333333333</ele><time>2026-04-03T15:55:51.912Z</time></trkpt><trkpt lat="45.828089709813966" lon="9.896887567053437"><ele>1144.6666666666667</ele><time>2026-04-03T15:55:52.912Z</time></trkpt><trkpt lat="45.82806073578492" lon="9.896776815667737"><ele>1141.0</ele><time>2026-04-03T15:55:53.912Z</time></trkpt><trkpt lat="45.82806960803672" lon="9.896666026626821"><ele>1137.3333333333335</ele><time>2026-04-03T15:55:54.912Z</time></trkpt><trkpt lat="45.828099780854195" lon="9.89656905450243"><ele>1133.6666666666667</ele><time>2026-04-03T15:55:55.912Z</time></trkpt><trkpt lat="45.82816003858835" lon="9.89646974595162"><ele>1130.0</ele><time>2026-04-03T15:55:56.912Z</time></trkpt><trkpt lat="45.82823315253761" lon="9.896352070293576"><ele>1130.0</ele><time>2026-04-03T15:55:57.912Z</time></trkpt><trkpt lat="45.8283119465564" lon="9.896213919037054"><ele>1130.0</ele><time>2026-04-03T15:55:58.912Z</time></trkpt><trkpt lat="45.828388376710485" lon="9.89606944624571"><ele>1130.0</ele><time>2026-04-03T15:55:59.912Z</time></trkpt><trkpt lat="45.82845650295076" lon="9.895914220397254"><ele>1130.0</ele><time>2026-04-03T15:56:00.912Z</time></trkpt><trkpt lat="45.828491380234794" lon="9.89573808632586"><ele>1132.0</ele><time>2026-04-03T15:56:01.912Z</time></trkpt><trkpt lat="45.82848151133292" lon="9.895559684607047"><ele>1134.0</ele><time>2026-04-03T15:56:02.912Z</time></trkpt><trkpt lat="45.82844831752722" lon="9.895375400992906"><ele>1136.0</ele><time>2026-04-03T15:56:03.912Z</time></trkpt><trkpt lat="45.828415125755264" lon="9.895211481206239"><ele>1138.0</ele><time>2026-04-03T15:56:04.912Z</time></trkpt><trkpt lat="45.828386763454596" lon="9.89505145146793"><ele>1130.6</ele><time>2026-04-03T15:56:05.912Z</time></trkpt><trkpt lat="45.82837137238804" lon="9.894890405719229"><ele>1123.1999999999998</ele><time>2026-04-03T15:56:06.912Z</time></trkpt><trkpt lat="45.8283727828526" lon="9.894734328120716"><ele>1115.8</ele><time>2026-04-03T15:56:07.912Z</time></trkpt><trkpt lat="45.828388134830575" lon="9.894581833887573"><ele>1108.3999999999999</ele><time>2026-04-03T15:56:08.912Z</time></trkpt><trkpt lat="45.828412628011" lon="9.89443613605046"><ele>1101.0</ele><time>2026-04-03T15:56:09.912Z</time></trkpt><trkpt lat="45.82842860812385" lon="9.894299563027516"><ele>1100.3333333333333</ele><time>2026-04-03T15:56:10.912Z</time></trkpt><trkpt lat="45.82841410552694" lon="9.894175467681281"><ele>1099.6666666666667</ele><time>2026-04-03T15:56:11.912Z</time></trkpt><trkpt lat="45.82837449784244" lon="9.894092938627393"><ele>1099.0</ele><time>2026-04-03T15:56:12.912Z</time></trkpt><trkpt lat="45.82831955308229" lon="9.894045316190079"><ele>1098.3333333333335</ele><time>2026-04-03T15:56:13.912Z</time></trkpt><trkpt lat="45.82821729676929" lon="9.89401080572941"><ele>1097.6666666666667</ele><time>2026-04-03T15:56:14.912Z</time></trkpt><trkpt lat="45.82809557027518" lon="9.89399331507205"><ele>1097.0</ele><time>2026-04-03T15:56:15.912Z</time></trkpt><trkpt lat="45.827983874236274" lon="9.893936535233212"><ele>1097.0</ele><time>2026-04-03T15:56:16.912Z</time></trkpt><trkpt lat="45.82788863772682" lon="9.893863118106077"><ele>1097.0</ele><time>2026-04-03T15:56:17.912Z</time></trkpt><trkpt lat="45.827817829574535" lon="9.89377129637983"><ele>1097.0</ele><time>2026-04-03T15:56:18.912Z</time></trkpt><trkpt lat="45.82776433316001" lon="9.893700205095346"><ele>1097.0</ele><time>2026-04-03T15:56:19.912Z</time></trkpt><trkpt lat="45.827697126053735" lon="9.893676509746413"><ele>1097.0</ele><time>2026-04-03T15:56:20.912Z</time></trkpt><trkpt lat="45.82763339301414" lon="9.893732617853946"><ele>1097.0</ele><time>2026-04-03T15:56:21.912Z</time></trkpt><trkpt lat="45.82758866821736" lon="9.893841468560497"><ele>1097.8</ele><time>2026-04-03T15:56:22.912Z</time></trkpt><trkpt lat="45.82759003516707" lon="9.893987639498187"><ele>1098.6</ele><time>2026-04-03T15:56:23.912Z</time></trkpt><trkpt lat="45.827631990503185" lon="9.894141557382259"><ele>1099.3999999999999</ele><time>2026-04-03T15:56:24.912Z</time></trkpt><trkpt lat="45.82768735912587" lon="9.894264247502877"><ele>1100.2</ele><time>2026-04-03T15:56:25.912Z</time></trkpt><trkpt lat="45.827740346488" lon="9.89436803259538"><ele>1101.0</ele><time>2026-04-03T15:56:26.912Z</time></trkpt><trkpt lat="45.82773354000395" lon="9.894497923634969"><ele>1101.0</ele><time>2026-04-03T15:56:28.912Z</time></trkpt><trkpt lat="45.827655440601845" lon="9.894479163876962"><ele>1101.0</ele><time>2026-04-03T15:56:30.912Z</time></trkpt><trkpt lat="45.82757233019682" lon="9.894397157920853"><ele>1101.0</ele><time>2026-04-03T15:56:31.912Z</time></trkpt><trkpt lat="45.827480956320436" lon="9.89431105789747"><ele>1101.0</ele><time>2026-04-03T15:56:32.912Z</time></trkpt><trkpt lat="45.827371845861414" lon="9.89420611784395"><ele>1101.0</ele><time>2026-04-03T15:56:33.912Z</time></trkpt><trkpt lat="45.82725955785329" lon="9.89410497702295"><ele>1095.6</ele><time>2026-04-03T15:56:34.912Z</time></trkpt><trkpt lat="45.82716581361355" lon="9.894002349889332"><ele>1090.1999999999998</ele><time>2026-04-03T15:56:35.912Z</time></trkpt><trkpt lat="45.82709458440429" lon="9.893922273275459"><ele>1084.8000000000002</ele><time>2026-04-03T15:56:36.912Z</time></trkpt><trkpt lat="45.827051518951315" lon="9.893851695346516"><ele>1079.4</ele><time>2026-04-03T15:56:37.912Z</time></trkpt><trkpt lat="45.82704152248749" lon="9.893638582765368"><ele>1074.0</ele><time>2026-04-03T15:56:39.912Z</time></trkpt><trkpt lat="45.82706182169858" lon="9.893479005606478"><ele>1073.8</ele><time>2026-04-03T15:56:40.912Z</time></trkpt><trkpt lat="45.827081708167505" lon="9.893317516202186"><ele>1073.6000000000001</ele><time>2026-04-03T15:56:41.912Z</time></trkpt><trkpt lat="45.82709581862287" lon="9.893182892791723"><ele>1073.4</ele><time>2026-04-03T15:56:42.912Z</time></trkpt><trkpt lat="45.8271043036022" lon="9.893074283914405"><ele>1073.2</ele><time>2026-04-03T15:56:43.912Z</time></trkpt><trkpt lat="45.82704112661779" lon="9.892940148666971"><ele>1073.0</ele><time>2026-04-03T15:56:45.912Z</time></trkpt><trkpt lat="45.82697878798964" lon="9.89298549151239"><ele>1073.0</ele><time>2026-04-03T15:56:46.912Z</time></trkpt><trkpt lat="45.826955894955766" lon="9.893106294164538"><ele>1073.0</ele><time>2026-04-03T15:56:47.912Z</time></trkpt><trkpt lat="45.826933150144384" lon="9.893235670620028"><ele>1073.0</ele><time>2026-04-03T15:56:48.912Z</time></trkpt><trkpt lat="45.826905787507116" lon="9.893377017965847"><ele>1073.0</ele><time>2026-04-03T15:56:49.912Z</time></trkpt><trkpt lat="45.8268397597912" lon="9.893511563476343"><ele>1073.0</ele><time>2026-04-03T15:56:50.912Z</time></trkpt><trkpt lat="45.82675143081904" lon="9.893621450626311"><ele>1067.5</ele><time>2026-04-03T15:56:51.912Z</time></trkpt><trkpt lat="45.8266480334577" lon="9.893716692850788"><ele>1062.0</ele><time>2026-04-03T15:56:52.912Z</time></trkpt><trkpt lat="45.82653653746194" lon="9.893789869514626"><ele>1056.5</ele><time>2026-04-03T15:56:53.912Z</time></trkpt><trkpt lat="45.8264139983119" lon="9.893848448179352"><ele>1051.0</ele><time>2026-04-03T15:56:54.912Z</time></trkpt><trkpt lat="45.826291315603044" lon="9.89388588270365"><ele>1051.0</ele><time>2026-04-03T15:56:55.912Z</time></trkpt><trkpt lat="45.82616458715195" lon="9.893916226308132"><ele>1051.0</ele><time>2026-04-03T15:56:56.912Z</time></trkpt><trkpt lat="45.82605913328381" lon="9.893950497479777"><ele>1051.0</ele><time>2026-04-03T15:56:57.912Z</time></trkpt><trkpt lat="45.82595678546981" lon="9.89398401406079"><ele>1051.0</ele><time>2026-04-03T15:56:58.912Z</time></trkpt><trkpt lat="45.82587082888915" lon="9.894057419768632"><ele>1051.0</ele><time>2026-04-03T15:56:59.918Z</time></trkpt><trkpt lat="45.82581340044274" lon="9.894125216149211"><ele>1046.3999999999999</ele><time>2026-04-03T15:57:00.918Z</time></trkpt><trkpt lat="45.825717220480364" lon="9.89417060758956"><ele>1041.8</ele><time>2026-04-03T15:57:02.918Z</time></trkpt><trkpt lat="45.82566522236877" lon="9.893987538997578"><ele>1037.1999999999998</ele><time>2026-04-03T15:57:04.918Z</time></trkpt><trkpt lat="45.825646096787075" lon="9.893846311856686"><ele>1032.6</ele><time>2026-04-03T15:57:05.918Z</time></trkpt><trkpt lat="45.82562103628591" lon="9.893709424758688"><ele>1028.0</ele><time>2026-04-03T15:57:06.918Z</time></trkpt><trkpt lat="45.82562075235407" lon="9.893582693989295"><ele>1028.0</ele><time>2026-04-03T15:57:07.918Z</time></trkpt><trkpt lat="45.825652995886195" lon="9.893447261572724"><ele>1028.0</ele><time>2026-04-03T15:57:08.918Z</time></trkpt><trkpt lat="45.8256974461638" lon="9.893298741625545"><ele>1028.0</ele><time>2026-04-03T15:57:09.918Z</time></trkpt><trkpt lat="45.82574259835602" lon="9.89313209384829"><ele>1028.0</ele><time>2026-04-03T15:57:10.918Z</time></trkpt><trkpt lat="45.82578317811263" lon="9.892968531030434"><ele>1028.6</ele><time>2026-04-03T15:57:11.918Z</time></trkpt><trkpt lat="45.825817412229775" lon="9.89282248649942"><ele>1029.1999999999998</ele><time>2026-04-03T15:57:12.918Z</time></trkpt><trkpt lat="45.825851140385836" lon="9.892692928552975"><ele>1029.8</ele><time>2026-04-03T15:57:13.918Z</time></trkpt><trkpt lat="45.82588849032029" lon="9.892571201539306"><ele>1030.3999999999999</ele><time>2026-04-03T15:57:14.918Z</time></trkpt><trkpt lat="45.82594704389611" lon="9.892470586615191"><ele>1031.0</ele><time>2026-04-03T15:57:15.918Z</time></trkpt><trkpt lat="45.825994148554834" lon="9.892381882066921"><ele>1031.0</ele><time>2026-04-03T15:57:16.918Z</time></trkpt><trkpt lat="45.82605070526596" lon="9.892287550934137"><ele>1031.0</ele><time>2026-04-03T15:57:17.918Z</time></trkpt><trkpt lat="45.82610843240074" lon="9.892191304135423"><ele>1031.0</ele><time>2026-04-03T15:57:18.918Z</time></trkpt><trkpt lat="45.82617744850928" lon="9.892061975888907"><ele>1031.0</ele><time>2026-04-03T15:57:19.918Z</time></trkpt><trkpt lat="45.826219398584236" lon="9.891898119145932"><ele>1031.0</ele><time>2026-04-03T15:57:20.918Z</time></trkpt><trkpt lat="45.82621266798945" lon="9.891725410857495"><ele>1027.2</ele><time>2026-04-03T15:57:21.918Z</time></trkpt><trkpt lat="45.82621376511002" lon="9.891551689129985"><ele>1023.3999999999999</ele><time>2026-04-03T15:57:22.918Z</time></trkpt><trkpt lat="45.82621053576933" lon="9.891419477030611"><ele>1019.6</ele><time>2026-04-03T15:57:23.918Z</time></trkpt><trkpt lat="45.82625430076522" lon="9.891300635490314"><ele>1015.8</ele><time>2026-04-03T15:57:24.918Z</time></trkpt><trkpt lat="45.826298282199964" lon="9.891159024747985"><ele>1012.0</ele><time>2026-04-03T15:57:25.918Z</time></trkpt><trkpt lat="45.82635146254033" lon="9.890999171621962"><ele>1008.8</ele><time>2026-04-03T15:57:26.918Z</time></trkpt><trkpt lat="45.82641131723661" lon="9.890816641311254"><ele>1005.6</ele><time>2026-04-03T15:57:27.918Z</time></trkpt><trkpt lat="45.82645092774011" lon="9.890677638190473"><ele>1002.3999999999999</ele><time>2026-04-03T15:57:28.918Z</time></trkpt><trkpt lat="45.82648825479129" lon="9.890545349344226"><ele>999.1999999999999</ele><time>2026-04-03T15:57:29.918Z</time></trkpt><trkpt lat="45.82650046090803" lon="9.8904049741924"><ele>996.0</ele><time>2026-04-03T15:57:30.918Z</time></trkpt><trkpt lat="45.82647851764974" lon="9.890251929788704"><ele>996.0</ele><time>2026-04-03T15:57:31.918Z</time></trkpt><trkpt lat="45.8264379185762" lon="9.89011160445885"><ele>995.9999999999999</ele><time>2026-04-03T15:57:32.918Z</time></trkpt><trkpt lat="45.82639002621976" lon="9.890003404023298"><ele>995.9999999999999</ele><time>2026-04-03T15:57:33.918Z</time></trkpt><trkpt lat="45.82634381817563" lon="9.88989509090927"><ele>996.0</ele><time>2026-04-03T15:57:34.917Z</time></trkpt><trkpt lat="45.82627151283244" lon="9.889826045959529"><ele>996.0</ele><time>2026-04-03T15:57:35.917Z</time></trkpt><trkpt lat="45.82617097394382" lon="9.889774392705037"><ele>993.0</ele><time>2026-04-03T15:57:36.917Z</time></trkpt><trkpt lat="45.826062720205734" lon="9.889724053183722"><ele>989.9999999999999</ele><time>2026-04-03T15:57:37.917Z</time></trkpt><trkpt lat="45.825980440360375" lon="9.889671543065504"><ele>986.9999999999999</ele><time>2026-04-03T15:57:38.917Z</time></trkpt><trkpt lat="45.82588295223086" lon="9.889643243457474"><ele>984.0</ele><time>2026-04-03T15:57:39.917Z</time></trkpt><trkpt lat="45.82578468650552" lon="9.889651658759155"><ele>981.0</ele><time>2026-04-03T15:57:40.917Z</time></trkpt><trkpt lat="45.825692111751074" lon="9.889687805224817"><ele>976.75</ele><time>2026-04-03T15:57:41.917Z</time></trkpt><trkpt lat="45.82558816788349" lon="9.889756436624504"><ele>972.5</ele><time>2026-04-03T15:57:42.917Z</time></trkpt><trkpt lat="45.82549181320825" lon="9.88984872499432"><ele>968.25</ele><time>2026-04-03T15:57:43.917Z</time></trkpt><trkpt lat="45.82537613427233" lon="9.889927293770915"><ele>964.0</ele><time>2026-04-03T15:57:44.917Z</time></trkpt><trkpt lat="45.8252613857872" lon="9.889988306302765"><ele>964.0</ele><time>2026-04-03T15:57:45.917Z</time></trkpt><trkpt lat="45.82515236290168" lon="9.890070387588842"><ele>964.0000000000001</ele><time>2026-04-03T15:57:46.917Z</time></trkpt><trkpt lat="45.82503551773231" lon="9.890162951452618"><ele>964.0000000000001</ele><time>2026-04-03T15:57:47.917Z</time></trkpt><trkpt lat="45.82493708279962" lon="9.890221644247541"><ele>964.0</ele><time>2026-04-03T15:57:48.917Z</time></trkpt><trkpt lat="45.82487975555254" lon="9.89027279924565"><ele>964.0</ele><time>2026-04-03T15:57:49.917Z</time></trkpt><trkpt lat="45.82481366390574" lon="9.890305147562412"><ele>960.25</ele><time>2026-04-03T15:57:51.917Z</time></trkpt><trkpt lat="45.8248164156641" lon="9.890123590334078"><ele>956.5</ele><time>2026-04-03T15:57:53.917Z</time></trkpt><trkpt lat="45.82481902122539" lon="9.88997688990368"><ele>952.75</ele><time>2026-04-03T15:57:54.917Z</time></trkpt><trkpt lat="45.82480643572801" lon="9.889784403715334"><ele>949.0</ele><time>2026-04-03T15:57:55.917Z</time></trkpt><trkpt lat="45.82479855934332" lon="9.889578468460478"><ele>946.5</ele><time>2026-04-03T15:57:56.917Z</time></trkpt><trkpt lat="45.8247881536434" lon="9.889387521213466"><ele>944.0</ele><time>2026-04-03T15:57:57.917Z</time></trkpt><trkpt lat="45.82475687850634" lon="9.889215379063604"><ele>941.5</ele><time>2026-04-03T15:57:58.917Z</time></trkpt><trkpt lat="45.8247072042232" lon="9.889059386895383"><ele>939.0</ele><time>2026-04-03T15:57:59.917Z</time></trkpt><trkpt lat="45.82463517397485" lon="9.888905638675247"><ele>937.25</ele><time>2026-04-03T15:58:00.917Z</time></trkpt><trkpt lat="45.82455932921039" lon="9.888741060571514"><ele>935.5</ele><time>2026-04-03T15:58:01.917Z</time></trkpt><trkpt lat="45.82447661389272" lon="9.888602463266151"><ele>933.75</ele><time>2026-04-03T15:58:02.917Z</time></trkpt><trkpt lat="45.82440905649607" lon="9.888449241618007"><ele>932.0</ele><time>2026-04-03T15:58:03.917Z</time></trkpt><trkpt lat="45.824355655748974" lon="9.888279424223443"><ele>924.75</ele><time>2026-04-03T15:58:04.917Z</time></trkpt><trkpt lat="45.82429855717081" lon="9.888107504732629"><ele>917.5</ele><time>2026-04-03T15:58:05.917Z</time></trkpt><trkpt lat="45.82423481020775" lon="9.887950172430187"><ele>910.25</ele><time>2026-04-03T15:58:06.917Z</time></trkpt><trkpt lat="45.82418390459438" lon="9.88782671646791"><ele>903.0</ele><time>2026-04-03T15:58:07.917Z</time></trkpt><trkpt lat="45.82412719360254" lon="9.887718333901102"><ele>903.0</ele><time>2026-04-03T15:58:08.917Z</time></trkpt><trkpt lat="45.824090019209955" lon="9.88762808868243"><ele>903.0</ele><time>2026-04-03T15:58:09.917Z</time></trkpt><trkpt lat="45.824068033887286" lon="9.887539349883308"><ele>903.0</ele><time>2026-04-03T15:58:10.917Z</time></trkpt><trkpt lat="45.8240705621111" lon="9.887442479334293"><ele>903.0</ele><time>2026-04-03T15:58:11.917Z</time></trkpt><trkpt lat="45.824096942945616" lon="9.887350141034803"><ele>903.0</ele><time>2026-04-03T15:58:12.917Z</time></trkpt><trkpt lat="45.82415501452371" lon="9.887261189906516"><ele>903.0</ele><time>2026-04-03T15:58:13.917Z</time></trkpt><trkpt lat="45.82421109055343" lon="9.887164236771207"><ele>903.0</ele><time>2026-04-03T15:58:14.917Z</time></trkpt><trkpt lat="45.82425843813079" lon="9.887056380252124"><ele>902.1666666666666</ele><time>2026-04-03T15:58:15.917Z</time></trkpt><trkpt lat="45.82430750989663" lon="9.886968237778998"><ele>901.3333333333333</ele><time>2026-04-03T15:58:16.917Z</time></trkpt><trkpt lat="45.82436126181382" lon="9.886900396827256"><ele>900.5</ele><time>2026-04-03T15:58:17.917Z</time></trkpt><trkpt lat="45.824445812544326" lon="9.886842717154211"><ele>899.6666666666666</ele><time>2026-04-03T15:58:19.917Z</time></trkpt><trkpt lat="45.82442453972247" lon="9.8867473228997"><ele>898.8333333333333</ele><time>2026-04-03T15:58:21.917Z</time></trkpt><trkpt lat="45.82431461905166" lon="9.886731146387739"><ele>898.0</ele><time>2026-04-03T15:58:23.917Z</time></trkpt><trkpt lat="45.82423158755021" lon="9.88670710979736"><ele>895.1666666666666</ele><time>2026-04-03T15:58:24.917Z</time></trkpt><trkpt lat="45.82413704832121" lon="9.886676330652579"><ele>892.3333333333333</ele><time>2026-04-03T15:58:25.917Z</time></trkpt><trkpt lat="45.82403331338818" lon="9.886639161288379"><ele>889.5</ele><time>2026-04-03T15:58:26.917Z</time></trkpt><trkpt lat="45.82394917096421" lon="9.886613022185227"><ele>886.6666666666667</ele><time>2026-04-03T15:58:27.917Z</time></trkpt><trkpt lat="45.82387219650411" lon="9.886593951877943"><ele>883.8333333333334</ele><time>2026-04-03T15:58:28.917Z</time></trkpt><trkpt lat="45.82380274174635" lon="9.886603096345713"><ele>881.0</ele><time>2026-04-03T15:58:29.917Z</time></trkpt><trkpt lat="45.823672772370884" lon="9.88666704834193"><ele>881.0</ele><time>2026-04-03T15:58:31.917Z</time></trkpt><trkpt lat="45.823587864548486" lon="9.886745197347988"><ele>880.9999999999999</ele><time>2026-04-03T15:58:32.917Z</time></trkpt><trkpt lat="45.823515428907655" lon="9.886813149483006"><ele>880.9999999999999</ele><time>2026-04-03T15:58:33.917Z</time></trkpt><trkpt lat="45.823442938270674" lon="9.88689638561114"><ele>881.0</ele><time>2026-04-03T15:58:34.917Z</time></trkpt><trkpt lat="45.823369923680346" lon="9.88698520588075"><ele>881.0</ele><time>2026-04-03T15:58:35.917Z</time></trkpt><trkpt lat="45.823269697933085" lon="9.887091890658741"><ele>878.5999999999999</ele><time>2026-04-03T15:58:36.917Z</time></trkpt><trkpt lat="45.823186071267735" lon="9.887169222063015"><ele>876.1999999999999</ele><time>2026-04-03T15:58:37.917Z</time></trkpt><trkpt lat="45.82311108387059" lon="9.887271533064812"><ele>873.8000000000001</ele><time>2026-04-03T15:58:38.917Z</time></trkpt><trkpt lat="45.823039513969164" lon="9.88737674807819"><ele>871.4000000000001</ele><time>2026-04-03T15:58:39.917Z</time></trkpt><trkpt lat="45.82297885679764" lon="9.887447852767373"><ele>869.0</ele><time>2026-04-03T15:58:40.917Z</time></trkpt><trkpt lat="45.82291594758114" lon="9.887537267072647"><ele>869.3333333333334</ele><time>2026-04-03T15:58:41.917Z</time></trkpt><trkpt lat="45.822845523484276" lon="9.887604957061253"><ele>869.6666666666667</ele><time>2026-04-03T15:58:42.917Z</time></trkpt><trkpt lat="45.82277148132161" lon="9.887705150170364"><ele>870.0</ele><time>2026-04-03T15:58:43.917Z</time></trkpt><trkpt lat="45.8227237665481" lon="9.887780773251176"><ele>870.3333333333333</ele><time>2026-04-03T15:58:44.917Z</time></trkpt><trkpt lat="45.82269171136409" lon="9.887878207432633"><ele>870.6666666666666</ele><time>2026-04-03T15:58:45.917Z</time></trkpt><trkpt lat="45.8226709308438" lon="9.887972686994523"><ele>871.0</ele><time>2026-04-03T15:58:46.917Z</time></trkpt><trkpt lat="45.82267456659084" lon="9.888090672636288"><ele>871.0</ele><time>2026-04-03T15:58:47.917Z</time></trkpt><trkpt lat="45.82267490828628" lon="9.888219517998108"><ele>871.0</ele><time>2026-04-03T15:58:48.917Z</time></trkpt><trkpt lat="45.822721421129884" lon="9.888401091269532"><ele>871.0</ele><time>2026-04-03T15:58:49.917Z</time></trkpt><trkpt lat="45.822761824238974" lon="9.888604726350124"><ele>871.0</ele><time>2026-04-03T15:58:50.917Z</time></trkpt><trkpt lat="45.822810915360364" lon="9.888832609380392"><ele>868.0</ele><time>2026-04-03T15:58:51.917Z</time></trkpt><trkpt lat="45.822864751900354" lon="9.889058662690188"><ele>865.0</ele><time>2026-04-03T15:58:52.917Z</time></trkpt><trkpt lat="45.822927601974214" lon="9.889313076142953"><ele>862.0</ele><time>2026-04-03T15:58:53.917Z</time></trkpt><trkpt lat="45.82295170595013" lon="9.889514825745524"><ele>861.9999999999999</ele><time>2026-04-03T15:58:54.917Z</time></trkpt><trkpt lat="45.822989374890874" lon="9.88964109468426"><ele>862.0</ele><time>2026-04-03T15:58:55.917Z</time></trkpt><trkpt lat="45.82300301521086" lon="9.889739658909834"><ele>862.0</ele><time>2026-04-03T15:58:56.917Z</time></trkpt><trkpt lat="45.82294395949342" lon="9.889809708547247"><ele>862.0</ele><time>2026-04-03T15:58:58.917Z</time></trkpt><trkpt lat="45.822849590904966" lon="9.889825887276857"><ele>861.9999999999999</ele><time>2026-04-03T15:59:00.917Z</time></trkpt><trkpt lat="45.822769935785445" lon="9.8898300737037"><ele>862.0</ele><time>2026-04-03T15:59:01.917Z</time></trkpt><trkpt lat="45.822636914921034" lon="9.889885195293342"><ele>860.0</ele><time>2026-04-03T15:59:02.917Z</time></trkpt><trkpt lat="45.82248747032634" lon="9.889985402860367"><ele>858.0</ele><time>2026-04-03T15:59:03.917Z</time></trkpt><trkpt lat="45.82235757651657" lon="9.890084020950738"><ele>856.0</ele><time>2026-04-03T15:59:04.917Z</time></trkpt><trkpt lat="45.82221392756159" lon="9.890165278910334"><ele>856.0</ele><time>2026-04-03T15:59:05.923Z</time></trkpt><trkpt lat="45.82208389444716" lon="9.890256234592819"><ele>856.0</ele><time>2026-04-03T15:59:06.924Z</time></trkpt><trkpt lat="45.821954464365376" lon="9.890381609692328"><ele>856.0</ele><time>2026-04-03T15:59:07.923Z</time></trkpt><trkpt lat="45.821846968233714" lon="9.890523428836545"><ele>856.0</ele><time>2026-04-03T15:59:08.923Z</time></trkpt><trkpt lat="45.82175990943682" lon="9.890620097915079"><ele>848.4</ele><time>2026-04-03T15:59:09.923Z</time></trkpt><trkpt lat="45.82169531721878" lon="9.890670172213479"><ele>840.8</ele><time>2026-04-03T15:59:10.923Z</time></trkpt><trkpt lat="45.8216048187374" lon="9.89070695050457"><ele>833.1999999999999</ele><time>2026-04-03T15:59:11.923Z</time></trkpt><trkpt lat="45.82150872971014" lon="9.890763815686288"><ele>825.5999999999999</ele><time>2026-04-03T15:59:12.924Z</time></trkpt><trkpt lat="45.82140847811577" lon="9.890847008596497"><ele>818.0</ele><time>2026-04-03T15:59:13.924Z</time></trkpt><trkpt lat="45.82131226901224" lon="9.890907624774592"><ele>821.3333333333334</ele><time>2026-04-03T15:59:14.924Z</time></trkpt><trkpt lat="45.821243658069314" lon="9.890967936202417"><ele>824.6666666666667</ele><time>2026-04-03T15:59:15.923Z</time></trkpt><trkpt lat="45.82117361256866" lon="9.891021467269"><ele>828.0</ele><time>2026-04-03T15:59:16.923Z</time></trkpt><trkpt lat="45.8211170815374" lon="9.891090720010778"><ele>831.3333333333333</ele><time>2026-04-03T15:59:17.923Z</time></trkpt><trkpt lat="45.82107525968233" lon="9.891165109395606"><ele>834.6666666666666</ele><time>2026-04-03T15:59:18.924Z</time></trkpt><trkpt lat="45.82103216121819" lon="9.89124458320503"><ele>838.0</ele><time>2026-04-03T15:59:19.924Z</time></trkpt><trkpt lat="45.820973312572484" lon="9.891381230456721"><ele>828.8333333333333</ele><time>2026-04-03T15:59:21.924Z</time></trkpt><trkpt lat="45.82089765314409" lon="9.891327326881337"><ele>819.6666666666666</ele><time>2026-04-03T15:59:25.924Z</time></trkpt><trkpt lat="45.8209079888154" lon="9.891215168059727"><ele>810.5</ele><time>2026-04-03T15:59:28.924Z</time></trkpt><trkpt lat="45.820895757042685" lon="9.891110948978746"><ele>801.3333333333333</ele><time>2026-04-03T15:59:32.924Z</time></trkpt><trkpt lat="45.82082412136891" lon="9.891122145496723"><ele>792.1666666666666</ele><time>2026-04-03T15:59:34.924Z</time></trkpt><trkpt lat="45.82075713621916" lon="9.89122960193735"><ele>783.0</ele><time>2026-04-03T15:59:36.924Z</time></trkpt><trkpt lat="45.82072713235637" lon="9.891352315171435"><ele>783.0</ele><time>2026-04-03T15:59:38.924Z</time></trkpt><trkpt lat="45.82067033880011" lon="9.891487078912713"><ele>783.0</ele><time>2026-04-03T15:59:40.924Z</time></trkpt><trkpt lat="45.82065400114615" lon="9.891588339018117"><ele>783.0</ele><time>2026-04-03T15:59:41.924Z</time></trkpt><trkpt lat="45.8206326019227" lon="9.891715818834635"><ele>783.0</ele><time>2026-04-03T15:59:43.924Z</time></trkpt><trkpt lat="45.82062172892334" lon="9.891871210302345"><ele>783.0</ele><time>2026-04-03T15:59:45.924Z</time></trkpt><trkpt lat="45.82060361512209" lon="9.89199638311568"><ele>786.0</ele><time>2026-04-03T15:59:47.924Z</time></trkpt><trkpt lat="45.82058636101423" lon="9.89209957446207"><ele>789.0</ele><time>2026-04-03T15:59:49.924Z</time></trkpt><trkpt lat="45.8204729574471" lon="9.892216253429062"><ele>792.0</ele><time>2026-04-03T15:59:51.924Z</time></trkpt><trkpt lat="45.8204280752013" lon="9.892304338176084"><ele>795.0</ele><time>2026-04-03T15:59:52.924Z</time></trkpt><trkpt lat="45.8203688005096" lon="9.892433983727658"><ele>798.0</ele><time>2026-04-03T15:59:54.924Z</time></trkpt><trkpt lat="45.82027970571184" lon="9.892493324249404"><ele>798.0</ele><time>2026-04-03T15:59:57.924Z</time></trkpt><trkpt lat="45.82020645028464" lon="9.89255931497571"><ele>798.0</ele><time>2026-04-03T15:59:59.924Z</time></trkpt><trkpt lat="45.82007214084586" lon="9.892582987482312"><ele>798.0</ele><time>2026-04-03T16:00:02.924Z</time></trkpt><trkpt lat="45.82002874796866" lon="9.892501193256162"><ele>798.0</ele><time>2026-04-03T16:00:04.924Z</time></trkpt><trkpt lat="45.819958202633366" lon="9.892388544751382"><ele>798.0</ele><time>2026-04-03T16:00:06.923Z</time></trkpt><trkpt lat="45.81994104117285" lon="9.892293909513867"><ele>787.5999999999999</ele><time>2026-04-03T16:00:08.923Z</time></trkpt><trkpt lat="45.820035525745894" lon="9.892235807013257"><ele>777.1999999999999</ele><time>2026-04-03T16:00:10.923Z</time></trkpt><trkpt lat="45.81996679629498" lon="9.892204079969524"><ele>766.8</ele><time>2026-04-03T16:00:13.923Z</time></trkpt><trkpt lat="45.8199009166371" lon="9.892250458879156"><ele>756.4</ele><time>2026-04-03T16:00:15.923Z</time></trkpt><trkpt lat="45.81977537086001" lon="9.892260606684575"><ele>746.0</ele><time>2026-04-03T16:00:17.923Z</time></trkpt><trkpt lat="45.819705388495315" lon="9.892157266267635"><ele>746.0</ele><time>2026-04-03T16:00:19.923Z</time></trkpt><trkpt lat="45.81965862324468" lon="9.892094963434351"><ele>746.0</ele><time>2026-04-03T16:00:20.923Z</time></trkpt><trkpt lat="45.81957005253136" lon="9.892082781246554"><ele>746.0</ele><time>2026-04-03T16:00:21.923Z</time></trkpt><trkpt lat="45.81946035485128" lon="9.892092653742687"><ele>746.0</ele><time>2026-04-03T16:00:22.923Z</time></trkpt><trkpt lat="45.819335599982736" lon="9.892128745283852"><ele>746.0</ele><time>2026-04-03T16:00:23.923Z</time></trkpt><trkpt lat="45.81924155490224" lon="9.89218033881653"><ele>738.8</ele><time>2026-04-03T16:00:24.923Z</time></trkpt><trkpt lat="45.81911719958176" lon="9.89220025403642"><ele>731.5999999999999</ele><time>2026-04-03T16:00:26.923Z</time></trkpt><trkpt lat="45.819062781984854" lon="9.892128043030239"><ele>724.4</ele><time>2026-04-03T16:00:27.923Z</time></trkpt><trkpt lat="45.81899328470405" lon="9.892064444016436"><ele>717.2</ele><time>2026-04-03T16:00:28.923Z</time></trkpt><trkpt lat="45.81890313357172" lon="9.89200959573308"><ele>710.0</ele><time>2026-04-03T16:00:29.923Z</time></trkpt><trkpt lat="45.818816042424295" lon="9.891968870705485"><ele>710.0</ele><time>2026-04-03T16:00:30.923Z</time></trkpt><trkpt lat="45.818740072474135" lon="9.891956746842702"><ele>710.0</ele><time>2026-04-03T16:00:31.923Z</time></trkpt><trkpt lat="45.8186467285167" lon="9.891917475072887"><ele>710.0</ele><time>2026-04-03T16:00:32.923Z</time></trkpt><trkpt lat="45.81860570498844" lon="9.891824755477392"><ele>710.0</ele><time>2026-04-03T16:00:33.923Z</time></trkpt><trkpt lat="45.8185509587188" lon="9.891744960668733"><ele>710.0</ele><time>2026-04-03T16:00:34.923Z</time></trkpt><trkpt lat="45.81849987599969" lon="9.891684313270616"><ele>710.0</ele><time>2026-04-03T16:00:35.923Z</time></trkpt><trkpt lat="45.81841361561513" lon="9.89164471633344"><ele>706.6</ele><time>2026-04-03T16:00:37.923Z</time></trkpt><trkpt lat="45.81831344811073" lon="9.891657337627661"><ele>703.2</ele><time>2026-04-03T16:00:39.923Z</time></trkpt><trkpt lat="45.818219171795334" lon="9.89171776755108"><ele>699.8</ele><time>2026-04-03T16:00:41.923Z</time></trkpt><trkpt lat="45.818158295128114" lon="9.891786310986637"><ele>696.4</ele><time>2026-04-03T16:00:42.923Z</time></trkpt><trkpt lat="45.81813585211389" lon="9.891882871300798"><ele>693.0</ele><time>2026-04-03T16:00:43.923Z</time></trkpt><trkpt lat="45.81809030428536" lon="9.892042435885665"><ele>691.5</ele><time>2026-04-03T16:00:45.923Z</time></trkpt><trkpt lat="45.81808217235468" lon="9.892173508834071"><ele>690.0</ele><time>2026-04-03T16:00:46.923Z</time></trkpt><trkpt lat="45.818095697278615" lon="9.892319504990066"><ele>688.5</ele><time>2026-04-03T16:00:47.923Z</time></trkpt><trkpt lat="45.8181174630152" lon="9.89260909704998"><ele>687.0</ele><time>2026-04-03T16:00:49.923Z</time></trkpt><trkpt lat="45.818117309999586" lon="9.892721462302067"><ele>683.2</ele><time>2026-04-03T16:00:50.923Z</time></trkpt><trkpt lat="45.818124458018524" lon="9.892812216216795"><ele>679.4000000000001</ele><time>2026-04-03T16:00:51.923Z</time></trkpt><trkpt lat="45.818196863324346" lon="9.8929528856156"><ele>675.5999999999999</ele><time>2026-04-03T16:00:53.923Z</time></trkpt><trkpt lat="45.81829214947916" lon="9.893077953234275"><ele>671.8</ele><time>2026-04-03T16:00:55.923Z</time></trkpt><trkpt lat="45.81836149481186" lon="9.8931393108385"><ele>668.0</ele><time>2026-04-03T16:00:56.923Z</time></trkpt><trkpt lat="45.81844633370632" lon="9.893207205044764"><ele>672.1666666666666</ele><time>2026-04-03T16:00:57.923Z</time></trkpt><trkpt lat="45.81851388984922" lon="9.893275667000928"><ele>676.3333333333333</ele><time>2026-04-03T16:00:58.923Z</time></trkpt><trkpt lat="45.818587778965735" lon="9.893408348157514"><ele>680.5</ele><time>2026-04-03T16:01:00.923Z</time></trkpt><trkpt lat="45.81858139194051" lon="9.893500237590516"><ele>684.6666666666666</ele><time>2026-04-03T16:01:01.923Z</time></trkpt><trkpt lat="45.81854152378142" lon="9.893598265021977"><ele>688.8333333333334</ele><time>2026-04-03T16:01:03.923Z</time></trkpt><trkpt lat="45.818569625058046" lon="9.89370942166163"><ele>693.0</ele><time>2026-04-03T16:01:08.923Z</time></trkpt><trkpt lat="45.81855469312563" lon="9.893812516605244"><ele>693.0</ele><time>2026-04-03T16:01:09.923Z</time></trkpt><trkpt lat="45.81856159531685" lon="9.893966445947486"><ele>693.0</ele><time>2026-04-03T16:01:10.923Z</time></trkpt><trkpt lat="45.81854469507463" lon="9.89407262781633"><ele>693.0</ele><time>2026-04-03T16:01:11.928Z</time></trkpt><trkpt lat="45.818523837921596" lon="9.894181417848593"><ele>693.0</ele><time>2026-04-03T16:01:12.929Z</time></trkpt><trkpt lat="45.818485552531016" lon="9.894287979034152"><ele>693.0</ele><time>2026-04-03T16:01:13.929Z</time></trkpt><trkpt lat="45.81847063678486" lon="9.894431218032905"><ele>693.0</ele><time>2026-04-03T16:01:14.929Z</time></trkpt><trkpt lat="45.81849635322642" lon="9.894566094439813"><ele>690.8</ele><time>2026-04-03T16:01:15.929Z</time></trkpt><trkpt lat="45.81852259055387" lon="9.894684128175653"><ele>688.5999999999999</ele><time>2026-04-03T16:01:16.929Z</time></trkpt><trkpt lat="45.81855538575776" lon="9.894798620912221"><ele>686.4000000000001</ele><time>2026-04-03T16:01:17.929Z</time></trkpt><trkpt lat="45.818570373833985" lon="9.894915339488534"><ele>684.2</ele><time>2026-04-03T16:01:18.929Z</time></trkpt><trkpt lat="45.81855909644313" lon="9.895022707846556"><ele>682.0</ele><time>2026-04-03T16:01:19.929Z</time></trkpt><trkpt lat="45.81847665572314" lon="9.895167396539556"><ele>673.0</ele><time>2026-04-03T16:01:21.929Z</time></trkpt><trkpt lat="45.818386597442604" lon="9.895209181439574"><ele>664.0</ele><time>2026-04-03T16:01:22.929Z</time></trkpt><trkpt lat="45.81829895900926" lon="9.895230621756152"><ele>655.0</ele><time>2026-04-03T16:01:23.929Z</time></trkpt><trkpt lat="45.818208541395556" lon="9.895251884986944"><ele>646.0</ele><time>2026-04-03T16:01:24.93Z</time></trkpt><trkpt lat="45.818105354753975" lon="9.895237263000332"><ele>637.0</ele><time>2026-04-03T16:01:25.93Z</time></trkpt><trkpt lat="45.81800862106906" lon="9.895230996436801"><ele>637.0</ele><time>2026-04-03T16:01:26.93Z</time></trkpt><trkpt lat="45.81793329429106" lon="9.895236160731583"><ele>637.0</ele><time>2026-04-03T16:01:27.93Z</time></trkpt><trkpt lat="45.81787424326344" lon="9.895273834975724"><ele>637.0</ele><time>2026-04-03T16:01:28.93Z</time></trkpt><trkpt lat="45.81778479696502" lon="9.895347187064353"><ele>637.0</ele><time>2026-04-03T16:01:30.93Z</time></trkpt><trkpt lat="45.81773366151838" lon="9.895408941522676"><ele>637.0</ele><time>2026-04-03T16:01:31.93Z</time></trkpt><trkpt lat="45.817737362357015" lon="9.895557498612217"><ele>637.0</ele><time>2026-04-03T16:01:33.93Z</time></trkpt><trkpt lat="45.817731534990855" lon="9.895654061165562"><ele>637.0</ele><time>2026-04-03T16:01:35.93Z</time></trkpt><trkpt lat="45.81771950776607" lon="9.895751369696463"><ele>637.0</ele><time>2026-04-03T16:01:37.93Z</time></trkpt><trkpt lat="45.81771512539862" lon="9.89584842791111"><ele>637.0</ele><time>2026-04-03T16:01:39.93Z</time></trkpt><trkpt lat="45.817618439532104" lon="9.89582582667876"><ele>637.0</ele><time>2026-04-03T16:01:40.931Z</time></trkpt><trkpt lat="45.8175522328331" lon="9.895799929944626"><ele>637.0</ele><time>2026-04-03T16:01:43.935Z</time></trkpt><trkpt lat="45.817502979316956" lon="9.895742113344475"><ele>637.0</ele><time>2026-04-03T16:01:46.939Z</time></trkpt><trkpt lat="45.81747892299535" lon="9.895646009723075"><ele>637.0</ele><time>2026-04-03T16:01:49.942Z</time></trkpt><trkpt lat="45.817422527309816" lon="9.8955870624241"><ele>634.1666666666667</ele><time>2026-04-03T16:01:51.943Z</time></trkpt><trkpt lat="45.817450405327506" lon="9.89548873272185"><ele>631.3333333333334</ele><time>2026-04-03T16:01:53.945Z</time></trkpt><trkpt lat="45.81745569573293" lon="9.895373515125613"><ele>628.5</ele><time>2026-04-03T16:01:54.945Z</time></trkpt><trkpt lat="45.81748562698924" lon="9.89527795601907"><ele>625.6666666666666</ele><time>2026-04-03T16:01:55.946Z</time></trkpt><trkpt lat="45.8174708770271" lon="9.895137376995873"><ele>622.8333333333333</ele><time>2026-04-03T16:01:57.947Z</time></trkpt><trkpt lat="45.81755996537795" lon="9.89505871152545"><ele>620.0</ele><time>2026-04-03T16:01:59.948Z</time></trkpt><trkpt lat="45.81762760593558" lon="9.895037022203487"><ele>618.4</ele><time>2026-04-03T16:02:00.948Z</time></trkpt><trkpt lat="45.81769232367865" lon="9.894948718862995"><ele>616.8</ele><time>2026-04-03T16:02:01.949Z</time></trkpt><trkpt lat="45.81771504559461" lon="9.894826412200556"><ele>615.2</ele><time>2026-04-03T16:02:03.949Z</time></trkpt><trkpt lat="45.81760455410116" lon="9.894740502093551"><ele>613.6</ele><time>2026-04-03T16:02:05.95Z</time></trkpt><trkpt lat="45.8175267677768" lon="9.894676939774019"><ele>612.0</ele><time>2026-04-03T16:02:07.951Z</time></trkpt><trkpt lat="45.81739765573554" lon="9.894637402116285"><ele>612.0</ele><time>2026-04-03T16:02:09.951Z</time></trkpt><trkpt lat="45.817327824477836" lon="9.894542471851988"><ele>612.0</ele><time>2026-04-03T16:02:10.951Z</time></trkpt><trkpt lat="45.817274391588676" lon="9.894477364951861"><ele>612.0</ele><time>2026-04-03T16:02:11.952Z</time></trkpt><trkpt lat="45.81720844304159" lon="9.894404199252387"><ele>612.0</ele><time>2026-04-03T16:02:12.952Z</time></trkpt><trkpt lat="45.81714708362425" lon="9.894308333663197"><ele>612.0</ele><time>2026-04-03T16:02:13.952Z</time></trkpt><trkpt lat="45.817089225194515" lon="9.894199643893945"><ele>612.0</ele><time>2026-04-03T16:02:14.952Z</time></trkpt><trkpt lat="45.81702054542213" lon="9.89406840119119"><ele>612.6</ele><time>2026-04-03T16:02:15.952Z</time></trkpt><trkpt lat="45.816948127163045" lon="9.893922986884052"><ele>613.2</ele><time>2026-04-03T16:02:16.952Z</time></trkpt><trkpt lat="45.81688472514744" lon="9.89378587188051"><ele>613.8</ele><time>2026-04-03T16:02:17.953Z</time></trkpt><trkpt lat="45.816831082466166" lon="9.893663548859061"><ele>614.4</ele><time>2026-04-03T16:02:18.953Z</time></trkpt><trkpt lat="45.81681194564757" lon="9.893534543662076"><ele>615.0</ele><time>2026-04-03T16:02:19.953Z</time></trkpt><trkpt lat="45.81678741027408" lon="9.893407137296444"><ele>611.8333333333334</ele><time>2026-04-03T16:02:20.953Z</time></trkpt><trkpt lat="45.81676473305888" lon="9.893305680674729"><ele>608.6666666666666</ele><time>2026-04-03T16:02:21.953Z</time></trkpt><trkpt lat="45.81675834353386" lon="9.893209606241491"><ele>605.5</ele><time>2026-04-03T16:02:22.953Z</time></trkpt><trkpt lat="45.816759502416076" lon="9.89311252175005"><ele>602.3333333333333</ele><time>2026-04-03T16:02:23.953Z</time></trkpt><trkpt lat="45.816754614661974" lon="9.892979044055826"><ele>599.1666666666666</ele><time>2026-04-03T16:02:24.953Z</time></trkpt><trkpt lat="45.81674348870947" lon="9.892839470867136"><ele>596.0</ele><time>2026-04-03T16:02:25.953Z</time></trkpt><trkpt lat="45.81672300046871" lon="9.892714439789156"><ele>596.0</ele><time>2026-04-03T16:02:26.954Z</time></trkpt><trkpt lat="45.81670429832066" lon="9.89259989668338"><ele>596.0</ele><time>2026-04-03T16:02:27.954Z</time></trkpt><trkpt lat="45.816650126842056" lon="9.892547733929725"><ele>596.0</ele><time>2026-04-03T16:02:28.954Z</time></trkpt><trkpt lat="45.816599944154426" lon="9.89248796062276"><ele>596.0</ele><time>2026-04-03T16:02:29.954Z</time></trkpt><trkpt lat="45.816544372811904" lon="9.892418830261954"><ele>596.0</ele><time>2026-04-03T16:02:30.954Z</time></trkpt><trkpt lat="45.816494195856905" lon="9.892320813420332"><ele>596.0</ele><time>2026-04-03T16:02:31.954Z</time></trkpt><trkpt lat="45.81644776199016" lon="9.892226468531637"><ele>597.6</ele><time>2026-04-03T16:02:32.954Z</time></trkpt><trkpt lat="45.81642048689495" lon="9.892144787674683"><ele>599.2</ele><time>2026-04-03T16:02:33.954Z</time></trkpt><trkpt lat="45.81637088697932" lon="9.89203321614187"><ele>600.8</ele><time>2026-04-03T16:02:50.955Z</time></trkpt><trkpt lat="45.81631588256439" lon="9.891921810921179"><ele>602.4</ele><time>2026-04-03T16:02:52.955Z</time></trkpt><trkpt lat="45.816258423204125" lon="9.89178136659803"><ele>604.0</ele><time>2026-04-03T16:02:54.955Z</time></trkpt><trkpt lat="45.81622478742625" lon="9.891581239997256"><ele>606.0</ele><time>2026-04-03T16:02:56.955Z</time></trkpt><trkpt lat="45.81621850638032" lon="9.891476551057242"><ele>608.0</ele><time>2026-04-03T16:02:57.955Z</time></trkpt><trkpt lat="45.81621248170741" lon="9.891385248851197"><ele>610.0</ele><time>2026-04-03T16:02:58.955Z</time></trkpt><trkpt lat="45.816224026315325" lon="9.89119164016184"><ele>612.0</ele><time>2026-04-03T16:03:00.955Z</time></trkpt><trkpt lat="45.81624031659735" lon="9.891056810585036"><ele>614.0</ele><time>2026-04-03T16:03:01.955Z</time></trkpt><trkpt lat="45.81624572951399" lon="9.890906524647606"><ele>615.8</ele><time>2026-04-03T16:03:02.955Z</time></trkpt><trkpt lat="45.816239450297786" lon="9.89077527575005"><ele>617.5999999999999</ele><time>2026-04-03T16:03:03.955Z</time></trkpt><trkpt lat="45.816231153859164" lon="9.890637521881281"><ele>619.4</ele><time>2026-04-03T16:03:04.955Z</time></trkpt><trkpt lat="45.81621134373147" lon="9.890486950802025"><ele>621.1999999999999</ele><time>2026-04-03T16:03:05.955Z</time></trkpt><trkpt lat="45.816183783242906" lon="9.890332037262294"><ele>623.0</ele><time>2026-04-03T16:03:06.955Z</time></trkpt><trkpt lat="45.816177010610154" lon="9.890169739493091"><ele>623.3333333333333</ele><time>2026-04-03T16:03:07.955Z</time></trkpt><trkpt lat="45.81617491138166" lon="9.89003586491816"><ele>623.6666666666666</ele><time>2026-04-03T16:03:08.955Z</time></trkpt><trkpt lat="45.81617901665741" lon="9.889887834349828"><ele>624.0</ele><time>2026-04-03T16:03:09.955Z</time></trkpt><trkpt lat="45.81618942300242" lon="9.889772866461781"><ele>624.3333333333334</ele><time>2026-04-03T16:03:10.955Z</time></trkpt><trkpt lat="45.81621257422207" lon="9.889669579920016"><ele>624.6666666666667</ele><time>2026-04-03T16:03:11.955Z</time></trkpt><trkpt lat="45.816247127626106" lon="9.889591595166854"><ele>625.0</ele><time>2026-04-03T16:03:12.955Z</time></trkpt><trkpt lat="45.81624950044262" lon="9.889468139511052"><ele>625.0</ele><time>2026-04-03T16:03:14.955Z</time></trkpt><trkpt lat="45.81621226834944" lon="9.889385118932257"><ele>625.0</ele><time>2026-04-03T16:03:15.955Z</time></trkpt><trkpt lat="45.81618730698327" lon="9.889274633797113"><ele>625.0</ele><time>2026-04-03T16:03:16.955Z</time></trkpt><trkpt lat="45.816158203419675" lon="9.889150751746051"><ele>625.0</ele><time>2026-04-03T16:03:18.961Z</time></trkpt><trkpt lat="45.816144349570905" lon="9.88904166621243"><ele>625.0</ele><time>2026-04-03T16:03:20.961Z</time></trkpt><trkpt lat="45.81615376590643" lon="9.888870249907805"><ele>625.0</ele><time>2026-04-03T16:03:22.961Z</time></trkpt><trkpt lat="45.81614332232126" lon="9.888746112932617"><ele>625.0</ele><time>2026-04-03T16:03:23.961Z</time></trkpt><trkpt lat="45.81613411100482" lon="9.88861345140598"><ele>625.0</ele><time>2026-04-03T16:03:24.961Z</time></trkpt><trkpt lat="45.81615572923352" lon="9.888493355465084"><ele>625.0</ele><time>2026-04-03T16:03:25.961Z</time></trkpt><trkpt lat="45.816181203165236" lon="9.888392922000978"><ele>625.0</ele><time>2026-04-03T16:03:26.961Z</time></trkpt><trkpt lat="45.816200824946534" lon="9.888235386998925"><ele>625.0</ele><time>2026-04-03T16:03:28.961Z</time></trkpt><trkpt lat="45.81613678607151" lon="9.888121302184654"><ele>624.6</ele><time>2026-04-03T16:03:30.961Z</time></trkpt><trkpt lat="45.81610734100432" lon="9.888006708503648"><ele>624.2</ele><time>2026-04-03T16:03:31.961Z</time></trkpt><trkpt lat="45.81608702418955" lon="9.88789554251624"><ele>623.8</ele><time>2026-04-03T16:03:32.961Z</time></trkpt><trkpt lat="45.81609506584331" lon="9.887744555732638"><ele>623.4</ele><time>2026-04-03T16:03:33.961Z</time></trkpt><trkpt lat="45.81607880074814" lon="9.887609171141133"><ele>623.0</ele><time>2026-04-03T16:03:34.961Z</time></trkpt><trkpt lat="45.81605045687079" lon="9.887496237294968"><ele>622.6666666666666</ele><time>2026-04-03T16:03:35.961Z</time></trkpt><trkpt lat="45.81603298892489" lon="9.887398480085357"><ele>622.3333333333333</ele><time>2026-04-03T16:03:36.961Z</time></trkpt><trkpt lat="45.815980961704476" lon="9.887267817394338"><ele>622.0</ele><time>2026-04-03T16:03:38.961Z</time></trkpt><trkpt lat="45.81594572082304" lon="9.88716346428261"><ele>621.6666666666666</ele><time>2026-04-03T16:03:39.961Z</time></trkpt><trkpt lat="45.815893067044385" lon="9.887070576370128"><ele>621.3333333333334</ele><time>2026-04-03T16:03:40.961Z</time></trkpt><trkpt lat="45.81586683500499" lon="9.886985641227358"><ele>621.0</ele><time>2026-04-03T16:03:41.961Z</time></trkpt><trkpt lat="45.815849880177964" lon="9.886834985360403"><ele>616.2</ele><time>2026-04-03T16:03:43.961Z</time></trkpt><trkpt lat="45.81577341895206" lon="9.886722022996745"><ele>611.4000000000001</ele><time>2026-04-03T16:03:45.961Z</time></trkpt><trkpt lat="45.81572322954984" lon="9.886593279389738"><ele>606.6</ele><time>2026-04-03T16:03:47.961Z</time></trkpt><trkpt lat="45.815671495802036" lon="9.886442882067545"><ele>601.8000000000001</ele><time>2026-04-03T16:03:49.961Z</time></trkpt><trkpt lat="45.81564224767608" lon="9.886349913787697"><ele>597.0</ele><time>2026-04-03T16:03:50.961Z</time></trkpt><trkpt lat="45.8156133039305" lon="9.886269184618595"><ele>597.0</ele><time>2026-04-03T16:03:51.961Z</time></trkpt><trkpt lat="45.815602260433856" lon="9.886169532287807"><ele>597.0</ele><time>2026-04-03T16:03:53.961Z</time></trkpt><trkpt lat="45.81564893670621" lon="9.886001223158615"><ele>597.0</ele><time>2026-04-03T16:03:55.961Z</time></trkpt><trkpt lat="45.8156604369915" lon="9.88589747659011"><ele>597.0</ele><time>2026-04-03T16:03:56.961Z</time></trkpt><trkpt lat="45.815671516545834" lon="9.885775169488575"><ele>597.0</ele><time>2026-04-03T16:03:57.961Z</time></trkpt><trkpt lat="45.81569523028688" lon="9.885649605253166"><ele>597.0</ele><time>2026-04-03T16:03:58.961Z</time></trkpt><trkpt lat="45.81572253954577" lon="9.885561064257603"><ele>597.0</ele><time>2026-04-03T16:03:59.961Z</time></trkpt><trkpt lat="45.81576969841528" lon="9.8854772023789"><ele>597.0</ele><time>2026-04-03T16:04:00.961Z</time></trkpt><trkpt lat="45.815813838534545" lon="9.885373831232789"><ele>597.0</ele><time>2026-04-03T16:04:01.961Z</time></trkpt><trkpt lat="45.8158495878138" lon="9.885270344246859"><ele>597.0</ele><time>2026-04-03T16:04:02.961Z</time></trkpt><trkpt lat="45.8158839667197" lon="9.885171527880262"><ele>597.0</ele><time>2026-04-03T16:04:03.961Z</time></trkpt><trkpt lat="45.815948354485826" lon="9.885074437920476"><ele>597.0</ele><time>2026-04-03T16:04:04.961Z</time></trkpt><trkpt lat="45.81602729155172" lon="9.884984849835826"><ele>594.8333333333334</ele><time>2026-04-03T16:04:05.961Z</time></trkpt><trkpt lat="45.81611705713097" lon="9.884894407860829"><ele>592.6666666666666</ele><time>2026-04-03T16:04:06.961Z</time></trkpt><trkpt lat="45.81618921852643" lon="9.884805346299236"><ele>590.5</ele><time>2026-04-03T16:04:07.961Z</time></trkpt><trkpt lat="45.81625377712258" lon="9.884731063592621"><ele>588.3333333333333</ele><time>2026-04-03T16:04:08.961Z</time></trkpt><trkpt lat="45.81630991742518" lon="9.884668437190921"><ele>586.1666666666666</ele><time>2026-04-03T16:04:09.961Z</time></trkpt><trkpt lat="45.81637603622172" lon="9.884618322978769"><ele>584.0</ele><time>2026-04-03T16:04:11.961Z</time></trkpt><trkpt lat="45.81635502906713" lon="9.884517623046248"><ele>584.0</ele><time>2026-04-03T16:04:14.961Z</time></trkpt><trkpt lat="45.81630143968932" lon="9.884383780977066"><ele>584.0</ele><time>2026-04-03T16:04:16.961Z</time></trkpt><trkpt lat="45.81626508025679" lon="9.884251645989881"><ele>584.0</ele><time>2026-04-03T16:04:18.961Z</time></trkpt><trkpt lat="45.81631460981669" lon="9.8841212616368"><ele>584.0</ele><time>2026-04-03T16:04:20.961Z</time></trkpt><trkpt lat="45.81633388680432" lon="9.884028875902741"><ele>584.0</ele><time>2026-04-03T16:04:21.961Z</time></trkpt><trkpt lat="45.81635875010961" lon="9.883925664850372"><ele>580.7142857142857</ele><time>2026-04-03T16:04:22.961Z</time></trkpt><trkpt lat="45.816393960286696" lon="9.883808706402275"><ele>577.4285714285714</ele><time>2026-04-03T16:04:23.961Z</time></trkpt><trkpt lat="45.816418225986" lon="9.883713778137702"><ele>574.1428571428571</ele><time>2026-04-03T16:04:24.961Z</time></trkpt><trkpt lat="45.81644980214896" lon="9.88362905616322"><ele>570.8571428571429</ele><time>2026-04-03T16:04:25.961Z</time></trkpt><trkpt lat="45.81649299875448" lon="9.883562388783888"><ele>567.5714285714286</ele><time>2026-04-03T16:04:26.961Z</time></trkpt><trkpt lat="45.81655634667094" lon="9.883511600825848"><ele>564.2857142857142</ele><time>2026-04-03T16:04:27.961Z</time></trkpt><trkpt lat="45.81663173758371" lon="9.883460324771196"><ele>561.0</ele><time>2026-04-03T16:04:28.961Z</time></trkpt><trkpt lat="45.81668895578052" lon="9.88341615485856"><ele>560.3333333333334</ele><time>2026-04-03T16:04:29.961Z</time></trkpt><trkpt lat="45.816778933714275" lon="9.88334513115729"><ele>559.6666666666666</ele><time>2026-04-03T16:04:31.961Z</time></trkpt><trkpt lat="45.81684831858196" lon="9.883307245933679"><ele>559.0</ele><time>2026-04-03T16:04:33.961Z</time></trkpt><trkpt lat="45.816923763611044" lon="9.883293405200392"><ele>558.3333333333333</ele><time>2026-04-03T16:04:36.961Z</time></trkpt><trkpt lat="45.81695888187729" lon="9.883181029702154"><ele>557.6666666666666</ele><time>2026-04-03T16:04:50.961Z</time></trkpt><trkpt lat="45.816955686090374" lon="9.883050259450155"><ele>557.0</ele><time>2026-04-03T16:04:52.961Z</time></trkpt><trkpt lat="45.81692699669492" lon="9.882956710244223"><ele>557.0</ele><time>2026-04-03T16:04:53.961Z</time></trkpt><trkpt lat="45.81688298017773" lon="9.882818180482499"><ele>557.0</ele><time>2026-04-03T16:04:54.961Z</time></trkpt><trkpt lat="45.81682701106527" lon="9.882638373952686"><ele>557.0</ele><time>2026-04-03T16:04:55.961Z</time></trkpt><trkpt lat="45.81676268718758" lon="9.882492401864637"><ele>557.0</ele><time>2026-04-03T16:04:56.961Z</time></trkpt><trkpt lat="45.81668913465736" lon="9.882358940276273"><ele>555.2</ele><time>2026-04-03T16:04:57.961Z</time></trkpt><trkpt lat="45.81663804515303" lon="9.882226928444636"><ele>553.4000000000001</ele><time>2026-04-03T16:04:58.961Z</time></trkpt><trkpt lat="45.81661323425342" lon="9.882101133703088"><ele>551.5999999999999</ele><time>2026-04-03T16:04:59.961Z</time></trkpt><trkpt lat="45.81658141622735" lon="9.88194041214097"><ele>549.8</ele><time>2026-04-03T16:05:00.961Z</time></trkpt><trkpt lat="45.81655903506001" lon="9.881764123190901"><ele>548.0</ele><time>2026-04-03T16:05:01.961Z</time></trkpt><trkpt lat="45.816531304146864" lon="9.881572978813738"><ele>548.0</ele><time>2026-04-03T16:05:02.961Z</time></trkpt><trkpt lat="45.81651086841214" lon="9.881394152275362"><ele>548.0</ele><time>2026-04-03T16:05:03.961Z</time></trkpt><trkpt lat="45.81651108308246" lon="9.881222491916166"><ele>548.0</ele><time>2026-04-03T16:05:04.961Z</time></trkpt><trkpt lat="45.81651033601535" lon="9.881065089628954"><ele>548.0</ele><time>2026-04-03T16:05:05.961Z</time></trkpt><trkpt lat="45.816477040064775" lon="9.880917354071949"><ele>550.1999999999999</ele><time>2026-04-03T16:05:06.961Z</time></trkpt><trkpt lat="45.816438186846156" lon="9.880758285774474"><ele>552.4</ele><time>2026-04-03T16:05:07.961Z</time></trkpt><trkpt lat="45.816416277645025" lon="9.880586272642025"><ele>554.5999999999999</ele><time>2026-04-03T16:05:08.961Z</time></trkpt><trkpt lat="45.8163867489147" lon="9.8804380407068"><ele>556.8</ele><time>2026-04-03T16:05:09.961Z</time></trkpt><trkpt lat="45.81635772943325" lon="9.880307286980928"><ele>559.0</ele><time>2026-04-03T16:05:10.961Z</time></trkpt><trkpt lat="45.81633698159535" lon="9.880178506993277"><ele>559.6666666666667</ele><time>2026-04-03T16:05:11.961Z</time></trkpt><trkpt lat="45.81631776567139" lon="9.880058280522562"><ele>560.3333333333334</ele><time>2026-04-03T16:05:12.961Z</time></trkpt><trkpt lat="45.816290462677095" lon="9.87996568374079"><ele>561.0</ele><time>2026-04-03T16:05:13.961Z</time></trkpt><trkpt lat="45.81626682488366" lon="9.879877107110696"><ele>561.6666666666666</ele><time>2026-04-03T16:05:14.961Z</time></trkpt><trkpt lat="45.81625960761767" lon="9.879734616709268"><ele>562.3333333333333</ele><time>2026-04-03T16:05:16.961Z</time></trkpt><trkpt lat="45.8162267866317" lon="9.879656320342338"><ele>563.0</ele><time>2026-04-03T16:05:18.961Z</time></trkpt><trkpt lat="45.81620555304494" lon="9.879477480047916"><ele>563.0</ele><time>2026-04-03T16:05:20.961Z</time></trkpt><trkpt lat="45.81623012551173" lon="9.879307800277966"><ele>563.0</ele><time>2026-04-03T16:05:21.961Z</time></trkpt><trkpt lat="45.81624778146251" lon="9.879119835557546"><ele>563.0</ele><time>2026-04-03T16:05:22.961Z</time></trkpt><trkpt lat="45.81623102423054" lon="9.8789409731472"><ele>563.0</ele><time>2026-04-03T16:05:23.968Z</time></trkpt><trkpt lat="45.816214536556394" lon="9.878771058795833"><ele>562.0</ele><time>2026-04-03T16:05:24.968Z</time></trkpt><trkpt lat="45.81621908910776" lon="9.878613648202387"><ele>561.0</ele><time>2026-04-03T16:05:25.968Z</time></trkpt><trkpt lat="45.81624385644687" lon="9.87850188159059"><ele>560.0</ele><time>2026-04-03T16:05:26.968Z</time></trkpt><trkpt lat="45.816277109880424" lon="9.878413926364368"><ele>559.0</ele><time>2026-04-03T16:05:27.968Z</time></trkpt><trkpt lat="45.81631242459221" lon="9.878282681775076"><ele>558.0</ele><time>2026-04-03T16:05:29.968Z</time></trkpt><trkpt lat="45.81625869234386" lon="9.878168553515225"><ele>557.1999999999999</ele><time>2026-04-03T16:05:31.968Z</time></trkpt><trkpt lat="45.816217725515" lon="9.878075312058343"><ele>556.4</ele><time>2026-04-03T16:05:33.968Z</time></trkpt><trkpt lat="45.81617252812422" lon="9.877928232834398"><ele>555.5999999999999</ele><time>2026-04-03T16:05:36.968Z</time></trkpt><trkpt lat="45.816141093734664" lon="9.87784101105928"><ele>554.8</ele><time>2026-04-03T16:05:38.968Z</time></trkpt><trkpt lat="45.81605644745925" lon="9.877742010012712"><ele>554.0</ele><time>2026-04-03T16:05:40.968Z</time></trkpt><trkpt lat="45.81598839686058" lon="9.877668146930773"><ele>551.0</ele><time>2026-04-03T16:05:41.968Z</time></trkpt><trkpt lat="45.81592043755344" lon="9.877577221912578"><ele>548.0</ele><time>2026-04-03T16:05:42.968Z</time></trkpt><trkpt lat="45.8158736262245" lon="9.877471797385791"><ele>545.0</ele><time>2026-04-03T16:05:43.968Z</time></trkpt><trkpt lat="45.815856976710016" lon="9.877312239410234"><ele>542.0</ele><time>2026-04-03T16:05:44.968Z</time></trkpt><trkpt lat="45.81584957044225" lon="9.877157286515374"><ele>539.0</ele><time>2026-04-03T16:05:45.968Z</time></trkpt><trkpt lat="45.81582432601502" lon="9.877010098500694"><ele>539.0</ele><time>2026-04-03T16:05:46.968Z</time></trkpt><trkpt lat="45.81579467883198" lon="9.876871357212906"><ele>539.0</ele><time>2026-04-03T16:05:47.968Z</time></trkpt><trkpt lat="45.81575799216589" lon="9.876741962938507"><ele>539.0</ele><time>2026-04-03T16:05:48.968Z</time></trkpt><trkpt lat="45.8157165257381" lon="9.876629791054196"><ele>539.0</ele><time>2026-04-03T16:05:49.968Z</time></trkpt><trkpt lat="45.81565936933614" lon="9.876538508036276"><ele>539.0</ele><time>2026-04-03T16:05:50.968Z</time></trkpt><trkpt lat="45.81558049786632" lon="9.876446977526024"><ele>539.8</ele><time>2026-04-03T16:05:51.968Z</time></trkpt><trkpt lat="45.81549057080727" lon="9.876337984944339"><ele>540.5999999999999</ele><time>2026-04-03T16:05:52.968Z</time></trkpt><trkpt lat="45.815381343864004" lon="9.87624048612176"><ele>541.4</ele><time>2026-04-03T16:05:53.968Z</time></trkpt><trkpt lat="45.81529225129275" lon="9.876157710275946"><ele>542.1999999999999</ele><time>2026-04-03T16:05:54.968Z</time></trkpt><trkpt lat="45.81521538648908" lon="9.876082205623307"><ele>543.0</ele><time>2026-04-03T16:05:55.968Z</time></trkpt><trkpt lat="45.8151496177545" lon="9.876006206105604"><ele>540.0</ele><time>2026-04-03T16:05:56.968Z</time></trkpt><trkpt lat="45.81508521388864" lon="9.875916056384941"><ele>537.0</ele><time>2026-04-03T16:05:57.968Z</time></trkpt><trkpt lat="45.81506895494504" lon="9.875787500758351"><ele>534.0</ele><time>2026-04-03T16:05:58.968Z</time></trkpt><trkpt lat="45.815077390077754" lon="9.875647969532375"><ele>531.0</ele><time>2026-04-03T16:05:59.968Z</time></trkpt><trkpt lat="45.81508339583439" lon="9.875477011537667"><ele>528.0</ele><time>2026-04-03T16:06:00.968Z</time></trkpt><trkpt lat="45.8150916498302" lon="9.87531675131718"><ele>528.0</ele><time>2026-04-03T16:06:01.968Z</time></trkpt><trkpt lat="45.815104688654216" lon="9.875170758519925"><ele>528.0</ele><time>2026-04-03T16:06:02.968Z</time></trkpt><trkpt lat="45.81513932936066" lon="9.875032824682265"><ele>528.0</ele><time>2026-04-03T16:06:03.968Z</time></trkpt><trkpt lat="45.81518839987087" lon="9.874886781367819"><ele>528.0</ele><time>2026-04-03T16:06:04.968Z</time></trkpt><trkpt lat="45.81524548595584" lon="9.874736993225422"><ele>528.0</ele><time>2026-04-03T16:06:05.969Z</time></trkpt><trkpt lat="45.81528872312517" lon="9.874594735302528"><ele>527.5</ele><time>2026-04-03T16:06:06.969Z</time></trkpt><trkpt lat="45.81532027066339" lon="9.87442260739188"><ele>527.0</ele><time>2026-04-03T16:06:07.969Z</time></trkpt><trkpt lat="45.81533514172771" lon="9.874209790529862"><ele>526.5</ele><time>2026-04-03T16:06:08.969Z</time></trkpt><trkpt lat="45.81535920787192" lon="9.874016146585815"><ele>526.0</ele><time>2026-04-03T16:06:09.969Z</time></trkpt><trkpt lat="45.81536333157975" lon="9.873832828192562"><ele>526.0</ele><time>2026-04-03T16:06:10.969Z</time></trkpt><trkpt lat="45.815389779608005" lon="9.873659440667673"><ele>526.0</ele><time>2026-04-03T16:06:11.969Z</time></trkpt><trkpt lat="45.815425646666256" lon="9.873481440129636"><ele>526.0</ele><time>2026-04-03T16:06:12.969Z</time></trkpt><trkpt lat="45.81549251848047" lon="9.873319736047657"><ele>526.0</ele><time>2026-04-03T16:06:13.969Z</time></trkpt><trkpt lat="45.81555727319858" lon="9.873153343136535"><ele>525.0</ele><time>2026-04-03T16:06:14.969Z</time></trkpt><trkpt lat="45.81563389721984" lon="9.87295015702798"><ele>524.0</ele><time>2026-04-03T16:06:15.969Z</time></trkpt><trkpt lat="45.81570276805589" lon="9.872750672529566"><ele>523.0</ele><time>2026-04-03T16:06:16.969Z</time></trkpt><trkpt lat="45.815753345775285" lon="9.872547474214553"><ele>523.75</ele><time>2026-04-03T16:06:17.969Z</time></trkpt><trkpt lat="45.81584349928332" lon="9.872375672668092"><ele>524.5</ele><time>2026-04-03T16:06:18.969Z</time></trkpt><trkpt lat="45.81591613001535" lon="9.872199802322793"><ele>525.25</ele><time>2026-04-03T16:06:19.969Z</time></trkpt><trkpt lat="45.81600007146062" lon="9.87203930763349"><ele>526.0</ele><time>2026-04-03T16:06:20.969Z</time></trkpt><trkpt lat="45.81607545064484" lon="9.871912757422175"><ele>525.75</ele><time>2026-04-03T16:06:21.969Z</time></trkpt><trkpt lat="45.81615736990434" lon="9.87177327856198"><ele>525.5</ele><time>2026-04-03T16:06:22.969Z</time></trkpt><trkpt lat="45.81621404816715" lon="9.871628112664308"><ele>525.25</ele><time>2026-04-03T16:06:23.969Z</time></trkpt><trkpt lat="45.81626158036215" lon="9.871479461469493"><ele>525.0</ele><time>2026-04-03T16:06:24.969Z</time></trkpt><trkpt lat="45.816288702535026" lon="9.871323180612581"><ele>525.0</ele><time>2026-04-03T16:06:25.969Z</time></trkpt><trkpt lat="45.81630423758144" lon="9.87115865789756"><ele>525.0</ele><time>2026-04-03T16:06:26.969Z</time></trkpt><trkpt lat="45.816307155850225" lon="9.870952346869473"><ele>525.0</ele><time>2026-04-03T16:06:27.969Z</time></trkpt><trkpt lat="45.81633486685848" lon="9.870763838966774"><ele>525.0</ele><time>2026-04-03T16:06:28.969Z</time></trkpt><trkpt lat="45.816349179437324" lon="9.87058800236605"><ele>524.1666666666666</ele><time>2026-04-03T16:06:29.969Z</time></trkpt><trkpt lat="45.81635982199931" lon="9.870433558075584"><ele>523.3333333333334</ele><time>2026-04-03T16:06:30.969Z</time></trkpt><trkpt lat="45.816366039815435" lon="9.870317241219418"><ele>522.5</ele><time>2026-04-03T16:06:31.969Z</time></trkpt><trkpt lat="45.81635885222008" lon="9.87020492885241"><ele>521.6666666666667</ele><time>2026-04-03T16:06:32.969Z</time></trkpt><trkpt lat="45.816296954721174" lon="9.870135558588474"><ele>520.8333333333334</ele><time>2026-04-03T16:06:33.969Z</time></trkpt><trkpt lat="45.81627264461216" lon="9.870040958832295"><ele>520.0</ele><time>2026-04-03T16:06:34.969Z</time></trkpt><trkpt lat="45.81620908918304" lon="9.869929993622126"><ele>520.0</ele><time>2026-04-03T16:06:36.969Z</time></trkpt><trkpt lat="45.816419086767915" lon="9.869632481943578"><ele>520.0</ele><time>2026-04-03T16:06:37.969Z</time></trkpt><trkpt lat="45.81634394645025" lon="9.869572311205513"><ele>520.0</ele><time>2026-04-03T16:06:38.969Z</time></trkpt><trkpt lat="45.81625553766018" lon="9.869529616791658"><ele>520.0</ele><time>2026-04-03T16:06:39.969Z</time></trkpt><trkpt lat="45.81620643178516" lon="9.869444182840343"><ele>520.0</ele><time>2026-04-03T16:06:40.969Z</time></trkpt><trkpt lat="45.816152971440424" lon="9.869380385083879"><ele>520.0</ele><time>2026-04-03T16:06:44.969Z</time></trkpt><trkpt lat="45.81621181196243" lon="9.86926418482495"><ele>520.0</ele><time>2026-04-03T16:06:45.969Z</time></trkpt><trkpt lat="45.81628121014348" lon="9.86913408977902"><ele>520.0</ele><time>2026-04-03T16:06:46.969Z</time></trkpt><trkpt lat="45.81635573175741" lon="9.869006058423903"><ele>520.0</ele><time>2026-04-03T16:06:47.969Z</time></trkpt><trkpt lat="45.81643693830412" lon="9.86888314546751"><ele>520.0</ele><time>2026-04-03T16:06:48.969Z</time></trkpt><trkpt lat="45.816525245705776" lon="9.868796742836382"><ele>520.0</ele><time>2026-04-03T16:06:49.969Z</time></trkpt><trkpt lat="45.816583317392556" lon="9.868716425576803"><ele>520.0</ele><time>2026-04-03T16:06:50.969Z</time></trkpt><trkpt lat="45.81663824378288" lon="9.868622107671314"><ele>520.0</ele><time>2026-04-03T16:06:51.969Z</time></trkpt><trkpt lat="45.81669521404355" lon="9.868551508294853"><ele>520.0</ele><time>2026-04-03T16:06:52.969Z</time></trkpt><trkpt lat="45.81674176293127" lon="9.868490559596053"><ele>520.0</ele><time>2026-04-03T16:06:55.969Z</time></trkpt><trkpt lat="45.8168802322891" lon="9.868540318362617"><ele>520.0</ele><time>2026-04-03T16:06:56.969Z</time></trkpt><trkpt lat="45.81692819497884" lon="9.868613478634622"><ele>520.0</ele><time>2026-04-03T16:06:57.969Z</time></trkpt><trkpt lat="45.81694154780372" lon="9.868715821612806"><ele>520.0</ele><time>2026-04-03T16:06:58.969Z</time></trkpt><trkpt lat="45.81703684875073" lon="9.868801023474024"><ele>522.1666666666667</ele><time>2026-04-03T16:07:00.969Z</time></trkpt><trkpt lat="45.81710943117515" lon="9.868786740128916"><ele>524.3333333333334</ele><time>2026-04-03T16:07:01.969Z</time></trkpt><trkpt lat="45.81717872097977" lon="9.868741927430342"><ele>526.5</ele><time>2026-04-03T16:07:02.969Z</time></trkpt><trkpt lat="45.81726725244154" lon="9.868704002552722"><ele>528.6666666666666</ele><time>2026-04-03T16:07:03.969Z</time></trkpt><trkpt lat="45.817356081341146" lon="9.868659615830335"><ele>530.8333333333333</ele><time>2026-04-03T16:07:04.969Z</time></trkpt><trkpt lat="45.81745766284077" lon="9.868618617662676"><ele>533.0</ele><time>2026-04-03T16:07:05.969Z</time></trkpt><trkpt lat="45.81754883934932" lon="9.868546574755678"><ele>533.0</ele><time>2026-04-03T16:07:06.969Z</time></trkpt><trkpt lat="45.817630691493505" lon="9.86846847611853"><ele>533.0</ele><time>2026-04-03T16:07:07.969Z</time></trkpt><trkpt lat="45.817703570397505" lon="9.868360527089333"><ele>533.0</ele><time>2026-04-03T16:07:08.969Z</time></trkpt><trkpt lat="45.81775609042301" lon="9.868195208701517"><ele>533.0</ele><time>2026-04-03T16:07:09.969Z</time></trkpt><trkpt lat="45.817784363980294" lon="9.86804480925802"><ele>533.0</ele><time>2026-04-03T16:07:10.969Z</time></trkpt><trkpt lat="45.81784931550477" lon="9.867899409400202"><ele>534.75</ele><time>2026-04-03T16:07:11.969Z</time></trkpt><trkpt lat="45.81791636698228" lon="9.867755320379041"><ele>536.5</ele><time>2026-04-03T16:07:12.969Z</time></trkpt><trkpt lat="45.81798311653361" lon="9.867607762125582"><ele>538.25</ele><time>2026-04-03T16:07:13.969Z</time></trkpt><trkpt lat="45.81805915635556" lon="9.867471990497837"><ele>540.0</ele><time>2026-04-03T16:07:14.969Z</time></trkpt><trkpt lat="45.81813061374785" lon="9.867351425131218"><ele>540.0</ele><time>2026-04-03T16:07:15.969Z</time></trkpt><trkpt lat="45.81818617695616" lon="9.867258580105956"><ele>540.0</ele><time>2026-04-03T16:07:16.969Z</time></trkpt><trkpt lat="45.81823509937679" lon="9.867186216754886"><ele>540.0</ele><time>2026-04-03T16:07:17.969Z</time></trkpt><trkpt lat="45.818277282040256" lon="9.867118244695233"><ele>540.0</ele><time>2026-04-03T16:07:18.969Z</time></trkpt><trkpt lat="45.818319386677764" lon="9.867047656383729"><ele>540.0</ele><time>2026-04-03T16:07:19.969Z</time></trkpt><trkpt lat="45.81837009065419" lon="9.866940250620369"><ele>540.0</ele><time>2026-04-03T16:07:20.969Z</time></trkpt><trkpt lat="45.81846283301113" lon="9.866867558520637"><ele>542.25</ele><time>2026-04-03T16:07:21.969Z</time></trkpt><trkpt lat="45.818537156907524" lon="9.86675301153131"><ele>544.5</ele><time>2026-04-03T16:07:22.969Z</time></trkpt><trkpt lat="45.818608360373" lon="9.86660108285429"><ele>546.75</ele><time>2026-04-03T16:07:23.969Z</time></trkpt><trkpt lat="45.81866895643378" lon="9.86643254679191"><ele>549.0</ele><time>2026-04-03T16:07:24.969Z</time></trkpt><trkpt lat="45.818711191342544" lon="9.866236671662202"><ele>549.0</ele><time>2026-04-03T16:07:25.969Z</time></trkpt><trkpt lat="45.8187465390162" lon="9.866066171446734"><ele>549.0</ele><time>2026-04-03T16:07:26.969Z</time></trkpt><trkpt lat="45.81879629081374" lon="9.865903710312546"><ele>549.0</ele><time>2026-04-03T16:07:27.969Z</time></trkpt><trkpt lat="45.818831688028375" lon="9.86576261634865"><ele>549.0</ele><time>2026-04-03T16:07:28.975Z</time></trkpt><trkpt lat="45.81887302514877" lon="9.865624237671572"><ele>547.0</ele><time>2026-04-03T16:07:29.975Z</time></trkpt><trkpt lat="45.818911644915026" lon="9.865495789531606"><ele>545.0</ele><time>2026-04-03T16:07:30.975Z</time></trkpt><trkpt lat="45.818945464645886" lon="9.865357403753631"><ele>543.0</ele><time>2026-04-03T16:07:31.975Z</time></trkpt><trkpt lat="45.81897522091494" lon="9.865213838929252"><ele>541.0</ele><time>2026-04-03T16:07:32.975Z</time></trkpt><trkpt lat="45.81900377778408" lon="9.865063587598575"><ele>539.0</ele><time>2026-04-03T16:07:33.975Z</time></trkpt><trkpt lat="45.819023087372464" lon="9.864892492563643"><ele>536.8333333333333</ele><time>2026-04-03T16:07:34.975Z</time></trkpt><trkpt lat="45.81901399043574" lon="9.864728733521298"><ele>534.6666666666666</ele><time>2026-04-03T16:07:35.975Z</time></trkpt><trkpt lat="45.81900343005803" lon="9.864587998776408"><ele>532.5</ele><time>2026-04-03T16:07:36.975Z</time></trkpt><trkpt lat="45.81898846326982" lon="9.864467435298288"><ele>530.3333333333334</ele><time>2026-04-03T16:07:37.975Z</time></trkpt><trkpt lat="45.81899707086321" lon="9.864360113001219"><ele>528.1666666666667</ele><time>2026-04-03T16:07:38.975Z</time></trkpt><trkpt lat="45.819029520968094" lon="9.86427370219202"><ele>526.0</ele><time>2026-04-03T16:07:39.975Z</time></trkpt><trkpt lat="45.819109887582094" lon="9.86416087255895"><ele>523.6</ele><time>2026-04-03T16:07:41.975Z</time></trkpt><trkpt lat="45.8191485821812" lon="9.86408555543531"><ele>521.2</ele><time>2026-04-03T16:07:43.975Z</time></trkpt><trkpt lat="45.81923034220705" lon="9.863987429353552"><ele>518.8</ele><time>2026-04-03T16:07:46.975Z</time></trkpt><trkpt lat="45.819299945986124" lon="9.863919682486552"><ele>516.4</ele><time>2026-04-03T16:07:48.975Z</time></trkpt><trkpt lat="45.81934959633619" lon="9.863834245979804"><ele>514.0</ele><time>2026-04-03T16:07:50.975Z</time></trkpt><trkpt lat="45.81919821102626" lon="9.863657378424803"><ele>514.0</ele><time>2026-04-03T16:07:55.975Z</time></trkpt><trkpt lat="45.819121312959666" lon="9.863541765080148"><ele>514.0</ele><time>2026-04-03T16:07:56.975Z</time></trkpt><trkpt lat="45.819035242292756" lon="9.863466405405369"><ele>514.0</ele><time>2026-04-03T16:07:57.975Z</time></trkpt><trkpt lat="45.818954452603464" lon="9.86338099038669"><ele>514.0</ele><time>2026-04-03T16:07:58.975Z</time></trkpt><trkpt lat="45.8188764720011" lon="9.86329899845829"><ele>514.0</ele><time>2026-04-03T16:07:59.975Z</time></trkpt><trkpt lat="45.81878550697909" lon="9.8632186952565"><ele>511.6</ele><time>2026-04-03T16:08:00.975Z</time></trkpt><trkpt lat="45.81867724139691" lon="9.863137054718782"><ele>509.2</ele><time>2026-04-03T16:08:01.975Z</time></trkpt><trkpt lat="45.818575678076286" lon="9.86306483603044"><ele>506.80000000000007</ele><time>2026-04-03T16:08:02.975Z</time></trkpt><trkpt lat="45.81847960302701" lon="9.863005214918157"><ele>504.40000000000003</ele><time>2026-04-03T16:08:03.975Z</time></trkpt><trkpt lat="45.818399704877606" lon="9.86294881837323"><ele>502.0</ele><time>2026-04-03T16:08:04.975Z</time></trkpt><trkpt lat="45.81833258190012" lon="9.86290593660408"><ele>502.00000000000006</ele><time>2026-04-03T16:08:05.975Z</time></trkpt><trkpt lat="45.81826480410519" lon="9.862850606678398"><ele>502.0</ele><time>2026-04-03T16:08:06.975Z</time></trkpt><trkpt lat="45.81820360965959" lon="9.862826954177477"><ele>502.0</ele><time>2026-04-03T16:08:07.975Z</time></trkpt><trkpt lat="45.818123218586464" lon="9.862821292851201"><ele>502.0</ele><time>2026-04-03T16:08:08.975Z</time></trkpt><trkpt lat="45.81804431178258" lon="9.86279864101353"><ele>502.00000000000006</ele><time>2026-04-03T16:08:09.975Z</time></trkpt><trkpt lat="45.81794723606511" lon="9.862791242971015"><ele>502.0</ele><time>2026-04-03T16:08:12.975Z</time></trkpt><trkpt lat="45.8178657442364" lon="9.862802857489745"><ele>502.00000000000006</ele><time>2026-04-03T16:08:15.975Z</time></trkpt><trkpt lat="45.817794838961866" lon="9.862784983459054"><ele>502.0</ele><time>2026-04-03T16:08:18.975Z</time></trkpt><trkpt lat="45.81771334313425" lon="9.862733697574837"><ele>502.0</ele><time>2026-04-03T16:08:53.975Z</time></trkpt><trkpt lat="45.817641431102025" lon="9.862732609620899"><ele>502.0</ele><time>2026-04-03T16:08:56.975Z</time></trkpt><trkpt lat="45.817540119877336" lon="9.862724451580833"><ele>502.00000000000006</ele><time>2026-04-03T16:08:58.975Z</time></trkpt><trkpt lat="45.817451503674185" lon="9.862693026155345"><ele>502.0</ele><time>2026-04-03T16:08:59.975Z</time></trkpt><trkpt lat="45.81737865831363" lon="9.862691447592168"><ele>502.1666666666667</ele><time>2026-04-03T16:09:00.975Z</time></trkpt><trkpt lat="45.81731014837658" lon="9.86268586514915"><ele>502.33333333333337</ele><time>2026-04-03T16:09:01.975Z</time></trkpt><trkpt lat="45.81721496977167" lon="9.862697507807226"><ele>502.5</ele><time>2026-04-03T16:09:03.975Z</time></trkpt><trkpt lat="45.81714853184853" lon="9.862703263168951"><ele>502.66666666666663</ele><time>2026-04-03T16:09:05.975Z</time></trkpt><trkpt lat="45.81708265250877" lon="9.862674904671366"><ele>502.8333333333333</ele><time>2026-04-03T16:09:08.975Z</time></trkpt><trkpt lat="45.81695177600908" lon="9.862713798964776"><ele>503.0</ele><time>2026-04-03T16:10:47.982Z</time></trkpt><trkpt lat="45.8168936915404" lon="9.862667742276804"><ele>503.0</ele><time>2026-04-03T16:15:26.997Z</time></trkpt><trkpt lat="45.816810488639234" lon="9.862722914038635"><ele>503.0</ele><time>2026-04-03T16:15:28.997Z</time></trkpt><trkpt lat="45.81682642959733" lon="9.862840468075946"><ele>503.0</ele><time>2026-04-03T16:15:30.997Z</time></trkpt><trkpt lat="45.81664332027884" lon="9.862857253336779"><ele>503.0</ele><time>2026-04-03T16:15:32.997Z</time></trkpt><trkpt lat="45.81652242924011" lon="9.86291654423529"><ele>500.79999999999995</ele><time>2026-04-03T16:15:33.997Z</time></trkpt><trkpt lat="45.81643158653267" lon="9.862989115155225"><ele>498.59999999999997</ele><time>2026-04-03T16:15:34.997Z</time></trkpt><trkpt lat="45.81634226385597" lon="9.86304371060833"><ele>496.40000000000003</ele><time>2026-04-03T16:15:35.997Z</time></trkpt><trkpt lat="45.81627031401818" lon="9.863063004395908"><ele>494.20000000000005</ele><time>2026-04-03T16:15:36.997Z</time></trkpt><trkpt lat="45.816196809949815" lon="9.862985968605859"><ele>492.0</ele><time>2026-04-03T16:15:38.997Z</time></trkpt><trkpt lat="45.816337863119614" lon="9.862896946330176"><ele>492.0</ele><time>2026-04-03T16:15:42.997Z</time></trkpt><trkpt lat="45.81648459875229" lon="9.862731221851229"><ele>492.0</ele><time>2026-04-03T16:15:43.997Z</time></trkpt><trkpt lat="45.816607183234346" lon="9.862630637195013"><ele>492.0</ele><time>2026-04-03T16:15:44.997Z</time></trkpt><trkpt lat="45.816733726938665" lon="9.862546558889775"><ele>481.33333333333337</ele><time>2026-04-03T16:15:45.997Z</time></trkpt><trkpt lat="45.816866590333795" lon="9.862466494188173"><ele>470.6666666666667</ele><time>2026-04-03T16:15:46.997Z</time></trkpt><trkpt lat="45.81700540966417" lon="9.862398816935524"><ele>460.0</ele><time>2026-04-03T16:15:47.997Z</time></trkpt><trkpt lat="45.817157392989905" lon="9.862332487529859"><ele>460.0</ele><time>2026-04-03T16:15:48.997Z</time></trkpt><trkpt lat="45.81730154744307" lon="9.862278268104134"><ele>460.0</ele><time>2026-04-03T16:15:49.997Z</time></trkpt><trkpt lat="45.81744254405037" lon="9.862241810297379"><ele>460.0</ele><time>2026-04-03T16:15:51.003Z</time></trkpt><trkpt lat="45.81757990577823" lon="9.862186676551392"><ele>460.0</ele><time>2026-04-03T16:15:52.002Z</time></trkpt><trkpt lat="45.817701962593304" lon="9.862112665953441"><ele>461.5</ele><time>2026-04-03T16:15:53.002Z</time></trkpt><trkpt lat="45.81780778420981" lon="9.862029298005424"><ele>463.0</ele><time>2026-04-03T16:15:54.003Z</time></trkpt><trkpt lat="45.817916516471826" lon="9.861942432592741"><ele>464.5</ele><time>2026-04-03T16:15:55.003Z</time></trkpt><trkpt lat="45.81802544950913" lon="9.86185932046678"><ele>466.0</ele><time>2026-04-03T16:15:56.003Z</time></trkpt><trkpt lat="45.81811748612812" lon="9.861764542243634"><ele>459.0</ele><time>2026-04-03T16:15:57.002Z</time></trkpt><trkpt lat="45.81822884199464" lon="9.86168518306678"><ele>452.0</ele><time>2026-04-03T16:15:58.003Z</time></trkpt><trkpt lat="45.81834590010343" lon="9.86161941410116"><ele>445.0</ele><time>2026-04-03T16:15:59.003Z</time></trkpt><trkpt lat="45.81846258679375" lon="9.861563774301246"><ele>438.0</ele><time>2026-04-03T16:16:00.002Z</time></trkpt><trkpt lat="45.81857693376408" lon="9.861522240210371"><ele>438.0</ele><time>2026-04-03T16:16:01.002Z</time></trkpt><trkpt lat="45.8187167240738" lon="9.861513468011756"><ele>438.0</ele><time>2026-04-03T16:16:02.002Z</time></trkpt><trkpt lat="45.81884641085866" lon="9.86150614133306"><ele>438.0</ele><time>2026-04-03T16:16:03.003Z</time></trkpt><trkpt lat="45.81896702098376" lon="9.86148533041706"><ele>438.0</ele><time>2026-04-03T16:16:04.003Z</time></trkpt><trkpt lat="45.819081363071476" lon="9.861456016136437"><ele>438.0</ele><time>2026-04-03T16:16:05.003Z</time></trkpt><trkpt lat="45.819192755633736" lon="9.861426842539741"><ele>438.0</ele><time>2026-04-03T16:16:06.003Z</time></trkpt><trkpt lat="45.819284673045665" lon="9.86142420549579"><ele>438.0</ele><time>2026-04-03T16:16:07.003Z</time></trkpt><trkpt lat="45.81936153612977" lon="9.861409952419423"><ele>438.0</ele><time>2026-04-03T16:16:08.003Z</time></trkpt><trkpt lat="45.819405852063156" lon="9.861333139166948"><ele>438.0</ele><time>2026-04-03T16:16:09.003Z</time></trkpt><trkpt lat="45.819392287016235" lon="9.861206888575435"><ele>438.0</ele><time>2026-04-03T16:16:11.003Z</time></trkpt><trkpt lat="45.8192838778506" lon="9.861237971857504"><ele>438.0</ele><time>2026-04-03T16:16:13.003Z</time></trkpt><trkpt lat="45.81915991312016" lon="9.861256084439338"><ele>438.0</ele><time>2026-04-03T16:16:14.003Z</time></trkpt><trkpt lat="45.81902204440258" lon="9.861242085128902"><ele>438.0</ele><time>2026-04-03T16:16:15.003Z</time></trkpt><trkpt lat="45.818885229880216" lon="9.86122955657591"><ele>438.0</ele><time>2026-04-03T16:16:16.003Z</time></trkpt><trkpt lat="45.8187364679976" lon="9.861213828806768"><ele>438.0</ele><time>2026-04-03T16:16:17.003Z</time></trkpt><trkpt lat="45.81860413422437" lon="9.861213513349998"><ele>438.0</ele><time>2026-04-03T16:16:18.003Z</time></trkpt><trkpt lat="45.818479709613186" lon="9.861218083231622"><ele>438.0</ele><time>2026-04-03T16:16:19.003Z</time></trkpt><trkpt lat="45.818363712039904" lon="9.861222460236807"><ele>438.0</ele><time>2026-04-03T16:16:20.003Z</time></trkpt><trkpt lat="45.818269455952986" lon="9.861237584570596"><ele>436.8333333333333</ele><time>2026-04-03T16:16:21.003Z</time></trkpt><trkpt lat="45.818191089806575" lon="9.861261529023746"><ele>435.66666666666663</ele><time>2026-04-03T16:16:22.003Z</time></trkpt><trkpt lat="45.81812434035396" lon="9.861268041881981"><ele>434.5</ele><time>2026-04-03T16:16:23.003Z</time></trkpt><trkpt lat="45.81807680367376" lon="9.861184871276231"><ele>433.3333333333333</ele><time>2026-04-03T16:16:25.003Z</time></trkpt><trkpt lat="45.81812276343492" lon="9.861080535100532"><ele>432.16666666666663</ele><time>2026-04-03T16:16:28.003Z</time></trkpt><trkpt lat="45.81817830690456" lon="9.86100508801826"><ele>431.0</ele><time>2026-04-03T16:16:29.003Z</time></trkpt><trkpt lat="45.818201207873514" lon="9.860903730088951"><ele>427.16666666666663</ele><time>2026-04-03T16:16:30.003Z</time></trkpt><trkpt lat="45.81819559665266" lon="9.860784797182292"><ele>423.3333333333333</ele><time>2026-04-03T16:16:31.003Z</time></trkpt><trkpt lat="45.81816980413432" lon="9.86068544894971"><ele>419.5</ele><time>2026-04-03T16:16:32.003Z</time></trkpt><trkpt lat="45.81810522274951" lon="9.860626853014024"><ele>415.66666666666663</ele><time>2026-04-03T16:16:33.003Z</time></trkpt><trkpt lat="45.818029061410215" lon="9.860574465616931"><ele>411.8333333333333</ele><time>2026-04-03T16:16:34.003Z</time></trkpt><trkpt lat="45.81792372749883" lon="9.860556494722204"><ele>408.0</ele><time>2026-04-03T16:16:35.003Z</time></trkpt><trkpt lat="45.81780802058794" lon="9.860543606373378"><ele>408.0</ele><time>2026-04-03T16:16:36.003Z</time></trkpt><trkpt lat="45.81769617074149" lon="9.860495101612793"><ele>408.0</ele><time>2026-04-03T16:16:37.003Z</time></trkpt><trkpt lat="45.817586939596076" lon="9.860451882607288"><ele>408.0</ele><time>2026-04-03T16:16:38.003Z</time></trkpt><trkpt lat="45.817475515103155" lon="9.8604258921162"><ele>408.0</ele><time>2026-04-03T16:16:39.003Z</time></trkpt><trkpt lat="45.81736753440483" lon="9.860415845640016"><ele>407.1666666666667</ele><time>2026-04-03T16:16:40.003Z</time></trkpt><trkpt lat="45.81727217451586" lon="9.860413482880126"><ele>406.33333333333337</ele><time>2026-04-03T16:16:41.003Z</time></trkpt><trkpt lat="45.81717539734339" lon="9.860406302062989"><ele>405.5</ele><time>2026-04-03T16:16:42.003Z</time></trkpt><trkpt lat="45.817084853944635" lon="9.860399789464815"><ele>404.6666666666667</ele><time>2026-04-03T16:16:43.003Z</time></trkpt><trkpt lat="45.81699540430384" lon="9.860395877628365"><ele>403.83333333333337</ele><time>2026-04-03T16:16:44.003Z</time></trkpt><trkpt lat="45.816929565828126" lon="9.860405227583588"><ele>403.0</ele><time>2026-04-03T16:16:45.003Z</time></trkpt><trkpt lat="45.81684203506564" lon="9.860412552808901"><ele>402.5</ele><time>2026-04-03T16:16:49.003Z</time></trkpt><trkpt lat="45.81677379154452" lon="9.860406734374862"><ele>402.0</ele><time>2026-04-03T16:16:50.003Z</time></trkpt><trkpt lat="45.8166558063661" lon="9.860382497962187"><ele>401.5</ele><time>2026-04-03T16:16:50.935Z</time></trkpt><trkpt lat="45.816523258391335" lon="9.860367738778388"><ele>401.0</ele><time>2026-04-03T16:16:51.935Z</time></trkpt><trkpt lat="45.81638535439998" lon="9.860362597926784"><ele>401.0</ele><time>2026-04-03T16:16:52.935Z</time></trkpt><trkpt lat="45.81621982805398" lon="9.86034234496458"><ele>401.0</ele><time>2026-04-03T16:16:53.935Z</time></trkpt><trkpt lat="45.816006168839145" lon="9.860316130757013"><ele>401.0</ele><time>2026-04-03T16:16:54.935Z</time></trkpt><trkpt lat="45.81581531322836" lon="9.860317436463303"><ele>401.3333333333333</ele><time>2026-04-03T16:16:55.936Z</time></trkpt><trkpt lat="45.8156248936966" lon="9.860322342736003"><ele>401.66666666666663</ele><time>2026-04-03T16:16:56.936Z</time></trkpt><trkpt lat="45.81545917486085" lon="9.860328152091972"><ele>402.0</ele><time>2026-04-03T16:16:57.936Z</time></trkpt><trkpt lat="45.81530400900536" lon="9.860345529610644"><ele>402.0</ele><time>2026-04-03T16:16:58.936Z</time></trkpt><trkpt lat="45.815158631395846" lon="9.860330266262938"><ele>402.0</ele><time>2026-04-03T16:16:59.936Z</time></trkpt><trkpt lat="45.8150207835045" lon="9.860323164201006"><ele>402.0</ele><time>2026-04-03T16:17:00.936Z</time></trkpt><trkpt lat="45.814881536155156" lon="9.860317236114671"><ele>402.0</ele><time>2026-04-03T16:17:01.936Z</time></trkpt><trkpt lat="45.81475426656872" lon="9.860288365470856"><ele>402.40000000000003</ele><time>2026-04-03T16:17:02.936Z</time></trkpt><trkpt lat="45.81464679421997" lon="9.860252596526463"><ele>402.8</ele><time>2026-04-03T16:17:03.936Z</time></trkpt><trkpt lat="45.81456403735349" lon="9.860214638747072"><ele>403.2</ele><time>2026-04-03T16:17:04.936Z</time></trkpt><trkpt lat="45.81449082448478" lon="9.860092025467475"><ele>403.6</ele><time>2026-04-03T16:17:05.936Z</time></trkpt><trkpt lat="45.814432846457336" lon="9.8599650857559"><ele>404.0</ele><time>2026-04-03T16:17:06.936Z</time></trkpt><trkpt lat="45.81438555344791" lon="9.859835058606471"><ele>403.49999999999994</ele><time>2026-04-03T16:17:07.937Z</time></trkpt><trkpt lat="45.814350359297684" lon="9.859735382994913"><ele>403.0</ele><time>2026-04-03T16:17:08.937Z</time></trkpt><trkpt lat="45.81430137178365" lon="9.859644790818907"><ele>402.5</ele><time>2026-04-03T16:17:09.937Z</time></trkpt><trkpt lat="45.814256872374656" lon="9.859552095776646"><ele>402.0</ele><time>2026-04-03T16:17:10.937Z</time></trkpt><trkpt lat="45.81421877895682" lon="9.85947016239334"><ele>401.49999999999994</ele><time>2026-04-03T16:17:11.937Z</time></trkpt><trkpt lat="45.81412910845715" lon="9.859329433922927"><ele>401.0</ele><time>2026-04-03T16:17:13.937Z</time></trkpt><trkpt lat="45.81405213349635" lon="9.859241664164573"><ele>401.0</ele><time>2026-04-03T16:17:14.937Z</time></trkpt><trkpt lat="45.8139682284372" lon="9.859139927336276"><ele>401.0</ele><time>2026-04-03T16:17:15.937Z</time></trkpt><trkpt lat="45.813886164273065" lon="9.859045367094648"><ele>401.0</ele><time>2026-04-03T16:17:16.937Z</time></trkpt><trkpt lat="45.8138089154002" lon="9.85896010318436"><ele>401.0</ele><time>2026-04-03T16:17:17.937Z</time></trkpt><trkpt lat="45.81374070432522" lon="9.858888154417214"><ele>401.0</ele><time>2026-04-03T16:17:18.937Z</time></trkpt><trkpt lat="45.81366394921858" lon="9.858805704444313"><ele>401.0</ele><time>2026-04-03T16:17:19.937Z</time></trkpt><trkpt lat="45.81357511474515" lon="9.858724861049433"><ele>401.0</ele><time>2026-04-03T16:17:20.937Z</time></trkpt><trkpt lat="45.81348301809493" lon="9.858638609960238"><ele>401.0</ele><time>2026-04-03T16:17:21.937Z</time></trkpt><trkpt lat="45.813393035712004" lon="9.85852581779131"><ele>401.0</ele><time>2026-04-03T16:17:22.937Z</time></trkpt><trkpt lat="45.81331489914653" lon="9.858429278734578"><ele>401.0</ele><time>2026-04-03T16:17:23.937Z</time></trkpt><trkpt lat="45.81323349946725" lon="9.858331204933002"><ele>401.16666666666663</ele><time>2026-04-03T16:17:24.937Z</time></trkpt><trkpt lat="45.813178975277154" lon="9.858256378841729"><ele>401.3333333333333</ele><time>2026-04-03T16:17:25.937Z</time></trkpt><trkpt lat="45.81313187419761" lon="9.858195661642247"><ele>401.5</ele><time>2026-04-03T16:17:26.937Z</time></trkpt><trkpt lat="45.813075300225876" lon="9.858125453271274"><ele>401.66666666666663</ele><time>2026-04-03T16:17:27.937Z</time></trkpt><trkpt lat="45.81301333492669" lon="9.858049800228695"><ele>401.8333333333333</ele><time>2026-04-03T16:17:28.937Z</time></trkpt><trkpt lat="45.812948601681605" lon="9.857958663983846"><ele>402.0</ele><time>2026-04-03T16:17:29.937Z</time></trkpt><trkpt lat="45.812886683261105" lon="9.857900480508938"><ele>402.0</ele><time>2026-04-03T16:17:30.937Z</time></trkpt><trkpt lat="45.81281164474183" lon="9.857817235667472"><ele>402.0</ele><time>2026-04-03T16:17:31.937Z</time></trkpt><trkpt lat="45.812741174616434" lon="9.857729079820379"><ele>402.0</ele><time>2026-04-03T16:17:32.937Z</time></trkpt><trkpt lat="45.81265957536059" lon="9.857623968395739"><ele>402.0</ele><time>2026-04-03T16:17:33.937Z</time></trkpt><trkpt lat="45.81257697248933" lon="9.85752128146409"><ele>402.0</ele><time>2026-04-03T16:17:34.937Z</time></trkpt><trkpt lat="45.812484182378554" lon="9.857417677624184"><ele>402.20000000000005</ele><time>2026-04-03T16:17:35.937Z</time></trkpt><trkpt lat="45.81239182064215" lon="9.857292305409999"><ele>402.4</ele><time>2026-04-03T16:17:36.937Z</time></trkpt><trkpt lat="45.812285166160585" lon="9.857176011597376"><ele>402.6</ele><time>2026-04-03T16:17:37.937Z</time></trkpt><trkpt lat="45.8122008033277" lon="9.85707460517667"><ele>402.79999999999995</ele><time>2026-04-03T16:17:38.937Z</time></trkpt><trkpt lat="45.812160392530075" lon="9.856995536574045"><ele>403.0</ele><time>2026-04-03T16:17:39.937Z</time></trkpt><trkpt lat="45.81209440307544" lon="9.856951079966318"><ele>403.00000000000006</ele><time>2026-04-03T16:17:40.937Z</time></trkpt><trkpt lat="45.81203622369007" lon="9.856909883425256"><ele>403.0</ele><time>2026-04-03T16:17:41.937Z</time></trkpt><trkpt lat="45.81197255504223" lon="9.856848446656622"><ele>403.0</ele><time>2026-04-03T16:17:42.937Z</time></trkpt><trkpt lat="45.81188460804947" lon="9.856802611374462"><ele>403.0</ele><time>2026-04-03T16:17:43.937Z</time></trkpt><trkpt lat="45.81180032955603" lon="9.856743090530133"><ele>403.00000000000006</ele><time>2026-04-03T16:17:44.937Z</time></trkpt><trkpt lat="45.81173071378864" lon="9.856677629386395"><ele>403.0</ele><time>2026-04-03T16:17:45.937Z</time></trkpt><trkpt lat="45.81166354573872" lon="9.856630023934917"><ele>402.6666666666667</ele><time>2026-04-03T16:17:46.937Z</time></trkpt><trkpt lat="45.811607136489734" lon="9.856582336307293"><ele>402.33333333333337</ele><time>2026-04-03T16:17:47.937Z</time></trkpt><trkpt lat="45.8115529605511" lon="9.856529666739167"><ele>402.0</ele><time>2026-04-03T16:17:48.937Z</time></trkpt><trkpt lat="45.81149232366434" lon="9.856482863985994"><ele>401.66666666666663</ele><time>2026-04-03T16:17:49.936Z</time></trkpt><trkpt lat="45.8113979627511" lon="9.856409842261284"><ele>401.3333333333333</ele><time>2026-04-03T16:17:51.936Z</time></trkpt><trkpt lat="45.81131342416153" lon="9.856334595470583"><ele>401.0</ele><time>2026-04-03T16:17:53.936Z</time></trkpt><trkpt lat="45.81125066239416" lon="9.856285160057997"><ele>401.0</ele><time>2026-04-03T16:17:54.936Z</time></trkpt><trkpt lat="45.8111729906017" lon="9.856232093618189"><ele>401.0</ele><time>2026-04-03T16:17:55.943Z</time></trkpt><trkpt lat="45.811083739987524" lon="9.856184561894572"><ele>401.0</ele><time>2026-04-03T16:17:56.943Z</time></trkpt><trkpt lat="45.810990480384284" lon="9.856141358908065"><ele>401.0</ele><time>2026-04-03T16:17:57.943Z</time></trkpt><trkpt lat="45.810903467868" lon="9.856057855602236"><ele>401.0</ele><time>2026-04-03T16:17:58.943Z</time></trkpt><trkpt lat="45.810811813647604" lon="9.855972338012023"><ele>401.3333333333333</ele><time>2026-04-03T16:17:59.943Z</time></trkpt><trkpt lat="45.81071427294687" lon="9.855877365418793"><ele>401.66666666666663</ele><time>2026-04-03T16:18:00.943Z</time></trkpt><trkpt lat="45.810587083105354" lon="9.855753835752898"><ele>402.0</ele><time>2026-04-03T16:18:01.943Z</time></trkpt><trkpt lat="45.81040164316874" lon="9.85561682237699"><ele>402.0</ele><time>2026-04-03T16:18:02.943Z</time></trkpt><trkpt lat="45.8102132515728" lon="9.85542069484102"><ele>402.0</ele><time>2026-04-03T16:18:03.943Z</time></trkpt><trkpt lat="45.81001351777002" lon="9.85522117057726"><ele>401.66666666666663</ele><time>2026-04-03T16:18:04.943Z</time></trkpt><trkpt lat="45.80980740634653" lon="9.855050599860116"><ele>401.3333333333333</ele><time>2026-04-03T16:18:05.943Z</time></trkpt><trkpt lat="45.809636349786125" lon="9.854902830378405"><ele>401.0</ele><time>2026-04-03T16:18:06.943Z</time></trkpt><trkpt lat="45.80947110922528" lon="9.854766596266215"><ele>400.0</ele><time>2026-04-03T16:18:07.943Z</time></trkpt><trkpt lat="45.80929927219035" lon="9.854640979453302"><ele>399.0</ele><time>2026-04-03T16:18:08.944Z</time></trkpt><trkpt lat="45.809144031447524" lon="9.85451281047108"><ele>398.0</ele><time>2026-04-03T16:18:09.944Z</time></trkpt><trkpt lat="45.80898897402357" lon="9.854381826026351"><ele>398.3333333333333</ele><time>2026-04-03T16:18:10.944Z</time></trkpt><trkpt lat="45.80884438639015" lon="9.854254356899753"><ele>398.66666666666663</ele><time>2026-04-03T16:18:11.944Z</time></trkpt><trkpt lat="45.808729862001115" lon="9.854078575150869"><ele>399.0</ele><time>2026-04-03T16:18:12.944Z</time></trkpt><trkpt lat="45.808594936278254" lon="9.853961629685717"><ele>398.0</ele><time>2026-04-03T16:18:13.944Z</time></trkpt><trkpt lat="45.80846303654261" lon="9.85384730677987"><ele>397.0</ele><time>2026-04-03T16:18:14.943Z</time></trkpt><trkpt lat="45.808324019029655" lon="9.853774362909315"><ele>396.0</ele><time>2026-04-03T16:18:15.943Z</time></trkpt><trkpt lat="45.80820590810693" lon="9.853673049737106"><ele>395.0</ele><time>2026-04-03T16:18:16.943Z</time></trkpt><trkpt lat="45.80809913058145" lon="9.853574765242437"><ele>394.99999999999994</ele><time>2026-04-03T16:18:17.943Z</time></trkpt><trkpt lat="45.80800567367888" lon="9.853488579364807"><ele>395.0</ele><time>2026-04-03T16:18:18.943Z</time></trkpt><trkpt lat="45.807941479489116" lon="9.853383839712393"><ele>395.0</ele><time>2026-04-03T16:18:19.943Z</time></trkpt><trkpt lat="45.80787124937502" lon="9.85332127528435"><ele>395.0</ele><time>2026-04-03T16:18:20.943Z</time></trkpt><trkpt lat="45.80780889651866" lon="9.853265728296916"><ele>394.99999999999994</ele><time>2026-04-03T16:18:21.943Z</time></trkpt><trkpt lat="45.80774059923316" lon="9.853205917241631"><ele>395.0</ele><time>2026-04-03T16:18:23.943Z</time></trkpt><trkpt lat="45.80763624313952" lon="9.85314109022286"><ele>395.0</ele><time>2026-04-03T16:18:25.943Z</time></trkpt><trkpt lat="45.80754878161033" lon="9.853030342408136"><ele>395.0</ele><time>2026-04-03T16:18:27.943Z</time></trkpt><trkpt lat="45.807489232798446" lon="9.852981051758134"><ele>395.0</ele><time>2026-04-03T16:18:28.943Z</time></trkpt><trkpt lat="45.80746934344552" lon="9.85284285214605"><ele>395.0</ele><time>2026-04-03T16:18:29.943Z</time></trkpt><trkpt lat="45.8073586885483" lon="9.852833180537331"><ele>395.0</ele><time>2026-04-03T16:18:30.943Z</time></trkpt><trkpt lat="45.8072866918726" lon="9.852734166035736"><ele>395.0</ele><time>2026-04-03T16:18:31.943Z</time></trkpt><trkpt lat="45.80721374157781" lon="9.852633587577452"><ele>395.0</ele><time>2026-04-03T16:18:32.943Z</time></trkpt><trkpt lat="45.807145946382896" lon="9.852525989958222"><ele>395.0</ele><time>2026-04-03T16:18:33.943Z</time></trkpt><trkpt lat="45.807097059652186" lon="9.852374234577297"><ele>395.0</ele><time>2026-04-03T16:18:34.943Z</time></trkpt><trkpt lat="45.8070271123025" lon="9.852283724494967"><ele>395.0</ele><time>2026-04-03T16:18:35.943Z</time></trkpt><trkpt lat="45.80695255633862" lon="9.852184980779992"><ele>395.4</ele><time>2026-04-03T16:18:36.943Z</time></trkpt><trkpt lat="45.806880652652275" lon="9.852087598012682"><ele>395.8</ele><time>2026-04-03T16:18:37.943Z</time></trkpt><trkpt lat="45.80680625738728" lon="9.85198575291954"><ele>396.20000000000005</ele><time>2026-04-03T16:18:38.943Z</time></trkpt><trkpt lat="45.806717264641286" lon="9.85186830710424"><ele>396.6</ele><time>2026-04-03T16:18:39.943Z</time></trkpt><trkpt lat="45.806631896831625" lon="9.851749113377444"><ele>397.0</ele><time>2026-04-03T16:18:40.943Z</time></trkpt><trkpt lat="45.80655384907455" lon="9.851637629536652"><ele>396.0</ele><time>2026-04-03T16:18:41.943Z</time></trkpt><trkpt lat="45.80648504217788" lon="9.85153630120916"><ele>395.0</ele><time>2026-04-03T16:18:42.943Z</time></trkpt><trkpt lat="45.80643838894707" lon="9.851451173238134"><ele>394.0</ele><time>2026-04-03T16:18:43.943Z</time></trkpt><trkpt lat="45.8063939755862" lon="9.851332016538802"><ele>393.0</ele><time>2026-04-03T16:18:45.943Z</time></trkpt><trkpt lat="45.80646461886104" lon="9.85123077914578"><ele>392.0</ele><time>2026-04-03T16:18:46.943Z</time></trkpt><trkpt lat="45.8065517610227" lon="9.851135647547077"><ele>392.0</ele><time>2026-04-03T16:18:47.943Z</time></trkpt><trkpt lat="45.806649045079936" lon="9.851005708839018"><ele>392.0</ele><time>2026-04-03T16:18:48.943Z</time></trkpt><trkpt lat="45.80675983281459" lon="9.8508778696668"><ele>392.0</ele><time>2026-04-03T16:18:49.943Z</time></trkpt><trkpt lat="45.806858571667576" lon="9.850751055711763"><ele>392.0</ele><time>2026-04-03T16:18:50.943Z</time></trkpt><trkpt lat="45.80694550888781" lon="9.850652752665471"><ele>392.8333333333333</ele><time>2026-04-03T16:18:51.943Z</time></trkpt><trkpt lat="45.80701313137894" lon="9.85056605118969"><ele>393.66666666666663</ele><time>2026-04-03T16:18:52.943Z</time></trkpt><trkpt lat="45.80706676766151" lon="9.850503888515394"><ele>394.5</ele><time>2026-04-03T16:18:53.943Z</time></trkpt><trkpt lat="45.80713272869311" lon="9.850411419079872"><ele>395.33333333333337</ele><time>2026-04-03T16:18:55.943Z</time></trkpt><trkpt lat="45.80718016919609" lon="9.850318164947142"><ele>396.1666666666667</ele><time>2026-04-03T16:19:06.942Z</time></trkpt><trkpt lat="45.80722629027972" lon="9.850246039047127"><ele>397.0</ele><time>2026-04-03T16:19:07.942Z</time></trkpt><trkpt lat="45.80728770802621" lon="9.850149991640167"><ele>397.0</ele><time>2026-04-03T16:19:08.942Z</time></trkpt><trkpt lat="45.80736602673344" lon="9.850029724904592"><ele>397.0</ele><time>2026-04-03T16:19:09.942Z</time></trkpt><trkpt lat="45.80745876475903" lon="9.849895267775729"><ele>397.0</ele><time>2026-04-03T16:19:10.942Z</time></trkpt><trkpt lat="45.80756403611265" lon="9.849758112213491"><ele>397.0</ele><time>2026-04-03T16:19:11.942Z</time></trkpt><trkpt lat="45.807692426626744" lon="9.849636545377086"><ele>398.6666666666667</ele><time>2026-04-03T16:19:12.942Z</time></trkpt><trkpt lat="45.80784062489751" lon="9.849537355378946"><ele>400.33333333333337</ele><time>2026-04-03T16:19:13.942Z</time></trkpt><trkpt lat="45.80801096845252" lon="9.849430413016817"><ele>402.0</ele><time>2026-04-03T16:19:14.942Z</time></trkpt><trkpt lat="45.80815944063145" lon="9.849337256104441"><ele>401.66666666666663</ele><time>2026-04-03T16:19:15.942Z</time></trkpt><trkpt lat="45.80831185057072" lon="9.849241628309393"><ele>401.3333333333333</ele><time>2026-04-03T16:19:16.942Z</time></trkpt><trkpt lat="45.80846040705669" lon="9.8491474000151"><ele>401.0</ele><time>2026-04-03T16:19:17.942Z</time></trkpt><trkpt lat="45.808607210700515" lon="9.849056952093951"><ele>401.0</ele><time>2026-04-03T16:19:18.942Z</time></trkpt><trkpt lat="45.80873483425985" lon="9.84898584494796"><ele>401.0</ele><time>2026-04-03T16:19:19.942Z</time></trkpt><trkpt lat="45.80883511855338" lon="9.848932754865695"><ele>401.0</ele><time>2026-04-03T16:19:20.942Z</time></trkpt><trkpt lat="45.808926174705796" lon="9.848909183650791"><ele>401.0</ele><time>2026-04-03T16:19:21.942Z</time></trkpt><trkpt lat="45.80900199726261" lon="9.84884582453452"><ele>401.0</ele><time>2026-04-03T16:19:22.942Z</time></trkpt><trkpt lat="45.80908537893605" lon="9.848804449836406"><ele>401.0</ele><time>2026-04-03T16:19:24.942Z</time></trkpt><trkpt lat="45.809150350978925" lon="9.84877503811234"><ele>401.0</ele><time>2026-04-03T16:19:26.942Z</time></trkpt><trkpt lat="45.809208471203036" lon="9.848736614776536"><ele>401.0</ele><time>2026-04-03T16:19:27.942Z</time></trkpt><trkpt lat="45.80928025529138" lon="9.848695486472744"><ele>401.0</ele><time>2026-04-03T16:19:28.942Z</time></trkpt><trkpt lat="45.80938613615772" lon="9.848633689737404"><ele>401.0</ele><time>2026-04-03T16:19:29.942Z</time></trkpt><trkpt lat="45.809501375931404" lon="9.848555892690413"><ele>401.75</ele><time>2026-04-03T16:19:30.942Z</time></trkpt><trkpt lat="45.809623566012505" lon="9.848474419897952"><ele>402.5</ele><time>2026-04-03T16:19:31.942Z</time></trkpt><trkpt lat="45.80974732538078" lon="9.848381098005698"><ele>403.25</ele><time>2026-04-03T16:19:32.942Z</time></trkpt><trkpt lat="45.8098855869116" lon="9.848289327739096"><ele>404.0</ele><time>2026-04-03T16:19:33.942Z</time></trkpt><trkpt lat="45.81002881360202" lon="9.848203839039684"><ele>404.0</ele><time>2026-04-03T16:19:34.942Z</time></trkpt><trkpt lat="45.81015188260514" lon="9.848133614058044"><ele>404.0</ele><time>2026-04-03T16:19:35.942Z</time></trkpt><trkpt lat="45.810262314129155" lon="9.848056209103694"><ele>404.0</ele><time>2026-04-03T16:19:36.942Z</time></trkpt><trkpt lat="45.81035344955099" lon="9.847981496607817"><ele>404.0</ele><time>2026-04-03T16:19:37.942Z</time></trkpt><trkpt lat="45.81044846434439" lon="9.8479465498414"><ele>405.0</ele><time>2026-04-03T16:19:38.942Z</time></trkpt><trkpt lat="45.810522930769324" lon="9.847908903852035"><ele>406.0</ele><time>2026-04-03T16:19:39.942Z</time></trkpt><trkpt lat="45.810593240502705" lon="9.847890574953443"><ele>407.0</ele><time>2026-04-03T16:19:40.942Z</time></trkpt><trkpt lat="45.810695533524" lon="9.847872736976994"><ele>408.0</ele><time>2026-04-03T16:19:41.942Z</time></trkpt><trkpt lat="45.810826156747495" lon="9.847858005022728"><ele>409.0</ele><time>2026-04-03T16:19:42.942Z</time></trkpt><trkpt lat="45.81096967976721" lon="9.8477999396953"><ele>413.5</ele><time>2026-04-03T16:19:43.941Z</time></trkpt><trkpt lat="45.811081223875995" lon="9.847743364441222"><ele>418.0</ele><time>2026-04-03T16:19:44.941Z</time></trkpt><trkpt lat="45.81117992394789" lon="9.847678578074165"><ele>422.5</ele><time>2026-04-03T16:19:45.941Z</time></trkpt><trkpt lat="45.811274949262156" lon="9.847673415471919"><ele>427.0</ele><time>2026-04-03T16:19:46.941Z</time></trkpt><trkpt lat="45.81140885146816" lon="9.847574039338202"><ele>427.0</ele><time>2026-04-03T16:19:47.941Z</time></trkpt><trkpt lat="45.81150524769406" lon="9.847398115457889"><ele>427.0</ele><time>2026-04-03T16:19:48.941Z</time></trkpt><trkpt lat="45.811600986482645" lon="9.847207790129369"><ele>427.0</ele><time>2026-04-03T16:19:49.941Z</time></trkpt><trkpt lat="45.81167393108414" lon="9.846979246036641"><ele>423.33333333333337</ele><time>2026-04-03T16:19:50.941Z</time></trkpt><trkpt lat="45.81172861563213" lon="9.846701382176494"><ele>419.66666666666663</ele><time>2026-04-03T16:19:51.941Z</time></trkpt><trkpt lat="45.811780849006084" lon="9.846435524180542"><ele>416.0</ele><time>2026-04-03T16:19:52.941Z</time></trkpt><trkpt lat="45.81181453054753" lon="9.846197295359373"><ele>425.25</ele><time>2026-04-03T16:19:53.941Z</time></trkpt><trkpt lat="45.81186843219315" lon="9.84598180464784"><ele>434.5</ele><time>2026-04-03T16:19:54.941Z</time></trkpt><trkpt lat="45.81190356821432" lon="9.845785708930608"><ele>443.75</ele><time>2026-04-03T16:19:55.941Z</time></trkpt><trkpt lat="45.811925624084985" lon="9.845578811729725"><ele>453.0</ele><time>2026-04-03T16:19:56.941Z</time></trkpt><trkpt lat="45.811940544812146" lon="9.845366370133588"><ele>453.0</ele><time>2026-04-03T16:19:57.941Z</time></trkpt><trkpt lat="45.81192297999647" lon="9.84514001207144"><ele>453.0</ele><time>2026-04-03T16:19:58.941Z</time></trkpt><trkpt lat="45.81189778255003" lon="9.844898419247274"><ele>453.0</ele><time>2026-04-03T16:19:59.941Z</time></trkpt><trkpt lat="45.81187316301053" lon="9.844670969250942"><ele>450.33333333333337</ele><time>2026-04-03T16:20:00.947Z</time></trkpt><trkpt lat="45.811857003350184" lon="9.844438770424587"><ele>447.6666666666667</ele><time>2026-04-03T16:20:01.947Z</time></trkpt><trkpt lat="45.81184481899048" lon="9.844213533681197"><ele>445.0</ele><time>2026-04-03T16:20:02.947Z</time></trkpt><trkpt lat="45.811832854035" lon="9.844006971592451"><ele>446.0</ele><time>2026-04-03T16:20:03.947Z</time></trkpt><trkpt lat="45.811820387354096" lon="9.843803287259938"><ele>447.0</ele><time>2026-04-03T16:20:04.947Z</time></trkpt><trkpt lat="45.81181388809524" lon="9.843615986117397"><ele>448.0</ele><time>2026-04-03T16:20:05.947Z</time></trkpt><trkpt lat="45.81181817293044" lon="9.843436499000763"><ele>449.0</ele><time>2026-04-03T16:20:06.947Z</time></trkpt><trkpt lat="45.811838392719444" lon="9.84325419784018"><ele>449.0</ele><time>2026-04-03T16:20:07.947Z</time></trkpt><trkpt lat="45.811876536277495" lon="9.84306688019886"><ele>449.0</ele><time>2026-04-03T16:20:08.947Z</time></trkpt><trkpt lat="45.8119327175044" lon="9.842894020043651"><ele>449.0</ele><time>2026-04-03T16:20:09.947Z</time></trkpt><trkpt lat="45.812003046831386" lon="9.842729480955647"><ele>449.0</ele><time>2026-04-03T16:20:10.948Z</time></trkpt><trkpt lat="45.81208471621963" lon="9.84256055356315"><ele>448.66666666666663</ele><time>2026-04-03T16:20:11.948Z</time></trkpt><trkpt lat="45.812160797827055" lon="9.84237541148203"><ele>448.33333333333337</ele><time>2026-04-03T16:20:12.947Z</time></trkpt><trkpt lat="45.812206505983966" lon="9.842168150833091"><ele>448.0</ele><time>2026-04-03T16:20:13.947Z</time></trkpt><trkpt lat="45.81222738313226" lon="9.84193889902713"><ele>444.6666666666667</ele><time>2026-04-03T16:20:14.947Z</time></trkpt><trkpt lat="45.8122397090056" lon="9.841696660890351"><ele>441.33333333333337</ele><time>2026-04-03T16:20:15.947Z</time></trkpt><trkpt lat="45.812249366744645" lon="9.84147084046776"><ele>438.0</ele><time>2026-04-03T16:20:16.947Z</time></trkpt><trkpt lat="45.81225380139313" lon="9.841258654440265"><ele>438.0</ele><time>2026-04-03T16:20:17.947Z</time></trkpt><trkpt lat="45.812236264196756" lon="9.841034441730402"><ele>438.0</ele><time>2026-04-03T16:20:18.947Z</time></trkpt><trkpt lat="45.81216552890837" lon="9.840825710909323"><ele>438.0</ele><time>2026-04-03T16:20:19.947Z</time></trkpt><trkpt lat="45.81210625942659" lon="9.840616889476086"><ele>437.5</ele><time>2026-04-03T16:20:20.947Z</time></trkpt><trkpt lat="45.81204044892453" lon="9.84044228007182"><ele>437.0</ele><time>2026-04-03T16:20:21.947Z</time></trkpt><trkpt lat="45.81194154517443" lon="9.84028515673716"><ele>436.5</ele><time>2026-04-03T16:20:22.947Z</time></trkpt><trkpt lat="45.811807833030805" lon="9.840177450979342"><ele>436.0</ele><time>2026-04-03T16:20:23.947Z</time></trkpt><trkpt lat="45.81167546687428" lon="9.840060328179232"><ele>432.75</ele><time>2026-04-03T16:20:24.947Z</time></trkpt><trkpt lat="45.811562355677516" lon="9.839951803705272"><ele>429.5</ele><time>2026-04-03T16:20:25.947Z</time></trkpt><trkpt lat="45.81145538474169" lon="9.839850360883643"><ele>426.25</ele><time>2026-04-03T16:20:26.947Z</time></trkpt><trkpt lat="45.81136881313577" lon="9.839723505553055"><ele>423.0</ele><time>2026-04-03T16:20:27.947Z</time></trkpt><trkpt lat="45.81130741903167" lon="9.839564466588"><ele>423.0</ele><time>2026-04-03T16:20:28.947Z</time></trkpt><trkpt lat="45.8112757819292" lon="9.83938360052928"><ele>423.0</ele><time>2026-04-03T16:20:29.947Z</time></trkpt><trkpt lat="45.811249744256955" lon="9.839177519460382"><ele>423.0</ele><time>2026-04-03T16:20:30.947Z</time></trkpt><trkpt lat="45.81123108219144" lon="9.838963262951376"><ele>423.0</ele><time>2026-04-03T16:20:31.947Z</time></trkpt><trkpt lat="45.811225566514" lon="9.83873172598552"><ele>424.33333333333337</ele><time>2026-04-03T16:20:32.947Z</time></trkpt><trkpt lat="45.81122670577311" lon="9.838501059214662"><ele>425.6666666666667</ele><time>2026-04-03T16:20:33.947Z</time></trkpt><trkpt lat="45.81122283833057" lon="9.838262095622335"><ele>427.0</ele><time>2026-04-03T16:20:34.947Z</time></trkpt><trkpt lat="45.81120049317933" lon="9.838039146844412"><ele>429.0</ele><time>2026-04-03T16:20:35.947Z</time></trkpt><trkpt lat="45.8111844251629" lon="9.83783553822917"><ele>431.0</ele><time>2026-04-03T16:20:36.947Z</time></trkpt><trkpt lat="45.81114848928958" lon="9.83764446198739"><ele>433.0</ele><time>2026-04-03T16:20:37.947Z</time></trkpt><trkpt lat="45.81108488178356" lon="9.83745744892251"><ele>435.0</ele><time>2026-04-03T16:20:38.947Z</time></trkpt><trkpt lat="45.811009155788994" lon="9.83728023558076"><ele>434.5</ele><time>2026-04-03T16:20:39.947Z</time></trkpt><trkpt lat="45.81094624429435" lon="9.837121501217025"><ele>434.0</ele><time>2026-04-03T16:20:40.947Z</time></trkpt><trkpt lat="45.8108902867586" lon="9.836969432111422"><ele>433.5</ele><time>2026-04-03T16:20:41.946Z</time></trkpt><trkpt lat="45.81086720882457" lon="9.836795068433872"><ele>433.0</ele><time>2026-04-03T16:20:42.946Z</time></trkpt><trkpt lat="45.81084602755118" lon="9.836605753732579"><ele>433.0</ele><time>2026-04-03T16:20:43.946Z</time></trkpt><trkpt lat="45.81083860742357" lon="9.836398800774584"><ele>433.0</ele><time>2026-04-03T16:20:44.946Z</time></trkpt><trkpt lat="45.81082248695504" lon="9.836187217517724"><ele>433.0</ele><time>2026-04-03T16:20:45.946Z</time></trkpt><trkpt lat="45.81080710698941" lon="9.83596267717446"><ele>433.0</ele><time>2026-04-03T16:20:46.946Z</time></trkpt><trkpt lat="45.81081801403222" lon="9.835744711866651"><ele>433.0</ele><time>2026-04-03T16:20:47.946Z</time></trkpt><trkpt lat="45.81081577265249" lon="9.835546422747397"><ele>433.0</ele><time>2026-04-03T16:20:48.946Z</time></trkpt><trkpt lat="45.81082067017216" lon="9.835346711961062"><ele>433.0</ele><time>2026-04-03T16:20:49.946Z</time></trkpt><trkpt lat="45.810845694504096" lon="9.835146003427008"><ele>433.33333333333337</ele><time>2026-04-03T16:20:50.946Z</time></trkpt><trkpt lat="45.81088331918768" lon="9.834942812601483"><ele>433.66666666666663</ele><time>2026-04-03T16:20:51.946Z</time></trkpt><trkpt lat="45.81092579636034" lon="9.834731862437883"><ele>434.0</ele><time>2026-04-03T16:20:52.946Z</time></trkpt><trkpt lat="45.8109650879731" lon="9.834510854565451"><ele>435.3333333333333</ele><time>2026-04-03T16:20:53.946Z</time></trkpt><trkpt lat="45.810989250699016" lon="9.834268281363169"><ele>436.66666666666663</ele><time>2026-04-03T16:20:54.946Z</time></trkpt><trkpt lat="45.811008887938556" lon="9.834032211293614"><ele>438.0</ele><time>2026-04-03T16:20:55.946Z</time></trkpt><trkpt lat="45.81103487818883" lon="9.833814047482644"><ele>440.0</ele><time>2026-04-03T16:20:56.946Z</time></trkpt><trkpt lat="45.81106931602342" lon="9.83361196098623"><ele>442.0</ele><time>2026-04-03T16:20:57.946Z</time></trkpt><trkpt lat="45.81111030479536" lon="9.833438556900775"><ele>444.0</ele><time>2026-04-03T16:20:58.946Z</time></trkpt><trkpt lat="45.8111707947744" lon="9.833294837984884"><ele>446.0</ele><time>2026-04-03T16:20:59.946Z</time></trkpt><trkpt lat="45.81125630366566" lon="9.833171480207133"><ele>446.0</ele><time>2026-04-03T16:21:00.946Z</time></trkpt><trkpt lat="45.81136556897632" lon="9.833069312311286"><ele>446.0</ele><time>2026-04-03T16:21:01.946Z</time></trkpt><trkpt lat="45.81148250209542" lon="9.83298946610927"><ele>446.0</ele><time>2026-04-03T16:21:02.946Z</time></trkpt><trkpt lat="45.8115776767423" lon="9.832926861847234"><ele>446.0</ele><time>2026-04-03T16:21:03.946Z</time></trkpt><trkpt lat="45.81164772126756" lon="9.832830716800089"><ele>446.0</ele><time>2026-04-03T16:21:04.946Z</time></trkpt><trkpt lat="45.81168879574467" lon="9.832729977546796"><ele>446.0</ele><time>2026-04-03T16:21:05.946Z</time></trkpt><trkpt lat="45.81174103713747" lon="9.832607249528714"><ele>446.0</ele><time>2026-04-03T16:21:06.946Z</time></trkpt><trkpt lat="45.811720443724596" lon="9.832409243792195"><ele>446.0</ele><time>2026-04-03T16:21:07.946Z</time></trkpt><trkpt lat="45.8117128433898" lon="9.832217448738387"><ele>446.0</ele><time>2026-04-03T16:21:08.946Z</time></trkpt><trkpt lat="45.81171562127409" lon="9.832051751151031"><ele>446.0</ele><time>2026-04-03T16:21:09.946Z</time></trkpt><trkpt lat="45.811762672539395" lon="9.831888054726617"><ele>446.0</ele><time>2026-04-03T16:21:10.946Z</time></trkpt><trkpt lat="45.81181928345336" lon="9.831716810642154"><ele>446.0</ele><time>2026-04-03T16:21:11.946Z</time></trkpt><trkpt lat="45.811896096700316" lon="9.831569810421561"><ele>449.0</ele><time>2026-04-03T16:21:12.946Z</time></trkpt><trkpt lat="45.81200277593412" lon="9.831440974942208"><ele>452.0</ele><time>2026-04-03T16:21:13.946Z</time></trkpt><trkpt lat="45.81211220121807" lon="9.831296133533032"><ele>455.0</ele><time>2026-04-03T16:21:14.946Z</time></trkpt><trkpt lat="45.81223007403785" lon="9.831118002116868"><ele>454.66666666666663</ele><time>2026-04-03T16:21:15.946Z</time></trkpt><trkpt lat="45.81233616574722" lon="9.830947270662946"><ele>454.33333333333337</ele><time>2026-04-03T16:21:16.946Z</time></trkpt><trkpt lat="45.81242242179463" lon="9.830751073394422"><ele>454.0</ele><time>2026-04-03T16:21:17.946Z</time></trkpt><trkpt lat="45.81253587874532" lon="9.83053920228712"><ele>454.0</ele><time>2026-04-03T16:21:18.946Z</time></trkpt><trkpt lat="45.812634060751236" lon="9.830338216604511"><ele>454.0</ele><time>2026-04-03T16:21:19.946Z</time></trkpt><trkpt lat="45.81273445190364" lon="9.830165265222044"><ele>454.0</ele><time>2026-04-03T16:21:20.946Z</time></trkpt><trkpt lat="45.81283409328116" lon="9.830016083429015"><ele>456.75</ele><time>2026-04-03T16:21:21.946Z</time></trkpt><trkpt lat="45.812921036630875" lon="9.82983713815242"><ele>459.5</ele><time>2026-04-03T16:21:22.946Z</time></trkpt><trkpt lat="45.81299482592916" lon="9.829665227015408"><ele>462.25</ele><time>2026-04-03T16:21:23.946Z</time></trkpt><trkpt lat="45.81305831910195" lon="9.829481172923707"><ele>465.0</ele><time>2026-04-03T16:21:24.946Z</time></trkpt><trkpt lat="45.813116711398955" lon="9.829270968197745"><ele>465.0</ele><time>2026-04-03T16:21:25.945Z</time></trkpt><trkpt lat="45.813165266637725" lon="9.829065326052653"><ele>465.0</ele><time>2026-04-03T16:21:26.945Z</time></trkpt><trkpt lat="45.81321600692802" lon="9.82885364311214"><ele>465.0</ele><time>2026-04-03T16:21:27.945Z</time></trkpt><trkpt lat="45.81326099590501" lon="9.828642313084636"><ele>462.66666666666663</ele><time>2026-04-03T16:21:28.945Z</time></trkpt><trkpt lat="45.81329500754408" lon="9.828425462036858"><ele>460.3333333333333</ele><time>2026-04-03T16:21:29.945Z</time></trkpt><trkpt lat="45.81331614963518" lon="9.82819688071848"><ele>458.0</ele><time>2026-04-03T16:21:30.945Z</time></trkpt><trkpt lat="45.813341829638084" lon="9.827991899307818"><ele>458.0</ele><time>2026-04-03T16:21:31.945Z</time></trkpt><trkpt lat="45.81336867900584" lon="9.827783671091517"><ele>458.0</ele><time>2026-04-03T16:21:32.945Z</time></trkpt><trkpt lat="45.81339158819996" lon="9.827613148030373"><ele>458.0</ele><time>2026-04-03T16:21:33.945Z</time></trkpt><trkpt lat="45.81341614406084" lon="9.827467757233451"><ele>458.0</ele><time>2026-04-03T16:21:34.945Z</time></trkpt><trkpt lat="45.813444304832004" lon="9.827353037309793"><ele>463.4</ele><time>2026-04-03T16:21:35.945Z</time></trkpt><trkpt lat="45.81350103765043" lon="9.827251452325825"><ele>468.79999999999995</ele><time>2026-04-03T16:21:36.945Z</time></trkpt><trkpt lat="45.81357491382706" lon="9.82715332532109"><ele>474.2</ele><time>2026-04-03T16:21:37.945Z</time></trkpt><trkpt lat="45.81365662531335" lon="9.827038241535039"><ele>479.6</ele><time>2026-04-03T16:21:38.945Z</time></trkpt><trkpt lat="45.81376763622312" lon="9.826946659811822"><ele>485.0</ele><time>2026-04-03T16:21:39.945Z</time></trkpt><trkpt lat="45.81388054986995" lon="9.826827968860218"><ele>481.75</ele><time>2026-04-03T16:21:40.945Z</time></trkpt><trkpt lat="45.813978490475264" lon="9.826715474766383"><ele>478.5</ele><time>2026-04-03T16:21:41.945Z</time></trkpt><trkpt lat="45.81405921637196" lon="9.826600085953476"><ele>475.25</ele><time>2026-04-03T16:21:42.945Z</time></trkpt><trkpt lat="45.814112302820384" lon="9.826455774724847"><ele>472.0</ele><time>2026-04-03T16:21:43.945Z</time></trkpt><trkpt lat="45.81412477690881" lon="9.826263777019513"><ele>472.0</ele><time>2026-04-03T16:21:44.945Z</time></trkpt><trkpt lat="45.814118505764654" lon="9.826062881106997"><ele>472.0</ele><time>2026-04-03T16:21:45.945Z</time></trkpt><trkpt lat="45.81410113175026" lon="9.82589085190246"><ele>472.0</ele><time>2026-04-03T16:21:46.945Z</time></trkpt><trkpt lat="45.81409559604453" lon="9.825744615001359"><ele>472.0</ele><time>2026-04-03T16:21:47.945Z</time></trkpt><trkpt lat="45.81410718029815" lon="9.825587967277828"><ele>471.5</ele><time>2026-04-03T16:21:48.945Z</time></trkpt><trkpt lat="45.81411277927141" lon="9.825413092258044"><ele>471.0</ele><time>2026-04-03T16:21:49.945Z</time></trkpt><trkpt lat="45.81408460514073" lon="9.825219262424566"><ele>470.5</ele><time>2026-04-03T16:21:50.945Z</time></trkpt><trkpt lat="45.81402388730842" lon="9.825044500921255"><ele>470.0</ele><time>2026-04-03T16:21:51.945Z</time></trkpt><trkpt lat="45.81400693405511" lon="9.82486265027461"><ele>470.8</ele><time>2026-04-03T16:21:52.945Z</time></trkpt><trkpt lat="45.813999525070564" lon="9.824671766521412"><ele>471.6</ele><time>2026-04-03T16:21:53.945Z</time></trkpt><trkpt lat="45.8139976433182" lon="9.824501069531319"><ele>472.4</ele><time>2026-04-03T16:21:54.945Z</time></trkpt><trkpt lat="45.814005800154504" lon="9.82436409186497"><ele>473.2</ele><time>2026-04-03T16:21:55.945Z</time></trkpt><trkpt lat="45.81400507531584" lon="9.824244986484983"><ele>474.0</ele><time>2026-04-03T16:21:56.945Z</time></trkpt><trkpt lat="45.81402156722393" lon="9.824117084035315"><ele>474.2</ele><time>2026-04-03T16:21:57.945Z</time></trkpt><trkpt lat="45.814047960556" lon="9.823984575158722"><ele>474.4</ele><time>2026-04-03T16:21:58.945Z</time></trkpt><trkpt lat="45.81408568679731" lon="9.823855878232315"><ele>474.6</ele><time>2026-04-03T16:21:59.945Z</time></trkpt><trkpt lat="45.81412809234764" lon="9.823704038672382"><ele>474.8</ele><time>2026-04-03T16:22:00.945Z</time></trkpt><trkpt lat="45.8141454225887" lon="9.823533506685784"><ele>475.0</ele><time>2026-04-03T16:22:01.945Z</time></trkpt><trkpt lat="45.814170541692015" lon="9.823327667534011"><ele>475.0</ele><time>2026-04-03T16:22:02.945Z</time></trkpt><trkpt lat="45.81419619868522" lon="9.823134296252507"><ele>475.0</ele><time>2026-04-03T16:22:03.945Z</time></trkpt><trkpt lat="45.814220257883555" lon="9.822962008493848"><ele>475.0</ele><time>2026-04-03T16:22:04.945Z</time></trkpt><trkpt lat="45.81420067774936" lon="9.822783937058398"><ele>475.0</ele><time>2026-04-03T16:22:05.945Z</time></trkpt><trkpt lat="45.81416043634483" lon="9.822596738481925"><ele>476.5</ele><time>2026-04-03T16:22:06.951Z</time></trkpt><trkpt lat="45.81412339172916" lon="9.822385523673525"><ele>478.0</ele><time>2026-04-03T16:22:07.951Z</time></trkpt><trkpt lat="45.81406916638072" lon="9.822213611688348"><ele>479.5</ele><time>2026-04-03T16:22:08.951Z</time></trkpt><trkpt lat="45.81401113625018" lon="9.822068378297194"><ele>481.0</ele><time>2026-04-03T16:22:09.951Z</time></trkpt><trkpt lat="45.81395616046228" lon="9.82195831745784"><ele>481.0</ele><time>2026-04-03T16:22:10.951Z</time></trkpt><trkpt lat="45.813934225628756" lon="9.821843423619498"><ele>481.0</ele><time>2026-04-03T16:22:11.951Z</time></trkpt><trkpt lat="45.81393949132963" lon="9.821741242980558"><ele>481.0</ele><time>2026-04-03T16:22:12.951Z</time></trkpt><trkpt lat="45.81391047610952" lon="9.821659729964127"><ele>481.0</ele><time>2026-04-03T16:22:14.952Z</time></trkpt><trkpt lat="45.813853466895004" lon="9.821895097123674"><ele>481.0</ele><time>2026-04-03T16:22:18.951Z</time></trkpt><trkpt lat="45.81383476009658" lon="9.822019338138077"><ele>481.00000000000006</ele><time>2026-04-03T16:22:19.952Z</time></trkpt><trkpt lat="45.81381449235485" lon="9.822147688154804"><ele>481.0</ele><time>2026-04-03T16:22:20.952Z</time></trkpt><trkpt lat="45.81379174514755" lon="9.822236326263962"><ele>481.0</ele><time>2026-04-03T16:22:21.952Z</time></trkpt><trkpt lat="45.813767961138346" lon="9.822324745618609"><ele>481.0</ele><time>2026-04-03T16:22:22.952Z</time></trkpt><trkpt lat="45.81372137346729" lon="9.822443579156475"><ele>481.00000000000006</ele><time>2026-04-03T16:22:24.952Z</time></trkpt><trkpt lat="45.813748783747386" lon="9.82254274460361"><ele>481.0</ele><time>2026-04-03T16:22:34.951Z</time></trkpt><trkpt lat="45.81370582302071" lon="9.822637443704789"><ele>480.00000000000006</ele><time>2026-04-03T16:22:36.951Z</time></trkpt><trkpt lat="45.81368627566133" lon="9.822728432914566"><ele>479.0</ele><time>2026-04-03T16:22:38.951Z</time></trkpt><trkpt lat="45.813617805840494" lon="9.822886844110318"><ele>478.0</ele><time>2026-04-03T16:22:40.951Z</time></trkpt><trkpt lat="45.81361720523463" lon="9.82300535758345"><ele>477.0</ele><time>2026-04-03T16:22:41.951Z</time></trkpt><trkpt lat="45.81358950547934" lon="9.82311931278712"><ele>476.00000000000006</ele><time>2026-04-03T16:22:42.951Z</time></trkpt><trkpt lat="45.81357104007782" lon="9.823216752169962"><ele>475.0</ele><time>2026-04-03T16:22:43.951Z</time></trkpt><trkpt lat="45.81356139497335" lon="9.823357014721251"><ele>475.0</ele><time>2026-04-03T16:22:45.951Z</time></trkpt><trkpt lat="45.81355944668128" lon="9.823508973647614"><ele>475.0</ele><time>2026-04-03T16:22:47.951Z</time></trkpt><trkpt lat="45.81351946721883" lon="9.823588439273772"><ele>475.0</ele><time>2026-04-03T16:22:49.951Z</time></trkpt><trkpt lat="45.813442053035125" lon="9.823712771299249"><ele>475.0</ele><time>2026-04-03T16:22:51.951Z</time></trkpt><trkpt lat="45.81342000554308" lon="9.823830889842544"><ele>475.0</ele><time>2026-04-03T16:22:52.951Z</time></trkpt><trkpt lat="45.81340633203897" lon="9.823985859963907"><ele>475.50000000000006</ele><time>2026-04-03T16:22:54.951Z</time></trkpt><trkpt lat="45.81334997565211" lon="9.824062874288737"><ele>476.0</ele><time>2026-04-03T16:22:55.951Z</time></trkpt><trkpt lat="45.81332143104882" lon="9.824152581138625"><ele>476.5</ele><time>2026-04-03T16:22:56.951Z</time></trkpt><trkpt lat="45.813323482054315" lon="9.824279512924116"><ele>477.0</ele><time>2026-04-03T16:22:58.951Z</time></trkpt><trkpt lat="45.813355492565165" lon="9.824382652311844"><ele>477.50000000000006</ele><time>2026-04-03T16:22:59.951Z</time></trkpt><trkpt lat="45.81337616976844" lon="9.824508788918237"><ele>478.0</ele><time>2026-04-03T16:23:01.951Z</time></trkpt><trkpt lat="45.81336987118749" lon="9.82459942678447"><ele>478.0</ele><time>2026-04-03T16:23:03.951Z</time></trkpt><trkpt lat="45.81328999952958" lon="9.824700774763686"><ele>477.99999999999994</ele><time>2026-04-03T16:23:05.951Z</time></trkpt><trkpt lat="45.81324330798887" lon="9.824800379811526"><ele>477.99999999999994</ele><time>2026-04-03T16:23:07.951Z</time></trkpt><trkpt lat="45.8131651293322" lon="9.8248650288627"><ele>478.0</ele><time>2026-04-03T16:23:09.951Z</time></trkpt><trkpt lat="45.813085762938194" lon="9.82491035032245"><ele>478.0</ele><time>2026-04-03T16:23:11.951Z</time></trkpt><trkpt lat="45.81293416554311" lon="9.82503408533118"><ele>478.00000000000006</ele><time>2026-04-03T16:23:18.95Z</time></trkpt><trkpt lat="45.812876017058535" lon="9.825130081511253"><ele>478.0</ele><time>2026-04-03T16:23:20.95Z</time></trkpt><trkpt lat="45.81282242599035" lon="9.82525662537911"><ele>478.0</ele><time>2026-04-03T16:23:22.95Z</time></trkpt><trkpt lat="45.81277338754912" lon="9.825392138009088"><ele>478.0</ele><time>2026-04-03T16:23:26.95Z</time></trkpt><trkpt lat="45.81271662922098" lon="9.82543675378909"><ele>478.00000000000006</ele><time>2026-04-03T16:23:27.95Z</time></trkpt><trkpt lat="45.81265319711706" lon="9.825498979428739"><ele>478.0</ele><time>2026-04-03T16:23:28.95Z</time></trkpt><trkpt lat="45.812587242468645" lon="9.825549883825909"><ele>483.1666666666667</ele><time>2026-04-03T16:23:29.95Z</time></trkpt><trkpt lat="45.812556575780555" lon="9.825670874620023"><ele>488.33333333333337</ele><time>2026-04-03T16:23:32.95Z</time></trkpt><trkpt lat="45.8124818574095" lon="9.825692743418058"><ele>493.5</ele><time>2026-04-03T16:23:34.95Z</time></trkpt><trkpt lat="45.81245283382562" lon="9.82578577595861"><ele>498.66666666666663</ele><time>2026-04-03T16:23:36.95Z</time></trkpt><trkpt lat="45.81239900317867" lon="9.825885065883758"><ele>503.8333333333333</ele><time>2026-04-03T16:23:38.95Z</time></trkpt><trkpt lat="45.81236338236" lon="9.825983449570492"><ele>509.0</ele><time>2026-04-03T16:23:40.95Z</time></trkpt><trkpt lat="45.81231974072556" lon="9.826076443794427"><ele>508.99999999999994</ele><time>2026-04-03T16:23:42.95Z</time></trkpt><trkpt lat="45.812268113011605" lon="9.826154820380225"><ele>509.0</ele><time>2026-04-03T16:23:47.95Z</time></trkpt><trkpt lat="45.81220343381621" lon="9.826145845806876"><ele>508.99999999999994</ele><time>2026-04-03T16:23:52.95Z</time></trkpt><trkpt lat="45.81214473821545" lon="9.826182083686115"><ele>508.99999999999994</ele><time>2026-04-03T16:23:55.95Z</time></trkpt><trkpt lat="45.81211881942389" lon="9.82626907235435"><ele>509.0</ele><time>2026-04-03T16:23:59.949Z</time></trkpt><trkpt lat="45.81212609005242" lon="9.826379844023274"><ele>508.99999999999994</ele><time>2026-04-03T16:24:05.949Z</time></trkpt><trkpt lat="45.812131719677005" lon="9.826472888487173"><ele>508.99999999999994</ele><time>2026-04-03T16:24:08.949Z</time></trkpt><trkpt lat="45.81209523995508" lon="9.826587320476738"><ele>508.99999999999994</ele><time>2026-04-03T16:24:11.949Z</time></trkpt><trkpt lat="45.812078687503714" lon="9.82673266969484"><ele>509.0</ele><time>2026-04-03T16:24:13.955Z</time></trkpt><trkpt lat="45.81205304942551" lon="9.82688622288293"><ele>509.0</ele><time>2026-04-03T16:24:18.955Z</time></trkpt><trkpt lat="45.81203218041938" lon="9.826976098950256"><ele>509.0</ele><time>2026-04-03T16:24:20.955Z</time></trkpt><trkpt lat="45.812019399989836" lon="9.827076691141876"><ele>508.99999999999994</ele><time>2026-04-03T16:24:22.956Z</time></trkpt><trkpt lat="45.81199208690406" lon="9.82716693722039"><ele>509.0</ele><time>2026-04-03T16:24:25.955Z</time></trkpt><trkpt lat="45.81194002076291" lon="9.827250287150903"><ele>507.4</ele><time>2026-04-03T16:24:27.955Z</time></trkpt><trkpt lat="45.81186418261514" lon="9.827333902531628"><ele>505.79999999999995</ele><time>2026-04-03T16:24:30.955Z</time></trkpt><trkpt lat="45.811776842597965" lon="9.827450187099389"><ele>504.20000000000005</ele><time>2026-04-03T16:24:33.955Z</time></trkpt><trkpt lat="45.811790484916976" lon="9.82756789344928"><ele>502.6</ele><time>2026-04-03T16:24:36.955Z</time></trkpt><trkpt lat="45.81172264078605" lon="9.827643311573787"><ele>501.0</ele><time>2026-04-03T16:24:38.955Z</time></trkpt><trkpt lat="45.81161934014275" lon="9.827707090529769"><ele>506.4</ele><time>2026-04-03T16:24:40.955Z</time></trkpt><trkpt lat="45.81154116558389" lon="9.827751939339109"><ele>511.8</ele><time>2026-04-03T16:24:42.955Z</time></trkpt><trkpt lat="45.811481745405914" lon="9.827849760294587"><ele>517.1999999999999</ele><time>2026-04-03T16:24:45.955Z</time></trkpt><trkpt lat="45.811416176747365" lon="9.827950748997553"><ele>522.6</ele><time>2026-04-03T16:24:47.955Z</time></trkpt><trkpt lat="45.81135201188813" lon="9.827979859946566"><ele>528.0</ele><time>2026-04-03T16:24:48.955Z</time></trkpt><trkpt lat="45.81123309572161" lon="9.828013164557946"><ele>528.0</ele><time>2026-04-03T16:24:50.955Z</time></trkpt><trkpt lat="45.81116160279947" lon="9.82802102318178"><ele>528.0</ele><time>2026-04-03T16:24:52.955Z</time></trkpt><trkpt lat="45.81108489011173" lon="9.828047910082756"><ele>528.0</ele><time>2026-04-03T16:24:54.955Z</time></trkpt><trkpt lat="45.81102253012613" lon="9.828110668474375"><ele>528.0</ele><time>2026-04-03T16:24:58.954Z</time></trkpt><trkpt lat="45.81095726474822" lon="9.828118605609028"><ele>528.0</ele><time>2026-04-03T16:26:07.953Z</time></trkpt><trkpt lat="45.81086740234449" lon="9.828239371221665"><ele>528.0</ele><time>2026-04-03T16:26:08.953Z</time></trkpt><trkpt lat="45.81094435600592" lon="9.828266212575269"><ele>528.0</ele><time>2026-04-03T16:26:40.96Z</time></trkpt><trkpt lat="45.811062887366326" lon="9.828199754450932"><ele>528.0</ele><time>2026-04-03T16:26:42.959Z</time></trkpt><trkpt lat="45.81112554128455" lon="9.828107883312798"><ele>528.0</ele><time>2026-04-03T16:26:43.959Z</time></trkpt><trkpt lat="45.811197341754585" lon="9.82794685704801"><ele>528.0</ele><time>2026-04-03T16:26:44.959Z</time></trkpt><trkpt lat="45.811262335559015" lon="9.827818482931237"><ele>528.0</ele><time>2026-04-03T16:26:45.959Z</time></trkpt><trkpt lat="45.811345791934414" lon="9.827669030550732"><ele>528.0</ele><time>2026-04-03T16:26:46.959Z</time></trkpt><trkpt lat="45.81143278916154" lon="9.82753079754276"><ele>528.0</ele><time>2026-04-03T16:26:47.959Z</time></trkpt><trkpt lat="45.81148740911535" lon="9.827405527480678"><ele>528.0</ele><time>2026-04-03T16:26:48.959Z</time></trkpt><trkpt lat="45.8115355450021" lon="9.827300562581474"><ele>533.25</ele><time>2026-04-03T16:26:49.959Z</time></trkpt><trkpt lat="45.81157321025893" lon="9.827129798394228"><ele>538.5</ele><time>2026-04-03T16:26:51.959Z</time></trkpt><trkpt lat="45.81154196710965" lon="9.827004587880008"><ele>543.75</ele><time>2026-04-03T16:26:52.959Z</time></trkpt><trkpt lat="45.81146670590666" lon="9.826893703718147"><ele>549.0</ele><time>2026-04-03T16:26:53.959Z</time></trkpt><trkpt lat="45.81137266470861" lon="9.826767703299385"><ele>550.5</ele><time>2026-04-03T16:26:54.959Z</time></trkpt><trkpt lat="45.811294466994006" lon="9.826624621996563"><ele>552.0</ele><time>2026-04-03T16:26:55.959Z</time></trkpt><trkpt lat="45.81123601925773" lon="9.826455062508565"><ele>553.5</ele><time>2026-04-03T16:26:56.959Z</time></trkpt><trkpt lat="45.81120193841158" lon="9.826243135471861"><ele>555.0</ele><time>2026-04-03T16:26:57.959Z</time></trkpt><trkpt lat="45.81119632332647" lon="9.826043847406579"><ele>554.4</ele><time>2026-04-03T16:26:58.959Z</time></trkpt><trkpt lat="45.811178080810855" lon="9.825858713544639"><ele>553.8</ele><time>2026-04-03T16:26:59.959Z</time></trkpt><trkpt lat="45.81117079248364" lon="9.825697278160277"><ele>553.2</ele><time>2026-04-03T16:27:00.959Z</time></trkpt><trkpt lat="45.81117521594836" lon="9.825550422543701"><ele>552.6</ele><time>2026-04-03T16:27:01.959Z</time></trkpt><trkpt lat="45.8112203624073" lon="9.825421878496677"><ele>552.0</ele><time>2026-04-03T16:27:02.959Z</time></trkpt><trkpt lat="45.81128739822742" lon="9.825318057819775"><ele>552.0</ele><time>2026-04-03T16:27:03.959Z</time></trkpt><trkpt lat="45.81135079104107" lon="9.825258666819957"><ele>552.0</ele><time>2026-04-03T16:27:04.959Z</time></trkpt><trkpt lat="45.81141586976062" lon="9.825181595752102"><ele>552.0</ele><time>2026-04-03T16:27:05.959Z</time></trkpt><trkpt lat="45.81150903361133" lon="9.825060089939644"><ele>552.0</ele><time>2026-04-03T16:27:07.959Z</time></trkpt><trkpt lat="45.81155822046709" lon="9.824944254920068"><ele>552.0</ele><time>2026-04-03T16:27:08.959Z</time></trkpt><trkpt lat="45.81159595243251" lon="9.824819029195218"><ele>554.0</ele><time>2026-04-03T16:27:09.959Z</time></trkpt><trkpt lat="45.8116284080755" lon="9.824644505520856"><ele>556.0</ele><time>2026-04-03T16:27:10.959Z</time></trkpt><trkpt lat="45.811687336835234" lon="9.824434174993844"><ele>558.0</ele><time>2026-04-03T16:27:11.959Z</time></trkpt><trkpt lat="45.81175139155161" lon="9.824214645383737"><ele>561.3333333333334</ele><time>2026-04-03T16:27:12.959Z</time></trkpt><trkpt lat="45.811816647013565" lon="9.823958728894114"><ele>564.6666666666667</ele><time>2026-04-03T16:27:13.959Z</time></trkpt><trkpt lat="45.811879306522506" lon="9.823671855639986"><ele>568.0</ele><time>2026-04-03T16:27:14.959Z</time></trkpt><trkpt lat="45.81192516374273" lon="9.82339770963797"><ele>559.6666666666667</ele><time>2026-04-03T16:27:15.959Z</time></trkpt><trkpt lat="45.81196804784691" lon="9.82314920918032"><ele>551.3333333333334</ele><time>2026-04-03T16:27:16.959Z</time></trkpt><trkpt lat="45.81199702276356" lon="9.822908507652643"><ele>543.0</ele><time>2026-04-03T16:27:17.959Z</time></trkpt><trkpt lat="45.81205088279125" lon="9.822685447162343"><ele>544.0</ele><time>2026-04-03T16:27:18.959Z</time></trkpt><trkpt lat="45.81207069920868" lon="9.82251991757676"><ele>545.0</ele><time>2026-04-03T16:27:19.959Z</time></trkpt><trkpt lat="45.812056171967406" lon="9.82240918553977"><ele>546.0</ele><time>2026-04-03T16:27:20.959Z</time></trkpt><trkpt lat="45.812041603620074" lon="9.822316260598285"><ele>547.0</ele><time>2026-04-03T16:27:21.959Z</time></trkpt><trkpt lat="45.81200665272446" lon="9.822209171010963"><ele>548.0</ele><time>2026-04-03T16:27:22.959Z</time></trkpt><trkpt lat="45.81196714692642" lon="9.82207083695733"><ele>549.0</ele><time>2026-04-03T16:27:23.959Z</time></trkpt><trkpt lat="45.81191309708343" lon="9.821913730580816"><ele>548.2</ele><time>2026-04-03T16:27:24.959Z</time></trkpt><trkpt lat="45.81186384440643" lon="9.821777439465388"><ele>547.4</ele><time>2026-04-03T16:27:25.959Z</time></trkpt><trkpt lat="45.811873651190915" lon="9.821646085050908"><ele>546.6</ele><time>2026-04-03T16:27:26.958Z</time></trkpt><trkpt lat="45.81191881267659" lon="9.821582199028223"><ele>545.8</ele><time>2026-04-03T16:27:27.958Z</time></trkpt><trkpt lat="45.81203361655961" lon="9.821412161272713"><ele>545.0</ele><time>2026-04-03T16:27:28.958Z</time></trkpt><trkpt lat="45.8121357220709" lon="9.821285204793265"><ele>545.0</ele><time>2026-04-03T16:27:30.958Z</time></trkpt><trkpt lat="45.81216315976447" lon="9.821192287387527"><ele>545.0</ele><time>2026-04-03T16:27:31.958Z</time></trkpt><trkpt lat="45.81219844684952" lon="9.820995242650849"><ele>545.0</ele><time>2026-04-03T16:27:32.958Z</time></trkpt><trkpt lat="45.81221795073056" lon="9.820810273650862"><ele>545.0</ele><time>2026-04-03T16:27:33.958Z</time></trkpt><trkpt lat="45.812209005424116" lon="9.820651007529518"><ele>546.5</ele><time>2026-04-03T16:27:34.958Z</time></trkpt><trkpt lat="45.812208986377335" lon="9.82051440465506"><ele>548.0</ele><time>2026-04-03T16:27:35.958Z</time></trkpt><trkpt lat="45.812182511809745" lon="9.820378615985824"><ele>549.5</ele><time>2026-04-03T16:27:36.958Z</time></trkpt><trkpt lat="45.81218396440806" lon="9.82026745351417"><ele>551.0</ele><time>2026-04-03T16:27:37.958Z</time></trkpt><trkpt lat="45.81220730971841" lon="9.820136322608638"><ele>552.5</ele><time>2026-04-03T16:27:38.958Z</time></trkpt><trkpt lat="45.81223028006705" lon="9.820030254807891"><ele>554.0</ele><time>2026-04-03T16:27:39.958Z</time></trkpt><trkpt lat="45.812214409457546" lon="9.819896166251102"><ele>556.25</ele><time>2026-04-03T16:27:40.958Z</time></trkpt><trkpt lat="45.812190447993565" lon="9.819766490253258"><ele>558.5</ele><time>2026-04-03T16:27:41.958Z</time></trkpt><trkpt lat="45.81217885324355" lon="9.819575574991967"><ele>560.75</ele><time>2026-04-03T16:27:42.958Z</time></trkpt><trkpt lat="45.812195981735506" lon="9.819400812502126"><ele>563.0</ele><time>2026-04-03T16:27:43.958Z</time></trkpt><trkpt lat="45.81224306742523" lon="9.819224723528444"><ele>564.0</ele><time>2026-04-03T16:27:44.958Z</time></trkpt><trkpt lat="45.81230217988012" lon="9.819039296139179"><ele>565.0</ele><time>2026-04-03T16:27:45.958Z</time></trkpt><trkpt lat="45.81236363340413" lon="9.818848692269444"><ele>566.0</ele><time>2026-04-03T16:27:46.958Z</time></trkpt><trkpt lat="45.812440055059135" lon="9.818674970375582"><ele>567.0</ele><time>2026-04-03T16:27:47.958Z</time></trkpt><trkpt lat="45.81249271152115" lon="9.81852704660395"><ele>569.6</ele><time>2026-04-03T16:27:48.958Z</time></trkpt><trkpt lat="45.81252826203275" lon="9.818331573829862"><ele>572.2</ele><time>2026-04-03T16:27:49.958Z</time></trkpt><trkpt lat="45.812561960705864" lon="9.818173270264001"><ele>574.8</ele><time>2026-04-03T16:27:50.958Z</time></trkpt><trkpt lat="45.812610478891294" lon="9.818023266269575"><ele>577.4</ele><time>2026-04-03T16:27:51.958Z</time></trkpt><trkpt lat="45.812641041406444" lon="9.81793145005555"><ele>580.0</ele><time>2026-04-03T16:27:52.958Z</time></trkpt><trkpt lat="45.812715966928586" lon="9.817853830859711"><ele>574.0</ele><time>2026-04-03T16:27:53.958Z</time></trkpt><trkpt lat="45.81282567835256" lon="9.81775100476867"><ele>568.0</ele><time>2026-04-03T16:27:54.958Z</time></trkpt><trkpt lat="45.81293696997696" lon="9.817658204089378"><ele>562.0</ele><time>2026-04-03T16:27:55.958Z</time></trkpt><trkpt lat="45.81303157094151" lon="9.81756086088339"><ele>556.0</ele><time>2026-04-03T16:27:56.958Z</time></trkpt><trkpt lat="45.81309680587128" lon="9.817454991497069"><ele>556.0</ele><time>2026-04-03T16:27:57.958Z</time></trkpt><trkpt lat="45.81315199410248" lon="9.817318987178615"><ele>556.0</ele><time>2026-04-03T16:27:58.958Z</time></trkpt><trkpt lat="45.81316911502341" lon="9.817184938680162"><ele>556.0</ele><time>2026-04-03T16:27:59.958Z</time></trkpt><trkpt lat="45.81318280407777" lon="9.817093998869542"><ele>556.0</ele><time>2026-04-03T16:28:00.958Z</time></trkpt><trkpt lat="45.813187663151616" lon="9.81693878094254"><ele>556.0</ele><time>2026-04-03T16:28:01.958Z</time></trkpt><trkpt lat="45.8131725325561" lon="9.816732637520273"><ele>560.25</ele><time>2026-04-03T16:28:02.958Z</time></trkpt><trkpt lat="45.81315122434027" lon="9.81655647792779"><ele>564.5</ele><time>2026-04-03T16:28:03.958Z</time></trkpt><trkpt lat="45.81317876046544" lon="9.816352199404784"><ele>568.75</ele><time>2026-04-03T16:28:04.958Z</time></trkpt><trkpt lat="45.813210174305354" lon="9.816137198517634"><ele>573.0</ele><time>2026-04-03T16:28:05.958Z</time></trkpt><trkpt lat="45.81326871144842" lon="9.815977074469112"><ele>576.25</ele><time>2026-04-03T16:28:06.958Z</time></trkpt><trkpt lat="45.81332767741518" lon="9.815797159120473"><ele>579.5</ele><time>2026-04-03T16:28:07.958Z</time></trkpt><trkpt lat="45.81337337204954" lon="9.815634460430816"><ele>582.75</ele><time>2026-04-03T16:28:08.958Z</time></trkpt><trkpt lat="45.813405871209916" lon="9.81549418274769"><ele>586.0</ele><time>2026-04-03T16:28:09.958Z</time></trkpt><trkpt lat="45.81343417092254" lon="9.815335855456075"><ele>589.3333333333334</ele><time>2026-04-03T16:28:10.958Z</time></trkpt><trkpt lat="45.81345652163725" lon="9.815121711949482"><ele>592.6666666666666</ele><time>2026-04-03T16:28:11.957Z</time></trkpt><trkpt lat="45.81344304412568" lon="9.81488546190625"><ele>596.0</ele><time>2026-04-03T16:28:12.957Z</time></trkpt><trkpt lat="45.81348060481476" lon="9.814626105013351"><ele>598.6666666666666</ele><time>2026-04-03T16:28:13.957Z</time></trkpt><trkpt lat="45.81350710468255" lon="9.814408177121276"><ele>601.3333333333334</ele><time>2026-04-03T16:28:14.957Z</time></trkpt><trkpt lat="45.81350230864699" lon="9.814186300815425"><ele>604.0</ele><time>2026-04-03T16:28:15.957Z</time></trkpt><trkpt lat="45.813488627249626" lon="9.813974383930466"><ele>604.75</ele><time>2026-04-03T16:28:16.957Z</time></trkpt><trkpt lat="45.81351959398118" lon="9.813797252736066"><ele>605.5</ele><time>2026-04-03T16:28:17.957Z</time></trkpt><trkpt lat="45.81349052309408" lon="9.813647836868121"><ele>606.25</ele><time>2026-04-03T16:28:18.957Z</time></trkpt><trkpt lat="45.81343479811801" lon="9.8134749857225"><ele>607.0</ele><time>2026-04-03T16:28:19.957Z</time></trkpt><trkpt lat="45.81339736072337" lon="9.813326967440124"><ele>607.0</ele><time>2026-04-03T16:28:20.957Z</time></trkpt><trkpt lat="45.813348747348115" lon="9.813161468698125"><ele>607.0</ele><time>2026-04-03T16:28:22.957Z</time></trkpt><trkpt lat="45.81325189487731" lon="9.813075913419476"><ele>607.0</ele><time>2026-04-03T16:28:23.963Z</time></trkpt><trkpt lat="45.81319596020751" lon="9.812979181646963"><ele>607.0</ele><time>2026-04-03T16:28:24.964Z</time></trkpt><trkpt lat="45.81325215514417" lon="9.812905415094312"><ele>607.0</ele><time>2026-04-03T16:28:26.964Z</time></trkpt><trkpt lat="45.81335253024145" lon="9.812872472117348"><ele>607.0</ele><time>2026-04-03T16:28:27.963Z</time></trkpt><trkpt lat="45.813419761240446" lon="9.812817277087447"><ele>607.0</ele><time>2026-04-03T16:28:28.963Z</time></trkpt><trkpt lat="45.81350021992105" lon="9.81275354138102"><ele>607.0</ele><time>2026-04-03T16:28:30.963Z</time></trkpt><trkpt lat="45.81352484205965" lon="9.812632350422305"><ele>607.0</ele><time>2026-04-03T16:28:32.963Z</time></trkpt><trkpt lat="45.81348995740226" lon="9.812441169453791"><ele>607.0</ele><time>2026-04-03T16:28:34.964Z</time></trkpt><trkpt lat="45.81346175809357" lon="9.812291603992945"><ele>608.25</ele><time>2026-04-03T16:28:35.963Z</time></trkpt><trkpt lat="45.8134350240339" lon="9.812122460317177"><ele>609.5</ele><time>2026-04-03T16:28:36.963Z</time></trkpt><trkpt lat="45.813406678450576" lon="9.811918119734639"><ele>610.75</ele><time>2026-04-03T16:28:37.963Z</time></trkpt><trkpt lat="45.81341183370413" lon="9.811776776075318"><ele>612.0</ele><time>2026-04-03T16:28:38.963Z</time></trkpt><trkpt lat="45.813432625426614" lon="9.811634082739246"><ele>612.0</ele><time>2026-04-03T16:28:39.963Z</time></trkpt><trkpt lat="45.81347580866618" lon="9.811512947246367"><ele>612.0</ele><time>2026-04-03T16:28:40.963Z</time></trkpt><trkpt lat="45.81348321709821" lon="9.811384865815219"><ele>612.0</ele><time>2026-04-03T16:28:41.963Z</time></trkpt><trkpt lat="45.81350480464671" lon="9.811191121832788"><ele>612.0</ele><time>2026-04-03T16:28:42.963Z</time></trkpt><trkpt lat="45.81350526398325" lon="9.810974412235081"><ele>611.6666666666666</ele><time>2026-04-03T16:28:43.963Z</time></trkpt><trkpt lat="45.81349390152102" lon="9.810744855440483"><ele>611.3333333333333</ele><time>2026-04-03T16:28:44.963Z</time></trkpt><trkpt lat="45.81348654271247" lon="9.810512172197425"><ele>611.0</ele><time>2026-04-03T16:28:45.963Z</time></trkpt><trkpt lat="45.81346329953391" lon="9.810237563796408"><ele>612.8</ele><time>2026-04-03T16:28:46.963Z</time></trkpt><trkpt lat="45.81345284018838" lon="9.810010270055356"><ele>614.6</ele><time>2026-04-03T16:28:47.963Z</time></trkpt><trkpt lat="45.81344974119544" lon="9.80985300025063"><ele>616.4</ele><time>2026-04-03T16:28:48.963Z</time></trkpt><trkpt lat="45.813484385484834" lon="9.80971548851308"><ele>618.2</ele><time>2026-04-03T16:28:49.963Z</time></trkpt><trkpt lat="45.813470891511834" lon="9.809616029281798"><ele>620.0</ele><time>2026-04-03T16:28:51.963Z</time></trkpt><trkpt lat="45.81363417791773" lon="9.809699622962137"><ele>621.5</ele><time>2026-04-03T16:28:53.963Z</time></trkpt><trkpt lat="45.81374052205197" lon="9.809688583054267"><ele>623.0</ele><time>2026-04-03T16:28:55.963Z</time></trkpt><trkpt lat="45.8138322768401" lon="9.809536019790835"><ele>624.5</ele><time>2026-04-03T16:28:57.963Z</time></trkpt><trkpt lat="45.813909346447865" lon="9.80942955784864"><ele>626.0</ele><time>2026-04-03T16:28:58.963Z</time></trkpt><trkpt lat="45.8140260796605" lon="9.80928356193558"><ele>626.0</ele><time>2026-04-03T16:29:00.963Z</time></trkpt><trkpt lat="45.81412126865231" lon="9.809258608232778"><ele>626.0</ele><time>2026-04-03T16:29:01.963Z</time></trkpt><trkpt lat="45.81419047810448" lon="9.809249921219376"><ele>626.0</ele><time>2026-04-03T16:29:02.963Z</time></trkpt><trkpt lat="45.81426557263119" lon="9.80923607964193"><ele>626.0</ele><time>2026-04-03T16:29:03.963Z</time></trkpt><trkpt lat="45.814390423834176" lon="9.809255524969892"><ele>626.0</ele><time>2026-04-03T16:29:05.963Z</time></trkpt><trkpt lat="45.814466140591044" lon="9.809197362521086"><ele>621.6</ele><time>2026-04-03T16:29:06.963Z</time></trkpt><trkpt lat="45.81453935087402" lon="9.809110566076056"><ele>617.2</ele><time>2026-04-03T16:29:07.963Z</time></trkpt><trkpt lat="45.81459972495747" lon="9.809004904719782"><ele>612.8</ele><time>2026-04-03T16:29:08.963Z</time></trkpt><trkpt lat="45.81465317059676" lon="9.80885620575862"><ele>608.4</ele><time>2026-04-03T16:29:09.963Z</time></trkpt><trkpt lat="45.81472645993193" lon="9.808737171159182"><ele>604.0</ele><time>2026-04-03T16:29:10.963Z</time></trkpt><trkpt lat="45.81481061675156" lon="9.80863366377051"><ele>604.0</ele><time>2026-04-03T16:29:11.962Z</time></trkpt><trkpt lat="45.81489831414645" lon="9.808550070997898"><ele>604.0</ele><time>2026-04-03T16:29:12.962Z</time></trkpt><trkpt lat="45.81499851390391" lon="9.808464097973667"><ele>604.0</ele><time>2026-04-03T16:29:13.962Z</time></trkpt><trkpt lat="45.81504995023801" lon="9.808351443034606"><ele>604.0</ele><time>2026-04-03T16:29:14.962Z</time></trkpt><trkpt lat="45.81510485881818" lon="9.808205819236658"><ele>604.0</ele><time>2026-04-03T16:29:15.962Z</time></trkpt><trkpt lat="45.81512857291118" lon="9.808096700133945"><ele>609.6</ele><time>2026-04-03T16:29:16.962Z</time></trkpt><trkpt lat="45.81515615832079" lon="9.808004775881574"><ele>615.2</ele><time>2026-04-03T16:29:17.962Z</time></trkpt><trkpt lat="45.81516413360738" lon="9.807830960295655"><ele>620.8000000000001</ele><time>2026-04-03T16:29:19.962Z</time></trkpt><trkpt lat="45.81512552780258" lon="9.807695570200183"><ele>626.4</ele><time>2026-04-03T16:29:20.962Z</time></trkpt><trkpt lat="45.81509038315185" lon="9.807517802976564"><ele>632.0</ele><time>2026-04-03T16:29:21.962Z</time></trkpt><trkpt lat="45.81505547398857" lon="9.807351551044908"><ele>635.8</ele><time>2026-04-03T16:29:22.962Z</time></trkpt><trkpt lat="45.815039027525884" lon="9.807212506003339"><ele>639.6</ele><time>2026-04-03T16:29:23.962Z</time></trkpt><trkpt lat="45.81502573251566" lon="9.807082442142748"><ele>643.4</ele><time>2026-04-03T16:29:24.962Z</time></trkpt><trkpt lat="45.815019974215595" lon="9.80693220578821"><ele>647.1999999999999</ele><time>2026-04-03T16:29:25.962Z</time></trkpt><trkpt lat="45.81503755379533" lon="9.806729606408771"><ele>651.0</ele><time>2026-04-03T16:29:26.962Z</time></trkpt><trkpt lat="45.81504430316948" lon="9.806543261568546"><ele>651.5</ele><time>2026-04-03T16:29:27.962Z</time></trkpt><trkpt lat="45.81502697501603" lon="9.806423828264377"><ele>652.0</ele><time>2026-04-03T16:29:28.962Z</time></trkpt><trkpt lat="45.81498936126616" lon="9.806256619128597"><ele>652.5</ele><time>2026-04-03T16:29:29.962Z</time></trkpt><trkpt lat="45.814930709860384" lon="9.80607434832505"><ele>653.0</ele><time>2026-04-03T16:29:30.962Z</time></trkpt><trkpt lat="45.81484034089324" lon="9.805856376356473"><ele>649.6666666666666</ele><time>2026-04-03T16:29:31.962Z</time></trkpt><trkpt lat="45.81477712992232" lon="9.805636499711142"><ele>646.3333333333334</ele><time>2026-04-03T16:29:32.962Z</time></trkpt><trkpt lat="45.81470120307021" lon="9.805407395194358"><ele>643.0</ele><time>2026-04-03T16:29:33.962Z</time></trkpt><trkpt lat="45.8146157193527" lon="9.805255558548842"><ele>644.4</ele><time>2026-04-03T16:29:34.962Z</time></trkpt><trkpt lat="45.81457396185134" lon="9.805152589077885"><ele>645.8</ele><time>2026-04-03T16:29:35.962Z</time></trkpt><trkpt lat="45.81452941436635" lon="9.805057772920247"><ele>647.2</ele><time>2026-04-03T16:29:37.962Z</time></trkpt><trkpt lat="45.81464411924651" lon="9.804999362505267"><ele>648.6</ele><time>2026-04-03T16:29:39.962Z</time></trkpt><trkpt lat="45.81471846488167" lon="9.805014272208096"><ele>650.0</ele><time>2026-04-03T16:29:40.962Z</time></trkpt><trkpt lat="45.81481741030446" lon="9.805030391026735"><ele>650.0</ele><time>2026-04-03T16:29:41.962Z</time></trkpt><trkpt lat="45.8149796765383" lon="9.805033838119021"><ele>650.0</ele><time>2026-04-03T16:29:42.962Z</time></trkpt><trkpt lat="45.81515278962712" lon="9.80505053841449"><ele>650.0</ele><time>2026-04-03T16:29:43.962Z</time></trkpt><trkpt lat="45.815265458562024" lon="9.80503540773759"><ele>650.0</ele><time>2026-04-03T16:29:44.962Z</time></trkpt><trkpt lat="45.81537076925563" lon="9.805000732969127"><ele>644.0</ele><time>2026-04-03T16:29:45.962Z</time></trkpt><trkpt lat="45.81544447305101" lon="9.804918422098234"><ele>638.0</ele><time>2026-04-03T16:29:46.962Z</time></trkpt><trkpt lat="45.815521781230295" lon="9.80478880797408"><ele>632.0</ele><time>2026-04-03T16:29:47.962Z</time></trkpt><trkpt lat="45.81561552486517" lon="9.804660686077716"><ele>626.0</ele><time>2026-04-03T16:29:48.962Z</time></trkpt><trkpt lat="45.815666309941896" lon="9.804519578207552"><ele>621.25</ele><time>2026-04-03T16:29:49.962Z</time></trkpt><trkpt lat="45.815708883331205" lon="9.804323705733408"><ele>616.5</ele><time>2026-04-03T16:29:50.962Z</time></trkpt><trkpt lat="45.81578195546042" lon="9.80418578682573"><ele>611.75</ele><time>2026-04-03T16:29:51.962Z</time></trkpt><trkpt lat="45.81587421997416" lon="9.804098166248597"><ele>607.0</ele><time>2026-04-03T16:29:52.962Z</time></trkpt><trkpt lat="45.81599057483905" lon="9.804028118385608"><ele>607.0</ele><time>2026-04-03T16:29:53.962Z</time></trkpt><trkpt lat="45.81606662017776" lon="9.80393363295887"><ele>607.0</ele><time>2026-04-03T16:29:54.961Z</time></trkpt><trkpt lat="45.816114249542444" lon="9.803863142356178"><ele>607.0</ele><time>2026-04-03T16:29:55.961Z</time></trkpt><trkpt lat="45.81613870992388" lon="9.803730639301305"><ele>607.0</ele><time>2026-04-03T16:29:56.961Z</time></trkpt><trkpt lat="45.816160824456645" lon="9.803598541292603"><ele>607.0</ele><time>2026-04-03T16:29:57.961Z</time></trkpt><trkpt lat="45.81617305729671" lon="9.803475163059888"><ele>607.0</ele><time>2026-04-03T16:29:58.961Z</time></trkpt><trkpt lat="45.81614120160345" lon="9.8033242119379"><ele>609.4</ele><time>2026-04-03T16:29:59.961Z</time></trkpt><trkpt lat="45.81609551896077" lon="9.803180524660744"><ele>611.8000000000001</ele><time>2026-04-03T16:30:00.961Z</time></trkpt><trkpt lat="45.81603495065832" lon="9.803046853166377"><ele>614.2</ele><time>2026-04-03T16:30:01.961Z</time></trkpt><trkpt lat="45.815971973843396" lon="9.802983405916722"><ele>616.6</ele><time>2026-04-03T16:30:02.961Z</time></trkpt><trkpt lat="45.815901000246505" lon="9.802930157856915"><ele>619.0</ele><time>2026-04-03T16:30:03.961Z</time></trkpt><trkpt lat="45.815792844921766" lon="9.802877209034838"><ele>631.5</ele><time>2026-04-03T16:30:04.961Z</time></trkpt><trkpt lat="45.81567806105751" lon="9.80276389649985"><ele>644.0</ele><time>2026-04-03T16:30:05.961Z</time></trkpt><trkpt lat="45.81556641904329" lon="9.802631240700423"><ele>656.5</ele><time>2026-04-03T16:30:06.961Z</time></trkpt><trkpt lat="45.81546253787376" lon="9.802535226771758"><ele>669.0</ele><time>2026-04-03T16:30:07.961Z</time></trkpt><trkpt lat="45.815375869516835" lon="9.802447587288317"><ele>669.0</ele><time>2026-04-03T16:30:08.961Z</time></trkpt><trkpt lat="45.815310204083055" lon="9.802379028887215"><ele>669.0</ele><time>2026-04-03T16:30:09.961Z</time></trkpt><trkpt lat="45.815264501901964" lon="9.802302095965072"><ele>669.0</ele><time>2026-04-03T16:30:10.961Z</time></trkpt><trkpt lat="45.815232141496566" lon="9.80221338419481"><ele>669.0</ele><time>2026-04-03T16:30:11.961Z</time></trkpt><trkpt lat="45.81533226674443" lon="9.802106425629558"><ele>669.0</ele><time>2026-04-03T16:30:14.961Z</time></trkpt><trkpt lat="45.81537614502041" lon="9.802006301193625"><ele>669.0</ele><time>2026-04-03T16:30:15.961Z</time></trkpt><trkpt lat="45.815445226761184" lon="9.801985679688935"><ele>669.0</ele><time>2026-04-03T16:30:17.961Z</time></trkpt><trkpt lat="45.81552679997258" lon="9.801967461699967"><ele>669.0</ele><time>2026-04-03T16:30:18.961Z</time></trkpt><trkpt lat="45.815640418914114" lon="9.801913180412516"><ele>669.0</ele><time>2026-04-03T16:30:20.961Z</time></trkpt><trkpt lat="45.8156882536761" lon="9.801802112472663"><ele>669.0</ele><time>2026-04-03T16:30:21.961Z</time></trkpt><trkpt lat="45.815719133223226" lon="9.801613754026988"><ele>669.0</ele><time>2026-04-03T16:30:22.961Z</time></trkpt><trkpt lat="45.8157405756125" lon="9.801452510256402"><ele>670.2</ele><time>2026-04-03T16:30:23.961Z</time></trkpt><trkpt lat="45.81577501018182" lon="9.80134910924727"><ele>671.4000000000001</ele><time>2026-04-03T16:30:24.961Z</time></trkpt><trkpt lat="45.815819866911085" lon="9.801278327037135"><ele>672.6</ele><time>2026-04-03T16:30:25.961Z</time></trkpt><trkpt lat="45.81590773523904" lon="9.801225926671032"><ele>673.8</ele><time>2026-04-03T16:30:26.961Z</time></trkpt><trkpt lat="45.81600888779828" lon="9.801169465555398"><ele>675.0</ele><time>2026-04-03T16:30:27.961Z</time></trkpt><trkpt lat="45.81610229905107" lon="9.801057259192119"><ele>673.0</ele><time>2026-04-03T16:30:28.967Z</time></trkpt><trkpt lat="45.816183622811785" lon="9.800907721324956"><ele>671.0</ele><time>2026-04-03T16:30:29.967Z</time></trkpt><trkpt lat="45.816212707878734" lon="9.800696757491918"><ele>669.0</ele><time>2026-04-03T16:30:30.967Z</time></trkpt><trkpt lat="45.81625882293285" lon="9.800528234477113"><ele>667.0</ele><time>2026-04-03T16:30:31.967Z</time></trkpt><trkpt lat="45.81629138810103" lon="9.800411391842227"><ele>667.0</ele><time>2026-04-03T16:30:32.967Z</time></trkpt><trkpt lat="45.816296043123515" lon="9.80032052182257"><ele>667.0</ele><time>2026-04-03T16:30:33.967Z</time></trkpt><trkpt lat="45.816264114339575" lon="9.80022654280225"><ele>667.0</ele><time>2026-04-03T16:30:34.967Z</time></trkpt><trkpt lat="45.81620372445439" lon="9.800154306377767"><ele>667.0</ele><time>2026-04-03T16:30:35.967Z</time></trkpt><trkpt lat="45.81612742607661" lon="9.80009814103674"><ele>667.0</ele><time>2026-04-03T16:30:36.967Z</time></trkpt><trkpt lat="45.81601642804576" lon="9.800077239816058"><ele>667.0</ele><time>2026-04-03T16:30:37.967Z</time></trkpt><trkpt lat="45.815903862346374" lon="9.800078120013337"><ele>675.25</ele><time>2026-04-03T16:30:38.967Z</time></trkpt><trkpt lat="45.81576649342928" lon="9.800076262172073"><ele>683.5</ele><time>2026-04-03T16:30:39.967Z</time></trkpt><trkpt lat="45.81563803669825" lon="9.800072802882845"><ele>691.75</ele><time>2026-04-03T16:30:40.967Z</time></trkpt><trkpt lat="45.815541738567134" lon="9.80006127973971"><ele>700.0</ele><time>2026-04-03T16:30:41.968Z</time></trkpt><trkpt lat="45.8154548512118" lon="9.800028180665052"><ele>700.0</ele><time>2026-04-03T16:30:42.968Z</time></trkpt><trkpt lat="45.81537426006009" lon="9.799900857709318"><ele>700.0</ele><time>2026-04-03T16:30:43.968Z</time></trkpt><trkpt lat="45.81527980927238" lon="9.799776647672651"><ele>700.0</ele><time>2026-04-03T16:30:44.968Z</time></trkpt><trkpt lat="45.81519418717863" lon="9.799661157825874"><ele>700.0</ele><time>2026-04-03T16:30:45.968Z</time></trkpt><trkpt lat="45.815096448236005" lon="9.799569724554983"><ele>702.5</ele><time>2026-04-03T16:30:46.968Z</time></trkpt><trkpt lat="45.81503608074985" lon="9.799500988706079"><ele>705.0</ele><time>2026-04-03T16:30:47.968Z</time></trkpt><trkpt lat="45.81496632109512" lon="9.799422144890974"><ele>707.5</ele><time>2026-04-03T16:30:49.968Z</time></trkpt><trkpt lat="45.81489576033772" lon="9.799377565998618"><ele>710.0</ele><time>2026-04-03T16:30:51.968Z</time></trkpt><trkpt lat="45.81483107482493" lon="9.799299344203634"><ele>712.5</ele><time>2026-04-03T16:30:53.967Z</time></trkpt><trkpt lat="45.81488259710782" lon="9.799172503654919"><ele>715.0</ele><time>2026-04-03T16:30:55.967Z</time></trkpt><trkpt lat="45.81495093217473" lon="9.799068808614704"><ele>715.0</ele><time>2026-04-03T16:30:57.967Z</time></trkpt><trkpt lat="45.81502444096757" lon="9.798958437798133"><ele>715.0</ele><time>2026-04-03T16:30:58.967Z</time></trkpt><trkpt lat="45.81513222218973" lon="9.798822813270393"><ele>715.0</ele><time>2026-04-03T16:30:59.967Z</time></trkpt><trkpt lat="45.81513318109408" lon="9.798697229214218"><ele>715.0</ele><time>2026-04-03T16:31:01.967Z</time></trkpt><trkpt lat="45.81506742408698" lon="9.798557650261621"><ele>715.0</ele><time>2026-04-03T16:31:02.967Z</time></trkpt><trkpt lat="45.81500711961579" lon="9.798521868810578"><ele>715.0</ele><time>2026-04-03T16:31:03.967Z</time></trkpt><trkpt lat="45.814950955257096" lon="9.79846902809598"><ele>715.0</ele><time>2026-04-03T16:31:05.967Z</time></trkpt><trkpt lat="45.81487837237565" lon="9.798436287001971"><ele>715.0</ele><time>2026-04-03T16:31:07.967Z</time></trkpt><trkpt lat="45.81476309457328" lon="9.798496890347073"><ele>715.0</ele><time>2026-04-03T16:31:09.967Z</time></trkpt><trkpt lat="45.814689521803466" lon="9.798574551876134"><ele>715.0</ele><time>2026-04-03T16:31:10.967Z</time></trkpt><trkpt lat="45.81461404460657" lon="9.79865928381593"><ele>715.0</ele><time>2026-04-03T16:31:11.967Z</time></trkpt><trkpt lat="45.814528819188276" lon="9.798739862122835"><ele>715.0</ele><time>2026-04-03T16:31:12.967Z</time></trkpt><trkpt lat="45.81444920977299" lon="9.798829990326395"><ele>715.0</ele><time>2026-04-03T16:31:13.967Z</time></trkpt><trkpt lat="45.814279069602435" lon="9.798946656240856"><ele>715.0</ele><time>2026-04-03T16:31:15.967Z</time></trkpt><trkpt lat="45.81420260472338" lon="9.798975346875602"><ele>721.0</ele><time>2026-04-03T16:31:16.967Z</time></trkpt><trkpt lat="45.81407860695927" lon="9.798996057479343"><ele>727.0</ele><time>2026-04-03T16:31:18.967Z</time></trkpt><trkpt lat="45.81399389956691" lon="9.79897212876114"><ele>733.0</ele><time>2026-04-03T16:31:19.967Z</time></trkpt><trkpt lat="45.81392734082708" lon="9.798940671488346"><ele>739.0</ele><time>2026-04-03T16:31:20.967Z</time></trkpt><trkpt lat="45.81378114188141" lon="9.798892581266283"><ele>745.0</ele><time>2026-04-03T16:31:22.967Z</time></trkpt><trkpt lat="45.813688673636335" lon="9.798875507983784"><ele>745.0</ele><time>2026-04-03T16:31:23.967Z</time></trkpt><trkpt lat="45.813586989202825" lon="9.798844354345984"><ele>745.0</ele><time>2026-04-03T16:31:24.967Z</time></trkpt><trkpt lat="45.81348582222601" lon="9.798819163439026"><ele>745.0</ele><time>2026-04-03T16:31:25.967Z</time></trkpt><trkpt lat="45.81346843620711" lon="9.798676606138516"><ele>745.0</ele><time>2026-04-03T16:31:27.967Z</time></trkpt><trkpt lat="45.81348716238617" lon="9.798544269784886"><ele>745.0</ele><time>2026-04-03T16:31:28.967Z</time></trkpt><trkpt lat="45.813474022209704" lon="9.79840260129854"><ele>752.25</ele><time>2026-04-03T16:31:29.967Z</time></trkpt><trkpt lat="45.81344591041784" lon="9.798300369634054"><ele>759.5</ele><time>2026-04-03T16:31:30.967Z</time></trkpt><trkpt lat="45.8133265156364" lon="9.798156947406408"><ele>766.75</ele><time>2026-04-03T16:31:31.967Z</time></trkpt><trkpt lat="45.81324283442144" lon="9.797992899421448"><ele>774.0</ele><time>2026-04-03T16:31:32.967Z</time></trkpt><trkpt lat="45.813157601116956" lon="9.797836942006967"><ele>774.0</ele><time>2026-04-03T16:31:33.967Z</time></trkpt><trkpt lat="45.81306481668411" lon="9.797695682126134"><ele>774.0</ele><time>2026-04-03T16:31:34.967Z</time></trkpt><trkpt lat="45.813060456102846" lon="9.797597450943597"><ele>774.0</ele><time>2026-04-03T16:31:35.967Z</time></trkpt><trkpt lat="45.8130531190523" lon="9.797408444556362"><ele>774.0</ele><time>2026-04-03T16:31:37.966Z</time></trkpt><trkpt lat="45.81301765850977" lon="9.797281628368154"><ele>774.0</ele><time>2026-04-03T16:31:38.966Z</time></trkpt><trkpt lat="45.81298651259111" lon="9.797188644452865"><ele>771.25</ele><time>2026-04-03T16:31:39.966Z</time></trkpt><trkpt lat="45.81294604522738" lon="9.79704892103046"><ele>768.5</ele><time>2026-04-03T16:31:40.966Z</time></trkpt><trkpt lat="45.812900086657635" lon="9.796841316465889"><ele>765.75</ele><time>2026-04-03T16:31:41.966Z</time></trkpt><trkpt lat="45.812831831880594" lon="9.796736822116815"><ele>763.0</ele><time>2026-04-03T16:31:42.966Z</time></trkpt><trkpt lat="45.81271920750166" lon="9.796613080643727"><ele>773.5</ele><time>2026-04-03T16:31:43.966Z</time></trkpt><trkpt lat="45.81263022795196" lon="9.796533775261015"><ele>784.0</ele><time>2026-04-03T16:31:44.966Z</time></trkpt><trkpt lat="45.81254377872287" lon="9.796416610800721"><ele>794.5</ele><time>2026-04-03T16:31:45.966Z</time></trkpt><trkpt lat="45.81244986903202" lon="9.796280137048306"><ele>805.0</ele><time>2026-04-03T16:31:46.966Z</time></trkpt><trkpt lat="45.81234887802373" lon="9.796180883031308"><ele>805.0</ele><time>2026-04-03T16:31:47.966Z</time></trkpt><trkpt lat="45.81224559244354" lon="9.796059999319803"><ele>805.0</ele><time>2026-04-03T16:31:48.966Z</time></trkpt><trkpt lat="45.81217773526772" lon="9.795961156937926"><ele>805.0</ele><time>2026-04-03T16:31:49.966Z</time></trkpt><trkpt lat="45.81208983887546" lon="9.795815330725476"><ele>805.0</ele><time>2026-04-03T16:31:50.966Z</time></trkpt><trkpt lat="45.812016615517244" lon="9.79567571034998"><ele>802.5</ele><time>2026-04-03T16:31:51.966Z</time></trkpt><trkpt lat="45.81195503666338" lon="9.795485567792053"><ele>800.0</ele><time>2026-04-03T16:31:52.966Z</time></trkpt><trkpt lat="45.81187136405846" lon="9.795309019899552"><ele>797.5</ele><time>2026-04-03T16:31:53.966Z</time></trkpt><trkpt lat="45.81178266233334" lon="9.79519069450714"><ele>795.0</ele><time>2026-04-03T16:31:54.966Z</time></trkpt><trkpt lat="45.811683639881444" lon="9.795076409758144"><ele>799.5</ele><time>2026-04-03T16:31:55.966Z</time></trkpt><trkpt lat="45.81160993583926" lon="9.794978957054184"><ele>804.0</ele><time>2026-04-03T16:31:56.966Z</time></trkpt><trkpt lat="45.81155169914097" lon="9.794933348660242"><ele>808.5</ele><time>2026-04-03T16:31:57.966Z</time></trkpt><trkpt lat="45.81149285552199" lon="9.794842319273506"><ele>813.0</ele><time>2026-04-03T16:31:59.966Z</time></trkpt><trkpt lat="45.811456925796165" lon="9.794751113403624"><ele>817.5</ele><time>2026-04-03T16:32:01.966Z</time></trkpt><trkpt lat="45.81141989174396" lon="9.794594016065258"><ele>822.0</ele><time>2026-04-03T16:32:03.883Z</time></trkpt><trkpt lat="45.811436921301244" lon="9.794503841988465"><ele>822.0</ele><time>2026-04-03T16:32:08.883Z</time></trkpt><trkpt lat="45.811402363675796" lon="9.794428072001264"><ele>822.0</ele><time>2026-04-03T16:32:12.883Z</time></trkpt><trkpt lat="45.81134397299448" lon="9.794353133046286"><ele>822.0</ele><time>2026-04-03T16:32:15.883Z</time></trkpt><trkpt lat="45.81132532783513" lon="9.794257414385696"><ele>822.0</ele><time>2026-04-03T16:32:17.882Z</time></trkpt><trkpt lat="45.81126317172039" lon="9.794196845820261"><ele>822.0</ele><time>2026-04-03T16:32:20.882Z</time></trkpt><trkpt lat="45.81120995407303" lon="9.794132391549963"><ele>822.0</ele><time>2026-04-03T16:32:23.882Z</time></trkpt><trkpt lat="45.811145801779176" lon="9.794066574764132"><ele>822.0</ele><time>2026-04-03T16:32:26.882Z</time></trkpt><trkpt lat="45.81111172525768" lon="9.793960404325055"><ele>823.3333333333334</ele><time>2026-04-03T16:32:29.882Z</time></trkpt><trkpt lat="45.811051146976325" lon="9.793932603111315"><ele>824.6666666666667</ele><time>2026-04-03T16:32:32.882Z</time></trkpt><trkpt lat="45.81100191182172" lon="9.793858982522831"><ele>826.0</ele><time>2026-04-03T16:32:35.887Z</time></trkpt><trkpt lat="45.81093140917626" lon="9.793818733386356"><ele>827.3333333333334</ele><time>2026-04-03T16:32:43.887Z</time></trkpt><trkpt lat="45.81083312101634" lon="9.793812074659117"><ele>828.6666666666667</ele><time>2026-04-03T16:32:52.887Z</time></trkpt><trkpt lat="45.810808157117606" lon="9.793716322508859"><ele>830.0</ele><time>2026-04-03T16:33:01.887Z</time></trkpt><trkpt lat="45.81073950809646" lon="9.79363658548053"><ele>834.0000000000001</ele><time>2026-04-03T16:33:04.887Z</time></trkpt><trkpt lat="45.81067470241591" lon="9.793543356734686"><ele>838.0</ele><time>2026-04-03T16:33:12.886Z</time></trkpt><trkpt lat="45.81067481342624" lon="9.7934421501472"><ele>842.0</ele><time>2026-04-03T16:33:14.886Z</time></trkpt><trkpt lat="45.81063478402747" lon="9.79333194563884"><ele>846.0</ele><time>2026-04-03T16:33:17.886Z</time></trkpt><trkpt lat="45.81060781603896" lon="9.793228834448783"><ele>850.0000000000001</ele><time>2026-04-03T16:33:20.886Z</time></trkpt><trkpt lat="45.81056159557874" lon="9.793123244857671"><ele>854.0</ele><time>2026-04-03T16:33:23.886Z</time></trkpt><trkpt lat="45.81053983246655" lon="9.793034798714878"><ele>854.4285714285714</ele><time>2026-04-03T16:33:26.886Z</time></trkpt><trkpt lat="45.81048177595543" lon="9.792992904961137"><ele>854.8571428571429</ele><time>2026-04-03T16:33:39.885Z</time></trkpt><trkpt lat="45.810419805015215" lon="9.793011171304569"><ele>855.2857142857142</ele><time>2026-04-03T16:33:41.885Z</time></trkpt><trkpt lat="45.810345974378116" lon="9.793034803765778"><ele>855.7142857142858</ele><time>2026-04-03T16:33:43.885Z</time></trkpt><trkpt lat="45.8102640485318" lon="9.793030714895627"><ele>856.1428571428571</ele><time>2026-04-03T16:33:47.885Z</time></trkpt><trkpt lat="45.81019804643526" lon="9.79306489674065"><ele>856.5714285714286</ele><time>2026-04-03T16:33:51.885Z</time></trkpt><trkpt lat="45.81013392878456" lon="9.793128977250438"><ele>857.0</ele><time>2026-04-03T16:33:55.884Z</time></trkpt><trkpt lat="45.81006988660868" lon="9.79319793901973"><ele>861.6666666666667</ele><time>2026-04-03T16:33:58.884Z</time></trkpt><trkpt lat="45.81000328975275" lon="9.793226149058292"><ele>866.3333333333334</ele><time>2026-04-03T16:34:02.884Z</time></trkpt><trkpt lat="45.80993481669834" lon="9.793189647227452"><ele>871.0</ele><time>2026-04-03T16:34:04.884Z</time></trkpt><trkpt lat="45.80985253051334" lon="9.79313242464266"><ele>875.6666666666667</ele><time>2026-04-03T16:34:08.884Z</time></trkpt><trkpt lat="45.80976121641141" lon="9.79312183411658"><ele>880.3333333333334</ele><time>2026-04-03T16:34:11.884Z</time></trkpt><trkpt lat="45.80968389679956" lon="9.793071056540185"><ele>885.0</ele><time>2026-04-03T16:34:13.884Z</time></trkpt><trkpt lat="45.80959992380831" lon="9.793048948085644"><ele>885.0</ele><time>2026-04-03T16:34:15.883Z</time></trkpt><trkpt lat="45.80953126840179" lon="9.792969590012042"><ele>885.0</ele><time>2026-04-03T16:34:17.883Z</time></trkpt><trkpt lat="45.80946208690483" lon="9.792914319646167"><ele>885.0</ele><time>2026-04-03T16:34:20.883Z</time></trkpt><trkpt lat="45.80940115841586" lon="9.792870817942566"><ele>885.0</ele><time>2026-04-03T16:34:28.883Z</time></trkpt><trkpt lat="45.8093329330261" lon="9.792823688776197"><ele>885.0</ele><time>2026-04-03T16:34:32.883Z</time></trkpt><trkpt lat="45.809249666525886" lon="9.792794125701594"><ele>885.0</ele><time>2026-04-03T16:34:35.882Z</time></trkpt><trkpt lat="45.80917645385776" lon="9.792750588632913"><ele>888.2857142857142</ele><time>2026-04-03T16:34:44.888Z</time></trkpt><trkpt lat="45.8091116237688" lon="9.792737803528917"><ele>891.5714285714286</ele><time>2026-04-03T16:34:50.889Z</time></trkpt><trkpt lat="45.80904391623526" lon="9.792751143004079"><ele>894.8571428571429</ele><time>2026-04-03T16:34:54.889Z</time></trkpt><trkpt lat="45.808976065814946" lon="9.792778098028982"><ele>898.1428571428571</ele><time>2026-04-03T16:34:58.889Z</time></trkpt><trkpt lat="45.8089117375098" lon="9.792735209440883"><ele>901.4285714285716</ele><time>2026-04-03T16:35:03.888Z</time></trkpt><trkpt lat="45.8088335573349" lon="9.792704724771522"><ele>904.7142857142858</ele><time>2026-04-03T16:35:06.888Z</time></trkpt><trkpt lat="45.80876632515814" lon="9.792679765492693"><ele>908.0</ele><time>2026-04-03T16:35:08.888Z</time></trkpt><trkpt lat="45.80870801355311" lon="9.792571874091891"><ele>908.0000000000001</ele><time>2026-04-03T16:35:13.888Z</time></trkpt><trkpt lat="45.80864226891336" lon="9.792533760366354"><ele>908.0</ele><time>2026-04-03T16:35:15.888Z</time></trkpt><trkpt lat="45.80855212247825" lon="9.792508424074263"><ele>908.0</ele><time>2026-04-03T16:35:17.888Z</time></trkpt><trkpt lat="45.808469915286835" lon="9.792443581678702"><ele>908.0</ele><time>2026-04-03T16:35:19.888Z</time></trkpt><trkpt lat="45.8083937966097" lon="9.792433366678058"><ele>908.0000000000001</ele><time>2026-04-03T16:35:21.887Z</time></trkpt><trkpt lat="45.80830727002416" lon="9.792416064427782"><ele>908.0</ele><time>2026-04-03T16:35:23.887Z</time></trkpt><trkpt lat="45.808226347293775" lon="9.792382910069929"><ele>916.0</ele><time>2026-04-03T16:35:25.887Z</time></trkpt><trkpt lat="45.80812993282082" lon="9.792333157476909"><ele>924.0</ele><time>2026-04-03T16:35:27.887Z</time></trkpt><trkpt lat="45.80803774023854" lon="9.792251548409334"><ele>932.0</ele><time>2026-04-03T16:35:29.887Z</time></trkpt><trkpt lat="45.80797617642459" lon="9.792113062540434"><ele>940.0</ele><time>2026-04-03T16:35:31.887Z</time></trkpt><trkpt lat="45.80793579585815" lon="9.792017727756521"><ele>948.0</ele><time>2026-04-03T16:35:32.887Z</time></trkpt><trkpt lat="45.80791252335581" lon="9.791931891622731"><ele>948.0</ele><time>2026-04-03T16:35:33.887Z</time></trkpt><trkpt lat="45.80785199800839" lon="9.791872932596144"><ele>948.0</ele><time>2026-04-03T16:35:36.887Z</time></trkpt><trkpt lat="45.80777931090748" lon="9.791799315172137"><ele>948.0</ele><time>2026-04-03T16:35:38.887Z</time></trkpt><trkpt lat="45.807721087682694" lon="9.791735362189865"><ele>948.0</ele><time>2026-04-03T16:35:40.887Z</time></trkpt><trkpt lat="45.80765857151889" lon="9.79171693901153"><ele>948.0</ele><time>2026-04-03T16:35:49.886Z</time></trkpt><trkpt lat="45.80759376557444" lon="9.791654432986547"><ele>948.0</ele><time>2026-04-03T16:35:57.886Z</time></trkpt><trkpt lat="45.80750021773115" lon="9.79163494868306"><ele>952.8333333333334</ele><time>2026-04-03T16:35:59.886Z</time></trkpt><trkpt lat="45.80742032750847" lon="9.79161179083377"><ele>957.6666666666667</ele><time>2026-04-03T16:36:01.885Z</time></trkpt><trkpt lat="45.80736890111507" lon="9.791545959387813"><ele>962.5</ele><time>2026-04-03T16:36:03.885Z</time></trkpt><trkpt lat="45.807267289904985" lon="9.79145694494381"><ele>967.3333333333334</ele><time>2026-04-03T16:36:06.885Z</time></trkpt><trkpt lat="45.80722820835084" lon="9.79133848271459"><ele>972.1666666666667</ele><time>2026-04-03T16:36:08.885Z</time></trkpt><trkpt lat="45.80716370578336" lon="9.791257931219931"><ele>977.0</ele><time>2026-04-03T16:36:10.885Z</time></trkpt><trkpt lat="45.80711953531176" lon="9.791162930442473"><ele>977.0</ele><time>2026-04-03T16:36:12.885Z</time></trkpt><trkpt lat="45.80705432552802" lon="9.791115334484397"><ele>977.0</ele><time>2026-04-03T16:36:13.885Z</time></trkpt><trkpt lat="45.806929578440986" lon="9.791066170425683"><ele>977.0</ele><time>2026-04-03T16:36:15.885Z</time></trkpt><trkpt lat="45.80683115972197" lon="9.79101707585753"><ele>977.0</ele><time>2026-04-03T16:36:17.885Z</time></trkpt><trkpt lat="45.80676570580297" lon="9.790953678070915"><ele>977.0</ele><time>2026-04-03T16:36:19.885Z</time></trkpt><trkpt lat="45.80667993786945" lon="9.790853860598014"><ele>980.0000000000001</ele><time>2026-04-03T16:36:21.885Z</time></trkpt><trkpt lat="45.80661971053568" lon="9.790810540899578"><ele>983.0</ele><time>2026-04-03T16:36:22.884Z</time></trkpt><trkpt lat="45.80656398686894" lon="9.790755343373515"><ele>986.0</ele><time>2026-04-03T16:36:24.884Z</time></trkpt><trkpt lat="45.80652962428558" lon="9.79063668126922"><ele>989.0</ele><time>2026-04-03T16:36:26.884Z</time></trkpt><trkpt lat="45.80645764418293" lon="9.790548785515455"><ele>992.0000000000001</ele><time>2026-04-03T16:36:28.884Z</time></trkpt><trkpt lat="45.806398819723896" lon="9.790451164906875"><ele>995.0</ele><time>2026-04-03T16:36:31.884Z</time></trkpt><trkpt lat="45.806348439168374" lon="9.790344515298393"><ele>995.0</ele><time>2026-04-03T16:36:33.884Z</time></trkpt><trkpt lat="45.80626898187886" lon="9.790185143837679"><ele>995.0</ele><time>2026-04-03T16:36:35.884Z</time></trkpt><trkpt lat="45.80622451906709" lon="9.790061532257027"><ele>995.0</ele><time>2026-04-03T16:36:37.884Z</time></trkpt><trkpt lat="45.80618907524032" lon="9.789960511132431"><ele>995.0</ele><time>2026-04-03T16:36:43.883Z</time></trkpt><trkpt lat="45.8061598343456" lon="9.789865567792827"><ele>995.0</ele><time>2026-04-03T16:36:45.889Z</time></trkpt><trkpt lat="45.80612986415604" lon="9.789780497292789"><ele>992.5000000000001</ele><time>2026-04-03T16:36:46.889Z</time></trkpt><trkpt lat="45.806081666697374" lon="9.789667899691176"><ele>990.0</ele><time>2026-04-03T16:36:48.889Z</time></trkpt><trkpt lat="45.80602929983615" lon="9.789561771222328"><ele>987.5</ele><time>2026-04-03T16:36:50.889Z</time></trkpt><trkpt lat="45.80596611689344" lon="9.789525424667401"><ele>985.0</ele><time>2026-04-03T16:36:52.889Z</time></trkpt><trkpt lat="45.805880562138434" lon="9.789482551823584"><ele>982.5000000000001</ele><time>2026-04-03T16:36:54.889Z</time></trkpt><trkpt lat="45.80584573850479" lon="9.789390411297282"><ele>980.0</ele><time>2026-04-03T16:36:56.889Z</time></trkpt><trkpt lat="45.80583820444621" lon="9.789283291736048"><ele>985.3333333333334</ele><time>2026-04-03T16:37:01.889Z</time></trkpt><trkpt lat="45.80587085738221" lon="9.789192794440755"><ele>990.6666666666667</ele><time>2026-04-03T16:37:05.889Z</time></trkpt><trkpt lat="45.80586028008027" lon="9.789065486569653"><ele>996.0</ele><time>2026-04-03T16:37:08.889Z</time></trkpt><trkpt lat="45.80584029397407" lon="9.78895561537227"><ele>1001.3333333333333</ele><time>2026-04-03T16:37:10.889Z</time></trkpt><trkpt lat="45.805803143756464" lon="9.788847028464156"><ele>1006.6666666666666</ele><time>2026-04-03T16:37:13.888Z</time></trkpt><trkpt lat="45.805747371840795" lon="9.788798845291764"><ele>1012.0</ele><time>2026-04-03T16:37:16.888Z</time></trkpt><trkpt lat="45.805674306676735" lon="9.788783665241514"><ele>1012.0</ele><time>2026-04-03T16:37:21.888Z</time></trkpt><trkpt lat="45.805576926116544" lon="9.788715317458038"><ele>1012.0</ele><time>2026-04-03T16:37:24.888Z</time></trkpt><trkpt lat="45.805526312469816" lon="9.788641396711535"><ele>1012.0</ele><time>2026-04-03T16:37:26.888Z</time></trkpt><trkpt lat="45.8054854939836" lon="9.788498087064115"><ele>1012.0</ele><time>2026-04-03T16:37:28.888Z</time></trkpt><trkpt lat="45.80548654378179" lon="9.788348856629222"><ele>1012.0</ele><time>2026-04-03T16:37:30.888Z</time></trkpt><trkpt lat="45.80553729760142" lon="9.788190481576855"><ele>1012.0</ele><time>2026-04-03T16:37:32.888Z</time></trkpt><trkpt lat="45.80554292465517" lon="9.78803853928913"><ele>1012.0</ele><time>2026-04-03T16:37:34.887Z</time></trkpt><trkpt lat="45.80546829332555" lon="9.787941398846995"><ele>1012.0</ele><time>2026-04-03T16:37:38.887Z</time></trkpt><trkpt lat="45.80543528109443" lon="9.788040243239728"><ele>1012.0</ele><time>2026-04-03T16:37:42.887Z</time></trkpt><trkpt lat="45.805448504459434" lon="9.78814353067734"><ele>1012.0</ele><time>2026-04-03T16:37:45.887Z</time></trkpt><trkpt lat="45.80535003397985" lon="9.788166289226284"><ele>1011.9999999999999</ele><time>2026-04-03T16:37:47.887Z</time></trkpt><trkpt lat="45.805274272102345" lon="9.788182378487708"><ele>1012.0</ele><time>2026-04-03T16:37:49.887Z</time></trkpt><trkpt lat="45.805226831714904" lon="9.78812098791"><ele>1012.0</ele><time>2026-04-03T16:37:51.887Z</time></trkpt><trkpt lat="45.8051788856339" lon="9.78802928128464"><ele>1012.0</ele><time>2026-04-03T16:37:53.887Z</time></trkpt><trkpt lat="45.80511000740822" lon="9.787912534513062"><ele>1011.9999999999999</ele><time>2026-04-03T16:37:55.886Z</time></trkpt><trkpt lat="45.80502519400696" lon="9.78791170976691"><ele>1012.0</ele><time>2026-04-03T16:37:58.886Z</time></trkpt><trkpt lat="45.804946533484326" lon="9.78790360617121"><ele>1018.4999999999999</ele><time>2026-04-03T16:38:00.886Z</time></trkpt><trkpt lat="45.80487832589257" lon="9.787882085099046"><ele>1025.0</ele><time>2026-04-03T16:38:01.886Z</time></trkpt><trkpt lat="45.8048131925393" lon="9.787887174828658"><ele>1031.5</ele><time>2026-04-03T16:38:05.886Z</time></trkpt><trkpt lat="45.80474616271698" lon="9.787836944572199"><ele>1038.0</ele><time>2026-04-03T16:38:11.886Z</time></trkpt><trkpt lat="45.804667890432114" lon="9.787839350448591"><ele>1044.5</ele><time>2026-04-03T16:38:17.885Z</time></trkpt><trkpt lat="45.80471514030979" lon="9.787899656386186"><ele>1051.0</ele><time>2026-04-03T16:38:24.885Z</time></trkpt><trkpt lat="45.804814573129825" lon="9.787936222297686"><ele>1051.0</ele><time>2026-04-03T16:38:28.885Z</time></trkpt><trkpt lat="45.804865100594945" lon="9.788005552803735"><ele>1051.0</ele><time>2026-04-03T16:38:30.885Z</time></trkpt><trkpt lat="45.80492094777638" lon="9.788065200169767"><ele>1051.0</ele><time>2026-04-03T16:38:32.885Z</time></trkpt><trkpt lat="45.804980403236684" lon="9.788098434228413"><ele>1051.0</ele><time>2026-04-03T16:38:35.884Z</time></trkpt><trkpt lat="45.80507224428927" lon="9.788102736754354"><ele>1051.0</ele><time>2026-04-03T16:38:37.884Z</time></trkpt><trkpt lat="45.805144057045425" lon="9.788095413752144"><ele>1051.0</ele><time>2026-04-03T16:38:38.884Z</time></trkpt><trkpt lat="45.805229607219594" lon="9.788045713773162"><ele>1041.25</ele><time>2026-04-03T16:38:40.884Z</time></trkpt><trkpt lat="45.805201107676105" lon="9.78820826879258"><ele>1031.5</ele><time>2026-04-03T16:38:47.884Z</time></trkpt><trkpt lat="45.80520146315669" lon="9.788326181858992"><ele>1021.75</ele><time>2026-04-03T16:38:48.884Z</time></trkpt><trkpt lat="45.80524363397624" lon="9.788502811977722"><ele>1012.0</ele><time>2026-04-03T16:38:49.884Z</time></trkpt><trkpt lat="45.805291675735866" lon="9.788722017118099"><ele>1012.0</ele><time>2026-04-03T16:38:50.884Z</time></trkpt><trkpt lat="45.80530481076449" lon="9.788913606373857"><ele>1012.0</ele><time>2026-04-03T16:38:51.89Z</time></trkpt><trkpt lat="45.8053029326244" lon="9.789076152404187"><ele>1012.0</ele><time>2026-04-03T16:38:52.89Z</time></trkpt><trkpt lat="45.80529468034069" lon="9.789244548680179"><ele>1012.0</ele><time>2026-04-03T16:38:53.89Z</time></trkpt><trkpt lat="45.80529546830598" lon="9.789379520213688"><ele>1013.3333333333333</ele><time>2026-04-03T16:38:54.89Z</time></trkpt><trkpt lat="45.805277014834715" lon="9.789469892809072"><ele>1014.6666666666666</ele><time>2026-04-03T16:38:55.89Z</time></trkpt><trkpt lat="45.805218374107106" lon="9.789555722508368"><ele>1016.0</ele><time>2026-04-03T16:38:58.89Z</time></trkpt><trkpt lat="45.805264658647445" lon="9.78965635455492"><ele>1017.3333333333333</ele><time>2026-04-03T16:39:00.89Z</time></trkpt><trkpt lat="45.805323799298336" lon="9.789808609540625"><ele>1018.6666666666666</ele><time>2026-04-03T16:39:02.89Z</time></trkpt><trkpt lat="45.805358446557136" lon="9.789886418089894"><ele>1020.0</ele><time>2026-04-03T16:39:03.889Z</time></trkpt><trkpt lat="45.80535647239856" lon="9.78999340603916"><ele>1020.0</ele><time>2026-04-03T16:39:04.89Z</time></trkpt><trkpt lat="45.80534810062667" lon="9.790136690176677"><ele>1020.0</ele><time>2026-04-03T16:39:05.89Z</time></trkpt><trkpt lat="45.80535039539755" lon="9.790293090295203"><ele>1020.0</ele><time>2026-04-03T16:39:06.89Z</time></trkpt><trkpt lat="45.80534321364377" lon="9.790447976624037"><ele>1020.0</ele><time>2026-04-03T16:39:07.89Z</time></trkpt><trkpt lat="45.805336275298885" lon="9.790588633344283"><ele>1020.0</ele><time>2026-04-03T16:39:08.89Z</time></trkpt><trkpt lat="45.80534206975947" lon="9.790773283798679"><ele>1023.5</ele><time>2026-04-03T16:39:09.89Z</time></trkpt><trkpt lat="45.80535841253762" lon="9.790959468451483"><ele>1027.0</ele><time>2026-04-03T16:39:10.89Z</time></trkpt><trkpt lat="45.805403573860765" lon="9.791139053564144"><ele>1030.5</ele><time>2026-04-03T16:39:11.89Z</time></trkpt><trkpt lat="45.80545127537727" lon="9.791289353542584"><ele>1034.0</ele><time>2026-04-03T16:39:12.89Z</time></trkpt><trkpt lat="45.80549413420519" lon="9.791481523204258"><ele>1036.2</ele><time>2026-04-03T16:39:13.89Z</time></trkpt><trkpt lat="45.805552906090654" lon="9.791655090738427"><ele>1038.4</ele><time>2026-04-03T16:39:14.89Z</time></trkpt><trkpt lat="45.80560662289491" lon="9.791803365315479"><ele>1040.6</ele><time>2026-04-03T16:39:15.889Z</time></trkpt><trkpt lat="45.805671728461135" lon="9.79193117690312"><ele>1042.8</ele><time>2026-04-03T16:39:16.889Z</time></trkpt><trkpt lat="45.80572548800547" lon="9.792031408922986"><ele>1045.0</ele><time>2026-04-03T16:39:17.889Z</time></trkpt><trkpt lat="45.8057914690075" lon="9.792060649695232"><ele>1046.6</ele><time>2026-04-03T16:39:18.889Z</time></trkpt><trkpt lat="45.80586018881489" lon="9.792154405121625"><ele>1048.2</ele><time>2026-04-03T16:39:19.889Z</time></trkpt><trkpt lat="45.805925649383184" lon="9.79222228958595"><ele>1049.8</ele><time>2026-04-03T16:39:20.889Z</time></trkpt><trkpt lat="45.80600042302528" lon="9.792329912454717"><ele>1051.4</ele><time>2026-04-03T16:39:21.889Z</time></trkpt><trkpt lat="45.806074465910136" lon="9.792504617861024"><ele>1053.0</ele><time>2026-04-03T16:39:22.889Z</time></trkpt><trkpt lat="45.80613665128654" lon="9.792691813704613"><ele>1053.0</ele><time>2026-04-03T16:39:23.889Z</time></trkpt><trkpt lat="45.806197692840186" lon="9.792843969383009"><ele>1053.0</ele><time>2026-04-03T16:39:24.889Z</time></trkpt><trkpt lat="45.80624674892552" lon="9.792970998410908"><ele>1053.0</ele><time>2026-04-03T16:39:25.889Z</time></trkpt><trkpt lat="45.80630156245077" lon="9.793069083485157"><ele>1053.0</ele><time>2026-04-03T16:39:26.889Z</time></trkpt><trkpt lat="45.806379516678625" lon="9.793200619152785"><ele>1053.0</ele><time>2026-04-03T16:39:27.889Z</time></trkpt><trkpt lat="45.80645948562294" lon="9.793345916214545"><ele>1060.0</ele><time>2026-04-03T16:39:28.889Z</time></trkpt><trkpt lat="45.8065328129684" lon="9.793516745202885"><ele>1067.0</ele><time>2026-04-03T16:39:29.889Z</time></trkpt><trkpt lat="45.80659855683323" lon="9.793656624748822"><ele>1074.0</ele><time>2026-04-03T16:39:30.889Z</time></trkpt><trkpt lat="45.80663200958639" lon="9.793767131004643"><ele>1081.0</ele><time>2026-04-03T16:39:31.889Z</time></trkpt><trkpt lat="45.806681125429314" lon="9.79391359448725"><ele>1081.0</ele><time>2026-04-03T16:39:32.889Z</time></trkpt><trkpt lat="45.80676075813644" lon="9.794023571454595"><ele>1081.0</ele><time>2026-04-03T16:39:33.889Z</time></trkpt><trkpt lat="45.80685278221902" lon="9.794170054102008"><ele>1081.0</ele><time>2026-04-03T16:39:34.889Z</time></trkpt><trkpt lat="45.80691034986647" lon="9.79432246599103"><ele>1081.0</ele><time>2026-04-03T16:39:35.889Z</time></trkpt><trkpt lat="45.80694307126835" lon="9.794457787247515"><ele>1078.5</ele><time>2026-04-03T16:39:36.888Z</time></trkpt><trkpt lat="45.806968438334884" lon="9.79456811793208"><ele>1076.0</ele><time>2026-04-03T16:39:37.888Z</time></trkpt><trkpt lat="45.807007462091605" lon="9.79466802470019"><ele>1073.5</ele><time>2026-04-03T16:39:38.888Z</time></trkpt><trkpt lat="45.80704005030401" lon="9.794747026075623"><ele>1071.0</ele><time>2026-04-03T16:39:39.888Z</time></trkpt><trkpt lat="45.80707315202802" lon="9.794833353762526"><ele>1068.5</ele><time>2026-04-03T16:39:40.888Z</time></trkpt><trkpt lat="45.80712400950681" lon="9.79492228821687"><ele>1066.0</ele><time>2026-04-03T16:39:41.888Z</time></trkpt><trkpt lat="45.8071902045044" lon="9.79499464737933"><ele>1066.0</ele><time>2026-04-03T16:39:42.888Z</time></trkpt><trkpt lat="45.807252415991734" lon="9.795074811324277"><ele>1066.0</ele><time>2026-04-03T16:39:43.888Z</time></trkpt><trkpt lat="45.80729973111915" lon="9.795211010992627"><ele>1066.0</ele><time>2026-04-03T16:39:45.888Z</time></trkpt><trkpt lat="45.80731083646903" lon="9.795309101842593"><ele>1066.0</ele><time>2026-04-03T16:39:47.888Z</time></trkpt><trkpt lat="45.80727572221489" lon="9.79540798117846"><ele>1066.0</ele><time>2026-04-03T16:39:49.888Z</time></trkpt><trkpt lat="45.807221499331646" lon="9.795530624998571"><ele>1066.0</ele><time>2026-04-03T16:39:51.888Z</time></trkpt><trkpt lat="45.80717181197085" lon="9.795618518281119"><ele>1068.0</ele><time>2026-04-03T16:39:54.888Z</time></trkpt><trkpt lat="45.80717249102188" lon="9.795728273302357"><ele>1070.0</ele><time>2026-04-03T16:39:56.888Z</time></trkpt><trkpt lat="45.80716708893505" lon="9.795927752801715"><ele>1072.0</ele><time>2026-04-03T16:39:58.887Z</time></trkpt><trkpt lat="45.80720996249916" lon="9.796061269862381"><ele>1074.0</ele><time>2026-04-03T16:40:00.887Z</time></trkpt><trkpt lat="45.80726692399232" lon="9.796140847265978"><ele>1076.0</ele><time>2026-04-03T16:40:02.887Z</time></trkpt><trkpt lat="45.807284393029164" lon="9.796253044548315"><ele>1076.0</ele><time>2026-04-03T16:40:04.887Z</time></trkpt><trkpt lat="45.80732081481604" lon="9.796343792656867"><ele>1076.0</ele><time>2026-04-03T16:40:06.887Z</time></trkpt><trkpt lat="45.80736755591728" lon="9.796421335902625"><ele>1076.0</ele><time>2026-04-03T16:40:07.887Z</time></trkpt><trkpt lat="45.80740467533478" lon="9.79655723215629"><ele>1076.0</ele><time>2026-04-03T16:40:09.887Z</time></trkpt><trkpt lat="45.80741897614412" lon="9.79665421225795"><ele>1076.0</ele><time>2026-04-03T16:40:11.887Z</time></trkpt><trkpt lat="45.80745649039952" lon="9.796748372438037"><ele>1076.0</ele><time>2026-04-03T16:40:13.887Z</time></trkpt><trkpt lat="45.80744262648675" lon="9.796877494687724"><ele>1074.3333333333335</ele><time>2026-04-03T16:40:16.887Z</time></trkpt><trkpt lat="45.807437829748814" lon="9.79702462764936"><ele>1072.6666666666667</ele><time>2026-04-03T16:40:18.886Z</time></trkpt><trkpt lat="45.80740655466785" lon="9.797167006862681"><ele>1071.0</ele><time>2026-04-03T16:40:20.886Z</time></trkpt><trkpt lat="45.80741816662171" lon="9.79727881553253"><ele>1069.3333333333333</ele><time>2026-04-03T16:40:22.886Z</time></trkpt><trkpt lat="45.807442823963605" lon="9.79736671494523"><ele>1067.6666666666665</ele><time>2026-04-03T16:40:25.886Z</time></trkpt><trkpt lat="45.80747375161328" lon="9.797448003134454"><ele>1066.0</ele><time>2026-04-03T16:40:31.886Z</time></trkpt><trkpt lat="45.807505130933144" lon="9.797542632310757"><ele>1066.0</ele><time>2026-04-03T16:40:42.885Z</time></trkpt><trkpt lat="45.80750508199501" lon="9.797641558699839"><ele>1066.0</ele><time>2026-04-03T16:40:45.885Z</time></trkpt><trkpt lat="45.80749049503689" lon="9.79773226168013"><ele>1066.0</ele><time>2026-04-03T16:40:50.885Z</time></trkpt><trkpt lat="45.80747509945096" lon="9.797834099573114"><ele>1066.0</ele><time>2026-04-03T16:40:52.885Z</time></trkpt><trkpt lat="45.80748452496615" lon="9.797972601372189"><ele>1066.0</ele><time>2026-04-03T16:40:55.885Z</time></trkpt><trkpt lat="45.807500014330394" lon="9.798105735308779"><ele>1066.0</ele><time>2026-04-03T16:40:57.89Z</time></trkpt><trkpt lat="45.80753522339144" lon="9.798278149781101"><ele>1067.6</ele><time>2026-04-03T16:40:59.891Z</time></trkpt><trkpt lat="45.80758319624587" lon="9.798387900899423"><ele>1069.1999999999998</ele><time>2026-04-03T16:41:00.891Z</time></trkpt><trkpt lat="45.80762664318883" lon="9.79858075495162"><ele>1070.8000000000002</ele><time>2026-04-03T16:41:01.891Z</time></trkpt><trkpt lat="45.80770394888757" lon="9.79873570063645"><ele>1072.4</ele><time>2026-04-03T16:41:02.891Z</time></trkpt><trkpt lat="45.80774131561993" lon="9.798810451615685"><ele>1074.0</ele><time>2026-04-03T16:41:03.891Z</time></trkpt><trkpt lat="45.807791572770796" lon="9.79900357955221"><ele>1074.0</ele><time>2026-04-03T16:41:05.891Z</time></trkpt><trkpt lat="45.807830767455286" lon="9.799081428572958"><ele>1074.0</ele><time>2026-04-03T16:41:06.891Z</time></trkpt><trkpt lat="45.80786950562926" lon="9.799199983573551"><ele>1074.0</ele><time>2026-04-03T16:41:07.891Z</time></trkpt><trkpt lat="45.80789138618727" lon="9.799486778527951"><ele>1074.0</ele><time>2026-04-03T16:41:13.891Z</time></trkpt><trkpt lat="45.80789132527073" lon="9.799602958457491"><ele>1074.0</ele><time>2026-04-03T16:41:14.891Z</time></trkpt><trkpt lat="45.80789932065137" lon="9.799734721637671"><ele>1072.75</ele><time>2026-04-03T16:41:16.891Z</time></trkpt><trkpt lat="45.80787815407183" lon="9.800047365104913"><ele>1071.5</ele><time>2026-04-03T16:41:17.891Z</time></trkpt><trkpt lat="45.80787532265778" lon="9.800220671645475"><ele>1070.25</ele><time>2026-04-03T16:41:19.891Z</time></trkpt><trkpt lat="45.8078750079645" lon="9.800314332704652"><ele>1069.0</ele><time>2026-04-03T16:41:20.891Z</time></trkpt><trkpt lat="45.80787792151211" lon="9.800422055339439"><ele>1067.1666666666665</ele><time>2026-04-03T16:41:21.891Z</time></trkpt><trkpt lat="45.80788308183048" lon="9.800512808076041"><ele>1065.3333333333333</ele><time>2026-04-03T16:41:22.89Z</time></trkpt><trkpt lat="45.80789054555247" lon="9.80060358978215"><ele>1063.5</ele><time>2026-04-03T16:41:23.89Z</time></trkpt><trkpt lat="45.80790406853541" lon="9.800741945299015"><ele>1061.6666666666667</ele><time>2026-04-03T16:41:25.89Z</time></trkpt><trkpt lat="45.807937800385375" lon="9.800860785003243"><ele>1059.8333333333335</ele><time>2026-04-03T16:41:27.89Z</time></trkpt><trkpt lat="45.80797926972508" lon="9.801003531383087"><ele>1058.0</ele><time>2026-04-03T16:41:29.89Z</time></trkpt><trkpt lat="45.80798638562322" lon="9.801157746284868"><ele>1054.6</ele><time>2026-04-03T16:41:31.89Z</time></trkpt><trkpt lat="45.807964395109224" lon="9.80124680891531"><ele>1051.1999999999998</ele><time>2026-04-03T16:41:32.89Z</time></trkpt><trkpt lat="45.80795063893973" lon="9.801389613903117"><ele>1047.8</ele><time>2026-04-03T16:41:34.89Z</time></trkpt><trkpt lat="45.807938638966974" lon="9.801487797466681"><ele>1044.3999999999999</ele><time>2026-04-03T16:41:35.89Z</time></trkpt><trkpt lat="45.80792879026844" lon="9.801612356446213"><ele>1041.0</ele><time>2026-04-03T16:41:36.89Z</time></trkpt><trkpt lat="45.80791767145337" lon="9.801899625633611"><ele>1036.3333333333333</ele><time>2026-04-03T16:41:37.89Z</time></trkpt><trkpt lat="45.80788878496322" lon="9.801997785925419"><ele>1031.6666666666665</ele><time>2026-04-03T16:41:38.89Z</time></trkpt><trkpt lat="45.80803690040787" lon="9.802374727667"><ele>1027.0</ele><time>2026-04-03T16:41:39.89Z</time></trkpt><trkpt lat="45.80804943774606" lon="9.802505362455474"><ele>1023.25</ele><time>2026-04-03T16:41:40.89Z</time></trkpt><trkpt lat="45.80807516128393" lon="9.802700934054737"><ele>1019.5</ele><time>2026-04-03T16:41:41.89Z</time></trkpt><trkpt lat="45.808066800279455" lon="9.802919328716401"><ele>1015.75</ele><time>2026-04-03T16:41:42.889Z</time></trkpt><trkpt lat="45.8080691072786" lon="9.803083457394449"><ele>1012.0</ele><time>2026-04-03T16:41:43.889Z</time></trkpt><trkpt lat="45.80809264560013" lon="9.803171417720554"><ele>1011.9999999999999</ele><time>2026-04-03T16:41:44.889Z</time></trkpt><trkpt lat="45.80813479341549" lon="9.803260196381727"><ele>1012.0</ele><time>2026-04-03T16:41:46.889Z</time></trkpt><trkpt lat="45.80813353214191" lon="9.803389063389632"><ele>1012.0</ele><time>2026-04-03T16:41:48.889Z</time></trkpt><trkpt lat="45.80809824452798" lon="9.803537084459473"><ele>1012.0</ele><time>2026-04-03T16:41:50.889Z</time></trkpt><trkpt lat="45.80808451597389" lon="9.803630830174791"><ele>1011.9999999999999</ele><time>2026-04-03T16:41:51.889Z</time></trkpt><trkpt lat="45.80806036297148" lon="9.803716910372126"><ele>1012.0</ele><time>2026-04-03T16:41:52.889Z</time></trkpt><trkpt lat="45.8080554591849" lon="9.803828876796032"><ele>1009.0</ele><time>2026-04-03T16:41:54.889Z</time></trkpt><trkpt lat="45.808050907064384" lon="9.804029828415652"><ele>1006.0</ele><time>2026-04-03T16:41:56.889Z</time></trkpt><trkpt lat="45.80805065379935" lon="9.80414818736918"><ele>1003.0</ele><time>2026-04-03T16:41:57.889Z</time></trkpt><trkpt lat="45.808076539690546" lon="9.804260692471479"><ele>1000.0</ele><time>2026-04-03T16:41:58.889Z</time></trkpt><trkpt lat="45.8080873983487" lon="9.80441110916224"><ele>997.0</ele><time>2026-04-03T16:42:00.889Z</time></trkpt><trkpt lat="45.80808991243555" lon="9.804524954773978"><ele>993.8333333333333</ele><time>2026-04-03T16:42:01.889Z</time></trkpt><trkpt lat="45.80809851408426" lon="9.804642253613718"><ele>990.6666666666666</ele><time>2026-04-03T16:42:02.889Z</time></trkpt><trkpt lat="45.80811041493099" lon="9.804741260279874"><ele>987.5</ele><time>2026-04-03T16:42:03.888Z</time></trkpt><trkpt lat="45.808125886188215" lon="9.804871323920644"><ele>984.3333333333333</ele><time>2026-04-03T16:42:05.888Z</time></trkpt><trkpt lat="45.80815252431924" lon="9.804965760690672"><ele>981.1666666666666</ele><time>2026-04-03T16:42:06.888Z</time></trkpt><trkpt lat="45.80818215771977" lon="9.805047142321062"><ele>978.0</ele><time>2026-04-03T16:42:07.888Z</time></trkpt><trkpt lat="45.80822933567535" lon="9.805190200163691"><ele>974.0</ele><time>2026-04-03T16:42:09.888Z</time></trkpt><trkpt lat="45.808256316928876" lon="9.805276540679472"><ele>970.0</ele><time>2026-04-03T16:42:10.888Z</time></trkpt><trkpt lat="45.80829867447039" lon="9.805350308539573"><ele>966.0</ele><time>2026-04-03T16:42:11.888Z</time></trkpt><trkpt lat="45.808321006663085" lon="9.805460084439185"><ele>962.0</ele><time>2026-04-03T16:42:12.888Z</time></trkpt><trkpt lat="45.80835161185932" lon="9.805648581943899"><ele>958.0</ele><time>2026-04-03T16:42:14.888Z</time></trkpt><trkpt lat="45.80836008496713" lon="9.805750391995856"><ele>954.0</ele><time>2026-04-03T16:42:15.888Z</time></trkpt><trkpt lat="45.808347085798474" lon="9.80587630315474"><ele>950.8000000000001</ele><time>2026-04-03T16:42:17.888Z</time></trkpt><trkpt lat="45.80833441579631" lon="9.806020370119773"><ele>947.6000000000001</ele><time>2026-04-03T16:42:19.888Z</time></trkpt><trkpt lat="45.80834439249785" lon="9.806156651937734"><ele>944.4</ele><time>2026-04-03T16:42:21.888Z</time></trkpt><trkpt lat="45.80833521648761" lon="9.806296002272546"><ele>941.2</ele><time>2026-04-03T16:42:24.887Z</time></trkpt><trkpt lat="45.80831700551041" lon="9.806438662765094"><ele>938.0</ele><time>2026-04-03T16:42:26.887Z</time></trkpt><trkpt lat="45.80830166592992" lon="9.806596205964917"><ele>938.0000000000001</ele><time>2026-04-03T16:42:28.887Z</time></trkpt><trkpt lat="45.808289806986664" lon="9.806780686557413"><ele>938.0</ele><time>2026-04-03T16:42:30.887Z</time></trkpt><trkpt lat="45.8082537510208" lon="9.806935055268903"><ele>938.0</ele><time>2026-04-03T16:42:32.887Z</time></trkpt><trkpt lat="45.80822944647778" lon="9.807019498176649"><ele>938.0</ele><time>2026-04-03T16:42:33.887Z</time></trkpt><trkpt lat="45.8082180794967" lon="9.807111202690754"><ele>938.0000000000001</ele><time>2026-04-03T16:42:34.887Z</time></trkpt><trkpt lat="45.80820559779559" lon="9.807216761475228"><ele>938.0</ele><time>2026-04-03T16:42:36.887Z</time></trkpt><trkpt lat="45.80817776813583" lon="9.807364582168631"><ele>936.8</ele><time>2026-04-03T16:42:38.887Z</time></trkpt><trkpt lat="45.80817833249719" lon="9.807468202063168"><ele>935.5999999999999</ele><time>2026-04-03T16:42:39.887Z</time></trkpt><trkpt lat="45.808185429201785" lon="9.80756634083113"><ele>934.4000000000001</ele><time>2026-04-03T16:42:40.887Z</time></trkpt><trkpt lat="45.80815894094745" lon="9.807763911264379"><ele>933.2</ele><time>2026-04-03T16:42:42.887Z</time></trkpt><trkpt lat="45.808125969542154" lon="9.807907634464321"><ele>932.0</ele><time>2026-04-03T16:42:44.886Z</time></trkpt><trkpt lat="45.80812731241476" lon="9.80799997076415"><ele>931.0000000000001</ele><time>2026-04-03T16:42:45.886Z</time></trkpt><trkpt lat="45.80811629996449" lon="9.808121342029452"><ele>930.0</ele><time>2026-04-03T16:42:47.886Z</time></trkpt><trkpt lat="45.80810360152171" lon="9.808268710109072"><ele>929.0</ele><time>2026-04-03T16:42:50.886Z</time></trkpt><trkpt lat="45.80809306223294" lon="9.808374187104432"><ele>928.0</ele><time>2026-04-03T16:42:52.886Z</time></trkpt><trkpt lat="45.80809191285468" lon="9.808468399309845"><ele>927.0000000000001</ele><time>2026-04-03T16:42:54.886Z</time></trkpt><trkpt lat="45.80807901112657" lon="9.808556809900592"><ele>926.0</ele><time>2026-04-03T16:42:55.886Z</time></trkpt><trkpt lat="45.80807317288064" lon="9.808685262806243"><ele>924.5999999999999</ele><time>2026-04-03T16:42:57.886Z</time></trkpt><trkpt lat="45.808069042186624" lon="9.808838562048184"><ele>923.1999999999999</ele><time>2026-04-03T16:42:59.886Z</time></trkpt><trkpt lat="45.80808513899502" lon="9.808978605862746"><ele>921.8000000000001</ele><time>2026-04-03T16:43:01.886Z</time></trkpt><trkpt lat="45.808098175557234" lon="9.809133481843432"><ele>920.4000000000001</ele><time>2026-04-03T16:43:03.891Z</time></trkpt><trkpt lat="45.80812508224326" lon="9.809262634539575"><ele>919.0</ele><time>2026-04-03T16:43:05.891Z</time></trkpt><trkpt lat="45.80818087429562" lon="9.809407310114905"><ele>916.8333333333333</ele><time>2026-04-03T16:43:07.892Z</time></trkpt><trkpt lat="45.80823237096947" lon="9.809473825784966"><ele>914.6666666666666</ele><time>2026-04-03T16:43:09.891Z</time></trkpt><trkpt lat="45.80825017277027" lon="9.809605204132444"><ele>912.5</ele><time>2026-04-03T16:43:11.891Z</time></trkpt><trkpt lat="45.80823415023655" lon="9.809702603765556"><ele>910.3333333333333</ele><time>2026-04-03T16:43:12.891Z</time></trkpt><trkpt lat="45.80820359607001" lon="9.809785881333678"><ele>908.1666666666666</ele><time>2026-04-03T16:43:13.891Z</time></trkpt><trkpt lat="45.80821691320778" lon="9.809889792723373"><ele>906.0</ele><time>2026-04-03T16:43:14.891Z</time></trkpt><trkpt lat="45.80823282649315" lon="9.810045627704262"><ele>901.75</ele><time>2026-04-03T16:43:15.891Z</time></trkpt><trkpt lat="45.8082194653724" lon="9.81022414300664"><ele>897.5</ele><time>2026-04-03T16:43:16.891Z</time></trkpt><trkpt lat="45.80820947773728" lon="9.810407624171571"><ele>893.25</ele><time>2026-04-03T16:43:17.891Z</time></trkpt><trkpt lat="45.808237078968034" lon="9.81056557269287"><ele>889.0</ele><time>2026-04-03T16:43:18.891Z</time></trkpt><trkpt lat="45.808245678579226" lon="9.810735771928375"><ele>889.0</ele><time>2026-04-03T16:43:19.891Z</time></trkpt><trkpt lat="45.80822043480565" lon="9.810901111542437"><ele>889.0</ele><time>2026-04-03T16:43:20.891Z</time></trkpt><trkpt lat="45.80823120924368" lon="9.811095397519649"><ele>889.0</ele><time>2026-04-03T16:43:21.891Z</time></trkpt><trkpt lat="45.80820191077896" lon="9.8113207162044"><ele>889.0</ele><time>2026-04-03T16:43:22.891Z</time></trkpt><trkpt lat="45.80821524948486" lon="9.811506562808347"><ele>884.25</ele><time>2026-04-03T16:43:23.891Z</time></trkpt><trkpt lat="45.80820889934607" lon="9.811740699564988"><ele>879.5</ele><time>2026-04-03T16:43:24.891Z</time></trkpt><trkpt lat="45.80821039083701" lon="9.811892687480821"><ele>874.75</ele><time>2026-04-03T16:43:25.891Z</time></trkpt><trkpt lat="45.8082233979744" lon="9.812099893000427"><ele>870.0</ele><time>2026-04-03T16:43:26.891Z</time></trkpt><trkpt lat="45.80824342979898" lon="9.812235606501169"><ele>865.75</ele><time>2026-04-03T16:43:27.89Z</time></trkpt><trkpt lat="45.80825053541691" lon="9.81237847407479"><ele>861.5</ele><time>2026-04-03T16:43:28.89Z</time></trkpt><trkpt lat="45.80827079557345" lon="9.812490879699066"><ele>857.25</ele><time>2026-04-03T16:43:29.89Z</time></trkpt><trkpt lat="45.808321545154286" lon="9.812692736882038"><ele>853.0</ele><time>2026-04-03T16:43:31.89Z</time></trkpt><trkpt lat="45.808372429246226" lon="9.812867462734696"><ele>849.0</ele><time>2026-04-03T16:43:32.89Z</time></trkpt><trkpt lat="45.80840687968719" lon="9.813043985887214"><ele>845.0</ele><time>2026-04-03T16:43:33.89Z</time></trkpt><trkpt lat="45.8084102987575" lon="9.813215060568453"><ele>841.0</ele><time>2026-04-03T16:43:34.89Z</time></trkpt><trkpt lat="45.80842498821423" lon="9.813403163337407"><ele>837.0</ele><time>2026-04-03T16:43:35.89Z</time></trkpt><trkpt lat="45.80846614834138" lon="9.813625079732226"><ele>832.75</ele><time>2026-04-03T16:43:36.89Z</time></trkpt><trkpt lat="45.808473840322726" lon="9.813822198416192"><ele>828.5</ele><time>2026-04-03T16:43:37.89Z</time></trkpt><trkpt lat="45.80846214335718" lon="9.814017079400239"><ele>824.25</ele><time>2026-04-03T16:43:38.89Z</time></trkpt><trkpt lat="45.80846691763899" lon="9.814202974454526"><ele>820.0</ele><time>2026-04-03T16:43:39.89Z</time></trkpt><trkpt lat="45.808492490939706" lon="9.814368777049"><ele>823.6</ele><time>2026-04-03T16:43:40.89Z</time></trkpt><trkpt lat="45.808511211568096" lon="9.81452440785973"><ele>827.2</ele><time>2026-04-03T16:43:41.89Z</time></trkpt><trkpt lat="45.808543817296304" lon="9.814684793693756"><ele>830.8</ele><time>2026-04-03T16:43:42.89Z</time></trkpt><trkpt lat="45.808571077413234" lon="9.81484789686217"><ele>834.4</ele><time>2026-04-03T16:43:43.89Z</time></trkpt><trkpt lat="45.80858781457443" lon="9.814974881163616"><ele>838.0</ele><time>2026-04-03T16:43:44.89Z</time></trkpt><trkpt lat="45.80860269236193" lon="9.815109847744997"><ele>834.6666666666666</ele><time>2026-04-03T16:43:45.89Z</time></trkpt><trkpt lat="45.80864351016857" lon="9.815241634140314"><ele>831.3333333333333</ele><time>2026-04-03T16:43:46.89Z</time></trkpt><trkpt lat="45.80867615920618" lon="9.815356381388458"><ele>828.0</ele><time>2026-04-03T16:43:47.89Z</time></trkpt><trkpt lat="45.808759220873505" lon="9.815459351020042"><ele>824.6666666666667</ele><time>2026-04-03T16:43:49.889Z</time></trkpt><trkpt lat="45.80881010031679" lon="9.815524974771526"><ele>821.3333333333334</ele><time>2026-04-03T16:43:50.889Z</time></trkpt><trkpt lat="45.80876536603308" lon="9.815609885776551"><ele>818.0</ele><time>2026-04-03T16:43:52.889Z</time></trkpt><trkpt lat="45.808688983298325" lon="9.815717750161632"><ele>818.0</ele><time>2026-04-03T16:43:54.889Z</time></trkpt><trkpt lat="45.80865295903847" lon="9.815809568467769"><ele>818.0</ele><time>2026-04-03T16:43:56.889Z</time></trkpt><trkpt lat="45.80863379112153" lon="9.815911562792275"><ele>818.0</ele><time>2026-04-03T16:43:57.889Z</time></trkpt><trkpt lat="45.80857934034858" lon="9.816052761899433"><ele>818.0</ele><time>2026-04-03T16:43:58.889Z</time></trkpt><trkpt lat="45.8085325127112" lon="9.816207237294348"><ele>818.0</ele><time>2026-04-03T16:43:59.889Z</time></trkpt><trkpt lat="45.808596738104555" lon="9.81644126871038"><ele>816.0</ele><time>2026-04-03T16:44:00.889Z</time></trkpt><trkpt lat="45.80862748292992" lon="9.816637198053318"><ele>814.0</ele><time>2026-04-03T16:44:01.889Z</time></trkpt><trkpt lat="45.80866446476927" lon="9.816819230729351"><ele>812.0</ele><time>2026-04-03T16:44:02.889Z</time></trkpt><trkpt lat="45.808661631894125" lon="9.816948708724338"><ele>810.0</ele><time>2026-04-03T16:44:03.889Z</time></trkpt><trkpt lat="45.80865150012106" lon="9.817080188027276"><ele>808.4</ele><time>2026-04-03T16:44:04.889Z</time></trkpt><trkpt lat="45.80863313739695" lon="9.817192557796986"><ele>806.8</ele><time>2026-04-03T16:44:05.889Z</time></trkpt><trkpt lat="45.80860461211487" lon="9.817291724189499"><ele>805.2</ele><time>2026-04-03T16:44:06.889Z</time></trkpt><trkpt lat="45.80852422959736" lon="9.817440606067763"><ele>803.6</ele><time>2026-04-03T16:44:08.889Z</time></trkpt><trkpt lat="45.808448387649456" lon="9.817502928267425"><ele>802.0</ele><time>2026-04-03T16:44:09.888Z</time></trkpt><trkpt lat="45.808366498821" lon="9.817635922860509"><ele>798.4000000000001</ele><time>2026-04-03T16:44:11.888Z</time></trkpt><trkpt lat="45.80833539356672" lon="9.817714457064431"><ele>794.8000000000001</ele><time>2026-04-03T16:44:12.888Z</time></trkpt><trkpt lat="45.80827679712974" lon="9.817879179968225"><ele>791.2</ele><time>2026-04-03T16:44:14.888Z</time></trkpt><trkpt lat="45.808229809417085" lon="9.817957748883009"><ele>787.6</ele><time>2026-04-03T16:44:15.888Z</time></trkpt><trkpt lat="45.80815674216659" lon="9.81804055251174"><ele>784.0</ele><time>2026-04-03T16:44:16.888Z</time></trkpt><trkpt lat="45.80807886342644" lon="9.818116638552471"><ele>784.0</ele><time>2026-04-03T16:44:17.888Z</time></trkpt><trkpt lat="45.80799651409661" lon="9.818187485403739"><ele>784.0</ele><time>2026-04-03T16:44:18.888Z</time></trkpt><trkpt lat="45.807916501693256" lon="9.818266211896331"><ele>784.0</ele><time>2026-04-03T16:44:19.888Z</time></trkpt><trkpt lat="45.807845756883715" lon="9.8183548214392"><ele>784.0</ele><time>2026-04-03T16:44:20.888Z</time></trkpt><trkpt lat="45.80777345927096" lon="9.818428997483675"><ele>784.0</ele><time>2026-04-03T16:44:21.888Z</time></trkpt><trkpt lat="45.80769856583533" lon="9.818523660154524"><ele>780.0</ele><time>2026-04-03T16:44:22.888Z</time></trkpt><trkpt lat="45.807620094918306" lon="9.818623149722296"><ele>776.0</ele><time>2026-04-03T16:44:23.888Z</time></trkpt><trkpt lat="45.80754842830627" lon="9.818730753355753"><ele>772.0</ele><time>2026-04-03T16:44:24.888Z</time></trkpt><trkpt lat="45.80749293292357" lon="9.818838790232665"><ele>768.0</ele><time>2026-04-03T16:44:25.888Z</time></trkpt><trkpt lat="45.80744684238794" lon="9.818945961929252"><ele>764.0</ele><time>2026-04-03T16:44:26.888Z</time></trkpt><trkpt lat="45.807398580772585" lon="9.819041681848443"><ele>764.0</ele><time>2026-04-03T16:44:27.888Z</time></trkpt><trkpt lat="45.80735035654388" lon="9.819112120432386"><ele>764.0</ele><time>2026-04-03T16:44:28.888Z</time></trkpt><trkpt lat="45.807265553985374" lon="9.819246535481327"><ele>764.0</ele><time>2026-04-03T16:44:30.887Z</time></trkpt><trkpt lat="45.80717082628911" lon="9.819383542272103"><ele>764.0</ele><time>2026-04-03T16:44:32.887Z</time></trkpt><trkpt lat="45.807121051391334" lon="9.819536612919231"><ele>764.0</ele><time>2026-04-03T16:44:34.887Z</time></trkpt><trkpt lat="45.8070910544919" lon="9.819672786143048"><ele>764.6</ele><time>2026-04-03T16:44:37.887Z</time></trkpt><trkpt lat="45.80701418181774" lon="9.819683611870499"><ele>765.2</ele><time>2026-04-03T16:44:43.887Z</time></trkpt><trkpt lat="45.806897484369635" lon="9.819764924764804"><ele>765.8000000000001</ele><time>2026-04-03T16:44:46.887Z</time></trkpt><trkpt lat="45.806821031386754" lon="9.819868781577123"><ele>766.4000000000001</ele><time>2026-04-03T16:44:47.887Z</time></trkpt><trkpt lat="45.806717743434035" lon="9.8199197607973"><ele>767.0</ele><time>2026-04-03T16:44:48.887Z</time></trkpt><trkpt lat="45.806635354186646" lon="9.81994328370393"><ele>764.1428571428571</ele><time>2026-04-03T16:44:49.887Z</time></trkpt><trkpt lat="45.80657233234895" lon="9.819962451206141"><ele>761.2857142857143</ele><time>2026-04-03T16:44:50.886Z</time></trkpt><trkpt lat="45.806496259085876" lon="9.820018179324055"><ele>758.4285714285713</ele><time>2026-04-03T16:44:51.886Z</time></trkpt><trkpt lat="45.80642995470272" lon="9.820064662155719"><ele>755.5714285714286</ele><time>2026-04-03T16:44:52.886Z</time></trkpt><trkpt lat="45.80635166826856" lon="9.820094554813556"><ele>752.7142857142857</ele><time>2026-04-03T16:44:53.886Z</time></trkpt><trkpt lat="45.8062866888807" lon="9.820122925898268"><ele>749.8571428571428</ele><time>2026-04-03T16:44:54.886Z</time></trkpt><trkpt lat="45.80622490836107" lon="9.820177702086331"><ele>747.0</ele><time>2026-04-03T16:44:55.886Z</time></trkpt><trkpt lat="45.806140131476894" lon="9.82021632929494"><ele>747.0</ele><time>2026-04-03T16:44:56.886Z</time></trkpt><trkpt lat="45.806070332198175" lon="9.820246604504394"><ele>747.0</ele><time>2026-04-03T16:44:57.886Z</time></trkpt><trkpt lat="45.80600696366361" lon="9.8202730523945"><ele>747.0</ele><time>2026-04-03T16:44:58.886Z</time></trkpt><trkpt lat="45.80589718009122" lon="9.820386896063432"><ele>747.0</ele><time>2026-04-03T16:45:00.886Z</time></trkpt><trkpt lat="45.805851668526664" lon="9.820455991913665"><ele>747.0</ele><time>2026-04-03T16:45:01.886Z</time></trkpt><trkpt lat="45.80578891350083" lon="9.820538688250931"><ele>747.0</ele><time>2026-04-03T16:45:02.886Z</time></trkpt><trkpt lat="45.805713607537385" lon="9.820614306284106"><ele>741.8</ele><time>2026-04-03T16:45:03.886Z</time></trkpt><trkpt lat="45.80562971263797" lon="9.820703220230651"><ele>736.6</ele><time>2026-04-03T16:45:04.886Z</time></trkpt><trkpt lat="45.80555177319592" lon="9.820767559108061"><ele>731.4</ele><time>2026-04-03T16:45:05.886Z</time></trkpt><trkpt lat="45.80545468357882" lon="9.820798893902564"><ele>726.1999999999999</ele><time>2026-04-03T16:45:06.886Z</time></trkpt><trkpt lat="45.80534938643325" lon="9.820815659668082"><ele>721.0</ele><time>2026-04-03T16:45:07.886Z</time></trkpt><trkpt lat="45.80524859207422" lon="9.82083474999883"><ele>717.3333333333334</ele><time>2026-04-03T16:45:08.892Z</time></trkpt><trkpt lat="45.80515027252687" lon="9.82085579709448"><ele>713.6666666666667</ele><time>2026-04-03T16:45:09.893Z</time></trkpt><trkpt lat="45.80506956871772" lon="9.820887444102802"><ele>710.0</ele><time>2026-04-03T16:45:10.893Z</time></trkpt><trkpt lat="45.8050063638717" lon="9.82091948762246"><ele>706.3333333333334</ele><time>2026-04-03T16:45:11.892Z</time></trkpt><trkpt lat="45.80495337175994" lon="9.820987461484624"><ele>702.6666666666666</ele><time>2026-04-03T16:45:13.892Z</time></trkpt><trkpt lat="45.80488764379665" lon="9.821092995487101"><ele>699.0</ele><time>2026-04-03T16:45:17.892Z</time></trkpt><trkpt lat="45.80492076903379" lon="9.821246544758388"><ele>696.6</ele><time>2026-04-03T16:45:19.892Z</time></trkpt><trkpt lat="45.80498347068781" lon="9.821403328996672"><ele>694.2</ele><time>2026-04-03T16:45:21.893Z</time></trkpt><trkpt lat="45.805043596168815" lon="9.821489904240014"><ele>691.8000000000001</ele><time>2026-04-03T16:45:22.893Z</time></trkpt><trkpt lat="45.805081471753" lon="9.821592315225672"><ele>689.4000000000001</ele><time>2026-04-03T16:45:23.893Z</time></trkpt><trkpt lat="45.80512903133322" lon="9.821711096753708"><ele>687.0</ele><time>2026-04-03T16:45:24.893Z</time></trkpt><trkpt lat="45.805177626022726" lon="9.821814232020635"><ele>688.3333333333334</ele><time>2026-04-03T16:45:25.893Z</time></trkpt><trkpt lat="45.80521235737342" lon="9.821939326873334"><ele>689.6666666666666</ele><time>2026-04-03T16:45:26.892Z</time></trkpt><trkpt lat="45.80525135413938" lon="9.822058775015634"><ele>691.0</ele><time>2026-04-03T16:45:27.892Z</time></trkpt><trkpt lat="45.80528412803559" lon="9.822155553446997"><ele>692.3333333333333</ele><time>2026-04-03T16:45:28.892Z</time></trkpt><trkpt lat="45.805321311893096" lon="9.822244985233091"><ele>693.6666666666666</ele><time>2026-04-03T16:45:29.892Z</time></trkpt><trkpt lat="45.805368071130786" lon="9.822336683437792"><ele>695.0</ele><time>2026-04-03T16:45:30.892Z</time></trkpt><trkpt lat="45.80540662707941" lon="9.822431998675606"><ele>695.0</ele><time>2026-04-03T16:45:32.892Z</time></trkpt><trkpt lat="45.805436139053384" lon="9.822525637971077"><ele>695.0</ele><time>2026-04-03T16:45:35.892Z</time></trkpt><trkpt lat="45.805485609135516" lon="9.822601051747077"><ele>695.0</ele><time>2026-04-03T16:45:38.892Z</time></trkpt><trkpt lat="45.80539961777449" lon="9.822535762689169"><ele>695.0</ele><time>2026-04-03T16:45:41.892Z</time></trkpt><trkpt lat="45.805358025955414" lon="9.822464188233049"><ele>695.0</ele><time>2026-04-03T16:45:42.892Z</time></trkpt><trkpt lat="45.80532208657831" lon="9.822368882193798"><ele>695.0</ele><time>2026-04-03T16:45:43.892Z</time></trkpt><trkpt lat="45.80538579056923" lon="9.82249558251639"><ele>695.0000000000001</ele><time>2026-04-03T16:45:55.891Z</time></trkpt><trkpt lat="45.80543047389028" lon="9.822583982446403"><ele>695.0</ele><time>2026-04-03T16:45:58.891Z</time></trkpt><trkpt lat="45.805448834329624" lon="9.822493009000768"><ele>695.0</ele><time>2026-04-03T16:46:03.891Z</time></trkpt><trkpt lat="45.80539491567411" lon="9.822434233159502"><ele>695.0</ele><time>2026-04-03T16:46:06.891Z</time></trkpt><trkpt lat="45.80539879846187" lon="9.82232691452125"><ele>695.0</ele><time>2026-04-03T16:46:53.888Z</time></trkpt><trkpt lat="45.80536793406278" lon="9.822245457349936"><ele>695.0000000000001</ele><time>2026-04-03T16:47:02.793Z</time></trkpt><trkpt lat="45.80536168503809" lon="9.822152648639152"><ele>695.0</ele><time>2026-04-03T16:47:39.798Z</time></trkpt><trkpt lat="45.805376458976966" lon="9.822254586227864"><ele>695.0</ele><time>2026-04-03T16:49:42.797Z</time></trkpt><trkpt lat="45.80542531516331" lon="9.82241466998081"><ele>695.0</ele><time>2026-04-03T16:49:43.797Z</time></trkpt><trkpt lat="45.80552757664057" lon="9.822618803832391"><ele>695.0</ele><time>2026-04-03T16:49:44.796Z</time></trkpt><trkpt lat="45.805609118027824" lon="9.82278961873494"><ele>695.0</ele><time>2026-04-03T16:49:45.796Z</time></trkpt><trkpt lat="45.8056506858411" lon="9.822893347125445"><ele>695.6666666666666</ele><time>2026-04-03T16:49:46.796Z</time></trkpt><trkpt lat="45.805654376416264" lon="9.823007153406238"><ele>696.3333333333333</ele><time>2026-04-03T16:49:47.796Z</time></trkpt><trkpt lat="45.8056946862589" lon="9.823102926686174"><ele>697.0</ele><time>2026-04-03T16:49:48.796Z</time></trkpt><trkpt lat="45.8057452196903" lon="9.823197237206374"><ele>697.6666666666666</ele><time>2026-04-03T16:49:49.796Z</time></trkpt><trkpt lat="45.805825754861566" lon="9.823243919666329"><ele>698.3333333333334</ele><time>2026-04-03T16:49:50.796Z</time></trkpt><trkpt lat="45.805919138967646" lon="9.823292663932818"><ele>699.0</ele><time>2026-04-03T16:49:51.796Z</time></trkpt><trkpt lat="45.80602125478743" lon="9.823298863183606"><ele>699.0</ele><time>2026-04-03T16:49:52.796Z</time></trkpt><trkpt lat="45.80612625794106" lon="9.823300298166428"><ele>699.0</ele><time>2026-04-03T16:49:53.796Z</time></trkpt><trkpt lat="45.80619053654067" lon="9.82322187033674"><ele>699.0</ele><time>2026-04-03T16:49:54.796Z</time></trkpt><trkpt lat="45.806255901126505" lon="9.823215361256583"><ele>699.0</ele><time>2026-04-03T16:49:55.796Z</time></trkpt><trkpt lat="45.80632352995443" lon="9.823226207382461"><ele>699.0</ele><time>2026-04-03T16:49:56.796Z</time></trkpt><trkpt lat="45.80638499029054" lon="9.823257452263828"><ele>699.0</ele><time>2026-04-03T16:49:57.796Z</time></trkpt><trkpt lat="45.80641989139224" lon="9.823335011210494"><ele>699.0</ele><time>2026-04-03T16:49:58.796Z</time></trkpt><trkpt lat="45.806413183498584" lon="9.823491113175905"><ele>693.0</ele><time>2026-04-03T16:50:00.796Z</time></trkpt><trkpt lat="45.80646926599194" lon="9.823542157455492"><ele>693.0</ele><time>2026-04-03T16:50:18.794Z</time></trkpt><trkpt lat="45.80652879380979" lon="9.823474809570484"><ele>699.0</ele><time>2026-04-03T16:53:08.792Z</time></trkpt></trkseg></trk></gpx>